<?xml version="1.0" encoding="UTF-8" standalone="yes"?>
<gpx xmlns="http://www.topografix.com/GPX/1/1" xmlns:gpxx="http://www.garmin.com/xmlschemas/GpxExtensions/v3" xmlns:rcxx="http://www.routeconverter.de/xmlschemas/RouteCatalogExtensions/1.0" xmlns:nmea="http://trekbuddy.net/2009/01/gpx/nmea" version="1.1" creator="Generated by Christian Pesch's RouteConverter. See http://www.routeconverter.de">
    <trk>
        <name>SportyPalTrack</name>
        <desc>The track description</desc>
        <trkseg>
            <trkpt lon="10.610785" lat="47.48604">
                <ele>1208.3</ele>
                <time>2009-08-25T06:59:08.000Z</time>
                <name>Position 1</name>
            </trkpt>
            <trkpt lon="10.610785" lat="47.48604">
                <ele>1208.3</ele>
                <time>2009-08-25T06:59:08.000Z</time>
                <name>Position 2</name>
            </trkpt>
            <trkpt lon="10.610785" lat="47.48604">
                <ele>1208.3</ele>
                <time>2009-08-25T06:59:11.000Z</time>
                <name>Position 3</name>
            </trkpt>
            <trkpt lon="10.610785" lat="47.48604">
                <ele>1208.2</ele>
                <time>2009-08-25T06:59:14.000Z</time>
                <name>Position 4</name>
            </trkpt>
            <trkpt lon="10.6107866666667" lat="47.4860416666667">
                <ele>1208.2</ele>
                <time>2009-08-25T06:59:17.000Z</time>
                <name>Position 5</name>
            </trkpt>
            <trkpt lon="10.6107866666667" lat="47.4860433333333">
                <ele>1208.2</ele>
                <time>2009-08-25T06:59:20.000Z</time>
                <name>Position 6</name>
            </trkpt>
            <trkpt lon="10.610785" lat="47.486045">
                <ele>1208.2</ele>
                <time>2009-08-25T06:59:23.000Z</time>
                <name>Position 7</name>
            </trkpt>
            <trkpt lon="10.6107833333333" lat="47.486045">
                <ele>1208.2</ele>
                <time>2009-08-25T06:59:26.000Z</time>
                <name>Position 8</name>
            </trkpt>
            <trkpt lon="10.6107833333333" lat="47.4860416666667">
                <ele>1208.2</ele>
                <time>2009-08-25T06:59:29.000Z</time>
                <name>Position 9</name>
            </trkpt>
            <trkpt lon="10.6107833333333" lat="47.48604">
                <ele>1208.1</ele>
                <time>2009-08-25T06:59:32.000Z</time>
                <name>Position 10</name>
            </trkpt>
            <trkpt lon="10.6107833333333" lat="47.48604">
                <ele>1208.1</ele>
                <time>2009-08-25T06:59:35.000Z</time>
                <name>Position 11</name>
            </trkpt>
            <trkpt lon="10.610785" lat="47.4860416666667">
                <ele>1208.2</ele>
                <time>2009-08-25T06:59:38.000Z</time>
                <name>Position 12</name>
            </trkpt>
            <trkpt lon="10.6107833333333" lat="47.4860433333333">
                <ele>1208.3</ele>
                <time>2009-08-25T06:59:41.000Z</time>
                <name>Position 13</name>
            </trkpt>
            <trkpt lon="10.6107983333333" lat="47.4860466666667">
                <ele>1207.9</ele>
                <time>2009-08-25T06:59:44.000Z</time>
                <name>Position 14</name>
            </trkpt>
            <trkpt lon="10.6108083333333" lat="47.486045">
                <ele>1207.4</ele>
                <time>2009-08-25T06:59:47.000Z</time>
                <name>Position 15</name>
            </trkpt>
            <trkpt lon="10.610805" lat="47.4860483333333">
                <ele>1206.8</ele>
                <time>2009-08-25T06:59:50.000Z</time>
                <name>Position 16</name>
            </trkpt>
            <trkpt lon="10.6108016666667" lat="47.48604">
                <ele>1207.3</ele>
                <time>2009-08-25T06:59:53.000Z</time>
                <name>Position 17</name>
            </trkpt>
            <trkpt lon="10.6108033333333" lat="47.4860366666667">
                <ele>1207.4</ele>
                <time>2009-08-25T06:59:56.000Z</time>
                <name>Position 18</name>
            </trkpt>
            <trkpt lon="10.6108266666667" lat="47.4860433333333">
                <ele>1208.1</ele>
                <time>2009-08-25T06:59:59.000Z</time>
                <name>Position 19</name>
            </trkpt>
            <trkpt lon="10.6108733333333" lat="47.4860283333333">
                <ele>1208.3</ele>
                <time>2009-08-25T07:00:02.000Z</time>
                <name>Position 20</name>
            </trkpt>
            <trkpt lon="10.6109183333333" lat="47.4860133333333">
                <ele>1208.7</ele>
                <time>2009-08-25T07:00:05.000Z</time>
                <name>Position 21</name>
            </trkpt>
            <trkpt lon="10.6109233333333" lat="47.4860116666667">
                <ele>1208.9</ele>
                <time>2009-08-25T07:00:08.000Z</time>
                <name>Position 22</name>
            </trkpt>
            <trkpt lon="10.610925" lat="47.486005">
                <ele>1208.9</ele>
                <time>2009-08-25T07:00:11.000Z</time>
                <name>Position 23</name>
            </trkpt>
            <trkpt lon="10.6109533333333" lat="47.4859783333333">
                <ele>1209.6</ele>
                <time>2009-08-25T07:00:14.000Z</time>
                <name>Position 24</name>
            </trkpt>
            <trkpt lon="10.6109983333333" lat="47.4859583333333">
                <ele>1209.9</ele>
                <time>2009-08-25T07:00:17.000Z</time>
                <name>Position 25</name>
            </trkpt>
            <trkpt lon="10.6110366666667" lat="47.485935">
                <ele>1209.8</ele>
                <time>2009-08-25T07:00:20.000Z</time>
                <name>Position 26</name>
            </trkpt>
            <trkpt lon="10.61107" lat="47.4859116666667">
                <ele>1209.8</ele>
                <time>2009-08-25T07:00:23.000Z</time>
                <name>Position 27</name>
            </trkpt>
            <trkpt lon="10.6111" lat="47.4858816666667">
                <ele>1209.6</ele>
                <time>2009-08-25T07:00:26.000Z</time>
                <name>Position 28</name>
            </trkpt>
            <trkpt lon="10.611125" lat="47.4858516666667">
                <ele>1209.3</ele>
                <time>2009-08-25T07:00:29.000Z</time>
                <name>Position 29</name>
            </trkpt>
            <trkpt lon="10.6111483333333" lat="47.4858216666667">
                <ele>1209.1</ele>
                <time>2009-08-25T07:00:32.000Z</time>
                <name>Position 30</name>
            </trkpt>
            <trkpt lon="10.61118" lat="47.4857916666667">
                <ele>1209.1</ele>
                <time>2009-08-25T07:00:35.000Z</time>
                <name>Position 31</name>
            </trkpt>
            <trkpt lon="10.6112216666667" lat="47.485785">
                <ele>1209.5</ele>
                <time>2009-08-25T07:00:38.000Z</time>
                <name>Position 32</name>
            </trkpt>
            <trkpt lon="10.6112566666667" lat="47.4857983333333">
                <ele>1210.1</ele>
                <time>2009-08-25T07:00:41.000Z</time>
                <name>Position 33</name>
            </trkpt>
            <trkpt lon="10.611285" lat="47.4858233333333">
                <ele>1210.5</ele>
                <time>2009-08-25T07:00:44.000Z</time>
                <name>Position 34</name>
            </trkpt>
            <trkpt lon="10.6113166666667" lat="47.4858466666667">
                <ele>1211.1</ele>
                <time>2009-08-25T07:00:47.000Z</time>
                <name>Position 35</name>
            </trkpt>
            <trkpt lon="10.6113466666667" lat="47.4858716666667">
                <ele>1211.7</ele>
                <time>2009-08-25T07:00:50.000Z</time>
                <name>Position 36</name>
            </trkpt>
            <trkpt lon="10.6113733333333" lat="47.4859">
                <ele>1212.3</ele>
                <time>2009-08-25T07:00:53.000Z</time>
                <name>Position 37</name>
            </trkpt>
            <trkpt lon="10.611405" lat="47.4859183333333">
                <ele>1212.9</ele>
                <time>2009-08-25T07:00:56.000Z</time>
                <name>Position 38</name>
            </trkpt>
            <trkpt lon="10.61143" lat="47.4859466666667">
                <ele>1213.7</ele>
                <time>2009-08-25T07:00:59.000Z</time>
                <name>Position 39</name>
            </trkpt>
            <trkpt lon="10.6114516666667" lat="47.485975">
                <ele>1214.1</ele>
                <time>2009-08-25T07:01:02.000Z</time>
                <name>Position 40</name>
            </trkpt>
            <trkpt lon="10.61149" lat="47.4859983333333">
                <ele>1214.4</ele>
                <time>2009-08-25T07:01:05.000Z</time>
                <name>Position 41</name>
            </trkpt>
            <trkpt lon="10.6115233333333" lat="47.4860166666667">
                <ele>1215.0</ele>
                <time>2009-08-25T07:01:08.000Z</time>
                <name>Position 42</name>
            </trkpt>
            <trkpt lon="10.6115566666667" lat="47.486025">
                <ele>1215.5</ele>
                <time>2009-08-25T07:01:11.000Z</time>
                <name>Position 43</name>
            </trkpt>
            <trkpt lon="10.6115883333333" lat="47.4860483333333">
                <ele>1216.1</ele>
                <time>2009-08-25T07:01:14.000Z</time>
                <name>Position 44</name>
            </trkpt>
            <trkpt lon="10.6116283333333" lat="47.4860666666667">
                <ele>1216.7</ele>
                <time>2009-08-25T07:01:17.000Z</time>
                <name>Position 45</name>
            </trkpt>
            <trkpt lon="10.6116683333333" lat="47.4860816666667">
                <ele>1217.3</ele>
                <time>2009-08-25T07:01:20.000Z</time>
                <name>Position 46</name>
            </trkpt>
            <trkpt lon="10.6116983333333" lat="47.4861033333333">
                <ele>1218.0</ele>
                <time>2009-08-25T07:01:23.000Z</time>
                <name>Position 47</name>
            </trkpt>
            <trkpt lon="10.6117316666667" lat="47.48612">
                <ele>1218.4</ele>
                <time>2009-08-25T07:01:26.000Z</time>
                <name>Position 48</name>
            </trkpt>
            <trkpt lon="10.61176" lat="47.4861416666667">
                <ele>1219.7</ele>
                <time>2009-08-25T07:01:29.000Z</time>
                <name>Position 49</name>
            </trkpt>
            <trkpt lon="10.6117666666667" lat="47.4861716666667">
                <ele>1220.9</ele>
                <time>2009-08-25T07:01:32.000Z</time>
                <name>Position 50</name>
            </trkpt>
            <trkpt lon="10.6117883333333" lat="47.4861833333333">
                <ele>1221.1</ele>
                <time>2009-08-25T07:01:35.000Z</time>
                <name>Position 51</name>
            </trkpt>
            <trkpt lon="10.6117866666667" lat="47.48619">
                <ele>1221.4</ele>
                <time>2009-08-25T07:01:38.000Z</time>
                <name>Position 52</name>
            </trkpt>
            <trkpt lon="10.6118083333333" lat="47.4862116666667">
                <ele>1221.8</ele>
                <time>2009-08-25T07:01:41.000Z</time>
                <name>Position 53</name>
            </trkpt>
            <trkpt lon="10.6118283333333" lat="47.48623">
                <ele>1221.9</ele>
                <time>2009-08-25T07:01:44.000Z</time>
                <name>Position 54</name>
            </trkpt>
            <trkpt lon="10.6118566666667" lat="47.4862483333333">
                <ele>1222.3</ele>
                <time>2009-08-25T07:01:47.000Z</time>
                <name>Position 55</name>
            </trkpt>
            <trkpt lon="10.6118966666667" lat="47.4862616666667">
                <ele>1222.8</ele>
                <time>2009-08-25T07:01:50.000Z</time>
                <name>Position 56</name>
            </trkpt>
            <trkpt lon="10.6119333333333" lat="47.4862766666667">
                <ele>1223.1</ele>
                <time>2009-08-25T07:01:53.000Z</time>
                <name>Position 57</name>
            </trkpt>
            <trkpt lon="10.6119616666667" lat="47.4862916666667">
                <ele>1223.8</ele>
                <time>2009-08-25T07:01:56.000Z</time>
                <name>Position 58</name>
            </trkpt>
            <trkpt lon="10.6119866666667" lat="47.486315">
                <ele>1224.4</ele>
                <time>2009-08-25T07:01:59.000Z</time>
                <name>Position 59</name>
            </trkpt>
            <trkpt lon="10.6120116666667" lat="47.4863383333333">
                <ele>1225.0</ele>
                <time>2009-08-25T07:02:02.000Z</time>
                <name>Position 60</name>
            </trkpt>
            <trkpt lon="10.6120433333333" lat="47.4863566666667">
                <ele>1225.4</ele>
                <time>2009-08-25T07:02:05.000Z</time>
                <name>Position 61</name>
            </trkpt>
            <trkpt lon="10.6120683333333" lat="47.4863716666667">
                <ele>1226.0</ele>
                <time>2009-08-25T07:02:08.000Z</time>
                <name>Position 62</name>
            </trkpt>
            <trkpt lon="10.6120816666667" lat="47.486395">
                <ele>1226.5</ele>
                <time>2009-08-25T07:02:11.000Z</time>
                <name>Position 63</name>
            </trkpt>
            <trkpt lon="10.6121033333333" lat="47.4864166666667">
                <ele>1226.8</ele>
                <time>2009-08-25T07:02:14.000Z</time>
                <name>Position 64</name>
            </trkpt>
            <trkpt lon="10.61213" lat="47.48644">
                <ele>1227.4</ele>
                <time>2009-08-25T07:02:17.000Z</time>
                <name>Position 65</name>
            </trkpt>
            <trkpt lon="10.6121533333333" lat="47.4864633333333">
                <ele>1228.0</ele>
                <time>2009-08-25T07:02:20.000Z</time>
                <name>Position 66</name>
            </trkpt>
            <trkpt lon="10.6121783333333" lat="47.4864816666667">
                <ele>1228.5</ele>
                <time>2009-08-25T07:02:23.000Z</time>
                <name>Position 67</name>
            </trkpt>
            <trkpt lon="10.6122033333333" lat="47.4865033333333">
                <ele>1228.9</ele>
                <time>2009-08-25T07:02:26.000Z</time>
                <name>Position 68</name>
            </trkpt>
            <trkpt lon="10.6122366666667" lat="47.4865233333333">
                <ele>1229.1</ele>
                <time>2009-08-25T07:02:29.000Z</time>
                <name>Position 69</name>
            </trkpt>
            <trkpt lon="10.6122716666667" lat="47.486535">
                <ele>1230.0</ele>
                <time>2009-08-25T07:02:32.000Z</time>
                <name>Position 70</name>
            </trkpt>
            <trkpt lon="10.6122983333333" lat="47.4865516666667">
                <ele>1230.8</ele>
                <time>2009-08-25T07:02:35.000Z</time>
                <name>Position 71</name>
            </trkpt>
            <trkpt lon="10.6123316666667" lat="47.48657">
                <ele>1231.9</ele>
                <time>2009-08-25T07:02:38.000Z</time>
                <name>Position 72</name>
            </trkpt>
            <trkpt lon="10.61237" lat="47.4865683333333">
                <ele>1232.1</ele>
                <time>2009-08-25T07:02:41.000Z</time>
                <name>Position 73</name>
            </trkpt>
            <trkpt lon="10.612395" lat="47.486565">
                <ele>1232.3</ele>
                <time>2009-08-25T07:02:44.000Z</time>
                <name>Position 74</name>
            </trkpt>
            <trkpt lon="10.6123983333333" lat="47.4865583333333">
                <ele>1232.8</ele>
                <time>2009-08-25T07:02:47.000Z</time>
                <name>Position 75</name>
            </trkpt>
            <trkpt lon="10.6124" lat="47.4865616666667">
                <ele>1232.7</ele>
                <time>2009-08-25T07:02:50.000Z</time>
                <name>Position 76</name>
            </trkpt>
            <trkpt lon="10.6123983333333" lat="47.4865533333333">
                <ele>1232.9</ele>
                <time>2009-08-25T07:02:53.000Z</time>
                <name>Position 77</name>
            </trkpt>
            <trkpt lon="10.6124016666667" lat="47.4865583333333">
                <ele>1232.7</ele>
                <time>2009-08-25T07:02:56.000Z</time>
                <name>Position 78</name>
            </trkpt>
            <trkpt lon="10.6124016666667" lat="47.48656">
                <ele>1232.7</ele>
                <time>2009-08-25T07:02:59.000Z</time>
                <name>Position 79</name>
            </trkpt>
            <trkpt lon="10.6124033333333" lat="47.4865583333333">
                <ele>1232.8</ele>
                <time>2009-08-25T07:03:02.000Z</time>
                <name>Position 80</name>
            </trkpt>
            <trkpt lon="10.6124166666667" lat="47.4865516666667">
                <ele>1232.9</ele>
                <time>2009-08-25T07:03:05.000Z</time>
                <name>Position 81</name>
            </trkpt>
            <trkpt lon="10.6124166666667" lat="47.48655">
                <ele>1233.0</ele>
                <time>2009-08-25T07:03:08.000Z</time>
                <name>Position 82</name>
            </trkpt>
            <trkpt lon="10.6124166666667" lat="47.48655">
                <ele>1233.2</ele>
                <time>2009-08-25T07:03:11.000Z</time>
                <name>Position 83</name>
            </trkpt>
            <trkpt lon="10.6124183333333" lat="47.4865516666667">
                <ele>1233.3</ele>
                <time>2009-08-25T07:03:14.000Z</time>
                <name>Position 84</name>
            </trkpt>
            <trkpt lon="10.6124183333333" lat="47.4865516666667">
                <ele>1233.4</ele>
                <time>2009-08-25T07:03:17.000Z</time>
                <name>Position 85</name>
            </trkpt>
            <trkpt lon="10.6124183333333" lat="47.4865533333333">
                <ele>1233.5</ele>
                <time>2009-08-25T07:03:20.000Z</time>
                <name>Position 86</name>
            </trkpt>
            <trkpt lon="10.61242" lat="47.4865533333333">
                <ele>1233.7</ele>
                <time>2009-08-25T07:03:23.000Z</time>
                <name>Position 87</name>
            </trkpt>
            <trkpt lon="10.61242" lat="47.4865533333333">
                <ele>1233.8</ele>
                <time>2009-08-25T07:03:26.000Z</time>
                <name>Position 88</name>
            </trkpt>
            <trkpt lon="10.6124183333333" lat="47.4865533333333">
                <ele>1234.0</ele>
                <time>2009-08-25T07:03:29.000Z</time>
                <name>Position 89</name>
            </trkpt>
            <trkpt lon="10.6124183333333" lat="47.486555">
                <ele>1234.2</ele>
                <time>2009-08-25T07:03:32.000Z</time>
                <name>Position 90</name>
            </trkpt>
            <trkpt lon="10.6124216666667" lat="47.4865583333333">
                <ele>1234.3</ele>
                <time>2009-08-25T07:03:35.000Z</time>
                <name>Position 91</name>
            </trkpt>
            <trkpt lon="10.6124383333333" lat="47.4865666666667">
                <ele>1234.5</ele>
                <time>2009-08-25T07:03:38.000Z</time>
                <name>Position 92</name>
            </trkpt>
            <trkpt lon="10.6124533333333" lat="47.486585">
                <ele>1235.3</ele>
                <time>2009-08-25T07:03:41.000Z</time>
                <name>Position 93</name>
            </trkpt>
            <trkpt lon="10.6124733333333" lat="47.4866">
                <ele>1236.0</ele>
                <time>2009-08-25T07:03:44.000Z</time>
                <name>Position 94</name>
            </trkpt>
            <trkpt lon="10.6125033333333" lat="47.48661">
                <ele>1236.4</ele>
                <time>2009-08-25T07:03:47.000Z</time>
                <name>Position 95</name>
            </trkpt>
            <trkpt lon="10.61253" lat="47.4866316666667">
                <ele>1237.2</ele>
                <time>2009-08-25T07:03:50.000Z</time>
                <name>Position 96</name>
            </trkpt>
            <trkpt lon="10.6125633333333" lat="47.4866533333333">
                <ele>1238.2</ele>
                <time>2009-08-25T07:03:53.000Z</time>
                <name>Position 97</name>
            </trkpt>
            <trkpt lon="10.612595" lat="47.48667">
                <ele>1239.0</ele>
                <time>2009-08-25T07:03:56.000Z</time>
                <name>Position 98</name>
            </trkpt>
            <trkpt lon="10.6126266666667" lat="47.4866816666667">
                <ele>1239.5</ele>
                <time>2009-08-25T07:03:59.000Z</time>
                <name>Position 99</name>
            </trkpt>
            <trkpt lon="10.6126566666667" lat="47.4867016666667">
                <ele>1240.1</ele>
                <time>2009-08-25T07:04:02.000Z</time>
                <name>Position 100</name>
            </trkpt>
            <trkpt lon="10.6126933333333" lat="47.4867166666667">
                <ele>1240.5</ele>
                <time>2009-08-25T07:04:05.000Z</time>
                <name>Position 101</name>
            </trkpt>
            <trkpt lon="10.6127266666667" lat="47.486735">
                <ele>1240.8</ele>
                <time>2009-08-25T07:04:08.000Z</time>
                <name>Position 102</name>
            </trkpt>
            <trkpt lon="10.6127566666667" lat="47.48675">
                <ele>1241.1</ele>
                <time>2009-08-25T07:04:11.000Z</time>
                <name>Position 103</name>
            </trkpt>
            <trkpt lon="10.6127783333333" lat="47.4867483333333">
                <ele>1241.4</ele>
                <time>2009-08-25T07:04:14.000Z</time>
                <name>Position 104</name>
            </trkpt>
            <trkpt lon="10.6127783333333" lat="47.4867466666667">
                <ele>1241.3</ele>
                <time>2009-08-25T07:04:17.000Z</time>
                <name>Position 105</name>
            </trkpt>
            <trkpt lon="10.6127933333333" lat="47.48677">
                <ele>1241.7</ele>
                <time>2009-08-25T07:04:20.000Z</time>
                <name>Position 106</name>
            </trkpt>
            <trkpt lon="10.6128133333333" lat="47.4867883333333">
                <ele>1242.1</ele>
                <time>2009-08-25T07:04:23.000Z</time>
                <name>Position 107</name>
            </trkpt>
            <trkpt lon="10.61283" lat="47.48681">
                <ele>1242.7</ele>
                <time>2009-08-25T07:04:26.000Z</time>
                <name>Position 108</name>
            </trkpt>
            <trkpt lon="10.6128583333333" lat="47.4868266666667">
                <ele>1243.1</ele>
                <time>2009-08-25T07:04:29.000Z</time>
                <name>Position 109</name>
            </trkpt>
            <trkpt lon="10.6128883333333" lat="47.48684">
                <ele>1243.6</ele>
                <time>2009-08-25T07:04:32.000Z</time>
                <name>Position 110</name>
            </trkpt>
            <trkpt lon="10.6129183333333" lat="47.4868533333333">
                <ele>1244.1</ele>
                <time>2009-08-25T07:04:35.000Z</time>
                <name>Position 111</name>
            </trkpt>
            <trkpt lon="10.6129333333333" lat="47.486865">
                <ele>1244.5</ele>
                <time>2009-08-25T07:04:38.000Z</time>
                <name>Position 112</name>
            </trkpt>
            <trkpt lon="10.6129466666667" lat="47.486865">
                <ele>1244.7</ele>
                <time>2009-08-25T07:04:41.000Z</time>
                <name>Position 113</name>
            </trkpt>
            <trkpt lon="10.6129833333333" lat="47.4868616666667">
                <ele>1245.0</ele>
                <time>2009-08-25T07:04:44.000Z</time>
                <name>Position 114</name>
            </trkpt>
            <trkpt lon="10.6130183333333" lat="47.48687">
                <ele>1245.5</ele>
                <time>2009-08-25T07:04:47.000Z</time>
                <name>Position 115</name>
            </trkpt>
            <trkpt lon="10.6130366666667" lat="47.48688">
                <ele>1245.9</ele>
                <time>2009-08-25T07:04:50.000Z</time>
                <name>Position 116</name>
            </trkpt>
            <trkpt lon="10.61306" lat="47.4868966666667">
                <ele>1246.3</ele>
                <time>2009-08-25T07:04:53.000Z</time>
                <name>Position 117</name>
            </trkpt>
            <trkpt lon="10.6130883333333" lat="47.4868933333333">
                <ele>1247.0</ele>
                <time>2009-08-25T07:04:56.000Z</time>
                <name>Position 118</name>
            </trkpt>
            <trkpt lon="10.6131216666667" lat="47.4869">
                <ele>1247.4</ele>
                <time>2009-08-25T07:04:59.000Z</time>
                <name>Position 119</name>
            </trkpt>
            <trkpt lon="10.61314" lat="47.4869033333333">
                <ele>1248.2</ele>
                <time>2009-08-25T07:05:02.000Z</time>
                <name>Position 120</name>
            </trkpt>
            <trkpt lon="10.6131616666667" lat="47.4869016666667">
                <ele>1249.0</ele>
                <time>2009-08-25T07:05:05.000Z</time>
                <name>Position 121</name>
            </trkpt>
            <trkpt lon="10.613195" lat="47.4869083333333">
                <ele>1249.8</ele>
                <time>2009-08-25T07:05:08.000Z</time>
                <name>Position 122</name>
            </trkpt>
            <trkpt lon="10.613235" lat="47.486915">
                <ele>1250.4</ele>
                <time>2009-08-25T07:05:11.000Z</time>
                <name>Position 123</name>
            </trkpt>
            <trkpt lon="10.6132633333333" lat="47.4869266666667">
                <ele>1251.2</ele>
                <time>2009-08-25T07:05:14.000Z</time>
                <name>Position 124</name>
            </trkpt>
            <trkpt lon="10.613285" lat="47.48694">
                <ele>1251.7</ele>
                <time>2009-08-25T07:05:17.000Z</time>
                <name>Position 125</name>
            </trkpt>
            <trkpt lon="10.613305" lat="47.486965">
                <ele>1252.5</ele>
                <time>2009-08-25T07:05:20.000Z</time>
                <name>Position 126</name>
            </trkpt>
            <trkpt lon="10.6133416666667" lat="47.4869816666667">
                <ele>1252.5</ele>
                <time>2009-08-25T07:05:23.000Z</time>
                <name>Position 127</name>
            </trkpt>
            <trkpt lon="10.6133783333333" lat="47.4869933333333">
                <ele>1253.2</ele>
                <time>2009-08-25T07:05:26.000Z</time>
                <name>Position 128</name>
            </trkpt>
            <trkpt lon="10.6134166666667" lat="47.4869866666667">
                <ele>1253.8</ele>
                <time>2009-08-25T07:05:29.000Z</time>
                <name>Position 129</name>
            </trkpt>
            <trkpt lon="10.61346" lat="47.48698">
                <ele>1254.2</ele>
                <time>2009-08-25T07:05:32.000Z</time>
                <name>Position 130</name>
            </trkpt>
            <trkpt lon="10.6134933333333" lat="47.4869833333333">
                <ele>1254.7</ele>
                <time>2009-08-25T07:05:35.000Z</time>
                <name>Position 131</name>
            </trkpt>
            <trkpt lon="10.61351" lat="47.4870016666667">
                <ele>1255.3</ele>
                <time>2009-08-25T07:05:38.000Z</time>
                <name>Position 132</name>
            </trkpt>
            <trkpt lon="10.613535" lat="47.4870016666667">
                <ele>1255.8</ele>
                <time>2009-08-25T07:05:41.000Z</time>
                <name>Position 133</name>
            </trkpt>
            <trkpt lon="10.6135716666667" lat="47.486995">
                <ele>1256.8</ele>
                <time>2009-08-25T07:05:44.000Z</time>
                <name>Position 134</name>
            </trkpt>
            <trkpt lon="10.6136083333333" lat="47.4869766666667">
                <ele>1256.7</ele>
                <time>2009-08-25T07:05:47.000Z</time>
                <name>Position 135</name>
            </trkpt>
            <trkpt lon="10.6136533333333" lat="47.4869716666667">
                <ele>1256.9</ele>
                <time>2009-08-25T07:05:50.000Z</time>
                <name>Position 136</name>
            </trkpt>
            <trkpt lon="10.6137" lat="47.4869683333333">
                <ele>1257.2</ele>
                <time>2009-08-25T07:05:53.000Z</time>
                <name>Position 137</name>
            </trkpt>
            <trkpt lon="10.6137433333333" lat="47.4869716666667">
                <ele>1257.6</ele>
                <time>2009-08-25T07:05:56.000Z</time>
                <name>Position 138</name>
            </trkpt>
            <trkpt lon="10.6137883333333" lat="47.4869783333333">
                <ele>1258.0</ele>
                <time>2009-08-25T07:05:59.000Z</time>
                <name>Position 139</name>
            </trkpt>
            <trkpt lon="10.6138283333333" lat="47.486995">
                <ele>1258.4</ele>
                <time>2009-08-25T07:06:02.000Z</time>
                <name>Position 140</name>
            </trkpt>
            <trkpt lon="10.6138616666667" lat="47.48701">
                <ele>1258.9</ele>
                <time>2009-08-25T07:06:05.000Z</time>
                <name>Position 141</name>
            </trkpt>
            <trkpt lon="10.6139016666667" lat="47.4870216666667">
                <ele>1259.8</ele>
                <time>2009-08-25T07:06:08.000Z</time>
                <name>Position 142</name>
            </trkpt>
            <trkpt lon="10.6139366666667" lat="47.4870333333333">
                <ele>1260.3</ele>
                <time>2009-08-25T07:06:11.000Z</time>
                <name>Position 143</name>
            </trkpt>
            <trkpt lon="10.6139683333333" lat="47.4870483333333">
                <ele>1261.3</ele>
                <time>2009-08-25T07:06:14.000Z</time>
                <name>Position 144</name>
            </trkpt>
            <trkpt lon="10.6139983333333" lat="47.48706">
                <ele>1262.1</ele>
                <time>2009-08-25T07:06:17.000Z</time>
                <name>Position 145</name>
            </trkpt>
            <trkpt lon="10.614025" lat="47.487075">
                <ele>1263.0</ele>
                <time>2009-08-25T07:06:20.000Z</time>
                <name>Position 146</name>
            </trkpt>
            <trkpt lon="10.614055" lat="47.4870883333333">
                <ele>1263.8</ele>
                <time>2009-08-25T07:06:23.000Z</time>
                <name>Position 147</name>
            </trkpt>
            <trkpt lon="10.6140783333333" lat="47.487105">
                <ele>1264.5</ele>
                <time>2009-08-25T07:06:26.000Z</time>
                <name>Position 148</name>
            </trkpt>
            <trkpt lon="10.6140983333333" lat="47.4871216666667">
                <ele>1264.8</ele>
                <time>2009-08-25T07:06:29.000Z</time>
                <name>Position 149</name>
            </trkpt>
            <trkpt lon="10.61413" lat="47.4871316666667">
                <ele>1265.2</ele>
                <time>2009-08-25T07:06:32.000Z</time>
                <name>Position 150</name>
            </trkpt>
            <trkpt lon="10.614145" lat="47.48714">
                <ele>1265.6</ele>
                <time>2009-08-25T07:06:35.000Z</time>
                <name>Position 151</name>
            </trkpt>
            <trkpt lon="10.6141566666667" lat="47.4871533333333">
                <ele>1265.8</ele>
                <time>2009-08-25T07:06:38.000Z</time>
                <name>Position 152</name>
            </trkpt>
            <trkpt lon="10.61418" lat="47.4871666666667">
                <ele>1266.2</ele>
                <time>2009-08-25T07:06:41.000Z</time>
                <name>Position 153</name>
            </trkpt>
            <trkpt lon="10.6141866666667" lat="47.4871783333333">
                <ele>1266.8</ele>
                <time>2009-08-25T07:06:44.000Z</time>
                <name>Position 154</name>
            </trkpt>
            <trkpt lon="10.6142066666667" lat="47.4871833333333">
                <ele>1267.4</ele>
                <time>2009-08-25T07:06:47.000Z</time>
                <name>Position 155</name>
            </trkpt>
            <trkpt lon="10.6142333333333" lat="47.487185">
                <ele>1267.4</ele>
                <time>2009-08-25T07:06:50.000Z</time>
                <name>Position 156</name>
            </trkpt>
            <trkpt lon="10.614235" lat="47.4871883333333">
                <ele>1267.7</ele>
                <time>2009-08-25T07:06:53.000Z</time>
                <name>Position 157</name>
            </trkpt>
            <trkpt lon="10.6142333333333" lat="47.4871883333333">
                <ele>1267.7</ele>
                <time>2009-08-25T07:06:56.000Z</time>
                <name>Position 158</name>
            </trkpt>
            <trkpt lon="10.6142333333333" lat="47.4871883333333">
                <ele>1267.8</ele>
                <time>2009-08-25T07:06:59.000Z</time>
                <name>Position 159</name>
            </trkpt>
            <trkpt lon="10.6142233333333" lat="47.4872016666667">
                <ele>1268.1</ele>
                <time>2009-08-25T07:07:02.000Z</time>
                <name>Position 160</name>
            </trkpt>
            <trkpt lon="10.6142183333333" lat="47.4872266666667">
                <ele>1268.0</ele>
                <time>2009-08-25T07:07:05.000Z</time>
                <name>Position 161</name>
            </trkpt>
            <trkpt lon="10.61421" lat="47.487255">
                <ele>1268.3</ele>
                <time>2009-08-25T07:07:08.000Z</time>
                <name>Position 162</name>
            </trkpt>
            <trkpt lon="10.61421" lat="47.4872866666667">
                <ele>1268.8</ele>
                <time>2009-08-25T07:07:11.000Z</time>
                <name>Position 163</name>
            </trkpt>
            <trkpt lon="10.6142133333333" lat="47.4873166666667">
                <ele>1269.9</ele>
                <time>2009-08-25T07:07:14.000Z</time>
                <name>Position 164</name>
            </trkpt>
            <trkpt lon="10.6141916666667" lat="47.4873416666667">
                <ele>1270.9</ele>
                <time>2009-08-25T07:07:17.000Z</time>
                <name>Position 165</name>
            </trkpt>
            <trkpt lon="10.6141633333333" lat="47.487365">
                <ele>1271.9</ele>
                <time>2009-08-25T07:07:20.000Z</time>
                <name>Position 166</name>
            </trkpt>
            <trkpt lon="10.6141266666667" lat="47.4873816666667">
                <ele>1273.0</ele>
                <time>2009-08-25T07:07:23.000Z</time>
                <name>Position 167</name>
            </trkpt>
            <trkpt lon="10.61409" lat="47.487395">
                <ele>1274.5</ele>
                <time>2009-08-25T07:07:26.000Z</time>
                <name>Position 168</name>
            </trkpt>
            <trkpt lon="10.6140533333333" lat="47.4874083333333">
                <ele>1275.8</ele>
                <time>2009-08-25T07:07:29.000Z</time>
                <name>Position 169</name>
            </trkpt>
            <trkpt lon="10.6140333333333" lat="47.4874316666667">
                <ele>1277.0</ele>
                <time>2009-08-25T07:07:32.000Z</time>
                <name>Position 170</name>
            </trkpt>
            <trkpt lon="10.6140383333333" lat="47.4874583333333">
                <ele>1277.3</ele>
                <time>2009-08-25T07:07:35.000Z</time>
                <name>Position 171</name>
            </trkpt>
            <trkpt lon="10.6140783333333" lat="47.48746">
                <ele>1274.9</ele>
                <time>2009-08-25T07:07:38.000Z</time>
                <name>Position 172</name>
            </trkpt>
            <trkpt lon="10.614125" lat="47.4874566666667">
                <ele>1274.5</ele>
                <time>2009-08-25T07:07:41.000Z</time>
                <name>Position 173</name>
            </trkpt>
            <trkpt lon="10.6141716666667" lat="47.4874533333333">
                <ele>1274.4</ele>
                <time>2009-08-25T07:07:44.000Z</time>
                <name>Position 174</name>
            </trkpt>
            <trkpt lon="10.6142183333333" lat="47.4874516666667">
                <ele>1274.0</ele>
                <time>2009-08-25T07:07:47.000Z</time>
                <name>Position 175</name>
            </trkpt>
            <trkpt lon="10.6142616666667" lat="47.4874466666667">
                <ele>1273.9</ele>
                <time>2009-08-25T07:07:50.000Z</time>
                <name>Position 176</name>
            </trkpt>
            <trkpt lon="10.6142866666667" lat="47.4874383333333">
                <ele>1273.9</ele>
                <time>2009-08-25T07:07:53.000Z</time>
                <name>Position 177</name>
            </trkpt>
            <trkpt lon="10.6142833333333" lat="47.48744">
                <ele>1273.8</ele>
                <time>2009-08-25T07:07:56.000Z</time>
                <name>Position 178</name>
            </trkpt>
            <trkpt lon="10.61424" lat="47.4874316666667">
                <ele>1273.7</ele>
                <time>2009-08-25T07:07:59.000Z</time>
                <name>Position 179</name>
            </trkpt>
            <trkpt lon="10.6142216666667" lat="47.4874366666667">
                <ele>1273.6</ele>
                <time>2009-08-25T07:08:02.000Z</time>
                <name>Position 180</name>
            </trkpt>
            <trkpt lon="10.61418" lat="47.4874516666667">
                <ele>1273.5</ele>
                <time>2009-08-25T07:08:05.000Z</time>
                <name>Position 181</name>
            </trkpt>
            <trkpt lon="10.6141466666667" lat="47.4874483333333">
                <ele>1273.4</ele>
                <time>2009-08-25T07:08:08.000Z</time>
                <name>Position 182</name>
            </trkpt>
            <trkpt lon="10.6141266666667" lat="47.4874533333333">
                <ele>1273.3</ele>
                <time>2009-08-25T07:08:11.000Z</time>
                <name>Position 183</name>
            </trkpt>
            <trkpt lon="10.61409" lat="47.4874583333333">
                <ele>1273.3</ele>
                <time>2009-08-25T07:08:14.000Z</time>
                <name>Position 184</name>
            </trkpt>
            <trkpt lon="10.6140066666667" lat="47.4874566666667">
                <ele>1273.2</ele>
                <time>2009-08-25T07:08:17.000Z</time>
                <name>Position 185</name>
            </trkpt>
            <trkpt lon="10.613965" lat="47.4874633333333">
                <ele>1273.1</ele>
                <time>2009-08-25T07:08:20.000Z</time>
                <name>Position 186</name>
            </trkpt>
            <trkpt lon="10.61394" lat="47.487485">
                <ele>1272.9</ele>
                <time>2009-08-25T07:08:23.000Z</time>
                <name>Position 187</name>
            </trkpt>
            <trkpt lon="10.6139183333333" lat="47.4875083333333">
                <ele>1273.1</ele>
                <time>2009-08-25T07:08:26.000Z</time>
                <name>Position 188</name>
            </trkpt>
            <trkpt lon="10.61388" lat="47.4875333333333">
                <ele>1273.9</ele>
                <time>2009-08-25T07:08:29.000Z</time>
                <name>Position 189</name>
            </trkpt>
            <trkpt lon="10.6138483333333" lat="47.487555">
                <ele>1274.9</ele>
                <time>2009-08-25T07:08:32.000Z</time>
                <name>Position 190</name>
            </trkpt>
            <trkpt lon="10.613815" lat="47.4875733333333">
                <ele>1275.7</ele>
                <time>2009-08-25T07:08:35.000Z</time>
                <name>Position 191</name>
            </trkpt>
            <trkpt lon="10.6137983333333" lat="47.4875966666667">
                <ele>1276.9</ele>
                <time>2009-08-25T07:08:38.000Z</time>
                <name>Position 192</name>
            </trkpt>
            <trkpt lon="10.6137766666667" lat="47.48762">
                <ele>1277.9</ele>
                <time>2009-08-25T07:08:41.000Z</time>
                <name>Position 193</name>
            </trkpt>
            <trkpt lon="10.613745" lat="47.4876483333333">
                <ele>1278.7</ele>
                <time>2009-08-25T07:08:44.000Z</time>
                <name>Position 194</name>
            </trkpt>
            <trkpt lon="10.6137266666667" lat="47.487665">
                <ele>1278.3</ele>
                <time>2009-08-25T07:08:47.000Z</time>
                <name>Position 195</name>
            </trkpt>
            <trkpt lon="10.6137533333333" lat="47.4876616666667">
                <ele>1277.5</ele>
                <time>2009-08-25T07:08:50.000Z</time>
                <name>Position 196</name>
            </trkpt>
            <trkpt lon="10.6137566666667" lat="47.4876633333333">
                <ele>1274.2</ele>
                <time>2009-08-25T07:08:53.000Z</time>
                <name>Position 197</name>
            </trkpt>
            <trkpt lon="10.6137833333333" lat="47.4876533333333">
                <ele>1274.0</ele>
                <time>2009-08-25T07:08:56.000Z</time>
                <name>Position 198</name>
            </trkpt>
            <trkpt lon="10.6138216666667" lat="47.4876466666667">
                <ele>1274.1</ele>
                <time>2009-08-25T07:08:59.000Z</time>
                <name>Position 199</name>
            </trkpt>
            <trkpt lon="10.6138566666667" lat="47.4876433333333">
                <ele>1274.4</ele>
                <time>2009-08-25T07:09:02.000Z</time>
                <name>Position 200</name>
            </trkpt>
            <trkpt lon="10.6139" lat="47.4876366666667">
                <ele>1275.3</ele>
                <time>2009-08-25T07:09:05.000Z</time>
                <name>Position 201</name>
            </trkpt>
            <trkpt lon="10.613945" lat="47.4876366666667">
                <ele>1275.5</ele>
                <time>2009-08-25T07:09:08.000Z</time>
                <name>Position 202</name>
            </trkpt>
            <trkpt lon="10.613995" lat="47.4876416666667">
                <ele>1276.6</ele>
                <time>2009-08-25T07:09:11.000Z</time>
                <name>Position 203</name>
            </trkpt>
            <trkpt lon="10.61404" lat="47.48764">
                <ele>1277.0</ele>
                <time>2009-08-25T07:09:14.000Z</time>
                <name>Position 204</name>
            </trkpt>
            <trkpt lon="10.6140816666667" lat="47.487635">
                <ele>1277.6</ele>
                <time>2009-08-25T07:09:17.000Z</time>
                <name>Position 205</name>
            </trkpt>
            <trkpt lon="10.6141316666667" lat="47.4876416666667">
                <ele>1278.7</ele>
                <time>2009-08-25T07:09:20.000Z</time>
                <name>Position 206</name>
            </trkpt>
            <trkpt lon="10.61418" lat="47.48765">
                <ele>1279.2</ele>
                <time>2009-08-25T07:09:23.000Z</time>
                <name>Position 207</name>
            </trkpt>
            <trkpt lon="10.6142266666667" lat="47.4876516666667">
                <ele>1279.9</ele>
                <time>2009-08-25T07:09:26.000Z</time>
                <name>Position 208</name>
            </trkpt>
            <trkpt lon="10.6142733333333" lat="47.4876433333333">
                <ele>1278.8</ele>
                <time>2009-08-25T07:09:29.000Z</time>
                <name>Position 209</name>
            </trkpt>
            <trkpt lon="10.6143166666667" lat="47.48765">
                <ele>1279.2</ele>
                <time>2009-08-25T07:09:32.000Z</time>
                <name>Position 210</name>
            </trkpt>
            <trkpt lon="10.61436" lat="47.48766">
                <ele>1279.5</ele>
                <time>2009-08-25T07:09:35.000Z</time>
                <name>Position 211</name>
            </trkpt>
            <trkpt lon="10.6144016666667" lat="47.4876716666667">
                <ele>1280.2</ele>
                <time>2009-08-25T07:09:38.000Z</time>
                <name>Position 212</name>
            </trkpt>
            <trkpt lon="10.6144466666667" lat="47.4876833333333">
                <ele>1280.6</ele>
                <time>2009-08-25T07:09:41.000Z</time>
                <name>Position 213</name>
            </trkpt>
            <trkpt lon="10.614485" lat="47.4877">
                <ele>1281.3</ele>
                <time>2009-08-25T07:09:44.000Z</time>
                <name>Position 214</name>
            </trkpt>
            <trkpt lon="10.6145166666667" lat="47.48772">
                <ele>1282.2</ele>
                <time>2009-08-25T07:09:47.000Z</time>
                <name>Position 215</name>
            </trkpt>
            <trkpt lon="10.614555" lat="47.4877316666667">
                <ele>1282.7</ele>
                <time>2009-08-25T07:09:50.000Z</time>
                <name>Position 216</name>
            </trkpt>
            <trkpt lon="10.6145933333333" lat="47.4877466666667">
                <ele>1283.3</ele>
                <time>2009-08-25T07:09:53.000Z</time>
                <name>Position 217</name>
            </trkpt>
            <trkpt lon="10.6146366666667" lat="47.4877633333333">
                <ele>1284.0</ele>
                <time>2009-08-25T07:09:56.000Z</time>
                <name>Position 218</name>
            </trkpt>
            <trkpt lon="10.6146733333333" lat="47.4877716666667">
                <ele>1285.0</ele>
                <time>2009-08-25T07:09:59.000Z</time>
                <name>Position 219</name>
            </trkpt>
            <trkpt lon="10.614715" lat="47.4877833333333">
                <ele>1285.9</ele>
                <time>2009-08-25T07:10:02.000Z</time>
                <name>Position 220</name>
            </trkpt>
            <trkpt lon="10.6147583333333" lat="47.4877916666667">
                <ele>1286.7</ele>
                <time>2009-08-25T07:10:05.000Z</time>
                <name>Position 221</name>
            </trkpt>
            <trkpt lon="10.614805" lat="47.487795">
                <ele>1287.4</ele>
                <time>2009-08-25T07:10:08.000Z</time>
                <name>Position 222</name>
            </trkpt>
            <trkpt lon="10.6148416666667" lat="47.4878">
                <ele>1288.2</ele>
                <time>2009-08-25T07:10:11.000Z</time>
                <name>Position 223</name>
            </trkpt>
            <trkpt lon="10.6148883333333" lat="47.48781">
                <ele>1288.8</ele>
                <time>2009-08-25T07:10:14.000Z</time>
                <name>Position 224</name>
            </trkpt>
            <trkpt lon="10.6149333333333" lat="47.4878133333333">
                <ele>1289.7</ele>
                <time>2009-08-25T07:10:17.000Z</time>
                <name>Position 225</name>
            </trkpt>
            <trkpt lon="10.614975" lat="47.4878233333333">
                <ele>1290.4</ele>
                <time>2009-08-25T07:10:20.000Z</time>
                <name>Position 226</name>
            </trkpt>
            <trkpt lon="10.615035" lat="47.4878283333333">
                <ele>1291.0</ele>
                <time>2009-08-25T07:10:23.000Z</time>
                <name>Position 227</name>
            </trkpt>
            <trkpt lon="10.6150866666667" lat="47.4878283333333">
                <ele>1292.0</ele>
                <time>2009-08-25T07:10:26.000Z</time>
                <name>Position 228</name>
            </trkpt>
            <trkpt lon="10.61513" lat="47.4878333333333">
                <ele>1292.9</ele>
                <time>2009-08-25T07:10:29.000Z</time>
                <name>Position 229</name>
            </trkpt>
            <trkpt lon="10.6151616666667" lat="47.4878466666667">
                <ele>1293.6</ele>
                <time>2009-08-25T07:10:32.000Z</time>
                <name>Position 230</name>
            </trkpt>
            <trkpt lon="10.6151033333333" lat="47.4878483333333">
                <ele>1295.1</ele>
                <time>2009-08-25T07:10:37.000Z</time>
                <name>Position 231</name>
            </trkpt>
            <trkpt lon="10.6150716666667" lat="47.4878433333333">
                <ele>1296.1</ele>
                <time>2009-08-25T07:10:40.000Z</time>
                <name>Position 232</name>
            </trkpt>
            <trkpt lon="10.6150433333333" lat="47.487845">
                <ele>1297.3</ele>
                <time>2009-08-25T07:10:44.000Z</time>
                <name>Position 233</name>
            </trkpt>
            <trkpt lon="10.6150233333333" lat="47.487855">
                <ele>1298.6</ele>
                <time>2009-08-25T07:10:46.000Z</time>
                <name>Position 234</name>
            </trkpt>
            <trkpt lon="10.6150116666667" lat="47.487845">
                <ele>1299.4</ele>
                <time>2009-08-25T07:10:49.000Z</time>
                <name>Position 235</name>
            </trkpt>
            <trkpt lon="10.615005" lat="47.4878633333333">
                <ele>1300.4</ele>
                <time>2009-08-25T07:10:52.000Z</time>
                <name>Position 236</name>
            </trkpt>
            <trkpt lon="10.6150083333333" lat="47.4878916666667">
                <ele>1301.7</ele>
                <time>2009-08-25T07:10:56.000Z</time>
                <name>Position 237</name>
            </trkpt>
            <trkpt lon="10.614995" lat="47.4878916666667">
                <ele>1302.7</ele>
                <time>2009-08-25T07:10:59.000Z</time>
                <name>Position 238</name>
            </trkpt>
            <trkpt lon="10.6149683333333" lat="47.4878833333333">
                <ele>1304.0</ele>
                <time>2009-08-25T07:11:02.000Z</time>
                <name>Position 239</name>
            </trkpt>
            <trkpt lon="10.6149466666667" lat="47.4878916666667">
                <ele>1305.2</ele>
                <time>2009-08-25T07:11:05.000Z</time>
                <name>Position 240</name>
            </trkpt>
            <trkpt lon="10.61491" lat="47.487885">
                <ele>1306.3</ele>
                <time>2009-08-25T07:11:08.000Z</time>
                <name>Position 241</name>
            </trkpt>
            <trkpt lon="10.6148716666667" lat="47.4878716666667">
                <ele>1307.4</ele>
                <time>2009-08-25T07:11:11.000Z</time>
                <name>Position 242</name>
            </trkpt>
            <trkpt lon="10.6148466666667" lat="47.4878583333333">
                <ele>1308.1</ele>
                <time>2009-08-25T07:11:14.000Z</time>
                <name>Position 243</name>
            </trkpt>
            <trkpt lon="10.614825" lat="47.4878483333333">
                <ele>1309.0</ele>
                <time>2009-08-25T07:11:17.000Z</time>
                <name>Position 244</name>
            </trkpt>
            <trkpt lon="10.614835" lat="47.4878583333333">
                <ele>1310.1</ele>
                <time>2009-08-25T07:11:20.000Z</time>
                <name>Position 245</name>
            </trkpt>
            <trkpt lon="10.6147966666667" lat="47.487855">
                <ele>1310.3</ele>
                <time>2009-08-25T07:11:23.000Z</time>
                <name>Position 246</name>
            </trkpt>
            <trkpt lon="10.6147466666667" lat="47.4878566666667">
                <ele>1310.7</ele>
                <time>2009-08-25T07:11:26.000Z</time>
                <name>Position 247</name>
            </trkpt>
            <trkpt lon="10.6147216666667" lat="47.4878533333333">
                <ele>1311.2</ele>
                <time>2009-08-25T07:11:28.000Z</time>
                <name>Position 248</name>
            </trkpt>
            <trkpt lon="10.6147066666667" lat="47.4878716666667">
                <ele>1310.8</ele>
                <time>2009-08-25T07:11:31.000Z</time>
                <name>Position 249</name>
            </trkpt>
            <trkpt lon="10.6146916666667" lat="47.4878916666667">
                <ele>1310.4</ele>
                <time>2009-08-25T07:11:34.000Z</time>
                <name>Position 250</name>
            </trkpt>
            <trkpt lon="10.61465" lat="47.4879033333333">
                <ele>1310.7</ele>
                <time>2009-08-25T07:11:38.000Z</time>
                <name>Position 251</name>
            </trkpt>
            <trkpt lon="10.6146033333333" lat="47.4879266666667">
                <ele>1311.4</ele>
                <time>2009-08-25T07:11:41.000Z</time>
                <name>Position 252</name>
            </trkpt>
            <trkpt lon="10.6145816666667" lat="47.4879233333333">
                <ele>1311.4</ele>
                <time>2009-08-25T07:11:44.000Z</time>
                <name>Position 253</name>
            </trkpt>
            <trkpt lon="10.6145466666667" lat="47.4879266666667">
                <ele>1311.3</ele>
                <time>2009-08-25T07:11:47.000Z</time>
                <name>Position 254</name>
            </trkpt>
            <trkpt lon="10.6144916666667" lat="47.4879116666667">
                <ele>1311.7</ele>
                <time>2009-08-25T07:11:49.000Z</time>
                <name>Position 255</name>
            </trkpt>
            <trkpt lon="10.614445" lat="47.4879">
                <ele>1312.4</ele>
                <time>2009-08-25T07:11:53.000Z</time>
                <name>Position 256</name>
            </trkpt>
            <trkpt lon="10.6144533333333" lat="47.4879716666667">
                <ele>1313.5</ele>
                <time>2009-08-25T07:11:56.000Z</time>
                <name>Position 257</name>
            </trkpt>
            <trkpt lon="10.614455" lat="47.48801">
                <ele>1314.1</ele>
                <time>2009-08-25T07:11:59.000Z</time>
                <name>Position 258</name>
            </trkpt>
            <trkpt lon="10.6143983333333" lat="47.48803">
                <ele>1315.3</ele>
                <time>2009-08-25T07:12:01.000Z</time>
                <name>Position 259</name>
            </trkpt>
            <trkpt lon="10.6143716666667" lat="47.4880483333333">
                <ele>1317.2</ele>
                <time>2009-08-25T07:12:04.000Z</time>
                <name>Position 260</name>
            </trkpt>
            <trkpt lon="10.6143516666667" lat="47.48807">
                <ele>1318.4</ele>
                <time>2009-08-25T07:12:07.000Z</time>
                <name>Position 261</name>
            </trkpt>
            <trkpt lon="10.61433" lat="47.488085">
                <ele>1319.9</ele>
                <time>2009-08-25T07:12:10.000Z</time>
                <name>Position 262</name>
            </trkpt>
            <trkpt lon="10.6143183333333" lat="47.4881033333333">
                <ele>1321.3</ele>
                <time>2009-08-25T07:12:13.000Z</time>
                <name>Position 263</name>
            </trkpt>
            <trkpt lon="10.61431" lat="47.4881183333333">
                <ele>1322.4</ele>
                <time>2009-08-25T07:12:17.000Z</time>
                <name>Position 264</name>
            </trkpt>
            <trkpt lon="10.6143066666667" lat="47.4881316666667">
                <ele>1323.3</ele>
                <time>2009-08-25T07:12:19.000Z</time>
                <name>Position 265</name>
            </trkpt>
            <trkpt lon="10.614295" lat="47.4881383333333">
                <ele>1323.8</ele>
                <time>2009-08-25T07:12:22.000Z</time>
                <name>Position 266</name>
            </trkpt>
            <trkpt lon="10.614285" lat="47.4881466666667">
                <ele>1324.6</ele>
                <time>2009-08-25T07:12:25.000Z</time>
                <name>Position 267</name>
            </trkpt>
            <trkpt lon="10.6142433333333" lat="47.48816">
                <ele>1325.3</ele>
                <time>2009-08-25T07:12:29.000Z</time>
                <name>Position 268</name>
            </trkpt>
            <trkpt lon="10.6142333333333" lat="47.488175">
                <ele>1325.9</ele>
                <time>2009-08-25T07:12:32.000Z</time>
                <name>Position 269</name>
            </trkpt>
            <trkpt lon="10.6141966666667" lat="47.488185">
                <ele>1326.5</ele>
                <time>2009-08-25T07:12:34.000Z</time>
                <name>Position 270</name>
            </trkpt>
            <trkpt lon="10.6141683333333" lat="47.488195">
                <ele>1327.2</ele>
                <time>2009-08-25T07:12:37.000Z</time>
                <name>Position 271</name>
            </trkpt>
            <trkpt lon="10.614165" lat="47.488205">
                <ele>1326.9</ele>
                <time>2009-08-25T07:12:41.000Z</time>
                <name>Position 272</name>
            </trkpt>
            <trkpt lon="10.6141716666667" lat="47.4882183333333">
                <ele>1326.5</ele>
                <time>2009-08-25T07:12:44.000Z</time>
                <name>Position 273</name>
            </trkpt>
            <trkpt lon="10.6141266666667" lat="47.48822">
                <ele>1326.2</ele>
                <time>2009-08-25T07:12:47.000Z</time>
                <name>Position 274</name>
            </trkpt>
            <trkpt lon="10.61406" lat="47.48823">
                <ele>1323.3</ele>
                <time>2009-08-25T07:12:50.000Z</time>
                <name>Position 275</name>
            </trkpt>
            <trkpt lon="10.61405" lat="47.4882583333333">
                <ele>1323.4</ele>
                <time>2009-08-25T07:12:53.000Z</time>
                <name>Position 276</name>
            </trkpt>
            <trkpt lon="10.6140366666667" lat="47.488275">
                <ele>1323.4</ele>
                <time>2009-08-25T07:12:56.000Z</time>
                <name>Position 277</name>
            </trkpt>
            <trkpt lon="10.6140166666667" lat="47.488285">
                <ele>1323.2</ele>
                <time>2009-08-25T07:12:59.000Z</time>
                <name>Position 278</name>
            </trkpt>
            <trkpt lon="10.61401" lat="47.4882983333333">
                <ele>1323.5</ele>
                <time>2009-08-25T07:13:02.000Z</time>
                <name>Position 279</name>
            </trkpt>
            <trkpt lon="10.6140066666667" lat="47.4883166666667">
                <ele>1323.6</ele>
                <time>2009-08-25T07:13:05.000Z</time>
                <name>Position 280</name>
            </trkpt>
            <trkpt lon="10.6140083333333" lat="47.488335">
                <ele>1323.7</ele>
                <time>2009-08-25T07:13:07.000Z</time>
                <name>Position 281</name>
            </trkpt>
            <trkpt lon="10.6139933333333" lat="47.4883533333333">
                <ele>1324.4</ele>
                <time>2009-08-25T07:13:10.000Z</time>
                <name>Position 282</name>
            </trkpt>
            <trkpt lon="10.6139483333333" lat="47.4883566666667">
                <ele>1326.6</ele>
                <time>2009-08-25T07:13:13.000Z</time>
                <name>Position 283</name>
            </trkpt>
            <trkpt lon="10.613925" lat="47.488365">
                <ele>1328.2</ele>
                <time>2009-08-25T07:13:16.000Z</time>
                <name>Position 284</name>
            </trkpt>
            <trkpt lon="10.61391" lat="47.488365">
                <ele>1328.6</ele>
                <time>2009-08-25T07:13:20.000Z</time>
                <name>Position 285</name>
            </trkpt>
            <trkpt lon="10.6138816666667" lat="47.4883616666667">
                <ele>1329.3</ele>
                <time>2009-08-25T07:13:23.000Z</time>
                <name>Position 286</name>
            </trkpt>
            <trkpt lon="10.613865" lat="47.4883766666667">
                <ele>1329.3</ele>
                <time>2009-08-25T07:13:26.000Z</time>
                <name>Position 287</name>
            </trkpt>
            <trkpt lon="10.6138733333333" lat="47.488405">
                <ele>1329.7</ele>
                <time>2009-08-25T07:13:29.000Z</time>
                <name>Position 288</name>
            </trkpt>
            <trkpt lon="10.6138783333333" lat="47.48843">
                <ele>1330.0</ele>
                <time>2009-08-25T07:13:32.000Z</time>
                <name>Position 289</name>
            </trkpt>
            <trkpt lon="10.6138833333333" lat="47.488445">
                <ele>1330.2</ele>
                <time>2009-08-25T07:13:34.000Z</time>
                <name>Position 290</name>
            </trkpt>
            <trkpt lon="10.6138766666667" lat="47.4884533333333">
                <ele>1330.6</ele>
                <time>2009-08-25T07:13:37.000Z</time>
                <name>Position 291</name>
            </trkpt>
            <trkpt lon="10.6138733333333" lat="47.4884583333333">
                <ele>1330.3</ele>
                <time>2009-08-25T07:13:40.000Z</time>
                <name>Position 292</name>
            </trkpt>
            <trkpt lon="10.61384" lat="47.488465">
                <ele>1331.2</ele>
                <time>2009-08-25T07:13:44.000Z</time>
                <name>Position 293</name>
            </trkpt>
            <trkpt lon="10.6137916666667" lat="47.4884583333333">
                <ele>1333.1</ele>
                <time>2009-08-25T07:13:47.000Z</time>
                <name>Position 294</name>
            </trkpt>
            <trkpt lon="10.613775" lat="47.4884783333333">
                <ele>1333.7</ele>
                <time>2009-08-25T07:13:49.000Z</time>
                <name>Position 295</name>
            </trkpt>
            <trkpt lon="10.6137483333333" lat="47.4884933333333">
                <ele>1334.1</ele>
                <time>2009-08-25T07:13:52.000Z</time>
                <name>Position 296</name>
            </trkpt>
            <trkpt lon="10.6137416666667" lat="47.4885066666667">
                <ele>1334.6</ele>
                <time>2009-08-25T07:13:55.000Z</time>
                <name>Position 297</name>
            </trkpt>
            <trkpt lon="10.613715" lat="47.488515">
                <ele>1335.3</ele>
                <time>2009-08-25T07:13:59.000Z</time>
                <name>Position 298</name>
            </trkpt>
            <trkpt lon="10.61371" lat="47.488525">
                <ele>1335.5</ele>
                <time>2009-08-25T07:14:02.000Z</time>
                <name>Position 299</name>
            </trkpt>
            <trkpt lon="10.61372" lat="47.4885383333333">
                <ele>1335.4</ele>
                <time>2009-08-25T07:14:05.000Z</time>
                <name>Position 300</name>
            </trkpt>
            <trkpt lon="10.61371" lat="47.4885483333333">
                <ele>1336.3</ele>
                <time>2009-08-25T07:14:07.000Z</time>
                <name>Position 301</name>
            </trkpt>
            <trkpt lon="10.6136616666667" lat="47.4885533333333">
                <ele>1337.3</ele>
                <time>2009-08-25T07:14:10.000Z</time>
                <name>Position 302</name>
            </trkpt>
            <trkpt lon="10.613635" lat="47.48855">
                <ele>1339.7</ele>
                <time>2009-08-25T07:14:14.000Z</time>
                <name>Position 303</name>
            </trkpt>
            <trkpt lon="10.6136533333333" lat="47.4885433333333">
                <ele>1340.4</ele>
                <time>2009-08-25T07:14:17.000Z</time>
                <name>Position 304</name>
            </trkpt>
            <trkpt lon="10.6136683333333" lat="47.4885516666667">
                <ele>1340.8</ele>
                <time>2009-08-25T07:14:20.000Z</time>
                <name>Position 305</name>
            </trkpt>
            <trkpt lon="10.613685" lat="47.4885566666667">
                <ele>1341.3</ele>
                <time>2009-08-25T07:14:23.000Z</time>
                <name>Position 306</name>
            </trkpt>
            <trkpt lon="10.61371" lat="47.48855">
                <ele>1342.1</ele>
                <time>2009-08-25T07:14:26.000Z</time>
                <name>Position 307</name>
            </trkpt>
            <trkpt lon="10.61372" lat="47.4885616666667">
                <ele>1342.5</ele>
                <time>2009-08-25T07:14:29.000Z</time>
                <name>Position 308</name>
            </trkpt>
            <trkpt lon="10.61372" lat="47.4885633333333">
                <ele>1342.7</ele>
                <time>2009-08-25T07:14:32.000Z</time>
                <name>Position 309</name>
            </trkpt>
            <trkpt lon="10.6137183333333" lat="47.4885633333333">
                <ele>1343.0</ele>
                <time>2009-08-25T07:14:35.000Z</time>
                <name>Position 310</name>
            </trkpt>
            <trkpt lon="10.6137166666667" lat="47.488565">
                <ele>1343.1</ele>
                <time>2009-08-25T07:14:38.000Z</time>
                <name>Position 311</name>
            </trkpt>
            <trkpt lon="10.6137233333333" lat="47.488565">
                <ele>1343.3</ele>
                <time>2009-08-25T07:14:41.000Z</time>
                <name>Position 312</name>
            </trkpt>
            <trkpt lon="10.6137216666667" lat="47.4885666666667">
                <ele>1343.2</ele>
                <time>2009-08-25T07:14:44.000Z</time>
                <name>Position 313</name>
            </trkpt>
            <trkpt lon="10.6137216666667" lat="47.4885633333333">
                <ele>1343.2</ele>
                <time>2009-08-25T07:14:47.000Z</time>
                <name>Position 314</name>
            </trkpt>
            <trkpt lon="10.613725" lat="47.488565">
                <ele>1343.2</ele>
                <time>2009-08-25T07:14:49.000Z</time>
                <name>Position 315</name>
            </trkpt>
            <trkpt lon="10.6137333333333" lat="47.4885683333333">
                <ele>1343.3</ele>
                <time>2009-08-25T07:14:52.000Z</time>
                <name>Position 316</name>
            </trkpt>
            <trkpt lon="10.6137183333333" lat="47.488605">
                <ele>1343.4</ele>
                <time>2009-08-25T07:14:56.000Z</time>
                <name>Position 317</name>
            </trkpt>
            <trkpt lon="10.6137283333333" lat="47.4886066666667">
                <ele>1343.6</ele>
                <time>2009-08-25T07:14:58.000Z</time>
                <name>Position 318</name>
            </trkpt>
            <trkpt lon="10.6137616666667" lat="47.48861">
                <ele>1344.2</ele>
                <time>2009-08-25T07:15:02.000Z</time>
                <name>Position 319</name>
            </trkpt>
            <trkpt lon="10.6137766666667" lat="47.4886066666667">
                <ele>1344.4</ele>
                <time>2009-08-25T07:15:05.000Z</time>
                <name>Position 320</name>
            </trkpt>
            <trkpt lon="10.6137916666667" lat="47.488615">
                <ele>1344.0</ele>
                <time>2009-08-25T07:15:07.000Z</time>
                <name>Position 321</name>
            </trkpt>
            <trkpt lon="10.6138116666667" lat="47.4886133333333">
                <ele>1344.0</ele>
                <time>2009-08-25T07:15:11.000Z</time>
                <name>Position 322</name>
            </trkpt>
            <trkpt lon="10.613845" lat="47.488625">
                <ele>1345.0</ele>
                <time>2009-08-25T07:15:13.000Z</time>
                <name>Position 323</name>
            </trkpt>
            <trkpt lon="10.6138783333333" lat="47.48862">
                <ele>1344.2</ele>
                <time>2009-08-25T07:15:17.000Z</time>
                <name>Position 324</name>
            </trkpt>
            <trkpt lon="10.6138983333333" lat="47.4886266666667">
                <ele>1344.7</ele>
                <time>2009-08-25T07:15:20.000Z</time>
                <name>Position 325</name>
            </trkpt>
            <trkpt lon="10.6139183333333" lat="47.4886433333333">
                <ele>1345.7</ele>
                <time>2009-08-25T07:15:23.000Z</time>
                <name>Position 326</name>
            </trkpt>
            <trkpt lon="10.6139183333333" lat="47.488655">
                <ele>1346.6</ele>
                <time>2009-08-25T07:15:26.000Z</time>
                <name>Position 327</name>
            </trkpt>
            <trkpt lon="10.613905" lat="47.48866">
                <ele>1347.3</ele>
                <time>2009-08-25T07:15:29.000Z</time>
                <name>Position 328</name>
            </trkpt>
            <trkpt lon="10.613895" lat="47.48865">
                <ele>1347.5</ele>
                <time>2009-08-25T07:15:32.000Z</time>
                <name>Position 329</name>
            </trkpt>
            <trkpt lon="10.6138766666667" lat="47.48864">
                <ele>1348.5</ele>
                <time>2009-08-25T07:15:35.000Z</time>
                <name>Position 330</name>
            </trkpt>
            <trkpt lon="10.6138666666667" lat="47.4886283333333">
                <ele>1348.4</ele>
                <time>2009-08-25T07:15:37.000Z</time>
                <name>Position 331</name>
            </trkpt>
            <trkpt lon="10.6138283333333" lat="47.488605">
                <ele>1349.3</ele>
                <time>2009-08-25T07:15:41.000Z</time>
                <name>Position 332</name>
            </trkpt>
            <trkpt lon="10.6138016666667" lat="47.4886833333333">
                <ele>1350.7</ele>
                <time>2009-08-25T07:15:44.000Z</time>
                <name>Position 333</name>
            </trkpt>
            <trkpt lon="10.6137816666667" lat="47.4887183333333">
                <ele>1352.4</ele>
                <time>2009-08-25T07:15:47.000Z</time>
                <name>Position 334</name>
            </trkpt>
            <trkpt lon="10.6137683333333" lat="47.488725">
                <ele>1353.0</ele>
                <time>2009-08-25T07:15:49.000Z</time>
                <name>Position 335</name>
            </trkpt>
            <trkpt lon="10.6137466666667" lat="47.48874">
                <ele>1355.2</ele>
                <time>2009-08-25T07:15:53.000Z</time>
                <name>Position 336</name>
            </trkpt>
            <trkpt lon="10.6137466666667" lat="47.4887533333333">
                <ele>1356.0</ele>
                <time>2009-08-25T07:15:56.000Z</time>
                <name>Position 337</name>
            </trkpt>
            <trkpt lon="10.613715" lat="47.488765">
                <ele>1356.8</ele>
                <time>2009-08-25T07:15:59.000Z</time>
                <name>Position 338</name>
            </trkpt>
            <trkpt lon="10.6136933333333" lat="47.488775">
                <ele>1358.0</ele>
                <time>2009-08-25T07:16:02.000Z</time>
                <name>Position 339</name>
            </trkpt>
            <trkpt lon="10.6136733333333" lat="47.4887766666667">
                <ele>1359.1</ele>
                <time>2009-08-25T07:16:05.000Z</time>
                <name>Position 340</name>
            </trkpt>
            <trkpt lon="10.61365" lat="47.4887766666667">
                <ele>1359.8</ele>
                <time>2009-08-25T07:16:07.000Z</time>
                <name>Position 341</name>
            </trkpt>
            <trkpt lon="10.6136316666667" lat="47.4887816666667">
                <ele>1360.6</ele>
                <time>2009-08-25T07:16:11.000Z</time>
                <name>Position 342</name>
            </trkpt>
            <trkpt lon="10.613615" lat="47.48879">
                <ele>1361.4</ele>
                <time>2009-08-25T07:16:14.000Z</time>
                <name>Position 343</name>
            </trkpt>
            <trkpt lon="10.6136033333333" lat="47.4887983333333">
                <ele>1362.0</ele>
                <time>2009-08-25T07:16:17.000Z</time>
                <name>Position 344</name>
            </trkpt>
            <trkpt lon="10.6135916666667" lat="47.488805">
                <ele>1362.2</ele>
                <time>2009-08-25T07:16:20.000Z</time>
                <name>Position 345</name>
            </trkpt>
            <trkpt lon="10.6135783333333" lat="47.4888066666667">
                <ele>1362.3</ele>
                <time>2009-08-25T07:16:23.000Z</time>
                <name>Position 346</name>
            </trkpt>
            <trkpt lon="10.6135683333333" lat="47.48881">
                <ele>1362.3</ele>
                <time>2009-08-25T07:16:26.000Z</time>
                <name>Position 347</name>
            </trkpt>
            <trkpt lon="10.6135666666667" lat="47.48882">
                <ele>1362.3</ele>
                <time>2009-08-25T07:16:29.000Z</time>
                <name>Position 348</name>
            </trkpt>
            <trkpt lon="10.6135633333333" lat="47.4888183333333">
                <ele>1362.5</ele>
                <time>2009-08-25T07:16:32.000Z</time>
                <name>Position 349</name>
            </trkpt>
            <trkpt lon="10.6135566666667" lat="47.488815">
                <ele>1362.6</ele>
                <time>2009-08-25T07:16:35.000Z</time>
                <name>Position 350</name>
            </trkpt>
            <trkpt lon="10.61355" lat="47.4888133333333">
                <ele>1362.6</ele>
                <time>2009-08-25T07:16:38.000Z</time>
                <name>Position 351</name>
            </trkpt>
            <trkpt lon="10.61355" lat="47.4888133333333">
                <ele>1362.7</ele>
                <time>2009-08-25T07:16:41.000Z</time>
                <name>Position 352</name>
            </trkpt>
            <trkpt lon="10.61355" lat="47.4888116666667">
                <ele>1362.7</ele>
                <time>2009-08-25T07:16:44.000Z</time>
                <name>Position 353</name>
            </trkpt>
            <trkpt lon="10.613555" lat="47.4888116666667">
                <ele>1362.8</ele>
                <time>2009-08-25T07:16:47.000Z</time>
                <name>Position 354</name>
            </trkpt>
            <trkpt lon="10.6135583333333" lat="47.4888066666667">
                <ele>1362.8</ele>
                <time>2009-08-25T07:16:50.000Z</time>
                <name>Position 355</name>
            </trkpt>
            <trkpt lon="10.6135583333333" lat="47.488805">
                <ele>1362.8</ele>
                <time>2009-08-25T07:16:53.000Z</time>
                <name>Position 356</name>
            </trkpt>
            <trkpt lon="10.613555" lat="47.4888033333333">
                <ele>1362.8</ele>
                <time>2009-08-25T07:16:56.000Z</time>
                <name>Position 357</name>
            </trkpt>
            <trkpt lon="10.6135583333333" lat="47.4888066666667">
                <ele>1362.9</ele>
                <time>2009-08-25T07:16:59.000Z</time>
                <name>Position 358</name>
            </trkpt>
            <trkpt lon="10.6135583333333" lat="47.4888066666667">
                <ele>1362.9</ele>
                <time>2009-08-25T07:17:01.000Z</time>
                <name>Position 359</name>
            </trkpt>
            <trkpt lon="10.61356" lat="47.488805">
                <ele>1363.1</ele>
                <time>2009-08-25T07:17:05.000Z</time>
                <name>Position 360</name>
            </trkpt>
            <trkpt lon="10.6135616666667" lat="47.4888016666667">
                <ele>1363.4</ele>
                <time>2009-08-25T07:17:08.000Z</time>
                <name>Position 361</name>
            </trkpt>
            <trkpt lon="10.61356" lat="47.4888">
                <ele>1363.5</ele>
                <time>2009-08-25T07:17:11.000Z</time>
                <name>Position 362</name>
            </trkpt>
            <trkpt lon="10.61356" lat="47.4888">
                <ele>1363.7</ele>
                <time>2009-08-25T07:17:14.000Z</time>
                <name>Position 363</name>
            </trkpt>
            <trkpt lon="10.61356" lat="47.4888016666667">
                <ele>1363.7</ele>
                <time>2009-08-25T07:17:17.000Z</time>
                <name>Position 364</name>
            </trkpt>
            <trkpt lon="10.6135583333333" lat="47.4888016666667">
                <ele>1363.8</ele>
                <time>2009-08-25T07:17:20.000Z</time>
                <name>Position 365</name>
            </trkpt>
            <trkpt lon="10.6135583333333" lat="47.4888016666667">
                <ele>1363.8</ele>
                <time>2009-08-25T07:17:23.000Z</time>
                <name>Position 366</name>
            </trkpt>
            <trkpt lon="10.6135583333333" lat="47.4888016666667">
                <ele>1363.8</ele>
                <time>2009-08-25T07:17:26.000Z</time>
                <name>Position 367</name>
            </trkpt>
            <trkpt lon="10.61356" lat="47.4888016666667">
                <ele>1363.7</ele>
                <time>2009-08-25T07:17:29.000Z</time>
                <name>Position 368</name>
            </trkpt>
            <trkpt lon="10.61356" lat="47.4888016666667">
                <ele>1363.7</ele>
                <time>2009-08-25T07:17:32.000Z</time>
                <name>Position 369</name>
            </trkpt>
            <trkpt lon="10.61356" lat="47.4888016666667">
                <ele>1363.7</ele>
                <time>2009-08-25T07:17:35.000Z</time>
                <name>Position 370</name>
            </trkpt>
            <trkpt lon="10.613555" lat="47.4888083333333">
                <ele>1363.6</ele>
                <time>2009-08-25T07:17:38.000Z</time>
                <name>Position 371</name>
            </trkpt>
            <trkpt lon="10.6135416666667" lat="47.4888066666667">
                <ele>1363.6</ele>
                <time>2009-08-25T07:17:41.000Z</time>
                <name>Position 372</name>
            </trkpt>
            <trkpt lon="10.61353" lat="47.4888066666667">
                <ele>1363.7</ele>
                <time>2009-08-25T07:17:43.000Z</time>
                <name>Position 373</name>
            </trkpt>
            <trkpt lon="10.6135166666667" lat="47.4888033333333">
                <ele>1363.9</ele>
                <time>2009-08-25T07:17:46.000Z</time>
                <name>Position 374</name>
            </trkpt>
            <trkpt lon="10.6135033333333" lat="47.4888083333333">
                <ele>1364.3</ele>
                <time>2009-08-25T07:17:50.000Z</time>
                <name>Position 375</name>
            </trkpt>
            <trkpt lon="10.61351" lat="47.488815">
                <ele>1364.6</ele>
                <time>2009-08-25T07:17:53.000Z</time>
                <name>Position 376</name>
            </trkpt>
            <trkpt lon="10.6135166666667" lat="47.4888183333333">
                <ele>1365.2</ele>
                <time>2009-08-25T07:17:56.000Z</time>
                <name>Position 377</name>
            </trkpt>
            <trkpt lon="10.6135083333333" lat="47.48883">
                <ele>1365.1</ele>
                <time>2009-08-25T07:17:59.000Z</time>
                <name>Position 378</name>
            </trkpt>
            <trkpt lon="10.6135033333333" lat="47.4888266666667">
                <ele>1365.0</ele>
                <time>2009-08-25T07:18:02.000Z</time>
                <name>Position 379</name>
            </trkpt>
            <trkpt lon="10.6135033333333" lat="47.48883">
                <ele>1364.9</ele>
                <time>2009-08-25T07:18:05.000Z</time>
                <name>Position 380</name>
            </trkpt>
            <trkpt lon="10.6135033333333" lat="47.4888333333333">
                <ele>1364.8</ele>
                <time>2009-08-25T07:18:08.000Z</time>
                <name>Position 381</name>
            </trkpt>
            <trkpt lon="10.6134666666667" lat="47.4888616666667">
                <ele>1364.5</ele>
                <time>2009-08-25T07:18:11.000Z</time>
                <name>Position 382</name>
            </trkpt>
            <trkpt lon="10.6134316666667" lat="47.4888933333333">
                <ele>1364.4</ele>
                <time>2009-08-25T07:18:14.000Z</time>
                <name>Position 383</name>
            </trkpt>
            <trkpt lon="10.6134016666667" lat="47.4889183333333">
                <ele>1364.7</ele>
                <time>2009-08-25T07:18:17.000Z</time>
                <name>Position 384</name>
            </trkpt>
            <trkpt lon="10.613365" lat="47.48894">
                <ele>1363.7</ele>
                <time>2009-08-25T07:18:20.000Z</time>
                <name>Position 385</name>
            </trkpt>
            <trkpt lon="10.6133466666667" lat="47.4889566666667">
                <ele>1363.4</ele>
                <time>2009-08-25T07:18:23.000Z</time>
                <name>Position 386</name>
            </trkpt>
            <trkpt lon="10.6133333333333" lat="47.488975">
                <ele>1363.1</ele>
                <time>2009-08-25T07:18:26.000Z</time>
                <name>Position 387</name>
            </trkpt>
            <trkpt lon="10.6133266666667" lat="47.4889966666667">
                <ele>1363.6</ele>
                <time>2009-08-25T07:18:29.000Z</time>
                <name>Position 388</name>
            </trkpt>
            <trkpt lon="10.6133183333333" lat="47.4890266666667">
                <ele>1364.3</ele>
                <time>2009-08-25T07:18:32.000Z</time>
                <name>Position 389</name>
            </trkpt>
            <trkpt lon="10.613325" lat="47.4890483333333">
                <ele>1364.4</ele>
                <time>2009-08-25T07:18:35.000Z</time>
                <name>Position 390</name>
            </trkpt>
            <trkpt lon="10.6133366666667" lat="47.4890516666667">
                <ele>1363.9</ele>
                <time>2009-08-25T07:18:38.000Z</time>
                <name>Position 391</name>
            </trkpt>
            <trkpt lon="10.6133516666667" lat="47.4890466666667">
                <ele>1363.5</ele>
                <time>2009-08-25T07:18:41.000Z</time>
                <name>Position 392</name>
            </trkpt>
            <trkpt lon="10.6133533333333" lat="47.4890466666667">
                <ele>1363.8</ele>
                <time>2009-08-25T07:18:44.000Z</time>
                <name>Position 393</name>
            </trkpt>
            <trkpt lon="10.6133533333333" lat="47.4890466666667">
                <ele>1363.9</ele>
                <time>2009-08-25T07:18:47.000Z</time>
                <name>Position 394</name>
            </trkpt>
            <trkpt lon="10.6133516666667" lat="47.48905">
                <ele>1364.0</ele>
                <time>2009-08-25T07:18:49.000Z</time>
                <name>Position 395</name>
            </trkpt>
            <trkpt lon="10.613335" lat="47.489055">
                <ele>1365.5</ele>
                <time>2009-08-25T07:18:53.000Z</time>
                <name>Position 396</name>
            </trkpt>
            <trkpt lon="10.613335" lat="47.48905">
                <ele>1365.5</ele>
                <time>2009-08-25T07:18:56.000Z</time>
                <name>Position 397</name>
            </trkpt>
            <trkpt lon="10.613335" lat="47.4890483333333">
                <ele>1365.6</ele>
                <time>2009-08-25T07:18:58.000Z</time>
                <name>Position 398</name>
            </trkpt>
            <trkpt lon="10.6133333333333" lat="47.4890433333333">
                <ele>1365.6</ele>
                <time>2009-08-25T07:19:01.000Z</time>
                <name>Position 399</name>
            </trkpt>
            <trkpt lon="10.6133366666667" lat="47.48904">
                <ele>1365.3</ele>
                <time>2009-08-25T07:19:05.000Z</time>
                <name>Position 400</name>
            </trkpt>
            <trkpt lon="10.613335" lat="47.489045">
                <ele>1365.6</ele>
                <time>2009-08-25T07:19:08.000Z</time>
                <name>Position 401</name>
            </trkpt>
            <trkpt lon="10.6133366666667" lat="47.489045">
                <ele>1365.4</ele>
                <time>2009-08-25T07:19:11.000Z</time>
                <name>Position 402</name>
            </trkpt>
            <trkpt lon="10.6133366666667" lat="47.4890466666667">
                <ele>1365.3</ele>
                <time>2009-08-25T07:19:14.000Z</time>
                <name>Position 403</name>
            </trkpt>
            <trkpt lon="10.6133366666667" lat="47.4890466666667">
                <ele>1365.3</ele>
                <time>2009-08-25T07:19:17.000Z</time>
                <name>Position 404</name>
            </trkpt>
            <trkpt lon="10.6133366666667" lat="47.4890466666667">
                <ele>1365.3</ele>
                <time>2009-08-25T07:19:20.000Z</time>
                <name>Position 405</name>
            </trkpt>
            <trkpt lon="10.6133383333333" lat="47.4890466666667">
                <ele>1365.3</ele>
                <time>2009-08-25T07:19:23.000Z</time>
                <name>Position 406</name>
            </trkpt>
            <trkpt lon="10.613335" lat="47.4890516666667">
                <ele>1365.5</ele>
                <time>2009-08-25T07:19:25.000Z</time>
                <name>Position 407</name>
            </trkpt>
            <trkpt lon="10.613335" lat="47.4890516666667">
                <ele>1365.6</ele>
                <time>2009-08-25T07:19:29.000Z</time>
                <name>Position 408</name>
            </trkpt>
            <trkpt lon="10.6133333333333" lat="47.48905">
                <ele>1365.5</ele>
                <time>2009-08-25T07:19:31.000Z</time>
                <name>Position 409</name>
            </trkpt>
            <trkpt lon="10.6133333333333" lat="47.48905">
                <ele>1365.6</ele>
                <time>2009-08-25T07:19:34.000Z</time>
                <name>Position 410</name>
            </trkpt>
            <trkpt lon="10.6133333333333" lat="47.48905">
                <ele>1365.6</ele>
                <time>2009-08-25T07:19:38.000Z</time>
                <name>Position 411</name>
            </trkpt>
            <trkpt lon="10.6133333333333" lat="47.48905">
                <ele>1365.6</ele>
                <time>2009-08-25T07:19:40.000Z</time>
                <name>Position 412</name>
            </trkpt>
            <trkpt lon="10.613335" lat="47.489055">
                <ele>1365.5</ele>
                <time>2009-08-25T07:19:44.000Z</time>
                <name>Position 413</name>
            </trkpt>
            <trkpt lon="10.6133433333333" lat="47.4890716666667">
                <ele>1366.1</ele>
                <time>2009-08-25T07:19:47.000Z</time>
                <name>Position 414</name>
            </trkpt>
            <trkpt lon="10.6133716666667" lat="47.4890816666667">
                <ele>1366.2</ele>
                <time>2009-08-25T07:19:50.000Z</time>
                <name>Position 415</name>
            </trkpt>
            <trkpt lon="10.6133933333333" lat="47.489095">
                <ele>1366.8</ele>
                <time>2009-08-25T07:19:53.000Z</time>
                <name>Position 416</name>
            </trkpt>
            <trkpt lon="10.6134016666667" lat="47.489095">
                <ele>1366.7</ele>
                <time>2009-08-25T07:19:56.000Z</time>
                <name>Position 417</name>
            </trkpt>
            <trkpt lon="10.6134316666667" lat="47.4891116666667">
                <ele>1366.1</ele>
                <time>2009-08-25T07:19:59.000Z</time>
                <name>Position 418</name>
            </trkpt>
            <trkpt lon="10.6134416666667" lat="47.48912">
                <ele>1365.8</ele>
                <time>2009-08-25T07:20:02.000Z</time>
                <name>Position 419</name>
            </trkpt>
            <trkpt lon="10.61346" lat="47.4891366666667">
                <ele>1365.2</ele>
                <time>2009-08-25T07:20:05.000Z</time>
                <name>Position 420</name>
            </trkpt>
            <trkpt lon="10.613475" lat="47.489145">
                <ele>1366.1</ele>
                <time>2009-08-25T07:20:08.000Z</time>
                <name>Position 421</name>
            </trkpt>
            <trkpt lon="10.6135066666667" lat="47.4891666666667">
                <ele>1365.7</ele>
                <time>2009-08-25T07:20:11.000Z</time>
                <name>Position 422</name>
            </trkpt>
            <trkpt lon="10.6135266666667" lat="47.48919">
                <ele>1366.0</ele>
                <time>2009-08-25T07:20:14.000Z</time>
                <name>Position 423</name>
            </trkpt>
            <trkpt lon="10.6135316666667" lat="47.4892116666667">
                <ele>1366.6</ele>
                <time>2009-08-25T07:20:17.000Z</time>
                <name>Position 424</name>
            </trkpt>
            <trkpt lon="10.6135416666667" lat="47.4892266666667">
                <ele>1367.5</ele>
                <time>2009-08-25T07:20:20.000Z</time>
                <name>Position 425</name>
            </trkpt>
            <trkpt lon="10.613545" lat="47.4892416666667">
                <ele>1368.0</ele>
                <time>2009-08-25T07:20:22.000Z</time>
                <name>Position 426</name>
            </trkpt>
            <trkpt lon="10.6135516666667" lat="47.4892816666667">
                <ele>1369.5</ele>
                <time>2009-08-25T07:20:26.000Z</time>
                <name>Position 427</name>
            </trkpt>
            <trkpt lon="10.613555" lat="47.4893">
                <ele>1369.8</ele>
                <time>2009-08-25T07:20:29.000Z</time>
                <name>Position 428</name>
            </trkpt>
            <trkpt lon="10.6135766666667" lat="47.4893016666667">
                <ele>1370.2</ele>
                <time>2009-08-25T07:20:31.000Z</time>
                <name>Position 429</name>
            </trkpt>
            <trkpt lon="10.6135916666667" lat="47.4893083333333">
                <ele>1370.8</ele>
                <time>2009-08-25T07:20:35.000Z</time>
                <name>Position 430</name>
            </trkpt>
            <trkpt lon="10.6135966666667" lat="47.4892983333333">
                <ele>1371.1</ele>
                <time>2009-08-25T07:20:37.000Z</time>
                <name>Position 431</name>
            </trkpt>
            <trkpt lon="10.6135983333333" lat="47.4892916666667">
                <ele>1371.2</ele>
                <time>2009-08-25T07:20:41.000Z</time>
                <name>Position 432</name>
            </trkpt>
            <trkpt lon="10.6135983333333" lat="47.48929">
                <ele>1371.1</ele>
                <time>2009-08-25T07:20:43.000Z</time>
                <name>Position 433</name>
            </trkpt>
            <trkpt lon="10.6136066666667" lat="47.4892916666667">
                <ele>1371.4</ele>
                <time>2009-08-25T07:20:47.000Z</time>
                <name>Position 434</name>
            </trkpt>
            <trkpt lon="10.6136133333333" lat="47.489295">
                <ele>1371.5</ele>
                <time>2009-08-25T07:20:50.000Z</time>
                <name>Position 435</name>
            </trkpt>
            <trkpt lon="10.6136483333333" lat="47.4893216666667">
                <ele>1371.5</ele>
                <time>2009-08-25T07:20:53.000Z</time>
                <name>Position 436</name>
            </trkpt>
            <trkpt lon="10.6136716666667" lat="47.4893383333333">
                <ele>1371.7</ele>
                <time>2009-08-25T07:20:56.000Z</time>
                <name>Position 437</name>
            </trkpt>
            <trkpt lon="10.6136716666667" lat="47.4893633333333">
                <ele>1371.8</ele>
                <time>2009-08-25T07:20:59.000Z</time>
                <name>Position 438</name>
            </trkpt>
            <trkpt lon="10.6136783333333" lat="47.4893933333333">
                <ele>1372.3</ele>
                <time>2009-08-25T07:21:02.000Z</time>
                <name>Position 439</name>
            </trkpt>
            <trkpt lon="10.61367" lat="47.4894133333333">
                <ele>1372.3</ele>
                <time>2009-08-25T07:21:04.000Z</time>
                <name>Position 440</name>
            </trkpt>
            <trkpt lon="10.6136816666667" lat="47.4894333333333">
                <ele>1372.5</ele>
                <time>2009-08-25T07:21:08.000Z</time>
                <name>Position 441</name>
            </trkpt>
            <trkpt lon="10.6136933333333" lat="47.4894666666667">
                <ele>1373.3</ele>
                <time>2009-08-25T07:21:11.000Z</time>
                <name>Position 442</name>
            </trkpt>
            <trkpt lon="10.6137066666667" lat="47.4894716666667">
                <ele>1373.4</ele>
                <time>2009-08-25T07:21:14.000Z</time>
                <name>Position 443</name>
            </trkpt>
            <trkpt lon="10.6137283333333" lat="47.4895266666667">
                <ele>1373.7</ele>
                <time>2009-08-25T07:21:17.000Z</time>
                <name>Position 444</name>
            </trkpt>
            <trkpt lon="10.6137533333333" lat="47.4895416666667">
                <ele>1374.1</ele>
                <time>2009-08-25T07:21:20.000Z</time>
                <name>Position 445</name>
            </trkpt>
            <trkpt lon="10.6137766666667" lat="47.4895816666667">
                <ele>1374.3</ele>
                <time>2009-08-25T07:21:23.000Z</time>
                <name>Position 446</name>
            </trkpt>
            <trkpt lon="10.6137233333333" lat="47.4895833333333">
                <ele>1374.2</ele>
                <time>2009-08-25T07:21:26.000Z</time>
                <name>Position 447</name>
            </trkpt>
            <trkpt lon="10.6137166666667" lat="47.4896266666667">
                <ele>1374.8</ele>
                <time>2009-08-25T07:21:29.000Z</time>
                <name>Position 448</name>
            </trkpt>
            <trkpt lon="10.6137" lat="47.4896583333333">
                <ele>1375.3</ele>
                <time>2009-08-25T07:21:32.000Z</time>
                <name>Position 449</name>
            </trkpt>
            <trkpt lon="10.613665" lat="47.489625">
                <ele>1377.7</ele>
                <time>2009-08-25T07:21:35.000Z</time>
                <name>Position 450</name>
            </trkpt>
            <trkpt lon="10.6136583333333" lat="47.4896066666667">
                <ele>1379.0</ele>
                <time>2009-08-25T07:21:38.000Z</time>
                <name>Position 451</name>
            </trkpt>
            <trkpt lon="10.6136333333333" lat="47.4896216666667">
                <ele>1380.3</ele>
                <time>2009-08-25T07:21:41.000Z</time>
                <name>Position 452</name>
            </trkpt>
            <trkpt lon="10.6136266666667" lat="47.4896216666667">
                <ele>1380.8</ele>
                <time>2009-08-25T07:21:44.000Z</time>
                <name>Position 453</name>
            </trkpt>
            <trkpt lon="10.6135983333333" lat="47.48963">
                <ele>1382.5</ele>
                <time>2009-08-25T07:21:47.000Z</time>
                <name>Position 454</name>
            </trkpt>
            <trkpt lon="10.613585" lat="47.4896166666667">
                <ele>1383.8</ele>
                <time>2009-08-25T07:21:50.000Z</time>
                <name>Position 455</name>
            </trkpt>
            <trkpt lon="10.6135666666667" lat="47.4896483333333">
                <ele>1384.2</ele>
                <time>2009-08-25T07:21:53.000Z</time>
                <name>Position 456</name>
            </trkpt>
            <trkpt lon="10.6135616666667" lat="47.4896766666667">
                <ele>1384.5</ele>
                <time>2009-08-25T07:21:55.000Z</time>
                <name>Position 457</name>
            </trkpt>
            <trkpt lon="10.6135433333333" lat="47.4896983333333">
                <ele>1384.9</ele>
                <time>2009-08-25T07:21:59.000Z</time>
                <name>Position 458</name>
            </trkpt>
            <trkpt lon="10.61354" lat="47.4897083333333">
                <ele>1385.2</ele>
                <time>2009-08-25T07:22:01.000Z</time>
                <name>Position 459</name>
            </trkpt>
            <trkpt lon="10.61352" lat="47.48973">
                <ele>1385.4</ele>
                <time>2009-08-25T07:22:04.000Z</time>
                <name>Position 460</name>
            </trkpt>
            <trkpt lon="10.6134783333333" lat="47.4897716666667">
                <ele>1386.0</ele>
                <time>2009-08-25T07:22:08.000Z</time>
                <name>Position 461</name>
            </trkpt>
            <trkpt lon="10.61344" lat="47.489775">
                <ele>1385.5</ele>
                <time>2009-08-25T07:22:11.000Z</time>
                <name>Position 462</name>
            </trkpt>
            <trkpt lon="10.6133866666667" lat="47.4897633333333">
                <ele>1384.8</ele>
                <time>2009-08-25T07:22:14.000Z</time>
                <name>Position 463</name>
            </trkpt>
            <trkpt lon="10.613285" lat="47.48972">
                <ele>1387.3</ele>
                <time>2009-08-25T07:22:17.000Z</time>
                <name>Position 464</name>
            </trkpt>
            <trkpt lon="10.6132666666667" lat="47.4897516666667">
                <ele>1387.7</ele>
                <time>2009-08-25T07:22:20.000Z</time>
                <name>Position 465</name>
            </trkpt>
            <trkpt lon="10.6132166666667" lat="47.4897483333333">
                <ele>1388.2</ele>
                <time>2009-08-25T07:22:23.000Z</time>
                <name>Position 466</name>
            </trkpt>
            <trkpt lon="10.6131983333333" lat="47.4897483333333">
                <ele>1388.8</ele>
                <time>2009-08-25T07:22:26.000Z</time>
                <name>Position 467</name>
            </trkpt>
            <trkpt lon="10.613155" lat="47.489775">
                <ele>1388.7</ele>
                <time>2009-08-25T07:22:29.000Z</time>
                <name>Position 468</name>
            </trkpt>
            <trkpt lon="10.6131316666667" lat="47.48984">
                <ele>1389.3</ele>
                <time>2009-08-25T07:22:32.000Z</time>
                <name>Position 469</name>
            </trkpt>
            <trkpt lon="10.6131166666667" lat="47.4898666666667">
                <ele>1391.1</ele>
                <time>2009-08-25T07:22:35.000Z</time>
                <name>Position 470</name>
            </trkpt>
            <trkpt lon="10.6131" lat="47.4898866666667">
                <ele>1392.3</ele>
                <time>2009-08-25T07:22:38.000Z</time>
                <name>Position 471</name>
            </trkpt>
            <trkpt lon="10.613065" lat="47.4899166666667">
                <ele>1392.6</ele>
                <time>2009-08-25T07:22:41.000Z</time>
                <name>Position 472</name>
            </trkpt>
            <trkpt lon="10.6130216666667" lat="47.4899266666667">
                <ele>1393.1</ele>
                <time>2009-08-25T07:22:44.000Z</time>
                <name>Position 473</name>
            </trkpt>
            <trkpt lon="10.6130016666667" lat="47.489955">
                <ele>1394.5</ele>
                <time>2009-08-25T07:22:47.000Z</time>
                <name>Position 474</name>
            </trkpt>
            <trkpt lon="10.61296" lat="47.489975">
                <ele>1394.9</ele>
                <time>2009-08-25T07:22:50.000Z</time>
                <name>Position 475</name>
            </trkpt>
            <trkpt lon="10.612905" lat="47.4899716666667">
                <ele>1396.3</ele>
                <time>2009-08-25T07:22:53.000Z</time>
                <name>Position 476</name>
            </trkpt>
            <trkpt lon="10.612905" lat="47.4899883333333">
                <ele>1397.3</ele>
                <time>2009-08-25T07:22:56.000Z</time>
                <name>Position 477</name>
            </trkpt>
            <trkpt lon="10.6128666666667" lat="47.490005">
                <ele>1398.4</ele>
                <time>2009-08-25T07:22:59.000Z</time>
                <name>Position 478</name>
            </trkpt>
            <trkpt lon="10.6128666666667" lat="47.490005">
                <ele>1398.4</ele>
                <time>2009-08-25T07:23:02.000Z</time>
                <name>Position 479</name>
            </trkpt>
            <trkpt lon="10.6128666666667" lat="47.490005">
                <ele>1398.4</ele>
                <time>2009-08-25T07:23:05.000Z</time>
                <name>Position 480</name>
            </trkpt>
            <trkpt lon="10.6128666666667" lat="47.490005">
                <ele>1398.4</ele>
                <time>2009-08-25T07:23:08.000Z</time>
                <name>Position 481</name>
            </trkpt>
            <trkpt lon="10.6128666666667" lat="47.490005">
                <ele>1398.4</ele>
                <time>2009-08-25T07:23:11.000Z</time>
                <name>Position 482</name>
            </trkpt>
            <trkpt lon="10.6128666666667" lat="47.490005">
                <ele>1398.3</ele>
                <time>2009-08-25T07:23:14.000Z</time>
                <name>Position 483</name>
            </trkpt>
            <trkpt lon="10.6128666666667" lat="47.490005">
                <ele>1398.3</ele>
                <time>2009-08-25T07:23:17.000Z</time>
                <name>Position 484</name>
            </trkpt>
            <trkpt lon="10.6128666666667" lat="47.490005">
                <ele>1398.3</ele>
                <time>2009-08-25T07:23:20.000Z</time>
                <name>Position 485</name>
            </trkpt>
            <trkpt lon="10.6128666666667" lat="47.490005">
                <ele>1398.3</ele>
                <time>2009-08-25T07:23:23.000Z</time>
                <name>Position 486</name>
            </trkpt>
            <trkpt lon="10.6128666666667" lat="47.490005">
                <ele>1398.3</ele>
                <time>2009-08-25T07:23:26.000Z</time>
                <name>Position 487</name>
            </trkpt>
            <trkpt lon="10.6128666666667" lat="47.490005">
                <ele>1398.3</ele>
                <time>2009-08-25T07:23:29.000Z</time>
                <name>Position 488</name>
            </trkpt>
            <trkpt lon="10.6128666666667" lat="47.490005">
                <ele>1398.3</ele>
                <time>2009-08-25T07:23:32.000Z</time>
                <name>Position 489</name>
            </trkpt>
            <trkpt lon="10.6128666666667" lat="47.490005">
                <ele>1398.3</ele>
                <time>2009-08-25T07:23:35.000Z</time>
                <name>Position 490</name>
            </trkpt>
            <trkpt lon="10.6128666666667" lat="47.490005">
                <ele>1398.3</ele>
                <time>2009-08-25T07:23:38.000Z</time>
                <name>Position 491</name>
            </trkpt>
            <trkpt lon="10.6128666666667" lat="47.490005">
                <ele>1398.3</ele>
                <time>2009-08-25T07:23:41.000Z</time>
                <name>Position 492</name>
            </trkpt>
            <trkpt lon="10.6128666666667" lat="47.490005">
                <ele>1398.3</ele>
                <time>2009-08-25T07:23:44.000Z</time>
                <name>Position 493</name>
            </trkpt>
            <trkpt lon="10.6128666666667" lat="47.490005">
                <ele>1398.3</ele>
                <time>2009-08-25T07:23:47.000Z</time>
                <name>Position 494</name>
            </trkpt>
            <trkpt lon="10.6128666666667" lat="47.490005">
                <ele>1398.3</ele>
                <time>2009-08-25T07:23:50.000Z</time>
                <name>Position 495</name>
            </trkpt>
            <trkpt lon="10.6128666666667" lat="47.490005">
                <ele>1398.3</ele>
                <time>2009-08-25T07:23:53.000Z</time>
                <name>Position 496</name>
            </trkpt>
            <trkpt lon="10.6128666666667" lat="47.490005">
                <ele>1398.3</ele>
                <time>2009-08-25T07:23:56.000Z</time>
                <name>Position 497</name>
            </trkpt>
            <trkpt lon="10.6128666666667" lat="47.490005">
                <ele>1398.3</ele>
                <time>2009-08-25T07:23:59.000Z</time>
                <name>Position 498</name>
            </trkpt>
            <trkpt lon="10.612865" lat="47.490005">
                <ele>1398.3</ele>
                <time>2009-08-25T07:24:02.000Z</time>
                <name>Position 499</name>
            </trkpt>
            <trkpt lon="10.612865" lat="47.490005">
                <ele>1398.3</ele>
                <time>2009-08-25T07:24:05.000Z</time>
                <name>Position 500</name>
            </trkpt>
            <trkpt lon="10.612865" lat="47.490005">
                <ele>1398.2</ele>
                <time>2009-08-25T07:24:08.000Z</time>
                <name>Position 501</name>
            </trkpt>
            <trkpt lon="10.612865" lat="47.490005">
                <ele>1398.2</ele>
                <time>2009-08-25T07:24:11.000Z</time>
                <name>Position 502</name>
            </trkpt>
            <trkpt lon="10.612865" lat="47.490005">
                <ele>1398.2</ele>
                <time>2009-08-25T07:24:14.000Z</time>
                <name>Position 503</name>
            </trkpt>
            <trkpt lon="10.612865" lat="47.490005">
                <ele>1398.2</ele>
                <time>2009-08-25T07:24:17.000Z</time>
                <name>Position 504</name>
            </trkpt>
            <trkpt lon="10.612865" lat="47.490005">
                <ele>1398.2</ele>
                <time>2009-08-25T07:24:20.000Z</time>
                <name>Position 505</name>
            </trkpt>
            <trkpt lon="10.61287" lat="47.4900066666667">
                <ele>1398.1</ele>
                <time>2009-08-25T07:24:23.000Z</time>
                <name>Position 506</name>
            </trkpt>
            <trkpt lon="10.6128666666667" lat="47.4900033333333">
                <ele>1398.8</ele>
                <time>2009-08-25T07:24:26.000Z</time>
                <name>Position 507</name>
            </trkpt>
            <trkpt lon="10.612875" lat="47.4900183333333">
                <ele>1398.0</ele>
                <time>2009-08-25T07:24:29.000Z</time>
                <name>Position 508</name>
            </trkpt>
            <trkpt lon="10.6128916666667" lat="47.490025">
                <ele>1398.6</ele>
                <time>2009-08-25T07:24:32.000Z</time>
                <name>Position 509</name>
            </trkpt>
            <trkpt lon="10.61289" lat="47.4900266666667">
                <ele>1399.8</ele>
                <time>2009-08-25T07:24:35.000Z</time>
                <name>Position 510</name>
            </trkpt>
            <trkpt lon="10.612885" lat="47.4900233333333">
                <ele>1400.1</ele>
                <time>2009-08-25T07:24:39.000Z</time>
                <name>Position 511</name>
            </trkpt>
            <trkpt lon="10.612885" lat="47.4900216666667">
                <ele>1400.2</ele>
                <time>2009-08-25T07:24:41.000Z</time>
                <name>Position 512</name>
            </trkpt>
            <trkpt lon="10.6128766666667" lat="47.49002">
                <ele>1400.5</ele>
                <time>2009-08-25T07:24:44.000Z</time>
                <name>Position 513</name>
            </trkpt>
            <trkpt lon="10.6128833333333" lat="47.4900266666667">
                <ele>1400.9</ele>
                <time>2009-08-25T07:24:47.000Z</time>
                <name>Position 514</name>
            </trkpt>
            <trkpt lon="10.6129083333333" lat="47.4900233333333">
                <ele>1401.6</ele>
                <time>2009-08-25T07:24:50.000Z</time>
                <name>Position 515</name>
            </trkpt>
            <trkpt lon="10.6129183333333" lat="47.4900183333333">
                <ele>1402.6</ele>
                <time>2009-08-25T07:24:53.000Z</time>
                <name>Position 516</name>
            </trkpt>
            <trkpt lon="10.6129316666667" lat="47.4900166666667">
                <ele>1403.1</ele>
                <time>2009-08-25T07:24:56.000Z</time>
                <name>Position 517</name>
            </trkpt>
            <trkpt lon="10.6129466666667" lat="47.4900283333333">
                <ele>1403.6</ele>
                <time>2009-08-25T07:24:59.000Z</time>
                <name>Position 518</name>
            </trkpt>
            <trkpt lon="10.612955" lat="47.4900333333333">
                <ele>1404.4</ele>
                <time>2009-08-25T07:25:02.000Z</time>
                <name>Position 519</name>
            </trkpt>
            <trkpt lon="10.61296" lat="47.4900566666667">
                <ele>1404.2</ele>
                <time>2009-08-25T07:25:05.000Z</time>
                <name>Position 520</name>
            </trkpt>
            <trkpt lon="10.612975" lat="47.4900783333333">
                <ele>1405.0</ele>
                <time>2009-08-25T07:25:08.000Z</time>
                <name>Position 521</name>
            </trkpt>
            <trkpt lon="10.61299" lat="47.4900766666667">
                <ele>1405.7</ele>
                <time>2009-08-25T07:25:11.000Z</time>
                <name>Position 522</name>
            </trkpt>
            <trkpt lon="10.6129866666667" lat="47.49008">
                <ele>1405.7</ele>
                <time>2009-08-25T07:25:14.000Z</time>
                <name>Position 523</name>
            </trkpt>
            <trkpt lon="10.612995" lat="47.49009">
                <ele>1405.9</ele>
                <time>2009-08-25T07:25:17.000Z</time>
                <name>Position 524</name>
            </trkpt>
            <trkpt lon="10.6129916666667" lat="47.490115">
                <ele>1407.2</ele>
                <time>2009-08-25T07:25:20.000Z</time>
                <name>Position 525</name>
            </trkpt>
            <trkpt lon="10.6129716666667" lat="47.49013">
                <ele>1407.8</ele>
                <time>2009-08-25T07:25:23.000Z</time>
                <name>Position 526</name>
            </trkpt>
            <trkpt lon="10.61295" lat="47.4901583333333">
                <ele>1409.1</ele>
                <time>2009-08-25T07:25:26.000Z</time>
                <name>Position 527</name>
            </trkpt>
            <trkpt lon="10.61292" lat="47.4901833333333">
                <ele>1411.1</ele>
                <time>2009-08-25T07:25:29.000Z</time>
                <name>Position 528</name>
            </trkpt>
            <trkpt lon="10.612895" lat="47.49021">
                <ele>1413.1</ele>
                <time>2009-08-25T07:25:32.000Z</time>
                <name>Position 529</name>
            </trkpt>
            <trkpt lon="10.6128566666667" lat="47.490245">
                <ele>1414.6</ele>
                <time>2009-08-25T07:25:35.000Z</time>
                <name>Position 530</name>
            </trkpt>
            <trkpt lon="10.6128683333333" lat="47.4902616666667">
                <ele>1414.3</ele>
                <time>2009-08-25T07:25:38.000Z</time>
                <name>Position 531</name>
            </trkpt>
            <trkpt lon="10.612885" lat="47.4902666666667">
                <ele>1415.1</ele>
                <time>2009-08-25T07:25:41.000Z</time>
                <name>Position 532</name>
            </trkpt>
            <trkpt lon="10.6129066666667" lat="47.4902683333333">
                <ele>1415.9</ele>
                <time>2009-08-25T07:25:44.000Z</time>
                <name>Position 533</name>
            </trkpt>
            <trkpt lon="10.6129283333333" lat="47.4902683333333">
                <ele>1416.3</ele>
                <time>2009-08-25T07:25:47.000Z</time>
                <name>Position 534</name>
            </trkpt>
            <trkpt lon="10.6129566666667" lat="47.4902766666667">
                <ele>1416.8</ele>
                <time>2009-08-25T07:25:50.000Z</time>
                <name>Position 535</name>
            </trkpt>
            <trkpt lon="10.6129783333333" lat="47.4902883333333">
                <ele>1417.0</ele>
                <time>2009-08-25T07:25:53.000Z</time>
                <name>Position 536</name>
            </trkpt>
            <trkpt lon="10.6130033333333" lat="47.4902933333333">
                <ele>1417.1</ele>
                <time>2009-08-25T07:25:56.000Z</time>
                <name>Position 537</name>
            </trkpt>
            <trkpt lon="10.61303" lat="47.49029">
                <ele>1418.1</ele>
                <time>2009-08-25T07:25:59.000Z</time>
                <name>Position 538</name>
            </trkpt>
            <trkpt lon="10.6130583333333" lat="47.4902983333333">
                <ele>1418.4</ele>
                <time>2009-08-25T07:26:02.000Z</time>
                <name>Position 539</name>
            </trkpt>
            <trkpt lon="10.6130916666667" lat="47.4903133333333">
                <ele>1418.7</ele>
                <time>2009-08-25T07:26:05.000Z</time>
                <name>Position 540</name>
            </trkpt>
            <trkpt lon="10.6131216666667" lat="47.4903233333333">
                <ele>1419.2</ele>
                <time>2009-08-25T07:26:08.000Z</time>
                <name>Position 541</name>
            </trkpt>
            <trkpt lon="10.6131283333333" lat="47.49034">
                <ele>1420.1</ele>
                <time>2009-08-25T07:26:11.000Z</time>
                <name>Position 542</name>
            </trkpt>
            <trkpt lon="10.6131033333333" lat="47.4903483333333">
                <ele>1421.2</ele>
                <time>2009-08-25T07:26:14.000Z</time>
                <name>Position 543</name>
            </trkpt>
            <trkpt lon="10.6130933333333" lat="47.4903633333333">
                <ele>1422.1</ele>
                <time>2009-08-25T07:26:17.000Z</time>
                <name>Position 544</name>
            </trkpt>
            <trkpt lon="10.6130883333333" lat="47.49038">
                <ele>1422.3</ele>
                <time>2009-08-25T07:26:20.000Z</time>
                <name>Position 545</name>
            </trkpt>
            <trkpt lon="10.6130883333333" lat="47.4903966666667">
                <ele>1422.9</ele>
                <time>2009-08-25T07:26:23.000Z</time>
                <name>Position 546</name>
            </trkpt>
            <trkpt lon="10.61309" lat="47.4904133333333">
                <ele>1423.3</ele>
                <time>2009-08-25T07:26:26.000Z</time>
                <name>Position 547</name>
            </trkpt>
            <trkpt lon="10.61309" lat="47.4904333333333">
                <ele>1423.8</ele>
                <time>2009-08-25T07:26:29.000Z</time>
                <name>Position 548</name>
            </trkpt>
            <trkpt lon="10.613095" lat="47.490435">
                <ele>1423.6</ele>
                <time>2009-08-25T07:26:33.000Z</time>
                <name>Position 549</name>
            </trkpt>
            <trkpt lon="10.613095" lat="47.490435">
                <ele>1423.2</ele>
                <time>2009-08-25T07:26:35.000Z</time>
                <name>Position 550</name>
            </trkpt>
            <trkpt lon="10.6130966666667" lat="47.490435">
                <ele>1423.0</ele>
                <time>2009-08-25T07:26:38.000Z</time>
                <name>Position 551</name>
            </trkpt>
            <trkpt lon="10.6130966666667" lat="47.4904366666667">
                <ele>1422.7</ele>
                <time>2009-08-25T07:26:41.000Z</time>
                <name>Position 552</name>
            </trkpt>
            <trkpt lon="10.6130983333333" lat="47.4904366666667">
                <ele>1422.5</ele>
                <time>2009-08-25T07:26:44.000Z</time>
                <name>Position 553</name>
            </trkpt>
            <trkpt lon="10.6130983333333" lat="47.4904383333333">
                <ele>1422.3</ele>
                <time>2009-08-25T07:26:47.000Z</time>
                <name>Position 554</name>
            </trkpt>
            <trkpt lon="10.6131" lat="47.4904383333333">
                <ele>1422.2</ele>
                <time>2009-08-25T07:26:50.000Z</time>
                <name>Position 555</name>
            </trkpt>
            <trkpt lon="10.6131" lat="47.4904383333333">
                <ele>1422.0</ele>
                <time>2009-08-25T07:26:53.000Z</time>
                <name>Position 556</name>
            </trkpt>
            <trkpt lon="10.6131" lat="47.4904383333333">
                <ele>1422.0</ele>
                <time>2009-08-25T07:26:56.000Z</time>
                <name>Position 557</name>
            </trkpt>
            <trkpt lon="10.6131" lat="47.49044">
                <ele>1421.9</ele>
                <time>2009-08-25T07:26:59.000Z</time>
                <name>Position 558</name>
            </trkpt>
            <trkpt lon="10.6130983333333" lat="47.49044">
                <ele>1421.8</ele>
                <time>2009-08-25T07:27:02.000Z</time>
                <name>Position 559</name>
            </trkpt>
            <trkpt lon="10.6130983333333" lat="47.4904383333333">
                <ele>1421.8</ele>
                <time>2009-08-25T07:27:05.000Z</time>
                <name>Position 560</name>
            </trkpt>
            <trkpt lon="10.6130983333333" lat="47.4904383333333">
                <ele>1421.8</ele>
                <time>2009-08-25T07:27:08.000Z</time>
                <name>Position 561</name>
            </trkpt>
            <trkpt lon="10.6130983333333" lat="47.4904383333333">
                <ele>1421.8</ele>
                <time>2009-08-25T07:27:11.000Z</time>
                <name>Position 562</name>
            </trkpt>
            <trkpt lon="10.6130983333333" lat="47.49044">
                <ele>1421.8</ele>
                <time>2009-08-25T07:27:14.000Z</time>
                <name>Position 563</name>
            </trkpt>
            <trkpt lon="10.6130983333333" lat="47.49044">
                <ele>1421.8</ele>
                <time>2009-08-25T07:27:17.000Z</time>
                <name>Position 564</name>
            </trkpt>
            <trkpt lon="10.6130983333333" lat="47.49044">
                <ele>1421.8</ele>
                <time>2009-08-25T07:27:20.000Z</time>
                <name>Position 565</name>
            </trkpt>
            <trkpt lon="10.6130983333333" lat="47.49044">
                <ele>1421.8</ele>
                <time>2009-08-25T07:27:23.000Z</time>
                <name>Position 566</name>
            </trkpt>
            <trkpt lon="10.6130983333333" lat="47.4904416666667">
                <ele>1421.7</ele>
                <time>2009-08-25T07:27:26.000Z</time>
                <name>Position 567</name>
            </trkpt>
            <trkpt lon="10.6130983333333" lat="47.4904416666667">
                <ele>1421.7</ele>
                <time>2009-08-25T07:27:29.000Z</time>
                <name>Position 568</name>
            </trkpt>
            <trkpt lon="10.6130983333333" lat="47.4904416666667">
                <ele>1421.7</ele>
                <time>2009-08-25T07:27:32.000Z</time>
                <name>Position 569</name>
            </trkpt>
            <trkpt lon="10.6130983333333" lat="47.4904416666667">
                <ele>1421.7</ele>
                <time>2009-08-25T07:27:35.000Z</time>
                <name>Position 570</name>
            </trkpt>
            <trkpt lon="10.6130983333333" lat="47.4904416666667">
                <ele>1421.7</ele>
                <time>2009-08-25T07:27:38.000Z</time>
                <name>Position 571</name>
            </trkpt>
            <trkpt lon="10.6130983333333" lat="47.4904416666667">
                <ele>1421.7</ele>
                <time>2009-08-25T07:27:41.000Z</time>
                <name>Position 572</name>
            </trkpt>
            <trkpt lon="10.6130983333333" lat="47.4904416666667">
                <ele>1421.7</ele>
                <time>2009-08-25T07:27:44.000Z</time>
                <name>Position 573</name>
            </trkpt>
            <trkpt lon="10.6130983333333" lat="47.4904416666667">
                <ele>1421.7</ele>
                <time>2009-08-25T07:27:47.000Z</time>
                <name>Position 574</name>
            </trkpt>
            <trkpt lon="10.6130983333333" lat="47.4904416666667">
                <ele>1421.7</ele>
                <time>2009-08-25T07:27:50.000Z</time>
                <name>Position 575</name>
            </trkpt>
            <trkpt lon="10.6130983333333" lat="47.4904416666667">
                <ele>1421.7</ele>
                <time>2009-08-25T07:27:53.000Z</time>
                <name>Position 576</name>
            </trkpt>
            <trkpt lon="10.6130983333333" lat="47.4904416666667">
                <ele>1421.6</ele>
                <time>2009-08-25T07:27:56.000Z</time>
                <name>Position 577</name>
            </trkpt>
            <trkpt lon="10.6130983333333" lat="47.4904416666667">
                <ele>1421.6</ele>
                <time>2009-08-25T07:27:59.000Z</time>
                <name>Position 578</name>
            </trkpt>
            <trkpt lon="10.6130966666667" lat="47.49044">
                <ele>1421.6</ele>
                <time>2009-08-25T07:28:02.000Z</time>
                <name>Position 579</name>
            </trkpt>
            <trkpt lon="10.6130983333333" lat="47.49044">
                <ele>1421.6</ele>
                <time>2009-08-25T07:28:05.000Z</time>
                <name>Position 580</name>
            </trkpt>
            <trkpt lon="10.6130983333333" lat="47.49044">
                <ele>1421.6</ele>
                <time>2009-08-25T07:28:08.000Z</time>
                <name>Position 581</name>
            </trkpt>
            <trkpt lon="10.6130983333333" lat="47.49044">
                <ele>1421.6</ele>
                <time>2009-08-25T07:28:11.000Z</time>
                <name>Position 582</name>
            </trkpt>
            <trkpt lon="10.6130983333333" lat="47.49044">
                <ele>1421.6</ele>
                <time>2009-08-25T07:28:14.000Z</time>
                <name>Position 583</name>
            </trkpt>
            <trkpt lon="10.6130983333333" lat="47.49044">
                <ele>1421.6</ele>
                <time>2009-08-25T07:28:17.000Z</time>
                <name>Position 584</name>
            </trkpt>
            <trkpt lon="10.6130983333333" lat="47.49044">
                <ele>1421.6</ele>
                <time>2009-08-25T07:28:20.000Z</time>
                <name>Position 585</name>
            </trkpt>
            <trkpt lon="10.6130983333333" lat="47.49044">
                <ele>1421.6</ele>
                <time>2009-08-25T07:28:23.000Z</time>
                <name>Position 586</name>
            </trkpt>
            <trkpt lon="10.6130983333333" lat="47.49044">
                <ele>1421.6</ele>
                <time>2009-08-25T07:28:26.000Z</time>
                <name>Position 587</name>
            </trkpt>
            <trkpt lon="10.6130983333333" lat="47.49044">
                <ele>1421.6</ele>
                <time>2009-08-25T07:28:29.000Z</time>
                <name>Position 588</name>
            </trkpt>
            <trkpt lon="10.6130983333333" lat="47.49044">
                <ele>1421.6</ele>
                <time>2009-08-25T07:28:32.000Z</time>
                <name>Position 589</name>
            </trkpt>
            <trkpt lon="10.6130983333333" lat="47.49044">
                <ele>1421.6</ele>
                <time>2009-08-25T07:28:35.000Z</time>
                <name>Position 590</name>
            </trkpt>
            <trkpt lon="10.6130983333333" lat="47.49044">
                <ele>1421.5</ele>
                <time>2009-08-25T07:28:38.000Z</time>
                <name>Position 591</name>
            </trkpt>
            <trkpt lon="10.6130983333333" lat="47.49044">
                <ele>1421.5</ele>
                <time>2009-08-25T07:28:41.000Z</time>
                <name>Position 592</name>
            </trkpt>
            <trkpt lon="10.6130983333333" lat="47.49044">
                <ele>1421.5</ele>
                <time>2009-08-25T07:28:44.000Z</time>
                <name>Position 593</name>
            </trkpt>
            <trkpt lon="10.6131" lat="47.49044">
                <ele>1421.5</ele>
                <time>2009-08-25T07:28:47.000Z</time>
                <name>Position 594</name>
            </trkpt>
            <trkpt lon="10.6131" lat="47.49044">
                <ele>1421.5</ele>
                <time>2009-08-25T07:28:50.000Z</time>
                <name>Position 595</name>
            </trkpt>
            <trkpt lon="10.6131" lat="47.49044">
                <ele>1421.5</ele>
                <time>2009-08-25T07:28:53.000Z</time>
                <name>Position 596</name>
            </trkpt>
            <trkpt lon="10.6131" lat="47.49044">
                <ele>1421.4</ele>
                <time>2009-08-25T07:28:56.000Z</time>
                <name>Position 597</name>
            </trkpt>
            <trkpt lon="10.6131" lat="47.49044">
                <ele>1421.4</ele>
                <time>2009-08-25T07:28:59.000Z</time>
                <name>Position 598</name>
            </trkpt>
            <trkpt lon="10.6131" lat="47.49044">
                <ele>1421.4</ele>
                <time>2009-08-25T07:29:02.000Z</time>
                <name>Position 599</name>
            </trkpt>
            <trkpt lon="10.6131" lat="47.49044">
                <ele>1421.4</ele>
                <time>2009-08-25T07:29:05.000Z</time>
                <name>Position 600</name>
            </trkpt>
            <trkpt lon="10.6131" lat="47.49044">
                <ele>1421.4</ele>
                <time>2009-08-25T07:29:08.000Z</time>
                <name>Position 601</name>
            </trkpt>
            <trkpt lon="10.6131" lat="47.49044">
                <ele>1421.4</ele>
                <time>2009-08-25T07:29:11.000Z</time>
                <name>Position 602</name>
            </trkpt>
            <trkpt lon="10.6131" lat="47.49044">
                <ele>1421.4</ele>
                <time>2009-08-25T07:29:14.000Z</time>
                <name>Position 603</name>
            </trkpt>
            <trkpt lon="10.6131" lat="47.49044">
                <ele>1421.4</ele>
                <time>2009-08-25T07:29:17.000Z</time>
                <name>Position 604</name>
            </trkpt>
            <trkpt lon="10.6131" lat="47.49044">
                <ele>1421.4</ele>
                <time>2009-08-25T07:29:21.000Z</time>
                <name>Position 605</name>
            </trkpt>
            <trkpt lon="10.6131" lat="47.49044">
                <ele>1421.4</ele>
                <time>2009-08-25T07:29:23.000Z</time>
                <name>Position 606</name>
            </trkpt>
            <trkpt lon="10.6131" lat="47.49044">
                <ele>1421.4</ele>
                <time>2009-08-25T07:29:26.000Z</time>
                <name>Position 607</name>
            </trkpt>
            <trkpt lon="10.6131" lat="47.49044">
                <ele>1421.4</ele>
                <time>2009-08-25T07:29:29.000Z</time>
                <name>Position 608</name>
            </trkpt>
            <trkpt lon="10.6131" lat="47.49044">
                <ele>1421.4</ele>
                <time>2009-08-25T07:29:33.000Z</time>
                <name>Position 609</name>
            </trkpt>
            <trkpt lon="10.6131" lat="47.49044">
                <ele>1421.4</ele>
                <time>2009-08-25T07:29:35.000Z</time>
                <name>Position 610</name>
            </trkpt>
            <trkpt lon="10.6131" lat="47.49044">
                <ele>1421.4</ele>
                <time>2009-08-25T07:29:38.000Z</time>
                <name>Position 611</name>
            </trkpt>
            <trkpt lon="10.6131" lat="47.49044">
                <ele>1421.4</ele>
                <time>2009-08-25T07:29:41.000Z</time>
                <name>Position 612</name>
            </trkpt>
            <trkpt lon="10.6130966666667" lat="47.49044">
                <ele>1421.4</ele>
                <time>2009-08-25T07:29:44.000Z</time>
                <name>Position 613</name>
            </trkpt>
            <trkpt lon="10.6130933333333" lat="47.4904416666667">
                <ele>1421.5</ele>
                <time>2009-08-25T07:29:47.000Z</time>
                <name>Position 614</name>
            </trkpt>
            <trkpt lon="10.6130966666667" lat="47.4904416666667">
                <ele>1421.7</ele>
                <time>2009-08-25T07:29:50.000Z</time>
                <name>Position 615</name>
            </trkpt>
            <trkpt lon="10.6130983333333" lat="47.4904433333333">
                <ele>1421.5</ele>
                <time>2009-08-25T07:29:53.000Z</time>
                <name>Position 616</name>
            </trkpt>
            <trkpt lon="10.6131" lat="47.4904433333333">
                <ele>1421.3</ele>
                <time>2009-08-25T07:29:56.000Z</time>
                <name>Position 617</name>
            </trkpt>
            <trkpt lon="10.6130983333333" lat="47.490445">
                <ele>1421.2</ele>
                <time>2009-08-25T07:29:59.000Z</time>
                <name>Position 618</name>
            </trkpt>
            <trkpt lon="10.6130983333333" lat="47.490445">
                <ele>1421.2</ele>
                <time>2009-08-25T07:30:02.000Z</time>
                <name>Position 619</name>
            </trkpt>
            <trkpt lon="10.6130983333333" lat="47.490445">
                <ele>1421.2</ele>
                <time>2009-08-25T07:30:05.000Z</time>
                <name>Position 620</name>
            </trkpt>
            <trkpt lon="10.6130983333333" lat="47.490445">
                <ele>1421.2</ele>
                <time>2009-08-25T07:30:08.000Z</time>
                <name>Position 621</name>
            </trkpt>
            <trkpt lon="10.6131" lat="47.490445">
                <ele>1421.2</ele>
                <time>2009-08-25T07:30:11.000Z</time>
                <name>Position 622</name>
            </trkpt>
            <trkpt lon="10.6131" lat="47.490445">
                <ele>1421.2</ele>
                <time>2009-08-25T07:30:14.000Z</time>
                <name>Position 623</name>
            </trkpt>
            <trkpt lon="10.6131" lat="47.490445">
                <ele>1421.2</ele>
                <time>2009-08-25T07:30:17.000Z</time>
                <name>Position 624</name>
            </trkpt>
            <trkpt lon="10.6131" lat="47.490445">
                <ele>1421.2</ele>
                <time>2009-08-25T07:30:20.000Z</time>
                <name>Position 625</name>
            </trkpt>
            <trkpt lon="10.6131" lat="47.490445">
                <ele>1421.2</ele>
                <time>2009-08-25T07:30:23.000Z</time>
                <name>Position 626</name>
            </trkpt>
            <trkpt lon="10.6131" lat="47.490445">
                <ele>1421.2</ele>
                <time>2009-08-25T07:30:26.000Z</time>
                <name>Position 627</name>
            </trkpt>
            <trkpt lon="10.6131" lat="47.490445">
                <ele>1421.3</ele>
                <time>2009-08-25T07:30:29.000Z</time>
                <name>Position 628</name>
            </trkpt>
            <trkpt lon="10.6131" lat="47.490445">
                <ele>1421.3</ele>
                <time>2009-08-25T07:30:32.000Z</time>
                <name>Position 629</name>
            </trkpt>
            <trkpt lon="10.6131" lat="47.490445">
                <ele>1421.3</ele>
                <time>2009-08-25T07:30:35.000Z</time>
                <name>Position 630</name>
            </trkpt>
            <trkpt lon="10.6130983333333" lat="47.490445">
                <ele>1421.4</ele>
                <time>2009-08-25T07:30:38.000Z</time>
                <name>Position 631</name>
            </trkpt>
            <trkpt lon="10.6130983333333" lat="47.490445">
                <ele>1421.3</ele>
                <time>2009-08-25T07:30:41.000Z</time>
                <name>Position 632</name>
            </trkpt>
            <trkpt lon="10.6130983333333" lat="47.490445">
                <ele>1421.3</ele>
                <time>2009-08-25T07:30:44.000Z</time>
                <name>Position 633</name>
            </trkpt>
            <trkpt lon="10.6130983333333" lat="47.490445">
                <ele>1421.4</ele>
                <time>2009-08-25T07:30:47.000Z</time>
                <name>Position 634</name>
            </trkpt>
            <trkpt lon="10.6130916666667" lat="47.4904416666667">
                <ele>1421.4</ele>
                <time>2009-08-25T07:30:50.000Z</time>
                <name>Position 635</name>
            </trkpt>
            <trkpt lon="10.6130866666667" lat="47.4904433333333">
                <ele>1421.3</ele>
                <time>2009-08-25T07:30:53.000Z</time>
                <name>Position 636</name>
            </trkpt>
            <trkpt lon="10.6130866666667" lat="47.4904433333333">
                <ele>1421.3</ele>
                <time>2009-08-25T07:30:56.000Z</time>
                <name>Position 637</name>
            </trkpt>
            <trkpt lon="10.6130866666667" lat="47.4904433333333">
                <ele>1421.3</ele>
                <time>2009-08-25T07:30:59.000Z</time>
                <name>Position 638</name>
            </trkpt>
            <trkpt lon="10.6130866666667" lat="47.4904433333333">
                <ele>1421.3</ele>
                <time>2009-08-25T07:31:02.000Z</time>
                <name>Position 639</name>
            </trkpt>
            <trkpt lon="10.6130866666667" lat="47.4904433333333">
                <ele>1421.3</ele>
                <time>2009-08-25T07:31:05.000Z</time>
                <name>Position 640</name>
            </trkpt>
            <trkpt lon="10.6130866666667" lat="47.4904433333333">
                <ele>1421.3</ele>
                <time>2009-08-25T07:31:08.000Z</time>
                <name>Position 641</name>
            </trkpt>
            <trkpt lon="10.6130866666667" lat="47.4904433333333">
                <ele>1421.3</ele>
                <time>2009-08-25T07:31:11.000Z</time>
                <name>Position 642</name>
            </trkpt>
            <trkpt lon="10.6130866666667" lat="47.4904433333333">
                <ele>1421.4</ele>
                <time>2009-08-25T07:31:14.000Z</time>
                <name>Position 643</name>
            </trkpt>
            <trkpt lon="10.6130866666667" lat="47.4904433333333">
                <ele>1421.4</ele>
                <time>2009-08-25T07:31:17.000Z</time>
                <name>Position 644</name>
            </trkpt>
            <trkpt lon="10.6130916666667" lat="47.490445">
                <ele>1421.2</ele>
                <time>2009-08-25T07:31:20.000Z</time>
                <name>Position 645</name>
            </trkpt>
            <trkpt lon="10.613105" lat="47.49045">
                <ele>1421.4</ele>
                <time>2009-08-25T07:31:23.000Z</time>
                <name>Position 646</name>
            </trkpt>
            <trkpt lon="10.613095" lat="47.4904483333333">
                <ele>1421.1</ele>
                <time>2009-08-25T07:31:26.000Z</time>
                <name>Position 647</name>
            </trkpt>
            <trkpt lon="10.6131016666667" lat="47.4904516666667">
                <ele>1421.1</ele>
                <time>2009-08-25T07:31:29.000Z</time>
                <name>Position 648</name>
            </trkpt>
            <trkpt lon="10.6131" lat="47.49045">
                <ele>1421.2</ele>
                <time>2009-08-25T07:31:32.000Z</time>
                <name>Position 649</name>
            </trkpt>
            <trkpt lon="10.6131" lat="47.49045">
                <ele>1421.2</ele>
                <time>2009-08-25T07:31:35.000Z</time>
                <name>Position 650</name>
            </trkpt>
            <trkpt lon="10.6131" lat="47.49045">
                <ele>1421.2</ele>
                <time>2009-08-25T07:31:38.000Z</time>
                <name>Position 651</name>
            </trkpt>
            <trkpt lon="10.6131" lat="47.49045">
                <ele>1421.2</ele>
                <time>2009-08-25T07:31:41.000Z</time>
                <name>Position 652</name>
            </trkpt>
            <trkpt lon="10.6131" lat="47.49045">
                <ele>1421.2</ele>
                <time>2009-08-25T07:31:44.000Z</time>
                <name>Position 653</name>
            </trkpt>
            <trkpt lon="10.6131" lat="47.49045">
                <ele>1421.2</ele>
                <time>2009-08-25T07:31:47.000Z</time>
                <name>Position 654</name>
            </trkpt>
            <trkpt lon="10.6131" lat="47.49045">
                <ele>1421.2</ele>
                <time>2009-08-25T07:31:50.000Z</time>
                <name>Position 655</name>
            </trkpt>
            <trkpt lon="10.6131" lat="47.49045">
                <ele>1421.2</ele>
                <time>2009-08-25T07:31:53.000Z</time>
                <name>Position 656</name>
            </trkpt>
            <trkpt lon="10.6131" lat="47.49045">
                <ele>1421.2</ele>
                <time>2009-08-25T07:31:56.000Z</time>
                <name>Position 657</name>
            </trkpt>
            <trkpt lon="10.6131" lat="47.49045">
                <ele>1421.2</ele>
                <time>2009-08-25T07:31:59.000Z</time>
                <name>Position 658</name>
            </trkpt>
            <trkpt lon="10.6131" lat="47.49045">
                <ele>1421.2</ele>
                <time>2009-08-25T07:32:02.000Z</time>
                <name>Position 659</name>
            </trkpt>
            <trkpt lon="10.6131" lat="47.49045">
                <ele>1421.2</ele>
                <time>2009-08-25T07:32:05.000Z</time>
                <name>Position 660</name>
            </trkpt>
            <trkpt lon="10.6131" lat="47.49045">
                <ele>1421.2</ele>
                <time>2009-08-25T07:32:08.000Z</time>
                <name>Position 661</name>
            </trkpt>
            <trkpt lon="10.6131" lat="47.49045">
                <ele>1421.2</ele>
                <time>2009-08-25T07:32:11.000Z</time>
                <name>Position 662</name>
            </trkpt>
            <trkpt lon="10.6131" lat="47.49045">
                <ele>1421.2</ele>
                <time>2009-08-25T07:32:14.000Z</time>
                <name>Position 663</name>
            </trkpt>
            <trkpt lon="10.6131" lat="47.49045">
                <ele>1421.2</ele>
                <time>2009-08-25T07:32:17.000Z</time>
                <name>Position 664</name>
            </trkpt>
            <trkpt lon="10.6131" lat="47.49045">
                <ele>1421.2</ele>
                <time>2009-08-25T07:32:20.000Z</time>
                <name>Position 665</name>
            </trkpt>
            <trkpt lon="10.6131" lat="47.49045">
                <ele>1421.2</ele>
                <time>2009-08-25T07:32:23.000Z</time>
                <name>Position 666</name>
            </trkpt>
            <trkpt lon="10.6131" lat="47.49045">
                <ele>1421.2</ele>
                <time>2009-08-25T07:32:26.000Z</time>
                <name>Position 667</name>
            </trkpt>
            <trkpt lon="10.6131" lat="47.49045">
                <ele>1421.2</ele>
                <time>2009-08-25T07:32:29.000Z</time>
                <name>Position 668</name>
            </trkpt>
            <trkpt lon="10.6131" lat="47.49045">
                <ele>1421.2</ele>
                <time>2009-08-25T07:32:32.000Z</time>
                <name>Position 669</name>
            </trkpt>
            <trkpt lon="10.6131" lat="47.4904483333333">
                <ele>1421.2</ele>
                <time>2009-08-25T07:32:35.000Z</time>
                <name>Position 670</name>
            </trkpt>
            <trkpt lon="10.6130933333333" lat="47.49045">
                <ele>1420.8</ele>
                <time>2009-08-25T07:32:38.000Z</time>
                <name>Position 671</name>
            </trkpt>
            <trkpt lon="10.613085" lat="47.4904583333333">
                <ele>1421.0</ele>
                <time>2009-08-25T07:32:41.000Z</time>
                <name>Position 672</name>
            </trkpt>
            <trkpt lon="10.613085" lat="47.4904616666667">
                <ele>1420.9</ele>
                <time>2009-08-25T07:32:44.000Z</time>
                <name>Position 673</name>
            </trkpt>
            <trkpt lon="10.6130883333333" lat="47.4904633333333">
                <ele>1420.8</ele>
                <time>2009-08-25T07:32:47.000Z</time>
                <name>Position 674</name>
            </trkpt>
            <trkpt lon="10.6130883333333" lat="47.4904616666667">
                <ele>1420.8</ele>
                <time>2009-08-25T07:32:50.000Z</time>
                <name>Position 675</name>
            </trkpt>
            <trkpt lon="10.6130883333333" lat="47.4904616666667">
                <ele>1420.8</ele>
                <time>2009-08-25T07:32:53.000Z</time>
                <name>Position 676</name>
            </trkpt>
            <trkpt lon="10.61309" lat="47.4904683333333">
                <ele>1420.8</ele>
                <time>2009-08-25T07:32:56.000Z</time>
                <name>Position 677</name>
            </trkpt>
            <trkpt lon="10.6130833333333" lat="47.490485">
                <ele>1420.8</ele>
                <time>2009-08-25T07:32:59.000Z</time>
                <name>Position 678</name>
            </trkpt>
            <trkpt lon="10.6130716666667" lat="47.4905083333333">
                <ele>1421.9</ele>
                <time>2009-08-25T07:33:02.000Z</time>
                <name>Position 679</name>
            </trkpt>
            <trkpt lon="10.6130666666667" lat="47.4905333333333">
                <ele>1422.6</ele>
                <time>2009-08-25T07:33:05.000Z</time>
                <name>Position 680</name>
            </trkpt>
            <trkpt lon="10.613085" lat="47.4905433333333">
                <ele>1423.7</ele>
                <time>2009-08-25T07:33:08.000Z</time>
                <name>Position 681</name>
            </trkpt>
            <trkpt lon="10.6131266666667" lat="47.4905383333333">
                <ele>1423.9</ele>
                <time>2009-08-25T07:33:11.000Z</time>
                <name>Position 682</name>
            </trkpt>
            <trkpt lon="10.61316" lat="47.4905466666667">
                <ele>1424.5</ele>
                <time>2009-08-25T07:33:14.000Z</time>
                <name>Position 683</name>
            </trkpt>
            <trkpt lon="10.613175" lat="47.4905583333333">
                <ele>1425.5</ele>
                <time>2009-08-25T07:33:17.000Z</time>
                <name>Position 684</name>
            </trkpt>
            <trkpt lon="10.6132033333333" lat="47.4905633333333">
                <ele>1426.2</ele>
                <time>2009-08-25T07:33:20.000Z</time>
                <name>Position 685</name>
            </trkpt>
            <trkpt lon="10.6132366666667" lat="47.4905683333333">
                <ele>1427.0</ele>
                <time>2009-08-25T07:33:23.000Z</time>
                <name>Position 686</name>
            </trkpt>
            <trkpt lon="10.61327" lat="47.4905716666667">
                <ele>1427.5</ele>
                <time>2009-08-25T07:33:26.000Z</time>
                <name>Position 687</name>
            </trkpt>
            <trkpt lon="10.6133" lat="47.4905833333333">
                <ele>1427.9</ele>
                <time>2009-08-25T07:33:29.000Z</time>
                <name>Position 688</name>
            </trkpt>
            <trkpt lon="10.613315" lat="47.49059">
                <ele>1429.1</ele>
                <time>2009-08-25T07:33:32.000Z</time>
                <name>Position 689</name>
            </trkpt>
            <trkpt lon="10.61329" lat="47.490605">
                <ele>1430.2</ele>
                <time>2009-08-25T07:33:35.000Z</time>
                <name>Position 690</name>
            </trkpt>
            <trkpt lon="10.6132683333333" lat="47.490605">
                <ele>1431.0</ele>
                <time>2009-08-25T07:33:38.000Z</time>
                <name>Position 691</name>
            </trkpt>
            <trkpt lon="10.61324" lat="47.4906283333333">
                <ele>1431.9</ele>
                <time>2009-08-25T07:33:41.000Z</time>
                <name>Position 692</name>
            </trkpt>
            <trkpt lon="10.61323" lat="47.4906516666667">
                <ele>1432.7</ele>
                <time>2009-08-25T07:33:44.000Z</time>
                <name>Position 693</name>
            </trkpt>
            <trkpt lon="10.6132516666667" lat="47.4906566666667">
                <ele>1432.9</ele>
                <time>2009-08-25T07:33:47.000Z</time>
                <name>Position 694</name>
            </trkpt>
            <trkpt lon="10.6132816666667" lat="47.4906583333333">
                <ele>1434.1</ele>
                <time>2009-08-25T07:33:50.000Z</time>
                <name>Position 695</name>
            </trkpt>
            <trkpt lon="10.6133083333333" lat="47.490665">
                <ele>1435.2</ele>
                <time>2009-08-25T07:33:53.000Z</time>
                <name>Position 696</name>
            </trkpt>
            <trkpt lon="10.6133433333333" lat="47.4906766666667">
                <ele>1435.8</ele>
                <time>2009-08-25T07:33:56.000Z</time>
                <name>Position 697</name>
            </trkpt>
            <trkpt lon="10.61338" lat="47.4906833333333">
                <ele>1436.6</ele>
                <time>2009-08-25T07:33:59.000Z</time>
                <name>Position 698</name>
            </trkpt>
            <trkpt lon="10.6134033333333" lat="47.490695">
                <ele>1437.3</ele>
                <time>2009-08-25T07:34:02.000Z</time>
                <name>Position 699</name>
            </trkpt>
            <trkpt lon="10.6134216666667" lat="47.4907016666667">
                <ele>1437.7</ele>
                <time>2009-08-25T07:34:05.000Z</time>
                <name>Position 700</name>
            </trkpt>
            <trkpt lon="10.6134266666667" lat="47.4906983333333">
                <ele>1438.1</ele>
                <time>2009-08-25T07:34:08.000Z</time>
                <name>Position 701</name>
            </trkpt>
            <trkpt lon="10.61343" lat="47.4906966666667">
                <ele>1438.0</ele>
                <time>2009-08-25T07:34:11.000Z</time>
                <name>Position 702</name>
            </trkpt>
            <trkpt lon="10.6134366666667" lat="47.4907">
                <ele>1438.2</ele>
                <time>2009-08-25T07:34:14.000Z</time>
                <name>Position 703</name>
            </trkpt>
            <trkpt lon="10.613485" lat="47.4906966666667">
                <ele>1439.2</ele>
                <time>2009-08-25T07:34:17.000Z</time>
                <name>Position 704</name>
            </trkpt>
            <trkpt lon="10.61352" lat="47.4907033333333">
                <ele>1439.5</ele>
                <time>2009-08-25T07:34:20.000Z</time>
                <name>Position 705</name>
            </trkpt>
            <trkpt lon="10.6135366666667" lat="47.4907183333333">
                <ele>1440.1</ele>
                <time>2009-08-25T07:34:23.000Z</time>
                <name>Position 706</name>
            </trkpt>
            <trkpt lon="10.6135683333333" lat="47.49072">
                <ele>1441.4</ele>
                <time>2009-08-25T07:34:26.000Z</time>
                <name>Position 707</name>
            </trkpt>
            <trkpt lon="10.6136033333333" lat="47.4907266666667">
                <ele>1441.6</ele>
                <time>2009-08-25T07:34:29.000Z</time>
                <name>Position 708</name>
            </trkpt>
            <trkpt lon="10.6136333333333" lat="47.4907283333333">
                <ele>1442.1</ele>
                <time>2009-08-25T07:34:32.000Z</time>
                <name>Position 709</name>
            </trkpt>
            <trkpt lon="10.61364" lat="47.4907316666667">
                <ele>1445.4</ele>
                <time>2009-08-25T07:34:35.000Z</time>
                <name>Position 710</name>
            </trkpt>
            <trkpt lon="10.6136733333333" lat="47.49074">
                <ele>1445.7</ele>
                <time>2009-08-25T07:34:38.000Z</time>
                <name>Position 711</name>
            </trkpt>
            <trkpt lon="10.6136966666667" lat="47.4907433333333">
                <ele>1446.5</ele>
                <time>2009-08-25T07:34:41.000Z</time>
                <name>Position 712</name>
            </trkpt>
            <trkpt lon="10.613725" lat="47.4907516666667">
                <ele>1447.5</ele>
                <time>2009-08-25T07:34:44.000Z</time>
                <name>Position 713</name>
            </trkpt>
            <trkpt lon="10.6137516666667" lat="47.4907533333333">
                <ele>1449.1</ele>
                <time>2009-08-25T07:34:47.000Z</time>
                <name>Position 714</name>
            </trkpt>
            <trkpt lon="10.6137816666667" lat="47.49076">
                <ele>1450.0</ele>
                <time>2009-08-25T07:34:50.000Z</time>
                <name>Position 715</name>
            </trkpt>
            <trkpt lon="10.6137983333333" lat="47.4907716666667">
                <ele>1451.8</ele>
                <time>2009-08-25T07:34:53.000Z</time>
                <name>Position 716</name>
            </trkpt>
            <trkpt lon="10.6138183333333" lat="47.4907883333333">
                <ele>1453.2</ele>
                <time>2009-08-25T07:34:56.000Z</time>
                <name>Position 717</name>
            </trkpt>
            <trkpt lon="10.61384" lat="47.4907983333333">
                <ele>1454.7</ele>
                <time>2009-08-25T07:34:59.000Z</time>
                <name>Position 718</name>
            </trkpt>
            <trkpt lon="10.6138683333333" lat="47.490795">
                <ele>1455.5</ele>
                <time>2009-08-25T07:35:02.000Z</time>
                <name>Position 719</name>
            </trkpt>
            <trkpt lon="10.613885" lat="47.490785">
                <ele>1456.0</ele>
                <time>2009-08-25T07:35:05.000Z</time>
                <name>Position 720</name>
            </trkpt>
            <trkpt lon="10.61391" lat="47.4907833333333">
                <ele>1456.8</ele>
                <time>2009-08-25T07:35:08.000Z</time>
                <name>Position 721</name>
            </trkpt>
            <trkpt lon="10.61393" lat="47.4907866666667">
                <ele>1457.8</ele>
                <time>2009-08-25T07:35:11.000Z</time>
                <name>Position 722</name>
            </trkpt>
            <trkpt lon="10.6139516666667" lat="47.490785">
                <ele>1458.7</ele>
                <time>2009-08-25T07:35:14.000Z</time>
                <name>Position 723</name>
            </trkpt>
            <trkpt lon="10.614" lat="47.4907866666667">
                <ele>1459.3</ele>
                <time>2009-08-25T07:35:17.000Z</time>
                <name>Position 724</name>
            </trkpt>
            <trkpt lon="10.61405" lat="47.4907916666667">
                <ele>1459.8</ele>
                <time>2009-08-25T07:35:20.000Z</time>
                <name>Position 725</name>
            </trkpt>
            <trkpt lon="10.614095" lat="47.4908133333333">
                <ele>1460.2</ele>
                <time>2009-08-25T07:35:23.000Z</time>
                <name>Position 726</name>
            </trkpt>
            <trkpt lon="10.61414" lat="47.49082">
                <ele>1458.1</ele>
                <time>2009-08-25T07:35:26.000Z</time>
                <name>Position 727</name>
            </trkpt>
            <trkpt lon="10.61418" lat="47.49082">
                <ele>1456.5</ele>
                <time>2009-08-25T07:35:29.000Z</time>
                <name>Position 728</name>
            </trkpt>
            <trkpt lon="10.6142066666667" lat="47.49083">
                <ele>1455.7</ele>
                <time>2009-08-25T07:35:32.000Z</time>
                <name>Position 729</name>
            </trkpt>
            <trkpt lon="10.6142366666667" lat="47.4908333333333">
                <ele>1455.0</ele>
                <time>2009-08-25T07:35:35.000Z</time>
                <name>Position 730</name>
            </trkpt>
            <trkpt lon="10.614275" lat="47.4908466666667">
                <ele>1454.0</ele>
                <time>2009-08-25T07:35:38.000Z</time>
                <name>Position 731</name>
            </trkpt>
            <trkpt lon="10.61431" lat="47.49085">
                <ele>1453.4</ele>
                <time>2009-08-25T07:35:41.000Z</time>
                <name>Position 732</name>
            </trkpt>
            <trkpt lon="10.6143433333333" lat="47.4908533333333">
                <ele>1452.3</ele>
                <time>2009-08-25T07:35:44.000Z</time>
                <name>Position 733</name>
            </trkpt>
            <trkpt lon="10.6143983333333" lat="47.4908666666667">
                <ele>1451.4</ele>
                <time>2009-08-25T07:35:47.000Z</time>
                <name>Position 734</name>
            </trkpt>
            <trkpt lon="10.61444" lat="47.490875">
                <ele>1450.5</ele>
                <time>2009-08-25T07:35:50.000Z</time>
                <name>Position 735</name>
            </trkpt>
            <trkpt lon="10.6144716666667" lat="47.490885">
                <ele>1449.9</ele>
                <time>2009-08-25T07:35:53.000Z</time>
                <name>Position 736</name>
            </trkpt>
            <trkpt lon="10.6144616666667" lat="47.4909016666667">
                <ele>1449.2</ele>
                <time>2009-08-25T07:35:56.000Z</time>
                <name>Position 737</name>
            </trkpt>
            <trkpt lon="10.61448" lat="47.4909083333333">
                <ele>1448.8</ele>
                <time>2009-08-25T07:35:59.000Z</time>
                <name>Position 738</name>
            </trkpt>
            <trkpt lon="10.614495" lat="47.49093">
                <ele>1447.9</ele>
                <time>2009-08-25T07:36:02.000Z</time>
                <name>Position 739</name>
            </trkpt>
            <trkpt lon="10.6145" lat="47.490955">
                <ele>1447.0</ele>
                <time>2009-08-25T07:36:05.000Z</time>
                <name>Position 740</name>
            </trkpt>
            <trkpt lon="10.61454" lat="47.49096">
                <ele>1447.2</ele>
                <time>2009-08-25T07:36:08.000Z</time>
                <name>Position 741</name>
            </trkpt>
            <trkpt lon="10.6145883333333" lat="47.49097">
                <ele>1446.9</ele>
                <time>2009-08-25T07:36:11.000Z</time>
                <name>Position 742</name>
            </trkpt>
            <trkpt lon="10.6146183333333" lat="47.4909766666667">
                <ele>1446.7</ele>
                <time>2009-08-25T07:36:14.000Z</time>
                <name>Position 743</name>
            </trkpt>
            <trkpt lon="10.614645" lat="47.4909933333333">
                <ele>1448.1</ele>
                <time>2009-08-25T07:36:17.000Z</time>
                <name>Position 744</name>
            </trkpt>
            <trkpt lon="10.61468" lat="47.4909883333333">
                <ele>1448.2</ele>
                <time>2009-08-25T07:36:20.000Z</time>
                <name>Position 745</name>
            </trkpt>
            <trkpt lon="10.6146783333333" lat="47.4909866666667">
                <ele>1448.7</ele>
                <time>2009-08-25T07:36:23.000Z</time>
                <name>Position 746</name>
            </trkpt>
            <trkpt lon="10.6146766666667" lat="47.49099">
                <ele>1448.6</ele>
                <time>2009-08-25T07:36:26.000Z</time>
                <name>Position 747</name>
            </trkpt>
            <trkpt lon="10.6146983333333" lat="47.49099">
                <ele>1448.6</ele>
                <time>2009-08-25T07:36:29.000Z</time>
                <name>Position 748</name>
            </trkpt>
            <trkpt lon="10.6146866666667" lat="47.490995">
                <ele>1448.6</ele>
                <time>2009-08-25T07:36:32.000Z</time>
                <name>Position 749</name>
            </trkpt>
            <trkpt lon="10.6146866666667" lat="47.4909966666667">
                <ele>1448.6</ele>
                <time>2009-08-25T07:36:35.000Z</time>
                <name>Position 750</name>
            </trkpt>
            <trkpt lon="10.6146866666667" lat="47.4909966666667">
                <ele>1448.5</ele>
                <time>2009-08-25T07:36:38.000Z</time>
                <name>Position 751</name>
            </trkpt>
            <trkpt lon="10.6146783333333" lat="47.4909983333333">
                <ele>1448.6</ele>
                <time>2009-08-25T07:36:41.000Z</time>
                <name>Position 752</name>
            </trkpt>
            <trkpt lon="10.6146766666667" lat="47.4909983333333">
                <ele>1449.0</ele>
                <time>2009-08-25T07:36:44.000Z</time>
                <name>Position 753</name>
            </trkpt>
            <trkpt lon="10.61468" lat="47.4910033333333">
                <ele>1449.1</ele>
                <time>2009-08-25T07:36:47.000Z</time>
                <name>Position 754</name>
            </trkpt>
            <trkpt lon="10.6147" lat="47.49101">
                <ele>1450.7</ele>
                <time>2009-08-25T07:36:50.000Z</time>
                <name>Position 755</name>
            </trkpt>
            <trkpt lon="10.6147216666667" lat="47.4910033333333">
                <ele>1451.1</ele>
                <time>2009-08-25T07:36:53.000Z</time>
                <name>Position 756</name>
            </trkpt>
            <trkpt lon="10.6147566666667" lat="47.49101">
                <ele>1452.1</ele>
                <time>2009-08-25T07:36:56.000Z</time>
                <name>Position 757</name>
            </trkpt>
            <trkpt lon="10.6147966666667" lat="47.491025">
                <ele>1452.6</ele>
                <time>2009-08-25T07:36:59.000Z</time>
                <name>Position 758</name>
            </trkpt>
            <trkpt lon="10.6148216666667" lat="47.49104">
                <ele>1453.2</ele>
                <time>2009-08-25T07:37:02.000Z</time>
                <name>Position 759</name>
            </trkpt>
            <trkpt lon="10.6148366666667" lat="47.4910633333333">
                <ele>1454.5</ele>
                <time>2009-08-25T07:37:05.000Z</time>
                <name>Position 760</name>
            </trkpt>
            <trkpt lon="10.6148366666667" lat="47.4910833333333">
                <ele>1455.7</ele>
                <time>2009-08-25T07:37:08.000Z</time>
                <name>Position 761</name>
            </trkpt>
            <trkpt lon="10.6148383333333" lat="47.4910983333333">
                <ele>1456.9</ele>
                <time>2009-08-25T07:37:11.000Z</time>
                <name>Position 762</name>
            </trkpt>
            <trkpt lon="10.6148283333333" lat="47.491115">
                <ele>1458.2</ele>
                <time>2009-08-25T07:37:14.000Z</time>
                <name>Position 763</name>
            </trkpt>
            <trkpt lon="10.6148116666667" lat="47.4911183333333">
                <ele>1459.6</ele>
                <time>2009-08-25T07:37:17.000Z</time>
                <name>Position 764</name>
            </trkpt>
            <trkpt lon="10.614795" lat="47.491125">
                <ele>1461.2</ele>
                <time>2009-08-25T07:37:20.000Z</time>
                <name>Position 765</name>
            </trkpt>
            <trkpt lon="10.6147833333333" lat="47.4911166666667">
                <ele>1462.7</ele>
                <time>2009-08-25T07:37:23.000Z</time>
                <name>Position 766</name>
            </trkpt>
            <trkpt lon="10.61477" lat="47.4911133333333">
                <ele>1463.7</ele>
                <time>2009-08-25T07:37:26.000Z</time>
                <name>Position 767</name>
            </trkpt>
            <trkpt lon="10.61474" lat="47.4911266666667">
                <ele>1464.3</ele>
                <time>2009-08-25T07:37:29.000Z</time>
                <name>Position 768</name>
            </trkpt>
            <trkpt lon="10.6147083333333" lat="47.4911366666667">
                <ele>1465.4</ele>
                <time>2009-08-25T07:37:32.000Z</time>
                <name>Position 769</name>
            </trkpt>
            <trkpt lon="10.6146916666667" lat="47.491135">
                <ele>1466.4</ele>
                <time>2009-08-25T07:37:35.000Z</time>
                <name>Position 770</name>
            </trkpt>
            <trkpt lon="10.6146883333333" lat="47.4911366666667">
                <ele>1467.0</ele>
                <time>2009-08-25T07:37:38.000Z</time>
                <name>Position 771</name>
            </trkpt>
            <trkpt lon="10.614685" lat="47.491155">
                <ele>1467.7</ele>
                <time>2009-08-25T07:37:41.000Z</time>
                <name>Position 772</name>
            </trkpt>
            <trkpt lon="10.61467" lat="47.4911683333333">
                <ele>1468.4</ele>
                <time>2009-08-25T07:37:44.000Z</time>
                <name>Position 773</name>
            </trkpt>
            <trkpt lon="10.6146666666667" lat="47.4911633333333">
                <ele>1468.9</ele>
                <time>2009-08-25T07:37:47.000Z</time>
                <name>Position 774</name>
            </trkpt>
            <trkpt lon="10.6146666666667" lat="47.4911666666667">
                <ele>1469.2</ele>
                <time>2009-08-25T07:37:50.000Z</time>
                <name>Position 775</name>
            </trkpt>
            <trkpt lon="10.6146633333333" lat="47.4911666666667">
                <ele>1469.6</ele>
                <time>2009-08-25T07:37:53.000Z</time>
                <name>Position 776</name>
            </trkpt>
            <trkpt lon="10.6146566666667" lat="47.49116">
                <ele>1469.7</ele>
                <time>2009-08-25T07:37:56.000Z</time>
                <name>Position 777</name>
            </trkpt>
            <trkpt lon="10.6146533333333" lat="47.4911483333333">
                <ele>1469.8</ele>
                <time>2009-08-25T07:37:59.000Z</time>
                <name>Position 778</name>
            </trkpt>
            <trkpt lon="10.6146433333333" lat="47.4911566666667">
                <ele>1469.4</ele>
                <time>2009-08-25T07:38:02.000Z</time>
                <name>Position 779</name>
            </trkpt>
            <trkpt lon="10.61464" lat="47.4911583333333">
                <ele>1469.5</ele>
                <time>2009-08-25T07:38:05.000Z</time>
                <name>Position 780</name>
            </trkpt>
            <trkpt lon="10.61464" lat="47.4911583333333">
                <ele>1469.7</ele>
                <time>2009-08-25T07:38:08.000Z</time>
                <name>Position 781</name>
            </trkpt>
            <trkpt lon="10.6146333333333" lat="47.4911583333333">
                <ele>1469.9</ele>
                <time>2009-08-25T07:38:11.000Z</time>
                <name>Position 782</name>
            </trkpt>
            <trkpt lon="10.61463" lat="47.4911566666667">
                <ele>1470.0</ele>
                <time>2009-08-25T07:38:14.000Z</time>
                <name>Position 783</name>
            </trkpt>
            <trkpt lon="10.61463" lat="47.491155">
                <ele>1470.0</ele>
                <time>2009-08-25T07:38:17.000Z</time>
                <name>Position 784</name>
            </trkpt>
            <trkpt lon="10.61463" lat="47.491155">
                <ele>1470.1</ele>
                <time>2009-08-25T07:38:20.000Z</time>
                <name>Position 785</name>
            </trkpt>
            <trkpt lon="10.61463" lat="47.491155">
                <ele>1470.1</ele>
                <time>2009-08-25T07:38:23.000Z</time>
                <name>Position 786</name>
            </trkpt>
            <trkpt lon="10.6146316666667" lat="47.4911533333333">
                <ele>1470.1</ele>
                <time>2009-08-25T07:38:26.000Z</time>
                <name>Position 787</name>
            </trkpt>
            <trkpt lon="10.6146316666667" lat="47.4911533333333">
                <ele>1470.1</ele>
                <time>2009-08-25T07:38:29.000Z</time>
                <name>Position 788</name>
            </trkpt>
            <trkpt lon="10.614625" lat="47.4911533333333">
                <ele>1470.1</ele>
                <time>2009-08-25T07:38:32.000Z</time>
                <name>Position 789</name>
            </trkpt>
            <trkpt lon="10.6146066666667" lat="47.4911616666667">
                <ele>1470.1</ele>
                <time>2009-08-25T07:38:35.000Z</time>
                <name>Position 790</name>
            </trkpt>
            <trkpt lon="10.6145833333333" lat="47.4911733333333">
                <ele>1470.3</ele>
                <time>2009-08-25T07:38:38.000Z</time>
                <name>Position 791</name>
            </trkpt>
            <trkpt lon="10.6145583333333" lat="47.49119">
                <ele>1470.8</ele>
                <time>2009-08-25T07:38:41.000Z</time>
                <name>Position 792</name>
            </trkpt>
            <trkpt lon="10.6145083333333" lat="47.4911983333333">
                <ele>1472.3</ele>
                <time>2009-08-25T07:38:44.000Z</time>
                <name>Position 793</name>
            </trkpt>
            <trkpt lon="10.6144633333333" lat="47.4912066666667">
                <ele>1474.1</ele>
                <time>2009-08-25T07:38:47.000Z</time>
                <name>Position 794</name>
            </trkpt>
            <trkpt lon="10.6144216666667" lat="47.491215">
                <ele>1475.5</ele>
                <time>2009-08-25T07:38:50.000Z</time>
                <name>Position 795</name>
            </trkpt>
            <trkpt lon="10.6143933333333" lat="47.491225">
                <ele>1476.1</ele>
                <time>2009-08-25T07:38:53.000Z</time>
                <name>Position 796</name>
            </trkpt>
            <trkpt lon="10.6143516666667" lat="47.4912333333333">
                <ele>1476.9</ele>
                <time>2009-08-25T07:38:56.000Z</time>
                <name>Position 797</name>
            </trkpt>
            <trkpt lon="10.614315" lat="47.4912416666667">
                <ele>1478.3</ele>
                <time>2009-08-25T07:38:59.000Z</time>
                <name>Position 798</name>
            </trkpt>
            <trkpt lon="10.614295" lat="47.4912433333333">
                <ele>1479.3</ele>
                <time>2009-08-25T07:39:02.000Z</time>
                <name>Position 799</name>
            </trkpt>
            <trkpt lon="10.6142716666667" lat="47.4912716666667">
                <ele>1482.4</ele>
                <time>2009-08-25T07:39:05.000Z</time>
                <name>Position 800</name>
            </trkpt>
            <trkpt lon="10.61427" lat="47.4912716666667">
                <ele>1481.4</ele>
                <time>2009-08-25T07:39:08.000Z</time>
                <name>Position 801</name>
            </trkpt>
            <trkpt lon="10.61427" lat="47.4912716666667">
                <ele>1481.4</ele>
                <time>2009-08-25T07:39:11.000Z</time>
                <name>Position 802</name>
            </trkpt>
            <trkpt lon="10.61427" lat="47.49127">
                <ele>1481.4</ele>
                <time>2009-08-25T07:39:14.000Z</time>
                <name>Position 803</name>
            </trkpt>
            <trkpt lon="10.61427" lat="47.4912683333333">
                <ele>1481.4</ele>
                <time>2009-08-25T07:39:17.000Z</time>
                <name>Position 804</name>
            </trkpt>
            <trkpt lon="10.61427" lat="47.49127">
                <ele>1481.3</ele>
                <time>2009-08-25T07:39:20.000Z</time>
                <name>Position 805</name>
            </trkpt>
            <trkpt lon="10.61426" lat="47.49128">
                <ele>1481.1</ele>
                <time>2009-08-25T07:39:23.000Z</time>
                <name>Position 806</name>
            </trkpt>
            <trkpt lon="10.61426" lat="47.4912783333333">
                <ele>1481.0</ele>
                <time>2009-08-25T07:39:26.000Z</time>
                <name>Position 807</name>
            </trkpt>
            <trkpt lon="10.61426" lat="47.4912783333333">
                <ele>1481.0</ele>
                <time>2009-08-25T07:39:29.000Z</time>
                <name>Position 808</name>
            </trkpt>
            <trkpt lon="10.61426" lat="47.4912766666667">
                <ele>1481.0</ele>
                <time>2009-08-25T07:39:32.000Z</time>
                <name>Position 809</name>
            </trkpt>
            <trkpt lon="10.6142616666667" lat="47.4912766666667">
                <ele>1481.0</ele>
                <time>2009-08-25T07:39:35.000Z</time>
                <name>Position 810</name>
            </trkpt>
            <trkpt lon="10.6142616666667" lat="47.491275">
                <ele>1481.0</ele>
                <time>2009-08-25T07:39:38.000Z</time>
                <name>Position 811</name>
            </trkpt>
            <trkpt lon="10.6142633333333" lat="47.491275">
                <ele>1481.0</ele>
                <time>2009-08-25T07:39:41.000Z</time>
                <name>Position 812</name>
            </trkpt>
            <trkpt lon="10.614265" lat="47.491275">
                <ele>1481.0</ele>
                <time>2009-08-25T07:39:44.000Z</time>
                <name>Position 813</name>
            </trkpt>
            <trkpt lon="10.6142633333333" lat="47.4912733333333">
                <ele>1481.0</ele>
                <time>2009-08-25T07:39:47.000Z</time>
                <name>Position 814</name>
            </trkpt>
            <trkpt lon="10.6142633333333" lat="47.4912733333333">
                <ele>1481.0</ele>
                <time>2009-08-25T07:39:50.000Z</time>
                <name>Position 815</name>
            </trkpt>
            <trkpt lon="10.6142633333333" lat="47.4912716666667">
                <ele>1480.9</ele>
                <time>2009-08-25T07:39:53.000Z</time>
                <name>Position 816</name>
            </trkpt>
            <trkpt lon="10.6142633333333" lat="47.4912716666667">
                <ele>1480.7</ele>
                <time>2009-08-25T07:39:56.000Z</time>
                <name>Position 817</name>
            </trkpt>
            <trkpt lon="10.614265" lat="47.49127">
                <ele>1480.5</ele>
                <time>2009-08-25T07:39:59.000Z</time>
                <name>Position 818</name>
            </trkpt>
            <trkpt lon="10.614265" lat="47.49127">
                <ele>1480.4</ele>
                <time>2009-08-25T07:40:02.000Z</time>
                <name>Position 819</name>
            </trkpt>
            <trkpt lon="10.614265" lat="47.49127">
                <ele>1480.3</ele>
                <time>2009-08-25T07:40:05.000Z</time>
                <name>Position 820</name>
            </trkpt>
            <trkpt lon="10.614265" lat="47.49127">
                <ele>1480.2</ele>
                <time>2009-08-25T07:40:08.000Z</time>
                <name>Position 821</name>
            </trkpt>
            <trkpt lon="10.6142666666667" lat="47.49127">
                <ele>1480.0</ele>
                <time>2009-08-25T07:40:11.000Z</time>
                <name>Position 822</name>
            </trkpt>
            <trkpt lon="10.6142666666667" lat="47.4912716666667">
                <ele>1479.9</ele>
                <time>2009-08-25T07:40:14.000Z</time>
                <name>Position 823</name>
            </trkpt>
            <trkpt lon="10.6142683333333" lat="47.4912716666667">
                <ele>1479.8</ele>
                <time>2009-08-25T07:40:17.000Z</time>
                <name>Position 824</name>
            </trkpt>
            <trkpt lon="10.61427" lat="47.4912733333333">
                <ele>1479.7</ele>
                <time>2009-08-25T07:40:20.000Z</time>
                <name>Position 825</name>
            </trkpt>
            <trkpt lon="10.61427" lat="47.4912733333333">
                <ele>1479.7</ele>
                <time>2009-08-25T07:40:23.000Z</time>
                <name>Position 826</name>
            </trkpt>
            <trkpt lon="10.6142716666667" lat="47.491275">
                <ele>1479.6</ele>
                <time>2009-08-25T07:40:26.000Z</time>
                <name>Position 827</name>
            </trkpt>
            <trkpt lon="10.6142716666667" lat="47.491275">
                <ele>1479.6</ele>
                <time>2009-08-25T07:40:29.000Z</time>
                <name>Position 828</name>
            </trkpt>
            <trkpt lon="10.6142733333333" lat="47.4912766666667">
                <ele>1479.6</ele>
                <time>2009-08-25T07:40:32.000Z</time>
                <name>Position 829</name>
            </trkpt>
            <trkpt lon="10.6142733333333" lat="47.4912783333333">
                <ele>1479.6</ele>
                <time>2009-08-25T07:40:35.000Z</time>
                <name>Position 830</name>
            </trkpt>
            <trkpt lon="10.614275" lat="47.4912783333333">
                <ele>1479.6</ele>
                <time>2009-08-25T07:40:38.000Z</time>
                <name>Position 831</name>
            </trkpt>
            <trkpt lon="10.614275" lat="47.4912783333333">
                <ele>1479.6</ele>
                <time>2009-08-25T07:40:41.000Z</time>
                <name>Position 832</name>
            </trkpt>
            <trkpt lon="10.614275" lat="47.4912783333333">
                <ele>1479.6</ele>
                <time>2009-08-25T07:40:44.000Z</time>
                <name>Position 833</name>
            </trkpt>
            <trkpt lon="10.614275" lat="47.4912783333333">
                <ele>1479.6</ele>
                <time>2009-08-25T07:40:47.000Z</time>
                <name>Position 834</name>
            </trkpt>
            <trkpt lon="10.614275" lat="47.4912783333333">
                <ele>1479.6</ele>
                <time>2009-08-25T07:40:50.000Z</time>
                <name>Position 835</name>
            </trkpt>
            <trkpt lon="10.614275" lat="47.4912783333333">
                <ele>1479.6</ele>
                <time>2009-08-25T07:40:53.000Z</time>
                <name>Position 836</name>
            </trkpt>
            <trkpt lon="10.6142633333333" lat="47.4912766666667">
                <ele>1479.8</ele>
                <time>2009-08-25T07:40:56.000Z</time>
                <name>Position 837</name>
            </trkpt>
            <trkpt lon="10.6142366666667" lat="47.491285">
                <ele>1480.5</ele>
                <time>2009-08-25T07:40:59.000Z</time>
                <name>Position 838</name>
            </trkpt>
            <trkpt lon="10.614205" lat="47.4912933333333">
                <ele>1481.9</ele>
                <time>2009-08-25T07:41:02.000Z</time>
                <name>Position 839</name>
            </trkpt>
            <trkpt lon="10.6141666666667" lat="47.491305">
                <ele>1483.0</ele>
                <time>2009-08-25T07:41:05.000Z</time>
                <name>Position 840</name>
            </trkpt>
            <trkpt lon="10.6141316666667" lat="47.4913133333333">
                <ele>1484.3</ele>
                <time>2009-08-25T07:41:08.000Z</time>
                <name>Position 841</name>
            </trkpt>
            <trkpt lon="10.614095" lat="47.4913233333333">
                <ele>1485.7</ele>
                <time>2009-08-25T07:41:11.000Z</time>
                <name>Position 842</name>
            </trkpt>
            <trkpt lon="10.6140583333333" lat="47.49133">
                <ele>1487.0</ele>
                <time>2009-08-25T07:41:14.000Z</time>
                <name>Position 843</name>
            </trkpt>
            <trkpt lon="10.614035" lat="47.4913316666667">
                <ele>1487.9</ele>
                <time>2009-08-25T07:41:17.000Z</time>
                <name>Position 844</name>
            </trkpt>
            <trkpt lon="10.6140033333333" lat="47.4913516666667">
                <ele>1488.3</ele>
                <time>2009-08-25T07:41:20.000Z</time>
                <name>Position 845</name>
            </trkpt>
            <trkpt lon="10.613965" lat="47.4913633333333">
                <ele>1489.1</ele>
                <time>2009-08-25T07:41:23.000Z</time>
                <name>Position 846</name>
            </trkpt>
            <trkpt lon="10.61393" lat="47.4913766666667">
                <ele>1489.8</ele>
                <time>2009-08-25T07:41:26.000Z</time>
                <name>Position 847</name>
            </trkpt>
            <trkpt lon="10.613905" lat="47.49139">
                <ele>1490.5</ele>
                <time>2009-08-25T07:41:29.000Z</time>
                <name>Position 848</name>
            </trkpt>
            <trkpt lon="10.6139033333333" lat="47.4914066666667">
                <ele>1492.0</ele>
                <time>2009-08-25T07:41:32.000Z</time>
                <name>Position 849</name>
            </trkpt>
            <trkpt lon="10.613885" lat="47.4914266666667">
                <ele>1493.2</ele>
                <time>2009-08-25T07:41:35.000Z</time>
                <name>Position 850</name>
            </trkpt>
            <trkpt lon="10.613855" lat="47.4914383333333">
                <ele>1494.6</ele>
                <time>2009-08-25T07:41:38.000Z</time>
                <name>Position 851</name>
            </trkpt>
            <trkpt lon="10.6138383333333" lat="47.491455">
                <ele>1495.5</ele>
                <time>2009-08-25T07:41:41.000Z</time>
                <name>Position 852</name>
            </trkpt>
            <trkpt lon="10.6138216666667" lat="47.49147">
                <ele>1497.1</ele>
                <time>2009-08-25T07:41:44.000Z</time>
                <name>Position 853</name>
            </trkpt>
            <trkpt lon="10.6137966666667" lat="47.4914816666667">
                <ele>1498.6</ele>
                <time>2009-08-25T07:41:47.000Z</time>
                <name>Position 854</name>
            </trkpt>
            <trkpt lon="10.61377" lat="47.4914916666667">
                <ele>1499.1</ele>
                <time>2009-08-25T07:41:50.000Z</time>
                <name>Position 855</name>
            </trkpt>
            <trkpt lon="10.613745" lat="47.491505">
                <ele>1500.3</ele>
                <time>2009-08-25T07:41:53.000Z</time>
                <name>Position 856</name>
            </trkpt>
            <trkpt lon="10.6137066666667" lat="47.4915216666667">
                <ele>1501.4</ele>
                <time>2009-08-25T07:41:56.000Z</time>
                <name>Position 857</name>
            </trkpt>
            <trkpt lon="10.6136666666667" lat="47.49153">
                <ele>1502.6</ele>
                <time>2009-08-25T07:41:59.000Z</time>
                <name>Position 858</name>
            </trkpt>
            <trkpt lon="10.6136366666667" lat="47.4915433333333">
                <ele>1503.0</ele>
                <time>2009-08-25T07:42:02.000Z</time>
                <name>Position 859</name>
            </trkpt>
            <trkpt lon="10.6136216666667" lat="47.4915666666667">
                <ele>1504.5</ele>
                <time>2009-08-25T07:42:05.000Z</time>
                <name>Position 860</name>
            </trkpt>
            <trkpt lon="10.6136133333333" lat="47.491585">
                <ele>1505.5</ele>
                <time>2009-08-25T07:42:08.000Z</time>
                <name>Position 861</name>
            </trkpt>
            <trkpt lon="10.613585" lat="47.4916016666667">
                <ele>1506.5</ele>
                <time>2009-08-25T07:42:11.000Z</time>
                <name>Position 862</name>
            </trkpt>
            <trkpt lon="10.61358" lat="47.49161">
                <ele>1505.1</ele>
                <time>2009-08-25T07:42:14.000Z</time>
                <name>Position 863</name>
            </trkpt>
            <trkpt lon="10.613585" lat="47.4916083333333">
                <ele>1504.7</ele>
                <time>2009-08-25T07:42:17.000Z</time>
                <name>Position 864</name>
            </trkpt>
            <trkpt lon="10.6135833333333" lat="47.4916083333333">
                <ele>1504.7</ele>
                <time>2009-08-25T07:42:20.000Z</time>
                <name>Position 865</name>
            </trkpt>
            <trkpt lon="10.6135983333333" lat="47.491605">
                <ele>1503.3</ele>
                <time>2009-08-25T07:42:23.000Z</time>
                <name>Position 866</name>
            </trkpt>
            <trkpt lon="10.6136416666667" lat="47.4915983333333">
                <ele>1502.1</ele>
                <time>2009-08-25T07:42:26.000Z</time>
                <name>Position 867</name>
            </trkpt>
            <trkpt lon="10.6136833333333" lat="47.4915933333333">
                <ele>1501.6</ele>
                <time>2009-08-25T07:42:29.000Z</time>
                <name>Position 868</name>
            </trkpt>
            <trkpt lon="10.6137183333333" lat="47.49159">
                <ele>1501.4</ele>
                <time>2009-08-25T07:42:32.000Z</time>
                <name>Position 869</name>
            </trkpt>
            <trkpt lon="10.6137383333333" lat="47.4915916666667">
                <ele>1501.6</ele>
                <time>2009-08-25T07:42:35.000Z</time>
                <name>Position 870</name>
            </trkpt>
            <trkpt lon="10.6137616666667" lat="47.4915933333333">
                <ele>1502.0</ele>
                <time>2009-08-25T07:42:38.000Z</time>
                <name>Position 871</name>
            </trkpt>
            <trkpt lon="10.6137466666667" lat="47.49161">
                <ele>1502.5</ele>
                <time>2009-08-25T07:42:41.000Z</time>
                <name>Position 872</name>
            </trkpt>
            <trkpt lon="10.6137283333333" lat="47.4916266666667">
                <ele>1503.4</ele>
                <time>2009-08-25T07:42:44.000Z</time>
                <name>Position 873</name>
            </trkpt>
            <trkpt lon="10.6137016666667" lat="47.4916416666667">
                <ele>1504.5</ele>
                <time>2009-08-25T07:42:47.000Z</time>
                <name>Position 874</name>
            </trkpt>
            <trkpt lon="10.6136883333333" lat="47.4916516666667">
                <ele>1505.8</ele>
                <time>2009-08-25T07:42:50.000Z</time>
                <name>Position 875</name>
            </trkpt>
            <trkpt lon="10.6136816666667" lat="47.4916733333333">
                <ele>1506.3</ele>
                <time>2009-08-25T07:42:53.000Z</time>
                <name>Position 876</name>
            </trkpt>
            <trkpt lon="10.6136816666667" lat="47.4916883333333">
                <ele>1506.8</ele>
                <time>2009-08-25T07:42:56.000Z</time>
                <name>Position 877</name>
            </trkpt>
            <trkpt lon="10.6137033333333" lat="47.4917">
                <ele>1506.8</ele>
                <time>2009-08-25T07:42:59.000Z</time>
                <name>Position 878</name>
            </trkpt>
            <trkpt lon="10.61373" lat="47.4916983333333">
                <ele>1506.8</ele>
                <time>2009-08-25T07:43:02.000Z</time>
                <name>Position 879</name>
            </trkpt>
            <trkpt lon="10.6137566666667" lat="47.4916983333333">
                <ele>1507.2</ele>
                <time>2009-08-25T07:43:05.000Z</time>
                <name>Position 880</name>
            </trkpt>
            <trkpt lon="10.6137916666667" lat="47.4916966666667">
                <ele>1507.2</ele>
                <time>2009-08-25T07:43:08.000Z</time>
                <name>Position 881</name>
            </trkpt>
            <trkpt lon="10.613825" lat="47.4916933333333">
                <ele>1507.4</ele>
                <time>2009-08-25T07:43:11.000Z</time>
                <name>Position 882</name>
            </trkpt>
            <trkpt lon="10.613855" lat="47.4917016666667">
                <ele>1507.9</ele>
                <time>2009-08-25T07:43:14.000Z</time>
                <name>Position 883</name>
            </trkpt>
            <trkpt lon="10.6138783333333" lat="47.4917033333333">
                <ele>1508.6</ele>
                <time>2009-08-25T07:43:17.000Z</time>
                <name>Position 884</name>
            </trkpt>
            <trkpt lon="10.6139083333333" lat="47.49171">
                <ele>1508.7</ele>
                <time>2009-08-25T07:43:20.000Z</time>
                <name>Position 885</name>
            </trkpt>
            <trkpt lon="10.613935" lat="47.4917116666667">
                <ele>1509.2</ele>
                <time>2009-08-25T07:43:23.000Z</time>
                <name>Position 886</name>
            </trkpt>
            <trkpt lon="10.6139583333333" lat="47.4917116666667">
                <ele>1509.5</ele>
                <time>2009-08-25T07:43:26.000Z</time>
                <name>Position 887</name>
            </trkpt>
            <trkpt lon="10.6139683333333" lat="47.4917083333333">
                <ele>1509.5</ele>
                <time>2009-08-25T07:43:29.000Z</time>
                <name>Position 888</name>
            </trkpt>
            <trkpt lon="10.6139666666667" lat="47.49171">
                <ele>1510.0</ele>
                <time>2009-08-25T07:43:32.000Z</time>
                <name>Position 889</name>
            </trkpt>
            <trkpt lon="10.6139616666667" lat="47.4917116666667">
                <ele>1510.2</ele>
                <time>2009-08-25T07:43:35.000Z</time>
                <name>Position 890</name>
            </trkpt>
            <trkpt lon="10.6139616666667" lat="47.4917133333333">
                <ele>1510.1</ele>
                <time>2009-08-25T07:43:38.000Z</time>
                <name>Position 891</name>
            </trkpt>
            <trkpt lon="10.6139616666667" lat="47.491715">
                <ele>1510.1</ele>
                <time>2009-08-25T07:43:41.000Z</time>
                <name>Position 892</name>
            </trkpt>
            <trkpt lon="10.6139616666667" lat="47.491715">
                <ele>1510.0</ele>
                <time>2009-08-25T07:43:44.000Z</time>
                <name>Position 893</name>
            </trkpt>
            <trkpt lon="10.6139616666667" lat="47.4917133333333">
                <ele>1509.9</ele>
                <time>2009-08-25T07:43:47.000Z</time>
                <name>Position 894</name>
            </trkpt>
            <trkpt lon="10.6139616666667" lat="47.4917133333333">
                <ele>1509.9</ele>
                <time>2009-08-25T07:43:50.000Z</time>
                <name>Position 895</name>
            </trkpt>
            <trkpt lon="10.6139633333333" lat="47.4917133333333">
                <ele>1509.9</ele>
                <time>2009-08-25T07:43:53.000Z</time>
                <name>Position 896</name>
            </trkpt>
            <trkpt lon="10.6139666666667" lat="47.4917116666667">
                <ele>1509.9</ele>
                <time>2009-08-25T07:43:56.000Z</time>
                <name>Position 897</name>
            </trkpt>
            <trkpt lon="10.6139666666667" lat="47.4917116666667">
                <ele>1509.9</ele>
                <time>2009-08-25T07:43:59.000Z</time>
                <name>Position 898</name>
            </trkpt>
            <trkpt lon="10.61398" lat="47.49171">
                <ele>1510.0</ele>
                <time>2009-08-25T07:44:02.000Z</time>
                <name>Position 899</name>
            </trkpt>
            <trkpt lon="10.6140133333333" lat="47.4917183333333">
                <ele>1510.4</ele>
                <time>2009-08-25T07:44:05.000Z</time>
                <name>Position 900</name>
            </trkpt>
            <trkpt lon="10.6140466666667" lat="47.491725">
                <ele>1511.3</ele>
                <time>2009-08-25T07:44:08.000Z</time>
                <name>Position 901</name>
            </trkpt>
            <trkpt lon="10.6140783333333" lat="47.4917233333333">
                <ele>1511.8</ele>
                <time>2009-08-25T07:44:11.000Z</time>
                <name>Position 902</name>
            </trkpt>
            <trkpt lon="10.6141066666667" lat="47.491725">
                <ele>1512.2</ele>
                <time>2009-08-25T07:44:14.000Z</time>
                <name>Position 903</name>
            </trkpt>
            <trkpt lon="10.6141233333333" lat="47.4917416666667">
                <ele>1512.7</ele>
                <time>2009-08-25T07:44:17.000Z</time>
                <name>Position 904</name>
            </trkpt>
            <trkpt lon="10.614155" lat="47.4917516666667">
                <ele>1513.6</ele>
                <time>2009-08-25T07:44:20.000Z</time>
                <name>Position 905</name>
            </trkpt>
            <trkpt lon="10.6141816666667" lat="47.4917616666667">
                <ele>1514.2</ele>
                <time>2009-08-25T07:44:23.000Z</time>
                <name>Position 906</name>
            </trkpt>
            <trkpt lon="10.6142083333333" lat="47.4917716666667">
                <ele>1514.8</ele>
                <time>2009-08-25T07:44:26.000Z</time>
                <name>Position 907</name>
            </trkpt>
            <trkpt lon="10.6142366666667" lat="47.4917833333333">
                <ele>1515.9</ele>
                <time>2009-08-25T07:44:29.000Z</time>
                <name>Position 908</name>
            </trkpt>
            <trkpt lon="10.614265" lat="47.4917916666667">
                <ele>1516.4</ele>
                <time>2009-08-25T07:44:32.000Z</time>
                <name>Position 909</name>
            </trkpt>
            <trkpt lon="10.6142866666667" lat="47.4918083333333">
                <ele>1517.5</ele>
                <time>2009-08-25T07:44:35.000Z</time>
                <name>Position 910</name>
            </trkpt>
            <trkpt lon="10.61431" lat="47.4918233333333">
                <ele>1518.4</ele>
                <time>2009-08-25T07:44:38.000Z</time>
                <name>Position 911</name>
            </trkpt>
            <trkpt lon="10.6143383333333" lat="47.4918366666667">
                <ele>1519.1</ele>
                <time>2009-08-25T07:44:41.000Z</time>
                <name>Position 912</name>
            </trkpt>
            <trkpt lon="10.61437" lat="47.4918383333333">
                <ele>1519.7</ele>
                <time>2009-08-25T07:44:44.000Z</time>
                <name>Position 913</name>
            </trkpt>
            <trkpt lon="10.6143866666667" lat="47.491855">
                <ele>1520.7</ele>
                <time>2009-08-25T07:44:47.000Z</time>
                <name>Position 914</name>
            </trkpt>
            <trkpt lon="10.6144116666667" lat="47.4918633333333">
                <ele>1521.3</ele>
                <time>2009-08-25T07:44:50.000Z</time>
                <name>Position 915</name>
            </trkpt>
            <trkpt lon="10.61444" lat="47.4918766666667">
                <ele>1521.9</ele>
                <time>2009-08-25T07:44:53.000Z</time>
                <name>Position 916</name>
            </trkpt>
            <trkpt lon="10.6144566666667" lat="47.4918883333333">
                <ele>1522.6</ele>
                <time>2009-08-25T07:44:56.000Z</time>
                <name>Position 917</name>
            </trkpt>
            <trkpt lon="10.6144733333333" lat="47.4919016666667">
                <ele>1523.7</ele>
                <time>2009-08-25T07:44:59.000Z</time>
                <name>Position 918</name>
            </trkpt>
            <trkpt lon="10.614495" lat="47.4919133333333">
                <ele>1524.8</ele>
                <time>2009-08-25T07:45:02.000Z</time>
                <name>Position 919</name>
            </trkpt>
            <trkpt lon="10.6145283333333" lat="47.4919133333333">
                <ele>1524.9</ele>
                <time>2009-08-25T07:45:05.000Z</time>
                <name>Position 920</name>
            </trkpt>
            <trkpt lon="10.6145533333333" lat="47.49192">
                <ele>1525.6</ele>
                <time>2009-08-25T07:45:08.000Z</time>
                <name>Position 921</name>
            </trkpt>
            <trkpt lon="10.614585" lat="47.49193">
                <ele>1526.3</ele>
                <time>2009-08-25T07:45:11.000Z</time>
                <name>Position 922</name>
            </trkpt>
            <trkpt lon="10.6145983333333" lat="47.4919383333333">
                <ele>1526.8</ele>
                <time>2009-08-25T07:45:14.000Z</time>
                <name>Position 923</name>
            </trkpt>
            <trkpt lon="10.614585" lat="47.4919416666667">
                <ele>1527.1</ele>
                <time>2009-08-25T07:45:17.000Z</time>
                <name>Position 924</name>
            </trkpt>
            <trkpt lon="10.614555" lat="47.49195">
                <ele>1527.5</ele>
                <time>2009-08-25T07:45:20.000Z</time>
                <name>Position 925</name>
            </trkpt>
            <trkpt lon="10.6145233333333" lat="47.4919583333333">
                <ele>1528.0</ele>
                <time>2009-08-25T07:45:23.000Z</time>
                <name>Position 926</name>
            </trkpt>
            <trkpt lon="10.614495" lat="47.4919583333333">
                <ele>1528.9</ele>
                <time>2009-08-25T07:45:26.000Z</time>
                <name>Position 927</name>
            </trkpt>
            <trkpt lon="10.6144766666667" lat="47.4919566666667">
                <ele>1529.0</ele>
                <time>2009-08-25T07:45:29.000Z</time>
                <name>Position 928</name>
            </trkpt>
            <trkpt lon="10.6144583333333" lat="47.4919633333333">
                <ele>1530.0</ele>
                <time>2009-08-25T07:45:32.000Z</time>
                <name>Position 929</name>
            </trkpt>
            <trkpt lon="10.6144516666667" lat="47.49197">
                <ele>1530.5</ele>
                <time>2009-08-25T07:45:35.000Z</time>
                <name>Position 930</name>
            </trkpt>
            <trkpt lon="10.6144316666667" lat="47.4919816666667">
                <ele>1530.7</ele>
                <time>2009-08-25T07:45:38.000Z</time>
                <name>Position 931</name>
            </trkpt>
            <trkpt lon="10.6144116666667" lat="47.491985">
                <ele>1531.1</ele>
                <time>2009-08-25T07:45:41.000Z</time>
                <name>Position 932</name>
            </trkpt>
            <trkpt lon="10.6143883333333" lat="47.4919883333333">
                <ele>1531.4</ele>
                <time>2009-08-25T07:45:44.000Z</time>
                <name>Position 933</name>
            </trkpt>
            <trkpt lon="10.6143616666667" lat="47.491995">
                <ele>1532.1</ele>
                <time>2009-08-25T07:45:47.000Z</time>
                <name>Position 934</name>
            </trkpt>
            <trkpt lon="10.61433" lat="47.4919983333333">
                <ele>1535.7</ele>
                <time>2009-08-25T07:45:50.000Z</time>
                <name>Position 935</name>
            </trkpt>
            <trkpt lon="10.6143216666667" lat="47.4920033333333">
                <ele>1536.8</ele>
                <time>2009-08-25T07:45:53.000Z</time>
                <name>Position 936</name>
            </trkpt>
            <trkpt lon="10.6143233333333" lat="47.492005">
                <ele>1537.4</ele>
                <time>2009-08-25T07:45:56.000Z</time>
                <name>Position 937</name>
            </trkpt>
            <trkpt lon="10.614325" lat="47.4920066666667">
                <ele>1537.8</ele>
                <time>2009-08-25T07:45:59.000Z</time>
                <name>Position 938</name>
            </trkpt>
            <trkpt lon="10.6143266666667" lat="47.49201">
                <ele>1538.0</ele>
                <time>2009-08-25T07:46:02.000Z</time>
                <name>Position 939</name>
            </trkpt>
            <trkpt lon="10.61433" lat="47.4920083333333">
                <ele>1537.9</ele>
                <time>2009-08-25T07:46:05.000Z</time>
                <name>Position 940</name>
            </trkpt>
            <trkpt lon="10.61433" lat="47.4920083333333">
                <ele>1537.9</ele>
                <time>2009-08-25T07:46:08.000Z</time>
                <name>Position 941</name>
            </trkpt>
            <trkpt lon="10.6143316666667" lat="47.4920083333333">
                <ele>1537.9</ele>
                <time>2009-08-25T07:46:11.000Z</time>
                <name>Position 942</name>
            </trkpt>
            <trkpt lon="10.6143183333333" lat="47.492015">
                <ele>1537.9</ele>
                <time>2009-08-25T07:46:14.000Z</time>
                <name>Position 943</name>
            </trkpt>
            <trkpt lon="10.6143116666667" lat="47.49201">
                <ele>1537.9</ele>
                <time>2009-08-25T07:46:17.000Z</time>
                <name>Position 944</name>
            </trkpt>
            <trkpt lon="10.6143083333333" lat="47.49201">
                <ele>1537.8</ele>
                <time>2009-08-25T07:46:20.000Z</time>
                <name>Position 945</name>
            </trkpt>
            <trkpt lon="10.6143116666667" lat="47.4920066666667">
                <ele>1537.7</ele>
                <time>2009-08-25T07:46:23.000Z</time>
                <name>Position 946</name>
            </trkpt>
            <trkpt lon="10.614315" lat="47.4920066666667">
                <ele>1537.7</ele>
                <time>2009-08-25T07:46:26.000Z</time>
                <name>Position 947</name>
            </trkpt>
            <trkpt lon="10.6143133333333" lat="47.4920066666667">
                <ele>1537.7</ele>
                <time>2009-08-25T07:46:29.000Z</time>
                <name>Position 948</name>
            </trkpt>
            <trkpt lon="10.6143133333333" lat="47.4920066666667">
                <ele>1537.7</ele>
                <time>2009-08-25T07:46:32.000Z</time>
                <name>Position 949</name>
            </trkpt>
            <trkpt lon="10.6143133333333" lat="47.4920066666667">
                <ele>1537.7</ele>
                <time>2009-08-25T07:46:35.000Z</time>
                <name>Position 950</name>
            </trkpt>
            <trkpt lon="10.6143133333333" lat="47.4920066666667">
                <ele>1537.7</ele>
                <time>2009-08-25T07:46:38.000Z</time>
                <name>Position 951</name>
            </trkpt>
            <trkpt lon="10.6143166666667" lat="47.492005">
                <ele>1537.7</ele>
                <time>2009-08-25T07:46:41.000Z</time>
                <name>Position 952</name>
            </trkpt>
            <trkpt lon="10.614305" lat="47.492005">
                <ele>1538.0</ele>
                <time>2009-08-25T07:46:44.000Z</time>
                <name>Position 953</name>
            </trkpt>
            <trkpt lon="10.6143033333333" lat="47.492005">
                <ele>1538.2</ele>
                <time>2009-08-25T07:46:47.000Z</time>
                <name>Position 954</name>
            </trkpt>
            <trkpt lon="10.6143033333333" lat="47.492005">
                <ele>1538.2</ele>
                <time>2009-08-25T07:46:50.000Z</time>
                <name>Position 955</name>
            </trkpt>
            <trkpt lon="10.6143033333333" lat="47.4920033333333">
                <ele>1538.2</ele>
                <time>2009-08-25T07:46:53.000Z</time>
                <name>Position 956</name>
            </trkpt>
            <trkpt lon="10.6143033333333" lat="47.4920033333333">
                <ele>1538.2</ele>
                <time>2009-08-25T07:46:56.000Z</time>
                <name>Position 957</name>
            </trkpt>
            <trkpt lon="10.614305" lat="47.492005">
                <ele>1538.1</ele>
                <time>2009-08-25T07:46:59.000Z</time>
                <name>Position 958</name>
            </trkpt>
            <trkpt lon="10.6143016666667" lat="47.4920083333333">
                <ele>1537.7</ele>
                <time>2009-08-25T07:47:02.000Z</time>
                <name>Position 959</name>
            </trkpt>
            <trkpt lon="10.6143" lat="47.4920083333333">
                <ele>1537.8</ele>
                <time>2009-08-25T07:47:05.000Z</time>
                <name>Position 960</name>
            </trkpt>
            <trkpt lon="10.6143016666667" lat="47.4920083333333">
                <ele>1537.8</ele>
                <time>2009-08-25T07:47:08.000Z</time>
                <name>Position 961</name>
            </trkpt>
            <trkpt lon="10.6143033333333" lat="47.4920083333333">
                <ele>1537.7</ele>
                <time>2009-08-25T07:47:11.000Z</time>
                <name>Position 962</name>
            </trkpt>
            <trkpt lon="10.6143033333333" lat="47.4920083333333">
                <ele>1537.8</ele>
                <time>2009-08-25T07:47:14.000Z</time>
                <name>Position 963</name>
            </trkpt>
            <trkpt lon="10.6142916666667" lat="47.4920083333333">
                <ele>1538.1</ele>
                <time>2009-08-25T07:47:17.000Z</time>
                <name>Position 964</name>
            </trkpt>
            <trkpt lon="10.6142866666667" lat="47.4920016666667">
                <ele>1538.5</ele>
                <time>2009-08-25T07:47:20.000Z</time>
                <name>Position 965</name>
            </trkpt>
            <trkpt lon="10.6142833333333" lat="47.4919966666667">
                <ele>1538.8</ele>
                <time>2009-08-25T07:47:23.000Z</time>
                <name>Position 966</name>
            </trkpt>
            <trkpt lon="10.6142816666667" lat="47.49199">
                <ele>1538.8</ele>
                <time>2009-08-25T07:47:26.000Z</time>
                <name>Position 967</name>
            </trkpt>
            <trkpt lon="10.6142833333333" lat="47.4919866666667">
                <ele>1538.8</ele>
                <time>2009-08-25T07:47:29.000Z</time>
                <name>Position 968</name>
            </trkpt>
            <trkpt lon="10.6142816666667" lat="47.4919866666667">
                <ele>1538.8</ele>
                <time>2009-08-25T07:47:32.000Z</time>
                <name>Position 969</name>
            </trkpt>
            <trkpt lon="10.6142833333333" lat="47.4919883333333">
                <ele>1538.7</ele>
                <time>2009-08-25T07:47:35.000Z</time>
                <name>Position 970</name>
            </trkpt>
            <trkpt lon="10.6142833333333" lat="47.4919916666667">
                <ele>1538.7</ele>
                <time>2009-08-25T07:47:38.000Z</time>
                <name>Position 971</name>
            </trkpt>
            <trkpt lon="10.614285" lat="47.49199">
                <ele>1538.7</ele>
                <time>2009-08-25T07:47:41.000Z</time>
                <name>Position 972</name>
            </trkpt>
            <trkpt lon="10.614285" lat="47.4919883333333">
                <ele>1538.7</ele>
                <time>2009-08-25T07:47:44.000Z</time>
                <name>Position 973</name>
            </trkpt>
            <trkpt lon="10.614285" lat="47.4919883333333">
                <ele>1538.7</ele>
                <time>2009-08-25T07:47:47.000Z</time>
                <name>Position 974</name>
            </trkpt>
            <trkpt lon="10.614285" lat="47.4919883333333">
                <ele>1538.7</ele>
                <time>2009-08-25T07:47:50.000Z</time>
                <name>Position 975</name>
            </trkpt>
            <trkpt lon="10.614285" lat="47.4919883333333">
                <ele>1538.7</ele>
                <time>2009-08-25T07:47:53.000Z</time>
                <name>Position 976</name>
            </trkpt>
            <trkpt lon="10.614285" lat="47.4919883333333">
                <ele>1538.7</ele>
                <time>2009-08-25T07:47:56.000Z</time>
                <name>Position 977</name>
            </trkpt>
            <trkpt lon="10.614285" lat="47.4919883333333">
                <ele>1538.7</ele>
                <time>2009-08-25T07:47:59.000Z</time>
                <name>Position 978</name>
            </trkpt>
            <trkpt lon="10.614285" lat="47.4919833333333">
                <ele>1538.8</ele>
                <time>2009-08-25T07:48:02.000Z</time>
                <name>Position 979</name>
            </trkpt>
            <trkpt lon="10.6142833333333" lat="47.4919816666667">
                <ele>1539.1</ele>
                <time>2009-08-25T07:48:05.000Z</time>
                <name>Position 980</name>
            </trkpt>
            <trkpt lon="10.6142816666667" lat="47.4919816666667">
                <ele>1539.6</ele>
                <time>2009-08-25T07:48:08.000Z</time>
                <name>Position 981</name>
            </trkpt>
            <trkpt lon="10.6142833333333" lat="47.4919816666667">
                <ele>1539.9</ele>
                <time>2009-08-25T07:48:11.000Z</time>
                <name>Position 982</name>
            </trkpt>
            <trkpt lon="10.6142833333333" lat="47.49198">
                <ele>1540.0</ele>
                <time>2009-08-25T07:48:14.000Z</time>
                <name>Position 983</name>
            </trkpt>
            <trkpt lon="10.6142833333333" lat="47.49198">
                <ele>1540.0</ele>
                <time>2009-08-25T07:48:17.000Z</time>
                <name>Position 984</name>
            </trkpt>
            <trkpt lon="10.6142833333333" lat="47.49198">
                <ele>1540.0</ele>
                <time>2009-08-25T07:48:20.000Z</time>
                <name>Position 985</name>
            </trkpt>
            <trkpt lon="10.6142833333333" lat="47.49198">
                <ele>1540.0</ele>
                <time>2009-08-25T07:48:23.000Z</time>
                <name>Position 986</name>
            </trkpt>
            <trkpt lon="10.6142833333333" lat="47.4919816666667">
                <ele>1540.1</ele>
                <time>2009-08-25T07:48:26.000Z</time>
                <name>Position 987</name>
            </trkpt>
            <trkpt lon="10.614285" lat="47.4919816666667">
                <ele>1540.1</ele>
                <time>2009-08-25T07:48:29.000Z</time>
                <name>Position 988</name>
            </trkpt>
            <trkpt lon="10.614285" lat="47.491985">
                <ele>1539.7</ele>
                <time>2009-08-25T07:48:32.000Z</time>
                <name>Position 989</name>
            </trkpt>
            <trkpt lon="10.6142833333333" lat="47.4919833333333">
                <ele>1539.1</ele>
                <time>2009-08-25T07:48:35.000Z</time>
                <name>Position 990</name>
            </trkpt>
            <trkpt lon="10.6142816666667" lat="47.491985">
                <ele>1538.8</ele>
                <time>2009-08-25T07:48:38.000Z</time>
                <name>Position 991</name>
            </trkpt>
            <trkpt lon="10.6142816666667" lat="47.4919866666667">
                <ele>1538.6</ele>
                <time>2009-08-25T07:48:41.000Z</time>
                <name>Position 992</name>
            </trkpt>
            <trkpt lon="10.61428" lat="47.4919866666667">
                <ele>1538.6</ele>
                <time>2009-08-25T07:48:44.000Z</time>
                <name>Position 993</name>
            </trkpt>
            <trkpt lon="10.6142816666667" lat="47.491985">
                <ele>1538.5</ele>
                <time>2009-08-25T07:48:47.000Z</time>
                <name>Position 994</name>
            </trkpt>
            <trkpt lon="10.6142816666667" lat="47.491985">
                <ele>1538.3</ele>
                <time>2009-08-25T07:48:50.000Z</time>
                <name>Position 995</name>
            </trkpt>
            <trkpt lon="10.6142833333333" lat="47.491985">
                <ele>1538.0</ele>
                <time>2009-08-25T07:48:53.000Z</time>
                <name>Position 996</name>
            </trkpt>
            <trkpt lon="10.6142866666667" lat="47.491985">
                <ele>1537.8</ele>
                <time>2009-08-25T07:48:56.000Z</time>
                <name>Position 997</name>
            </trkpt>
            <trkpt lon="10.6142683333333" lat="47.49199">
                <ele>1538.0</ele>
                <time>2009-08-25T07:48:59.000Z</time>
                <name>Position 998</name>
            </trkpt>
            <trkpt lon="10.6142466666667" lat="47.492">
                <ele>1538.4</ele>
                <time>2009-08-25T07:49:02.000Z</time>
                <name>Position 999</name>
            </trkpt>
            <trkpt lon="10.6142233333333" lat="47.49201">
                <ele>1538.8</ele>
                <time>2009-08-25T07:49:05.000Z</time>
                <name>Position 1000</name>
            </trkpt>
            <trkpt lon="10.6142066666667" lat="47.4920233333333">
                <ele>1539.2</ele>
                <time>2009-08-25T07:49:08.000Z</time>
                <name>Position 1001</name>
            </trkpt>
            <trkpt lon="10.6141866666667" lat="47.492035">
                <ele>1539.8</ele>
                <time>2009-08-25T07:49:11.000Z</time>
                <name>Position 1002</name>
            </trkpt>
            <trkpt lon="10.6141583333333" lat="47.49204">
                <ele>1540.1</ele>
                <time>2009-08-25T07:49:14.000Z</time>
                <name>Position 1003</name>
            </trkpt>
            <trkpt lon="10.6141416666667" lat="47.49205">
                <ele>1540.0</ele>
                <time>2009-08-25T07:49:17.000Z</time>
                <name>Position 1004</name>
            </trkpt>
            <trkpt lon="10.614125" lat="47.4920533333333">
                <ele>1540.3</ele>
                <time>2009-08-25T07:49:20.000Z</time>
                <name>Position 1005</name>
            </trkpt>
            <trkpt lon="10.6141083333333" lat="47.4920616666667">
                <ele>1540.3</ele>
                <time>2009-08-25T07:49:23.000Z</time>
                <name>Position 1006</name>
            </trkpt>
            <trkpt lon="10.6141033333333" lat="47.492075">
                <ele>1540.8</ele>
                <time>2009-08-25T07:49:26.000Z</time>
                <name>Position 1007</name>
            </trkpt>
            <trkpt lon="10.61409" lat="47.492085">
                <ele>1541.0</ele>
                <time>2009-08-25T07:49:29.000Z</time>
                <name>Position 1008</name>
            </trkpt>
            <trkpt lon="10.6140783333333" lat="47.4920933333333">
                <ele>1540.3</ele>
                <time>2009-08-25T07:49:32.000Z</time>
                <name>Position 1009</name>
            </trkpt>
            <trkpt lon="10.6140533333333" lat="47.49211">
                <ele>1540.3</ele>
                <time>2009-08-25T07:49:35.000Z</time>
                <name>Position 1010</name>
            </trkpt>
            <trkpt lon="10.6140366666667" lat="47.4921283333333">
                <ele>1540.2</ele>
                <time>2009-08-25T07:49:38.000Z</time>
                <name>Position 1011</name>
            </trkpt>
            <trkpt lon="10.6140066666667" lat="47.4921366666667">
                <ele>1541.2</ele>
                <time>2009-08-25T07:49:41.000Z</time>
                <name>Position 1012</name>
            </trkpt>
            <trkpt lon="10.6139916666667" lat="47.4921383333333">
                <ele>1541.2</ele>
                <time>2009-08-25T07:49:44.000Z</time>
                <name>Position 1013</name>
            </trkpt>
            <trkpt lon="10.614" lat="47.4921566666667">
                <ele>1541.5</ele>
                <time>2009-08-25T07:49:47.000Z</time>
                <name>Position 1014</name>
            </trkpt>
            <trkpt lon="10.6140216666667" lat="47.4921683333333">
                <ele>1542.5</ele>
                <time>2009-08-25T07:49:50.000Z</time>
                <name>Position 1015</name>
            </trkpt>
            <trkpt lon="10.614035" lat="47.49218">
                <ele>1544.9</ele>
                <time>2009-08-25T07:49:53.000Z</time>
                <name>Position 1016</name>
            </trkpt>
            <trkpt lon="10.6140616666667" lat="47.4921833333333">
                <ele>1546.1</ele>
                <time>2009-08-25T07:49:56.000Z</time>
                <name>Position 1017</name>
            </trkpt>
            <trkpt lon="10.61409" lat="47.49219">
                <ele>1547.0</ele>
                <time>2009-08-25T07:49:59.000Z</time>
                <name>Position 1018</name>
            </trkpt>
            <trkpt lon="10.614115" lat="47.4921933333333">
                <ele>1548.3</ele>
                <time>2009-08-25T07:50:02.000Z</time>
                <name>Position 1019</name>
            </trkpt>
            <trkpt lon="10.6141383333333" lat="47.4922033333333">
                <ele>1549.2</ele>
                <time>2009-08-25T07:50:05.000Z</time>
                <name>Position 1020</name>
            </trkpt>
            <trkpt lon="10.61416" lat="47.492205">
                <ele>1550.0</ele>
                <time>2009-08-25T07:50:08.000Z</time>
                <name>Position 1021</name>
            </trkpt>
            <trkpt lon="10.6141833333333" lat="47.4922116666667">
                <ele>1551.0</ele>
                <time>2009-08-25T07:50:11.000Z</time>
                <name>Position 1022</name>
            </trkpt>
            <trkpt lon="10.6141983333333" lat="47.4922233333333">
                <ele>1551.6</ele>
                <time>2009-08-25T07:50:14.000Z</time>
                <name>Position 1023</name>
            </trkpt>
            <trkpt lon="10.61422" lat="47.49223">
                <ele>1552.6</ele>
                <time>2009-08-25T07:50:17.000Z</time>
                <name>Position 1024</name>
            </trkpt>
            <trkpt lon="10.6142433333333" lat="47.492235">
                <ele>1553.5</ele>
                <time>2009-08-25T07:50:20.000Z</time>
                <name>Position 1025</name>
            </trkpt>
            <trkpt lon="10.6142683333333" lat="47.4922366666667">
                <ele>1553.9</ele>
                <time>2009-08-25T07:50:23.000Z</time>
                <name>Position 1026</name>
            </trkpt>
            <trkpt lon="10.6142883333333" lat="47.4922466666667">
                <ele>1555.1</ele>
                <time>2009-08-25T07:50:26.000Z</time>
                <name>Position 1027</name>
            </trkpt>
            <trkpt lon="10.614315" lat="47.4922533333333">
                <ele>1555.8</ele>
                <time>2009-08-25T07:50:29.000Z</time>
                <name>Position 1028</name>
            </trkpt>
            <trkpt lon="10.6143366666667" lat="47.492265">
                <ele>1556.7</ele>
                <time>2009-08-25T07:50:32.000Z</time>
                <name>Position 1029</name>
            </trkpt>
            <trkpt lon="10.61435" lat="47.49227">
                <ele>1557.8</ele>
                <time>2009-08-25T07:50:35.000Z</time>
                <name>Position 1030</name>
            </trkpt>
            <trkpt lon="10.61438" lat="47.4922783333333">
                <ele>1558.3</ele>
                <time>2009-08-25T07:50:38.000Z</time>
                <name>Position 1031</name>
            </trkpt>
            <trkpt lon="10.614415" lat="47.4922816666667">
                <ele>1558.5</ele>
                <time>2009-08-25T07:50:41.000Z</time>
                <name>Position 1032</name>
            </trkpt>
            <trkpt lon="10.614455" lat="47.4922883333333">
                <ele>1558.6</ele>
                <time>2009-08-25T07:50:44.000Z</time>
                <name>Position 1033</name>
            </trkpt>
            <trkpt lon="10.614475" lat="47.4922966666667">
                <ele>1558.6</ele>
                <time>2009-08-25T07:50:47.000Z</time>
                <name>Position 1034</name>
            </trkpt>
            <trkpt lon="10.6144766666667" lat="47.4922983333333">
                <ele>1558.3</ele>
                <time>2009-08-25T07:50:50.000Z</time>
                <name>Position 1035</name>
            </trkpt>
            <trkpt lon="10.6145" lat="47.4923083333333">
                <ele>1558.9</ele>
                <time>2009-08-25T07:50:53.000Z</time>
                <name>Position 1036</name>
            </trkpt>
            <trkpt lon="10.61452" lat="47.4923183333333">
                <ele>1560.0</ele>
                <time>2009-08-25T07:50:56.000Z</time>
                <name>Position 1037</name>
            </trkpt>
            <trkpt lon="10.6145533333333" lat="47.4923266666667">
                <ele>1560.8</ele>
                <time>2009-08-25T07:50:59.000Z</time>
                <name>Position 1038</name>
            </trkpt>
            <trkpt lon="10.614575" lat="47.4923316666667">
                <ele>1561.0</ele>
                <time>2009-08-25T07:51:02.000Z</time>
                <name>Position 1039</name>
            </trkpt>
            <trkpt lon="10.6145933333333" lat="47.49234">
                <ele>1561.5</ele>
                <time>2009-08-25T07:51:05.000Z</time>
                <name>Position 1040</name>
            </trkpt>
            <trkpt lon="10.61463" lat="47.4923466666667">
                <ele>1561.8</ele>
                <time>2009-08-25T07:51:08.000Z</time>
                <name>Position 1041</name>
            </trkpt>
            <trkpt lon="10.6146716666667" lat="47.4923516666667">
                <ele>1562.1</ele>
                <time>2009-08-25T07:51:11.000Z</time>
                <name>Position 1042</name>
            </trkpt>
            <trkpt lon="10.61471" lat="47.4923583333333">
                <ele>1562.6</ele>
                <time>2009-08-25T07:51:14.000Z</time>
                <name>Position 1043</name>
            </trkpt>
            <trkpt lon="10.614745" lat="47.49237">
                <ele>1563.1</ele>
                <time>2009-08-25T07:51:17.000Z</time>
                <name>Position 1044</name>
            </trkpt>
            <trkpt lon="10.61478" lat="47.49238">
                <ele>1563.5</ele>
                <time>2009-08-25T07:51:20.000Z</time>
                <name>Position 1045</name>
            </trkpt>
            <trkpt lon="10.6148083333333" lat="47.49239">
                <ele>1564.0</ele>
                <time>2009-08-25T07:51:23.000Z</time>
                <name>Position 1046</name>
            </trkpt>
            <trkpt lon="10.6148216666667" lat="47.4924033333333">
                <ele>1564.8</ele>
                <time>2009-08-25T07:51:26.000Z</time>
                <name>Position 1047</name>
            </trkpt>
            <trkpt lon="10.614795" lat="47.49241">
                <ele>1565.9</ele>
                <time>2009-08-25T07:51:29.000Z</time>
                <name>Position 1048</name>
            </trkpt>
            <trkpt lon="10.6147783333333" lat="47.4924033333333">
                <ele>1566.2</ele>
                <time>2009-08-25T07:51:32.000Z</time>
                <name>Position 1049</name>
            </trkpt>
            <trkpt lon="10.614775" lat="47.4924016666667">
                <ele>1566.5</ele>
                <time>2009-08-25T07:51:35.000Z</time>
                <name>Position 1050</name>
            </trkpt>
            <trkpt lon="10.6147733333333" lat="47.4924033333333">
                <ele>1566.4</ele>
                <time>2009-08-25T07:51:38.000Z</time>
                <name>Position 1051</name>
            </trkpt>
            <trkpt lon="10.6147633333333" lat="47.4924016666667">
                <ele>1566.7</ele>
                <time>2009-08-25T07:51:41.000Z</time>
                <name>Position 1052</name>
            </trkpt>
            <trkpt lon="10.61474" lat="47.4923966666667">
                <ele>1567.3</ele>
                <time>2009-08-25T07:51:44.000Z</time>
                <name>Position 1053</name>
            </trkpt>
            <trkpt lon="10.61472" lat="47.4923983333333">
                <ele>1567.7</ele>
                <time>2009-08-25T07:51:47.000Z</time>
                <name>Position 1054</name>
            </trkpt>
            <trkpt lon="10.6147033333333" lat="47.4924">
                <ele>1568.0</ele>
                <time>2009-08-25T07:51:50.000Z</time>
                <name>Position 1055</name>
            </trkpt>
            <trkpt lon="10.6147066666667" lat="47.4924">
                <ele>1568.6</ele>
                <time>2009-08-25T07:51:53.000Z</time>
                <name>Position 1056</name>
            </trkpt>
            <trkpt lon="10.6147133333333" lat="47.4924">
                <ele>1568.8</ele>
                <time>2009-08-25T07:51:56.000Z</time>
                <name>Position 1057</name>
            </trkpt>
            <trkpt lon="10.614715" lat="47.4924">
                <ele>1568.7</ele>
                <time>2009-08-25T07:51:59.000Z</time>
                <name>Position 1058</name>
            </trkpt>
            <trkpt lon="10.6147183333333" lat="47.4924016666667">
                <ele>1568.9</ele>
                <time>2009-08-25T07:52:02.000Z</time>
                <name>Position 1059</name>
            </trkpt>
            <trkpt lon="10.6147166666667" lat="47.4924016666667">
                <ele>1568.8</ele>
                <time>2009-08-25T07:52:05.000Z</time>
                <name>Position 1060</name>
            </trkpt>
            <trkpt lon="10.6147166666667" lat="47.4924033333333">
                <ele>1568.7</ele>
                <time>2009-08-25T07:52:08.000Z</time>
                <name>Position 1061</name>
            </trkpt>
            <trkpt lon="10.6147066666667" lat="47.4924083333333">
                <ele>1568.9</ele>
                <time>2009-08-25T07:52:11.000Z</time>
                <name>Position 1062</name>
            </trkpt>
            <trkpt lon="10.6147066666667" lat="47.4924066666667">
                <ele>1568.9</ele>
                <time>2009-08-25T07:52:14.000Z</time>
                <name>Position 1063</name>
            </trkpt>
            <trkpt lon="10.6147066666667" lat="47.4924066666667">
                <ele>1568.8</ele>
                <time>2009-08-25T07:52:17.000Z</time>
                <name>Position 1064</name>
            </trkpt>
            <trkpt lon="10.6147066666667" lat="47.4924066666667">
                <ele>1568.7</ele>
                <time>2009-08-25T07:52:20.000Z</time>
                <name>Position 1065</name>
            </trkpt>
            <trkpt lon="10.6147066666667" lat="47.4924066666667">
                <ele>1568.7</ele>
                <time>2009-08-25T07:52:23.000Z</time>
                <name>Position 1066</name>
            </trkpt>
            <trkpt lon="10.6147066666667" lat="47.4924066666667">
                <ele>1568.7</ele>
                <time>2009-08-25T07:52:26.000Z</time>
                <name>Position 1067</name>
            </trkpt>
            <trkpt lon="10.61471" lat="47.4924083333333">
                <ele>1568.8</ele>
                <time>2009-08-25T07:52:29.000Z</time>
                <name>Position 1068</name>
            </trkpt>
            <trkpt lon="10.6147083333333" lat="47.4924083333333">
                <ele>1568.8</ele>
                <time>2009-08-25T07:52:32.000Z</time>
                <name>Position 1069</name>
            </trkpt>
            <trkpt lon="10.61471" lat="47.4924083333333">
                <ele>1568.8</ele>
                <time>2009-08-25T07:52:35.000Z</time>
                <name>Position 1070</name>
            </trkpt>
            <trkpt lon="10.6147066666667" lat="47.4924083333333">
                <ele>1568.7</ele>
                <time>2009-08-25T07:52:38.000Z</time>
                <name>Position 1071</name>
            </trkpt>
            <trkpt lon="10.6147066666667" lat="47.4924083333333">
                <ele>1568.8</ele>
                <time>2009-08-25T07:52:41.000Z</time>
                <name>Position 1072</name>
            </trkpt>
            <trkpt lon="10.6147066666667" lat="47.492405">
                <ele>1568.9</ele>
                <time>2009-08-25T07:52:44.000Z</time>
                <name>Position 1073</name>
            </trkpt>
            <trkpt lon="10.6147066666667" lat="47.4924066666667">
                <ele>1568.9</ele>
                <time>2009-08-25T07:52:47.000Z</time>
                <name>Position 1074</name>
            </trkpt>
            <trkpt lon="10.6147083333333" lat="47.4924066666667">
                <ele>1568.9</ele>
                <time>2009-08-25T07:52:50.000Z</time>
                <name>Position 1075</name>
            </trkpt>
            <trkpt lon="10.6147083333333" lat="47.4924083333333">
                <ele>1568.9</ele>
                <time>2009-08-25T07:52:53.000Z</time>
                <name>Position 1076</name>
            </trkpt>
            <trkpt lon="10.6147083333333" lat="47.4924083333333">
                <ele>1568.9</ele>
                <time>2009-08-25T07:52:56.000Z</time>
                <name>Position 1077</name>
            </trkpt>
            <trkpt lon="10.6147083333333" lat="47.4924083333333">
                <ele>1568.9</ele>
                <time>2009-08-25T07:52:59.000Z</time>
                <name>Position 1078</name>
            </trkpt>
            <trkpt lon="10.6147083333333" lat="47.4924083333333">
                <ele>1568.9</ele>
                <time>2009-08-25T07:53:02.000Z</time>
                <name>Position 1079</name>
            </trkpt>
            <trkpt lon="10.61471" lat="47.4924083333333">
                <ele>1569.0</ele>
                <time>2009-08-25T07:53:05.000Z</time>
                <name>Position 1080</name>
            </trkpt>
            <trkpt lon="10.61471" lat="47.4924083333333">
                <ele>1569.0</ele>
                <time>2009-08-25T07:53:08.000Z</time>
                <name>Position 1081</name>
            </trkpt>
            <trkpt lon="10.61471" lat="47.4924083333333">
                <ele>1569.0</ele>
                <time>2009-08-25T07:53:11.000Z</time>
                <name>Position 1082</name>
            </trkpt>
            <trkpt lon="10.61471" lat="47.4924083333333">
                <ele>1569.0</ele>
                <time>2009-08-25T07:53:14.000Z</time>
                <name>Position 1083</name>
            </trkpt>
            <trkpt lon="10.61471" lat="47.4924083333333">
                <ele>1569.0</ele>
                <time>2009-08-25T07:53:17.000Z</time>
                <name>Position 1084</name>
            </trkpt>
            <trkpt lon="10.6147083333333" lat="47.4924083333333">
                <ele>1569.0</ele>
                <time>2009-08-25T07:53:20.000Z</time>
                <name>Position 1085</name>
            </trkpt>
            <trkpt lon="10.6147083333333" lat="47.4924083333333">
                <ele>1569.0</ele>
                <time>2009-08-25T07:53:23.000Z</time>
                <name>Position 1086</name>
            </trkpt>
            <trkpt lon="10.6147083333333" lat="47.4924083333333">
                <ele>1569.0</ele>
                <time>2009-08-25T07:53:26.000Z</time>
                <name>Position 1087</name>
            </trkpt>
            <trkpt lon="10.6147066666667" lat="47.4924083333333">
                <ele>1568.8</ele>
                <time>2009-08-25T07:53:29.000Z</time>
                <name>Position 1088</name>
            </trkpt>
            <trkpt lon="10.6147083333333" lat="47.4924033333333">
                <ele>1568.9</ele>
                <time>2009-08-25T07:53:32.000Z</time>
                <name>Position 1089</name>
            </trkpt>
            <trkpt lon="10.6147116666667" lat="47.492395">
                <ele>1568.9</ele>
                <time>2009-08-25T07:53:35.000Z</time>
                <name>Position 1090</name>
            </trkpt>
            <trkpt lon="10.6147133333333" lat="47.4923966666667">
                <ele>1568.6</ele>
                <time>2009-08-25T07:53:38.000Z</time>
                <name>Position 1091</name>
            </trkpt>
            <trkpt lon="10.6147133333333" lat="47.492395">
                <ele>1568.4</ele>
                <time>2009-08-25T07:53:41.000Z</time>
                <name>Position 1092</name>
            </trkpt>
            <trkpt lon="10.6147133333333" lat="47.492395">
                <ele>1568.2</ele>
                <time>2009-08-25T07:53:44.000Z</time>
                <name>Position 1093</name>
            </trkpt>
            <trkpt lon="10.6147133333333" lat="47.492395">
                <ele>1568.2</ele>
                <time>2009-08-25T07:53:47.000Z</time>
                <name>Position 1094</name>
            </trkpt>
            <trkpt lon="10.6147133333333" lat="47.492395">
                <ele>1568.2</ele>
                <time>2009-08-25T07:53:50.000Z</time>
                <name>Position 1095</name>
            </trkpt>
            <trkpt lon="10.6147133333333" lat="47.492395">
                <ele>1568.2</ele>
                <time>2009-08-25T07:53:53.000Z</time>
                <name>Position 1096</name>
            </trkpt>
            <trkpt lon="10.6147133333333" lat="47.492395">
                <ele>1568.2</ele>
                <time>2009-08-25T07:53:56.000Z</time>
                <name>Position 1097</name>
            </trkpt>
            <trkpt lon="10.6147133333333" lat="47.4923933333333">
                <ele>1568.2</ele>
                <time>2009-08-25T07:53:59.000Z</time>
                <name>Position 1098</name>
            </trkpt>
            <trkpt lon="10.614715" lat="47.4923933333333">
                <ele>1568.2</ele>
                <time>2009-08-25T07:54:02.000Z</time>
                <name>Position 1099</name>
            </trkpt>
            <trkpt lon="10.614715" lat="47.4923933333333">
                <ele>1568.2</ele>
                <time>2009-08-25T07:54:05.000Z</time>
                <name>Position 1100</name>
            </trkpt>
            <trkpt lon="10.61471" lat="47.492395">
                <ele>1568.2</ele>
                <time>2009-08-25T07:54:08.000Z</time>
                <name>Position 1101</name>
            </trkpt>
            <trkpt lon="10.6147" lat="47.4924066666667">
                <ele>1568.6</ele>
                <time>2009-08-25T07:54:11.000Z</time>
                <name>Position 1102</name>
            </trkpt>
            <trkpt lon="10.6147" lat="47.4924033333333">
                <ele>1568.7</ele>
                <time>2009-08-25T07:54:14.000Z</time>
                <name>Position 1103</name>
            </trkpt>
            <trkpt lon="10.6147016666667" lat="47.4924033333333">
                <ele>1568.6</ele>
                <time>2009-08-25T07:54:17.000Z</time>
                <name>Position 1104</name>
            </trkpt>
            <trkpt lon="10.6147016666667" lat="47.4924016666667">
                <ele>1568.6</ele>
                <time>2009-08-25T07:54:20.000Z</time>
                <name>Position 1105</name>
            </trkpt>
            <trkpt lon="10.6147016666667" lat="47.4924016666667">
                <ele>1568.6</ele>
                <time>2009-08-25T07:54:23.000Z</time>
                <name>Position 1106</name>
            </trkpt>
            <trkpt lon="10.6147033333333" lat="47.4924016666667">
                <ele>1568.6</ele>
                <time>2009-08-25T07:54:26.000Z</time>
                <name>Position 1107</name>
            </trkpt>
            <trkpt lon="10.6147066666667" lat="47.4924">
                <ele>1568.5</ele>
                <time>2009-08-25T07:54:29.000Z</time>
                <name>Position 1108</name>
            </trkpt>
            <trkpt lon="10.6147083333333" lat="47.492395">
                <ele>1568.5</ele>
                <time>2009-08-25T07:54:32.000Z</time>
                <name>Position 1109</name>
            </trkpt>
            <trkpt lon="10.6147083333333" lat="47.492395">
                <ele>1568.5</ele>
                <time>2009-08-25T07:54:35.000Z</time>
                <name>Position 1110</name>
            </trkpt>
            <trkpt lon="10.6147083333333" lat="47.492395">
                <ele>1568.5</ele>
                <time>2009-08-25T07:54:38.000Z</time>
                <name>Position 1111</name>
            </trkpt>
            <trkpt lon="10.6147083333333" lat="47.492395">
                <ele>1568.4</ele>
                <time>2009-08-25T07:54:41.000Z</time>
                <name>Position 1112</name>
            </trkpt>
            <trkpt lon="10.6147083333333" lat="47.492395">
                <ele>1568.4</ele>
                <time>2009-08-25T07:54:44.000Z</time>
                <name>Position 1113</name>
            </trkpt>
            <trkpt lon="10.6147083333333" lat="47.492395">
                <ele>1568.4</ele>
                <time>2009-08-25T07:54:47.000Z</time>
                <name>Position 1114</name>
            </trkpt>
            <trkpt lon="10.6147083333333" lat="47.492395">
                <ele>1568.4</ele>
                <time>2009-08-25T07:54:50.000Z</time>
                <name>Position 1115</name>
            </trkpt>
            <trkpt lon="10.6147116666667" lat="47.4924">
                <ele>1568.6</ele>
                <time>2009-08-25T07:54:53.000Z</time>
                <name>Position 1116</name>
            </trkpt>
            <trkpt lon="10.614715" lat="47.4924116666667">
                <ele>1569.2</ele>
                <time>2009-08-25T07:54:56.000Z</time>
                <name>Position 1117</name>
            </trkpt>
            <trkpt lon="10.6147016666667" lat="47.49242">
                <ele>1569.7</ele>
                <time>2009-08-25T07:54:59.000Z</time>
                <name>Position 1118</name>
            </trkpt>
            <trkpt lon="10.6146766666667" lat="47.492425">
                <ele>1570.3</ele>
                <time>2009-08-25T07:55:02.000Z</time>
                <name>Position 1119</name>
            </trkpt>
            <trkpt lon="10.6146483333333" lat="47.4924366666667">
                <ele>1570.8</ele>
                <time>2009-08-25T07:55:05.000Z</time>
                <name>Position 1120</name>
            </trkpt>
            <trkpt lon="10.614615" lat="47.4924416666667">
                <ele>1571.6</ele>
                <time>2009-08-25T07:55:08.000Z</time>
                <name>Position 1121</name>
            </trkpt>
            <trkpt lon="10.61457" lat="47.4924366666667">
                <ele>1572.7</ele>
                <time>2009-08-25T07:55:11.000Z</time>
                <name>Position 1122</name>
            </trkpt>
            <trkpt lon="10.6145316666667" lat="47.4924316666667">
                <ele>1573.5</ele>
                <time>2009-08-25T07:55:14.000Z</time>
                <name>Position 1123</name>
            </trkpt>
            <trkpt lon="10.6145183333333" lat="47.4924416666667">
                <ele>1573.5</ele>
                <time>2009-08-25T07:55:17.000Z</time>
                <name>Position 1124</name>
            </trkpt>
            <trkpt lon="10.6145283333333" lat="47.4924583333333">
                <ele>1574.1</ele>
                <time>2009-08-25T07:55:20.000Z</time>
                <name>Position 1125</name>
            </trkpt>
            <trkpt lon="10.6145483333333" lat="47.4924683333333">
                <ele>1574.5</ele>
                <time>2009-08-25T07:55:23.000Z</time>
                <name>Position 1126</name>
            </trkpt>
            <trkpt lon="10.61455" lat="47.492485">
                <ele>1575.7</ele>
                <time>2009-08-25T07:55:26.000Z</time>
                <name>Position 1127</name>
            </trkpt>
            <trkpt lon="10.61453" lat="47.492495">
                <ele>1576.7</ele>
                <time>2009-08-25T07:55:29.000Z</time>
                <name>Position 1128</name>
            </trkpt>
            <trkpt lon="10.6145066666667" lat="47.492495">
                <ele>1577.7</ele>
                <time>2009-08-25T07:55:32.000Z</time>
                <name>Position 1129</name>
            </trkpt>
            <trkpt lon="10.61449" lat="47.49251">
                <ele>1578.9</ele>
                <time>2009-08-25T07:55:35.000Z</time>
                <name>Position 1130</name>
            </trkpt>
            <trkpt lon="10.6145" lat="47.4925233333333">
                <ele>1579.5</ele>
                <time>2009-08-25T07:55:38.000Z</time>
                <name>Position 1131</name>
            </trkpt>
            <trkpt lon="10.614515" lat="47.4925266666667">
                <ele>1579.5</ele>
                <time>2009-08-25T07:55:41.000Z</time>
                <name>Position 1132</name>
            </trkpt>
            <trkpt lon="10.614545" lat="47.4925333333333">
                <ele>1580.0</ele>
                <time>2009-08-25T07:55:44.000Z</time>
                <name>Position 1133</name>
            </trkpt>
            <trkpt lon="10.614565" lat="47.4925466666667">
                <ele>1581.0</ele>
                <time>2009-08-25T07:55:47.000Z</time>
                <name>Position 1134</name>
            </trkpt>
            <trkpt lon="10.6145966666667" lat="47.492555">
                <ele>1581.8</ele>
                <time>2009-08-25T07:55:50.000Z</time>
                <name>Position 1135</name>
            </trkpt>
            <trkpt lon="10.61463" lat="47.4925633333333">
                <ele>1582.1</ele>
                <time>2009-08-25T07:55:54.000Z</time>
                <name>Position 1136</name>
            </trkpt>
            <trkpt lon="10.614655" lat="47.492575">
                <ele>1582.7</ele>
                <time>2009-08-25T07:55:57.000Z</time>
                <name>Position 1137</name>
            </trkpt>
            <trkpt lon="10.6146766666667" lat="47.4925833333333">
                <ele>1583.1</ele>
                <time>2009-08-25T07:56:00.000Z</time>
                <name>Position 1138</name>
            </trkpt>
            <trkpt lon="10.6146966666667" lat="47.492595">
                <ele>1583.5</ele>
                <time>2009-08-25T07:56:03.000Z</time>
                <name>Position 1139</name>
            </trkpt>
            <trkpt lon="10.6146833333333" lat="47.4926033333333">
                <ele>1584.7</ele>
                <time>2009-08-25T07:56:06.000Z</time>
                <name>Position 1140</name>
            </trkpt>
            <trkpt lon="10.6146516666667" lat="47.4925983333333">
                <ele>1585.7</ele>
                <time>2009-08-25T07:56:09.000Z</time>
                <name>Position 1141</name>
            </trkpt>
            <trkpt lon="10.61465" lat="47.4925916666667">
                <ele>1585.8</ele>
                <time>2009-08-25T07:56:12.000Z</time>
                <name>Position 1142</name>
            </trkpt>
            <trkpt lon="10.6146583333333" lat="47.492595">
                <ele>1585.2</ele>
                <time>2009-08-25T07:56:15.000Z</time>
                <name>Position 1143</name>
            </trkpt>
            <trkpt lon="10.6146583333333" lat="47.4925966666667">
                <ele>1585.3</ele>
                <time>2009-08-25T07:56:18.000Z</time>
                <name>Position 1144</name>
            </trkpt>
            <trkpt lon="10.61466" lat="47.4925966666667">
                <ele>1585.5</ele>
                <time>2009-08-25T07:56:21.000Z</time>
                <name>Position 1145</name>
            </trkpt>
            <trkpt lon="10.61466" lat="47.4925983333333">
                <ele>1585.6</ele>
                <time>2009-08-25T07:56:24.000Z</time>
                <name>Position 1146</name>
            </trkpt>
            <trkpt lon="10.6146533333333" lat="47.4926">
                <ele>1585.9</ele>
                <time>2009-08-25T07:56:27.000Z</time>
                <name>Position 1147</name>
            </trkpt>
            <trkpt lon="10.6146216666667" lat="47.4925933333333">
                <ele>1586.5</ele>
                <time>2009-08-25T07:56:30.000Z</time>
                <name>Position 1148</name>
            </trkpt>
            <trkpt lon="10.614615" lat="47.4926033333333">
                <ele>1587.8</ele>
                <time>2009-08-25T07:56:33.000Z</time>
                <name>Position 1149</name>
            </trkpt>
            <trkpt lon="10.61459" lat="47.4925983333333">
                <ele>1588.5</ele>
                <time>2009-08-25T07:56:36.000Z</time>
                <name>Position 1150</name>
            </trkpt>
            <trkpt lon="10.6145733333333" lat="47.4925983333333">
                <ele>1589.6</ele>
                <time>2009-08-25T07:56:39.000Z</time>
                <name>Position 1151</name>
            </trkpt>
            <trkpt lon="10.6145566666667" lat="47.4926016666667">
                <ele>1590.1</ele>
                <time>2009-08-25T07:56:42.000Z</time>
                <name>Position 1152</name>
            </trkpt>
            <trkpt lon="10.61456" lat="47.492615">
                <ele>1590.2</ele>
                <time>2009-08-25T07:56:45.000Z</time>
                <name>Position 1153</name>
            </trkpt>
            <trkpt lon="10.61457" lat="47.4926283333333">
                <ele>1591.1</ele>
                <time>2009-08-25T07:56:48.000Z</time>
                <name>Position 1154</name>
            </trkpt>
            <trkpt lon="10.6145883333333" lat="47.49264">
                <ele>1591.9</ele>
                <time>2009-08-25T07:56:51.000Z</time>
                <name>Position 1155</name>
            </trkpt>
            <trkpt lon="10.61461" lat="47.49265">
                <ele>1592.6</ele>
                <time>2009-08-25T07:56:54.000Z</time>
                <name>Position 1156</name>
            </trkpt>
            <trkpt lon="10.61463" lat="47.4926633333333">
                <ele>1593.1</ele>
                <time>2009-08-25T07:56:57.000Z</time>
                <name>Position 1157</name>
            </trkpt>
            <trkpt lon="10.6146566666667" lat="47.4926733333333">
                <ele>1593.7</ele>
                <time>2009-08-25T07:57:00.000Z</time>
                <name>Position 1158</name>
            </trkpt>
            <trkpt lon="10.6146783333333" lat="47.49268">
                <ele>1594.0</ele>
                <time>2009-08-25T07:57:03.000Z</time>
                <name>Position 1159</name>
            </trkpt>
            <trkpt lon="10.6146816666667" lat="47.4926916666667">
                <ele>1594.5</ele>
                <time>2009-08-25T07:57:06.000Z</time>
                <name>Position 1160</name>
            </trkpt>
            <trkpt lon="10.6146916666667" lat="47.4926983333333">
                <ele>1595.7</ele>
                <time>2009-08-25T07:57:09.000Z</time>
                <name>Position 1161</name>
            </trkpt>
            <trkpt lon="10.6146933333333" lat="47.4927016666667">
                <ele>1596.3</ele>
                <time>2009-08-25T07:57:12.000Z</time>
                <name>Position 1162</name>
            </trkpt>
            <trkpt lon="10.614695" lat="47.492705">
                <ele>1597.0</ele>
                <time>2009-08-25T07:57:15.000Z</time>
                <name>Position 1163</name>
            </trkpt>
            <trkpt lon="10.614685" lat="47.4927083333333">
                <ele>1597.3</ele>
                <time>2009-08-25T07:57:18.000Z</time>
                <name>Position 1164</name>
            </trkpt>
            <trkpt lon="10.6146733333333" lat="47.4927083333333">
                <ele>1597.3</ele>
                <time>2009-08-25T07:57:21.000Z</time>
                <name>Position 1165</name>
            </trkpt>
            <trkpt lon="10.6146666666667" lat="47.4927033333333">
                <ele>1597.6</ele>
                <time>2009-08-25T07:57:24.000Z</time>
                <name>Position 1166</name>
            </trkpt>
            <trkpt lon="10.6146383333333" lat="47.4927066666667">
                <ele>1598.1</ele>
                <time>2009-08-25T07:57:27.000Z</time>
                <name>Position 1167</name>
            </trkpt>
            <trkpt lon="10.6146216666667" lat="47.492705">
                <ele>1598.7</ele>
                <time>2009-08-25T07:57:30.000Z</time>
                <name>Position 1168</name>
            </trkpt>
            <trkpt lon="10.6146116666667" lat="47.4927033333333">
                <ele>1599.3</ele>
                <time>2009-08-25T07:57:33.000Z</time>
                <name>Position 1169</name>
            </trkpt>
            <trkpt lon="10.6146083333333" lat="47.4927066666667">
                <ele>1599.6</ele>
                <time>2009-08-25T07:57:36.000Z</time>
                <name>Position 1170</name>
            </trkpt>
            <trkpt lon="10.6146083333333" lat="47.4927066666667">
                <ele>1599.4</ele>
                <time>2009-08-25T07:57:39.000Z</time>
                <name>Position 1171</name>
            </trkpt>
            <trkpt lon="10.61461" lat="47.4927066666667">
                <ele>1599.2</ele>
                <time>2009-08-25T07:57:42.000Z</time>
                <name>Position 1172</name>
            </trkpt>
            <trkpt lon="10.61461" lat="47.492705">
                <ele>1599.0</ele>
                <time>2009-08-25T07:57:45.000Z</time>
                <name>Position 1173</name>
            </trkpt>
            <trkpt lon="10.6146116666667" lat="47.4927066666667">
                <ele>1599.1</ele>
                <time>2009-08-25T07:57:48.000Z</time>
                <name>Position 1174</name>
            </trkpt>
            <trkpt lon="10.6146116666667" lat="47.4927066666667">
                <ele>1599.1</ele>
                <time>2009-08-25T07:57:51.000Z</time>
                <name>Position 1175</name>
            </trkpt>
            <trkpt lon="10.614595" lat="47.49271">
                <ele>1600.0</ele>
                <time>2009-08-25T07:57:54.000Z</time>
                <name>Position 1176</name>
            </trkpt>
            <trkpt lon="10.6145866666667" lat="47.4927133333333">
                <ele>1600.7</ele>
                <time>2009-08-25T07:57:57.000Z</time>
                <name>Position 1177</name>
            </trkpt>
            <trkpt lon="10.614565" lat="47.49271">
                <ele>1601.0</ele>
                <time>2009-08-25T07:58:00.000Z</time>
                <name>Position 1178</name>
            </trkpt>
            <trkpt lon="10.6145383333333" lat="47.4927133333333">
                <ele>1601.8</ele>
                <time>2009-08-25T07:58:03.000Z</time>
                <name>Position 1179</name>
            </trkpt>
            <trkpt lon="10.6145116666667" lat="47.4927133333333">
                <ele>1602.5</ele>
                <time>2009-08-25T07:58:06.000Z</time>
                <name>Position 1180</name>
            </trkpt>
            <trkpt lon="10.61448" lat="47.492715">
                <ele>1602.7</ele>
                <time>2009-08-25T07:58:09.000Z</time>
                <name>Position 1181</name>
            </trkpt>
            <trkpt lon="10.61446" lat="47.4927216666667">
                <ele>1603.4</ele>
                <time>2009-08-25T07:58:12.000Z</time>
                <name>Position 1182</name>
            </trkpt>
            <trkpt lon="10.6144716666667" lat="47.49273">
                <ele>1603.6</ele>
                <time>2009-08-25T07:58:15.000Z</time>
                <name>Position 1183</name>
            </trkpt>
            <trkpt lon="10.614495" lat="47.4927316666667">
                <ele>1604.9</ele>
                <time>2009-08-25T07:58:18.000Z</time>
                <name>Position 1184</name>
            </trkpt>
            <trkpt lon="10.6145133333333" lat="47.4927333333333">
                <ele>1604.9</ele>
                <time>2009-08-25T07:58:21.000Z</time>
                <name>Position 1185</name>
            </trkpt>
            <trkpt lon="10.6145283333333" lat="47.4927433333333">
                <ele>1605.9</ele>
                <time>2009-08-25T07:58:25.000Z</time>
                <name>Position 1186</name>
            </trkpt>
            <trkpt lon="10.6145316666667" lat="47.49275">
                <ele>1606.1</ele>
                <time>2009-08-25T07:58:28.000Z</time>
                <name>Position 1187</name>
            </trkpt>
            <trkpt lon="10.6145066666667" lat="47.49275">
                <ele>1606.3</ele>
                <time>2009-08-25T07:58:31.000Z</time>
                <name>Position 1188</name>
            </trkpt>
            <trkpt lon="10.6144883333333" lat="47.4927466666667">
                <ele>1606.4</ele>
                <time>2009-08-25T07:58:34.000Z</time>
                <name>Position 1189</name>
            </trkpt>
            <trkpt lon="10.6144833333333" lat="47.4927483333333">
                <ele>1606.2</ele>
                <time>2009-08-25T07:58:37.000Z</time>
                <name>Position 1190</name>
            </trkpt>
            <trkpt lon="10.6144766666667" lat="47.4927433333333">
                <ele>1606.0</ele>
                <time>2009-08-25T07:58:40.000Z</time>
                <name>Position 1191</name>
            </trkpt>
            <trkpt lon="10.614465" lat="47.4927433333333">
                <ele>1606.0</ele>
                <time>2009-08-25T07:58:43.000Z</time>
                <name>Position 1192</name>
            </trkpt>
            <trkpt lon="10.6144683333333" lat="47.4927616666667">
                <ele>1606.3</ele>
                <time>2009-08-25T07:58:46.000Z</time>
                <name>Position 1193</name>
            </trkpt>
            <trkpt lon="10.614485" lat="47.4927683333333">
                <ele>1607.0</ele>
                <time>2009-08-25T07:58:49.000Z</time>
                <name>Position 1194</name>
            </trkpt>
            <trkpt lon="10.614485" lat="47.492785">
                <ele>1608.3</ele>
                <time>2009-08-25T07:58:52.000Z</time>
                <name>Position 1195</name>
            </trkpt>
            <trkpt lon="10.6144966666667" lat="47.492795">
                <ele>1609.0</ele>
                <time>2009-08-25T07:58:55.000Z</time>
                <name>Position 1196</name>
            </trkpt>
            <trkpt lon="10.61451" lat="47.492805">
                <ele>1610.0</ele>
                <time>2009-08-25T07:58:58.000Z</time>
                <name>Position 1197</name>
            </trkpt>
            <trkpt lon="10.6145383333333" lat="47.49281">
                <ele>1611.6</ele>
                <time>2009-08-25T07:59:01.000Z</time>
                <name>Position 1198</name>
            </trkpt>
            <trkpt lon="10.6145666666667" lat="47.492815">
                <ele>1612.2</ele>
                <time>2009-08-25T07:59:04.000Z</time>
                <name>Position 1199</name>
            </trkpt>
            <trkpt lon="10.6145916666667" lat="47.492815">
                <ele>1613.5</ele>
                <time>2009-08-25T07:59:07.000Z</time>
                <name>Position 1200</name>
            </trkpt>
            <trkpt lon="10.6146166666667" lat="47.4928166666667">
                <ele>1614.5</ele>
                <time>2009-08-25T07:59:10.000Z</time>
                <name>Position 1201</name>
            </trkpt>
            <trkpt lon="10.61463" lat="47.4928216666667">
                <ele>1615.5</ele>
                <time>2009-08-25T07:59:13.000Z</time>
                <name>Position 1202</name>
            </trkpt>
            <trkpt lon="10.6146233333333" lat="47.4928216666667">
                <ele>1616.1</ele>
                <time>2009-08-25T07:59:16.000Z</time>
                <name>Position 1203</name>
            </trkpt>
            <trkpt lon="10.6146183333333" lat="47.4928216666667">
                <ele>1616.3</ele>
                <time>2009-08-25T07:59:19.000Z</time>
                <name>Position 1204</name>
            </trkpt>
            <trkpt lon="10.6146183333333" lat="47.49282">
                <ele>1616.5</ele>
                <time>2009-08-25T07:59:22.000Z</time>
                <name>Position 1205</name>
            </trkpt>
            <trkpt lon="10.614615" lat="47.49282">
                <ele>1616.8</ele>
                <time>2009-08-25T07:59:25.000Z</time>
                <name>Position 1206</name>
            </trkpt>
            <trkpt lon="10.6146166666667" lat="47.49282">
                <ele>1616.8</ele>
                <time>2009-08-25T07:59:28.000Z</time>
                <name>Position 1207</name>
            </trkpt>
            <trkpt lon="10.6146166666667" lat="47.4928233333333">
                <ele>1617.0</ele>
                <time>2009-08-25T07:59:31.000Z</time>
                <name>Position 1208</name>
            </trkpt>
            <trkpt lon="10.6146233333333" lat="47.4928166666667">
                <ele>1617.4</ele>
                <time>2009-08-25T07:59:34.000Z</time>
                <name>Position 1209</name>
            </trkpt>
            <trkpt lon="10.6146233333333" lat="47.4928083333333">
                <ele>1617.4</ele>
                <time>2009-08-25T07:59:37.000Z</time>
                <name>Position 1210</name>
            </trkpt>
            <trkpt lon="10.614615" lat="47.4928116666667">
                <ele>1617.1</ele>
                <time>2009-08-25T07:59:40.000Z</time>
                <name>Position 1211</name>
            </trkpt>
            <trkpt lon="10.6146183333333" lat="47.4928066666667">
                <ele>1617.2</ele>
                <time>2009-08-25T07:59:43.000Z</time>
                <name>Position 1212</name>
            </trkpt>
            <trkpt lon="10.6146183333333" lat="47.4928066666667">
                <ele>1617.1</ele>
                <time>2009-08-25T07:59:46.000Z</time>
                <name>Position 1213</name>
            </trkpt>
            <trkpt lon="10.6146166666667" lat="47.4928083333333">
                <ele>1617.1</ele>
                <time>2009-08-25T07:59:49.000Z</time>
                <name>Position 1214</name>
            </trkpt>
            <trkpt lon="10.6146133333333" lat="47.49281">
                <ele>1617.0</ele>
                <time>2009-08-25T07:59:52.000Z</time>
                <name>Position 1215</name>
            </trkpt>
            <trkpt lon="10.6146116666667" lat="47.49281">
                <ele>1617.0</ele>
                <time>2009-08-25T07:59:55.000Z</time>
                <name>Position 1216</name>
            </trkpt>
            <trkpt lon="10.61461" lat="47.4928116666667">
                <ele>1617.0</ele>
                <time>2009-08-25T07:59:58.000Z</time>
                <name>Position 1217</name>
            </trkpt>
            <trkpt lon="10.6146066666667" lat="47.4928133333333">
                <ele>1616.9</ele>
                <time>2009-08-25T08:00:01.000Z</time>
                <name>Position 1218</name>
            </trkpt>
            <trkpt lon="10.614605" lat="47.492815">
                <ele>1616.9</ele>
                <time>2009-08-25T08:00:04.000Z</time>
                <name>Position 1219</name>
            </trkpt>
            <trkpt lon="10.614605" lat="47.492815">
                <ele>1616.9</ele>
                <time>2009-08-25T08:00:07.000Z</time>
                <name>Position 1220</name>
            </trkpt>
            <trkpt lon="10.6146016666667" lat="47.4928166666667">
                <ele>1616.9</ele>
                <time>2009-08-25T08:00:10.000Z</time>
                <name>Position 1221</name>
            </trkpt>
            <trkpt lon="10.6145983333333" lat="47.4928183333333">
                <ele>1616.9</ele>
                <time>2009-08-25T08:00:13.000Z</time>
                <name>Position 1222</name>
            </trkpt>
            <trkpt lon="10.6145983333333" lat="47.49282">
                <ele>1616.9</ele>
                <time>2009-08-25T08:00:16.000Z</time>
                <name>Position 1223</name>
            </trkpt>
            <trkpt lon="10.6145966666667" lat="47.49282">
                <ele>1616.8</ele>
                <time>2009-08-25T08:00:19.000Z</time>
                <name>Position 1224</name>
            </trkpt>
            <trkpt lon="10.6145933333333" lat="47.4928216666667">
                <ele>1616.8</ele>
                <time>2009-08-25T08:00:22.000Z</time>
                <name>Position 1225</name>
            </trkpt>
            <trkpt lon="10.6145916666667" lat="47.4928233333333">
                <ele>1616.8</ele>
                <time>2009-08-25T08:00:25.000Z</time>
                <name>Position 1226</name>
            </trkpt>
            <trkpt lon="10.614585" lat="47.4928183333333">
                <ele>1617.3</ele>
                <time>2009-08-25T08:00:28.000Z</time>
                <name>Position 1227</name>
            </trkpt>
            <trkpt lon="10.614595" lat="47.4928183333333">
                <ele>1617.7</ele>
                <time>2009-08-25T08:00:31.000Z</time>
                <name>Position 1228</name>
            </trkpt>
            <trkpt lon="10.6146" lat="47.4928183333333">
                <ele>1618.0</ele>
                <time>2009-08-25T08:00:34.000Z</time>
                <name>Position 1229</name>
            </trkpt>
            <trkpt lon="10.6146" lat="47.49282">
                <ele>1618.2</ele>
                <time>2009-08-25T08:00:37.000Z</time>
                <name>Position 1230</name>
            </trkpt>
            <trkpt lon="10.6146016666667" lat="47.4928216666667">
                <ele>1618.4</ele>
                <time>2009-08-25T08:00:40.000Z</time>
                <name>Position 1231</name>
            </trkpt>
            <trkpt lon="10.6146016666667" lat="47.4928233333333">
                <ele>1618.6</ele>
                <time>2009-08-25T08:00:43.000Z</time>
                <name>Position 1232</name>
            </trkpt>
            <trkpt lon="10.6146033333333" lat="47.4928233333333">
                <ele>1618.4</ele>
                <time>2009-08-25T08:00:46.000Z</time>
                <name>Position 1233</name>
            </trkpt>
            <trkpt lon="10.6146033333333" lat="47.4928233333333">
                <ele>1618.2</ele>
                <time>2009-08-25T08:00:49.000Z</time>
                <name>Position 1234</name>
            </trkpt>
            <trkpt lon="10.614605" lat="47.4928233333333">
                <ele>1618.1</ele>
                <time>2009-08-25T08:00:52.000Z</time>
                <name>Position 1235</name>
            </trkpt>
            <trkpt lon="10.614605" lat="47.4928233333333">
                <ele>1618.0</ele>
                <time>2009-08-25T08:00:55.000Z</time>
                <name>Position 1236</name>
            </trkpt>
            <trkpt lon="10.614605" lat="47.4928233333333">
                <ele>1618.0</ele>
                <time>2009-08-25T08:00:58.000Z</time>
                <name>Position 1237</name>
            </trkpt>
            <trkpt lon="10.6146066666667" lat="47.4928233333333">
                <ele>1617.9</ele>
                <time>2009-08-25T08:01:01.000Z</time>
                <name>Position 1238</name>
            </trkpt>
            <trkpt lon="10.6146066666667" lat="47.4928233333333">
                <ele>1617.8</ele>
                <time>2009-08-25T08:01:04.000Z</time>
                <name>Position 1239</name>
            </trkpt>
            <trkpt lon="10.6146066666667" lat="47.4928233333333">
                <ele>1617.7</ele>
                <time>2009-08-25T08:01:07.000Z</time>
                <name>Position 1240</name>
            </trkpt>
            <trkpt lon="10.6146066666667" lat="47.4928233333333">
                <ele>1617.7</ele>
                <time>2009-08-25T08:01:10.000Z</time>
                <name>Position 1241</name>
            </trkpt>
            <trkpt lon="10.6146066666667" lat="47.4928233333333">
                <ele>1617.7</ele>
                <time>2009-08-25T08:01:13.000Z</time>
                <name>Position 1242</name>
            </trkpt>
            <trkpt lon="10.6146066666667" lat="47.4928233333333">
                <ele>1617.7</ele>
                <time>2009-08-25T08:01:16.000Z</time>
                <name>Position 1243</name>
            </trkpt>
            <trkpt lon="10.6146066666667" lat="47.4928233333333">
                <ele>1617.7</ele>
                <time>2009-08-25T08:01:19.000Z</time>
                <name>Position 1244</name>
            </trkpt>
            <trkpt lon="10.6146066666667" lat="47.4928233333333">
                <ele>1617.7</ele>
                <time>2009-08-25T08:01:22.000Z</time>
                <name>Position 1245</name>
            </trkpt>
            <trkpt lon="10.6146033333333" lat="47.4928266666667">
                <ele>1617.7</ele>
                <time>2009-08-25T08:01:25.000Z</time>
                <name>Position 1246</name>
            </trkpt>
            <trkpt lon="10.6145983333333" lat="47.4928283333333">
                <ele>1617.8</ele>
                <time>2009-08-25T08:01:28.000Z</time>
                <name>Position 1247</name>
            </trkpt>
            <trkpt lon="10.6145983333333" lat="47.4928283333333">
                <ele>1617.8</ele>
                <time>2009-08-25T08:01:31.000Z</time>
                <name>Position 1248</name>
            </trkpt>
            <trkpt lon="10.6146016666667" lat="47.49283">
                <ele>1617.8</ele>
                <time>2009-08-25T08:01:34.000Z</time>
                <name>Position 1249</name>
            </trkpt>
            <trkpt lon="10.6146" lat="47.4928283333333">
                <ele>1617.7</ele>
                <time>2009-08-25T08:01:37.000Z</time>
                <name>Position 1250</name>
            </trkpt>
            <trkpt lon="10.6146033333333" lat="47.4928266666667">
                <ele>1617.7</ele>
                <time>2009-08-25T08:01:40.000Z</time>
                <name>Position 1251</name>
            </trkpt>
            <trkpt lon="10.614605" lat="47.4928266666667">
                <ele>1617.6</ele>
                <time>2009-08-25T08:01:43.000Z</time>
                <name>Position 1252</name>
            </trkpt>
            <trkpt lon="10.614605" lat="47.4928266666667">
                <ele>1617.6</ele>
                <time>2009-08-25T08:01:46.000Z</time>
                <name>Position 1253</name>
            </trkpt>
            <trkpt lon="10.6146066666667" lat="47.4928283333333">
                <ele>1617.5</ele>
                <time>2009-08-25T08:01:49.000Z</time>
                <name>Position 1254</name>
            </trkpt>
            <trkpt lon="10.6146066666667" lat="47.4928283333333">
                <ele>1617.5</ele>
                <time>2009-08-25T08:01:52.000Z</time>
                <name>Position 1255</name>
            </trkpt>
            <trkpt lon="10.6146066666667" lat="47.4928283333333">
                <ele>1617.5</ele>
                <time>2009-08-25T08:01:55.000Z</time>
                <name>Position 1256</name>
            </trkpt>
            <trkpt lon="10.6146083333333" lat="47.49283">
                <ele>1617.5</ele>
                <time>2009-08-25T08:01:58.000Z</time>
                <name>Position 1257</name>
            </trkpt>
            <trkpt lon="10.6146083333333" lat="47.49283">
                <ele>1617.5</ele>
                <time>2009-08-25T08:02:01.000Z</time>
                <name>Position 1258</name>
            </trkpt>
            <trkpt lon="10.6146083333333" lat="47.49283">
                <ele>1617.5</ele>
                <time>2009-08-25T08:02:04.000Z</time>
                <name>Position 1259</name>
            </trkpt>
            <trkpt lon="10.6146083333333" lat="47.49283">
                <ele>1617.5</ele>
                <time>2009-08-25T08:02:07.000Z</time>
                <name>Position 1260</name>
            </trkpt>
            <trkpt lon="10.6146083333333" lat="47.49283">
                <ele>1617.5</ele>
                <time>2009-08-25T08:02:10.000Z</time>
                <name>Position 1261</name>
            </trkpt>
            <trkpt lon="10.6146083333333" lat="47.49283">
                <ele>1617.5</ele>
                <time>2009-08-25T08:02:13.000Z</time>
                <name>Position 1262</name>
            </trkpt>
            <trkpt lon="10.6146083333333" lat="47.4928316666667">
                <ele>1617.5</ele>
                <time>2009-08-25T08:02:16.000Z</time>
                <name>Position 1263</name>
            </trkpt>
            <trkpt lon="10.6146083333333" lat="47.4928316666667">
                <ele>1617.5</ele>
                <time>2009-08-25T08:02:19.000Z</time>
                <name>Position 1264</name>
            </trkpt>
            <trkpt lon="10.6146083333333" lat="47.4928316666667">
                <ele>1617.5</ele>
                <time>2009-08-25T08:02:22.000Z</time>
                <name>Position 1265</name>
            </trkpt>
            <trkpt lon="10.6146083333333" lat="47.4928316666667">
                <ele>1617.5</ele>
                <time>2009-08-25T08:02:25.000Z</time>
                <name>Position 1266</name>
            </trkpt>
            <trkpt lon="10.6146083333333" lat="47.4928316666667">
                <ele>1617.5</ele>
                <time>2009-08-25T08:02:28.000Z</time>
                <name>Position 1267</name>
            </trkpt>
            <trkpt lon="10.61461" lat="47.4928316666667">
                <ele>1617.5</ele>
                <time>2009-08-25T08:02:31.000Z</time>
                <name>Position 1268</name>
            </trkpt>
            <trkpt lon="10.61461" lat="47.4928316666667">
                <ele>1617.5</ele>
                <time>2009-08-25T08:02:34.000Z</time>
                <name>Position 1269</name>
            </trkpt>
            <trkpt lon="10.61461" lat="47.4928316666667">
                <ele>1617.5</ele>
                <time>2009-08-25T08:02:37.000Z</time>
                <name>Position 1270</name>
            </trkpt>
            <trkpt lon="10.61461" lat="47.4928316666667">
                <ele>1617.5</ele>
                <time>2009-08-25T08:02:40.000Z</time>
                <name>Position 1271</name>
            </trkpt>
            <trkpt lon="10.61461" lat="47.4928316666667">
                <ele>1617.5</ele>
                <time>2009-08-25T08:02:43.000Z</time>
                <name>Position 1272</name>
            </trkpt>
            <trkpt lon="10.61461" lat="47.4928316666667">
                <ele>1617.5</ele>
                <time>2009-08-25T08:02:46.000Z</time>
                <name>Position 1273</name>
            </trkpt>
            <trkpt lon="10.61461" lat="47.4928316666667">
                <ele>1617.5</ele>
                <time>2009-08-25T08:02:49.000Z</time>
                <name>Position 1274</name>
            </trkpt>
            <trkpt lon="10.6146133333333" lat="47.4928333333333">
                <ele>1617.5</ele>
                <time>2009-08-25T08:02:52.000Z</time>
                <name>Position 1275</name>
            </trkpt>
            <trkpt lon="10.6146116666667" lat="47.492835">
                <ele>1617.5</ele>
                <time>2009-08-25T08:02:55.000Z</time>
                <name>Position 1276</name>
            </trkpt>
            <trkpt lon="10.6146133333333" lat="47.492835">
                <ele>1617.5</ele>
                <time>2009-08-25T08:02:58.000Z</time>
                <name>Position 1277</name>
            </trkpt>
            <trkpt lon="10.6146133333333" lat="47.492835">
                <ele>1617.5</ele>
                <time>2009-08-25T08:03:01.000Z</time>
                <name>Position 1278</name>
            </trkpt>
            <trkpt lon="10.6146133333333" lat="47.492835">
                <ele>1617.5</ele>
                <time>2009-08-25T08:03:04.000Z</time>
                <name>Position 1279</name>
            </trkpt>
            <trkpt lon="10.6146133333333" lat="47.492835">
                <ele>1617.5</ele>
                <time>2009-08-25T08:03:07.000Z</time>
                <name>Position 1280</name>
            </trkpt>
            <trkpt lon="10.6146133333333" lat="47.492835">
                <ele>1617.5</ele>
                <time>2009-08-25T08:03:10.000Z</time>
                <name>Position 1281</name>
            </trkpt>
            <trkpt lon="10.6146133333333" lat="47.4928333333333">
                <ele>1617.5</ele>
                <time>2009-08-25T08:03:13.000Z</time>
                <name>Position 1282</name>
            </trkpt>
            <trkpt lon="10.6146133333333" lat="47.4928333333333">
                <ele>1617.5</ele>
                <time>2009-08-25T08:03:16.000Z</time>
                <name>Position 1283</name>
            </trkpt>
            <trkpt lon="10.6146133333333" lat="47.4928333333333">
                <ele>1617.5</ele>
                <time>2009-08-25T08:03:19.000Z</time>
                <name>Position 1284</name>
            </trkpt>
            <trkpt lon="10.6146133333333" lat="47.4928333333333">
                <ele>1617.5</ele>
                <time>2009-08-25T08:03:22.000Z</time>
                <name>Position 1285</name>
            </trkpt>
            <trkpt lon="10.6146133333333" lat="47.492835">
                <ele>1617.5</ele>
                <time>2009-08-25T08:03:25.000Z</time>
                <name>Position 1286</name>
            </trkpt>
            <trkpt lon="10.6146133333333" lat="47.4928333333333">
                <ele>1617.4</ele>
                <time>2009-08-25T08:03:28.000Z</time>
                <name>Position 1287</name>
            </trkpt>
            <trkpt lon="10.6146133333333" lat="47.4928333333333">
                <ele>1617.4</ele>
                <time>2009-08-25T08:03:31.000Z</time>
                <name>Position 1288</name>
            </trkpt>
            <trkpt lon="10.6146133333333" lat="47.4928333333333">
                <ele>1617.4</ele>
                <time>2009-08-25T08:03:34.000Z</time>
                <name>Position 1289</name>
            </trkpt>
            <trkpt lon="10.6146133333333" lat="47.4928333333333">
                <ele>1617.4</ele>
                <time>2009-08-25T08:03:37.000Z</time>
                <name>Position 1290</name>
            </trkpt>
            <trkpt lon="10.614615" lat="47.4928333333333">
                <ele>1617.4</ele>
                <time>2009-08-25T08:03:40.000Z</time>
                <name>Position 1291</name>
            </trkpt>
            <trkpt lon="10.614615" lat="47.4928333333333">
                <ele>1617.4</ele>
                <time>2009-08-25T08:03:43.000Z</time>
                <name>Position 1292</name>
            </trkpt>
            <trkpt lon="10.614615" lat="47.4928333333333">
                <ele>1617.4</ele>
                <time>2009-08-25T08:03:46.000Z</time>
                <name>Position 1293</name>
            </trkpt>
            <trkpt lon="10.614615" lat="47.492835">
                <ele>1617.4</ele>
                <time>2009-08-25T08:03:49.000Z</time>
                <name>Position 1294</name>
            </trkpt>
            <trkpt lon="10.6146133333333" lat="47.492835">
                <ele>1617.5</ele>
                <time>2009-08-25T08:03:52.000Z</time>
                <name>Position 1295</name>
            </trkpt>
            <trkpt lon="10.6146116666667" lat="47.4928316666667">
                <ele>1617.8</ele>
                <time>2009-08-25T08:03:55.000Z</time>
                <name>Position 1296</name>
            </trkpt>
            <trkpt lon="10.6146066666667" lat="47.49284">
                <ele>1617.8</ele>
                <time>2009-08-25T08:03:58.000Z</time>
                <name>Position 1297</name>
            </trkpt>
            <trkpt lon="10.6145883333333" lat="47.49284">
                <ele>1617.6</ele>
                <time>2009-08-25T08:04:01.000Z</time>
                <name>Position 1298</name>
            </trkpt>
            <trkpt lon="10.61458" lat="47.492845">
                <ele>1617.8</ele>
                <time>2009-08-25T08:04:04.000Z</time>
                <name>Position 1299</name>
            </trkpt>
            <trkpt lon="10.6145616666667" lat="47.4928416666667">
                <ele>1618.1</ele>
                <time>2009-08-25T08:04:07.000Z</time>
                <name>Position 1300</name>
            </trkpt>
            <trkpt lon="10.614565" lat="47.4928333333333">
                <ele>1619.0</ele>
                <time>2009-08-25T08:04:10.000Z</time>
                <name>Position 1301</name>
            </trkpt>
            <trkpt lon="10.614545" lat="47.492835">
                <ele>1619.6</ele>
                <time>2009-08-25T08:04:13.000Z</time>
                <name>Position 1302</name>
            </trkpt>
            <trkpt lon="10.6145533333333" lat="47.4928583333333">
                <ele>1619.8</ele>
                <time>2009-08-25T08:04:16.000Z</time>
                <name>Position 1303</name>
            </trkpt>
            <trkpt lon="10.6145616666667" lat="47.49288">
                <ele>1620.7</ele>
                <time>2009-08-25T08:04:19.000Z</time>
                <name>Position 1304</name>
            </trkpt>
            <trkpt lon="10.614555" lat="47.492905">
                <ele>1621.3</ele>
                <time>2009-08-25T08:04:22.000Z</time>
                <name>Position 1305</name>
            </trkpt>
            <trkpt lon="10.6145583333333" lat="47.4929183333333">
                <ele>1622.4</ele>
                <time>2009-08-25T08:04:25.000Z</time>
                <name>Position 1306</name>
            </trkpt>
            <trkpt lon="10.614565" lat="47.492935">
                <ele>1623.6</ele>
                <time>2009-08-25T08:04:28.000Z</time>
                <name>Position 1307</name>
            </trkpt>
            <trkpt lon="10.6145766666667" lat="47.49295">
                <ele>1624.8</ele>
                <time>2009-08-25T08:04:31.000Z</time>
                <name>Position 1308</name>
            </trkpt>
            <trkpt lon="10.6145816666667" lat="47.4929666666667">
                <ele>1625.7</ele>
                <time>2009-08-25T08:04:34.000Z</time>
                <name>Position 1309</name>
            </trkpt>
            <trkpt lon="10.6145833333333" lat="47.4929783333333">
                <ele>1627.0</ele>
                <time>2009-08-25T08:04:37.000Z</time>
                <name>Position 1310</name>
            </trkpt>
            <trkpt lon="10.6145916666667" lat="47.4929833333333">
                <ele>1628.2</ele>
                <time>2009-08-25T08:04:40.000Z</time>
                <name>Position 1311</name>
            </trkpt>
            <trkpt lon="10.6146016666667" lat="47.4929966666667">
                <ele>1628.7</ele>
                <time>2009-08-25T08:04:43.000Z</time>
                <name>Position 1312</name>
            </trkpt>
            <trkpt lon="10.61463" lat="47.493005">
                <ele>1627.7</ele>
                <time>2009-08-25T08:04:46.000Z</time>
                <name>Position 1313</name>
            </trkpt>
            <trkpt lon="10.6146366666667" lat="47.4930233333333">
                <ele>1627.7</ele>
                <time>2009-08-25T08:04:49.000Z</time>
                <name>Position 1314</name>
            </trkpt>
            <trkpt lon="10.61465" lat="47.493045">
                <ele>1627.8</ele>
                <time>2009-08-25T08:04:52.000Z</time>
                <name>Position 1315</name>
            </trkpt>
            <trkpt lon="10.6146466666667" lat="47.4930633333333">
                <ele>1628.2</ele>
                <time>2009-08-25T08:04:55.000Z</time>
                <name>Position 1316</name>
            </trkpt>
            <trkpt lon="10.6146283333333" lat="47.4930666666667">
                <ele>1628.9</ele>
                <time>2009-08-25T08:04:58.000Z</time>
                <name>Position 1317</name>
            </trkpt>
            <trkpt lon="10.6146033333333" lat="47.4930616666667">
                <ele>1629.3</ele>
                <time>2009-08-25T08:05:01.000Z</time>
                <name>Position 1318</name>
            </trkpt>
            <trkpt lon="10.61458" lat="47.4930633333333">
                <ele>1631.2</ele>
                <time>2009-08-25T08:05:04.000Z</time>
                <name>Position 1319</name>
            </trkpt>
            <trkpt lon="10.6145816666667" lat="47.49308">
                <ele>1631.9</ele>
                <time>2009-08-25T08:05:07.000Z</time>
                <name>Position 1320</name>
            </trkpt>
            <trkpt lon="10.6145933333333" lat="47.49309">
                <ele>1632.9</ele>
                <time>2009-08-25T08:05:10.000Z</time>
                <name>Position 1321</name>
            </trkpt>
            <trkpt lon="10.61462" lat="47.493105">
                <ele>1634.1</ele>
                <time>2009-08-25T08:05:13.000Z</time>
                <name>Position 1322</name>
            </trkpt>
            <trkpt lon="10.61463" lat="47.4931233333333">
                <ele>1634.3</ele>
                <time>2009-08-25T08:05:16.000Z</time>
                <name>Position 1323</name>
            </trkpt>
            <trkpt lon="10.6146566666667" lat="47.4931366666667">
                <ele>1635.7</ele>
                <time>2009-08-25T08:05:19.000Z</time>
                <name>Position 1324</name>
            </trkpt>
            <trkpt lon="10.6146733333333" lat="47.4931583333333">
                <ele>1636.3</ele>
                <time>2009-08-25T08:05:22.000Z</time>
                <name>Position 1325</name>
            </trkpt>
            <trkpt lon="10.614685" lat="47.4931766666667">
                <ele>1637.5</ele>
                <time>2009-08-25T08:05:25.000Z</time>
                <name>Position 1326</name>
            </trkpt>
            <trkpt lon="10.6147" lat="47.493195">
                <ele>1638.2</ele>
                <time>2009-08-25T08:05:28.000Z</time>
                <name>Position 1327</name>
            </trkpt>
            <trkpt lon="10.614705" lat="47.4932116666667">
                <ele>1638.9</ele>
                <time>2009-08-25T08:05:31.000Z</time>
                <name>Position 1328</name>
            </trkpt>
            <trkpt lon="10.61472" lat="47.4932283333333">
                <ele>1639.5</ele>
                <time>2009-08-25T08:05:34.000Z</time>
                <name>Position 1329</name>
            </trkpt>
            <trkpt lon="10.61473" lat="47.4932366666667">
                <ele>1641.0</ele>
                <time>2009-08-25T08:05:37.000Z</time>
                <name>Position 1330</name>
            </trkpt>
            <trkpt lon="10.6147516666667" lat="47.4932416666667">
                <ele>1642.0</ele>
                <time>2009-08-25T08:05:40.000Z</time>
                <name>Position 1331</name>
            </trkpt>
            <trkpt lon="10.614765" lat="47.4932533333333">
                <ele>1643.3</ele>
                <time>2009-08-25T08:05:43.000Z</time>
                <name>Position 1332</name>
            </trkpt>
            <trkpt lon="10.6147883333333" lat="47.4932633333333">
                <ele>1643.8</ele>
                <time>2009-08-25T08:05:46.000Z</time>
                <name>Position 1333</name>
            </trkpt>
            <trkpt lon="10.6147983333333" lat="47.493275">
                <ele>1644.5</ele>
                <time>2009-08-25T08:05:49.000Z</time>
                <name>Position 1334</name>
            </trkpt>
            <trkpt lon="10.6148366666667" lat="47.493275">
                <ele>1644.8</ele>
                <time>2009-08-25T08:05:52.000Z</time>
                <name>Position 1335</name>
            </trkpt>
            <trkpt lon="10.61486" lat="47.49329">
                <ele>1645.4</ele>
                <time>2009-08-25T08:05:55.000Z</time>
                <name>Position 1336</name>
            </trkpt>
            <trkpt lon="10.6148883333333" lat="47.4932916666667">
                <ele>1646.7</ele>
                <time>2009-08-25T08:05:58.000Z</time>
                <name>Position 1337</name>
            </trkpt>
            <trkpt lon="10.6149133333333" lat="47.493295">
                <ele>1647.4</ele>
                <time>2009-08-25T08:06:01.000Z</time>
                <name>Position 1338</name>
            </trkpt>
            <trkpt lon="10.6149216666667" lat="47.493305">
                <ele>1649.3</ele>
                <time>2009-08-25T08:06:04.000Z</time>
                <name>Position 1339</name>
            </trkpt>
            <trkpt lon="10.61493" lat="47.49332">
                <ele>1649.7</ele>
                <time>2009-08-25T08:06:07.000Z</time>
                <name>Position 1340</name>
            </trkpt>
            <trkpt lon="10.61493" lat="47.4933166666667">
                <ele>1649.6</ele>
                <time>2009-08-25T08:06:10.000Z</time>
                <name>Position 1341</name>
            </trkpt>
            <trkpt lon="10.6149233333333" lat="47.4933116666667">
                <ele>1650.0</ele>
                <time>2009-08-25T08:06:13.000Z</time>
                <name>Position 1342</name>
            </trkpt>
            <trkpt lon="10.6149216666667" lat="47.4933133333333">
                <ele>1650.4</ele>
                <time>2009-08-25T08:06:16.000Z</time>
                <name>Position 1343</name>
            </trkpt>
            <trkpt lon="10.6149233333333" lat="47.4933133333333">
                <ele>1650.6</ele>
                <time>2009-08-25T08:06:19.000Z</time>
                <name>Position 1344</name>
            </trkpt>
            <trkpt lon="10.6149233333333" lat="47.4933133333333">
                <ele>1650.7</ele>
                <time>2009-08-25T08:06:22.000Z</time>
                <name>Position 1345</name>
            </trkpt>
            <trkpt lon="10.614925" lat="47.4933133333333">
                <ele>1650.8</ele>
                <time>2009-08-25T08:06:25.000Z</time>
                <name>Position 1346</name>
            </trkpt>
            <trkpt lon="10.6149283333333" lat="47.4933166666667">
                <ele>1650.8</ele>
                <time>2009-08-25T08:06:28.000Z</time>
                <name>Position 1347</name>
            </trkpt>
            <trkpt lon="10.61493" lat="47.4933183333333">
                <ele>1650.8</ele>
                <time>2009-08-25T08:06:31.000Z</time>
                <name>Position 1348</name>
            </trkpt>
            <trkpt lon="10.6149316666667" lat="47.4933166666667">
                <ele>1650.8</ele>
                <time>2009-08-25T08:06:34.000Z</time>
                <name>Position 1349</name>
            </trkpt>
            <trkpt lon="10.6149366666667" lat="47.493315">
                <ele>1650.8</ele>
                <time>2009-08-25T08:06:37.000Z</time>
                <name>Position 1350</name>
            </trkpt>
            <trkpt lon="10.6149433333333" lat="47.4933116666667">
                <ele>1650.8</ele>
                <time>2009-08-25T08:06:40.000Z</time>
                <name>Position 1351</name>
            </trkpt>
            <trkpt lon="10.6149533333333" lat="47.493305">
                <ele>1650.7</ele>
                <time>2009-08-25T08:06:43.000Z</time>
                <name>Position 1352</name>
            </trkpt>
            <trkpt lon="10.6149683333333" lat="47.4932783333333">
                <ele>1650.5</ele>
                <time>2009-08-25T08:06:46.000Z</time>
                <name>Position 1353</name>
            </trkpt>
            <trkpt lon="10.6149466666667" lat="47.4932883333333">
                <ele>1651.0</ele>
                <time>2009-08-25T08:06:49.000Z</time>
                <name>Position 1354</name>
            </trkpt>
            <trkpt lon="10.614915" lat="47.4933">
                <ele>1651.6</ele>
                <time>2009-08-25T08:06:52.000Z</time>
                <name>Position 1355</name>
            </trkpt>
            <trkpt lon="10.61491" lat="47.4933183333333">
                <ele>1652.1</ele>
                <time>2009-08-25T08:06:55.000Z</time>
                <name>Position 1356</name>
            </trkpt>
            <trkpt lon="10.61489" lat="47.4933133333333">
                <ele>1651.9</ele>
                <time>2009-08-25T08:06:58.000Z</time>
                <name>Position 1357</name>
            </trkpt>
            <trkpt lon="10.6148583333333" lat="47.4933166666667">
                <ele>1652.0</ele>
                <time>2009-08-25T08:07:01.000Z</time>
                <name>Position 1358</name>
            </trkpt>
            <trkpt lon="10.614815" lat="47.4933283333333">
                <ele>1652.1</ele>
                <time>2009-08-25T08:07:04.000Z</time>
                <name>Position 1359</name>
            </trkpt>
            <trkpt lon="10.6147966666667" lat="47.49332">
                <ele>1653.1</ele>
                <time>2009-08-25T08:07:07.000Z</time>
                <name>Position 1360</name>
            </trkpt>
            <trkpt lon="10.61477" lat="47.493335">
                <ele>1653.0</ele>
                <time>2009-08-25T08:07:10.000Z</time>
                <name>Position 1361</name>
            </trkpt>
            <trkpt lon="10.61474" lat="47.4933266666667">
                <ele>1653.7</ele>
                <time>2009-08-25T08:07:13.000Z</time>
                <name>Position 1362</name>
            </trkpt>
            <trkpt lon="10.6147133333333" lat="47.4933316666667">
                <ele>1654.5</ele>
                <time>2009-08-25T08:07:16.000Z</time>
                <name>Position 1363</name>
            </trkpt>
            <trkpt lon="10.6146783333333" lat="47.4933216666667">
                <ele>1655.4</ele>
                <time>2009-08-25T08:07:19.000Z</time>
                <name>Position 1364</name>
            </trkpt>
            <trkpt lon="10.61464" lat="47.4933166666667">
                <ele>1656.2</ele>
                <time>2009-08-25T08:07:22.000Z</time>
                <name>Position 1365</name>
            </trkpt>
            <trkpt lon="10.61462" lat="47.4933116666667">
                <ele>1657.1</ele>
                <time>2009-08-25T08:07:25.000Z</time>
                <name>Position 1366</name>
            </trkpt>
            <trkpt lon="10.6145883333333" lat="47.493305">
                <ele>1658.2</ele>
                <time>2009-08-25T08:07:28.000Z</time>
                <name>Position 1367</name>
            </trkpt>
            <trkpt lon="10.6145566666667" lat="47.49331">
                <ele>1658.3</ele>
                <time>2009-08-25T08:07:31.000Z</time>
                <name>Position 1368</name>
            </trkpt>
            <trkpt lon="10.6145233333333" lat="47.4933066666667">
                <ele>1659.0</ele>
                <time>2009-08-25T08:07:34.000Z</time>
                <name>Position 1369</name>
            </trkpt>
            <trkpt lon="10.6144916666667" lat="47.4933066666667">
                <ele>1659.9</ele>
                <time>2009-08-25T08:07:37.000Z</time>
                <name>Position 1370</name>
            </trkpt>
            <trkpt lon="10.6144766666667" lat="47.4933233333333">
                <ele>1660.4</ele>
                <time>2009-08-25T08:07:40.000Z</time>
                <name>Position 1371</name>
            </trkpt>
            <trkpt lon="10.6144366666667" lat="47.4933183333333">
                <ele>1662.1</ele>
                <time>2009-08-25T08:07:43.000Z</time>
                <name>Position 1372</name>
            </trkpt>
            <trkpt lon="10.6143983333333" lat="47.4933083333333">
                <ele>1663.4</ele>
                <time>2009-08-25T08:07:46.000Z</time>
                <name>Position 1373</name>
            </trkpt>
            <trkpt lon="10.6143666666667" lat="47.4932916666667">
                <ele>1664.4</ele>
                <time>2009-08-25T08:07:49.000Z</time>
                <name>Position 1374</name>
            </trkpt>
            <trkpt lon="10.6143266666667" lat="47.4932766666667">
                <ele>1664.4</ele>
                <time>2009-08-25T08:07:52.000Z</time>
                <name>Position 1375</name>
            </trkpt>
            <trkpt lon="10.6142866666667" lat="47.4932666666667">
                <ele>1664.6</ele>
                <time>2009-08-25T08:07:55.000Z</time>
                <name>Position 1376</name>
            </trkpt>
            <trkpt lon="10.614255" lat="47.493265">
                <ele>1664.9</ele>
                <time>2009-08-25T08:07:58.000Z</time>
                <name>Position 1377</name>
            </trkpt>
            <trkpt lon="10.61422" lat="47.49326">
                <ele>1665.3</ele>
                <time>2009-08-25T08:08:01.000Z</time>
                <name>Position 1378</name>
            </trkpt>
            <trkpt lon="10.6141816666667" lat="47.4932616666667">
                <ele>1666.0</ele>
                <time>2009-08-25T08:08:04.000Z</time>
                <name>Position 1379</name>
            </trkpt>
            <trkpt lon="10.6141416666667" lat="47.4932666666667">
                <ele>1666.1</ele>
                <time>2009-08-25T08:08:07.000Z</time>
                <name>Position 1380</name>
            </trkpt>
            <trkpt lon="10.6140966666667" lat="47.4932683333333">
                <ele>1666.5</ele>
                <time>2009-08-25T08:08:10.000Z</time>
                <name>Position 1381</name>
            </trkpt>
            <trkpt lon="10.6140566666667" lat="47.4932666666667">
                <ele>1667.3</ele>
                <time>2009-08-25T08:08:13.000Z</time>
                <name>Position 1382</name>
            </trkpt>
            <trkpt lon="10.6140233333333" lat="47.4932633333333">
                <ele>1667.7</ele>
                <time>2009-08-25T08:08:16.000Z</time>
                <name>Position 1383</name>
            </trkpt>
            <trkpt lon="10.613995" lat="47.493265">
                <ele>1668.8</ele>
                <time>2009-08-25T08:08:19.000Z</time>
                <name>Position 1384</name>
            </trkpt>
            <trkpt lon="10.6139583333333" lat="47.4932716666667">
                <ele>1669.5</ele>
                <time>2009-08-25T08:08:22.000Z</time>
                <name>Position 1385</name>
            </trkpt>
            <trkpt lon="10.61394" lat="47.4932583333333">
                <ele>1671.4</ele>
                <time>2009-08-25T08:08:25.000Z</time>
                <name>Position 1386</name>
            </trkpt>
            <trkpt lon="10.6138933333333" lat="47.493255">
                <ele>1671.4</ele>
                <time>2009-08-25T08:08:28.000Z</time>
                <name>Position 1387</name>
            </trkpt>
            <trkpt lon="10.6138516666667" lat="47.49326">
                <ele>1672.1</ele>
                <time>2009-08-25T08:08:31.000Z</time>
                <name>Position 1388</name>
            </trkpt>
            <trkpt lon="10.6138183333333" lat="47.4932633333333">
                <ele>1672.8</ele>
                <time>2009-08-25T08:08:34.000Z</time>
                <name>Position 1389</name>
            </trkpt>
            <trkpt lon="10.6137716666667" lat="47.4932583333333">
                <ele>1673.6</ele>
                <time>2009-08-25T08:08:37.000Z</time>
                <name>Position 1390</name>
            </trkpt>
            <trkpt lon="10.6137416666667" lat="47.49326">
                <ele>1674.2</ele>
                <time>2009-08-25T08:08:40.000Z</time>
                <name>Position 1391</name>
            </trkpt>
            <trkpt lon="10.6137116666667" lat="47.49327">
                <ele>1674.8</ele>
                <time>2009-08-25T08:08:43.000Z</time>
                <name>Position 1392</name>
            </trkpt>
            <trkpt lon="10.6136666666667" lat="47.4932683333333">
                <ele>1675.3</ele>
                <time>2009-08-25T08:08:46.000Z</time>
                <name>Position 1393</name>
            </trkpt>
            <trkpt lon="10.61363" lat="47.4932616666667">
                <ele>1675.5</ele>
                <time>2009-08-25T08:08:49.000Z</time>
                <name>Position 1394</name>
            </trkpt>
            <trkpt lon="10.6136" lat="47.4932616666667">
                <ele>1676.1</ele>
                <time>2009-08-25T08:08:52.000Z</time>
                <name>Position 1395</name>
            </trkpt>
            <trkpt lon="10.6135866666667" lat="47.4932566666667">
                <ele>1676.3</ele>
                <time>2009-08-25T08:08:55.000Z</time>
                <name>Position 1396</name>
            </trkpt>
            <trkpt lon="10.6135766666667" lat="47.4932583333333">
                <ele>1676.2</ele>
                <time>2009-08-25T08:08:58.000Z</time>
                <name>Position 1397</name>
            </trkpt>
            <trkpt lon="10.6135733333333" lat="47.4932583333333">
                <ele>1676.2</ele>
                <time>2009-08-25T08:09:01.000Z</time>
                <name>Position 1398</name>
            </trkpt>
            <trkpt lon="10.6135716666667" lat="47.4932616666667">
                <ele>1676.2</ele>
                <time>2009-08-25T08:09:04.000Z</time>
                <name>Position 1399</name>
            </trkpt>
            <trkpt lon="10.6135716666667" lat="47.49326">
                <ele>1676.3</ele>
                <time>2009-08-25T08:09:07.000Z</time>
                <name>Position 1400</name>
            </trkpt>
            <trkpt lon="10.6135733333333" lat="47.49326">
                <ele>1676.4</ele>
                <time>2009-08-25T08:09:10.000Z</time>
                <name>Position 1401</name>
            </trkpt>
            <trkpt lon="10.6135633333333" lat="47.4932633333333">
                <ele>1676.3</ele>
                <time>2009-08-25T08:09:13.000Z</time>
                <name>Position 1402</name>
            </trkpt>
            <trkpt lon="10.613535" lat="47.4932766666667">
                <ele>1675.9</ele>
                <time>2009-08-25T08:09:16.000Z</time>
                <name>Position 1403</name>
            </trkpt>
            <trkpt lon="10.61351" lat="47.4932916666667">
                <ele>1675.9</ele>
                <time>2009-08-25T08:09:19.000Z</time>
                <name>Position 1404</name>
            </trkpt>
            <trkpt lon="10.613485" lat="47.4933066666667">
                <ele>1675.6</ele>
                <time>2009-08-25T08:09:22.000Z</time>
                <name>Position 1405</name>
            </trkpt>
            <trkpt lon="10.61346" lat="47.4933166666667">
                <ele>1675.4</ele>
                <time>2009-08-25T08:09:25.000Z</time>
                <name>Position 1406</name>
            </trkpt>
            <trkpt lon="10.6134666666667" lat="47.49332">
                <ele>1675.2</ele>
                <time>2009-08-25T08:09:28.000Z</time>
                <name>Position 1407</name>
            </trkpt>
            <trkpt lon="10.6134683333333" lat="47.49332">
                <ele>1675.1</ele>
                <time>2009-08-25T08:09:31.000Z</time>
                <name>Position 1408</name>
            </trkpt>
            <trkpt lon="10.6134683333333" lat="47.4933183333333">
                <ele>1675.1</ele>
                <time>2009-08-25T08:09:34.000Z</time>
                <name>Position 1409</name>
            </trkpt>
            <trkpt lon="10.61347" lat="47.49332">
                <ele>1675.1</ele>
                <time>2009-08-25T08:09:37.000Z</time>
                <name>Position 1410</name>
            </trkpt>
            <trkpt lon="10.61347" lat="47.49332">
                <ele>1675.1</ele>
                <time>2009-08-25T08:09:40.000Z</time>
                <name>Position 1411</name>
            </trkpt>
            <trkpt lon="10.6134666666667" lat="47.4933216666667">
                <ele>1674.0</ele>
                <time>2009-08-25T08:09:43.000Z</time>
                <name>Position 1412</name>
            </trkpt>
            <trkpt lon="10.6134666666667" lat="47.4933233333333">
                <ele>1674.0</ele>
                <time>2009-08-25T08:09:46.000Z</time>
                <name>Position 1413</name>
            </trkpt>
            <trkpt lon="10.6134666666667" lat="47.4933216666667">
                <ele>1674.1</ele>
                <time>2009-08-25T08:09:49.000Z</time>
                <name>Position 1414</name>
            </trkpt>
            <trkpt lon="10.613465" lat="47.4933216666667">
                <ele>1674.2</ele>
                <time>2009-08-25T08:09:52.000Z</time>
                <name>Position 1415</name>
            </trkpt>
            <trkpt lon="10.6134666666667" lat="47.4933216666667">
                <ele>1674.4</ele>
                <time>2009-08-25T08:09:55.000Z</time>
                <name>Position 1416</name>
            </trkpt>
            <trkpt lon="10.61345" lat="47.4933233333333">
                <ele>1674.7</ele>
                <time>2009-08-25T08:09:58.000Z</time>
                <name>Position 1417</name>
            </trkpt>
            <trkpt lon="10.61343" lat="47.4933183333333">
                <ele>1675.1</ele>
                <time>2009-08-25T08:10:01.000Z</time>
                <name>Position 1418</name>
            </trkpt>
            <trkpt lon="10.6134416666667" lat="47.4933083333333">
                <ele>1675.0</ele>
                <time>2009-08-25T08:10:04.000Z</time>
                <name>Position 1419</name>
            </trkpt>
            <trkpt lon="10.6134533333333" lat="47.4933083333333">
                <ele>1674.8</ele>
                <time>2009-08-25T08:10:07.000Z</time>
                <name>Position 1420</name>
            </trkpt>
            <trkpt lon="10.6134483333333" lat="47.4933066666667">
                <ele>1674.6</ele>
                <time>2009-08-25T08:10:10.000Z</time>
                <name>Position 1421</name>
            </trkpt>
            <trkpt lon="10.613455" lat="47.4933033333333">
                <ele>1674.4</ele>
                <time>2009-08-25T08:10:13.000Z</time>
                <name>Position 1422</name>
            </trkpt>
            <trkpt lon="10.613455" lat="47.4933033333333">
                <ele>1674.4</ele>
                <time>2009-08-25T08:10:16.000Z</time>
                <name>Position 1423</name>
            </trkpt>
            <trkpt lon="10.613455" lat="47.4933033333333">
                <ele>1674.4</ele>
                <time>2009-08-25T08:10:19.000Z</time>
                <name>Position 1424</name>
            </trkpt>
            <trkpt lon="10.6134566666667" lat="47.493305">
                <ele>1674.4</ele>
                <time>2009-08-25T08:10:22.000Z</time>
                <name>Position 1425</name>
            </trkpt>
            <trkpt lon="10.6134583333333" lat="47.493305">
                <ele>1674.5</ele>
                <time>2009-08-25T08:10:25.000Z</time>
                <name>Position 1426</name>
            </trkpt>
            <trkpt lon="10.6134583333333" lat="47.493305">
                <ele>1674.5</ele>
                <time>2009-08-25T08:10:28.000Z</time>
                <name>Position 1427</name>
            </trkpt>
            <trkpt lon="10.6134583333333" lat="47.493305">
                <ele>1674.5</ele>
                <time>2009-08-25T08:10:31.000Z</time>
                <name>Position 1428</name>
            </trkpt>
            <trkpt lon="10.6134583333333" lat="47.4933066666667">
                <ele>1674.5</ele>
                <time>2009-08-25T08:10:34.000Z</time>
                <name>Position 1429</name>
            </trkpt>
            <trkpt lon="10.6134583333333" lat="47.493305">
                <ele>1674.5</ele>
                <time>2009-08-25T08:10:37.000Z</time>
                <name>Position 1430</name>
            </trkpt>
            <trkpt lon="10.6134583333333" lat="47.4933066666667">
                <ele>1674.5</ele>
                <time>2009-08-25T08:10:40.000Z</time>
                <name>Position 1431</name>
            </trkpt>
            <trkpt lon="10.6134583333333" lat="47.493305">
                <ele>1674.4</ele>
                <time>2009-08-25T08:10:43.000Z</time>
                <name>Position 1432</name>
            </trkpt>
            <trkpt lon="10.6134616666667" lat="47.493305">
                <ele>1674.5</ele>
                <time>2009-08-25T08:10:46.000Z</time>
                <name>Position 1433</name>
            </trkpt>
            <trkpt lon="10.613455" lat="47.4933066666667">
                <ele>1674.4</ele>
                <time>2009-08-25T08:10:49.000Z</time>
                <name>Position 1434</name>
            </trkpt>
            <trkpt lon="10.6134516666667" lat="47.4933083333333">
                <ele>1674.4</ele>
                <time>2009-08-25T08:10:52.000Z</time>
                <name>Position 1435</name>
            </trkpt>
            <trkpt lon="10.6134516666667" lat="47.4933083333333">
                <ele>1674.4</ele>
                <time>2009-08-25T08:10:55.000Z</time>
                <name>Position 1436</name>
            </trkpt>
            <trkpt lon="10.6134516666667" lat="47.4933083333333">
                <ele>1674.4</ele>
                <time>2009-08-25T08:10:58.000Z</time>
                <name>Position 1437</name>
            </trkpt>
            <trkpt lon="10.6134516666667" lat="47.4933083333333">
                <ele>1674.4</ele>
                <time>2009-08-25T08:11:01.000Z</time>
                <name>Position 1438</name>
            </trkpt>
            <trkpt lon="10.6134516666667" lat="47.4933083333333">
                <ele>1674.4</ele>
                <time>2009-08-25T08:11:04.000Z</time>
                <name>Position 1439</name>
            </trkpt>
            <trkpt lon="10.6134516666667" lat="47.4933083333333">
                <ele>1674.4</ele>
                <time>2009-08-25T08:11:07.000Z</time>
                <name>Position 1440</name>
            </trkpt>
            <trkpt lon="10.6134516666667" lat="47.4933083333333">
                <ele>1674.4</ele>
                <time>2009-08-25T08:11:10.000Z</time>
                <name>Position 1441</name>
            </trkpt>
            <trkpt lon="10.6134516666667" lat="47.4933083333333">
                <ele>1674.4</ele>
                <time>2009-08-25T08:11:13.000Z</time>
                <name>Position 1442</name>
            </trkpt>
            <trkpt lon="10.6134516666667" lat="47.4933083333333">
                <ele>1674.4</ele>
                <time>2009-08-25T08:11:16.000Z</time>
                <name>Position 1443</name>
            </trkpt>
            <trkpt lon="10.6134516666667" lat="47.4933083333333">
                <ele>1674.4</ele>
                <time>2009-08-25T08:11:19.000Z</time>
                <name>Position 1444</name>
            </trkpt>
            <trkpt lon="10.6134516666667" lat="47.4933083333333">
                <ele>1674.4</ele>
                <time>2009-08-25T08:11:22.000Z</time>
                <name>Position 1445</name>
            </trkpt>
            <trkpt lon="10.6134516666667" lat="47.4933083333333">
                <ele>1674.4</ele>
                <time>2009-08-25T08:11:25.000Z</time>
                <name>Position 1446</name>
            </trkpt>
            <trkpt lon="10.6134516666667" lat="47.4933083333333">
                <ele>1674.4</ele>
                <time>2009-08-25T08:11:28.000Z</time>
                <name>Position 1447</name>
            </trkpt>
            <trkpt lon="10.6134516666667" lat="47.493305">
                <ele>1674.4</ele>
                <time>2009-08-25T08:11:31.000Z</time>
                <name>Position 1448</name>
            </trkpt>
            <trkpt lon="10.6134683333333" lat="47.493305">
                <ele>1673.5</ele>
                <time>2009-08-25T08:11:34.000Z</time>
                <name>Position 1449</name>
            </trkpt>
            <trkpt lon="10.613495" lat="47.49331">
                <ele>1672.5</ele>
                <time>2009-08-25T08:11:37.000Z</time>
                <name>Position 1450</name>
            </trkpt>
            <trkpt lon="10.61349" lat="47.4933066666667">
                <ele>1672.5</ele>
                <time>2009-08-25T08:11:40.000Z</time>
                <name>Position 1451</name>
            </trkpt>
            <trkpt lon="10.61349" lat="47.4933083333333">
                <ele>1672.5</ele>
                <time>2009-08-25T08:11:43.000Z</time>
                <name>Position 1452</name>
            </trkpt>
            <trkpt lon="10.6134916666667" lat="47.4933083333333">
                <ele>1672.4</ele>
                <time>2009-08-25T08:11:46.000Z</time>
                <name>Position 1453</name>
            </trkpt>
            <trkpt lon="10.6134916666667" lat="47.4933133333333">
                <ele>1673.0</ele>
                <time>2009-08-25T08:11:49.000Z</time>
                <name>Position 1454</name>
            </trkpt>
            <trkpt lon="10.613465" lat="47.4933316666667">
                <ele>1673.0</ele>
                <time>2009-08-25T08:11:52.000Z</time>
                <name>Position 1455</name>
            </trkpt>
            <trkpt lon="10.61347" lat="47.4933516666667">
                <ele>1673.1</ele>
                <time>2009-08-25T08:11:55.000Z</time>
                <name>Position 1456</name>
            </trkpt>
            <trkpt lon="10.6134733333333" lat="47.4933733333333">
                <ele>1673.7</ele>
                <time>2009-08-25T08:11:58.000Z</time>
                <name>Position 1457</name>
            </trkpt>
            <trkpt lon="10.6135016666667" lat="47.493375">
                <ele>1674.1</ele>
                <time>2009-08-25T08:12:01.000Z</time>
                <name>Position 1458</name>
            </trkpt>
            <trkpt lon="10.61353" lat="47.4933866666667">
                <ele>1674.3</ele>
                <time>2009-08-25T08:12:04.000Z</time>
                <name>Position 1459</name>
            </trkpt>
            <trkpt lon="10.61355" lat="47.4933983333333">
                <ele>1674.5</ele>
                <time>2009-08-25T08:12:07.000Z</time>
                <name>Position 1460</name>
            </trkpt>
            <trkpt lon="10.6135883333333" lat="47.493395">
                <ele>1675.0</ele>
                <time>2009-08-25T08:12:10.000Z</time>
                <name>Position 1461</name>
            </trkpt>
            <trkpt lon="10.6136183333333" lat="47.49341">
                <ele>1675.4</ele>
                <time>2009-08-25T08:12:13.000Z</time>
                <name>Position 1462</name>
            </trkpt>
            <trkpt lon="10.6136083333333" lat="47.493435">
                <ele>1675.5</ele>
                <time>2009-08-25T08:12:16.000Z</time>
                <name>Position 1463</name>
            </trkpt>
            <trkpt lon="10.6136183333333" lat="47.4934483333333">
                <ele>1675.8</ele>
                <time>2009-08-25T08:12:19.000Z</time>
                <name>Position 1464</name>
            </trkpt>
            <trkpt lon="10.6136433333333" lat="47.49344">
                <ele>1676.3</ele>
                <time>2009-08-25T08:12:22.000Z</time>
                <name>Position 1465</name>
            </trkpt>
            <trkpt lon="10.6136783333333" lat="47.4934483333333">
                <ele>1676.6</ele>
                <time>2009-08-25T08:12:25.000Z</time>
                <name>Position 1466</name>
            </trkpt>
            <trkpt lon="10.6136866666667" lat="47.4934683333333">
                <ele>1677.1</ele>
                <time>2009-08-25T08:12:28.000Z</time>
                <name>Position 1467</name>
            </trkpt>
            <trkpt lon="10.613695" lat="47.493485">
                <ele>1677.7</ele>
                <time>2009-08-25T08:12:31.000Z</time>
                <name>Position 1468</name>
            </trkpt>
            <trkpt lon="10.6137083333333" lat="47.4935016666667">
                <ele>1678.7</ele>
                <time>2009-08-25T08:12:34.000Z</time>
                <name>Position 1469</name>
            </trkpt>
            <trkpt lon="10.6137233333333" lat="47.4935183333333">
                <ele>1679.3</ele>
                <time>2009-08-25T08:12:37.000Z</time>
                <name>Position 1470</name>
            </trkpt>
            <trkpt lon="10.6137183333333" lat="47.49354">
                <ele>1679.9</ele>
                <time>2009-08-25T08:12:40.000Z</time>
                <name>Position 1471</name>
            </trkpt>
            <trkpt lon="10.6137233333333" lat="47.4935516666667">
                <ele>1680.6</ele>
                <time>2009-08-25T08:12:43.000Z</time>
                <name>Position 1472</name>
            </trkpt>
            <trkpt lon="10.613745" lat="47.4935366666667">
                <ele>1681.8</ele>
                <time>2009-08-25T08:12:46.000Z</time>
                <name>Position 1473</name>
            </trkpt>
            <trkpt lon="10.6137733333333" lat="47.4935283333333">
                <ele>1682.8</ele>
                <time>2009-08-25T08:12:49.000Z</time>
                <name>Position 1474</name>
            </trkpt>
            <trkpt lon="10.6137833333333" lat="47.4935283333333">
                <ele>1683.3</ele>
                <time>2009-08-25T08:12:52.000Z</time>
                <name>Position 1475</name>
            </trkpt>
            <trkpt lon="10.6137916666667" lat="47.493545">
                <ele>1684.1</ele>
                <time>2009-08-25T08:12:55.000Z</time>
                <name>Position 1476</name>
            </trkpt>
            <trkpt lon="10.6138" lat="47.4935516666667">
                <ele>1684.4</ele>
                <time>2009-08-25T08:12:58.000Z</time>
                <name>Position 1477</name>
            </trkpt>
            <trkpt lon="10.6138" lat="47.4935583333333">
                <ele>1684.5</ele>
                <time>2009-08-25T08:13:01.000Z</time>
                <name>Position 1478</name>
            </trkpt>
            <trkpt lon="10.6137933333333" lat="47.4935583333333">
                <ele>1685.3</ele>
                <time>2009-08-25T08:13:04.000Z</time>
                <name>Position 1479</name>
            </trkpt>
            <trkpt lon="10.6138066666667" lat="47.4935516666667">
                <ele>1685.6</ele>
                <time>2009-08-25T08:13:07.000Z</time>
                <name>Position 1480</name>
            </trkpt>
            <trkpt lon="10.613835" lat="47.493555">
                <ele>1685.8</ele>
                <time>2009-08-25T08:13:10.000Z</time>
                <name>Position 1481</name>
            </trkpt>
            <trkpt lon="10.6138366666667" lat="47.49357">
                <ele>1686.7</ele>
                <time>2009-08-25T08:13:13.000Z</time>
                <name>Position 1482</name>
            </trkpt>
            <trkpt lon="10.6138383333333" lat="47.4935833333333">
                <ele>1687.7</ele>
                <time>2009-08-25T08:13:16.000Z</time>
                <name>Position 1483</name>
            </trkpt>
            <trkpt lon="10.613865" lat="47.49359">
                <ele>1688.4</ele>
                <time>2009-08-25T08:13:19.000Z</time>
                <name>Position 1484</name>
            </trkpt>
            <trkpt lon="10.6138933333333" lat="47.4935816666667">
                <ele>1689.1</ele>
                <time>2009-08-25T08:13:22.000Z</time>
                <name>Position 1485</name>
            </trkpt>
            <trkpt lon="10.613925" lat="47.4935733333333">
                <ele>1689.8</ele>
                <time>2009-08-25T08:13:25.000Z</time>
                <name>Position 1486</name>
            </trkpt>
            <trkpt lon="10.6139483333333" lat="47.4935733333333">
                <ele>1690.4</ele>
                <time>2009-08-25T08:13:28.000Z</time>
                <name>Position 1487</name>
            </trkpt>
            <trkpt lon="10.6139683333333" lat="47.4935816666667">
                <ele>1690.8</ele>
                <time>2009-08-25T08:13:31.000Z</time>
                <name>Position 1488</name>
            </trkpt>
            <trkpt lon="10.6139883333333" lat="47.4935883333333">
                <ele>1691.4</ele>
                <time>2009-08-25T08:13:34.000Z</time>
                <name>Position 1489</name>
            </trkpt>
            <trkpt lon="10.61401" lat="47.4935933333333">
                <ele>1692.1</ele>
                <time>2009-08-25T08:13:37.000Z</time>
                <name>Position 1490</name>
            </trkpt>
            <trkpt lon="10.6140366666667" lat="47.4935933333333">
                <ele>1692.3</ele>
                <time>2009-08-25T08:13:40.000Z</time>
                <name>Position 1491</name>
            </trkpt>
            <trkpt lon="10.6140583333333" lat="47.4936016666667">
                <ele>1693.1</ele>
                <time>2009-08-25T08:13:43.000Z</time>
                <name>Position 1492</name>
            </trkpt>
            <trkpt lon="10.61407" lat="47.4936133333333">
                <ele>1693.4</ele>
                <time>2009-08-25T08:13:46.000Z</time>
                <name>Position 1493</name>
            </trkpt>
            <trkpt lon="10.6140933333333" lat="47.4936133333333">
                <ele>1694.0</ele>
                <time>2009-08-25T08:13:49.000Z</time>
                <name>Position 1494</name>
            </trkpt>
            <trkpt lon="10.6140983333333" lat="47.4936133333333">
                <ele>1693.5</ele>
                <time>2009-08-25T08:13:52.000Z</time>
                <name>Position 1495</name>
            </trkpt>
            <trkpt lon="10.6141066666667" lat="47.49362">
                <ele>1693.8</ele>
                <time>2009-08-25T08:13:55.000Z</time>
                <name>Position 1496</name>
            </trkpt>
            <trkpt lon="10.6140933333333" lat="47.4936283333333">
                <ele>1694.6</ele>
                <time>2009-08-25T08:13:58.000Z</time>
                <name>Position 1497</name>
            </trkpt>
            <trkpt lon="10.6140633333333" lat="47.4936366666667">
                <ele>1695.2</ele>
                <time>2009-08-25T08:14:01.000Z</time>
                <name>Position 1498</name>
            </trkpt>
            <trkpt lon="10.614045" lat="47.4936466666667">
                <ele>1695.7</ele>
                <time>2009-08-25T08:14:04.000Z</time>
                <name>Position 1499</name>
            </trkpt>
            <trkpt lon="10.6140533333333" lat="47.493655">
                <ele>1696.3</ele>
                <time>2009-08-25T08:14:07.000Z</time>
                <name>Position 1500</name>
            </trkpt>
            <trkpt lon="10.6140766666667" lat="47.49366">
                <ele>1696.9</ele>
                <time>2009-08-25T08:14:10.000Z</time>
                <name>Position 1501</name>
            </trkpt>
            <trkpt lon="10.6141033333333" lat="47.4936566666667">
                <ele>1697.6</ele>
                <time>2009-08-25T08:14:13.000Z</time>
                <name>Position 1502</name>
            </trkpt>
            <trkpt lon="10.6141466666667" lat="47.4936583333333">
                <ele>1697.8</ele>
                <time>2009-08-25T08:14:16.000Z</time>
                <name>Position 1503</name>
            </trkpt>
            <trkpt lon="10.6141633333333" lat="47.4936733333333">
                <ele>1698.5</ele>
                <time>2009-08-25T08:14:19.000Z</time>
                <name>Position 1504</name>
            </trkpt>
            <trkpt lon="10.6141366666667" lat="47.493685">
                <ele>1699.4</ele>
                <time>2009-08-25T08:14:22.000Z</time>
                <name>Position 1505</name>
            </trkpt>
            <trkpt lon="10.6141116666667" lat="47.4936916666667">
                <ele>1699.9</ele>
                <time>2009-08-25T08:14:25.000Z</time>
                <name>Position 1506</name>
            </trkpt>
            <trkpt lon="10.614085" lat="47.4936983333333">
                <ele>1700.9</ele>
                <time>2009-08-25T08:14:28.000Z</time>
                <name>Position 1507</name>
            </trkpt>
            <trkpt lon="10.6140633333333" lat="47.4937066666667">
                <ele>1701.2</ele>
                <time>2009-08-25T08:14:31.000Z</time>
                <name>Position 1508</name>
            </trkpt>
            <trkpt lon="10.614045" lat="47.4937166666667">
                <ele>1701.6</ele>
                <time>2009-08-25T08:14:34.000Z</time>
                <name>Position 1509</name>
            </trkpt>
            <trkpt lon="10.6140466666667" lat="47.4937316666667">
                <ele>1701.9</ele>
                <time>2009-08-25T08:14:37.000Z</time>
                <name>Position 1510</name>
            </trkpt>
            <trkpt lon="10.6140783333333" lat="47.4937383333333">
                <ele>1702.7</ele>
                <time>2009-08-25T08:14:40.000Z</time>
                <name>Position 1511</name>
            </trkpt>
            <trkpt lon="10.6141116666667" lat="47.4937383333333">
                <ele>1703.3</ele>
                <time>2009-08-25T08:14:43.000Z</time>
                <name>Position 1512</name>
            </trkpt>
            <trkpt lon="10.61415" lat="47.493745">
                <ele>1703.5</ele>
                <time>2009-08-25T08:14:46.000Z</time>
                <name>Position 1513</name>
            </trkpt>
            <trkpt lon="10.61419" lat="47.4937566666667">
                <ele>1703.9</ele>
                <time>2009-08-25T08:14:49.000Z</time>
                <name>Position 1514</name>
            </trkpt>
            <trkpt lon="10.6141933333333" lat="47.49376">
                <ele>1703.9</ele>
                <time>2009-08-25T08:14:52.000Z</time>
                <name>Position 1515</name>
            </trkpt>
            <trkpt lon="10.6141916666667" lat="47.49376">
                <ele>1703.8</ele>
                <time>2009-08-25T08:14:55.000Z</time>
                <name>Position 1516</name>
            </trkpt>
            <trkpt lon="10.6141933333333" lat="47.4937616666667">
                <ele>1703.7</ele>
                <time>2009-08-25T08:14:58.000Z</time>
                <name>Position 1517</name>
            </trkpt>
            <trkpt lon="10.6141933333333" lat="47.4937616666667">
                <ele>1703.6</ele>
                <time>2009-08-25T08:15:01.000Z</time>
                <name>Position 1518</name>
            </trkpt>
            <trkpt lon="10.6142083333333" lat="47.4937683333333">
                <ele>1703.5</ele>
                <time>2009-08-25T08:15:04.000Z</time>
                <name>Position 1519</name>
            </trkpt>
            <trkpt lon="10.6142333333333" lat="47.4937816666667">
                <ele>1703.9</ele>
                <time>2009-08-25T08:15:07.000Z</time>
                <name>Position 1520</name>
            </trkpt>
            <trkpt lon="10.6142616666667" lat="47.4937983333333">
                <ele>1704.3</ele>
                <time>2009-08-25T08:15:10.000Z</time>
                <name>Position 1521</name>
            </trkpt>
            <trkpt lon="10.6142816666667" lat="47.4938083333333">
                <ele>1704.6</ele>
                <time>2009-08-25T08:15:13.000Z</time>
                <name>Position 1522</name>
            </trkpt>
            <trkpt lon="10.6142783333333" lat="47.4938083333333">
                <ele>1704.5</ele>
                <time>2009-08-25T08:15:16.000Z</time>
                <name>Position 1523</name>
            </trkpt>
            <trkpt lon="10.6142783333333" lat="47.4938083333333">
                <ele>1704.3</ele>
                <time>2009-08-25T08:15:19.000Z</time>
                <name>Position 1524</name>
            </trkpt>
            <trkpt lon="10.6142783333333" lat="47.4938083333333">
                <ele>1704.3</ele>
                <time>2009-08-25T08:15:22.000Z</time>
                <name>Position 1525</name>
            </trkpt>
            <trkpt lon="10.6142783333333" lat="47.4938066666667">
                <ele>1704.3</ele>
                <time>2009-08-25T08:15:25.000Z</time>
                <name>Position 1526</name>
            </trkpt>
            <trkpt lon="10.6142783333333" lat="47.4938083333333">
                <ele>1704.2</ele>
                <time>2009-08-25T08:15:28.000Z</time>
                <name>Position 1527</name>
            </trkpt>
            <trkpt lon="10.614275" lat="47.4938116666667">
                <ele>1704.3</ele>
                <time>2009-08-25T08:15:31.000Z</time>
                <name>Position 1528</name>
            </trkpt>
            <trkpt lon="10.614275" lat="47.49381">
                <ele>1704.3</ele>
                <time>2009-08-25T08:15:34.000Z</time>
                <name>Position 1529</name>
            </trkpt>
            <trkpt lon="10.614275" lat="47.4938083333333">
                <ele>1704.2</ele>
                <time>2009-08-25T08:15:37.000Z</time>
                <name>Position 1530</name>
            </trkpt>
            <trkpt lon="10.6142766666667" lat="47.4938083333333">
                <ele>1704.2</ele>
                <time>2009-08-25T08:15:40.000Z</time>
                <name>Position 1531</name>
            </trkpt>
            <trkpt lon="10.6142783333333" lat="47.4938083333333">
                <ele>1704.1</ele>
                <time>2009-08-25T08:15:43.000Z</time>
                <name>Position 1532</name>
            </trkpt>
            <trkpt lon="10.61428" lat="47.4938083333333">
                <ele>1703.9</ele>
                <time>2009-08-25T08:15:46.000Z</time>
                <name>Position 1533</name>
            </trkpt>
            <trkpt lon="10.61428" lat="47.49381">
                <ele>1703.9</ele>
                <time>2009-08-25T08:15:49.000Z</time>
                <name>Position 1534</name>
            </trkpt>
            <trkpt lon="10.6142716666667" lat="47.4938166666667">
                <ele>1704.2</ele>
                <time>2009-08-25T08:15:52.000Z</time>
                <name>Position 1535</name>
            </trkpt>
            <trkpt lon="10.6142716666667" lat="47.493815">
                <ele>1704.1</ele>
                <time>2009-08-25T08:15:55.000Z</time>
                <name>Position 1536</name>
            </trkpt>
            <trkpt lon="10.6142783333333" lat="47.4938133333333">
                <ele>1704.0</ele>
                <time>2009-08-25T08:15:58.000Z</time>
                <name>Position 1537</name>
            </trkpt>
            <trkpt lon="10.6142783333333" lat="47.4938133333333">
                <ele>1704.0</ele>
                <time>2009-08-25T08:16:01.000Z</time>
                <name>Position 1538</name>
            </trkpt>
            <trkpt lon="10.6142733333333" lat="47.4938166666667">
                <ele>1704.0</ele>
                <time>2009-08-25T08:16:04.000Z</time>
                <name>Position 1539</name>
            </trkpt>
            <trkpt lon="10.614275" lat="47.4938166666667">
                <ele>1704.0</ele>
                <time>2009-08-25T08:16:07.000Z</time>
                <name>Position 1540</name>
            </trkpt>
            <trkpt lon="10.6142733333333" lat="47.4938183333333">
                <ele>1704.1</ele>
                <time>2009-08-25T08:16:10.000Z</time>
                <name>Position 1541</name>
            </trkpt>
            <trkpt lon="10.614285" lat="47.4938316666667">
                <ele>1705.2</ele>
                <time>2009-08-25T08:16:13.000Z</time>
                <name>Position 1542</name>
            </trkpt>
            <trkpt lon="10.614275" lat="47.4938333333333">
                <ele>1706.1</ele>
                <time>2009-08-25T08:16:16.000Z</time>
                <name>Position 1543</name>
            </trkpt>
            <trkpt lon="10.614285" lat="47.4938333333333">
                <ele>1706.7</ele>
                <time>2009-08-25T08:16:19.000Z</time>
                <name>Position 1544</name>
            </trkpt>
            <trkpt lon="10.6143233333333" lat="47.4938566666667">
                <ele>1707.0</ele>
                <time>2009-08-25T08:16:22.000Z</time>
                <name>Position 1545</name>
            </trkpt>
            <trkpt lon="10.6143483333333" lat="47.493885">
                <ele>1707.5</ele>
                <time>2009-08-25T08:16:25.000Z</time>
                <name>Position 1546</name>
            </trkpt>
            <trkpt lon="10.6143583333333" lat="47.4939133333333">
                <ele>1708.5</ele>
                <time>2009-08-25T08:16:28.000Z</time>
                <name>Position 1547</name>
            </trkpt>
            <trkpt lon="10.6143616666667" lat="47.4939466666667">
                <ele>1708.6</ele>
                <time>2009-08-25T08:16:31.000Z</time>
                <name>Position 1548</name>
            </trkpt>
            <trkpt lon="10.6143766666667" lat="47.4939683333333">
                <ele>1709.4</ele>
                <time>2009-08-25T08:16:34.000Z</time>
                <name>Position 1549</name>
            </trkpt>
            <trkpt lon="10.6143783333333" lat="47.4939883333333">
                <ele>1709.9</ele>
                <time>2009-08-25T08:16:37.000Z</time>
                <name>Position 1550</name>
            </trkpt>
            <trkpt lon="10.6143816666667" lat="47.4939883333333">
                <ele>1709.7</ele>
                <time>2009-08-25T08:16:40.000Z</time>
                <name>Position 1551</name>
            </trkpt>
            <trkpt lon="10.6143816666667" lat="47.4939883333333">
                <ele>1709.7</ele>
                <time>2009-08-25T08:16:43.000Z</time>
                <name>Position 1552</name>
            </trkpt>
            <trkpt lon="10.6143816666667" lat="47.4939883333333">
                <ele>1709.7</ele>
                <time>2009-08-25T08:16:46.000Z</time>
                <name>Position 1553</name>
            </trkpt>
            <trkpt lon="10.6143833333333" lat="47.49399">
                <ele>1709.8</ele>
                <time>2009-08-25T08:16:49.000Z</time>
                <name>Position 1554</name>
            </trkpt>
            <trkpt lon="10.6143833333333" lat="47.4939883333333">
                <ele>1710.0</ele>
                <time>2009-08-25T08:16:52.000Z</time>
                <name>Position 1555</name>
            </trkpt>
            <trkpt lon="10.6143833333333" lat="47.4939883333333">
                <ele>1710.0</ele>
                <time>2009-08-25T08:16:55.000Z</time>
                <name>Position 1556</name>
            </trkpt>
            <trkpt lon="10.6143833333333" lat="47.4939883333333">
                <ele>1710.0</ele>
                <time>2009-08-25T08:16:58.000Z</time>
                <name>Position 1557</name>
            </trkpt>
            <trkpt lon="10.6143833333333" lat="47.4939883333333">
                <ele>1710.0</ele>
                <time>2009-08-25T08:17:01.000Z</time>
                <name>Position 1558</name>
            </trkpt>
            <trkpt lon="10.6143533333333" lat="47.493975">
                <ele>1710.0</ele>
                <time>2009-08-25T08:17:04.000Z</time>
                <name>Position 1559</name>
            </trkpt>
            <trkpt lon="10.6143316666667" lat="47.493955">
                <ele>1710.0</ele>
                <time>2009-08-25T08:17:07.000Z</time>
                <name>Position 1560</name>
            </trkpt>
            <trkpt lon="10.614315" lat="47.4939366666667">
                <ele>1710.2</ele>
                <time>2009-08-25T08:17:10.000Z</time>
                <name>Position 1561</name>
            </trkpt>
            <trkpt lon="10.614295" lat="47.493925">
                <ele>1710.1</ele>
                <time>2009-08-25T08:17:13.000Z</time>
                <name>Position 1562</name>
            </trkpt>
            <trkpt lon="10.6142683333333" lat="47.493915">
                <ele>1710.0</ele>
                <time>2009-08-25T08:17:16.000Z</time>
                <name>Position 1563</name>
            </trkpt>
            <trkpt lon="10.6142383333333" lat="47.49392">
                <ele>1710.3</ele>
                <time>2009-08-25T08:17:19.000Z</time>
                <name>Position 1564</name>
            </trkpt>
            <trkpt lon="10.6142166666667" lat="47.493905">
                <ele>1710.2</ele>
                <time>2009-08-25T08:17:22.000Z</time>
                <name>Position 1565</name>
            </trkpt>
            <trkpt lon="10.6142" lat="47.4938866666667">
                <ele>1709.0</ele>
                <time>2009-08-25T08:17:25.000Z</time>
                <name>Position 1566</name>
            </trkpt>
            <trkpt lon="10.6141983333333" lat="47.4938916666667">
                <ele>1708.1</ele>
                <time>2009-08-25T08:17:28.000Z</time>
                <name>Position 1567</name>
            </trkpt>
            <trkpt lon="10.6141966666667" lat="47.493895">
                <ele>1708.2</ele>
                <time>2009-08-25T08:17:31.000Z</time>
                <name>Position 1568</name>
            </trkpt>
            <trkpt lon="10.614205" lat="47.4939">
                <ele>1708.2</ele>
                <time>2009-08-25T08:17:34.000Z</time>
                <name>Position 1569</name>
            </trkpt>
            <trkpt lon="10.6142" lat="47.4938933333333">
                <ele>1708.5</ele>
                <time>2009-08-25T08:17:37.000Z</time>
                <name>Position 1570</name>
            </trkpt>
            <trkpt lon="10.6142016666667" lat="47.4938916666667">
                <ele>1708.5</ele>
                <time>2009-08-25T08:17:40.000Z</time>
                <name>Position 1571</name>
            </trkpt>
            <trkpt lon="10.6142" lat="47.4938916666667">
                <ele>1708.6</ele>
                <time>2009-08-25T08:17:43.000Z</time>
                <name>Position 1572</name>
            </trkpt>
            <trkpt lon="10.6142016666667" lat="47.49389">
                <ele>1708.7</ele>
                <time>2009-08-25T08:17:46.000Z</time>
                <name>Position 1573</name>
            </trkpt>
            <trkpt lon="10.6142" lat="47.4938916666667">
                <ele>1708.6</ele>
                <time>2009-08-25T08:17:49.000Z</time>
                <name>Position 1574</name>
            </trkpt>
            <trkpt lon="10.6142" lat="47.4938916666667">
                <ele>1708.7</ele>
                <time>2009-08-25T08:17:52.000Z</time>
                <name>Position 1575</name>
            </trkpt>
            <trkpt lon="10.6142016666667" lat="47.4938883333333">
                <ele>1708.6</ele>
                <time>2009-08-25T08:17:55.000Z</time>
                <name>Position 1576</name>
            </trkpt>
            <trkpt lon="10.6142016666667" lat="47.4938883333333">
                <ele>1708.7</ele>
                <time>2009-08-25T08:17:58.000Z</time>
                <name>Position 1577</name>
            </trkpt>
            <trkpt lon="10.6142016666667" lat="47.4938866666667">
                <ele>1708.8</ele>
                <time>2009-08-25T08:18:01.000Z</time>
                <name>Position 1578</name>
            </trkpt>
            <trkpt lon="10.6142016666667" lat="47.493885">
                <ele>1708.9</ele>
                <time>2009-08-25T08:32:19.000Z</time>
                <name>Position 1579</name>
            </trkpt>
            <trkpt lon="10.6142016666667" lat="47.493885">
                <ele>1708.9</ele>
                <time>2009-08-25T08:32:22.000Z</time>
                <name>Position 1580</name>
            </trkpt>
            <trkpt lon="10.6142016666667" lat="47.493885">
                <ele>1708.9</ele>
                <time>2009-08-25T08:32:25.000Z</time>
                <name>Position 1581</name>
            </trkpt>
            <trkpt lon="10.6142016666667" lat="47.493885">
                <ele>1708.9</ele>
                <time>2009-08-25T08:32:28.000Z</time>
                <name>Position 1582</name>
            </trkpt>
            <trkpt lon="10.6142016666667" lat="47.493885">
                <ele>1708.9</ele>
                <time>2009-08-25T08:32:31.000Z</time>
                <name>Position 1583</name>
            </trkpt>
            <trkpt lon="10.6142016666667" lat="47.4938866666667">
                <ele>1708.9</ele>
                <time>2009-08-25T08:32:34.000Z</time>
                <name>Position 1584</name>
            </trkpt>
            <trkpt lon="10.6142" lat="47.4938883333333">
                <ele>1708.7</ele>
                <time>2009-08-25T08:32:37.000Z</time>
                <name>Position 1585</name>
            </trkpt>
            <trkpt lon="10.6142016666667" lat="47.4938883333333">
                <ele>1708.4</ele>
                <time>2009-08-25T08:32:40.000Z</time>
                <name>Position 1586</name>
            </trkpt>
            <trkpt lon="10.6142" lat="47.4938883333333">
                <ele>1708.6</ele>
                <time>2009-08-25T08:32:43.000Z</time>
                <name>Position 1587</name>
            </trkpt>
            <trkpt lon="10.6142033333333" lat="47.4938883333333">
                <ele>1708.4</ele>
                <time>2009-08-25T08:32:46.000Z</time>
                <name>Position 1588</name>
            </trkpt>
            <trkpt lon="10.6142033333333" lat="47.4938883333333">
                <ele>1708.1</ele>
                <time>2009-08-25T08:32:49.000Z</time>
                <name>Position 1589</name>
            </trkpt>
            <trkpt lon="10.6142033333333" lat="47.4938883333333">
                <ele>1708.0</ele>
                <time>2009-08-25T08:32:52.000Z</time>
                <name>Position 1590</name>
            </trkpt>
            <trkpt lon="10.6142033333333" lat="47.4938883333333">
                <ele>1708.0</ele>
                <time>2009-08-25T08:32:55.000Z</time>
                <name>Position 1591</name>
            </trkpt>
            <trkpt lon="10.6142033333333" lat="47.49389">
                <ele>1708.0</ele>
                <time>2009-08-25T08:32:58.000Z</time>
                <name>Position 1592</name>
            </trkpt>
            <trkpt lon="10.614215" lat="47.4938783333333">
                <ele>1707.9</ele>
                <time>2009-08-25T08:33:01.000Z</time>
                <name>Position 1593</name>
            </trkpt>
            <trkpt lon="10.6142066666667" lat="47.4938783333333">
                <ele>1708.5</ele>
                <time>2009-08-25T08:33:04.000Z</time>
                <name>Position 1594</name>
            </trkpt>
            <trkpt lon="10.6142116666667" lat="47.4938783333333">
                <ele>1708.4</ele>
                <time>2009-08-25T08:33:07.000Z</time>
                <name>Position 1595</name>
            </trkpt>
            <trkpt lon="10.6142083333333" lat="47.4938783333333">
                <ele>1709.1</ele>
                <time>2009-08-25T08:33:10.000Z</time>
                <name>Position 1596</name>
            </trkpt>
            <trkpt lon="10.6142033333333" lat="47.4938816666667">
                <ele>1708.9</ele>
                <time>2009-08-25T08:33:13.000Z</time>
                <name>Position 1597</name>
            </trkpt>
            <trkpt lon="10.6142066666667" lat="47.493895">
                <ele>1709.1</ele>
                <time>2009-08-25T08:33:16.000Z</time>
                <name>Position 1598</name>
            </trkpt>
            <trkpt lon="10.6142116666667" lat="47.4939">
                <ele>1709.2</ele>
                <time>2009-08-25T08:33:19.000Z</time>
                <name>Position 1599</name>
            </trkpt>
            <trkpt lon="10.614195" lat="47.4939116666667">
                <ele>1708.7</ele>
                <time>2009-08-25T08:33:22.000Z</time>
                <name>Position 1600</name>
            </trkpt>
            <trkpt lon="10.6141866666667" lat="47.4939233333333">
                <ele>1708.7</ele>
                <time>2009-08-25T08:33:25.000Z</time>
                <name>Position 1601</name>
            </trkpt>
            <trkpt lon="10.614195" lat="47.493925">
                <ele>1708.6</ele>
                <time>2009-08-25T08:33:28.000Z</time>
                <name>Position 1602</name>
            </trkpt>
            <trkpt lon="10.6142183333333" lat="47.4939283333333">
                <ele>1708.7</ele>
                <time>2009-08-25T08:33:31.000Z</time>
                <name>Position 1603</name>
            </trkpt>
            <trkpt lon="10.6142583333333" lat="47.493935">
                <ele>1708.6</ele>
                <time>2009-08-25T08:33:34.000Z</time>
                <name>Position 1604</name>
            </trkpt>
            <trkpt lon="10.614285" lat="47.493965">
                <ele>1708.6</ele>
                <time>2009-08-25T08:33:37.000Z</time>
                <name>Position 1605</name>
            </trkpt>
            <trkpt lon="10.6143" lat="47.4939933333333">
                <ele>1709.5</ele>
                <time>2009-08-25T08:33:40.000Z</time>
                <name>Position 1606</name>
            </trkpt>
            <trkpt lon="10.6143183333333" lat="47.494005">
                <ele>1711.5</ele>
                <time>2009-08-25T08:33:43.000Z</time>
                <name>Position 1607</name>
            </trkpt>
            <trkpt lon="10.6143433333333" lat="47.494015">
                <ele>1712.5</ele>
                <time>2009-08-25T08:33:46.000Z</time>
                <name>Position 1608</name>
            </trkpt>
            <trkpt lon="10.61436" lat="47.4940466666667">
                <ele>1713.2</ele>
                <time>2009-08-25T08:33:49.000Z</time>
                <name>Position 1609</name>
            </trkpt>
            <trkpt lon="10.6143366666667" lat="47.494075">
                <ele>1714.4</ele>
                <time>2009-08-25T08:33:52.000Z</time>
                <name>Position 1610</name>
            </trkpt>
            <trkpt lon="10.6143066666667" lat="47.494105">
                <ele>1713.6</ele>
                <time>2009-08-25T08:33:55.000Z</time>
                <name>Position 1611</name>
            </trkpt>
            <trkpt lon="10.6142716666667" lat="47.4941416666667">
                <ele>1713.2</ele>
                <time>2009-08-25T08:33:58.000Z</time>
                <name>Position 1612</name>
            </trkpt>
            <trkpt lon="10.6142566666667" lat="47.49418">
                <ele>1713.0</ele>
                <time>2009-08-25T08:34:01.000Z</time>
                <name>Position 1613</name>
            </trkpt>
            <trkpt lon="10.61424" lat="47.494215">
                <ele>1712.8</ele>
                <time>2009-08-25T08:34:04.000Z</time>
                <name>Position 1614</name>
            </trkpt>
            <trkpt lon="10.614225" lat="47.4942483333333">
                <ele>1712.7</ele>
                <time>2009-08-25T08:34:07.000Z</time>
                <name>Position 1615</name>
            </trkpt>
            <trkpt lon="10.614205" lat="47.4942833333333">
                <ele>1712.5</ele>
                <time>2009-08-25T08:34:10.000Z</time>
                <name>Position 1616</name>
            </trkpt>
            <trkpt lon="10.6142133333333" lat="47.49432">
                <ele>1712.1</ele>
                <time>2009-08-25T08:34:13.000Z</time>
                <name>Position 1617</name>
            </trkpt>
            <trkpt lon="10.6142083333333" lat="47.4943516666667">
                <ele>1712.1</ele>
                <time>2009-08-25T08:34:16.000Z</time>
                <name>Position 1618</name>
            </trkpt>
            <trkpt lon="10.61421" lat="47.4943816666667">
                <ele>1711.9</ele>
                <time>2009-08-25T08:34:19.000Z</time>
                <name>Position 1619</name>
            </trkpt>
            <trkpt lon="10.6142283333333" lat="47.4944066666667">
                <ele>1712.1</ele>
                <time>2009-08-25T08:34:22.000Z</time>
                <name>Position 1620</name>
            </trkpt>
            <trkpt lon="10.61423" lat="47.4944316666667">
                <ele>1712.4</ele>
                <time>2009-08-25T08:34:25.000Z</time>
                <name>Position 1621</name>
            </trkpt>
            <trkpt lon="10.6142233333333" lat="47.4944583333333">
                <ele>1712.7</ele>
                <time>2009-08-25T08:34:28.000Z</time>
                <name>Position 1622</name>
            </trkpt>
            <trkpt lon="10.614215" lat="47.4944866666667">
                <ele>1712.6</ele>
                <time>2009-08-25T08:34:31.000Z</time>
                <name>Position 1623</name>
            </trkpt>
            <trkpt lon="10.6142033333333" lat="47.4945066666667">
                <ele>1712.8</ele>
                <time>2009-08-25T08:34:34.000Z</time>
                <name>Position 1624</name>
            </trkpt>
            <trkpt lon="10.6142033333333" lat="47.4945183333333">
                <ele>1712.6</ele>
                <time>2009-08-25T08:34:37.000Z</time>
                <name>Position 1625</name>
            </trkpt>
            <trkpt lon="10.6142066666667" lat="47.49454">
                <ele>1713.4</ele>
                <time>2009-08-25T08:34:40.000Z</time>
                <name>Position 1626</name>
            </trkpt>
            <trkpt lon="10.6142016666667" lat="47.4945666666667">
                <ele>1714.0</ele>
                <time>2009-08-25T08:34:43.000Z</time>
                <name>Position 1627</name>
            </trkpt>
            <trkpt lon="10.6141983333333" lat="47.4945866666667">
                <ele>1714.5</ele>
                <time>2009-08-25T08:34:46.000Z</time>
                <name>Position 1628</name>
            </trkpt>
            <trkpt lon="10.6142033333333" lat="47.49459">
                <ele>1714.9</ele>
                <time>2009-08-25T08:34:49.000Z</time>
                <name>Position 1629</name>
            </trkpt>
            <trkpt lon="10.6141966666667" lat="47.4946133333333">
                <ele>1715.3</ele>
                <time>2009-08-25T08:34:52.000Z</time>
                <name>Position 1630</name>
            </trkpt>
            <trkpt lon="10.61418" lat="47.4946366666667">
                <ele>1715.9</ele>
                <time>2009-08-25T08:34:55.000Z</time>
                <name>Position 1631</name>
            </trkpt>
            <trkpt lon="10.61418" lat="47.4946566666667">
                <ele>1715.5</ele>
                <time>2009-08-25T08:34:58.000Z</time>
                <name>Position 1632</name>
            </trkpt>
            <trkpt lon="10.6141866666667" lat="47.4946683333333">
                <ele>1715.9</ele>
                <time>2009-08-25T08:35:01.000Z</time>
                <name>Position 1633</name>
            </trkpt>
            <trkpt lon="10.6141983333333" lat="47.4946816666667">
                <ele>1716.2</ele>
                <time>2009-08-25T08:35:04.000Z</time>
                <name>Position 1634</name>
            </trkpt>
            <trkpt lon="10.6141983333333" lat="47.4946833333333">
                <ele>1716.3</ele>
                <time>2009-08-25T08:35:07.000Z</time>
                <name>Position 1635</name>
            </trkpt>
            <trkpt lon="10.6142" lat="47.4946866666667">
                <ele>1716.5</ele>
                <time>2009-08-25T08:35:10.000Z</time>
                <name>Position 1636</name>
            </trkpt>
            <trkpt lon="10.614195" lat="47.4946916666667">
                <ele>1716.8</ele>
                <time>2009-08-25T08:35:13.000Z</time>
                <name>Position 1637</name>
            </trkpt>
            <trkpt lon="10.6141966666667" lat="47.4946883333333">
                <ele>1716.8</ele>
                <time>2009-08-25T08:35:16.000Z</time>
                <name>Position 1638</name>
            </trkpt>
            <trkpt lon="10.6142083333333" lat="47.4946866666667">
                <ele>1717.0</ele>
                <time>2009-08-25T08:35:19.000Z</time>
                <name>Position 1639</name>
            </trkpt>
            <trkpt lon="10.6142233333333" lat="47.4946816666667">
                <ele>1716.9</ele>
                <time>2009-08-25T08:35:22.000Z</time>
                <name>Position 1640</name>
            </trkpt>
            <trkpt lon="10.6142233333333" lat="47.4946816666667">
                <ele>1716.9</ele>
                <time>2009-08-25T08:35:25.000Z</time>
                <name>Position 1641</name>
            </trkpt>
            <trkpt lon="10.614225" lat="47.4946816666667">
                <ele>1716.9</ele>
                <time>2009-08-25T08:35:28.000Z</time>
                <name>Position 1642</name>
            </trkpt>
            <trkpt lon="10.6142233333333" lat="47.4946816666667">
                <ele>1716.9</ele>
                <time>2009-08-25T08:35:31.000Z</time>
                <name>Position 1643</name>
            </trkpt>
            <trkpt lon="10.6142483333333" lat="47.4946866666667">
                <ele>1718.8</ele>
                <time>2009-08-25T08:35:34.000Z</time>
                <name>Position 1644</name>
            </trkpt>
            <trkpt lon="10.6142916666667" lat="47.4946916666667">
                <ele>1719.1</ele>
                <time>2009-08-25T08:35:37.000Z</time>
                <name>Position 1645</name>
            </trkpt>
            <trkpt lon="10.6143316666667" lat="47.4947016666667">
                <ele>1718.9</ele>
                <time>2009-08-25T08:35:40.000Z</time>
                <name>Position 1646</name>
            </trkpt>
            <trkpt lon="10.61437" lat="47.4947183333333">
                <ele>1719.3</ele>
                <time>2009-08-25T08:35:43.000Z</time>
                <name>Position 1647</name>
            </trkpt>
            <trkpt lon="10.6143933333333" lat="47.494735">
                <ele>1720.0</ele>
                <time>2009-08-25T08:35:46.000Z</time>
                <name>Position 1648</name>
            </trkpt>
            <trkpt lon="10.6144233333333" lat="47.4947433333333">
                <ele>1720.5</ele>
                <time>2009-08-25T08:35:49.000Z</time>
                <name>Position 1649</name>
            </trkpt>
            <trkpt lon="10.6144533333333" lat="47.49476">
                <ele>1720.9</ele>
                <time>2009-08-25T08:35:52.000Z</time>
                <name>Position 1650</name>
            </trkpt>
            <trkpt lon="10.614465" lat="47.494785">
                <ele>1721.1</ele>
                <time>2009-08-25T08:35:55.000Z</time>
                <name>Position 1651</name>
            </trkpt>
            <trkpt lon="10.6144833333333" lat="47.494805">
                <ele>1721.9</ele>
                <time>2009-08-25T08:35:58.000Z</time>
                <name>Position 1652</name>
            </trkpt>
            <trkpt lon="10.6145266666667" lat="47.494815">
                <ele>1722.2</ele>
                <time>2009-08-25T08:36:01.000Z</time>
                <name>Position 1653</name>
            </trkpt>
            <trkpt lon="10.61457" lat="47.4948266666667">
                <ele>1722.7</ele>
                <time>2009-08-25T08:36:04.000Z</time>
                <name>Position 1654</name>
            </trkpt>
            <trkpt lon="10.614605" lat="47.4948416666667">
                <ele>1723.1</ele>
                <time>2009-08-25T08:36:07.000Z</time>
                <name>Position 1655</name>
            </trkpt>
            <trkpt lon="10.6146383333333" lat="47.4948583333333">
                <ele>1723.8</ele>
                <time>2009-08-25T08:36:10.000Z</time>
                <name>Position 1656</name>
            </trkpt>
            <trkpt lon="10.6146666666667" lat="47.4948716666667">
                <ele>1724.3</ele>
                <time>2009-08-25T08:36:13.000Z</time>
                <name>Position 1657</name>
            </trkpt>
            <trkpt lon="10.6146866666667" lat="47.4948883333333">
                <ele>1725.2</ele>
                <time>2009-08-25T08:36:16.000Z</time>
                <name>Position 1658</name>
            </trkpt>
            <trkpt lon="10.614715" lat="47.494895">
                <ele>1726.1</ele>
                <time>2009-08-25T08:36:19.000Z</time>
                <name>Position 1659</name>
            </trkpt>
            <trkpt lon="10.614745" lat="47.494905">
                <ele>1726.9</ele>
                <time>2009-08-25T08:36:22.000Z</time>
                <name>Position 1660</name>
            </trkpt>
            <trkpt lon="10.61477" lat="47.4949166666667">
                <ele>1727.9</ele>
                <time>2009-08-25T08:36:25.000Z</time>
                <name>Position 1661</name>
            </trkpt>
            <trkpt lon="10.61479" lat="47.4949316666667">
                <ele>1728.6</ele>
                <time>2009-08-25T08:36:28.000Z</time>
                <name>Position 1662</name>
            </trkpt>
            <trkpt lon="10.6148116666667" lat="47.49494">
                <ele>1729.2</ele>
                <time>2009-08-25T08:36:31.000Z</time>
                <name>Position 1663</name>
            </trkpt>
            <trkpt lon="10.6148483333333" lat="47.4949466666667">
                <ele>1729.4</ele>
                <time>2009-08-25T08:36:34.000Z</time>
                <name>Position 1664</name>
            </trkpt>
            <trkpt lon="10.6148666666667" lat="47.494955">
                <ele>1730.8</ele>
                <time>2009-08-25T08:36:37.000Z</time>
                <name>Position 1665</name>
            </trkpt>
            <trkpt lon="10.61488" lat="47.49498">
                <ele>1730.5</ele>
                <time>2009-08-25T08:36:40.000Z</time>
                <name>Position 1666</name>
            </trkpt>
            <trkpt lon="10.6149033333333" lat="47.4949816666667">
                <ele>1731.0</ele>
                <time>2009-08-25T08:36:43.000Z</time>
                <name>Position 1667</name>
            </trkpt>
            <trkpt lon="10.6149233333333" lat="47.49498">
                <ele>1731.0</ele>
                <time>2009-08-25T08:36:46.000Z</time>
                <name>Position 1668</name>
            </trkpt>
            <trkpt lon="10.6149666666667" lat="47.4949866666667">
                <ele>1731.6</ele>
                <time>2009-08-25T08:36:49.000Z</time>
                <name>Position 1669</name>
            </trkpt>
            <trkpt lon="10.615" lat="47.4950116666667">
                <ele>1732.2</ele>
                <time>2009-08-25T08:36:52.000Z</time>
                <name>Position 1670</name>
            </trkpt>
            <trkpt lon="10.6150333333333" lat="47.4950416666667">
                <ele>1732.5</ele>
                <time>2009-08-25T08:36:55.000Z</time>
                <name>Position 1671</name>
            </trkpt>
            <trkpt lon="10.6150566666667" lat="47.4950583333333">
                <ele>1733.0</ele>
                <time>2009-08-25T08:36:58.000Z</time>
                <name>Position 1672</name>
            </trkpt>
            <trkpt lon="10.6150866666667" lat="47.4950716666667">
                <ele>1734.4</ele>
                <time>2009-08-25T08:37:01.000Z</time>
                <name>Position 1673</name>
            </trkpt>
            <trkpt lon="10.61512" lat="47.4950916666667">
                <ele>1735.5</ele>
                <time>2009-08-25T08:37:04.000Z</time>
                <name>Position 1674</name>
            </trkpt>
            <trkpt lon="10.615155" lat="47.4951083333333">
                <ele>1736.2</ele>
                <time>2009-08-25T08:37:07.000Z</time>
                <name>Position 1675</name>
            </trkpt>
            <trkpt lon="10.6151883333333" lat="47.49513">
                <ele>1736.9</ele>
                <time>2009-08-25T08:37:10.000Z</time>
                <name>Position 1676</name>
            </trkpt>
            <trkpt lon="10.6152216666667" lat="47.4951433333333">
                <ele>1737.4</ele>
                <time>2009-08-25T08:37:13.000Z</time>
                <name>Position 1677</name>
            </trkpt>
            <trkpt lon="10.61526" lat="47.4951516666667">
                <ele>1738.0</ele>
                <time>2009-08-25T08:37:16.000Z</time>
                <name>Position 1678</name>
            </trkpt>
            <trkpt lon="10.6152966666667" lat="47.4951616666667">
                <ele>1738.8</ele>
                <time>2009-08-25T08:37:19.000Z</time>
                <name>Position 1679</name>
            </trkpt>
            <trkpt lon="10.61532" lat="47.4951633333333">
                <ele>1740.2</ele>
                <time>2009-08-25T08:37:22.000Z</time>
                <name>Position 1680</name>
            </trkpt>
            <trkpt lon="10.61534" lat="47.495165">
                <ele>1742.0</ele>
                <time>2009-08-25T08:37:25.000Z</time>
                <name>Position 1681</name>
            </trkpt>
            <trkpt lon="10.6153566666667" lat="47.4951683333333">
                <ele>1743.4</ele>
                <time>2009-08-25T08:37:28.000Z</time>
                <name>Position 1682</name>
            </trkpt>
            <trkpt lon="10.615395" lat="47.4951833333333">
                <ele>1741.9</ele>
                <time>2009-08-25T08:37:31.000Z</time>
                <name>Position 1683</name>
            </trkpt>
            <trkpt lon="10.615385" lat="47.4951716666667">
                <ele>1742.2</ele>
                <time>2009-08-25T08:37:34.000Z</time>
                <name>Position 1684</name>
            </trkpt>
            <trkpt lon="10.6153866666667" lat="47.4951716666667">
                <ele>1742.3</ele>
                <time>2009-08-25T08:37:37.000Z</time>
                <name>Position 1685</name>
            </trkpt>
            <trkpt lon="10.6153883333333" lat="47.4951733333333">
                <ele>1742.3</ele>
                <time>2009-08-25T08:37:40.000Z</time>
                <name>Position 1686</name>
            </trkpt>
            <trkpt lon="10.6153866666667" lat="47.495175">
                <ele>1742.5</ele>
                <time>2009-08-25T08:37:43.000Z</time>
                <name>Position 1687</name>
            </trkpt>
            <trkpt lon="10.6154066666667" lat="47.4951916666667">
                <ele>1743.2</ele>
                <time>2009-08-25T08:37:46.000Z</time>
                <name>Position 1688</name>
            </trkpt>
            <trkpt lon="10.6154366666667" lat="47.49522">
                <ele>1742.9</ele>
                <time>2009-08-25T08:37:49.000Z</time>
                <name>Position 1689</name>
            </trkpt>
            <trkpt lon="10.6154583333333" lat="47.4952383333333">
                <ele>1743.1</ele>
                <time>2009-08-25T08:37:52.000Z</time>
                <name>Position 1690</name>
            </trkpt>
            <trkpt lon="10.615495" lat="47.49526">
                <ele>1742.9</ele>
                <time>2009-08-25T08:37:55.000Z</time>
                <name>Position 1691</name>
            </trkpt>
            <trkpt lon="10.6155116666667" lat="47.4952783333333">
                <ele>1743.4</ele>
                <time>2009-08-25T08:37:58.000Z</time>
                <name>Position 1692</name>
            </trkpt>
            <trkpt lon="10.6155316666667" lat="47.495295">
                <ele>1743.9</ele>
                <time>2009-08-25T08:38:01.000Z</time>
                <name>Position 1693</name>
            </trkpt>
            <trkpt lon="10.6155383333333" lat="47.4953033333333">
                <ele>1744.2</ele>
                <time>2009-08-25T08:38:04.000Z</time>
                <name>Position 1694</name>
            </trkpt>
            <trkpt lon="10.6155833333333" lat="47.4953033333333">
                <ele>1744.0</ele>
                <time>2009-08-25T08:38:07.000Z</time>
                <name>Position 1695</name>
            </trkpt>
            <trkpt lon="10.615585" lat="47.4953133333333">
                <ele>1744.3</ele>
                <time>2009-08-25T08:38:10.000Z</time>
                <name>Position 1696</name>
            </trkpt>
            <trkpt lon="10.615605" lat="47.4953366666667">
                <ele>1744.8</ele>
                <time>2009-08-25T08:38:13.000Z</time>
                <name>Position 1697</name>
            </trkpt>
            <trkpt lon="10.6156583333333" lat="47.49535">
                <ele>1745.1</ele>
                <time>2009-08-25T08:38:16.000Z</time>
                <name>Position 1698</name>
            </trkpt>
            <trkpt lon="10.6156883333333" lat="47.4953466666667">
                <ele>1745.2</ele>
                <time>2009-08-25T08:38:19.000Z</time>
                <name>Position 1699</name>
            </trkpt>
            <trkpt lon="10.6156883333333" lat="47.49535">
                <ele>1746.0</ele>
                <time>2009-08-25T08:38:22.000Z</time>
                <name>Position 1700</name>
            </trkpt>
            <trkpt lon="10.61568" lat="47.4953733333333">
                <ele>1746.5</ele>
                <time>2009-08-25T08:38:25.000Z</time>
                <name>Position 1701</name>
            </trkpt>
            <trkpt lon="10.6156833333333" lat="47.49538">
                <ele>1747.6</ele>
                <time>2009-08-25T08:38:28.000Z</time>
                <name>Position 1702</name>
            </trkpt>
            <trkpt lon="10.6157133333333" lat="47.4954">
                <ele>1748.4</ele>
                <time>2009-08-25T08:38:31.000Z</time>
                <name>Position 1703</name>
            </trkpt>
            <trkpt lon="10.61575" lat="47.4954166666667">
                <ele>1749.4</ele>
                <time>2009-08-25T08:38:34.000Z</time>
                <name>Position 1704</name>
            </trkpt>
            <trkpt lon="10.6157616666667" lat="47.4954283333333">
                <ele>1750.4</ele>
                <time>2009-08-25T08:38:37.000Z</time>
                <name>Position 1705</name>
            </trkpt>
            <trkpt lon="10.6157633333333" lat="47.4954416666667">
                <ele>1750.4</ele>
                <time>2009-08-25T08:38:40.000Z</time>
                <name>Position 1706</name>
            </trkpt>
            <trkpt lon="10.615775" lat="47.49545">
                <ele>1751.9</ele>
                <time>2009-08-25T08:38:43.000Z</time>
                <name>Position 1707</name>
            </trkpt>
            <trkpt lon="10.6158033333333" lat="47.49546">
                <ele>1752.9</ele>
                <time>2009-08-25T08:38:46.000Z</time>
                <name>Position 1708</name>
            </trkpt>
            <trkpt lon="10.615835" lat="47.4954766666667">
                <ele>1754.0</ele>
                <time>2009-08-25T08:38:49.000Z</time>
                <name>Position 1709</name>
            </trkpt>
            <trkpt lon="10.6158516666667" lat="47.49549">
                <ele>1755.6</ele>
                <time>2009-08-25T08:38:52.000Z</time>
                <name>Position 1710</name>
            </trkpt>
            <trkpt lon="10.6158533333333" lat="47.4955066666667">
                <ele>1757.0</ele>
                <time>2009-08-25T08:38:55.000Z</time>
                <name>Position 1711</name>
            </trkpt>
            <trkpt lon="10.6158666666667" lat="47.4955233333333">
                <ele>1758.1</ele>
                <time>2009-08-25T08:38:58.000Z</time>
                <name>Position 1712</name>
            </trkpt>
            <trkpt lon="10.61587" lat="47.49554">
                <ele>1759.5</ele>
                <time>2009-08-25T08:39:01.000Z</time>
                <name>Position 1713</name>
            </trkpt>
            <trkpt lon="10.61589" lat="47.4955366666667">
                <ele>1761.6</ele>
                <time>2009-08-25T08:39:04.000Z</time>
                <name>Position 1714</name>
            </trkpt>
            <trkpt lon="10.6159183333333" lat="47.49554">
                <ele>1762.2</ele>
                <time>2009-08-25T08:39:07.000Z</time>
                <name>Position 1715</name>
            </trkpt>
            <trkpt lon="10.6159316666667" lat="47.495545">
                <ele>1763.1</ele>
                <time>2009-08-25T08:39:10.000Z</time>
                <name>Position 1716</name>
            </trkpt>
            <trkpt lon="10.6159266666667" lat="47.4955533333333">
                <ele>1763.4</ele>
                <time>2009-08-25T08:39:13.000Z</time>
                <name>Position 1717</name>
            </trkpt>
            <trkpt lon="10.6159266666667" lat="47.4955566666667">
                <ele>1763.5</ele>
                <time>2009-08-25T08:39:16.000Z</time>
                <name>Position 1718</name>
            </trkpt>
            <trkpt lon="10.6159566666667" lat="47.495565">
                <ele>1764.1</ele>
                <time>2009-08-25T08:39:19.000Z</time>
                <name>Position 1719</name>
            </trkpt>
            <trkpt lon="10.615985" lat="47.495575">
                <ele>1764.7</ele>
                <time>2009-08-25T08:39:22.000Z</time>
                <name>Position 1720</name>
            </trkpt>
            <trkpt lon="10.616025" lat="47.49559">
                <ele>1765.3</ele>
                <time>2009-08-25T08:39:25.000Z</time>
                <name>Position 1721</name>
            </trkpt>
            <trkpt lon="10.616055" lat="47.4956183333333">
                <ele>1765.0</ele>
                <time>2009-08-25T08:39:28.000Z</time>
                <name>Position 1722</name>
            </trkpt>
            <trkpt lon="10.6160883333333" lat="47.4956416666667">
                <ele>1764.8</ele>
                <time>2009-08-25T08:39:31.000Z</time>
                <name>Position 1723</name>
            </trkpt>
            <trkpt lon="10.6161033333333" lat="47.4956616666667">
                <ele>1765.1</ele>
                <time>2009-08-25T08:39:34.000Z</time>
                <name>Position 1724</name>
            </trkpt>
            <trkpt lon="10.6161166666667" lat="47.4956816666667">
                <ele>1766.0</ele>
                <time>2009-08-25T08:39:37.000Z</time>
                <name>Position 1725</name>
            </trkpt>
            <trkpt lon="10.6161316666667" lat="47.4956966666667">
                <ele>1766.9</ele>
                <time>2009-08-25T08:39:40.000Z</time>
                <name>Position 1726</name>
            </trkpt>
            <trkpt lon="10.616145" lat="47.4957066666667">
                <ele>1767.8</ele>
                <time>2009-08-25T08:39:43.000Z</time>
                <name>Position 1727</name>
            </trkpt>
            <trkpt lon="10.6161866666667" lat="47.495725">
                <ele>1767.5</ele>
                <time>2009-08-25T08:39:46.000Z</time>
                <name>Position 1728</name>
            </trkpt>
            <trkpt lon="10.6162133333333" lat="47.49575">
                <ele>1768.0</ele>
                <time>2009-08-25T08:39:49.000Z</time>
                <name>Position 1729</name>
            </trkpt>
            <trkpt lon="10.61623" lat="47.4957783333333">
                <ele>1767.7</ele>
                <time>2009-08-25T08:39:52.000Z</time>
                <name>Position 1730</name>
            </trkpt>
            <trkpt lon="10.6162466666667" lat="47.4958033333333">
                <ele>1767.8</ele>
                <time>2009-08-25T08:39:55.000Z</time>
                <name>Position 1731</name>
            </trkpt>
            <trkpt lon="10.6162466666667" lat="47.495825">
                <ele>1768.3</ele>
                <time>2009-08-25T08:39:58.000Z</time>
                <name>Position 1732</name>
            </trkpt>
            <trkpt lon="10.6162316666667" lat="47.495845">
                <ele>1767.4</ele>
                <time>2009-08-25T08:40:01.000Z</time>
                <name>Position 1733</name>
            </trkpt>
            <trkpt lon="10.6162533333333" lat="47.4958483333333">
                <ele>1770.6</ele>
                <time>2009-08-25T08:40:04.000Z</time>
                <name>Position 1734</name>
            </trkpt>
            <trkpt lon="10.6162633333333" lat="47.4958583333333">
                <ele>1771.4</ele>
                <time>2009-08-25T08:40:07.000Z</time>
                <name>Position 1735</name>
            </trkpt>
            <trkpt lon="10.61627" lat="47.49586">
                <ele>1772.2</ele>
                <time>2009-08-25T08:40:10.000Z</time>
                <name>Position 1736</name>
            </trkpt>
            <trkpt lon="10.6162683333333" lat="47.4958766666667">
                <ele>1771.7</ele>
                <time>2009-08-25T08:40:13.000Z</time>
                <name>Position 1737</name>
            </trkpt>
            <trkpt lon="10.6162816666667" lat="47.4958916666667">
                <ele>1772.0</ele>
                <time>2009-08-25T08:40:16.000Z</time>
                <name>Position 1738</name>
            </trkpt>
            <trkpt lon="10.6162866666667" lat="47.4959016666667">
                <ele>1772.3</ele>
                <time>2009-08-25T08:40:19.000Z</time>
                <name>Position 1739</name>
            </trkpt>
            <trkpt lon="10.616295" lat="47.4959233333333">
                <ele>1772.7</ele>
                <time>2009-08-25T08:40:22.000Z</time>
                <name>Position 1740</name>
            </trkpt>
            <trkpt lon="10.6163083333333" lat="47.4959466666667">
                <ele>1773.0</ele>
                <time>2009-08-25T08:40:25.000Z</time>
                <name>Position 1741</name>
            </trkpt>
            <trkpt lon="10.6163183333333" lat="47.495965">
                <ele>1773.9</ele>
                <time>2009-08-25T08:40:28.000Z</time>
                <name>Position 1742</name>
            </trkpt>
            <trkpt lon="10.616325" lat="47.4959966666667">
                <ele>1773.7</ele>
                <time>2009-08-25T08:40:31.000Z</time>
                <name>Position 1743</name>
            </trkpt>
            <trkpt lon="10.6163466666667" lat="47.4960216666667">
                <ele>1773.6</ele>
                <time>2009-08-25T08:40:34.000Z</time>
                <name>Position 1744</name>
            </trkpt>
            <trkpt lon="10.6163683333333" lat="47.4960316666667">
                <ele>1774.4</ele>
                <time>2009-08-25T08:40:37.000Z</time>
                <name>Position 1745</name>
            </trkpt>
            <trkpt lon="10.6163816666667" lat="47.49604">
                <ele>1775.6</ele>
                <time>2009-08-25T08:40:40.000Z</time>
                <name>Position 1746</name>
            </trkpt>
            <trkpt lon="10.6163866666667" lat="47.4960483333333">
                <ele>1776.7</ele>
                <time>2009-08-25T08:40:43.000Z</time>
                <name>Position 1747</name>
            </trkpt>
            <trkpt lon="10.616375" lat="47.496055">
                <ele>1776.6</ele>
                <time>2009-08-25T08:40:46.000Z</time>
                <name>Position 1748</name>
            </trkpt>
            <trkpt lon="10.6163783333333" lat="47.4960483333333">
                <ele>1776.6</ele>
                <time>2009-08-25T08:40:49.000Z</time>
                <name>Position 1749</name>
            </trkpt>
            <trkpt lon="10.61644" lat="47.4960583333333">
                <ele>1776.2</ele>
                <time>2009-08-25T08:40:52.000Z</time>
                <name>Position 1750</name>
            </trkpt>
            <trkpt lon="10.6164783333333" lat="47.4960783333333">
                <ele>1775.7</ele>
                <time>2009-08-25T08:40:55.000Z</time>
                <name>Position 1751</name>
            </trkpt>
            <trkpt lon="10.6165066666667" lat="47.4960966666667">
                <ele>1775.9</ele>
                <time>2009-08-25T08:40:58.000Z</time>
                <name>Position 1752</name>
            </trkpt>
            <trkpt lon="10.6165416666667" lat="47.496105">
                <ele>1776.5</ele>
                <time>2009-08-25T08:41:01.000Z</time>
                <name>Position 1753</name>
            </trkpt>
            <trkpt lon="10.6165483333333" lat="47.496105">
                <ele>1777.8</ele>
                <time>2009-08-25T08:41:04.000Z</time>
                <name>Position 1754</name>
            </trkpt>
            <trkpt lon="10.6165533333333" lat="47.4961283333333">
                <ele>1777.6</ele>
                <time>2009-08-25T08:41:07.000Z</time>
                <name>Position 1755</name>
            </trkpt>
            <trkpt lon="10.6165783333333" lat="47.4961383333333">
                <ele>1777.6</ele>
                <time>2009-08-25T08:41:10.000Z</time>
                <name>Position 1756</name>
            </trkpt>
            <trkpt lon="10.6166066666667" lat="47.4961433333333">
                <ele>1777.4</ele>
                <time>2009-08-25T08:41:13.000Z</time>
                <name>Position 1757</name>
            </trkpt>
            <trkpt lon="10.616635" lat="47.496155">
                <ele>1776.2</ele>
                <time>2009-08-25T08:41:16.000Z</time>
                <name>Position 1758</name>
            </trkpt>
            <trkpt lon="10.6166616666667" lat="47.4961416666667">
                <ele>1776.5</ele>
                <time>2009-08-25T08:41:19.000Z</time>
                <name>Position 1759</name>
            </trkpt>
            <trkpt lon="10.6166833333333" lat="47.4961783333333">
                <ele>1776.0</ele>
                <time>2009-08-25T08:41:22.000Z</time>
                <name>Position 1760</name>
            </trkpt>
            <trkpt lon="10.61671" lat="47.4961966666667">
                <ele>1776.2</ele>
                <time>2009-08-25T08:41:25.000Z</time>
                <name>Position 1761</name>
            </trkpt>
            <trkpt lon="10.61673" lat="47.4961966666667">
                <ele>1777.4</ele>
                <time>2009-08-25T08:41:28.000Z</time>
                <name>Position 1762</name>
            </trkpt>
            <trkpt lon="10.6167666666667" lat="47.49621">
                <ele>1777.1</ele>
                <time>2009-08-25T08:41:31.000Z</time>
                <name>Position 1763</name>
            </trkpt>
            <trkpt lon="10.61681" lat="47.4962283333333">
                <ele>1776.9</ele>
                <time>2009-08-25T08:41:34.000Z</time>
                <name>Position 1764</name>
            </trkpt>
            <trkpt lon="10.6168333333333" lat="47.4962533333333">
                <ele>1776.9</ele>
                <time>2009-08-25T08:41:37.000Z</time>
                <name>Position 1765</name>
            </trkpt>
            <trkpt lon="10.6168566666667" lat="47.4962783333333">
                <ele>1775.4</ele>
                <time>2009-08-25T08:41:40.000Z</time>
                <name>Position 1766</name>
            </trkpt>
            <trkpt lon="10.61686" lat="47.4962833333333">
                <ele>1774.9</ele>
                <time>2009-08-25T08:41:43.000Z</time>
                <name>Position 1767</name>
            </trkpt>
            <trkpt lon="10.616865" lat="47.4962733333333">
                <ele>1775.0</ele>
                <time>2009-08-25T08:41:46.000Z</time>
                <name>Position 1768</name>
            </trkpt>
            <trkpt lon="10.6168716666667" lat="47.4962716666667">
                <ele>1774.9</ele>
                <time>2009-08-25T08:41:49.000Z</time>
                <name>Position 1769</name>
            </trkpt>
            <trkpt lon="10.6169066666667" lat="47.4962816666667">
                <ele>1774.9</ele>
                <time>2009-08-25T08:41:52.000Z</time>
                <name>Position 1770</name>
            </trkpt>
            <trkpt lon="10.6169216666667" lat="47.4962833333333">
                <ele>1774.5</ele>
                <time>2009-08-25T08:41:55.000Z</time>
                <name>Position 1771</name>
            </trkpt>
            <trkpt lon="10.61692" lat="47.49629">
                <ele>1774.6</ele>
                <time>2009-08-25T08:41:58.000Z</time>
                <name>Position 1772</name>
            </trkpt>
            <trkpt lon="10.6169283333333" lat="47.4962883333333">
                <ele>1774.7</ele>
                <time>2009-08-25T08:42:01.000Z</time>
                <name>Position 1773</name>
            </trkpt>
            <trkpt lon="10.61693" lat="47.4962783333333">
                <ele>1775.1</ele>
                <time>2009-08-25T08:42:04.000Z</time>
                <name>Position 1774</name>
            </trkpt>
            <trkpt lon="10.61693" lat="47.4962766666667">
                <ele>1775.1</ele>
                <time>2009-08-25T08:42:07.000Z</time>
                <name>Position 1775</name>
            </trkpt>
            <trkpt lon="10.616935" lat="47.4962766666667">
                <ele>1775.1</ele>
                <time>2009-08-25T08:42:10.000Z</time>
                <name>Position 1776</name>
            </trkpt>
            <trkpt lon="10.6169366666667" lat="47.49628">
                <ele>1775.0</ele>
                <time>2009-08-25T08:42:13.000Z</time>
                <name>Position 1777</name>
            </trkpt>
            <trkpt lon="10.616935" lat="47.49628">
                <ele>1775.0</ele>
                <time>2009-08-25T08:42:16.000Z</time>
                <name>Position 1778</name>
            </trkpt>
            <trkpt lon="10.6169383333333" lat="47.4962783333333">
                <ele>1775.0</ele>
                <time>2009-08-25T08:42:19.000Z</time>
                <name>Position 1779</name>
            </trkpt>
            <trkpt lon="10.6169383333333" lat="47.4962783333333">
                <ele>1775.0</ele>
                <time>2009-08-25T08:42:22.000Z</time>
                <name>Position 1780</name>
            </trkpt>
            <trkpt lon="10.6169383333333" lat="47.4962766666667">
                <ele>1775.0</ele>
                <time>2009-08-25T08:42:25.000Z</time>
                <name>Position 1781</name>
            </trkpt>
            <trkpt lon="10.6169383333333" lat="47.4962766666667">
                <ele>1775.0</ele>
                <time>2009-08-25T08:42:28.000Z</time>
                <name>Position 1782</name>
            </trkpt>
            <trkpt lon="10.6169366666667" lat="47.49628">
                <ele>1775.0</ele>
                <time>2009-08-25T08:42:31.000Z</time>
                <name>Position 1783</name>
            </trkpt>
            <trkpt lon="10.6169333333333" lat="47.496285">
                <ele>1775.0</ele>
                <time>2009-08-25T08:42:34.000Z</time>
                <name>Position 1784</name>
            </trkpt>
            <trkpt lon="10.6169316666667" lat="47.4962866666667">
                <ele>1775.0</ele>
                <time>2009-08-25T08:42:37.000Z</time>
                <name>Position 1785</name>
            </trkpt>
            <trkpt lon="10.6169266666667" lat="47.49629">
                <ele>1775.0</ele>
                <time>2009-08-25T08:42:40.000Z</time>
                <name>Position 1786</name>
            </trkpt>
            <trkpt lon="10.6169383333333" lat="47.4963166666667">
                <ele>1774.9</ele>
                <time>2009-08-25T08:42:43.000Z</time>
                <name>Position 1787</name>
            </trkpt>
            <trkpt lon="10.6169366666667" lat="47.4963216666667">
                <ele>1775.0</ele>
                <time>2009-08-25T08:42:46.000Z</time>
                <name>Position 1788</name>
            </trkpt>
            <trkpt lon="10.61691" lat="47.4963283333333">
                <ele>1775.1</ele>
                <time>2009-08-25T08:42:49.000Z</time>
                <name>Position 1789</name>
            </trkpt>
            <trkpt lon="10.6169" lat="47.496345">
                <ele>1775.5</ele>
                <time>2009-08-25T08:42:52.000Z</time>
                <name>Position 1790</name>
            </trkpt>
            <trkpt lon="10.616905" lat="47.4963416666667">
                <ele>1775.5</ele>
                <time>2009-08-25T08:42:55.000Z</time>
                <name>Position 1791</name>
            </trkpt>
            <trkpt lon="10.6169266666667" lat="47.49634">
                <ele>1775.5</ele>
                <time>2009-08-25T08:42:58.000Z</time>
                <name>Position 1792</name>
            </trkpt>
            <trkpt lon="10.61694" lat="47.4963366666667">
                <ele>1776.1</ele>
                <time>2009-08-25T08:43:01.000Z</time>
                <name>Position 1793</name>
            </trkpt>
            <trkpt lon="10.6169533333333" lat="47.4963533333333">
                <ele>1775.8</ele>
                <time>2009-08-25T08:43:04.000Z</time>
                <name>Position 1794</name>
            </trkpt>
            <trkpt lon="10.616955" lat="47.4963666666667">
                <ele>1775.8</ele>
                <time>2009-08-25T08:43:07.000Z</time>
                <name>Position 1795</name>
            </trkpt>
            <trkpt lon="10.6169516666667" lat="47.49637">
                <ele>1776.5</ele>
                <time>2009-08-25T08:43:10.000Z</time>
                <name>Position 1796</name>
            </trkpt>
            <trkpt lon="10.6169783333333" lat="47.496385">
                <ele>1776.8</ele>
                <time>2009-08-25T08:43:13.000Z</time>
                <name>Position 1797</name>
            </trkpt>
            <trkpt lon="10.617005" lat="47.4964">
                <ele>1777.3</ele>
                <time>2009-08-25T08:43:16.000Z</time>
                <name>Position 1798</name>
            </trkpt>
            <trkpt lon="10.6170216666667" lat="47.496405">
                <ele>1778.4</ele>
                <time>2009-08-25T08:43:19.000Z</time>
                <name>Position 1799</name>
            </trkpt>
            <trkpt lon="10.61704" lat="47.4964283333333">
                <ele>1779.3</ele>
                <time>2009-08-25T08:43:22.000Z</time>
                <name>Position 1800</name>
            </trkpt>
            <trkpt lon="10.6170416666667" lat="47.49644">
                <ele>1780.5</ele>
                <time>2009-08-25T08:43:25.000Z</time>
                <name>Position 1801</name>
            </trkpt>
            <trkpt lon="10.6170533333333" lat="47.49645">
                <ele>1781.6</ele>
                <time>2009-08-25T08:43:28.000Z</time>
                <name>Position 1802</name>
            </trkpt>
            <trkpt lon="10.6170466666667" lat="47.496455">
                <ele>1781.7</ele>
                <time>2009-08-25T08:43:31.000Z</time>
                <name>Position 1803</name>
            </trkpt>
            <trkpt lon="10.6170616666667" lat="47.4964666666667">
                <ele>1782.1</ele>
                <time>2009-08-25T08:43:34.000Z</time>
                <name>Position 1804</name>
            </trkpt>
            <trkpt lon="10.6170766666667" lat="47.496475">
                <ele>1783.5</ele>
                <time>2009-08-25T08:43:37.000Z</time>
                <name>Position 1805</name>
            </trkpt>
            <trkpt lon="10.6170866666667" lat="47.4964883333333">
                <ele>1784.1</ele>
                <time>2009-08-25T08:43:40.000Z</time>
                <name>Position 1806</name>
            </trkpt>
            <trkpt lon="10.61711" lat="47.4965183333333">
                <ele>1783.3</ele>
                <time>2009-08-25T08:43:43.000Z</time>
                <name>Position 1807</name>
            </trkpt>
            <trkpt lon="10.617095" lat="47.4965266666667">
                <ele>1783.3</ele>
                <time>2009-08-25T08:43:46.000Z</time>
                <name>Position 1808</name>
            </trkpt>
            <trkpt lon="10.6170866666667" lat="47.496545">
                <ele>1783.0</ele>
                <time>2009-08-25T08:43:49.000Z</time>
                <name>Position 1809</name>
            </trkpt>
            <trkpt lon="10.6170966666667" lat="47.496565">
                <ele>1783.5</ele>
                <time>2009-08-25T08:43:52.000Z</time>
                <name>Position 1810</name>
            </trkpt>
            <trkpt lon="10.6171166666667" lat="47.4965833333333">
                <ele>1785.5</ele>
                <time>2009-08-25T08:43:55.000Z</time>
                <name>Position 1811</name>
            </trkpt>
            <trkpt lon="10.6171233333333" lat="47.4966133333333">
                <ele>1785.5</ele>
                <time>2009-08-25T08:43:58.000Z</time>
                <name>Position 1812</name>
            </trkpt>
            <trkpt lon="10.6171316666667" lat="47.4966266666667">
                <ele>1787.2</ele>
                <time>2009-08-25T08:44:01.000Z</time>
                <name>Position 1813</name>
            </trkpt>
            <trkpt lon="10.6171333333333" lat="47.4966433333333">
                <ele>1788.7</ele>
                <time>2009-08-25T08:44:04.000Z</time>
                <name>Position 1814</name>
            </trkpt>
            <trkpt lon="10.6171433333333" lat="47.49666">
                <ele>1790.2</ele>
                <time>2009-08-25T08:44:07.000Z</time>
                <name>Position 1815</name>
            </trkpt>
            <trkpt lon="10.617145" lat="47.49669">
                <ele>1789.8</ele>
                <time>2009-08-25T08:44:10.000Z</time>
                <name>Position 1816</name>
            </trkpt>
            <trkpt lon="10.6171516666667" lat="47.496715">
                <ele>1790.6</ele>
                <time>2009-08-25T08:44:13.000Z</time>
                <name>Position 1817</name>
            </trkpt>
            <trkpt lon="10.6171433333333" lat="47.4967333333333">
                <ele>1791.3</ele>
                <time>2009-08-25T08:44:16.000Z</time>
                <name>Position 1818</name>
            </trkpt>
            <trkpt lon="10.61713" lat="47.4967466666667">
                <ele>1791.5</ele>
                <time>2009-08-25T08:44:19.000Z</time>
                <name>Position 1819</name>
            </trkpt>
            <trkpt lon="10.617115" lat="47.4967483333333">
                <ele>1791.9</ele>
                <time>2009-08-25T08:44:22.000Z</time>
                <name>Position 1820</name>
            </trkpt>
            <trkpt lon="10.6171116666667" lat="47.4967666666667">
                <ele>1792.8</ele>
                <time>2009-08-25T08:44:25.000Z</time>
                <name>Position 1821</name>
            </trkpt>
            <trkpt lon="10.6171316666667" lat="47.4967866666667">
                <ele>1793.5</ele>
                <time>2009-08-25T08:44:28.000Z</time>
                <name>Position 1822</name>
            </trkpt>
            <trkpt lon="10.617155" lat="47.4968116666667">
                <ele>1793.2</ele>
                <time>2009-08-25T08:44:31.000Z</time>
                <name>Position 1823</name>
            </trkpt>
            <trkpt lon="10.6171766666667" lat="47.4968166666667">
                <ele>1794.7</ele>
                <time>2009-08-25T08:44:34.000Z</time>
                <name>Position 1824</name>
            </trkpt>
            <trkpt lon="10.6171883333333" lat="47.49684">
                <ele>1795.3</ele>
                <time>2009-08-25T08:44:37.000Z</time>
                <name>Position 1825</name>
            </trkpt>
            <trkpt lon="10.617205" lat="47.49686">
                <ele>1795.9</ele>
                <time>2009-08-25T08:44:40.000Z</time>
                <name>Position 1826</name>
            </trkpt>
            <trkpt lon="10.6172333333333" lat="47.4968583333333">
                <ele>1796.5</ele>
                <time>2009-08-25T08:44:43.000Z</time>
                <name>Position 1827</name>
            </trkpt>
            <trkpt lon="10.6172666666667" lat="47.4968716666667">
                <ele>1797.2</ele>
                <time>2009-08-25T08:44:46.000Z</time>
                <name>Position 1828</name>
            </trkpt>
            <trkpt lon="10.6172766666667" lat="47.496885">
                <ele>1797.7</ele>
                <time>2009-08-25T08:44:49.000Z</time>
                <name>Position 1829</name>
            </trkpt>
            <trkpt lon="10.6172866666667" lat="47.4968866666667">
                <ele>1797.8</ele>
                <time>2009-08-25T08:44:52.000Z</time>
                <name>Position 1830</name>
            </trkpt>
            <trkpt lon="10.6172866666667" lat="47.4968916666667">
                <ele>1797.7</ele>
                <time>2009-08-25T08:44:55.000Z</time>
                <name>Position 1831</name>
            </trkpt>
            <trkpt lon="10.6172833333333" lat="47.4968883333333">
                <ele>1797.8</ele>
                <time>2009-08-25T08:44:58.000Z</time>
                <name>Position 1832</name>
            </trkpt>
            <trkpt lon="10.6172866666667" lat="47.4968866666667">
                <ele>1798.0</ele>
                <time>2009-08-25T08:45:01.000Z</time>
                <name>Position 1833</name>
            </trkpt>
            <trkpt lon="10.6172833333333" lat="47.49689">
                <ele>1798.0</ele>
                <time>2009-08-25T08:45:04.000Z</time>
                <name>Position 1834</name>
            </trkpt>
            <trkpt lon="10.6172833333333" lat="47.4969">
                <ele>1798.1</ele>
                <time>2009-08-25T08:45:07.000Z</time>
                <name>Position 1835</name>
            </trkpt>
            <trkpt lon="10.6172883333333" lat="47.49691">
                <ele>1798.0</ele>
                <time>2009-08-25T08:45:10.000Z</time>
                <name>Position 1836</name>
            </trkpt>
            <trkpt lon="10.61729" lat="47.4969133333333">
                <ele>1798.5</ele>
                <time>2009-08-25T08:45:13.000Z</time>
                <name>Position 1837</name>
            </trkpt>
            <trkpt lon="10.61731" lat="47.49693">
                <ele>1799.0</ele>
                <time>2009-08-25T08:45:16.000Z</time>
                <name>Position 1838</name>
            </trkpt>
            <trkpt lon="10.6173233333333" lat="47.4969566666667">
                <ele>1799.0</ele>
                <time>2009-08-25T08:45:19.000Z</time>
                <name>Position 1839</name>
            </trkpt>
            <trkpt lon="10.6173233333333" lat="47.4969783333333">
                <ele>1799.6</ele>
                <time>2009-08-25T08:45:22.000Z</time>
                <name>Position 1840</name>
            </trkpt>
            <trkpt lon="10.6173166666667" lat="47.4969933333333">
                <ele>1800.5</ele>
                <time>2009-08-25T08:45:25.000Z</time>
                <name>Position 1841</name>
            </trkpt>
            <trkpt lon="10.6173083333333" lat="47.497005">
                <ele>1801.4</ele>
                <time>2009-08-25T08:45:28.000Z</time>
                <name>Position 1842</name>
            </trkpt>
            <trkpt lon="10.617315" lat="47.49702">
                <ele>1802.1</ele>
                <time>2009-08-25T08:45:31.000Z</time>
                <name>Position 1843</name>
            </trkpt>
            <trkpt lon="10.6173116666667" lat="47.49703">
                <ele>1802.9</ele>
                <time>2009-08-25T08:45:34.000Z</time>
                <name>Position 1844</name>
            </trkpt>
            <trkpt lon="10.61733" lat="47.4970366666667">
                <ele>1804.1</ele>
                <time>2009-08-25T08:45:37.000Z</time>
                <name>Position 1845</name>
            </trkpt>
            <trkpt lon="10.617345" lat="47.49705">
                <ele>1805.1</ele>
                <time>2009-08-25T08:45:40.000Z</time>
                <name>Position 1846</name>
            </trkpt>
            <trkpt lon="10.61735" lat="47.4970666666667">
                <ele>1805.6</ele>
                <time>2009-08-25T08:45:43.000Z</time>
                <name>Position 1847</name>
            </trkpt>
            <trkpt lon="10.6173516666667" lat="47.497075">
                <ele>1805.7</ele>
                <time>2009-08-25T08:45:46.000Z</time>
                <name>Position 1848</name>
            </trkpt>
            <trkpt lon="10.6173766666667" lat="47.4970833333333">
                <ele>1806.2</ele>
                <time>2009-08-25T08:45:49.000Z</time>
                <name>Position 1849</name>
            </trkpt>
            <trkpt lon="10.6174033333333" lat="47.4970883333333">
                <ele>1806.6</ele>
                <time>2009-08-25T08:45:52.000Z</time>
                <name>Position 1850</name>
            </trkpt>
            <trkpt lon="10.6174116666667" lat="47.49711">
                <ele>1807.2</ele>
                <time>2009-08-25T08:45:55.000Z</time>
                <name>Position 1851</name>
            </trkpt>
            <trkpt lon="10.6174266666667" lat="47.4971266666667">
                <ele>1807.7</ele>
                <time>2009-08-25T08:45:58.000Z</time>
                <name>Position 1852</name>
            </trkpt>
            <trkpt lon="10.61745" lat="47.4971383333333">
                <ele>1808.6</ele>
                <time>2009-08-25T08:46:01.000Z</time>
                <name>Position 1853</name>
            </trkpt>
            <trkpt lon="10.61747" lat="47.4971466666667">
                <ele>1809.1</ele>
                <time>2009-08-25T08:46:04.000Z</time>
                <name>Position 1854</name>
            </trkpt>
            <trkpt lon="10.6174783333333" lat="47.4971633333333">
                <ele>1809.7</ele>
                <time>2009-08-25T08:46:07.000Z</time>
                <name>Position 1855</name>
            </trkpt>
            <trkpt lon="10.617505" lat="47.4971683333333">
                <ele>1809.9</ele>
                <time>2009-08-25T08:46:10.000Z</time>
                <name>Position 1856</name>
            </trkpt>
            <trkpt lon="10.617505" lat="47.4971833333333">
                <ele>1810.5</ele>
                <time>2009-08-25T08:46:13.000Z</time>
                <name>Position 1857</name>
            </trkpt>
            <trkpt lon="10.6175166666667" lat="47.4971933333333">
                <ele>1811.2</ele>
                <time>2009-08-25T08:46:16.000Z</time>
                <name>Position 1858</name>
            </trkpt>
            <trkpt lon="10.617535" lat="47.497205">
                <ele>1811.9</ele>
                <time>2009-08-25T08:46:19.000Z</time>
                <name>Position 1859</name>
            </trkpt>
            <trkpt lon="10.6175483333333" lat="47.4972083333333">
                <ele>1811.9</ele>
                <time>2009-08-25T08:46:22.000Z</time>
                <name>Position 1860</name>
            </trkpt>
            <trkpt lon="10.617545" lat="47.4972116666667">
                <ele>1811.9</ele>
                <time>2009-08-25T08:46:25.000Z</time>
                <name>Position 1861</name>
            </trkpt>
            <trkpt lon="10.6175433333333" lat="47.497215">
                <ele>1811.6</ele>
                <time>2009-08-25T08:46:28.000Z</time>
                <name>Position 1862</name>
            </trkpt>
            <trkpt lon="10.6175416666667" lat="47.4972183333333">
                <ele>1811.3</ele>
                <time>2009-08-25T08:46:31.000Z</time>
                <name>Position 1863</name>
            </trkpt>
            <trkpt lon="10.6175266666667" lat="47.49723">
                <ele>1810.4</ele>
                <time>2009-08-25T08:46:34.000Z</time>
                <name>Position 1864</name>
            </trkpt>
            <trkpt lon="10.61753" lat="47.4972466666667">
                <ele>1810.4</ele>
                <time>2009-08-25T08:46:37.000Z</time>
                <name>Position 1865</name>
            </trkpt>
            <trkpt lon="10.6175433333333" lat="47.4972583333333">
                <ele>1810.9</ele>
                <time>2009-08-25T08:46:40.000Z</time>
                <name>Position 1866</name>
            </trkpt>
            <trkpt lon="10.6175616666667" lat="47.4972816666667">
                <ele>1811.5</ele>
                <time>2009-08-25T08:46:44.000Z</time>
                <name>Position 1867</name>
            </trkpt>
            <trkpt lon="10.6175683333333" lat="47.4972883333333">
                <ele>1812.5</ele>
                <time>2009-08-25T08:46:47.000Z</time>
                <name>Position 1868</name>
            </trkpt>
            <trkpt lon="10.6175833333333" lat="47.4973066666667">
                <ele>1813.4</ele>
                <time>2009-08-25T08:46:50.000Z</time>
                <name>Position 1869</name>
            </trkpt>
            <trkpt lon="10.6175833333333" lat="47.4973266666667">
                <ele>1814.4</ele>
                <time>2009-08-25T08:46:53.000Z</time>
                <name>Position 1870</name>
            </trkpt>
            <trkpt lon="10.6175833333333" lat="47.4973433333333">
                <ele>1814.8</ele>
                <time>2009-08-25T08:46:56.000Z</time>
                <name>Position 1871</name>
            </trkpt>
            <trkpt lon="10.617555" lat="47.49735">
                <ele>1815.1</ele>
                <time>2009-08-25T08:46:59.000Z</time>
                <name>Position 1872</name>
            </trkpt>
            <trkpt lon="10.6175616666667" lat="47.497365">
                <ele>1815.7</ele>
                <time>2009-08-25T08:47:02.000Z</time>
                <name>Position 1873</name>
            </trkpt>
            <trkpt lon="10.6175616666667" lat="47.4973783333333">
                <ele>1816.7</ele>
                <time>2009-08-25T08:47:05.000Z</time>
                <name>Position 1874</name>
            </trkpt>
            <trkpt lon="10.6175683333333" lat="47.497395">
                <ele>1816.7</ele>
                <time>2009-08-25T08:47:08.000Z</time>
                <name>Position 1875</name>
            </trkpt>
            <trkpt lon="10.6175816666667" lat="47.497405">
                <ele>1816.5</ele>
                <time>2009-08-25T08:47:11.000Z</time>
                <name>Position 1876</name>
            </trkpt>
            <trkpt lon="10.6175866666667" lat="47.4974316666667">
                <ele>1814.5</ele>
                <time>2009-08-25T08:47:14.000Z</time>
                <name>Position 1877</name>
            </trkpt>
            <trkpt lon="10.6175916666667" lat="47.4974666666667">
                <ele>1810.5</ele>
                <time>2009-08-25T08:47:17.000Z</time>
                <name>Position 1878</name>
            </trkpt>
            <trkpt lon="10.617615" lat="47.4974716666667">
                <ele>1812.2</ele>
                <time>2009-08-25T08:47:20.000Z</time>
                <name>Position 1879</name>
            </trkpt>
            <trkpt lon="10.6176316666667" lat="47.4974833333333">
                <ele>1813.2</ele>
                <time>2009-08-25T08:47:23.000Z</time>
                <name>Position 1880</name>
            </trkpt>
            <trkpt lon="10.6176366666667" lat="47.4974983333333">
                <ele>1813.9</ele>
                <time>2009-08-25T08:47:26.000Z</time>
                <name>Position 1881</name>
            </trkpt>
            <trkpt lon="10.6176416666667" lat="47.4975166666667">
                <ele>1814.8</ele>
                <time>2009-08-25T08:47:29.000Z</time>
                <name>Position 1882</name>
            </trkpt>
            <trkpt lon="10.617645" lat="47.4975333333333">
                <ele>1815.4</ele>
                <time>2009-08-25T08:47:32.000Z</time>
                <name>Position 1883</name>
            </trkpt>
            <trkpt lon="10.6176616666667" lat="47.4975483333333">
                <ele>1816.2</ele>
                <time>2009-08-25T08:47:35.000Z</time>
                <name>Position 1884</name>
            </trkpt>
            <trkpt lon="10.6176833333333" lat="47.4975566666667">
                <ele>1816.4</ele>
                <time>2009-08-25T08:47:38.000Z</time>
                <name>Position 1885</name>
            </trkpt>
            <trkpt lon="10.6176966666667" lat="47.4975566666667">
                <ele>1816.7</ele>
                <time>2009-08-25T08:47:41.000Z</time>
                <name>Position 1886</name>
            </trkpt>
            <trkpt lon="10.6177" lat="47.497555">
                <ele>1816.7</ele>
                <time>2009-08-25T08:47:44.000Z</time>
                <name>Position 1887</name>
            </trkpt>
            <trkpt lon="10.6177016666667" lat="47.4975566666667">
                <ele>1816.7</ele>
                <time>2009-08-25T08:47:47.000Z</time>
                <name>Position 1888</name>
            </trkpt>
            <trkpt lon="10.6177033333333" lat="47.4975583333333">
                <ele>1816.7</ele>
                <time>2009-08-25T08:47:50.000Z</time>
                <name>Position 1889</name>
            </trkpt>
            <trkpt lon="10.617705" lat="47.49756">
                <ele>1816.8</ele>
                <time>2009-08-25T08:47:53.000Z</time>
                <name>Position 1890</name>
            </trkpt>
            <trkpt lon="10.617705" lat="47.4975616666667">
                <ele>1816.8</ele>
                <time>2009-08-25T08:47:56.000Z</time>
                <name>Position 1891</name>
            </trkpt>
            <trkpt lon="10.617705" lat="47.4975616666667">
                <ele>1816.8</ele>
                <time>2009-08-25T08:47:59.000Z</time>
                <name>Position 1892</name>
            </trkpt>
            <trkpt lon="10.6177066666667" lat="47.4975616666667">
                <ele>1816.8</ele>
                <time>2009-08-25T08:48:02.000Z</time>
                <name>Position 1893</name>
            </trkpt>
            <trkpt lon="10.6177083333333" lat="47.4975633333333">
                <ele>1817.0</ele>
                <time>2009-08-25T08:48:05.000Z</time>
                <name>Position 1894</name>
            </trkpt>
            <trkpt lon="10.61771" lat="47.4975633333333">
                <ele>1817.0</ele>
                <time>2009-08-25T08:48:08.000Z</time>
                <name>Position 1895</name>
            </trkpt>
            <trkpt lon="10.61771" lat="47.4975633333333">
                <ele>1817.0</ele>
                <time>2009-08-25T08:48:11.000Z</time>
                <name>Position 1896</name>
            </trkpt>
            <trkpt lon="10.61771" lat="47.497565">
                <ele>1817.0</ele>
                <time>2009-08-25T08:48:14.000Z</time>
                <name>Position 1897</name>
            </trkpt>
            <trkpt lon="10.61771" lat="47.497565">
                <ele>1816.9</ele>
                <time>2009-08-25T08:48:17.000Z</time>
                <name>Position 1898</name>
            </trkpt>
            <trkpt lon="10.617705" lat="47.49757">
                <ele>1817.2</ele>
                <time>2009-08-25T08:48:20.000Z</time>
                <name>Position 1899</name>
            </trkpt>
            <trkpt lon="10.6177016666667" lat="47.4975866666667">
                <ele>1817.8</ele>
                <time>2009-08-25T08:48:23.000Z</time>
                <name>Position 1900</name>
            </trkpt>
            <trkpt lon="10.6177066666667" lat="47.4976033333333">
                <ele>1818.8</ele>
                <time>2009-08-25T08:48:26.000Z</time>
                <name>Position 1901</name>
            </trkpt>
            <trkpt lon="10.6176983333333" lat="47.497625">
                <ele>1819.5</ele>
                <time>2009-08-25T08:48:29.000Z</time>
                <name>Position 1902</name>
            </trkpt>
            <trkpt lon="10.617695" lat="47.4976433333333">
                <ele>1820.1</ele>
                <time>2009-08-25T08:48:32.000Z</time>
                <name>Position 1903</name>
            </trkpt>
            <trkpt lon="10.6176866666667" lat="47.4976633333333">
                <ele>1820.6</ele>
                <time>2009-08-25T08:48:35.000Z</time>
                <name>Position 1904</name>
            </trkpt>
            <trkpt lon="10.61767" lat="47.49768">
                <ele>1821.6</ele>
                <time>2009-08-25T08:48:38.000Z</time>
                <name>Position 1905</name>
            </trkpt>
            <trkpt lon="10.61767" lat="47.4977033333333">
                <ele>1822.1</ele>
                <time>2009-08-25T08:48:41.000Z</time>
                <name>Position 1906</name>
            </trkpt>
            <trkpt lon="10.6176733333333" lat="47.4977283333333">
                <ele>1822.9</ele>
                <time>2009-08-25T08:48:44.000Z</time>
                <name>Position 1907</name>
            </trkpt>
            <trkpt lon="10.617685" lat="47.4977516666667">
                <ele>1823.4</ele>
                <time>2009-08-25T08:48:47.000Z</time>
                <name>Position 1908</name>
            </trkpt>
            <trkpt lon="10.617685" lat="47.4977733333333">
                <ele>1823.8</ele>
                <time>2009-08-25T08:48:50.000Z</time>
                <name>Position 1909</name>
            </trkpt>
            <trkpt lon="10.61768" lat="47.49779">
                <ele>1824.6</ele>
                <time>2009-08-25T08:48:53.000Z</time>
                <name>Position 1910</name>
            </trkpt>
            <trkpt lon="10.6176816666667" lat="47.4978">
                <ele>1824.6</ele>
                <time>2009-08-25T08:48:56.000Z</time>
                <name>Position 1911</name>
            </trkpt>
            <trkpt lon="10.61769" lat="47.497805">
                <ele>1824.9</ele>
                <time>2009-08-25T08:48:59.000Z</time>
                <name>Position 1912</name>
            </trkpt>
            <trkpt lon="10.6176966666667" lat="47.4978283333333">
                <ele>1826.1</ele>
                <time>2009-08-25T08:49:02.000Z</time>
                <name>Position 1913</name>
            </trkpt>
            <trkpt lon="10.6176933333333" lat="47.497845">
                <ele>1826.7</ele>
                <time>2009-08-25T08:49:05.000Z</time>
                <name>Position 1914</name>
            </trkpt>
            <trkpt lon="10.6177083333333" lat="47.4978666666667">
                <ele>1827.0</ele>
                <time>2009-08-25T08:49:08.000Z</time>
                <name>Position 1915</name>
            </trkpt>
            <trkpt lon="10.6177133333333" lat="47.49789">
                <ele>1827.4</ele>
                <time>2009-08-25T08:49:11.000Z</time>
                <name>Position 1916</name>
            </trkpt>
            <trkpt lon="10.6177083333333" lat="47.497905">
                <ele>1827.8</ele>
                <time>2009-08-25T08:49:14.000Z</time>
                <name>Position 1917</name>
            </trkpt>
            <trkpt lon="10.617715" lat="47.4979216666667">
                <ele>1828.2</ele>
                <time>2009-08-25T08:49:17.000Z</time>
                <name>Position 1918</name>
            </trkpt>
            <trkpt lon="10.6177116666667" lat="47.497935">
                <ele>1828.0</ele>
                <time>2009-08-25T08:49:20.000Z</time>
                <name>Position 1919</name>
            </trkpt>
            <trkpt lon="10.61771" lat="47.4979333333333">
                <ele>1828.1</ele>
                <time>2009-08-25T08:49:23.000Z</time>
                <name>Position 1920</name>
            </trkpt>
            <trkpt lon="10.6177116666667" lat="47.497935">
                <ele>1828.1</ele>
                <time>2009-08-25T08:49:26.000Z</time>
                <name>Position 1921</name>
            </trkpt>
            <trkpt lon="10.6177116666667" lat="47.497935">
                <ele>1828.1</ele>
                <time>2009-08-25T08:49:29.000Z</time>
                <name>Position 1922</name>
            </trkpt>
            <trkpt lon="10.6177116666667" lat="47.4979366666667">
                <ele>1828.0</ele>
                <time>2009-08-25T08:49:32.000Z</time>
                <name>Position 1923</name>
            </trkpt>
            <trkpt lon="10.6177133333333" lat="47.4979383333333">
                <ele>1828.0</ele>
                <time>2009-08-25T08:49:35.000Z</time>
                <name>Position 1924</name>
            </trkpt>
            <trkpt lon="10.6177133333333" lat="47.4979383333333">
                <ele>1828.0</ele>
                <time>2009-08-25T08:49:38.000Z</time>
                <name>Position 1925</name>
            </trkpt>
            <trkpt lon="10.6177133333333" lat="47.49794">
                <ele>1828.1</ele>
                <time>2009-08-25T08:49:41.000Z</time>
                <name>Position 1926</name>
            </trkpt>
            <trkpt lon="10.6177116666667" lat="47.4979416666667">
                <ele>1827.9</ele>
                <time>2009-08-25T08:49:44.000Z</time>
                <name>Position 1927</name>
            </trkpt>
            <trkpt lon="10.6177066666667" lat="47.4979433333333">
                <ele>1828.0</ele>
                <time>2009-08-25T08:49:47.000Z</time>
                <name>Position 1928</name>
            </trkpt>
            <trkpt lon="10.6177083333333" lat="47.497945">
                <ele>1827.9</ele>
                <time>2009-08-25T08:49:50.000Z</time>
                <name>Position 1929</name>
            </trkpt>
            <trkpt lon="10.6177083333333" lat="47.4979466666667">
                <ele>1828.0</ele>
                <time>2009-08-25T08:49:53.000Z</time>
                <name>Position 1930</name>
            </trkpt>
            <trkpt lon="10.6177083333333" lat="47.49795">
                <ele>1828.0</ele>
                <time>2009-08-25T08:49:56.000Z</time>
                <name>Position 1931</name>
            </trkpt>
            <trkpt lon="10.617695" lat="47.4979466666667">
                <ele>1827.5</ele>
                <time>2009-08-25T08:49:59.000Z</time>
                <name>Position 1932</name>
            </trkpt>
            <trkpt lon="10.6176916666667" lat="47.4979433333333">
                <ele>1827.5</ele>
                <time>2009-08-25T08:50:02.000Z</time>
                <name>Position 1933</name>
            </trkpt>
            <trkpt lon="10.61769" lat="47.4979433333333">
                <ele>1827.5</ele>
                <time>2009-08-25T08:50:05.000Z</time>
                <name>Position 1934</name>
            </trkpt>
            <trkpt lon="10.61769" lat="47.4979433333333">
                <ele>1827.4</ele>
                <time>2009-08-25T08:50:08.000Z</time>
                <name>Position 1935</name>
            </trkpt>
            <trkpt lon="10.61771" lat="47.4979516666667">
                <ele>1827.1</ele>
                <time>2009-08-25T08:50:11.000Z</time>
                <name>Position 1936</name>
            </trkpt>
            <trkpt lon="10.6177133333333" lat="47.4979633333333">
                <ele>1826.4</ele>
                <time>2009-08-25T08:50:14.000Z</time>
                <name>Position 1937</name>
            </trkpt>
            <trkpt lon="10.6177333333333" lat="47.4979866666667">
                <ele>1826.5</ele>
                <time>2009-08-25T08:50:17.000Z</time>
                <name>Position 1938</name>
            </trkpt>
            <trkpt lon="10.6177316666667" lat="47.4979933333333">
                <ele>1826.3</ele>
                <time>2009-08-25T08:50:20.000Z</time>
                <name>Position 1939</name>
            </trkpt>
            <trkpt lon="10.617735" lat="47.4979966666667">
                <ele>1826.3</ele>
                <time>2009-08-25T08:50:23.000Z</time>
                <name>Position 1940</name>
            </trkpt>
            <trkpt lon="10.61775" lat="47.49801">
                <ele>1826.7</ele>
                <time>2009-08-25T08:50:26.000Z</time>
                <name>Position 1941</name>
            </trkpt>
            <trkpt lon="10.6177516666667" lat="47.498005">
                <ele>1826.8</ele>
                <time>2009-08-25T08:50:29.000Z</time>
                <name>Position 1942</name>
            </trkpt>
            <trkpt lon="10.617765" lat="47.49801">
                <ele>1826.4</ele>
                <time>2009-08-25T08:50:32.000Z</time>
                <name>Position 1943</name>
            </trkpt>
            <trkpt lon="10.6177966666667" lat="47.49803">
                <ele>1826.9</ele>
                <time>2009-08-25T08:50:35.000Z</time>
                <name>Position 1944</name>
            </trkpt>
            <trkpt lon="10.6178216666667" lat="47.49805">
                <ele>1827.3</ele>
                <time>2009-08-25T08:50:38.000Z</time>
                <name>Position 1945</name>
            </trkpt>
            <trkpt lon="10.617835" lat="47.4980766666667">
                <ele>1827.6</ele>
                <time>2009-08-25T08:50:41.000Z</time>
                <name>Position 1946</name>
            </trkpt>
            <trkpt lon="10.6178266666667" lat="47.4981016666667">
                <ele>1828.2</ele>
                <time>2009-08-25T08:50:44.000Z</time>
                <name>Position 1947</name>
            </trkpt>
            <trkpt lon="10.6178283333333" lat="47.498115">
                <ele>1828.6</ele>
                <time>2009-08-25T08:50:47.000Z</time>
                <name>Position 1948</name>
            </trkpt>
            <trkpt lon="10.6178233333333" lat="47.49812">
                <ele>1828.3</ele>
                <time>2009-08-25T08:50:50.000Z</time>
                <name>Position 1949</name>
            </trkpt>
            <trkpt lon="10.6178216666667" lat="47.4981216666667">
                <ele>1828.1</ele>
                <time>2009-08-25T08:50:53.000Z</time>
                <name>Position 1950</name>
            </trkpt>
            <trkpt lon="10.6178216666667" lat="47.4981233333333">
                <ele>1827.8</ele>
                <time>2009-08-25T08:50:56.000Z</time>
                <name>Position 1951</name>
            </trkpt>
            <trkpt lon="10.6178216666667" lat="47.498125">
                <ele>1827.5</ele>
                <time>2009-08-25T08:50:59.000Z</time>
                <name>Position 1952</name>
            </trkpt>
            <trkpt lon="10.6178183333333" lat="47.4981266666667">
                <ele>1827.2</ele>
                <time>2009-08-25T08:51:02.000Z</time>
                <name>Position 1953</name>
            </trkpt>
            <trkpt lon="10.61781" lat="47.498145">
                <ele>1827.2</ele>
                <time>2009-08-25T08:51:05.000Z</time>
                <name>Position 1954</name>
            </trkpt>
            <trkpt lon="10.6178" lat="47.4981683333333">
                <ele>1827.7</ele>
                <time>2009-08-25T08:51:08.000Z</time>
                <name>Position 1955</name>
            </trkpt>
            <trkpt lon="10.6177816666667" lat="47.498185">
                <ele>1828.3</ele>
                <time>2009-08-25T08:51:11.000Z</time>
                <name>Position 1956</name>
            </trkpt>
            <trkpt lon="10.6177583333333" lat="47.4981883333333">
                <ele>1828.6</ele>
                <time>2009-08-25T08:51:13.000Z</time>
                <name>Position 1957</name>
            </trkpt>
            <trkpt lon="10.6177416666667" lat="47.4982133333333">
                <ele>1829.3</ele>
                <time>2009-08-25T08:51:17.000Z</time>
                <name>Position 1958</name>
            </trkpt>
            <trkpt lon="10.61773" lat="47.4982366666667">
                <ele>1829.9</ele>
                <time>2009-08-25T08:51:20.000Z</time>
                <name>Position 1959</name>
            </trkpt>
            <trkpt lon="10.6177083333333" lat="47.4982533333333">
                <ele>1830.0</ele>
                <time>2009-08-25T08:51:23.000Z</time>
                <name>Position 1960</name>
            </trkpt>
            <trkpt lon="10.6177116666667" lat="47.4982716666667">
                <ele>1830.5</ele>
                <time>2009-08-25T08:51:26.000Z</time>
                <name>Position 1961</name>
            </trkpt>
            <trkpt lon="10.6177066666667" lat="47.49829">
                <ele>1831.5</ele>
                <time>2009-08-25T08:51:29.000Z</time>
                <name>Position 1962</name>
            </trkpt>
            <trkpt lon="10.6176783333333" lat="47.4983083333333">
                <ele>1831.7</ele>
                <time>2009-08-25T08:51:32.000Z</time>
                <name>Position 1963</name>
            </trkpt>
            <trkpt lon="10.6176633333333" lat="47.4983283333333">
                <ele>1831.9</ele>
                <time>2009-08-25T08:51:35.000Z</time>
                <name>Position 1964</name>
            </trkpt>
            <trkpt lon="10.6176733333333" lat="47.498355">
                <ele>1832.4</ele>
                <time>2009-08-25T08:51:38.000Z</time>
                <name>Position 1965</name>
            </trkpt>
            <trkpt lon="10.6176583333333" lat="47.4983766666667">
                <ele>1832.6</ele>
                <time>2009-08-25T08:51:41.000Z</time>
                <name>Position 1966</name>
            </trkpt>
            <trkpt lon="10.6176383333333" lat="47.4983966666667">
                <ele>1832.9</ele>
                <time>2009-08-25T08:51:44.000Z</time>
                <name>Position 1967</name>
            </trkpt>
            <trkpt lon="10.61761" lat="47.4984083333333">
                <ele>1833.2</ele>
                <time>2009-08-25T08:51:47.000Z</time>
                <name>Position 1968</name>
            </trkpt>
            <trkpt lon="10.6175816666667" lat="47.4984166666667">
                <ele>1833.5</ele>
                <time>2009-08-25T08:51:50.000Z</time>
                <name>Position 1969</name>
            </trkpt>
            <trkpt lon="10.61755" lat="47.4984266666667">
                <ele>1833.8</ele>
                <time>2009-08-25T08:51:53.000Z</time>
                <name>Position 1970</name>
            </trkpt>
            <trkpt lon="10.617515" lat="47.4984366666667">
                <ele>1834.0</ele>
                <time>2009-08-25T08:51:56.000Z</time>
                <name>Position 1971</name>
            </trkpt>
            <trkpt lon="10.6175066666667" lat="47.4984433333333">
                <ele>1833.9</ele>
                <time>2009-08-25T08:51:59.000Z</time>
                <name>Position 1972</name>
            </trkpt>
            <trkpt lon="10.6175066666667" lat="47.4984416666667">
                <ele>1833.5</ele>
                <time>2009-08-25T08:52:02.000Z</time>
                <name>Position 1973</name>
            </trkpt>
            <trkpt lon="10.617505" lat="47.4984433333333">
                <ele>1833.2</ele>
                <time>2009-08-25T08:52:05.000Z</time>
                <name>Position 1974</name>
            </trkpt>
            <trkpt lon="10.6175" lat="47.49845">
                <ele>1833.1</ele>
                <time>2009-08-25T08:52:08.000Z</time>
                <name>Position 1975</name>
            </trkpt>
            <trkpt lon="10.6174916666667" lat="47.4984516666667">
                <ele>1832.9</ele>
                <time>2009-08-25T08:52:11.000Z</time>
                <name>Position 1976</name>
            </trkpt>
            <trkpt lon="10.6174883333333" lat="47.4984516666667">
                <ele>1832.8</ele>
                <time>2009-08-25T08:52:14.000Z</time>
                <name>Position 1977</name>
            </trkpt>
            <trkpt lon="10.6174866666667" lat="47.4984516666667">
                <ele>1832.5</ele>
                <time>2009-08-25T08:52:17.000Z</time>
                <name>Position 1978</name>
            </trkpt>
            <trkpt lon="10.6174866666667" lat="47.4984533333333">
                <ele>1832.3</ele>
                <time>2009-08-25T08:52:20.000Z</time>
                <name>Position 1979</name>
            </trkpt>
            <trkpt lon="10.6174866666667" lat="47.4984566666667">
                <ele>1832.1</ele>
                <time>2009-08-25T08:52:23.000Z</time>
                <name>Position 1980</name>
            </trkpt>
            <trkpt lon="10.617485" lat="47.4984566666667">
                <ele>1831.9</ele>
                <time>2009-08-25T08:52:26.000Z</time>
                <name>Position 1981</name>
            </trkpt>
            <trkpt lon="10.617485" lat="47.4984583333333">
                <ele>1831.6</ele>
                <time>2009-08-25T08:52:29.000Z</time>
                <name>Position 1982</name>
            </trkpt>
            <trkpt lon="10.6174833333333" lat="47.49846">
                <ele>1831.5</ele>
                <time>2009-08-25T08:52:32.000Z</time>
                <name>Position 1983</name>
            </trkpt>
            <trkpt lon="10.6174833333333" lat="47.49846">
                <ele>1831.5</ele>
                <time>2009-08-25T08:52:35.000Z</time>
                <name>Position 1984</name>
            </trkpt>
            <trkpt lon="10.6174816666667" lat="47.4984616666667">
                <ele>1831.3</ele>
                <time>2009-08-25T08:52:38.000Z</time>
                <name>Position 1985</name>
            </trkpt>
            <trkpt lon="10.6174816666667" lat="47.4984633333333">
                <ele>1831.0</ele>
                <time>2009-08-25T08:52:41.000Z</time>
                <name>Position 1986</name>
            </trkpt>
            <trkpt lon="10.6174816666667" lat="47.4984633333333">
                <ele>1831.0</ele>
                <time>2009-08-25T08:52:44.000Z</time>
                <name>Position 1987</name>
            </trkpt>
            <trkpt lon="10.6174816666667" lat="47.498465">
                <ele>1831.0</ele>
                <time>2009-08-25T08:52:47.000Z</time>
                <name>Position 1988</name>
            </trkpt>
            <trkpt lon="10.6174816666667" lat="47.498465">
                <ele>1831.0</ele>
                <time>2009-08-25T08:52:50.000Z</time>
                <name>Position 1989</name>
            </trkpt>
            <trkpt lon="10.6174816666667" lat="47.498465">
                <ele>1830.9</ele>
                <time>2009-08-25T08:52:53.000Z</time>
                <name>Position 1990</name>
            </trkpt>
            <trkpt lon="10.61748" lat="47.498465">
                <ele>1830.9</ele>
                <time>2009-08-25T08:52:56.000Z</time>
                <name>Position 1991</name>
            </trkpt>
            <trkpt lon="10.6174816666667" lat="47.498465">
                <ele>1830.8</ele>
                <time>2009-08-25T08:52:59.000Z</time>
                <name>Position 1992</name>
            </trkpt>
            <trkpt lon="10.6174816666667" lat="47.498465">
                <ele>1830.8</ele>
                <time>2009-08-25T08:53:02.000Z</time>
                <name>Position 1993</name>
            </trkpt>
            <trkpt lon="10.6174816666667" lat="47.498465">
                <ele>1830.8</ele>
                <time>2009-08-25T08:53:05.000Z</time>
                <name>Position 1994</name>
            </trkpt>
            <trkpt lon="10.6174816666667" lat="47.498465">
                <ele>1830.8</ele>
                <time>2009-08-25T08:53:08.000Z</time>
                <name>Position 1995</name>
            </trkpt>
            <trkpt lon="10.6174816666667" lat="47.4984633333333">
                <ele>1830.8</ele>
                <time>2009-08-25T08:53:11.000Z</time>
                <name>Position 1996</name>
            </trkpt>
            <trkpt lon="10.617475" lat="47.4984716666667">
                <ele>1831.3</ele>
                <time>2009-08-25T08:53:14.000Z</time>
                <name>Position 1997</name>
            </trkpt>
            <trkpt lon="10.61747" lat="47.4985033333333">
                <ele>1831.9</ele>
                <time>2009-08-25T08:53:17.000Z</time>
                <name>Position 1998</name>
            </trkpt>
            <trkpt lon="10.6174533333333" lat="47.4985183333333">
                <ele>1832.1</ele>
                <time>2009-08-25T08:53:20.000Z</time>
                <name>Position 1999</name>
            </trkpt>
            <trkpt lon="10.617435" lat="47.498555">
                <ele>1831.8</ele>
                <time>2009-08-25T08:53:23.000Z</time>
                <name>Position 2000</name>
            </trkpt>
            <trkpt lon="10.61743" lat="47.4985883333333">
                <ele>1831.7</ele>
                <time>2009-08-25T08:53:26.000Z</time>
                <name>Position 2001</name>
            </trkpt>
            <trkpt lon="10.6174533333333" lat="47.4986233333333">
                <ele>1832.0</ele>
                <time>2009-08-25T08:53:29.000Z</time>
                <name>Position 2002</name>
            </trkpt>
            <trkpt lon="10.6174666666667" lat="47.4986466666667">
                <ele>1832.9</ele>
                <time>2009-08-25T08:53:32.000Z</time>
                <name>Position 2003</name>
            </trkpt>
            <trkpt lon="10.6174766666667" lat="47.4986733333333">
                <ele>1833.6</ele>
                <time>2009-08-25T08:53:35.000Z</time>
                <name>Position 2004</name>
            </trkpt>
            <trkpt lon="10.6174416666667" lat="47.4987016666667">
                <ele>1833.2</ele>
                <time>2009-08-25T08:53:38.000Z</time>
                <name>Position 2005</name>
            </trkpt>
            <trkpt lon="10.6174383333333" lat="47.4987316666667">
                <ele>1833.8</ele>
                <time>2009-08-25T08:53:41.000Z</time>
                <name>Position 2006</name>
            </trkpt>
            <trkpt lon="10.6174533333333" lat="47.49876">
                <ele>1834.5</ele>
                <time>2009-08-25T08:53:44.000Z</time>
                <name>Position 2007</name>
            </trkpt>
            <trkpt lon="10.617435" lat="47.49878">
                <ele>1834.3</ele>
                <time>2009-08-25T08:53:46.000Z</time>
                <name>Position 2008</name>
            </trkpt>
            <trkpt lon="10.617385" lat="47.4988066666667">
                <ele>1834.4</ele>
                <time>2009-08-25T08:53:50.000Z</time>
                <name>Position 2009</name>
            </trkpt>
            <trkpt lon="10.617355" lat="47.4988383333333">
                <ele>1834.8</ele>
                <time>2009-08-25T08:53:53.000Z</time>
                <name>Position 2010</name>
            </trkpt>
            <trkpt lon="10.6173466666667" lat="47.4988583333333">
                <ele>1835.7</ele>
                <time>2009-08-25T08:53:56.000Z</time>
                <name>Position 2011</name>
            </trkpt>
            <trkpt lon="10.617335" lat="47.4988783333333">
                <ele>1836.6</ele>
                <time>2009-08-25T08:53:59.000Z</time>
                <name>Position 2012</name>
            </trkpt>
            <trkpt lon="10.6173066666667" lat="47.498895">
                <ele>1837.1</ele>
                <time>2009-08-25T08:54:02.000Z</time>
                <name>Position 2013</name>
            </trkpt>
            <trkpt lon="10.6172633333333" lat="47.4989116666667">
                <ele>1837.8</ele>
                <time>2009-08-25T08:54:05.000Z</time>
                <name>Position 2014</name>
            </trkpt>
            <trkpt lon="10.617225" lat="47.49893">
                <ele>1838.3</ele>
                <time>2009-08-25T08:54:08.000Z</time>
                <name>Position 2015</name>
            </trkpt>
            <trkpt lon="10.6171983333333" lat="47.4989466666667">
                <ele>1839.2</ele>
                <time>2009-08-25T08:54:11.000Z</time>
                <name>Position 2016</name>
            </trkpt>
            <trkpt lon="10.61718" lat="47.4989716666667">
                <ele>1840.1</ele>
                <time>2009-08-25T08:54:14.000Z</time>
                <name>Position 2017</name>
            </trkpt>
            <trkpt lon="10.6171466666667" lat="47.4989866666667">
                <ele>1840.5</ele>
                <time>2009-08-25T08:54:17.000Z</time>
                <name>Position 2018</name>
            </trkpt>
            <trkpt lon="10.6171116666667" lat="47.499005">
                <ele>1841.1</ele>
                <time>2009-08-25T08:54:20.000Z</time>
                <name>Position 2019</name>
            </trkpt>
            <trkpt lon="10.61709" lat="47.4990233333333">
                <ele>1841.8</ele>
                <time>2009-08-25T08:54:23.000Z</time>
                <name>Position 2020</name>
            </trkpt>
            <trkpt lon="10.61706" lat="47.4990383333333">
                <ele>1842.4</ele>
                <time>2009-08-25T08:54:26.000Z</time>
                <name>Position 2021</name>
            </trkpt>
            <trkpt lon="10.6170183333333" lat="47.4990383333333">
                <ele>1842.0</ele>
                <time>2009-08-25T08:54:29.000Z</time>
                <name>Position 2022</name>
            </trkpt>
            <trkpt lon="10.6169833333333" lat="47.4990533333333">
                <ele>1842.5</ele>
                <time>2009-08-25T08:54:32.000Z</time>
                <name>Position 2023</name>
            </trkpt>
            <trkpt lon="10.6169566666667" lat="47.499075">
                <ele>1843.2</ele>
                <time>2009-08-25T08:54:35.000Z</time>
                <name>Position 2024</name>
            </trkpt>
            <trkpt lon="10.6169333333333" lat="47.499095">
                <ele>1843.6</ele>
                <time>2009-08-25T08:54:38.000Z</time>
                <name>Position 2025</name>
            </trkpt>
            <trkpt lon="10.6169066666667" lat="47.499115">
                <ele>1844.3</ele>
                <time>2009-08-25T08:54:41.000Z</time>
                <name>Position 2026</name>
            </trkpt>
            <trkpt lon="10.6168683333333" lat="47.49913">
                <ele>1844.7</ele>
                <time>2009-08-25T08:54:44.000Z</time>
                <name>Position 2027</name>
            </trkpt>
            <trkpt lon="10.6168316666667" lat="47.4991466666667">
                <ele>1845.2</ele>
                <time>2009-08-25T08:54:47.000Z</time>
                <name>Position 2028</name>
            </trkpt>
            <trkpt lon="10.61679" lat="47.4991533333333">
                <ele>1845.9</ele>
                <time>2009-08-25T08:54:50.000Z</time>
                <name>Position 2029</name>
            </trkpt>
            <trkpt lon="10.61676" lat="47.499165">
                <ele>1846.0</ele>
                <time>2009-08-25T08:54:53.000Z</time>
                <name>Position 2030</name>
            </trkpt>
            <trkpt lon="10.6167266666667" lat="47.49918">
                <ele>1846.4</ele>
                <time>2009-08-25T08:54:56.000Z</time>
                <name>Position 2031</name>
            </trkpt>
            <trkpt lon="10.616715" lat="47.49919">
                <ele>1847.1</ele>
                <time>2009-08-25T08:54:59.000Z</time>
                <name>Position 2032</name>
            </trkpt>
            <trkpt lon="10.616705" lat="47.4992">
                <ele>1847.8</ele>
                <time>2009-08-25T08:55:02.000Z</time>
                <name>Position 2033</name>
            </trkpt>
            <trkpt lon="10.61667" lat="47.4992066666667">
                <ele>1848.4</ele>
                <time>2009-08-25T08:55:05.000Z</time>
                <name>Position 2034</name>
            </trkpt>
            <trkpt lon="10.6166666666667" lat="47.49922">
                <ele>1849.8</ele>
                <time>2009-08-25T08:55:08.000Z</time>
                <name>Position 2035</name>
            </trkpt>
            <trkpt lon="10.6166833333333" lat="47.4992316666667">
                <ele>1850.6</ele>
                <time>2009-08-25T08:55:11.000Z</time>
                <name>Position 2036</name>
            </trkpt>
            <trkpt lon="10.6166533333333" lat="47.4992466666667">
                <ele>1851.8</ele>
                <time>2009-08-25T08:55:14.000Z</time>
                <name>Position 2037</name>
            </trkpt>
            <trkpt lon="10.61662" lat="47.4992516666667">
                <ele>1852.6</ele>
                <time>2009-08-25T08:55:17.000Z</time>
                <name>Position 2038</name>
            </trkpt>
            <trkpt lon="10.6165816666667" lat="47.49926">
                <ele>1853.6</ele>
                <time>2009-08-25T08:55:20.000Z</time>
                <name>Position 2039</name>
            </trkpt>
            <trkpt lon="10.6165516666667" lat="47.4992733333333">
                <ele>1854.2</ele>
                <time>2009-08-25T08:55:23.000Z</time>
                <name>Position 2040</name>
            </trkpt>
            <trkpt lon="10.616515" lat="47.4992816666667">
                <ele>1854.5</ele>
                <time>2009-08-25T08:55:26.000Z</time>
                <name>Position 2041</name>
            </trkpt>
            <trkpt lon="10.61648" lat="47.4992883333333">
                <ele>1854.7</ele>
                <time>2009-08-25T08:55:29.000Z</time>
                <name>Position 2042</name>
            </trkpt>
            <trkpt lon="10.6164466666667" lat="47.4992966666667">
                <ele>1855.3</ele>
                <time>2009-08-25T08:55:32.000Z</time>
                <name>Position 2043</name>
            </trkpt>
            <trkpt lon="10.616425" lat="47.49931">
                <ele>1855.8</ele>
                <time>2009-08-25T08:55:35.000Z</time>
                <name>Position 2044</name>
            </trkpt>
            <trkpt lon="10.6163933333333" lat="47.4993233333333">
                <ele>1856.9</ele>
                <time>2009-08-25T08:55:38.000Z</time>
                <name>Position 2045</name>
            </trkpt>
            <trkpt lon="10.6163633333333" lat="47.4993383333333">
                <ele>1857.9</ele>
                <time>2009-08-25T08:55:41.000Z</time>
                <name>Position 2046</name>
            </trkpt>
            <trkpt lon="10.6163433333333" lat="47.499355">
                <ele>1858.4</ele>
                <time>2009-08-25T08:55:44.000Z</time>
                <name>Position 2047</name>
            </trkpt>
            <trkpt lon="10.616325" lat="47.4993683333333">
                <ele>1858.7</ele>
                <time>2009-08-25T08:55:47.000Z</time>
                <name>Position 2048</name>
            </trkpt>
            <trkpt lon="10.6163133333333" lat="47.4993816666667">
                <ele>1859.7</ele>
                <time>2009-08-25T08:55:50.000Z</time>
                <name>Position 2049</name>
            </trkpt>
            <trkpt lon="10.6162983333333" lat="47.4993983333333">
                <ele>1860.6</ele>
                <time>2009-08-25T08:55:53.000Z</time>
                <name>Position 2050</name>
            </trkpt>
            <trkpt lon="10.616275" lat="47.4994066666667">
                <ele>1861.2</ele>
                <time>2009-08-25T08:55:56.000Z</time>
                <name>Position 2051</name>
            </trkpt>
            <trkpt lon="10.6162483333333" lat="47.4994183333333">
                <ele>1862.0</ele>
                <time>2009-08-25T08:55:59.000Z</time>
                <name>Position 2052</name>
            </trkpt>
            <trkpt lon="10.6162283333333" lat="47.4994283333333">
                <ele>1862.4</ele>
                <time>2009-08-25T08:56:02.000Z</time>
                <name>Position 2053</name>
            </trkpt>
            <trkpt lon="10.6161966666667" lat="47.4994383333333">
                <ele>1863.1</ele>
                <time>2009-08-25T08:56:05.000Z</time>
                <name>Position 2054</name>
            </trkpt>
            <trkpt lon="10.61617" lat="47.4994533333333">
                <ele>1863.4</ele>
                <time>2009-08-25T08:56:08.000Z</time>
                <name>Position 2055</name>
            </trkpt>
            <trkpt lon="10.616145" lat="47.499465">
                <ele>1864.5</ele>
                <time>2009-08-25T08:56:11.000Z</time>
                <name>Position 2056</name>
            </trkpt>
            <trkpt lon="10.616125" lat="47.49948">
                <ele>1865.3</ele>
                <time>2009-08-25T08:56:14.000Z</time>
                <name>Position 2057</name>
            </trkpt>
            <trkpt lon="10.6161033333333" lat="47.4994966666667">
                <ele>1865.7</ele>
                <time>2009-08-25T08:56:17.000Z</time>
                <name>Position 2058</name>
            </trkpt>
            <trkpt lon="10.616065" lat="47.4995116666667">
                <ele>1866.1</ele>
                <time>2009-08-25T08:56:20.000Z</time>
                <name>Position 2059</name>
            </trkpt>
            <trkpt lon="10.6160266666667" lat="47.4995183333333">
                <ele>1866.7</ele>
                <time>2009-08-25T08:56:23.000Z</time>
                <name>Position 2060</name>
            </trkpt>
            <trkpt lon="10.615985" lat="47.4995233333333">
                <ele>1867.1</ele>
                <time>2009-08-25T08:56:26.000Z</time>
                <name>Position 2061</name>
            </trkpt>
            <trkpt lon="10.6159383333333" lat="47.4995266666667">
                <ele>1868.0</ele>
                <time>2009-08-25T08:56:29.000Z</time>
                <name>Position 2062</name>
            </trkpt>
            <trkpt lon="10.6158983333333" lat="47.4995333333333">
                <ele>1868.2</ele>
                <time>2009-08-25T08:56:32.000Z</time>
                <name>Position 2063</name>
            </trkpt>
            <trkpt lon="10.615845" lat="47.499545">
                <ele>1868.1</ele>
                <time>2009-08-25T08:56:35.000Z</time>
                <name>Position 2064</name>
            </trkpt>
            <trkpt lon="10.6158066666667" lat="47.499555">
                <ele>1868.3</ele>
                <time>2009-08-25T08:56:38.000Z</time>
                <name>Position 2065</name>
            </trkpt>
            <trkpt lon="10.615765" lat="47.4995666666667">
                <ele>1868.4</ele>
                <time>2009-08-25T08:56:41.000Z</time>
                <name>Position 2066</name>
            </trkpt>
            <trkpt lon="10.6157233333333" lat="47.4995733333333">
                <ele>1868.8</ele>
                <time>2009-08-25T08:56:44.000Z</time>
                <name>Position 2067</name>
            </trkpt>
            <trkpt lon="10.61568" lat="47.49958">
                <ele>1869.2</ele>
                <time>2009-08-25T08:56:47.000Z</time>
                <name>Position 2068</name>
            </trkpt>
            <trkpt lon="10.615625" lat="47.4995833333333">
                <ele>1868.5</ele>
                <time>2009-08-25T08:56:50.000Z</time>
                <name>Position 2069</name>
            </trkpt>
            <trkpt lon="10.6155783333333" lat="47.4995783333333">
                <ele>1868.8</ele>
                <time>2009-08-25T08:56:53.000Z</time>
                <name>Position 2070</name>
            </trkpt>
            <trkpt lon="10.6155383333333" lat="47.49959">
                <ele>1869.6</ele>
                <time>2009-08-25T08:56:56.000Z</time>
                <name>Position 2071</name>
            </trkpt>
            <trkpt lon="10.6155083333333" lat="47.499595">
                <ele>1870.6</ele>
                <time>2009-08-25T08:56:59.000Z</time>
                <name>Position 2072</name>
            </trkpt>
            <trkpt lon="10.6154766666667" lat="47.4995783333333">
                <ele>1870.8</ele>
                <time>2009-08-25T08:57:02.000Z</time>
                <name>Position 2073</name>
            </trkpt>
            <trkpt lon="10.6154433333333" lat="47.4995733333333">
                <ele>1871.3</ele>
                <time>2009-08-25T08:57:05.000Z</time>
                <name>Position 2074</name>
            </trkpt>
            <trkpt lon="10.615415" lat="47.4995766666667">
                <ele>1871.7</ele>
                <time>2009-08-25T08:57:08.000Z</time>
                <name>Position 2075</name>
            </trkpt>
            <trkpt lon="10.6154033333333" lat="47.4995783333333">
                <ele>1872.2</ele>
                <time>2009-08-25T08:57:11.000Z</time>
                <name>Position 2076</name>
            </trkpt>
            <trkpt lon="10.6154116666667" lat="47.4995783333333">
                <ele>1872.5</ele>
                <time>2009-08-25T08:57:14.000Z</time>
                <name>Position 2077</name>
            </trkpt>
            <trkpt lon="10.615415" lat="47.4995766666667">
                <ele>1872.7</ele>
                <time>2009-08-25T08:57:17.000Z</time>
                <name>Position 2078</name>
            </trkpt>
            <trkpt lon="10.615415" lat="47.499575">
                <ele>1872.6</ele>
                <time>2009-08-25T08:57:20.000Z</time>
                <name>Position 2079</name>
            </trkpt>
            <trkpt lon="10.6154166666667" lat="47.4995733333333">
                <ele>1872.7</ele>
                <time>2009-08-25T08:57:23.000Z</time>
                <name>Position 2080</name>
            </trkpt>
            <trkpt lon="10.6153716666667" lat="47.4995866666667">
                <ele>1872.5</ele>
                <time>2009-08-25T08:57:26.000Z</time>
                <name>Position 2081</name>
            </trkpt>
            <trkpt lon="10.6153533333333" lat="47.4996166666667">
                <ele>1872.6</ele>
                <time>2009-08-25T08:57:29.000Z</time>
                <name>Position 2082</name>
            </trkpt>
            <trkpt lon="10.6153533333333" lat="47.4996166666667">
                <ele>1872.5</ele>
                <time>2009-08-25T08:57:32.000Z</time>
                <name>Position 2083</name>
            </trkpt>
            <trkpt lon="10.615355" lat="47.499615">
                <ele>1872.4</ele>
                <time>2009-08-25T08:57:35.000Z</time>
                <name>Position 2084</name>
            </trkpt>
            <trkpt lon="10.6153533333333" lat="47.499615">
                <ele>1872.4</ele>
                <time>2009-08-25T08:57:38.000Z</time>
                <name>Position 2085</name>
            </trkpt>
            <trkpt lon="10.6153533333333" lat="47.4996166666667">
                <ele>1872.4</ele>
                <time>2009-08-25T08:57:41.000Z</time>
                <name>Position 2086</name>
            </trkpt>
            <trkpt lon="10.6153533333333" lat="47.4996166666667">
                <ele>1872.3</ele>
                <time>2009-08-25T08:57:44.000Z</time>
                <name>Position 2087</name>
            </trkpt>
            <trkpt lon="10.615355" lat="47.4996183333333">
                <ele>1872.2</ele>
                <time>2009-08-25T08:57:47.000Z</time>
                <name>Position 2088</name>
            </trkpt>
            <trkpt lon="10.61535" lat="47.499615">
                <ele>1872.2</ele>
                <time>2009-08-25T08:57:50.000Z</time>
                <name>Position 2089</name>
            </trkpt>
            <trkpt lon="10.6153516666667" lat="47.4996133333333">
                <ele>1872.1</ele>
                <time>2009-08-25T08:57:53.000Z</time>
                <name>Position 2090</name>
            </trkpt>
            <trkpt lon="10.6153516666667" lat="47.4996133333333">
                <ele>1872.0</ele>
                <time>2009-08-25T08:57:56.000Z</time>
                <name>Position 2091</name>
            </trkpt>
            <trkpt lon="10.6153516666667" lat="47.499615">
                <ele>1871.9</ele>
                <time>2009-08-25T08:57:59.000Z</time>
                <name>Position 2092</name>
            </trkpt>
            <trkpt lon="10.6153533333333" lat="47.4996133333333">
                <ele>1871.7</ele>
                <time>2009-08-25T08:58:02.000Z</time>
                <name>Position 2093</name>
            </trkpt>
            <trkpt lon="10.6153616666667" lat="47.4996116666667">
                <ele>1871.3</ele>
                <time>2009-08-25T08:58:05.000Z</time>
                <name>Position 2094</name>
            </trkpt>
            <trkpt lon="10.6153666666667" lat="47.49962">
                <ele>1871.8</ele>
                <time>2009-08-25T08:58:08.000Z</time>
                <name>Position 2095</name>
            </trkpt>
            <trkpt lon="10.6153666666667" lat="47.4996183333333">
                <ele>1871.8</ele>
                <time>2009-08-25T08:58:11.000Z</time>
                <name>Position 2096</name>
            </trkpt>
            <trkpt lon="10.6153633333333" lat="47.49961">
                <ele>1871.7</ele>
                <time>2009-08-25T08:58:14.000Z</time>
                <name>Position 2097</name>
            </trkpt>
            <trkpt lon="10.6153383333333" lat="47.4995916666667">
                <ele>1871.6</ele>
                <time>2009-08-25T08:58:17.000Z</time>
                <name>Position 2098</name>
            </trkpt>
            <trkpt lon="10.6153183333333" lat="47.4995816666667">
                <ele>1871.8</ele>
                <time>2009-08-25T08:58:20.000Z</time>
                <name>Position 2099</name>
            </trkpt>
            <trkpt lon="10.6153133333333" lat="47.4995883333333">
                <ele>1871.8</ele>
                <time>2009-08-25T08:58:23.000Z</time>
                <name>Position 2100</name>
            </trkpt>
            <trkpt lon="10.615295" lat="47.4995833333333">
                <ele>1872.3</ele>
                <time>2009-08-25T08:58:26.000Z</time>
                <name>Position 2101</name>
            </trkpt>
            <trkpt lon="10.61527" lat="47.499575">
                <ele>1872.9</ele>
                <time>2009-08-25T08:58:29.000Z</time>
                <name>Position 2102</name>
            </trkpt>
            <trkpt lon="10.6152466666667" lat="47.499565">
                <ele>1874.8</ele>
                <time>2009-08-25T08:58:32.000Z</time>
                <name>Position 2103</name>
            </trkpt>
            <trkpt lon="10.6152216666667" lat="47.4995716666667">
                <ele>1876.0</ele>
                <time>2009-08-25T08:58:35.000Z</time>
                <name>Position 2104</name>
            </trkpt>
            <trkpt lon="10.6152033333333" lat="47.4995866666667">
                <ele>1876.7</ele>
                <time>2009-08-25T08:58:38.000Z</time>
                <name>Position 2105</name>
            </trkpt>
            <trkpt lon="10.6151933333333" lat="47.4995983333333">
                <ele>1877.4</ele>
                <time>2009-08-25T08:58:41.000Z</time>
                <name>Position 2106</name>
            </trkpt>
            <trkpt lon="10.6151616666667" lat="47.4996083333333">
                <ele>1878.1</ele>
                <time>2009-08-25T08:58:44.000Z</time>
                <name>Position 2107</name>
            </trkpt>
            <trkpt lon="10.6151333333333" lat="47.499605">
                <ele>1878.9</ele>
                <time>2009-08-25T08:58:47.000Z</time>
                <name>Position 2108</name>
            </trkpt>
            <trkpt lon="10.615105" lat="47.4995933333333">
                <ele>1879.4</ele>
                <time>2009-08-25T08:58:50.000Z</time>
                <name>Position 2109</name>
            </trkpt>
            <trkpt lon="10.61507" lat="47.499585">
                <ele>1880.5</ele>
                <time>2009-08-25T08:58:53.000Z</time>
                <name>Position 2110</name>
            </trkpt>
            <trkpt lon="10.6150366666667" lat="47.49958">
                <ele>1881.5</ele>
                <time>2009-08-25T08:58:56.000Z</time>
                <name>Position 2111</name>
            </trkpt>
            <trkpt lon="10.6150066666667" lat="47.49958">
                <ele>1882.6</ele>
                <time>2009-08-25T08:58:59.000Z</time>
                <name>Position 2112</name>
            </trkpt>
            <trkpt lon="10.6149716666667" lat="47.49958">
                <ele>1882.9</ele>
                <time>2009-08-25T08:59:02.000Z</time>
                <name>Position 2113</name>
            </trkpt>
            <trkpt lon="10.614935" lat="47.49957">
                <ele>1884.0</ele>
                <time>2009-08-25T08:59:05.000Z</time>
                <name>Position 2114</name>
            </trkpt>
            <trkpt lon="10.6149133333333" lat="47.4995633333333">
                <ele>1884.0</ele>
                <time>2009-08-25T08:59:08.000Z</time>
                <name>Position 2115</name>
            </trkpt>
            <trkpt lon="10.6148816666667" lat="47.499555">
                <ele>1884.7</ele>
                <time>2009-08-25T08:59:11.000Z</time>
                <name>Position 2116</name>
            </trkpt>
            <trkpt lon="10.6148416666667" lat="47.49955">
                <ele>1885.2</ele>
                <time>2009-08-25T08:59:14.000Z</time>
                <name>Position 2117</name>
            </trkpt>
            <trkpt lon="10.6148116666667" lat="47.4995366666667">
                <ele>1885.5</ele>
                <time>2009-08-25T08:59:17.000Z</time>
                <name>Position 2118</name>
            </trkpt>
            <trkpt lon="10.614775" lat="47.49953">
                <ele>1886.6</ele>
                <time>2009-08-25T08:59:20.000Z</time>
                <name>Position 2119</name>
            </trkpt>
            <trkpt lon="10.6147316666667" lat="47.499525">
                <ele>1887.4</ele>
                <time>2009-08-25T08:59:23.000Z</time>
                <name>Position 2120</name>
            </trkpt>
            <trkpt lon="10.6147066666667" lat="47.4995183333333">
                <ele>1888.1</ele>
                <time>2009-08-25T08:59:26.000Z</time>
                <name>Position 2121</name>
            </trkpt>
            <trkpt lon="10.6146733333333" lat="47.499515">
                <ele>1888.9</ele>
                <time>2009-08-25T08:59:29.000Z</time>
                <name>Position 2122</name>
            </trkpt>
            <trkpt lon="10.614645" lat="47.4995116666667">
                <ele>1889.6</ele>
                <time>2009-08-25T08:59:32.000Z</time>
                <name>Position 2123</name>
            </trkpt>
            <trkpt lon="10.6146133333333" lat="47.4995066666667">
                <ele>1890.6</ele>
                <time>2009-08-25T08:59:35.000Z</time>
                <name>Position 2124</name>
            </trkpt>
            <trkpt lon="10.6145883333333" lat="47.49949">
                <ele>1890.4</ele>
                <time>2009-08-25T08:59:38.000Z</time>
                <name>Position 2125</name>
            </trkpt>
            <trkpt lon="10.61456" lat="47.4994716666667">
                <ele>1891.1</ele>
                <time>2009-08-25T08:59:41.000Z</time>
                <name>Position 2126</name>
            </trkpt>
            <trkpt lon="10.6145433333333" lat="47.4994633333333">
                <ele>1890.5</ele>
                <time>2009-08-25T08:59:44.000Z</time>
                <name>Position 2127</name>
            </trkpt>
            <trkpt lon="10.6145166666667" lat="47.4994616666667">
                <ele>1890.8</ele>
                <time>2009-08-25T08:59:46.000Z</time>
                <name>Position 2128</name>
            </trkpt>
            <trkpt lon="10.6144883333333" lat="47.4994583333333">
                <ele>1891.5</ele>
                <time>2009-08-25T08:59:50.000Z</time>
                <name>Position 2129</name>
            </trkpt>
            <trkpt lon="10.6144716666667" lat="47.4994483333333">
                <ele>1891.9</ele>
                <time>2009-08-25T08:59:53.000Z</time>
                <name>Position 2130</name>
            </trkpt>
            <trkpt lon="10.61444" lat="47.4994466666667">
                <ele>1892.8</ele>
                <time>2009-08-25T08:59:56.000Z</time>
                <name>Position 2131</name>
            </trkpt>
            <trkpt lon="10.61443" lat="47.4994433333333">
                <ele>1893.4</ele>
                <time>2009-08-25T08:59:59.000Z</time>
                <name>Position 2132</name>
            </trkpt>
            <trkpt lon="10.6144033333333" lat="47.4994383333333">
                <ele>1894.2</ele>
                <time>2009-08-25T09:00:02.000Z</time>
                <name>Position 2133</name>
            </trkpt>
            <trkpt lon="10.6143866666667" lat="47.4994333333333">
                <ele>1894.8</ele>
                <time>2009-08-25T09:00:05.000Z</time>
                <name>Position 2134</name>
            </trkpt>
            <trkpt lon="10.614365" lat="47.4994266666667">
                <ele>1895.5</ele>
                <time>2009-08-25T09:00:07.000Z</time>
                <name>Position 2135</name>
            </trkpt>
            <trkpt lon="10.6143283333333" lat="47.4994333333333">
                <ele>1896.1</ele>
                <time>2009-08-25T09:00:11.000Z</time>
                <name>Position 2136</name>
            </trkpt>
            <trkpt lon="10.61431" lat="47.4994316666667">
                <ele>1896.7</ele>
                <time>2009-08-25T09:00:14.000Z</time>
                <name>Position 2137</name>
            </trkpt>
            <trkpt lon="10.6142866666667" lat="47.4994316666667">
                <ele>1896.9</ele>
                <time>2009-08-25T09:00:17.000Z</time>
                <name>Position 2138</name>
            </trkpt>
            <trkpt lon="10.614275" lat="47.4994283333333">
                <ele>1897.6</ele>
                <time>2009-08-25T09:00:20.000Z</time>
                <name>Position 2139</name>
            </trkpt>
            <trkpt lon="10.61426" lat="47.49942">
                <ele>1898.6</ele>
                <time>2009-08-25T09:00:23.000Z</time>
                <name>Position 2140</name>
            </trkpt>
            <trkpt lon="10.61424" lat="47.4994133333333">
                <ele>1899.2</ele>
                <time>2009-08-25T09:00:26.000Z</time>
                <name>Position 2141</name>
            </trkpt>
            <trkpt lon="10.61421" lat="47.4994083333333">
                <ele>1900.3</ele>
                <time>2009-08-25T09:00:29.000Z</time>
                <name>Position 2142</name>
            </trkpt>
            <trkpt lon="10.6141833333333" lat="47.4994083333333">
                <ele>1900.9</ele>
                <time>2009-08-25T09:00:32.000Z</time>
                <name>Position 2143</name>
            </trkpt>
            <trkpt lon="10.6141633333333" lat="47.4994016666667">
                <ele>1901.4</ele>
                <time>2009-08-25T09:00:35.000Z</time>
                <name>Position 2144</name>
            </trkpt>
            <trkpt lon="10.61413" lat="47.4994033333333">
                <ele>1901.9</ele>
                <time>2009-08-25T09:00:38.000Z</time>
                <name>Position 2145</name>
            </trkpt>
            <trkpt lon="10.6141183333333" lat="47.4994033333333">
                <ele>1902.3</ele>
                <time>2009-08-25T09:00:41.000Z</time>
                <name>Position 2146</name>
            </trkpt>
            <trkpt lon="10.6141033333333" lat="47.4993983333333">
                <ele>1903.2</ele>
                <time>2009-08-25T09:00:44.000Z</time>
                <name>Position 2147</name>
            </trkpt>
            <trkpt lon="10.6140833333333" lat="47.4993933333333">
                <ele>1904.0</ele>
                <time>2009-08-25T09:00:47.000Z</time>
                <name>Position 2148</name>
            </trkpt>
            <trkpt lon="10.6140633333333" lat="47.4993983333333">
                <ele>1904.8</ele>
                <time>2009-08-25T09:00:49.000Z</time>
                <name>Position 2149</name>
            </trkpt>
            <trkpt lon="10.6140516666667" lat="47.4994033333333">
                <ele>1905.2</ele>
                <time>2009-08-25T09:00:53.000Z</time>
                <name>Position 2150</name>
            </trkpt>
            <trkpt lon="10.6140583333333" lat="47.4993933333333">
                <ele>1905.7</ele>
                <time>2009-08-25T09:00:55.000Z</time>
                <name>Position 2151</name>
            </trkpt>
            <trkpt lon="10.614065" lat="47.4993883333333">
                <ele>1906.1</ele>
                <time>2009-08-25T09:00:59.000Z</time>
                <name>Position 2152</name>
            </trkpt>
            <trkpt lon="10.6140283333333" lat="47.499385">
                <ele>1906.3</ele>
                <time>2009-08-25T09:01:02.000Z</time>
                <name>Position 2153</name>
            </trkpt>
            <trkpt lon="10.614" lat="47.49938">
                <ele>1906.9</ele>
                <time>2009-08-25T09:01:05.000Z</time>
                <name>Position 2154</name>
            </trkpt>
            <trkpt lon="10.61397" lat="47.4993733333333">
                <ele>1906.8</ele>
                <time>2009-08-25T09:01:08.000Z</time>
                <name>Position 2155</name>
            </trkpt>
            <trkpt lon="10.6139566666667" lat="47.4993516666667">
                <ele>1907.4</ele>
                <time>2009-08-25T09:01:11.000Z</time>
                <name>Position 2156</name>
            </trkpt>
            <trkpt lon="10.6139283333333" lat="47.4993416666667">
                <ele>1908.5</ele>
                <time>2009-08-25T09:01:14.000Z</time>
                <name>Position 2157</name>
            </trkpt>
            <trkpt lon="10.6139066666667" lat="47.499335">
                <ele>1909.2</ele>
                <time>2009-08-25T09:01:17.000Z</time>
                <name>Position 2158</name>
            </trkpt>
            <trkpt lon="10.613875" lat="47.4993316666667">
                <ele>1909.8</ele>
                <time>2009-08-25T09:01:20.000Z</time>
                <name>Position 2159</name>
            </trkpt>
            <trkpt lon="10.613865" lat="47.4993016666667">
                <ele>1909.8</ele>
                <time>2009-08-25T09:01:23.000Z</time>
                <name>Position 2160</name>
            </trkpt>
            <trkpt lon="10.6138416666667" lat="47.4992866666667">
                <ele>1910.3</ele>
                <time>2009-08-25T09:01:26.000Z</time>
                <name>Position 2161</name>
            </trkpt>
            <trkpt lon="10.61381" lat="47.4992816666667">
                <ele>1910.7</ele>
                <time>2009-08-25T09:01:29.000Z</time>
                <name>Position 2162</name>
            </trkpt>
            <trkpt lon="10.6137833333333" lat="47.4992833333333">
                <ele>1911.0</ele>
                <time>2009-08-25T09:01:32.000Z</time>
                <name>Position 2163</name>
            </trkpt>
            <trkpt lon="10.6137666666667" lat="47.49927">
                <ele>1911.4</ele>
                <time>2009-08-25T09:01:35.000Z</time>
                <name>Position 2164</name>
            </trkpt>
            <trkpt lon="10.61376" lat="47.4992616666667">
                <ele>1912.2</ele>
                <time>2009-08-25T09:01:38.000Z</time>
                <name>Position 2165</name>
            </trkpt>
            <trkpt lon="10.61376" lat="47.4992566666667">
                <ele>1912.3</ele>
                <time>2009-08-25T09:01:41.000Z</time>
                <name>Position 2166</name>
            </trkpt>
            <trkpt lon="10.61372" lat="47.4992833333333">
                <ele>1912.4</ele>
                <time>2009-08-25T09:01:44.000Z</time>
                <name>Position 2167</name>
            </trkpt>
            <trkpt lon="10.61374" lat="47.4992916666667">
                <ele>1913.0</ele>
                <time>2009-08-25T09:01:47.000Z</time>
                <name>Position 2168</name>
            </trkpt>
            <trkpt lon="10.6137433333333" lat="47.4992966666667">
                <ele>1913.0</ele>
                <time>2009-08-25T09:01:50.000Z</time>
                <name>Position 2169</name>
            </trkpt>
            <trkpt lon="10.6137566666667" lat="47.4992733333333">
                <ele>1913.4</ele>
                <time>2009-08-25T09:01:53.000Z</time>
                <name>Position 2170</name>
            </trkpt>
            <trkpt lon="10.6137483333333" lat="47.499285">
                <ele>1913.4</ele>
                <time>2009-08-25T09:01:56.000Z</time>
                <name>Position 2171</name>
            </trkpt>
            <trkpt lon="10.6137383333333" lat="47.4992833333333">
                <ele>1913.5</ele>
                <time>2009-08-25T09:01:59.000Z</time>
                <name>Position 2172</name>
            </trkpt>
            <trkpt lon="10.613715" lat="47.4992866666667">
                <ele>1914.2</ele>
                <time>2009-08-25T09:02:02.000Z</time>
                <name>Position 2173</name>
            </trkpt>
            <trkpt lon="10.6137066666667" lat="47.4992883333333">
                <ele>1914.5</ele>
                <time>2009-08-25T09:02:05.000Z</time>
                <name>Position 2174</name>
            </trkpt>
            <trkpt lon="10.6137133333333" lat="47.499285">
                <ele>1914.4</ele>
                <time>2009-08-25T09:02:08.000Z</time>
                <name>Position 2175</name>
            </trkpt>
            <trkpt lon="10.6137166666667" lat="47.4992866666667">
                <ele>1914.3</ele>
                <time>2009-08-25T09:02:11.000Z</time>
                <name>Position 2176</name>
            </trkpt>
            <trkpt lon="10.6137166666667" lat="47.4992866666667">
                <ele>1914.3</ele>
                <time>2009-08-25T09:02:14.000Z</time>
                <name>Position 2177</name>
            </trkpt>
            <trkpt lon="10.613715" lat="47.4992816666667">
                <ele>1914.2</ele>
                <time>2009-08-25T09:02:16.000Z</time>
                <name>Position 2178</name>
            </trkpt>
            <trkpt lon="10.613715" lat="47.4992816666667">
                <ele>1914.3</ele>
                <time>2009-08-25T09:02:20.000Z</time>
                <name>Position 2179</name>
            </trkpt>
            <trkpt lon="10.613715" lat="47.4992816666667">
                <ele>1914.4</ele>
                <time>2009-08-25T09:02:23.000Z</time>
                <name>Position 2180</name>
            </trkpt>
            <trkpt lon="10.613715" lat="47.4992816666667">
                <ele>1914.5</ele>
                <time>2009-08-25T09:02:26.000Z</time>
                <name>Position 2181</name>
            </trkpt>
            <trkpt lon="10.613715" lat="47.4992833333333">
                <ele>1914.5</ele>
                <time>2009-08-25T09:02:29.000Z</time>
                <name>Position 2182</name>
            </trkpt>
            <trkpt lon="10.6137166666667" lat="47.4992833333333">
                <ele>1914.6</ele>
                <time>2009-08-25T09:02:32.000Z</time>
                <name>Position 2183</name>
            </trkpt>
            <trkpt lon="10.6137183333333" lat="47.499285">
                <ele>1914.7</ele>
                <time>2009-08-25T09:02:35.000Z</time>
                <name>Position 2184</name>
            </trkpt>
            <trkpt lon="10.6137216666667" lat="47.4992883333333">
                <ele>1914.7</ele>
                <time>2009-08-25T09:02:38.000Z</time>
                <name>Position 2185</name>
            </trkpt>
            <trkpt lon="10.6137216666667" lat="47.4992883333333">
                <ele>1914.7</ele>
                <time>2009-08-25T09:02:41.000Z</time>
                <name>Position 2186</name>
            </trkpt>
            <trkpt lon="10.6137233333333" lat="47.49929">
                <ele>1914.6</ele>
                <time>2009-08-25T09:02:44.000Z</time>
                <name>Position 2187</name>
            </trkpt>
            <trkpt lon="10.613725" lat="47.49929">
                <ele>1914.6</ele>
                <time>2009-08-25T09:02:47.000Z</time>
                <name>Position 2188</name>
            </trkpt>
            <trkpt lon="10.6137233333333" lat="47.4992883333333">
                <ele>1914.7</ele>
                <time>2009-08-25T09:02:50.000Z</time>
                <name>Position 2189</name>
            </trkpt>
            <trkpt lon="10.6137233333333" lat="47.499285">
                <ele>1914.7</ele>
                <time>2009-08-25T09:02:53.000Z</time>
                <name>Position 2190</name>
            </trkpt>
            <trkpt lon="10.61372" lat="47.49928">
                <ele>1914.7</ele>
                <time>2009-08-25T09:02:56.000Z</time>
                <name>Position 2191</name>
            </trkpt>
            <trkpt lon="10.61372" lat="47.4992783333333">
                <ele>1914.7</ele>
                <time>2009-08-25T09:02:59.000Z</time>
                <name>Position 2192</name>
            </trkpt>
            <trkpt lon="10.6137216666667" lat="47.4992783333333">
                <ele>1914.7</ele>
                <time>2009-08-25T09:03:02.000Z</time>
                <name>Position 2193</name>
            </trkpt>
            <trkpt lon="10.6137216666667" lat="47.4992783333333">
                <ele>1914.7</ele>
                <time>2009-08-25T09:03:05.000Z</time>
                <name>Position 2194</name>
            </trkpt>
            <trkpt lon="10.61372" lat="47.499275">
                <ele>1914.8</ele>
                <time>2009-08-25T09:03:08.000Z</time>
                <name>Position 2195</name>
            </trkpt>
            <trkpt lon="10.6137233333333" lat="47.4992716666667">
                <ele>1915.4</ele>
                <time>2009-08-25T09:03:11.000Z</time>
                <name>Position 2196</name>
            </trkpt>
            <trkpt lon="10.61372" lat="47.4992583333333">
                <ele>1916.0</ele>
                <time>2009-08-25T09:03:14.000Z</time>
                <name>Position 2197</name>
            </trkpt>
            <trkpt lon="10.613715" lat="47.49925">
                <ele>1916.9</ele>
                <time>2009-08-25T09:03:17.000Z</time>
                <name>Position 2198</name>
            </trkpt>
            <trkpt lon="10.6136766666667" lat="47.4992216666667">
                <ele>1917.5</ele>
                <time>2009-08-25T09:03:20.000Z</time>
                <name>Position 2199</name>
            </trkpt>
            <trkpt lon="10.6136716666667" lat="47.4992133333333">
                <ele>1917.4</ele>
                <time>2009-08-25T09:03:23.000Z</time>
                <name>Position 2200</name>
            </trkpt>
            <trkpt lon="10.6136716666667" lat="47.49921">
                <ele>1917.5</ele>
                <time>2009-08-25T09:03:26.000Z</time>
                <name>Position 2201</name>
            </trkpt>
            <trkpt lon="10.6137033333333" lat="47.4992466666667">
                <ele>1917.7</ele>
                <time>2009-08-25T09:03:29.000Z</time>
                <name>Position 2202</name>
            </trkpt>
            <trkpt lon="10.613715" lat="47.499255">
                <ele>1917.9</ele>
                <time>2009-08-25T09:03:32.000Z</time>
                <name>Position 2203</name>
            </trkpt>
            <trkpt lon="10.613715" lat="47.4992566666667">
                <ele>1917.9</ele>
                <time>2009-08-25T09:03:35.000Z</time>
                <name>Position 2204</name>
            </trkpt>
            <trkpt lon="10.613715" lat="47.4992566666667">
                <ele>1918.0</ele>
                <time>2009-08-25T09:03:38.000Z</time>
                <name>Position 2205</name>
            </trkpt>
            <trkpt lon="10.6137183333333" lat="47.49926">
                <ele>1918.0</ele>
                <time>2009-08-25T09:03:41.000Z</time>
                <name>Position 2206</name>
            </trkpt>
            <trkpt lon="10.6137183333333" lat="47.4992583333333">
                <ele>1918.0</ele>
                <time>2009-08-25T09:03:44.000Z</time>
                <name>Position 2207</name>
            </trkpt>
            <trkpt lon="10.6137183333333" lat="47.4992583333333">
                <ele>1918.0</ele>
                <time>2009-08-25T09:03:47.000Z</time>
                <name>Position 2208</name>
            </trkpt>
            <trkpt lon="10.6137183333333" lat="47.4992583333333">
                <ele>1918.0</ele>
                <time>2009-08-25T09:03:50.000Z</time>
                <name>Position 2209</name>
            </trkpt>
            <trkpt lon="10.6137183333333" lat="47.4992583333333">
                <ele>1918.0</ele>
                <time>2009-08-25T09:03:53.000Z</time>
                <name>Position 2210</name>
            </trkpt>
            <trkpt lon="10.6137183333333" lat="47.4992583333333">
                <ele>1918.0</ele>
                <time>2009-08-25T09:03:56.000Z</time>
                <name>Position 2211</name>
            </trkpt>
            <trkpt lon="10.6137183333333" lat="47.4992583333333">
                <ele>1918.0</ele>
                <time>2009-08-25T09:03:59.000Z</time>
                <name>Position 2212</name>
            </trkpt>
            <trkpt lon="10.6137183333333" lat="47.4992583333333">
                <ele>1918.0</ele>
                <time>2009-08-25T09:04:02.000Z</time>
                <name>Position 2213</name>
            </trkpt>
            <trkpt lon="10.6137183333333" lat="47.4992583333333">
                <ele>1918.0</ele>
                <time>2009-08-25T09:04:05.000Z</time>
                <name>Position 2214</name>
            </trkpt>
            <trkpt lon="10.6137183333333" lat="47.4992583333333">
                <ele>1918.0</ele>
                <time>2009-08-25T09:04:07.000Z</time>
                <name>Position 2215</name>
            </trkpt>
            <trkpt lon="10.6137183333333" lat="47.4992583333333">
                <ele>1918.0</ele>
                <time>2009-08-25T09:04:11.000Z</time>
                <name>Position 2216</name>
            </trkpt>
            <trkpt lon="10.6137183333333" lat="47.4992566666667">
                <ele>1918.0</ele>
                <time>2009-08-25T09:04:17.000Z</time>
                <name>Position 2217</name>
            </trkpt>
            <trkpt lon="10.6137166666667" lat="47.499255">
                <ele>1918.1</ele>
                <time>2009-08-25T09:04:20.000Z</time>
                <name>Position 2218</name>
            </trkpt>
            <trkpt lon="10.6137133333333" lat="47.4992533333333">
                <ele>1918.1</ele>
                <time>2009-08-25T09:04:23.000Z</time>
                <name>Position 2219</name>
            </trkpt>
            <trkpt lon="10.613715" lat="47.49925">
                <ele>1918.1</ele>
                <time>2009-08-25T09:04:26.000Z</time>
                <name>Position 2220</name>
            </trkpt>
            <trkpt lon="10.613715" lat="47.4992483333333">
                <ele>1918.1</ele>
                <time>2009-08-25T09:04:29.000Z</time>
                <name>Position 2221</name>
            </trkpt>
            <trkpt lon="10.6137133333333" lat="47.4992466666667">
                <ele>1918.0</ele>
                <time>2009-08-25T09:04:32.000Z</time>
                <name>Position 2222</name>
            </trkpt>
            <trkpt lon="10.6137133333333" lat="47.499245">
                <ele>1918.1</ele>
                <time>2009-08-25T09:04:35.000Z</time>
                <name>Position 2223</name>
            </trkpt>
            <trkpt lon="10.6137133333333" lat="47.499245">
                <ele>1918.1</ele>
                <time>2009-08-25T09:04:38.000Z</time>
                <name>Position 2224</name>
            </trkpt>
            <trkpt lon="10.6137133333333" lat="47.4992433333333">
                <ele>1918.1</ele>
                <time>2009-08-25T09:04:41.000Z</time>
                <name>Position 2225</name>
            </trkpt>
            <trkpt lon="10.6137116666667" lat="47.4992433333333">
                <ele>1918.1</ele>
                <time>2009-08-25T09:04:44.000Z</time>
                <name>Position 2226</name>
            </trkpt>
            <trkpt lon="10.6137116666667" lat="47.4992416666667">
                <ele>1918.1</ele>
                <time>2009-08-25T09:04:47.000Z</time>
                <name>Position 2227</name>
            </trkpt>
            <trkpt lon="10.6137133333333" lat="47.4992416666667">
                <ele>1918.1</ele>
                <time>2009-08-25T09:04:50.000Z</time>
                <name>Position 2228</name>
            </trkpt>
            <trkpt lon="10.6137133333333" lat="47.4992433333333">
                <ele>1918.1</ele>
                <time>2009-08-25T09:04:53.000Z</time>
                <name>Position 2229</name>
            </trkpt>
            <trkpt lon="10.6137133333333" lat="47.4992433333333">
                <ele>1918.1</ele>
                <time>2009-08-25T09:04:56.000Z</time>
                <name>Position 2230</name>
            </trkpt>
            <trkpt lon="10.6137133333333" lat="47.4992433333333">
                <ele>1918.1</ele>
                <time>2009-08-25T09:04:59.000Z</time>
                <name>Position 2231</name>
            </trkpt>
            <trkpt lon="10.6137133333333" lat="47.4992433333333">
                <ele>1918.1</ele>
                <time>2009-08-25T09:05:02.000Z</time>
                <name>Position 2232</name>
            </trkpt>
            <trkpt lon="10.6137133333333" lat="47.4992433333333">
                <ele>1918.1</ele>
                <time>2009-08-25T09:05:05.000Z</time>
                <name>Position 2233</name>
            </trkpt>
            <trkpt lon="10.6137133333333" lat="47.4992433333333">
                <ele>1918.1</ele>
                <time>2009-08-25T09:05:08.000Z</time>
                <name>Position 2234</name>
            </trkpt>
            <trkpt lon="10.6137133333333" lat="47.4992433333333">
                <ele>1918.1</ele>
                <time>2009-08-25T09:05:11.000Z</time>
                <name>Position 2235</name>
            </trkpt>
            <trkpt lon="10.6137133333333" lat="47.4992433333333">
                <ele>1918.1</ele>
                <time>2009-08-25T09:05:14.000Z</time>
                <name>Position 2236</name>
            </trkpt>
            <trkpt lon="10.6137133333333" lat="47.4992433333333">
                <ele>1918.1</ele>
                <time>2009-08-25T09:05:17.000Z</time>
                <name>Position 2237</name>
            </trkpt>
            <trkpt lon="10.6137133333333" lat="47.4992433333333">
                <ele>1918.1</ele>
                <time>2009-08-25T09:05:20.000Z</time>
                <name>Position 2238</name>
            </trkpt>
            <trkpt lon="10.613715" lat="47.4992466666667">
                <ele>1918.0</ele>
                <time>2009-08-25T09:05:23.000Z</time>
                <name>Position 2239</name>
            </trkpt>
            <trkpt lon="10.613715" lat="47.4992483333333">
                <ele>1918.0</ele>
                <time>2009-08-25T09:05:26.000Z</time>
                <name>Position 2240</name>
            </trkpt>
            <trkpt lon="10.613715" lat="47.4992483333333">
                <ele>1918.0</ele>
                <time>2009-08-25T09:05:29.000Z</time>
                <name>Position 2241</name>
            </trkpt>
            <trkpt lon="10.613715" lat="47.4992483333333">
                <ele>1918.0</ele>
                <time>2009-08-25T09:05:32.000Z</time>
                <name>Position 2242</name>
            </trkpt>
            <trkpt lon="10.613715" lat="47.4992483333333">
                <ele>1918.0</ele>
                <time>2009-08-25T09:05:35.000Z</time>
                <name>Position 2243</name>
            </trkpt>
            <trkpt lon="10.613715" lat="47.4992483333333">
                <ele>1918.0</ele>
                <time>2009-08-25T09:05:38.000Z</time>
                <name>Position 2244</name>
            </trkpt>
            <trkpt lon="10.613715" lat="47.4992483333333">
                <ele>1918.0</ele>
                <time>2009-08-25T09:05:41.000Z</time>
                <name>Position 2245</name>
            </trkpt>
            <trkpt lon="10.613715" lat="47.4992483333333">
                <ele>1918.0</ele>
                <time>2009-08-25T09:05:44.000Z</time>
                <name>Position 2246</name>
            </trkpt>
            <trkpt lon="10.613715" lat="47.4992483333333">
                <ele>1918.0</ele>
                <time>2009-08-25T09:05:47.000Z</time>
                <name>Position 2247</name>
            </trkpt>
            <trkpt lon="10.613715" lat="47.4992483333333">
                <ele>1917.9</ele>
                <time>2009-08-25T09:05:50.000Z</time>
                <name>Position 2248</name>
            </trkpt>
            <trkpt lon="10.6137133333333" lat="47.4992483333333">
                <ele>1918.0</ele>
                <time>2009-08-25T09:05:53.000Z</time>
                <name>Position 2249</name>
            </trkpt>
            <trkpt lon="10.6137133333333" lat="47.4992483333333">
                <ele>1918.0</ele>
                <time>2009-08-25T09:05:56.000Z</time>
                <name>Position 2250</name>
            </trkpt>
            <trkpt lon="10.6137133333333" lat="47.4992483333333">
                <ele>1918.0</ele>
                <time>2009-08-25T09:05:59.000Z</time>
                <name>Position 2251</name>
            </trkpt>
            <trkpt lon="10.6137133333333" lat="47.4992483333333">
                <ele>1917.9</ele>
                <time>2009-08-25T09:06:02.000Z</time>
                <name>Position 2252</name>
            </trkpt>
            <trkpt lon="10.6137133333333" lat="47.4992483333333">
                <ele>1918.0</ele>
                <time>2009-08-25T09:06:05.000Z</time>
                <name>Position 2253</name>
            </trkpt>
            <trkpt lon="10.6137133333333" lat="47.4992483333333">
                <ele>1918.0</ele>
                <time>2009-08-25T09:06:11.000Z</time>
                <name>Position 2254</name>
            </trkpt>
            <trkpt lon="10.6137133333333" lat="47.4992466666667">
                <ele>1918.0</ele>
                <time>2009-08-25T09:06:14.000Z</time>
                <name>Position 2255</name>
            </trkpt>
            <trkpt lon="10.6137116666667" lat="47.4992466666667">
                <ele>1918.0</ele>
                <time>2009-08-25T09:06:17.000Z</time>
                <name>Position 2256</name>
            </trkpt>
            <trkpt lon="10.6137116666667" lat="47.4992483333333">
                <ele>1918.0</ele>
                <time>2009-08-25T09:06:20.000Z</time>
                <name>Position 2257</name>
            </trkpt>
            <trkpt lon="10.6137116666667" lat="47.4992466666667">
                <ele>1918.0</ele>
                <time>2009-08-25T09:06:23.000Z</time>
                <name>Position 2258</name>
            </trkpt>
            <trkpt lon="10.61371" lat="47.499245">
                <ele>1918.0</ele>
                <time>2009-08-25T09:06:26.000Z</time>
                <name>Position 2259</name>
            </trkpt>
            <trkpt lon="10.6137083333333" lat="47.499245">
                <ele>1918.1</ele>
                <time>2009-08-25T09:06:29.000Z</time>
                <name>Position 2260</name>
            </trkpt>
            <trkpt lon="10.6137083333333" lat="47.4992433333333">
                <ele>1918.0</ele>
                <time>2009-08-25T09:06:32.000Z</time>
                <name>Position 2261</name>
            </trkpt>
            <trkpt lon="10.6137066666667" lat="47.4992433333333">
                <ele>1918.1</ele>
                <time>2009-08-25T09:06:35.000Z</time>
                <name>Position 2262</name>
            </trkpt>
            <trkpt lon="10.6137066666667" lat="47.4992433333333">
                <ele>1918.1</ele>
                <time>2009-08-25T09:06:38.000Z</time>
                <name>Position 2263</name>
            </trkpt>
            <trkpt lon="10.6137066666667" lat="47.4992433333333">
                <ele>1918.1</ele>
                <time>2009-08-25T09:06:41.000Z</time>
                <name>Position 2264</name>
            </trkpt>
            <trkpt lon="10.6137066666667" lat="47.4992433333333">
                <ele>1918.0</ele>
                <time>2009-08-25T09:06:44.000Z</time>
                <name>Position 2265</name>
            </trkpt>
            <trkpt lon="10.6137066666667" lat="47.4992433333333">
                <ele>1918.0</ele>
                <time>2009-08-25T09:06:47.000Z</time>
                <name>Position 2266</name>
            </trkpt>
            <trkpt lon="10.6137066666667" lat="47.4992433333333">
                <ele>1918.0</ele>
                <time>2009-08-25T09:06:50.000Z</time>
                <name>Position 2267</name>
            </trkpt>
            <trkpt lon="10.6137066666667" lat="47.499245">
                <ele>1918.0</ele>
                <time>2009-08-25T09:06:53.000Z</time>
                <name>Position 2268</name>
            </trkpt>
            <trkpt lon="10.6137066666667" lat="47.4992433333333">
                <ele>1918.0</ele>
                <time>2009-08-25T09:06:56.000Z</time>
                <name>Position 2269</name>
            </trkpt>
            <trkpt lon="10.6137066666667" lat="47.4992433333333">
                <ele>1918.0</ele>
                <time>2009-08-25T09:06:59.000Z</time>
                <name>Position 2270</name>
            </trkpt>
            <trkpt lon="10.613705" lat="47.4992466666667">
                <ele>1918.0</ele>
                <time>2009-08-25T09:07:02.000Z</time>
                <name>Position 2271</name>
            </trkpt>
            <trkpt lon="10.6136633333333" lat="47.4993033333333">
                <ele>1918.2</ele>
                <time>2009-08-25T09:07:05.000Z</time>
                <name>Position 2272</name>
            </trkpt>
            <trkpt lon="10.6136633333333" lat="47.4993066666667">
                <ele>1918.2</ele>
                <time>2009-08-25T09:07:08.000Z</time>
                <name>Position 2273</name>
            </trkpt>
            <trkpt lon="10.613665" lat="47.49931">
                <ele>1918.3</ele>
                <time>2009-08-25T09:07:11.000Z</time>
                <name>Position 2274</name>
            </trkpt>
            <trkpt lon="10.613665" lat="47.4993083333333">
                <ele>1918.4</ele>
                <time>2009-08-25T09:07:14.000Z</time>
                <name>Position 2275</name>
            </trkpt>
            <trkpt lon="10.613665" lat="47.4993083333333">
                <ele>1918.5</ele>
                <time>2009-08-25T09:07:17.000Z</time>
                <name>Position 2276</name>
            </trkpt>
            <trkpt lon="10.6136633333333" lat="47.4993083333333">
                <ele>1918.5</ele>
                <time>2009-08-25T09:07:20.000Z</time>
                <name>Position 2277</name>
            </trkpt>
            <trkpt lon="10.6136633333333" lat="47.4993083333333">
                <ele>1918.5</ele>
                <time>2009-08-25T09:07:23.000Z</time>
                <name>Position 2278</name>
            </trkpt>
            <trkpt lon="10.6136633333333" lat="47.4993083333333">
                <ele>1918.5</ele>
                <time>2009-08-25T09:07:26.000Z</time>
                <name>Position 2279</name>
            </trkpt>
            <trkpt lon="10.6136633333333" lat="47.4993066666667">
                <ele>1918.5</ele>
                <time>2009-08-25T09:07:29.000Z</time>
                <name>Position 2280</name>
            </trkpt>
            <trkpt lon="10.6136633333333" lat="47.4993066666667">
                <ele>1918.5</ele>
                <time>2009-08-25T09:07:32.000Z</time>
                <name>Position 2281</name>
            </trkpt>
            <trkpt lon="10.6136633333333" lat="47.4993066666667">
                <ele>1918.5</ele>
                <time>2009-08-25T09:07:35.000Z</time>
                <name>Position 2282</name>
            </trkpt>
            <trkpt lon="10.6136633333333" lat="47.4993066666667">
                <ele>1918.6</ele>
                <time>2009-08-25T09:07:38.000Z</time>
                <name>Position 2283</name>
            </trkpt>
            <trkpt lon="10.6136633333333" lat="47.4993066666667">
                <ele>1918.6</ele>
                <time>2009-08-25T09:07:41.000Z</time>
                <name>Position 2284</name>
            </trkpt>
            <trkpt lon="10.6136633333333" lat="47.4993066666667">
                <ele>1918.6</ele>
                <time>2009-08-25T09:07:44.000Z</time>
                <name>Position 2285</name>
            </trkpt>
            <trkpt lon="10.613665" lat="47.4993066666667">
                <ele>1918.6</ele>
                <time>2009-08-25T09:07:47.000Z</time>
                <name>Position 2286</name>
            </trkpt>
            <trkpt lon="10.613665" lat="47.4993083333333">
                <ele>1918.5</ele>
                <time>2009-08-25T09:07:50.000Z</time>
                <name>Position 2287</name>
            </trkpt>
            <trkpt lon="10.613665" lat="47.4993083333333">
                <ele>1918.5</ele>
                <time>2009-08-25T09:07:53.000Z</time>
                <name>Position 2288</name>
            </trkpt>
            <trkpt lon="10.613665" lat="47.49931">
                <ele>1918.5</ele>
                <time>2009-08-25T09:07:56.000Z</time>
                <name>Position 2289</name>
            </trkpt>
            <trkpt lon="10.613665" lat="47.49931">
                <ele>1918.5</ele>
                <time>2009-08-25T09:07:59.000Z</time>
                <name>Position 2290</name>
            </trkpt>
            <trkpt lon="10.613665" lat="47.49931">
                <ele>1918.5</ele>
                <time>2009-08-25T09:08:02.000Z</time>
                <name>Position 2291</name>
            </trkpt>
            <trkpt lon="10.613665" lat="47.49931">
                <ele>1918.5</ele>
                <time>2009-08-25T09:08:05.000Z</time>
                <name>Position 2292</name>
            </trkpt>
            <trkpt lon="10.613665" lat="47.49931">
                <ele>1918.5</ele>
                <time>2009-08-25T09:08:08.000Z</time>
                <name>Position 2293</name>
            </trkpt>
            <trkpt lon="10.613665" lat="47.49931">
                <ele>1918.5</ele>
                <time>2009-08-25T09:08:11.000Z</time>
                <name>Position 2294</name>
            </trkpt>
            <trkpt lon="10.613665" lat="47.49931">
                <ele>1918.5</ele>
                <time>2009-08-25T09:08:14.000Z</time>
                <name>Position 2295</name>
            </trkpt>
            <trkpt lon="10.613665" lat="47.49931">
                <ele>1918.5</ele>
                <time>2009-08-25T09:08:17.000Z</time>
                <name>Position 2296</name>
            </trkpt>
            <trkpt lon="10.613665" lat="47.49931">
                <ele>1918.5</ele>
                <time>2009-08-25T09:08:20.000Z</time>
                <name>Position 2297</name>
            </trkpt>
            <trkpt lon="10.613665" lat="47.49931">
                <ele>1918.5</ele>
                <time>2009-08-25T09:08:23.000Z</time>
                <name>Position 2298</name>
            </trkpt>
            <trkpt lon="10.6136766666667" lat="47.4992916666667">
                <ele>1918.2</ele>
                <time>2009-08-25T09:08:26.000Z</time>
                <name>Position 2299</name>
            </trkpt>
            <trkpt lon="10.6136966666667" lat="47.4992916666667">
                <ele>1916.2</ele>
                <time>2009-08-25T09:08:29.000Z</time>
                <name>Position 2300</name>
            </trkpt>
            <trkpt lon="10.613695" lat="47.4992866666667">
                <ele>1916.1</ele>
                <time>2009-08-25T09:08:32.000Z</time>
                <name>Position 2301</name>
            </trkpt>
            <trkpt lon="10.6136916666667" lat="47.4992816666667">
                <ele>1916.1</ele>
                <time>2009-08-25T09:08:35.000Z</time>
                <name>Position 2302</name>
            </trkpt>
            <trkpt lon="10.61369" lat="47.4992766666667">
                <ele>1916.1</ele>
                <time>2009-08-25T09:08:38.000Z</time>
                <name>Position 2303</name>
            </trkpt>
            <trkpt lon="10.6136883333333" lat="47.4992733333333">
                <ele>1916.1</ele>
                <time>2009-08-25T09:08:41.000Z</time>
                <name>Position 2304</name>
            </trkpt>
            <trkpt lon="10.6136883333333" lat="47.4992716666667">
                <ele>1916.1</ele>
                <time>2009-08-25T09:08:44.000Z</time>
                <name>Position 2305</name>
            </trkpt>
            <trkpt lon="10.61369" lat="47.4992716666667">
                <ele>1916.2</ele>
                <time>2009-08-25T09:08:47.000Z</time>
                <name>Position 2306</name>
            </trkpt>
            <trkpt lon="10.61369" lat="47.4992716666667">
                <ele>1916.3</ele>
                <time>2009-08-25T09:08:50.000Z</time>
                <name>Position 2307</name>
            </trkpt>
            <trkpt lon="10.6136883333333" lat="47.49927">
                <ele>1916.3</ele>
                <time>2009-08-25T09:08:53.000Z</time>
                <name>Position 2308</name>
            </trkpt>
            <trkpt lon="10.6136866666667" lat="47.4992666666667">
                <ele>1916.4</ele>
                <time>2009-08-25T09:08:56.000Z</time>
                <name>Position 2309</name>
            </trkpt>
            <trkpt lon="10.6136866666667" lat="47.4992683333333">
                <ele>1916.5</ele>
                <time>2009-08-25T09:08:59.000Z</time>
                <name>Position 2310</name>
            </trkpt>
            <trkpt lon="10.6136883333333" lat="47.4992666666667">
                <ele>1916.6</ele>
                <time>2009-08-25T09:09:02.000Z</time>
                <name>Position 2311</name>
            </trkpt>
            <trkpt lon="10.61369" lat="47.4992666666667">
                <ele>1916.8</ele>
                <time>2009-08-25T09:09:05.000Z</time>
                <name>Position 2312</name>
            </trkpt>
            <trkpt lon="10.61369" lat="47.4992666666667">
                <ele>1916.9</ele>
                <time>2009-08-25T09:09:08.000Z</time>
                <name>Position 2313</name>
            </trkpt>
            <trkpt lon="10.61369" lat="47.499265">
                <ele>1916.9</ele>
                <time>2009-08-25T09:09:11.000Z</time>
                <name>Position 2314</name>
            </trkpt>
            <trkpt lon="10.61369" lat="47.499265">
                <ele>1916.9</ele>
                <time>2009-08-25T09:09:14.000Z</time>
                <name>Position 2315</name>
            </trkpt>
            <trkpt lon="10.61369" lat="47.499265">
                <ele>1916.9</ele>
                <time>2009-08-25T09:09:17.000Z</time>
                <name>Position 2316</name>
            </trkpt>
            <trkpt lon="10.61369" lat="47.499265">
                <ele>1916.9</ele>
                <time>2009-08-25T09:09:20.000Z</time>
                <name>Position 2317</name>
            </trkpt>
            <trkpt lon="10.61369" lat="47.499265">
                <ele>1916.9</ele>
                <time>2009-08-25T09:09:23.000Z</time>
                <name>Position 2318</name>
            </trkpt>
            <trkpt lon="10.61369" lat="47.499265">
                <ele>1916.9</ele>
                <time>2009-08-25T09:09:26.000Z</time>
                <name>Position 2319</name>
            </trkpt>
            <trkpt lon="10.61369" lat="47.499265">
                <ele>1916.9</ele>
                <time>2009-08-25T09:09:29.000Z</time>
                <name>Position 2320</name>
            </trkpt>
            <trkpt lon="10.61369" lat="47.499265">
                <ele>1916.8</ele>
                <time>2009-08-25T09:09:32.000Z</time>
                <name>Position 2321</name>
            </trkpt>
            <trkpt lon="10.61369" lat="47.499265">
                <ele>1916.8</ele>
                <time>2009-08-25T09:09:35.000Z</time>
                <name>Position 2322</name>
            </trkpt>
            <trkpt lon="10.61369" lat="47.499265">
                <ele>1916.8</ele>
                <time>2009-08-25T09:09:38.000Z</time>
                <name>Position 2323</name>
            </trkpt>
            <trkpt lon="10.61369" lat="47.499265">
                <ele>1916.8</ele>
                <time>2009-08-25T09:09:41.000Z</time>
                <name>Position 2324</name>
            </trkpt>
            <trkpt lon="10.61369" lat="47.499265">
                <ele>1916.8</ele>
                <time>2009-08-25T09:09:44.000Z</time>
                <name>Position 2325</name>
            </trkpt>
            <trkpt lon="10.61369" lat="47.499265">
                <ele>1916.8</ele>
                <time>2009-08-25T09:09:47.000Z</time>
                <name>Position 2326</name>
            </trkpt>
            <trkpt lon="10.61369" lat="47.499265">
                <ele>1916.8</ele>
                <time>2009-08-25T09:09:50.000Z</time>
                <name>Position 2327</name>
            </trkpt>
            <trkpt lon="10.6136916666667" lat="47.4992666666667">
                <ele>1916.8</ele>
                <time>2009-08-25T09:09:53.000Z</time>
                <name>Position 2328</name>
            </trkpt>
            <trkpt lon="10.6136916666667" lat="47.4992666666667">
                <ele>1916.8</ele>
                <time>2009-08-25T09:09:56.000Z</time>
                <name>Position 2329</name>
            </trkpt>
            <trkpt lon="10.6136916666667" lat="47.4992666666667">
                <ele>1916.8</ele>
                <time>2009-08-25T09:09:59.000Z</time>
                <name>Position 2330</name>
            </trkpt>
            <trkpt lon="10.6137016666667" lat="47.4992733333333">
                <ele>1916.9</ele>
                <time>2009-08-25T09:10:02.000Z</time>
                <name>Position 2331</name>
            </trkpt>
            <trkpt lon="10.6137066666667" lat="47.4992733333333">
                <ele>1917.3</ele>
                <time>2009-08-25T09:10:05.000Z</time>
                <name>Position 2332</name>
            </trkpt>
            <trkpt lon="10.6137016666667" lat="47.4992766666667">
                <ele>1917.7</ele>
                <time>2009-08-25T09:10:08.000Z</time>
                <name>Position 2333</name>
            </trkpt>
            <trkpt lon="10.613705" lat="47.4992783333333">
                <ele>1917.7</ele>
                <time>2009-08-25T09:10:11.000Z</time>
                <name>Position 2334</name>
            </trkpt>
            <trkpt lon="10.613705" lat="47.4992783333333">
                <ele>1917.8</ele>
                <time>2009-08-25T09:10:14.000Z</time>
                <name>Position 2335</name>
            </trkpt>
            <trkpt lon="10.6137066666667" lat="47.49928">
                <ele>1918.1</ele>
                <time>2009-08-25T09:10:17.000Z</time>
                <name>Position 2336</name>
            </trkpt>
            <trkpt lon="10.6137066666667" lat="47.4992816666667">
                <ele>1918.1</ele>
                <time>2009-08-25T09:10:20.000Z</time>
                <name>Position 2337</name>
            </trkpt>
            <trkpt lon="10.6137083333333" lat="47.49928">
                <ele>1918.3</ele>
                <time>2009-08-25T09:10:23.000Z</time>
                <name>Position 2338</name>
            </trkpt>
            <trkpt lon="10.6137083333333" lat="47.4992833333333">
                <ele>1918.4</ele>
                <time>2009-08-25T09:10:26.000Z</time>
                <name>Position 2339</name>
            </trkpt>
            <trkpt lon="10.6137083333333" lat="47.4992833333333">
                <ele>1918.4</ele>
                <time>2009-08-25T09:10:29.000Z</time>
                <name>Position 2340</name>
            </trkpt>
            <trkpt lon="10.61371" lat="47.4992833333333">
                <ele>1918.4</ele>
                <time>2009-08-25T09:10:32.000Z</time>
                <name>Position 2341</name>
            </trkpt>
            <trkpt lon="10.61371" lat="47.4992866666667">
                <ele>1918.5</ele>
                <time>2009-08-25T09:10:35.000Z</time>
                <name>Position 2342</name>
            </trkpt>
            <trkpt lon="10.6137083333333" lat="47.4992866666667">
                <ele>1918.6</ele>
                <time>2009-08-25T09:10:38.000Z</time>
                <name>Position 2343</name>
            </trkpt>
            <trkpt lon="10.6137133333333" lat="47.499295">
                <ele>1919.2</ele>
                <time>2009-08-25T09:10:41.000Z</time>
                <name>Position 2344</name>
            </trkpt>
            <trkpt lon="10.61368" lat="47.4993233333333">
                <ele>1919.9</ele>
                <time>2009-08-25T09:10:44.000Z</time>
                <name>Position 2345</name>
            </trkpt>
            <trkpt lon="10.6136666666667" lat="47.4993366666667">
                <ele>1919.8</ele>
                <time>2009-08-25T09:10:47.000Z</time>
                <name>Position 2346</name>
            </trkpt>
            <trkpt lon="10.6136783333333" lat="47.4993083333333">
                <ele>1919.3</ele>
                <time>2009-08-25T09:10:50.000Z</time>
                <name>Position 2347</name>
            </trkpt>
            <trkpt lon="10.613685" lat="47.4992983333333">
                <ele>1919.3</ele>
                <time>2009-08-25T09:10:53.000Z</time>
                <name>Position 2348</name>
            </trkpt>
            <trkpt lon="10.613685" lat="47.4992983333333">
                <ele>1919.4</ele>
                <time>2009-08-25T09:10:56.000Z</time>
                <name>Position 2349</name>
            </trkpt>
            <trkpt lon="10.613685" lat="47.4992983333333">
                <ele>1919.5</ele>
                <time>2009-08-25T09:10:59.000Z</time>
                <name>Position 2350</name>
            </trkpt>
            <trkpt lon="10.613685" lat="47.4993">
                <ele>1919.5</ele>
                <time>2009-08-25T09:11:02.000Z</time>
                <name>Position 2351</name>
            </trkpt>
            <trkpt lon="10.613685" lat="47.4993">
                <ele>1919.6</ele>
                <time>2009-08-25T09:11:05.000Z</time>
                <name>Position 2352</name>
            </trkpt>
            <trkpt lon="10.613685" lat="47.4993">
                <ele>1919.6</ele>
                <time>2009-08-25T09:11:08.000Z</time>
                <name>Position 2353</name>
            </trkpt>
            <trkpt lon="10.613685" lat="47.4993">
                <ele>1919.7</ele>
                <time>2009-08-25T09:11:11.000Z</time>
                <name>Position 2354</name>
            </trkpt>
            <trkpt lon="10.613685" lat="47.4993016666667">
                <ele>1919.7</ele>
                <time>2009-08-25T09:11:14.000Z</time>
                <name>Position 2355</name>
            </trkpt>
            <trkpt lon="10.613685" lat="47.4993016666667">
                <ele>1919.7</ele>
                <time>2009-08-25T09:11:17.000Z</time>
                <name>Position 2356</name>
            </trkpt>
            <trkpt lon="10.6136833333333" lat="47.4993033333333">
                <ele>1919.7</ele>
                <time>2009-08-25T09:11:20.000Z</time>
                <name>Position 2357</name>
            </trkpt>
            <trkpt lon="10.6136833333333" lat="47.4993033333333">
                <ele>1919.7</ele>
                <time>2009-08-25T09:11:23.000Z</time>
                <name>Position 2358</name>
            </trkpt>
            <trkpt lon="10.6136783333333" lat="47.4993033333333">
                <ele>1919.9</ele>
                <time>2009-08-25T09:11:26.000Z</time>
                <name>Position 2359</name>
            </trkpt>
            <trkpt lon="10.6136783333333" lat="47.4992916666667">
                <ele>1919.7</ele>
                <time>2009-08-25T09:11:29.000Z</time>
                <name>Position 2360</name>
            </trkpt>
            <trkpt lon="10.61368" lat="47.499285">
                <ele>1919.7</ele>
                <time>2009-08-25T09:11:32.000Z</time>
                <name>Position 2361</name>
            </trkpt>
            <trkpt lon="10.6136716666667" lat="47.4992833333333">
                <ele>1919.7</ele>
                <time>2009-08-25T09:11:34.000Z</time>
                <name>Position 2362</name>
            </trkpt>
            <trkpt lon="10.613665" lat="47.4992783333333">
                <ele>1919.9</ele>
                <time>2009-08-25T09:11:37.000Z</time>
                <name>Position 2363</name>
            </trkpt>
            <trkpt lon="10.6136633333333" lat="47.499275">
                <ele>1920.7</ele>
                <time>2009-08-25T09:11:41.000Z</time>
                <name>Position 2364</name>
            </trkpt>
            <trkpt lon="10.6136683333333" lat="47.4992733333333">
                <ele>1920.4</ele>
                <time>2009-08-25T09:11:44.000Z</time>
                <name>Position 2365</name>
            </trkpt>
            <trkpt lon="10.6136733333333" lat="47.4992733333333">
                <ele>1919.4</ele>
                <time>2009-08-25T09:11:47.000Z</time>
                <name>Position 2366</name>
            </trkpt>
            <trkpt lon="10.6136716666667" lat="47.499275">
                <ele>1919.3</ele>
                <time>2009-08-25T09:11:50.000Z</time>
                <name>Position 2367</name>
            </trkpt>
            <trkpt lon="10.6136716666667" lat="47.499275">
                <ele>1919.4</ele>
                <time>2009-08-25T09:11:53.000Z</time>
                <name>Position 2368</name>
            </trkpt>
            <trkpt lon="10.6136733333333" lat="47.4992766666667">
                <ele>1919.5</ele>
                <time>2009-08-25T09:11:56.000Z</time>
                <name>Position 2369</name>
            </trkpt>
            <trkpt lon="10.6136733333333" lat="47.4992766666667">
                <ele>1919.8</ele>
                <time>2009-08-25T09:11:58.000Z</time>
                <name>Position 2370</name>
            </trkpt>
            <trkpt lon="10.6136766666667" lat="47.4992783333333">
                <ele>1919.9</ele>
                <time>2009-08-25T09:12:02.000Z</time>
                <name>Position 2371</name>
            </trkpt>
            <trkpt lon="10.6136766666667" lat="47.4992783333333">
                <ele>1920.0</ele>
                <time>2009-08-25T09:12:05.000Z</time>
                <name>Position 2372</name>
            </trkpt>
            <trkpt lon="10.6136766666667" lat="47.49928">
                <ele>1920.1</ele>
                <time>2009-08-25T09:12:08.000Z</time>
                <name>Position 2373</name>
            </trkpt>
            <trkpt lon="10.613675" lat="47.49928">
                <ele>1920.1</ele>
                <time>2009-08-25T09:12:11.000Z</time>
                <name>Position 2374</name>
            </trkpt>
            <trkpt lon="10.6136733333333" lat="47.4992666666667">
                <ele>1920.2</ele>
                <time>2009-08-25T09:12:14.000Z</time>
                <name>Position 2375</name>
            </trkpt>
            <trkpt lon="10.6136283333333" lat="47.499275">
                <ele>1920.4</ele>
                <time>2009-08-25T09:12:17.000Z</time>
                <name>Position 2376</name>
            </trkpt>
            <trkpt lon="10.6135983333333" lat="47.4992616666667">
                <ele>1920.3</ele>
                <time>2009-08-25T09:12:20.000Z</time>
                <name>Position 2377</name>
            </trkpt>
            <trkpt lon="10.613555" lat="47.4992483333333">
                <ele>1920.7</ele>
                <time>2009-08-25T09:12:23.000Z</time>
                <name>Position 2378</name>
            </trkpt>
            <trkpt lon="10.6135133333333" lat="47.4992433333333">
                <ele>1921.3</ele>
                <time>2009-08-25T09:12:26.000Z</time>
                <name>Position 2379</name>
            </trkpt>
            <trkpt lon="10.6134716666667" lat="47.4992383333333">
                <ele>1921.9</ele>
                <time>2009-08-25T09:12:29.000Z</time>
                <name>Position 2380</name>
            </trkpt>
            <trkpt lon="10.6134383333333" lat="47.4992433333333">
                <ele>1922.5</ele>
                <time>2009-08-25T09:12:32.000Z</time>
                <name>Position 2381</name>
            </trkpt>
            <trkpt lon="10.61341" lat="47.49923">
                <ele>1923.0</ele>
                <time>2009-08-25T09:12:35.000Z</time>
                <name>Position 2382</name>
            </trkpt>
            <trkpt lon="10.6133883333333" lat="47.49922">
                <ele>1923.7</ele>
                <time>2009-08-25T09:12:37.000Z</time>
                <name>Position 2383</name>
            </trkpt>
            <trkpt lon="10.6133483333333" lat="47.4992116666667">
                <ele>1924.3</ele>
                <time>2009-08-25T09:12:40.000Z</time>
                <name>Position 2384</name>
            </trkpt>
            <trkpt lon="10.6133066666667" lat="47.49921">
                <ele>1924.4</ele>
                <time>2009-08-25T09:12:43.000Z</time>
                <name>Position 2385</name>
            </trkpt>
            <trkpt lon="10.6132616666667" lat="47.499205">
                <ele>1924.1</ele>
                <time>2009-08-25T09:12:46.000Z</time>
                <name>Position 2386</name>
            </trkpt>
            <trkpt lon="10.6132233333333" lat="47.499205">
                <ele>1924.3</ele>
                <time>2009-08-25T09:12:49.000Z</time>
                <name>Position 2387</name>
            </trkpt>
            <trkpt lon="10.6131933333333" lat="47.499195">
                <ele>1925.2</ele>
                <time>2009-08-25T09:12:52.000Z</time>
                <name>Position 2388</name>
            </trkpt>
            <trkpt lon="10.6131366666667" lat="47.499195">
                <ele>1925.2</ele>
                <time>2009-08-25T09:12:55.000Z</time>
                <name>Position 2389</name>
            </trkpt>
            <trkpt lon="10.6130866666667" lat="47.4991916666667">
                <ele>1926.1</ele>
                <time>2009-08-25T09:12:58.000Z</time>
                <name>Position 2390</name>
            </trkpt>
            <trkpt lon="10.6130516666667" lat="47.4991916666667">
                <ele>1926.8</ele>
                <time>2009-08-25T09:13:01.000Z</time>
                <name>Position 2391</name>
            </trkpt>
            <trkpt lon="10.61302" lat="47.4991966666667">
                <ele>1927.9</ele>
                <time>2009-08-25T09:13:04.000Z</time>
                <name>Position 2392</name>
            </trkpt>
            <trkpt lon="10.6129966666667" lat="47.4991966666667">
                <ele>1928.7</ele>
                <time>2009-08-25T09:13:07.000Z</time>
                <name>Position 2393</name>
            </trkpt>
            <trkpt lon="10.6129733333333" lat="47.4991883333333">
                <ele>1929.5</ele>
                <time>2009-08-25T09:13:10.000Z</time>
                <name>Position 2394</name>
            </trkpt>
            <trkpt lon="10.61294" lat="47.4991833333333">
                <ele>1930.1</ele>
                <time>2009-08-25T09:13:13.000Z</time>
                <name>Position 2395</name>
            </trkpt>
            <trkpt lon="10.6129066666667" lat="47.49918">
                <ele>1930.9</ele>
                <time>2009-08-25T09:13:16.000Z</time>
                <name>Position 2396</name>
            </trkpt>
            <trkpt lon="10.61288" lat="47.4991766666667">
                <ele>1931.4</ele>
                <time>2009-08-25T09:13:19.000Z</time>
                <name>Position 2397</name>
            </trkpt>
            <trkpt lon="10.6128616666667" lat="47.4991683333333">
                <ele>1932.2</ele>
                <time>2009-08-25T09:13:22.000Z</time>
                <name>Position 2398</name>
            </trkpt>
            <trkpt lon="10.612835" lat="47.4991633333333">
                <ele>1933.0</ele>
                <time>2009-08-25T09:13:25.000Z</time>
                <name>Position 2399</name>
            </trkpt>
            <trkpt lon="10.6128183333333" lat="47.4991516666667">
                <ele>1934.2</ele>
                <time>2009-08-25T09:13:28.000Z</time>
                <name>Position 2400</name>
            </trkpt>
            <trkpt lon="10.6127966666667" lat="47.499145">
                <ele>1934.9</ele>
                <time>2009-08-25T09:13:31.000Z</time>
                <name>Position 2401</name>
            </trkpt>
            <trkpt lon="10.6127883333333" lat="47.4991483333333">
                <ele>1935.8</ele>
                <time>2009-08-25T09:13:34.000Z</time>
                <name>Position 2402</name>
            </trkpt>
            <trkpt lon="10.6127833333333" lat="47.4991633333333">
                <ele>1936.6</ele>
                <time>2009-08-25T09:13:37.000Z</time>
                <name>Position 2403</name>
            </trkpt>
            <trkpt lon="10.6127566666667" lat="47.4991683333333">
                <ele>1937.3</ele>
                <time>2009-08-25T09:13:40.000Z</time>
                <name>Position 2404</name>
            </trkpt>
            <trkpt lon="10.6127433333333" lat="47.4991516666667">
                <ele>1938.0</ele>
                <time>2009-08-25T09:13:43.000Z</time>
                <name>Position 2405</name>
            </trkpt>
            <trkpt lon="10.6127133333333" lat="47.4991516666667">
                <ele>1938.8</ele>
                <time>2009-08-25T09:13:46.000Z</time>
                <name>Position 2406</name>
            </trkpt>
            <trkpt lon="10.6126816666667" lat="47.49914">
                <ele>1939.5</ele>
                <time>2009-08-25T09:13:49.000Z</time>
                <name>Position 2407</name>
            </trkpt>
            <trkpt lon="10.612645" lat="47.49913">
                <ele>1940.4</ele>
                <time>2009-08-25T09:13:52.000Z</time>
                <name>Position 2408</name>
            </trkpt>
            <trkpt lon="10.6126216666667" lat="47.499115">
                <ele>1941.4</ele>
                <time>2009-08-25T09:13:55.000Z</time>
                <name>Position 2409</name>
            </trkpt>
            <trkpt lon="10.6126" lat="47.4991">
                <ele>1941.7</ele>
                <time>2009-08-25T09:13:58.000Z</time>
                <name>Position 2410</name>
            </trkpt>
            <trkpt lon="10.6125966666667" lat="47.4990916666667">
                <ele>1942.5</ele>
                <time>2009-08-25T09:14:01.000Z</time>
                <name>Position 2411</name>
            </trkpt>
            <trkpt lon="10.6125933333333" lat="47.4990916666667">
                <ele>1942.9</ele>
                <time>2009-08-25T09:14:04.000Z</time>
                <name>Position 2412</name>
            </trkpt>
            <trkpt lon="10.6125816666667" lat="47.49909">
                <ele>1943.4</ele>
                <time>2009-08-25T09:14:07.000Z</time>
                <name>Position 2413</name>
            </trkpt>
            <trkpt lon="10.6125583333333" lat="47.4990933333333">
                <ele>1943.9</ele>
                <time>2009-08-25T09:14:10.000Z</time>
                <name>Position 2414</name>
            </trkpt>
            <trkpt lon="10.6125316666667" lat="47.4990983333333">
                <ele>1944.7</ele>
                <time>2009-08-25T09:14:13.000Z</time>
                <name>Position 2415</name>
            </trkpt>
            <trkpt lon="10.6125033333333" lat="47.4991016666667">
                <ele>1945.3</ele>
                <time>2009-08-25T09:14:16.000Z</time>
                <name>Position 2416</name>
            </trkpt>
            <trkpt lon="10.6124866666667" lat="47.4991">
                <ele>1946.0</ele>
                <time>2009-08-25T09:14:19.000Z</time>
                <name>Position 2417</name>
            </trkpt>
            <trkpt lon="10.612445" lat="47.4990933333333">
                <ele>1946.6</ele>
                <time>2009-08-25T09:14:22.000Z</time>
                <name>Position 2418</name>
            </trkpt>
            <trkpt lon="10.6124366666667" lat="47.4990866666667">
                <ele>1947.7</ele>
                <time>2009-08-25T09:14:25.000Z</time>
                <name>Position 2419</name>
            </trkpt>
            <trkpt lon="10.6124233333333" lat="47.4991016666667">
                <ele>1948.1</ele>
                <time>2009-08-25T09:14:28.000Z</time>
                <name>Position 2420</name>
            </trkpt>
            <trkpt lon="10.6124233333333" lat="47.499125">
                <ele>1948.8</ele>
                <time>2009-08-25T09:14:31.000Z</time>
                <name>Position 2421</name>
            </trkpt>
            <trkpt lon="10.6123933333333" lat="47.4991366666667">
                <ele>1949.4</ele>
                <time>2009-08-25T09:14:34.000Z</time>
                <name>Position 2422</name>
            </trkpt>
            <trkpt lon="10.612395" lat="47.49916">
                <ele>1949.5</ele>
                <time>2009-08-25T09:14:37.000Z</time>
                <name>Position 2423</name>
            </trkpt>
            <trkpt lon="10.612405" lat="47.499175">
                <ele>1950.2</ele>
                <time>2009-08-25T09:14:40.000Z</time>
                <name>Position 2424</name>
            </trkpt>
            <trkpt lon="10.6124066666667" lat="47.4991866666667">
                <ele>1950.6</ele>
                <time>2009-08-25T09:14:43.000Z</time>
                <name>Position 2425</name>
            </trkpt>
            <trkpt lon="10.6124283333333" lat="47.4991933333333">
                <ele>1950.7</ele>
                <time>2009-08-25T09:14:46.000Z</time>
                <name>Position 2426</name>
            </trkpt>
            <trkpt lon="10.612435" lat="47.4992166666667">
                <ele>1951.3</ele>
                <time>2009-08-25T09:14:49.000Z</time>
                <name>Position 2427</name>
            </trkpt>
            <trkpt lon="10.612405" lat="47.4992216666667">
                <ele>1952.0</ele>
                <time>2009-08-25T09:14:52.000Z</time>
                <name>Position 2428</name>
            </trkpt>
            <trkpt lon="10.612385" lat="47.49921">
                <ele>1952.4</ele>
                <time>2009-08-25T09:14:55.000Z</time>
                <name>Position 2429</name>
            </trkpt>
            <trkpt lon="10.6123616666667" lat="47.49922">
                <ele>1953.1</ele>
                <time>2009-08-25T09:14:58.000Z</time>
                <name>Position 2430</name>
            </trkpt>
            <trkpt lon="10.612345" lat="47.4992316666667">
                <ele>1953.7</ele>
                <time>2009-08-25T09:15:01.000Z</time>
                <name>Position 2431</name>
            </trkpt>
            <trkpt lon="10.6123666666667" lat="47.4992466666667">
                <ele>1954.1</ele>
                <time>2009-08-25T09:15:04.000Z</time>
                <name>Position 2432</name>
            </trkpt>
            <trkpt lon="10.6123766666667" lat="47.4992633333333">
                <ele>1954.7</ele>
                <time>2009-08-25T09:15:07.000Z</time>
                <name>Position 2433</name>
            </trkpt>
            <trkpt lon="10.6123716666667" lat="47.4992833333333">
                <ele>1955.3</ele>
                <time>2009-08-25T09:15:10.000Z</time>
                <name>Position 2434</name>
            </trkpt>
            <trkpt lon="10.6123616666667" lat="47.4993">
                <ele>1955.8</ele>
                <time>2009-08-25T09:15:13.000Z</time>
                <name>Position 2435</name>
            </trkpt>
            <trkpt lon="10.61234" lat="47.4993116666667">
                <ele>1956.6</ele>
                <time>2009-08-25T09:15:16.000Z</time>
                <name>Position 2436</name>
            </trkpt>
            <trkpt lon="10.6123183333333" lat="47.4993066666667">
                <ele>1957.2</ele>
                <time>2009-08-25T09:15:19.000Z</time>
                <name>Position 2437</name>
            </trkpt>
            <trkpt lon="10.6123066666667" lat="47.4993016666667">
                <ele>1958.0</ele>
                <time>2009-08-25T09:15:22.000Z</time>
                <name>Position 2438</name>
            </trkpt>
            <trkpt lon="10.6123016666667" lat="47.499295">
                <ele>1958.0</ele>
                <time>2009-08-25T09:15:25.000Z</time>
                <name>Position 2439</name>
            </trkpt>
            <trkpt lon="10.6123066666667" lat="47.49929">
                <ele>1957.9</ele>
                <time>2009-08-25T09:15:28.000Z</time>
                <name>Position 2440</name>
            </trkpt>
            <trkpt lon="10.6123066666667" lat="47.49929">
                <ele>1958.0</ele>
                <time>2009-08-25T09:15:31.000Z</time>
                <name>Position 2441</name>
            </trkpt>
            <trkpt lon="10.612305" lat="47.4992916666667">
                <ele>1958.2</ele>
                <time>2009-08-25T09:15:34.000Z</time>
                <name>Position 2442</name>
            </trkpt>
            <trkpt lon="10.6123016666667" lat="47.4992966666667">
                <ele>1958.2</ele>
                <time>2009-08-25T09:15:37.000Z</time>
                <name>Position 2443</name>
            </trkpt>
            <trkpt lon="10.6123" lat="47.4993">
                <ele>1958.3</ele>
                <time>2009-08-25T09:15:40.000Z</time>
                <name>Position 2444</name>
            </trkpt>
            <trkpt lon="10.6122983333333" lat="47.4993016666667">
                <ele>1958.4</ele>
                <time>2009-08-25T09:15:43.000Z</time>
                <name>Position 2445</name>
            </trkpt>
            <trkpt lon="10.6122983333333" lat="47.4993016666667">
                <ele>1958.4</ele>
                <time>2009-08-25T09:15:46.000Z</time>
                <name>Position 2446</name>
            </trkpt>
            <trkpt lon="10.6122983333333" lat="47.4993016666667">
                <ele>1958.3</ele>
                <time>2009-08-25T09:15:49.000Z</time>
                <name>Position 2447</name>
            </trkpt>
            <trkpt lon="10.6122983333333" lat="47.4993016666667">
                <ele>1958.3</ele>
                <time>2009-08-25T09:15:52.000Z</time>
                <name>Position 2448</name>
            </trkpt>
            <trkpt lon="10.6123" lat="47.4993016666667">
                <ele>1958.3</ele>
                <time>2009-08-25T09:15:55.000Z</time>
                <name>Position 2449</name>
            </trkpt>
            <trkpt lon="10.6123" lat="47.4993016666667">
                <ele>1958.3</ele>
                <time>2009-08-25T09:15:58.000Z</time>
                <name>Position 2450</name>
            </trkpt>
            <trkpt lon="10.6123" lat="47.4993033333333">
                <ele>1958.4</ele>
                <time>2009-08-25T09:16:01.000Z</time>
                <name>Position 2451</name>
            </trkpt>
            <trkpt lon="10.6123" lat="47.4993033333333">
                <ele>1958.4</ele>
                <time>2009-08-25T09:16:04.000Z</time>
                <name>Position 2452</name>
            </trkpt>
            <trkpt lon="10.6123" lat="47.4993033333333">
                <ele>1958.4</ele>
                <time>2009-08-25T09:16:07.000Z</time>
                <name>Position 2453</name>
            </trkpt>
            <trkpt lon="10.6123" lat="47.4993033333333">
                <ele>1958.4</ele>
                <time>2009-08-25T09:16:10.000Z</time>
                <name>Position 2454</name>
            </trkpt>
            <trkpt lon="10.6123" lat="47.4993033333333">
                <ele>1958.4</ele>
                <time>2009-08-25T09:16:13.000Z</time>
                <name>Position 2455</name>
            </trkpt>
            <trkpt lon="10.6123" lat="47.499305">
                <ele>1958.4</ele>
                <time>2009-08-25T09:16:16.000Z</time>
                <name>Position 2456</name>
            </trkpt>
            <trkpt lon="10.6123" lat="47.499305">
                <ele>1958.4</ele>
                <time>2009-08-25T09:16:19.000Z</time>
                <name>Position 2457</name>
            </trkpt>
            <trkpt lon="10.6122983333333" lat="47.4993066666667">
                <ele>1958.5</ele>
                <time>2009-08-25T09:16:22.000Z</time>
                <name>Position 2458</name>
            </trkpt>
            <trkpt lon="10.61228" lat="47.4993266666667">
                <ele>1958.7</ele>
                <time>2009-08-25T09:16:25.000Z</time>
                <name>Position 2459</name>
            </trkpt>
            <trkpt lon="10.6122816666667" lat="47.49933">
                <ele>1958.7</ele>
                <time>2009-08-25T09:16:28.000Z</time>
                <name>Position 2460</name>
            </trkpt>
            <trkpt lon="10.612285" lat="47.4993283333333">
                <ele>1958.8</ele>
                <time>2009-08-25T09:16:31.000Z</time>
                <name>Position 2461</name>
            </trkpt>
            <trkpt lon="10.61228" lat="47.4993316666667">
                <ele>1959.8</ele>
                <time>2009-08-25T09:16:34.000Z</time>
                <name>Position 2462</name>
            </trkpt>
            <trkpt lon="10.6122766666667" lat="47.499315">
                <ele>1960.9</ele>
                <time>2009-08-25T09:16:37.000Z</time>
                <name>Position 2463</name>
            </trkpt>
            <trkpt lon="10.6122466666667" lat="47.4993033333333">
                <ele>1961.8</ele>
                <time>2009-08-25T09:16:40.000Z</time>
                <name>Position 2464</name>
            </trkpt>
            <trkpt lon="10.612225" lat="47.4993066666667">
                <ele>1962.7</ele>
                <time>2009-08-25T09:16:43.000Z</time>
                <name>Position 2465</name>
            </trkpt>
            <trkpt lon="10.6122033333333" lat="47.4993133333333">
                <ele>1963.9</ele>
                <time>2009-08-25T09:16:46.000Z</time>
                <name>Position 2466</name>
            </trkpt>
            <trkpt lon="10.6121883333333" lat="47.499335">
                <ele>1965.2</ele>
                <time>2009-08-25T09:16:49.000Z</time>
                <name>Position 2467</name>
            </trkpt>
            <trkpt lon="10.61219" lat="47.4993433333333">
                <ele>1966.7</ele>
                <time>2009-08-25T09:16:52.000Z</time>
                <name>Position 2468</name>
            </trkpt>
            <trkpt lon="10.612175" lat="47.49936">
                <ele>1968.1</ele>
                <time>2009-08-25T09:16:55.000Z</time>
                <name>Position 2469</name>
            </trkpt>
            <trkpt lon="10.6121783333333" lat="47.4993833333333">
                <ele>1968.5</ele>
                <time>2009-08-25T09:16:58.000Z</time>
                <name>Position 2470</name>
            </trkpt>
            <trkpt lon="10.61216" lat="47.4994083333333">
                <ele>1969.9</ele>
                <time>2009-08-25T09:17:01.000Z</time>
                <name>Position 2471</name>
            </trkpt>
            <trkpt lon="10.6121516666667" lat="47.4994266666667">
                <ele>1971.2</ele>
                <time>2009-08-25T09:17:04.000Z</time>
                <name>Position 2472</name>
            </trkpt>
            <trkpt lon="10.6121433333333" lat="47.4994433333333">
                <ele>1971.7</ele>
                <time>2009-08-25T09:17:07.000Z</time>
                <name>Position 2473</name>
            </trkpt>
            <trkpt lon="10.6121316666667" lat="47.4994583333333">
                <ele>1972.6</ele>
                <time>2009-08-25T09:17:10.000Z</time>
                <name>Position 2474</name>
            </trkpt>
            <trkpt lon="10.612115" lat="47.4994483333333">
                <ele>1972.9</ele>
                <time>2009-08-25T09:17:13.000Z</time>
                <name>Position 2475</name>
            </trkpt>
            <trkpt lon="10.6120983333333" lat="47.4994433333333">
                <ele>1973.5</ele>
                <time>2009-08-25T09:17:16.000Z</time>
                <name>Position 2476</name>
            </trkpt>
            <trkpt lon="10.6120883333333" lat="47.499445">
                <ele>1974.4</ele>
                <time>2009-08-25T09:17:19.000Z</time>
                <name>Position 2477</name>
            </trkpt>
            <trkpt lon="10.6120966666667" lat="47.4994583333333">
                <ele>1975.0</ele>
                <time>2009-08-25T09:17:22.000Z</time>
                <name>Position 2478</name>
            </trkpt>
            <trkpt lon="10.6120933333333" lat="47.499465">
                <ele>1976.5</ele>
                <time>2009-08-25T09:17:25.000Z</time>
                <name>Position 2479</name>
            </trkpt>
            <trkpt lon="10.6120883333333" lat="47.4994683333333">
                <ele>1977.4</ele>
                <time>2009-08-25T09:17:28.000Z</time>
                <name>Position 2480</name>
            </trkpt>
            <trkpt lon="10.612085" lat="47.4994666666667">
                <ele>1977.9</ele>
                <time>2009-08-25T09:17:31.000Z</time>
                <name>Position 2481</name>
            </trkpt>
            <trkpt lon="10.61209" lat="47.49947">
                <ele>1978.5</ele>
                <time>2009-08-25T09:17:34.000Z</time>
                <name>Position 2482</name>
            </trkpt>
            <trkpt lon="10.6120933333333" lat="47.4994716666667">
                <ele>1978.9</ele>
                <time>2009-08-25T09:17:37.000Z</time>
                <name>Position 2483</name>
            </trkpt>
            <trkpt lon="10.612095" lat="47.4994716666667">
                <ele>1979.3</ele>
                <time>2009-08-25T09:17:40.000Z</time>
                <name>Position 2484</name>
            </trkpt>
            <trkpt lon="10.612095" lat="47.4994733333333">
                <ele>1979.6</ele>
                <time>2009-08-25T09:17:43.000Z</time>
                <name>Position 2485</name>
            </trkpt>
            <trkpt lon="10.6120816666667" lat="47.499485">
                <ele>1979.9</ele>
                <time>2009-08-25T09:17:46.000Z</time>
                <name>Position 2486</name>
            </trkpt>
            <trkpt lon="10.61209" lat="47.4995033333333">
                <ele>1980.7</ele>
                <time>2009-08-25T09:17:49.000Z</time>
                <name>Position 2487</name>
            </trkpt>
            <trkpt lon="10.6121083333333" lat="47.499515">
                <ele>1981.3</ele>
                <time>2009-08-25T09:17:52.000Z</time>
                <name>Position 2488</name>
            </trkpt>
            <trkpt lon="10.61213" lat="47.4995316666667">
                <ele>1982.3</ele>
                <time>2009-08-25T09:17:55.000Z</time>
                <name>Position 2489</name>
            </trkpt>
            <trkpt lon="10.6121166666667" lat="47.4995416666667">
                <ele>1982.6</ele>
                <time>2009-08-25T09:17:58.000Z</time>
                <name>Position 2490</name>
            </trkpt>
            <trkpt lon="10.6121" lat="47.4995416666667">
                <ele>1983.0</ele>
                <time>2009-08-25T09:18:01.000Z</time>
                <name>Position 2491</name>
            </trkpt>
            <trkpt lon="10.6120766666667" lat="47.4995366666667">
                <ele>1983.5</ele>
                <time>2009-08-25T09:18:04.000Z</time>
                <name>Position 2492</name>
            </trkpt>
            <trkpt lon="10.612065" lat="47.4995383333333">
                <ele>1983.9</ele>
                <time>2009-08-25T09:18:07.000Z</time>
                <name>Position 2493</name>
            </trkpt>
            <trkpt lon="10.612065" lat="47.4995483333333">
                <ele>1984.5</ele>
                <time>2009-08-25T09:18:10.000Z</time>
                <name>Position 2494</name>
            </trkpt>
            <trkpt lon="10.6120633333333" lat="47.4995633333333">
                <ele>1984.7</ele>
                <time>2009-08-25T09:18:13.000Z</time>
                <name>Position 2495</name>
            </trkpt>
            <trkpt lon="10.61205" lat="47.49955">
                <ele>1985.4</ele>
                <time>2009-08-25T09:18:16.000Z</time>
                <name>Position 2496</name>
            </trkpt>
            <trkpt lon="10.6120216666667" lat="47.4995466666667">
                <ele>1985.6</ele>
                <time>2009-08-25T09:18:19.000Z</time>
                <name>Position 2497</name>
            </trkpt>
            <trkpt lon="10.6120066666667" lat="47.4995616666667">
                <ele>1986.5</ele>
                <time>2009-08-25T09:18:22.000Z</time>
                <name>Position 2498</name>
            </trkpt>
            <trkpt lon="10.6120116666667" lat="47.4995816666667">
                <ele>1986.8</ele>
                <time>2009-08-25T09:18:25.000Z</time>
                <name>Position 2499</name>
            </trkpt>
            <trkpt lon="10.6119933333333" lat="47.49959">
                <ele>1987.3</ele>
                <time>2009-08-25T09:18:28.000Z</time>
                <name>Position 2500</name>
            </trkpt>
            <trkpt lon="10.6119716666667" lat="47.49959">
                <ele>1987.8</ele>
                <time>2009-08-25T09:18:31.000Z</time>
                <name>Position 2501</name>
            </trkpt>
            <trkpt lon="10.6119483333333" lat="47.4995866666667">
                <ele>1987.8</ele>
                <time>2009-08-25T09:18:34.000Z</time>
                <name>Position 2502</name>
            </trkpt>
            <trkpt lon="10.6119333333333" lat="47.499585">
                <ele>1988.3</ele>
                <time>2009-08-25T09:18:37.000Z</time>
                <name>Position 2503</name>
            </trkpt>
            <trkpt lon="10.6119183333333" lat="47.4995983333333">
                <ele>1988.6</ele>
                <time>2009-08-25T09:18:40.000Z</time>
                <name>Position 2504</name>
            </trkpt>
            <trkpt lon="10.611895" lat="47.4995933333333">
                <ele>1988.6</ele>
                <time>2009-08-25T09:18:43.000Z</time>
                <name>Position 2505</name>
            </trkpt>
            <trkpt lon="10.6118883333333" lat="47.4995916666667">
                <ele>1989.5</ele>
                <time>2009-08-25T09:18:46.000Z</time>
                <name>Position 2506</name>
            </trkpt>
            <trkpt lon="10.6118983333333" lat="47.4996066666667">
                <ele>1989.6</ele>
                <time>2009-08-25T09:18:49.000Z</time>
                <name>Position 2507</name>
            </trkpt>
            <trkpt lon="10.6118966666667" lat="47.4996233333333">
                <ele>1990.1</ele>
                <time>2009-08-25T09:18:52.000Z</time>
                <name>Position 2508</name>
            </trkpt>
            <trkpt lon="10.6119116666667" lat="47.4996466666667">
                <ele>1991.0</ele>
                <time>2009-08-25T09:18:55.000Z</time>
                <name>Position 2509</name>
            </trkpt>
            <trkpt lon="10.6119266666667" lat="47.49967">
                <ele>1991.9</ele>
                <time>2009-08-25T09:18:58.000Z</time>
                <name>Position 2510</name>
            </trkpt>
            <trkpt lon="10.61193" lat="47.4996916666667">
                <ele>1992.4</ele>
                <time>2009-08-25T09:19:01.000Z</time>
                <name>Position 2511</name>
            </trkpt>
            <trkpt lon="10.6119216666667" lat="47.4997033333333">
                <ele>1992.4</ele>
                <time>2009-08-25T09:19:04.000Z</time>
                <name>Position 2512</name>
            </trkpt>
            <trkpt lon="10.611905" lat="47.4997033333333">
                <ele>1992.4</ele>
                <time>2009-08-25T09:19:07.000Z</time>
                <name>Position 2513</name>
            </trkpt>
            <trkpt lon="10.6118916666667" lat="47.4996833333333">
                <ele>1992.8</ele>
                <time>2009-08-25T09:19:10.000Z</time>
                <name>Position 2514</name>
            </trkpt>
            <trkpt lon="10.6118716666667" lat="47.4996783333333">
                <ele>1992.8</ele>
                <time>2009-08-25T09:19:13.000Z</time>
                <name>Position 2515</name>
            </trkpt>
            <trkpt lon="10.6118666666667" lat="47.4996883333333">
                <ele>1993.5</ele>
                <time>2009-08-25T09:19:16.000Z</time>
                <name>Position 2516</name>
            </trkpt>
            <trkpt lon="10.6118633333333" lat="47.49971">
                <ele>1994.4</ele>
                <time>2009-08-25T09:19:19.000Z</time>
                <name>Position 2517</name>
            </trkpt>
            <trkpt lon="10.611855" lat="47.4997116666667">
                <ele>1994.5</ele>
                <time>2009-08-25T09:19:22.000Z</time>
                <name>Position 2518</name>
            </trkpt>
            <trkpt lon="10.6118433333333" lat="47.49971">
                <ele>1994.4</ele>
                <time>2009-08-25T09:19:25.000Z</time>
                <name>Position 2519</name>
            </trkpt>
            <trkpt lon="10.6118316666667" lat="47.4997216666667">
                <ele>1994.9</ele>
                <time>2009-08-25T09:19:28.000Z</time>
                <name>Position 2520</name>
            </trkpt>
            <trkpt lon="10.61183" lat="47.499735">
                <ele>1995.1</ele>
                <time>2009-08-25T09:19:31.000Z</time>
                <name>Position 2521</name>
            </trkpt>
            <trkpt lon="10.61183" lat="47.4997483333333">
                <ele>1995.7</ele>
                <time>2009-08-25T09:19:34.000Z</time>
                <name>Position 2522</name>
            </trkpt>
            <trkpt lon="10.61183" lat="47.49976">
                <ele>1996.1</ele>
                <time>2009-08-25T09:19:37.000Z</time>
                <name>Position 2523</name>
            </trkpt>
            <trkpt lon="10.611815" lat="47.4997516666667">
                <ele>1995.6</ele>
                <time>2009-08-25T09:19:40.000Z</time>
                <name>Position 2524</name>
            </trkpt>
            <trkpt lon="10.611815" lat="47.49975">
                <ele>1995.8</ele>
                <time>2009-08-25T09:19:43.000Z</time>
                <name>Position 2525</name>
            </trkpt>
            <trkpt lon="10.611815" lat="47.4997483333333">
                <ele>1995.9</ele>
                <time>2009-08-25T09:19:46.000Z</time>
                <name>Position 2526</name>
            </trkpt>
            <trkpt lon="10.61181" lat="47.4997433333333">
                <ele>1996.1</ele>
                <time>2009-08-25T09:19:49.000Z</time>
                <name>Position 2527</name>
            </trkpt>
            <trkpt lon="10.6118166666667" lat="47.4997483333333">
                <ele>1995.8</ele>
                <time>2009-08-25T09:19:52.000Z</time>
                <name>Position 2528</name>
            </trkpt>
            <trkpt lon="10.6118166666667" lat="47.4997516666667">
                <ele>1995.8</ele>
                <time>2009-08-25T09:19:55.000Z</time>
                <name>Position 2529</name>
            </trkpt>
            <trkpt lon="10.611815" lat="47.4997533333333">
                <ele>1996.0</ele>
                <time>2009-08-25T09:19:58.000Z</time>
                <name>Position 2530</name>
            </trkpt>
            <trkpt lon="10.6118116666667" lat="47.4997483333333">
                <ele>1996.7</ele>
                <time>2009-08-25T09:20:01.000Z</time>
                <name>Position 2531</name>
            </trkpt>
            <trkpt lon="10.6117883333333" lat="47.499755">
                <ele>1997.6</ele>
                <time>2009-08-25T09:20:04.000Z</time>
                <name>Position 2532</name>
            </trkpt>
            <trkpt lon="10.6117566666667" lat="47.4997566666667">
                <ele>1998.0</ele>
                <time>2009-08-25T09:20:07.000Z</time>
                <name>Position 2533</name>
            </trkpt>
            <trkpt lon="10.61174" lat="47.4997483333333">
                <ele>1998.6</ele>
                <time>2009-08-25T09:20:10.000Z</time>
                <name>Position 2534</name>
            </trkpt>
            <trkpt lon="10.611715" lat="47.4997483333333">
                <ele>1999.3</ele>
                <time>2009-08-25T09:20:13.000Z</time>
                <name>Position 2535</name>
            </trkpt>
            <trkpt lon="10.6116933333333" lat="47.49975">
                <ele>1998.9</ele>
                <time>2009-08-25T09:20:16.000Z</time>
                <name>Position 2536</name>
            </trkpt>
            <trkpt lon="10.611685" lat="47.499745">
                <ele>1998.8</ele>
                <time>2009-08-25T09:20:19.000Z</time>
                <name>Position 2537</name>
            </trkpt>
            <trkpt lon="10.611685" lat="47.4997433333333">
                <ele>1998.8</ele>
                <time>2009-08-25T09:20:22.000Z</time>
                <name>Position 2538</name>
            </trkpt>
            <trkpt lon="10.611685" lat="47.4997416666667">
                <ele>1998.9</ele>
                <time>2009-08-25T09:20:25.000Z</time>
                <name>Position 2539</name>
            </trkpt>
            <trkpt lon="10.6116866666667" lat="47.4997416666667">
                <ele>1999.0</ele>
                <time>2009-08-25T09:20:28.000Z</time>
                <name>Position 2540</name>
            </trkpt>
            <trkpt lon="10.6116883333333" lat="47.4997416666667">
                <ele>1999.2</ele>
                <time>2009-08-25T09:20:31.000Z</time>
                <name>Position 2541</name>
            </trkpt>
            <trkpt lon="10.6116883333333" lat="47.4997416666667">
                <ele>1999.2</ele>
                <time>2009-08-25T09:20:34.000Z</time>
                <name>Position 2542</name>
            </trkpt>
            <trkpt lon="10.6116883333333" lat="47.4997416666667">
                <ele>1999.2</ele>
                <time>2009-08-25T09:20:37.000Z</time>
                <name>Position 2543</name>
            </trkpt>
            <trkpt lon="10.6116883333333" lat="47.4997416666667">
                <ele>1999.1</ele>
                <time>2009-08-25T09:20:40.000Z</time>
                <name>Position 2544</name>
            </trkpt>
            <trkpt lon="10.6116883333333" lat="47.4997416666667">
                <ele>1999.1</ele>
                <time>2009-08-25T09:20:43.000Z</time>
                <name>Position 2545</name>
            </trkpt>
            <trkpt lon="10.6116883333333" lat="47.4997416666667">
                <ele>1999.1</ele>
                <time>2009-08-25T09:20:46.000Z</time>
                <name>Position 2546</name>
            </trkpt>
            <trkpt lon="10.6116883333333" lat="47.4997416666667">
                <ele>1999.1</ele>
                <time>2009-08-25T09:20:49.000Z</time>
                <name>Position 2547</name>
            </trkpt>
            <trkpt lon="10.6116883333333" lat="47.4997416666667">
                <ele>1999.1</ele>
                <time>2009-08-25T09:20:52.000Z</time>
                <name>Position 2548</name>
            </trkpt>
            <trkpt lon="10.6116883333333" lat="47.4997416666667">
                <ele>1999.1</ele>
                <time>2009-08-25T09:20:55.000Z</time>
                <name>Position 2549</name>
            </trkpt>
            <trkpt lon="10.6116883333333" lat="47.4997416666667">
                <ele>1999.1</ele>
                <time>2009-08-25T09:20:58.000Z</time>
                <name>Position 2550</name>
            </trkpt>
            <trkpt lon="10.6116883333333" lat="47.4997416666667">
                <ele>1999.1</ele>
                <time>2009-08-25T09:21:01.000Z</time>
                <name>Position 2551</name>
            </trkpt>
            <trkpt lon="10.6116883333333" lat="47.4997416666667">
                <ele>1999.1</ele>
                <time>2009-08-25T09:21:04.000Z</time>
                <name>Position 2552</name>
            </trkpt>
            <trkpt lon="10.61169" lat="47.4997416666667">
                <ele>1999.1</ele>
                <time>2009-08-25T09:21:07.000Z</time>
                <name>Position 2553</name>
            </trkpt>
            <trkpt lon="10.61169" lat="47.4997416666667">
                <ele>1999.1</ele>
                <time>2009-08-25T09:21:10.000Z</time>
                <name>Position 2554</name>
            </trkpt>
            <trkpt lon="10.61169" lat="47.4997416666667">
                <ele>1999.0</ele>
                <time>2009-08-25T09:21:13.000Z</time>
                <name>Position 2555</name>
            </trkpt>
            <trkpt lon="10.61169" lat="47.4997416666667">
                <ele>1999.0</ele>
                <time>2009-08-25T09:21:16.000Z</time>
                <name>Position 2556</name>
            </trkpt>
            <trkpt lon="10.61169" lat="47.4997416666667">
                <ele>1999.0</ele>
                <time>2009-08-25T09:21:19.000Z</time>
                <name>Position 2557</name>
            </trkpt>
            <trkpt lon="10.61169" lat="47.4997416666667">
                <ele>1999.0</ele>
                <time>2009-08-25T09:21:22.000Z</time>
                <name>Position 2558</name>
            </trkpt>
            <trkpt lon="10.61169" lat="47.4997416666667">
                <ele>1999.0</ele>
                <time>2009-08-25T09:21:25.000Z</time>
                <name>Position 2559</name>
            </trkpt>
            <trkpt lon="10.61169" lat="47.4997416666667">
                <ele>1999.0</ele>
                <time>2009-08-25T09:21:28.000Z</time>
                <name>Position 2560</name>
            </trkpt>
            <trkpt lon="10.61169" lat="47.4997433333333">
                <ele>1999.0</ele>
                <time>2009-08-25T09:21:31.000Z</time>
                <name>Position 2561</name>
            </trkpt>
            <trkpt lon="10.61169" lat="47.4997433333333">
                <ele>1999.0</ele>
                <time>2009-08-25T09:21:34.000Z</time>
                <name>Position 2562</name>
            </trkpt>
            <trkpt lon="10.6116916666667" lat="47.4997416666667">
                <ele>1999.0</ele>
                <time>2009-08-25T09:21:37.000Z</time>
                <name>Position 2563</name>
            </trkpt>
            <trkpt lon="10.61169" lat="47.4997433333333">
                <ele>1999.0</ele>
                <time>2009-08-25T09:21:40.000Z</time>
                <name>Position 2564</name>
            </trkpt>
            <trkpt lon="10.61169" lat="47.4997416666667">
                <ele>1999.0</ele>
                <time>2009-08-25T09:21:43.000Z</time>
                <name>Position 2565</name>
            </trkpt>
            <trkpt lon="10.61169" lat="47.4997416666667">
                <ele>1999.0</ele>
                <time>2009-08-25T09:21:46.000Z</time>
                <name>Position 2566</name>
            </trkpt>
            <trkpt lon="10.61169" lat="47.4997433333333">
                <ele>1999.0</ele>
                <time>2009-08-25T09:21:49.000Z</time>
                <name>Position 2567</name>
            </trkpt>
            <trkpt lon="10.61169" lat="47.499745">
                <ele>1999.0</ele>
                <time>2009-08-25T09:21:52.000Z</time>
                <name>Position 2568</name>
            </trkpt>
            <trkpt lon="10.6116883333333" lat="47.499745">
                <ele>1999.0</ele>
                <time>2009-08-25T09:21:55.000Z</time>
                <name>Position 2569</name>
            </trkpt>
            <trkpt lon="10.6116883333333" lat="47.499745">
                <ele>1999.0</ele>
                <time>2009-08-25T09:21:58.000Z</time>
                <name>Position 2570</name>
            </trkpt>
            <trkpt lon="10.6116883333333" lat="47.499745">
                <ele>1999.0</ele>
                <time>2009-08-25T09:22:01.000Z</time>
                <name>Position 2571</name>
            </trkpt>
            <trkpt lon="10.6116883333333" lat="47.499745">
                <ele>1999.0</ele>
                <time>2009-08-25T09:22:04.000Z</time>
                <name>Position 2572</name>
            </trkpt>
            <trkpt lon="10.6116883333333" lat="47.499745">
                <ele>1999.0</ele>
                <time>2009-08-25T09:22:07.000Z</time>
                <name>Position 2573</name>
            </trkpt>
            <trkpt lon="10.6116883333333" lat="47.4997466666667">
                <ele>1999.0</ele>
                <time>2009-08-25T09:22:10.000Z</time>
                <name>Position 2574</name>
            </trkpt>
            <trkpt lon="10.6116883333333" lat="47.499745">
                <ele>1999.0</ele>
                <time>2009-08-25T09:22:13.000Z</time>
                <name>Position 2575</name>
            </trkpt>
            <trkpt lon="10.6116883333333" lat="47.499745">
                <ele>1999.0</ele>
                <time>2009-08-25T09:22:16.000Z</time>
                <name>Position 2576</name>
            </trkpt>
            <trkpt lon="10.6116883333333" lat="47.499745">
                <ele>1999.0</ele>
                <time>2009-08-25T09:22:19.000Z</time>
                <name>Position 2577</name>
            </trkpt>
            <trkpt lon="10.6116883333333" lat="47.499745">
                <ele>1999.0</ele>
                <time>2009-08-25T09:22:22.000Z</time>
                <name>Position 2578</name>
            </trkpt>
            <trkpt lon="10.6116883333333" lat="47.4997466666667">
                <ele>1999.0</ele>
                <time>2009-08-25T09:22:25.000Z</time>
                <name>Position 2579</name>
            </trkpt>
            <trkpt lon="10.6116883333333" lat="47.499745">
                <ele>1999.0</ele>
                <time>2009-08-25T09:22:28.000Z</time>
                <name>Position 2580</name>
            </trkpt>
            <trkpt lon="10.6116883333333" lat="47.499745">
                <ele>1999.0</ele>
                <time>2009-08-25T09:22:31.000Z</time>
                <name>Position 2581</name>
            </trkpt>
            <trkpt lon="10.6116883333333" lat="47.499745">
                <ele>1999.0</ele>
                <time>2009-08-25T09:22:34.000Z</time>
                <name>Position 2582</name>
            </trkpt>
            <trkpt lon="10.6116883333333" lat="47.499745">
                <ele>1999.0</ele>
                <time>2009-08-25T09:22:37.000Z</time>
                <name>Position 2583</name>
            </trkpt>
            <trkpt lon="10.6116883333333" lat="47.499745">
                <ele>1999.0</ele>
                <time>2009-08-25T09:22:40.000Z</time>
                <name>Position 2584</name>
            </trkpt>
            <trkpt lon="10.6116883333333" lat="47.499745">
                <ele>1999.0</ele>
                <time>2009-08-25T09:22:43.000Z</time>
                <name>Position 2585</name>
            </trkpt>
            <trkpt lon="10.6116883333333" lat="47.499745">
                <ele>1999.0</ele>
                <time>2009-08-25T09:22:46.000Z</time>
                <name>Position 2586</name>
            </trkpt>
            <trkpt lon="10.6116883333333" lat="47.499745">
                <ele>1999.0</ele>
                <time>2009-08-25T09:22:49.000Z</time>
                <name>Position 2587</name>
            </trkpt>
            <trkpt lon="10.6116883333333" lat="47.499745">
                <ele>1999.0</ele>
                <time>2009-08-25T09:22:52.000Z</time>
                <name>Position 2588</name>
            </trkpt>
            <trkpt lon="10.6116883333333" lat="47.499745">
                <ele>1999.0</ele>
                <time>2009-08-25T09:22:55.000Z</time>
                <name>Position 2589</name>
            </trkpt>
            <trkpt lon="10.6116883333333" lat="47.4997433333333">
                <ele>1999.0</ele>
                <time>2009-08-25T09:22:58.000Z</time>
                <name>Position 2590</name>
            </trkpt>
            <trkpt lon="10.6116883333333" lat="47.4997433333333">
                <ele>1999.0</ele>
                <time>2009-08-25T09:23:01.000Z</time>
                <name>Position 2591</name>
            </trkpt>
            <trkpt lon="10.6116883333333" lat="47.4997433333333">
                <ele>1999.0</ele>
                <time>2009-08-25T09:23:04.000Z</time>
                <name>Position 2592</name>
            </trkpt>
            <trkpt lon="10.6116883333333" lat="47.4997433333333">
                <ele>1999.0</ele>
                <time>2009-08-25T09:23:07.000Z</time>
                <name>Position 2593</name>
            </trkpt>
            <trkpt lon="10.6116883333333" lat="47.4997433333333">
                <ele>1999.0</ele>
                <time>2009-08-25T09:23:10.000Z</time>
                <name>Position 2594</name>
            </trkpt>
            <trkpt lon="10.6116883333333" lat="47.4997433333333">
                <ele>1999.0</ele>
                <time>2009-08-25T09:23:13.000Z</time>
                <name>Position 2595</name>
            </trkpt>
            <trkpt lon="10.6116883333333" lat="47.4997433333333">
                <ele>1999.0</ele>
                <time>2009-08-25T09:23:16.000Z</time>
                <name>Position 2596</name>
            </trkpt>
            <trkpt lon="10.6116883333333" lat="47.4997433333333">
                <ele>1999.0</ele>
                <time>2009-08-25T09:23:19.000Z</time>
                <name>Position 2597</name>
            </trkpt>
            <trkpt lon="10.6116883333333" lat="47.4997433333333">
                <ele>1999.0</ele>
                <time>2009-08-25T09:23:22.000Z</time>
                <name>Position 2598</name>
            </trkpt>
            <trkpt lon="10.6116883333333" lat="47.4997433333333">
                <ele>1999.0</ele>
                <time>2009-08-25T09:23:25.000Z</time>
                <name>Position 2599</name>
            </trkpt>
            <trkpt lon="10.6116883333333" lat="47.4997433333333">
                <ele>1999.1</ele>
                <time>2009-08-25T09:23:28.000Z</time>
                <name>Position 2600</name>
            </trkpt>
            <trkpt lon="10.6116883333333" lat="47.4997433333333">
                <ele>1999.0</ele>
                <time>2009-08-25T09:23:31.000Z</time>
                <name>Position 2601</name>
            </trkpt>
            <trkpt lon="10.6117" lat="47.4997483333333">
                <ele>1998.5</ele>
                <time>2009-08-25T09:23:34.000Z</time>
                <name>Position 2602</name>
            </trkpt>
            <trkpt lon="10.6117066666667" lat="47.4997466666667">
                <ele>1998.3</ele>
                <time>2009-08-25T09:23:37.000Z</time>
                <name>Position 2603</name>
            </trkpt>
            <trkpt lon="10.6117116666667" lat="47.4997466666667">
                <ele>1998.3</ele>
                <time>2009-08-25T09:23:40.000Z</time>
                <name>Position 2604</name>
            </trkpt>
            <trkpt lon="10.61171" lat="47.4997466666667">
                <ele>1998.3</ele>
                <time>2009-08-25T09:23:43.000Z</time>
                <name>Position 2605</name>
            </trkpt>
            <trkpt lon="10.61171" lat="47.4997483333333">
                <ele>1998.3</ele>
                <time>2009-08-25T09:23:46.000Z</time>
                <name>Position 2606</name>
            </trkpt>
            <trkpt lon="10.6117083333333" lat="47.4997483333333">
                <ele>1998.3</ele>
                <time>2009-08-25T09:23:49.000Z</time>
                <name>Position 2607</name>
            </trkpt>
            <trkpt lon="10.6117083333333" lat="47.4997483333333">
                <ele>1998.3</ele>
                <time>2009-08-25T09:23:52.000Z</time>
                <name>Position 2608</name>
            </trkpt>
            <trkpt lon="10.6117083333333" lat="47.49975">
                <ele>1998.3</ele>
                <time>2009-08-25T09:23:55.000Z</time>
                <name>Position 2609</name>
            </trkpt>
            <trkpt lon="10.6117083333333" lat="47.49975">
                <ele>1998.4</ele>
                <time>2009-08-25T09:23:58.000Z</time>
                <name>Position 2610</name>
            </trkpt>
            <trkpt lon="10.6117083333333" lat="47.4997483333333">
                <ele>1998.5</ele>
                <time>2009-08-25T09:24:01.000Z</time>
                <name>Position 2611</name>
            </trkpt>
            <trkpt lon="10.6117083333333" lat="47.4997466666667">
                <ele>1998.6</ele>
                <time>2009-08-25T09:24:04.000Z</time>
                <name>Position 2612</name>
            </trkpt>
            <trkpt lon="10.61171" lat="47.4997466666667">
                <ele>1998.7</ele>
                <time>2009-08-25T09:24:07.000Z</time>
                <name>Position 2613</name>
            </trkpt>
            <trkpt lon="10.61171" lat="47.4997466666667">
                <ele>1998.7</ele>
                <time>2009-08-25T09:24:10.000Z</time>
                <name>Position 2614</name>
            </trkpt>
            <trkpt lon="10.61171" lat="47.4997466666667">
                <ele>1998.7</ele>
                <time>2009-08-25T09:24:13.000Z</time>
                <name>Position 2615</name>
            </trkpt>
            <trkpt lon="10.61171" lat="47.4997466666667">
                <ele>1998.7</ele>
                <time>2009-08-25T09:24:16.000Z</time>
                <name>Position 2616</name>
            </trkpt>
            <trkpt lon="10.61171" lat="47.4997466666667">
                <ele>1998.7</ele>
                <time>2009-08-25T09:24:19.000Z</time>
                <name>Position 2617</name>
            </trkpt>
            <trkpt lon="10.61171" lat="47.4997466666667">
                <ele>1998.7</ele>
                <time>2009-08-25T09:24:22.000Z</time>
                <name>Position 2618</name>
            </trkpt>
            <trkpt lon="10.6117116666667" lat="47.4997483333333">
                <ele>1998.6</ele>
                <time>2009-08-25T09:24:25.000Z</time>
                <name>Position 2619</name>
            </trkpt>
            <trkpt lon="10.6117116666667" lat="47.4997466666667">
                <ele>1998.6</ele>
                <time>2009-08-25T09:24:28.000Z</time>
                <name>Position 2620</name>
            </trkpt>
            <trkpt lon="10.6117116666667" lat="47.4997466666667">
                <ele>1998.6</ele>
                <time>2009-08-25T09:24:31.000Z</time>
                <name>Position 2621</name>
            </trkpt>
            <trkpt lon="10.6117133333333" lat="47.4997583333333">
                <ele>1998.7</ele>
                <time>2009-08-25T09:24:34.000Z</time>
                <name>Position 2622</name>
            </trkpt>
            <trkpt lon="10.6117116666667" lat="47.49976">
                <ele>1998.5</ele>
                <time>2009-08-25T09:24:37.000Z</time>
                <name>Position 2623</name>
            </trkpt>
            <trkpt lon="10.6117116666667" lat="47.49976">
                <ele>1998.5</ele>
                <time>2009-08-25T09:24:40.000Z</time>
                <name>Position 2624</name>
            </trkpt>
            <trkpt lon="10.6117116666667" lat="47.49976">
                <ele>1998.5</ele>
                <time>2009-08-25T09:24:43.000Z</time>
                <name>Position 2625</name>
            </trkpt>
            <trkpt lon="10.6117116666667" lat="47.49976">
                <ele>1998.5</ele>
                <time>2009-08-25T09:24:46.000Z</time>
                <name>Position 2626</name>
            </trkpt>
            <trkpt lon="10.6117116666667" lat="47.49976">
                <ele>1998.5</ele>
                <time>2009-08-25T09:24:49.000Z</time>
                <name>Position 2627</name>
            </trkpt>
            <trkpt lon="10.6117116666667" lat="47.49976">
                <ele>1998.5</ele>
                <time>2009-08-25T09:24:52.000Z</time>
                <name>Position 2628</name>
            </trkpt>
            <trkpt lon="10.6117116666667" lat="47.4997616666667">
                <ele>1998.5</ele>
                <time>2009-08-25T09:24:55.000Z</time>
                <name>Position 2629</name>
            </trkpt>
            <trkpt lon="10.6117116666667" lat="47.4997616666667">
                <ele>1998.5</ele>
                <time>2009-08-25T09:24:58.000Z</time>
                <name>Position 2630</name>
            </trkpt>
            <trkpt lon="10.61171" lat="47.4997616666667">
                <ele>1998.5</ele>
                <time>2009-08-25T09:25:01.000Z</time>
                <name>Position 2631</name>
            </trkpt>
            <trkpt lon="10.6117116666667" lat="47.4997633333333">
                <ele>1998.5</ele>
                <time>2009-08-25T09:25:04.000Z</time>
                <name>Position 2632</name>
            </trkpt>
            <trkpt lon="10.6117083333333" lat="47.4997633333333">
                <ele>1998.4</ele>
                <time>2009-08-25T09:25:07.000Z</time>
                <name>Position 2633</name>
            </trkpt>
            <trkpt lon="10.61171" lat="47.4997616666667">
                <ele>1998.4</ele>
                <time>2009-08-25T09:25:10.000Z</time>
                <name>Position 2634</name>
            </trkpt>
            <trkpt lon="10.6117083333333" lat="47.4997633333333">
                <ele>1998.4</ele>
                <time>2009-08-25T09:25:13.000Z</time>
                <name>Position 2635</name>
            </trkpt>
            <trkpt lon="10.6117083333333" lat="47.4997633333333">
                <ele>1998.3</ele>
                <time>2009-08-25T09:25:16.000Z</time>
                <name>Position 2636</name>
            </trkpt>
            <trkpt lon="10.6117083333333" lat="47.4997633333333">
                <ele>1998.3</ele>
                <time>2009-08-25T09:25:19.000Z</time>
                <name>Position 2637</name>
            </trkpt>
            <trkpt lon="10.6117083333333" lat="47.4997633333333">
                <ele>1998.3</ele>
                <time>2009-08-25T09:25:23.000Z</time>
                <name>Position 2638</name>
            </trkpt>
            <trkpt lon="10.6117083333333" lat="47.4997633333333">
                <ele>1998.3</ele>
                <time>2009-08-25T09:25:26.000Z</time>
                <name>Position 2639</name>
            </trkpt>
            <trkpt lon="10.6117083333333" lat="47.4997633333333">
                <ele>1998.3</ele>
                <time>2009-08-25T09:25:28.000Z</time>
                <name>Position 2640</name>
            </trkpt>
            <trkpt lon="10.6117083333333" lat="47.4997633333333">
                <ele>1998.4</ele>
                <time>2009-08-25T09:25:32.000Z</time>
                <name>Position 2641</name>
            </trkpt>
            <trkpt lon="10.61171" lat="47.499765">
                <ele>1998.6</ele>
                <time>2009-08-25T09:25:34.000Z</time>
                <name>Position 2642</name>
            </trkpt>
            <trkpt lon="10.61171" lat="47.499765">
                <ele>1998.5</ele>
                <time>2009-08-25T09:25:37.000Z</time>
                <name>Position 2643</name>
            </trkpt>
            <trkpt lon="10.61171" lat="47.499765">
                <ele>1998.5</ele>
                <time>2009-08-25T09:25:40.000Z</time>
                <name>Position 2644</name>
            </trkpt>
            <trkpt lon="10.61171" lat="47.499765">
                <ele>1998.5</ele>
                <time>2009-08-25T09:25:44.000Z</time>
                <name>Position 2645</name>
            </trkpt>
            <trkpt lon="10.61171" lat="47.499765">
                <ele>1998.5</ele>
                <time>2009-08-25T09:25:46.000Z</time>
                <name>Position 2646</name>
            </trkpt>
            <trkpt lon="10.61171" lat="47.499765">
                <ele>1998.5</ele>
                <time>2009-08-25T09:25:50.000Z</time>
                <name>Position 2647</name>
            </trkpt>
            <trkpt lon="10.61171" lat="47.499765">
                <ele>1998.5</ele>
                <time>2009-08-25T09:25:53.000Z</time>
                <name>Position 2648</name>
            </trkpt>
            <trkpt lon="10.61171" lat="47.499765">
                <ele>1998.5</ele>
                <time>2009-08-25T09:25:56.000Z</time>
                <name>Position 2649</name>
            </trkpt>
            <trkpt lon="10.61171" lat="47.499765">
                <ele>1998.6</ele>
                <time>2009-08-25T09:25:58.000Z</time>
                <name>Position 2650</name>
            </trkpt>
            <trkpt lon="10.6116883333333" lat="47.4997683333333">
                <ele>1999.1</ele>
                <time>2009-08-25T09:26:01.000Z</time>
                <name>Position 2651</name>
            </trkpt>
            <trkpt lon="10.6116416666667" lat="47.499745">
                <ele>1999.5</ele>
                <time>2009-08-25T09:26:05.000Z</time>
                <name>Position 2652</name>
            </trkpt>
            <trkpt lon="10.6116133333333" lat="47.49974">
                <ele>2000.4</ele>
                <time>2009-08-25T09:26:08.000Z</time>
                <name>Position 2653</name>
            </trkpt>
            <trkpt lon="10.6116" lat="47.4997433333333">
                <ele>2000.6</ele>
                <time>2009-08-25T09:26:10.000Z</time>
                <name>Position 2654</name>
            </trkpt>
            <trkpt lon="10.6116066666667" lat="47.4997533333333">
                <ele>2001.1</ele>
                <time>2009-08-25T09:26:13.000Z</time>
                <name>Position 2655</name>
            </trkpt>
            <trkpt lon="10.61158" lat="47.4997566666667">
                <ele>2002.2</ele>
                <time>2009-08-25T09:26:17.000Z</time>
                <name>Position 2656</name>
            </trkpt>
            <trkpt lon="10.6115516666667" lat="47.499755">
                <ele>2002.6</ele>
                <time>2009-08-25T09:26:20.000Z</time>
                <name>Position 2657</name>
            </trkpt>
            <trkpt lon="10.6115333333333" lat="47.4997516666667">
                <ele>2002.9</ele>
                <time>2009-08-25T09:26:22.000Z</time>
                <name>Position 2658</name>
            </trkpt>
            <trkpt lon="10.611515" lat="47.49975">
                <ele>2003.7</ele>
                <time>2009-08-25T09:26:25.000Z</time>
                <name>Position 2659</name>
            </trkpt>
            <trkpt lon="10.6114866666667" lat="47.4997483333333">
                <ele>2004.3</ele>
                <time>2009-08-25T09:26:28.000Z</time>
                <name>Position 2660</name>
            </trkpt>
            <trkpt lon="10.6114833333333" lat="47.4997316666667">
                <ele>2004.2</ele>
                <time>2009-08-25T09:26:31.000Z</time>
                <name>Position 2661</name>
            </trkpt>
            <trkpt lon="10.6114633333333" lat="47.4997383333333">
                <ele>2005.3</ele>
                <time>2009-08-25T09:26:35.000Z</time>
                <name>Position 2662</name>
            </trkpt>
            <trkpt lon="10.61147" lat="47.49976">
                <ele>2006.0</ele>
                <time>2009-08-25T09:26:38.000Z</time>
                <name>Position 2663</name>
            </trkpt>
            <trkpt lon="10.61146" lat="47.499765">
                <ele>2006.2</ele>
                <time>2009-08-25T09:26:40.000Z</time>
                <name>Position 2664</name>
            </trkpt>
            <trkpt lon="10.6114483333333" lat="47.49977">
                <ele>2007.5</ele>
                <time>2009-08-25T09:26:43.000Z</time>
                <name>Position 2665</name>
            </trkpt>
            <trkpt lon="10.6114483333333" lat="47.4997916666667">
                <ele>2008.5</ele>
                <time>2009-08-25T09:26:47.000Z</time>
                <name>Position 2666</name>
            </trkpt>
            <trkpt lon="10.6114616666667" lat="47.499815">
                <ele>2009.2</ele>
                <time>2009-08-25T09:26:50.000Z</time>
                <name>Position 2667</name>
            </trkpt>
            <trkpt lon="10.6114483333333" lat="47.4998233333333">
                <ele>2009.6</ele>
                <time>2009-08-25T09:26:52.000Z</time>
                <name>Position 2668</name>
            </trkpt>
            <trkpt lon="10.6114066666667" lat="47.4998116666667">
                <ele>2010.1</ele>
                <time>2009-08-25T09:26:56.000Z</time>
                <name>Position 2669</name>
            </trkpt>
            <trkpt lon="10.6113866666667" lat="47.4998033333333">
                <ele>2010.4</ele>
                <time>2009-08-25T09:26:58.000Z</time>
                <name>Position 2670</name>
            </trkpt>
            <trkpt lon="10.6113583333333" lat="47.4997966666667">
                <ele>2011.1</ele>
                <time>2009-08-25T09:27:01.000Z</time>
                <name>Position 2671</name>
            </trkpt>
            <trkpt lon="10.611335" lat="47.499775">
                <ele>2011.3</ele>
                <time>2009-08-25T09:27:04.000Z</time>
                <name>Position 2672</name>
            </trkpt>
            <trkpt lon="10.6113033333333" lat="47.4997583333333">
                <ele>2011.6</ele>
                <time>2009-08-25T09:27:07.000Z</time>
                <name>Position 2673</name>
            </trkpt>
            <trkpt lon="10.6112583333333" lat="47.4997483333333">
                <ele>2012.3</ele>
                <time>2009-08-25T09:27:11.000Z</time>
                <name>Position 2674</name>
            </trkpt>
            <trkpt lon="10.61124" lat="47.4997433333333">
                <ele>2012.8</ele>
                <time>2009-08-25T09:27:13.000Z</time>
                <name>Position 2675</name>
            </trkpt>
            <trkpt lon="10.611215" lat="47.4997366666667">
                <ele>2013.6</ele>
                <time>2009-08-25T09:27:17.000Z</time>
                <name>Position 2676</name>
            </trkpt>
            <trkpt lon="10.6112033333333" lat="47.4997416666667">
                <ele>2013.9</ele>
                <time>2009-08-25T09:27:19.000Z</time>
                <name>Position 2677</name>
            </trkpt>
            <trkpt lon="10.6111733333333" lat="47.49974">
                <ele>2015.8</ele>
                <time>2009-08-25T09:27:23.000Z</time>
                <name>Position 2678</name>
            </trkpt>
            <trkpt lon="10.61114" lat="47.4997266666667">
                <ele>2015.9</ele>
                <time>2009-08-25T09:27:26.000Z</time>
                <name>Position 2679</name>
            </trkpt>
            <trkpt lon="10.6111116666667" lat="47.499715">
                <ele>2016.5</ele>
                <time>2009-08-25T09:27:29.000Z</time>
                <name>Position 2680</name>
            </trkpt>
            <trkpt lon="10.6110933333333" lat="47.49971">
                <ele>2017.0</ele>
                <time>2009-08-25T09:27:32.000Z</time>
                <name>Position 2681</name>
            </trkpt>
            <trkpt lon="10.6110783333333" lat="47.4997166666667">
                <ele>2017.6</ele>
                <time>2009-08-25T09:27:35.000Z</time>
                <name>Position 2682</name>
            </trkpt>
            <trkpt lon="10.6110533333333" lat="47.4997016666667">
                <ele>2018.0</ele>
                <time>2009-08-25T09:27:38.000Z</time>
                <name>Position 2683</name>
            </trkpt>
            <trkpt lon="10.6110316666667" lat="47.4996916666667">
                <ele>2018.5</ele>
                <time>2009-08-25T09:27:41.000Z</time>
                <name>Position 2684</name>
            </trkpt>
            <trkpt lon="10.61102" lat="47.4996866666667">
                <ele>2019.0</ele>
                <time>2009-08-25T09:27:43.000Z</time>
                <name>Position 2685</name>
            </trkpt>
            <trkpt lon="10.6109983333333" lat="47.4996883333333">
                <ele>2019.4</ele>
                <time>2009-08-25T09:27:47.000Z</time>
                <name>Position 2686</name>
            </trkpt>
            <trkpt lon="10.6109933333333" lat="47.499695">
                <ele>2019.8</ele>
                <time>2009-08-25T09:27:50.000Z</time>
                <name>Position 2687</name>
            </trkpt>
            <trkpt lon="10.61099" lat="47.49971">
                <ele>2019.8</ele>
                <time>2009-08-25T09:27:53.000Z</time>
                <name>Position 2688</name>
            </trkpt>
            <trkpt lon="10.6109933333333" lat="47.4997166666667">
                <ele>2020.2</ele>
                <time>2009-08-25T09:27:55.000Z</time>
                <name>Position 2689</name>
            </trkpt>
            <trkpt lon="10.611005" lat="47.4997266666667">
                <ele>2020.2</ele>
                <time>2009-08-25T09:27:58.000Z</time>
                <name>Position 2690</name>
            </trkpt>
            <trkpt lon="10.6110116666667" lat="47.4997416666667">
                <ele>2020.1</ele>
                <time>2009-08-25T09:28:02.000Z</time>
                <name>Position 2691</name>
            </trkpt>
            <trkpt lon="10.6109983333333" lat="47.4997433333333">
                <ele>2021.1</ele>
                <time>2009-08-25T09:28:05.000Z</time>
                <name>Position 2692</name>
            </trkpt>
            <trkpt lon="10.610995" lat="47.49975">
                <ele>2021.9</ele>
                <time>2009-08-25T09:28:08.000Z</time>
                <name>Position 2693</name>
            </trkpt>
            <trkpt lon="10.6109833333333" lat="47.4997633333333">
                <ele>2022.5</ele>
                <time>2009-08-25T09:28:11.000Z</time>
                <name>Position 2694</name>
            </trkpt>
            <trkpt lon="10.6109666666667" lat="47.4997616666667">
                <ele>2022.9</ele>
                <time>2009-08-25T09:28:13.000Z</time>
                <name>Position 2695</name>
            </trkpt>
            <trkpt lon="10.6109383333333" lat="47.4997516666667">
                <ele>2023.3</ele>
                <time>2009-08-25T09:28:17.000Z</time>
                <name>Position 2696</name>
            </trkpt>
            <trkpt lon="10.6109333333333" lat="47.499745">
                <ele>2024.0</ele>
                <time>2009-08-25T09:28:19.000Z</time>
                <name>Position 2697</name>
            </trkpt>
            <trkpt lon="10.6109066666667" lat="47.4997433333333">
                <ele>2024.7</ele>
                <time>2009-08-25T09:28:23.000Z</time>
                <name>Position 2698</name>
            </trkpt>
            <trkpt lon="10.6108883333333" lat="47.4997516666667">
                <ele>2025.4</ele>
                <time>2009-08-25T09:28:26.000Z</time>
                <name>Position 2699</name>
            </trkpt>
            <trkpt lon="10.6108883333333" lat="47.499755">
                <ele>2024.9</ele>
                <time>2009-08-25T09:28:29.000Z</time>
                <name>Position 2700</name>
            </trkpt>
            <trkpt lon="10.61089" lat="47.4997633333333">
                <ele>2024.1</ele>
                <time>2009-08-25T09:28:32.000Z</time>
                <name>Position 2701</name>
            </trkpt>
            <trkpt lon="10.6108816666667" lat="47.4997783333333">
                <ele>2025.2</ele>
                <time>2009-08-25T09:28:35.000Z</time>
                <name>Position 2702</name>
            </trkpt>
            <trkpt lon="10.61089" lat="47.4997916666667">
                <ele>2025.7</ele>
                <time>2009-08-25T09:28:38.000Z</time>
                <name>Position 2703</name>
            </trkpt>
            <trkpt lon="10.610885" lat="47.4998083333333">
                <ele>2026.5</ele>
                <time>2009-08-25T09:28:41.000Z</time>
                <name>Position 2704</name>
            </trkpt>
            <trkpt lon="10.610895" lat="47.4998166666667">
                <ele>2026.9</ele>
                <time>2009-08-25T09:28:44.000Z</time>
                <name>Position 2705</name>
            </trkpt>
            <trkpt lon="10.610905" lat="47.49983">
                <ele>2027.6</ele>
                <time>2009-08-25T09:28:47.000Z</time>
                <name>Position 2706</name>
            </trkpt>
            <trkpt lon="10.6108883333333" lat="47.4998333333333">
                <ele>2026.8</ele>
                <time>2009-08-25T09:28:50.000Z</time>
                <name>Position 2707</name>
            </trkpt>
            <trkpt lon="10.61089" lat="47.49984">
                <ele>2027.5</ele>
                <time>2009-08-25T09:28:52.000Z</time>
                <name>Position 2708</name>
            </trkpt>
            <trkpt lon="10.6108783333333" lat="47.4998533333333">
                <ele>2027.9</ele>
                <time>2009-08-25T09:28:56.000Z</time>
                <name>Position 2709</name>
            </trkpt>
            <trkpt lon="10.6108533333333" lat="47.4998533333333">
                <ele>2027.8</ele>
                <time>2009-08-25T09:28:59.000Z</time>
                <name>Position 2710</name>
            </trkpt>
            <trkpt lon="10.61084" lat="47.4998583333333">
                <ele>2028.5</ele>
                <time>2009-08-25T09:29:02.000Z</time>
                <name>Position 2711</name>
            </trkpt>
            <trkpt lon="10.6108183333333" lat="47.499875">
                <ele>2029.1</ele>
                <time>2009-08-25T09:29:05.000Z</time>
                <name>Position 2712</name>
            </trkpt>
            <trkpt lon="10.6108166666667" lat="47.49988">
                <ele>2029.8</ele>
                <time>2009-08-25T09:29:08.000Z</time>
                <name>Position 2713</name>
            </trkpt>
            <trkpt lon="10.610805" lat="47.4998916666667">
                <ele>2029.0</ele>
                <time>2009-08-25T09:29:11.000Z</time>
                <name>Position 2714</name>
            </trkpt>
            <trkpt lon="10.6108183333333" lat="47.4999116666667">
                <ele>2029.2</ele>
                <time>2009-08-25T09:29:14.000Z</time>
                <name>Position 2715</name>
            </trkpt>
            <trkpt lon="10.61084" lat="47.4999366666667">
                <ele>2029.9</ele>
                <time>2009-08-25T09:29:17.000Z</time>
                <name>Position 2716</name>
            </trkpt>
            <trkpt lon="10.6108366666667" lat="47.49995">
                <ele>2030.5</ele>
                <time>2009-08-25T09:29:19.000Z</time>
                <name>Position 2717</name>
            </trkpt>
            <trkpt lon="10.610825" lat="47.4999633333333">
                <ele>2031.3</ele>
                <time>2009-08-25T09:29:23.000Z</time>
                <name>Position 2718</name>
            </trkpt>
            <trkpt lon="10.61081" lat="47.499965">
                <ele>2030.8</ele>
                <time>2009-08-25T09:29:26.000Z</time>
                <name>Position 2719</name>
            </trkpt>
            <trkpt lon="10.6108166666667" lat="47.4999783333333">
                <ele>2031.2</ele>
                <time>2009-08-25T09:29:29.000Z</time>
                <name>Position 2720</name>
            </trkpt>
            <trkpt lon="10.6108033333333" lat="47.499985">
                <ele>2031.2</ele>
                <time>2009-08-25T09:29:32.000Z</time>
                <name>Position 2721</name>
            </trkpt>
            <trkpt lon="10.6107966666667" lat="47.5000033333333">
                <ele>2031.3</ele>
                <time>2009-08-25T09:29:35.000Z</time>
                <name>Position 2722</name>
            </trkpt>
            <trkpt lon="10.6107916666667" lat="47.5000116666667">
                <ele>2031.1</ele>
                <time>2009-08-25T09:29:37.000Z</time>
                <name>Position 2723</name>
            </trkpt>
            <trkpt lon="10.6107916666667" lat="47.5000116666667">
                <ele>2031.2</ele>
                <time>2009-08-25T09:29:41.000Z</time>
                <name>Position 2724</name>
            </trkpt>
            <trkpt lon="10.6107883333333" lat="47.50001">
                <ele>2031.2</ele>
                <time>2009-08-25T09:29:43.000Z</time>
                <name>Position 2725</name>
            </trkpt>
            <trkpt lon="10.6107933333333" lat="47.50001">
                <ele>2031.1</ele>
                <time>2009-08-25T09:29:46.000Z</time>
                <name>Position 2726</name>
            </trkpt>
            <trkpt lon="10.6107966666667" lat="47.5000116666667">
                <ele>2031.1</ele>
                <time>2009-08-25T09:29:50.000Z</time>
                <name>Position 2727</name>
            </trkpt>
            <trkpt lon="10.6108083333333" lat="47.5000316666667">
                <ele>2031.2</ele>
                <time>2009-08-25T09:29:53.000Z</time>
                <name>Position 2728</name>
            </trkpt>
            <trkpt lon="10.61083" lat="47.5000433333333">
                <ele>2031.5</ele>
                <time>2009-08-25T09:29:56.000Z</time>
                <name>Position 2729</name>
            </trkpt>
            <trkpt lon="10.6108383333333" lat="47.5000566666667">
                <ele>2032.1</ele>
                <time>2009-08-25T09:29:59.000Z</time>
                <name>Position 2730</name>
            </trkpt>
            <trkpt lon="10.6108433333333" lat="47.50007">
                <ele>2032.7</ele>
                <time>2009-08-25T09:30:02.000Z</time>
                <name>Position 2731</name>
            </trkpt>
            <trkpt lon="10.6108366666667" lat="47.5000783333333">
                <ele>2033.4</ele>
                <time>2009-08-25T09:30:05.000Z</time>
                <name>Position 2732</name>
            </trkpt>
            <trkpt lon="10.6108466666667" lat="47.5000916666667">
                <ele>2033.5</ele>
                <time>2009-08-25T09:30:08.000Z</time>
                <name>Position 2733</name>
            </trkpt>
            <trkpt lon="10.6108516666667" lat="47.500105">
                <ele>2034.2</ele>
                <time>2009-08-25T09:30:11.000Z</time>
                <name>Position 2734</name>
            </trkpt>
            <trkpt lon="10.6108616666667" lat="47.5001266666667">
                <ele>2034.7</ele>
                <time>2009-08-25T09:30:14.000Z</time>
                <name>Position 2735</name>
            </trkpt>
            <trkpt lon="10.6108616666667" lat="47.500145">
                <ele>2034.8</ele>
                <time>2009-08-25T09:30:17.000Z</time>
                <name>Position 2736</name>
            </trkpt>
            <trkpt lon="10.6108583333333" lat="47.5001633333333">
                <ele>2035.0</ele>
                <time>2009-08-25T09:30:20.000Z</time>
                <name>Position 2737</name>
            </trkpt>
            <trkpt lon="10.6108483333333" lat="47.5001733333333">
                <ele>2034.9</ele>
                <time>2009-08-25T09:30:23.000Z</time>
                <name>Position 2738</name>
            </trkpt>
            <trkpt lon="10.61084" lat="47.5001866666667">
                <ele>2035.0</ele>
                <time>2009-08-25T09:30:26.000Z</time>
                <name>Position 2739</name>
            </trkpt>
            <trkpt lon="10.6108416666667" lat="47.500205">
                <ele>2035.5</ele>
                <time>2009-08-25T09:30:29.000Z</time>
                <name>Position 2740</name>
            </trkpt>
            <trkpt lon="10.6108366666667" lat="47.50022">
                <ele>2035.8</ele>
                <time>2009-08-25T09:30:32.000Z</time>
                <name>Position 2741</name>
            </trkpt>
            <trkpt lon="10.61083" lat="47.50024">
                <ele>2035.6</ele>
                <time>2009-08-25T09:30:35.000Z</time>
                <name>Position 2742</name>
            </trkpt>
            <trkpt lon="10.6108233333333" lat="47.5002483333333">
                <ele>2035.6</ele>
                <time>2009-08-25T09:30:38.000Z</time>
                <name>Position 2743</name>
            </trkpt>
            <trkpt lon="10.6108166666667" lat="47.5002583333333">
                <ele>2035.9</ele>
                <time>2009-08-25T09:30:41.000Z</time>
                <name>Position 2744</name>
            </trkpt>
            <trkpt lon="10.6108266666667" lat="47.50027">
                <ele>2036.1</ele>
                <time>2009-08-25T09:30:44.000Z</time>
                <name>Position 2745</name>
            </trkpt>
            <trkpt lon="10.6108416666667" lat="47.5002766666667">
                <ele>2035.9</ele>
                <time>2009-08-25T09:30:46.000Z</time>
                <name>Position 2746</name>
            </trkpt>
            <trkpt lon="10.61086" lat="47.5002933333333">
                <ele>2036.8</ele>
                <time>2009-08-25T09:30:50.000Z</time>
                <name>Position 2747</name>
            </trkpt>
            <trkpt lon="10.6108533333333" lat="47.500295">
                <ele>2036.7</ele>
                <time>2009-08-25T09:30:52.000Z</time>
                <name>Position 2748</name>
            </trkpt>
            <trkpt lon="10.6108533333333" lat="47.500295">
                <ele>2036.7</ele>
                <time>2009-08-25T09:30:55.000Z</time>
                <name>Position 2749</name>
            </trkpt>
            <trkpt lon="10.6108516666667" lat="47.500295">
                <ele>2036.8</ele>
                <time>2009-08-25T09:30:59.000Z</time>
                <name>Position 2750</name>
            </trkpt>
            <trkpt lon="10.6108516666667" lat="47.5002933333333">
                <ele>2036.9</ele>
                <time>2009-08-25T09:31:02.000Z</time>
                <name>Position 2751</name>
            </trkpt>
            <trkpt lon="10.6108516666667" lat="47.5002933333333">
                <ele>2036.8</ele>
                <time>2009-08-25T09:31:04.000Z</time>
                <name>Position 2752</name>
            </trkpt>
            <trkpt lon="10.6108516666667" lat="47.5002933333333">
                <ele>2036.8</ele>
                <time>2009-08-25T09:31:07.000Z</time>
                <name>Position 2753</name>
            </trkpt>
            <trkpt lon="10.610845" lat="47.5002966666667">
                <ele>2036.8</ele>
                <time>2009-08-25T09:31:11.000Z</time>
                <name>Position 2754</name>
            </trkpt>
            <trkpt lon="10.610845" lat="47.5002933333333">
                <ele>2036.7</ele>
                <time>2009-08-25T09:31:13.000Z</time>
                <name>Position 2755</name>
            </trkpt>
            <trkpt lon="10.6108433333333" lat="47.5002916666667">
                <ele>2036.7</ele>
                <time>2009-08-25T09:31:16.000Z</time>
                <name>Position 2756</name>
            </trkpt>
            <trkpt lon="10.6108433333333" lat="47.5002916666667">
                <ele>2036.7</ele>
                <time>2009-08-25T09:31:20.000Z</time>
                <name>Position 2757</name>
            </trkpt>
            <trkpt lon="10.6108433333333" lat="47.5002916666667">
                <ele>2036.7</ele>
                <time>2009-08-25T09:31:23.000Z</time>
                <name>Position 2758</name>
            </trkpt>
            <trkpt lon="10.6108433333333" lat="47.5002916666667">
                <ele>2036.7</ele>
                <time>2009-08-25T09:31:26.000Z</time>
                <name>Position 2759</name>
            </trkpt>
            <trkpt lon="10.6108433333333" lat="47.5002916666667">
                <ele>2036.7</ele>
                <time>2009-08-25T09:31:28.000Z</time>
                <name>Position 2760</name>
            </trkpt>
            <trkpt lon="10.6108433333333" lat="47.5002916666667">
                <ele>2036.7</ele>
                <time>2009-08-25T09:31:31.000Z</time>
                <name>Position 2761</name>
            </trkpt>
            <trkpt lon="10.6108433333333" lat="47.5002916666667">
                <ele>2036.7</ele>
                <time>2009-08-25T09:31:34.000Z</time>
                <name>Position 2762</name>
            </trkpt>
            <trkpt lon="10.6108433333333" lat="47.5002916666667">
                <ele>2036.7</ele>
                <time>2009-08-25T09:31:37.000Z</time>
                <name>Position 2763</name>
            </trkpt>
            <trkpt lon="10.6108433333333" lat="47.5002916666667">
                <ele>2036.7</ele>
                <time>2009-08-25T09:31:41.000Z</time>
                <name>Position 2764</name>
            </trkpt>
            <trkpt lon="10.6108433333333" lat="47.5002916666667">
                <ele>2036.7</ele>
                <time>2009-08-25T09:31:44.000Z</time>
                <name>Position 2765</name>
            </trkpt>
            <trkpt lon="10.6108433333333" lat="47.5002916666667">
                <ele>2036.7</ele>
                <time>2009-08-25T09:31:47.000Z</time>
                <name>Position 2766</name>
            </trkpt>
            <trkpt lon="10.6108416666667" lat="47.50029">
                <ele>2036.7</ele>
                <time>2009-08-25T09:31:50.000Z</time>
                <name>Position 2767</name>
            </trkpt>
            <trkpt lon="10.6108416666667" lat="47.50029">
                <ele>2036.7</ele>
                <time>2009-08-25T09:31:52.000Z</time>
                <name>Position 2768</name>
            </trkpt>
            <trkpt lon="10.61083" lat="47.5003">
                <ele>2036.3</ele>
                <time>2009-08-25T09:31:56.000Z</time>
                <name>Position 2769</name>
            </trkpt>
            <trkpt lon="10.61082" lat="47.5003166666667">
                <ele>2035.8</ele>
                <time>2009-08-25T09:31:59.000Z</time>
                <name>Position 2770</name>
            </trkpt>
            <trkpt lon="10.61082" lat="47.5003266666667">
                <ele>2035.6</ele>
                <time>2009-08-25T09:32:02.000Z</time>
                <name>Position 2771</name>
            </trkpt>
            <trkpt lon="10.610815" lat="47.5003283333333">
                <ele>2035.5</ele>
                <time>2009-08-25T09:32:04.000Z</time>
                <name>Position 2772</name>
            </trkpt>
            <trkpt lon="10.610815" lat="47.500325">
                <ele>2035.3</ele>
                <time>2009-08-25T09:32:08.000Z</time>
                <name>Position 2773</name>
            </trkpt>
            <trkpt lon="10.6108133333333" lat="47.5003216666667">
                <ele>2035.3</ele>
                <time>2009-08-25T09:32:11.000Z</time>
                <name>Position 2774</name>
            </trkpt>
            <trkpt lon="10.6108133333333" lat="47.5003216666667">
                <ele>2035.3</ele>
                <time>2009-08-25T09:32:13.000Z</time>
                <name>Position 2775</name>
            </trkpt>
            <trkpt lon="10.610815" lat="47.5003216666667">
                <ele>2035.2</ele>
                <time>2009-08-25T09:32:17.000Z</time>
                <name>Position 2776</name>
            </trkpt>
            <trkpt lon="10.6108166666667" lat="47.50032">
                <ele>2035.3</ele>
                <time>2009-08-25T09:32:20.000Z</time>
                <name>Position 2777</name>
            </trkpt>
            <trkpt lon="10.610815" lat="47.50032">
                <ele>2035.3</ele>
                <time>2009-08-25T09:32:22.000Z</time>
                <name>Position 2778</name>
            </trkpt>
            <trkpt lon="10.610815" lat="47.50032">
                <ele>2035.3</ele>
                <time>2009-08-25T09:32:26.000Z</time>
                <name>Position 2779</name>
            </trkpt>
            <trkpt lon="10.610815" lat="47.50032">
                <ele>2035.3</ele>
                <time>2009-08-25T09:32:29.000Z</time>
                <name>Position 2780</name>
            </trkpt>
            <trkpt lon="10.610815" lat="47.50032">
                <ele>2035.3</ele>
                <time>2009-08-25T09:32:31.000Z</time>
                <name>Position 2781</name>
            </trkpt>
            <trkpt lon="10.610815" lat="47.50032">
                <ele>2035.3</ele>
                <time>2009-08-25T09:32:35.000Z</time>
                <name>Position 2782</name>
            </trkpt>
            <trkpt lon="10.610815" lat="47.50032">
                <ele>2035.3</ele>
                <time>2009-08-25T09:32:38.000Z</time>
                <name>Position 2783</name>
            </trkpt>
            <trkpt lon="10.610815" lat="47.50032">
                <ele>2035.3</ele>
                <time>2009-08-25T09:32:41.000Z</time>
                <name>Position 2784</name>
            </trkpt>
            <trkpt lon="10.610815" lat="47.50032">
                <ele>2035.3</ele>
                <time>2009-08-25T09:32:44.000Z</time>
                <name>Position 2785</name>
            </trkpt>
            <trkpt lon="10.610805" lat="47.500325">
                <ele>2035.3</ele>
                <time>2009-08-25T09:32:47.000Z</time>
                <name>Position 2786</name>
            </trkpt>
            <trkpt lon="10.6108066666667" lat="47.5003283333333">
                <ele>2035.4</ele>
                <time>2009-08-25T09:32:50.000Z</time>
                <name>Position 2787</name>
            </trkpt>
            <trkpt lon="10.6108066666667" lat="47.5003283333333">
                <ele>2035.4</ele>
                <time>2009-08-25T09:32:53.000Z</time>
                <name>Position 2788</name>
            </trkpt>
            <trkpt lon="10.610805" lat="47.5003266666667">
                <ele>2035.4</ele>
                <time>2009-08-25T09:32:56.000Z</time>
                <name>Position 2789</name>
            </trkpt>
            <trkpt lon="10.610805" lat="47.5003266666667">
                <ele>2035.4</ele>
                <time>2009-08-25T09:32:59.000Z</time>
                <name>Position 2790</name>
            </trkpt>
            <trkpt lon="10.610805" lat="47.5003266666667">
                <ele>2035.3</ele>
                <time>2009-08-25T09:33:02.000Z</time>
                <name>Position 2791</name>
            </trkpt>
            <trkpt lon="10.610805" lat="47.5003266666667">
                <ele>2035.3</ele>
                <time>2009-08-25T09:33:05.000Z</time>
                <name>Position 2792</name>
            </trkpt>
            <trkpt lon="10.610805" lat="47.5003266666667">
                <ele>2035.3</ele>
                <time>2009-08-25T09:33:08.000Z</time>
                <name>Position 2793</name>
            </trkpt>
            <trkpt lon="10.610805" lat="47.5003266666667">
                <ele>2035.3</ele>
                <time>2009-08-25T09:33:11.000Z</time>
                <name>Position 2794</name>
            </trkpt>
            <trkpt lon="10.610805" lat="47.5003266666667">
                <ele>2035.3</ele>
                <time>2009-08-25T09:33:14.000Z</time>
                <name>Position 2795</name>
            </trkpt>
            <trkpt lon="10.610805" lat="47.5003266666667">
                <ele>2035.3</ele>
                <time>2009-08-25T09:33:17.000Z</time>
                <name>Position 2796</name>
            </trkpt>
            <trkpt lon="10.610805" lat="47.5003266666667">
                <ele>2035.3</ele>
                <time>2009-08-25T09:33:20.000Z</time>
                <name>Position 2797</name>
            </trkpt>
            <trkpt lon="10.610805" lat="47.5003266666667">
                <ele>2035.3</ele>
                <time>2009-08-25T09:33:23.000Z</time>
                <name>Position 2798</name>
            </trkpt>
            <trkpt lon="10.6108033333333" lat="47.5003266666667">
                <ele>2035.3</ele>
                <time>2009-08-25T09:33:26.000Z</time>
                <name>Position 2799</name>
            </trkpt>
            <trkpt lon="10.6108033333333" lat="47.500325">
                <ele>2035.3</ele>
                <time>2009-08-25T09:33:29.000Z</time>
                <name>Position 2800</name>
            </trkpt>
            <trkpt lon="10.6108016666667" lat="47.5003266666667">
                <ele>2035.3</ele>
                <time>2009-08-25T09:33:32.000Z</time>
                <name>Position 2801</name>
            </trkpt>
            <trkpt lon="10.6108016666667" lat="47.5003266666667">
                <ele>2035.2</ele>
                <time>2009-08-25T09:33:35.000Z</time>
                <name>Position 2802</name>
            </trkpt>
            <trkpt lon="10.6108033333333" lat="47.5003216666667">
                <ele>2035.3</ele>
                <time>2009-08-25T09:33:38.000Z</time>
                <name>Position 2803</name>
            </trkpt>
            <trkpt lon="10.61081" lat="47.500315">
                <ele>2035.5</ele>
                <time>2009-08-25T09:33:41.000Z</time>
                <name>Position 2804</name>
            </trkpt>
            <trkpt lon="10.6108116666667" lat="47.5003183333333">
                <ele>2035.3</ele>
                <time>2009-08-25T09:33:44.000Z</time>
                <name>Position 2805</name>
            </trkpt>
            <trkpt lon="10.6107966666667" lat="47.500315">
                <ele>2035.3</ele>
                <time>2009-08-25T09:33:47.000Z</time>
                <name>Position 2806</name>
            </trkpt>
            <trkpt lon="10.6107883333333" lat="47.5003166666667">
                <ele>2036.2</ele>
                <time>2009-08-25T09:33:50.000Z</time>
                <name>Position 2807</name>
            </trkpt>
            <trkpt lon="10.61078" lat="47.5003133333333">
                <ele>2036.7</ele>
                <time>2009-08-25T09:33:53.000Z</time>
                <name>Position 2808</name>
            </trkpt>
            <trkpt lon="10.6107783333333" lat="47.50031">
                <ele>2037.1</ele>
                <time>2009-08-25T09:33:56.000Z</time>
                <name>Position 2809</name>
            </trkpt>
            <trkpt lon="10.6107733333333" lat="47.5003083333333">
                <ele>2037.5</ele>
                <time>2009-08-25T09:33:59.000Z</time>
                <name>Position 2810</name>
            </trkpt>
            <trkpt lon="10.6107716666667" lat="47.5003083333333">
                <ele>2037.7</ele>
                <time>2009-08-25T09:34:02.000Z</time>
                <name>Position 2811</name>
            </trkpt>
            <trkpt lon="10.6107716666667" lat="47.5003066666667">
                <ele>2037.8</ele>
                <time>2009-08-25T09:34:05.000Z</time>
                <name>Position 2812</name>
            </trkpt>
            <trkpt lon="10.6107733333333" lat="47.5003066666667">
                <ele>2037.9</ele>
                <time>2009-08-25T09:34:07.000Z</time>
                <name>Position 2813</name>
            </trkpt>
            <trkpt lon="10.6107683333333" lat="47.5003033333333">
                <ele>2038.1</ele>
                <time>2009-08-25T09:34:11.000Z</time>
                <name>Position 2814</name>
            </trkpt>
            <trkpt lon="10.6107683333333" lat="47.5003033333333">
                <ele>2038.2</ele>
                <time>2009-08-25T09:34:14.000Z</time>
                <name>Position 2815</name>
            </trkpt>
            <trkpt lon="10.6107683333333" lat="47.5003016666667">
                <ele>2038.3</ele>
                <time>2009-08-25T09:34:17.000Z</time>
                <name>Position 2816</name>
            </trkpt>
            <trkpt lon="10.6107683333333" lat="47.5003016666667">
                <ele>2038.3</ele>
                <time>2009-08-25T09:34:20.000Z</time>
                <name>Position 2817</name>
            </trkpt>
            <trkpt lon="10.6107683333333" lat="47.5003016666667">
                <ele>2038.3</ele>
                <time>2009-08-25T09:34:23.000Z</time>
                <name>Position 2818</name>
            </trkpt>
            <trkpt lon="10.6107683333333" lat="47.5003016666667">
                <ele>2038.3</ele>
                <time>2009-08-25T09:34:25.000Z</time>
                <name>Position 2819</name>
            </trkpt>
            <trkpt lon="10.6107683333333" lat="47.5003016666667">
                <ele>2038.3</ele>
                <time>2009-08-25T09:34:29.000Z</time>
                <name>Position 2820</name>
            </trkpt>
            <trkpt lon="10.61077" lat="47.5003016666667">
                <ele>2038.3</ele>
                <time>2009-08-25T09:34:31.000Z</time>
                <name>Position 2821</name>
            </trkpt>
            <trkpt lon="10.6107683333333" lat="47.5003016666667">
                <ele>2038.3</ele>
                <time>2009-08-25T09:34:35.000Z</time>
                <name>Position 2822</name>
            </trkpt>
            <trkpt lon="10.61077" lat="47.5003016666667">
                <ele>2038.3</ele>
                <time>2009-08-25T09:34:38.000Z</time>
                <name>Position 2823</name>
            </trkpt>
            <trkpt lon="10.61077" lat="47.5003016666667">
                <ele>2038.3</ele>
                <time>2009-08-25T09:34:41.000Z</time>
                <name>Position 2824</name>
            </trkpt>
            <trkpt lon="10.61077" lat="47.5003016666667">
                <ele>2038.3</ele>
                <time>2009-08-25T09:34:43.000Z</time>
                <name>Position 2825</name>
            </trkpt>
            <trkpt lon="10.61077" lat="47.5003016666667">
                <ele>2038.3</ele>
                <time>2009-08-25T09:34:47.000Z</time>
                <name>Position 2826</name>
            </trkpt>
            <trkpt lon="10.61077" lat="47.5003016666667">
                <ele>2038.3</ele>
                <time>2009-08-25T09:34:50.000Z</time>
                <name>Position 2827</name>
            </trkpt>
            <trkpt lon="10.6107666666667" lat="47.5003066666667">
                <ele>2037.9</ele>
                <time>2009-08-25T09:34:53.000Z</time>
                <name>Position 2828</name>
            </trkpt>
            <trkpt lon="10.610755" lat="47.50031">
                <ele>2038.5</ele>
                <time>2009-08-25T09:34:56.000Z</time>
                <name>Position 2829</name>
            </trkpt>
            <trkpt lon="10.610755" lat="47.50031">
                <ele>2038.5</ele>
                <time>2009-08-25T09:34:59.000Z</time>
                <name>Position 2830</name>
            </trkpt>
            <trkpt lon="10.610755" lat="47.50031">
                <ele>2038.5</ele>
                <time>2009-08-25T09:35:02.000Z</time>
                <name>Position 2831</name>
            </trkpt>
            <trkpt lon="10.610755" lat="47.5003083333333">
                <ele>2038.6</ele>
                <time>2009-08-25T09:35:05.000Z</time>
                <name>Position 2832</name>
            </trkpt>
            <trkpt lon="10.610755" lat="47.5003083333333">
                <ele>2038.6</ele>
                <time>2009-08-25T09:35:08.000Z</time>
                <name>Position 2833</name>
            </trkpt>
            <trkpt lon="10.6107566666667" lat="47.5003083333333">
                <ele>2038.6</ele>
                <time>2009-08-25T09:35:11.000Z</time>
                <name>Position 2834</name>
            </trkpt>
            <trkpt lon="10.6107566666667" lat="47.5003083333333">
                <ele>2038.5</ele>
                <time>2009-08-25T09:35:14.000Z</time>
                <name>Position 2835</name>
            </trkpt>
            <trkpt lon="10.6107583333333" lat="47.50031">
                <ele>2038.5</ele>
                <time>2009-08-25T09:35:17.000Z</time>
                <name>Position 2836</name>
            </trkpt>
            <trkpt lon="10.610755" lat="47.5002983333333">
                <ele>2038.5</ele>
                <time>2009-08-25T09:35:20.000Z</time>
                <name>Position 2837</name>
            </trkpt>
            <trkpt lon="10.6107316666667" lat="47.5002816666667">
                <ele>2038.7</ele>
                <time>2009-08-25T09:35:23.000Z</time>
                <name>Position 2838</name>
            </trkpt>
            <trkpt lon="10.610705" lat="47.500265">
                <ele>2039.2</ele>
                <time>2009-08-25T09:35:26.000Z</time>
                <name>Position 2839</name>
            </trkpt>
            <trkpt lon="10.6106716666667" lat="47.5002633333333">
                <ele>2039.8</ele>
                <time>2009-08-25T09:35:29.000Z</time>
                <name>Position 2840</name>
            </trkpt>
            <trkpt lon="10.6106566666667" lat="47.500245">
                <ele>2040.3</ele>
                <time>2009-08-25T09:35:32.000Z</time>
                <name>Position 2841</name>
            </trkpt>
            <trkpt lon="10.6106416666667" lat="47.5002466666667">
                <ele>2040.6</ele>
                <time>2009-08-25T09:35:35.000Z</time>
                <name>Position 2842</name>
            </trkpt>
            <trkpt lon="10.6106266666667" lat="47.5002633333333">
                <ele>2040.6</ele>
                <time>2009-08-25T09:35:38.000Z</time>
                <name>Position 2843</name>
            </trkpt>
            <trkpt lon="10.61061" lat="47.5002716666667">
                <ele>2040.7</ele>
                <time>2009-08-25T09:35:41.000Z</time>
                <name>Position 2844</name>
            </trkpt>
            <trkpt lon="10.6106016666667" lat="47.500275">
                <ele>2040.7</ele>
                <time>2009-08-25T09:35:43.000Z</time>
                <name>Position 2845</name>
            </trkpt>
            <trkpt lon="10.6105883333333" lat="47.5002716666667">
                <ele>2040.5</ele>
                <time>2009-08-25T09:35:47.000Z</time>
                <name>Position 2846</name>
            </trkpt>
            <trkpt lon="10.6105916666667" lat="47.500285">
                <ele>2040.5</ele>
                <time>2009-08-25T09:35:50.000Z</time>
                <name>Position 2847</name>
            </trkpt>
            <trkpt lon="10.6106033333333" lat="47.5002966666667">
                <ele>2040.7</ele>
                <time>2009-08-25T09:35:53.000Z</time>
                <name>Position 2848</name>
            </trkpt>
            <trkpt lon="10.6106133333333" lat="47.50034">
                <ele>2041.3</ele>
                <time>2009-08-25T09:35:56.000Z</time>
                <name>Position 2849</name>
            </trkpt>
            <trkpt lon="10.6106116666667" lat="47.500355">
                <ele>2041.8</ele>
                <time>2009-08-25T09:35:58.000Z</time>
                <name>Position 2850</name>
            </trkpt>
            <trkpt lon="10.6106016666667" lat="47.50038">
                <ele>2042.1</ele>
                <time>2009-08-25T09:36:02.000Z</time>
                <name>Position 2851</name>
            </trkpt>
            <trkpt lon="10.610595" lat="47.500385">
                <ele>2042.1</ele>
                <time>2009-08-25T09:36:05.000Z</time>
                <name>Position 2852</name>
            </trkpt>
            <trkpt lon="10.6105983333333" lat="47.5003866666667">
                <ele>2042.3</ele>
                <time>2009-08-25T09:36:08.000Z</time>
                <name>Position 2853</name>
            </trkpt>
            <trkpt lon="10.6106" lat="47.5004016666667">
                <ele>2043.6</ele>
                <time>2009-08-25T09:36:11.000Z</time>
                <name>Position 2854</name>
            </trkpt>
            <trkpt lon="10.6106016666667" lat="47.5004016666667">
                <ele>2043.6</ele>
                <time>2009-08-25T09:36:14.000Z</time>
                <name>Position 2855</name>
            </trkpt>
            <trkpt lon="10.6106016666667" lat="47.5004016666667">
                <ele>2043.9</ele>
                <time>2009-08-25T09:36:17.000Z</time>
                <name>Position 2856</name>
            </trkpt>
            <trkpt lon="10.6106" lat="47.5004033333333">
                <ele>2044.1</ele>
                <time>2009-08-25T09:36:20.000Z</time>
                <name>Position 2857</name>
            </trkpt>
            <trkpt lon="10.6105983333333" lat="47.5004066666667">
                <ele>2044.2</ele>
                <time>2009-08-25T09:36:23.000Z</time>
                <name>Position 2858</name>
            </trkpt>
            <trkpt lon="10.6105983333333" lat="47.5004066666667">
                <ele>2044.2</ele>
                <time>2009-08-25T09:36:25.000Z</time>
                <name>Position 2859</name>
            </trkpt>
            <trkpt lon="10.6105983333333" lat="47.500405">
                <ele>2044.3</ele>
                <time>2009-08-25T09:36:28.000Z</time>
                <name>Position 2860</name>
            </trkpt>
            <trkpt lon="10.6105966666667" lat="47.5004033333333">
                <ele>2044.3</ele>
                <time>2009-08-25T09:36:32.000Z</time>
                <name>Position 2861</name>
            </trkpt>
            <trkpt lon="10.6105966666667" lat="47.5004016666667">
                <ele>2044.3</ele>
                <time>2009-08-25T09:36:34.000Z</time>
                <name>Position 2862</name>
            </trkpt>
            <trkpt lon="10.610595" lat="47.5004">
                <ele>2044.3</ele>
                <time>2009-08-25T09:36:38.000Z</time>
                <name>Position 2863</name>
            </trkpt>
            <trkpt lon="10.610595" lat="47.5003983333333">
                <ele>2044.3</ele>
                <time>2009-08-25T09:36:41.000Z</time>
                <name>Position 2864</name>
            </trkpt>
            <trkpt lon="10.6105966666667" lat="47.5003983333333">
                <ele>2044.5</ele>
                <time>2009-08-25T09:36:44.000Z</time>
                <name>Position 2865</name>
            </trkpt>
            <trkpt lon="10.6105916666667" lat="47.5003966666667">
                <ele>2044.7</ele>
                <time>2009-08-25T09:36:46.000Z</time>
                <name>Position 2866</name>
            </trkpt>
            <trkpt lon="10.6105883333333" lat="47.50039">
                <ele>2044.4</ele>
                <time>2009-08-25T09:36:49.000Z</time>
                <name>Position 2867</name>
            </trkpt>
            <trkpt lon="10.61058" lat="47.5003933333333">
                <ele>2043.8</ele>
                <time>2009-08-25T09:36:53.000Z</time>
                <name>Position 2868</name>
            </trkpt>
            <trkpt lon="10.6105833333333" lat="47.5003883333333">
                <ele>2043.8</ele>
                <time>2009-08-25T09:36:55.000Z</time>
                <name>Position 2869</name>
            </trkpt>
            <trkpt lon="10.6105783333333" lat="47.5003866666667">
                <ele>2043.6</ele>
                <time>2009-08-25T09:36:59.000Z</time>
                <name>Position 2870</name>
            </trkpt>
            <trkpt lon="10.6105816666667" lat="47.5003866666667">
                <ele>2043.5</ele>
                <time>2009-08-25T09:37:02.000Z</time>
                <name>Position 2871</name>
            </trkpt>
            <trkpt lon="10.6105816666667" lat="47.5003866666667">
                <ele>2043.4</ele>
                <time>2009-08-25T09:37:04.000Z</time>
                <name>Position 2872</name>
            </trkpt>
            <trkpt lon="10.61058" lat="47.500385">
                <ele>2043.3</ele>
                <time>2009-08-25T09:37:07.000Z</time>
                <name>Position 2873</name>
            </trkpt>
            <trkpt lon="10.6105783333333" lat="47.5003833333333">
                <ele>2043.2</ele>
                <time>2009-08-25T09:37:10.000Z</time>
                <name>Position 2874</name>
            </trkpt>
            <trkpt lon="10.6105783333333" lat="47.5003833333333">
                <ele>2043.2</ele>
                <time>2009-08-25T09:37:13.000Z</time>
                <name>Position 2875</name>
            </trkpt>
            <trkpt lon="10.6105783333333" lat="47.5003833333333">
                <ele>2043.1</ele>
                <time>2009-08-25T09:37:16.000Z</time>
                <name>Position 2876</name>
            </trkpt>
            <trkpt lon="10.6105766666667" lat="47.5003833333333">
                <ele>2043.1</ele>
                <time>2009-08-25T09:37:20.000Z</time>
                <name>Position 2877</name>
            </trkpt>
            <trkpt lon="10.6105766666667" lat="47.500385">
                <ele>2043.1</ele>
                <time>2009-08-25T09:37:22.000Z</time>
                <name>Position 2878</name>
            </trkpt>
            <trkpt lon="10.6105766666667" lat="47.500385">
                <ele>2043.1</ele>
                <time>2009-08-25T09:37:25.000Z</time>
                <name>Position 2879</name>
            </trkpt>
            <trkpt lon="10.6105766666667" lat="47.500385">
                <ele>2043.1</ele>
                <time>2009-08-25T09:37:29.000Z</time>
                <name>Position 2880</name>
            </trkpt>
            <trkpt lon="10.6105766666667" lat="47.500385">
                <ele>2043.1</ele>
                <time>2009-08-25T09:37:31.000Z</time>
                <name>Position 2881</name>
            </trkpt>
            <trkpt lon="10.6105766666667" lat="47.500385">
                <ele>2043.1</ele>
                <time>2009-08-25T09:37:34.000Z</time>
                <name>Position 2882</name>
            </trkpt>
            <trkpt lon="10.610575" lat="47.500385">
                <ele>2043.1</ele>
                <time>2009-08-25T09:37:37.000Z</time>
                <name>Position 2883</name>
            </trkpt>
            <trkpt lon="10.610575" lat="47.500385">
                <ele>2043.1</ele>
                <time>2009-08-25T09:37:40.000Z</time>
                <name>Position 2884</name>
            </trkpt>
            <trkpt lon="10.610575" lat="47.500385">
                <ele>2043.0</ele>
                <time>2009-08-25T09:37:44.000Z</time>
                <name>Position 2885</name>
            </trkpt>
            <trkpt lon="10.610575" lat="47.500385">
                <ele>2043.0</ele>
                <time>2009-08-25T09:37:47.000Z</time>
                <name>Position 2886</name>
            </trkpt>
            <trkpt lon="10.610575" lat="47.500385">
                <ele>2043.0</ele>
                <time>2009-08-25T09:37:50.000Z</time>
                <name>Position 2887</name>
            </trkpt>
            <trkpt lon="10.610575" lat="47.500385">
                <ele>2043.0</ele>
                <time>2009-08-25T09:37:53.000Z</time>
                <name>Position 2888</name>
            </trkpt>
            <trkpt lon="10.610575" lat="47.500385">
                <ele>2043.0</ele>
                <time>2009-08-25T09:37:56.000Z</time>
                <name>Position 2889</name>
            </trkpt>
            <trkpt lon="10.610575" lat="47.500385">
                <ele>2043.0</ele>
                <time>2009-08-25T09:37:59.000Z</time>
                <name>Position 2890</name>
            </trkpt>
            <trkpt lon="10.610575" lat="47.500385">
                <ele>2043.0</ele>
                <time>2009-08-25T09:38:02.000Z</time>
                <name>Position 2891</name>
            </trkpt>
            <trkpt lon="10.610575" lat="47.5003866666667">
                <ele>2042.9</ele>
                <time>2009-08-25T09:38:05.000Z</time>
                <name>Position 2892</name>
            </trkpt>
            <trkpt lon="10.610575" lat="47.5003866666667">
                <ele>2042.9</ele>
                <time>2009-08-25T09:38:08.000Z</time>
                <name>Position 2893</name>
            </trkpt>
            <trkpt lon="10.610575" lat="47.5003866666667">
                <ele>2042.9</ele>
                <time>2009-08-25T09:38:11.000Z</time>
                <name>Position 2894</name>
            </trkpt>
            <trkpt lon="10.610575" lat="47.5003866666667">
                <ele>2042.9</ele>
                <time>2009-08-25T09:38:14.000Z</time>
                <name>Position 2895</name>
            </trkpt>
            <trkpt lon="10.610575" lat="47.5003866666667">
                <ele>2042.9</ele>
                <time>2009-08-25T09:38:17.000Z</time>
                <name>Position 2896</name>
            </trkpt>
            <trkpt lon="10.6105733333333" lat="47.5003866666667">
                <ele>2042.9</ele>
                <time>2009-08-25T09:38:20.000Z</time>
                <name>Position 2897</name>
            </trkpt>
            <trkpt lon="10.6105733333333" lat="47.5003866666667">
                <ele>2042.9</ele>
                <time>2009-08-25T09:38:23.000Z</time>
                <name>Position 2898</name>
            </trkpt>
            <trkpt lon="10.6105733333333" lat="47.5003866666667">
                <ele>2042.9</ele>
                <time>2009-08-25T09:38:26.000Z</time>
                <name>Position 2899</name>
            </trkpt>
            <trkpt lon="10.6105733333333" lat="47.5003866666667">
                <ele>2042.9</ele>
                <time>2009-08-25T09:38:29.000Z</time>
                <name>Position 2900</name>
            </trkpt>
            <trkpt lon="10.6105733333333" lat="47.5003866666667">
                <ele>2042.9</ele>
                <time>2009-08-25T09:38:32.000Z</time>
                <name>Position 2901</name>
            </trkpt>
            <trkpt lon="10.6105733333333" lat="47.5003866666667">
                <ele>2042.9</ele>
                <time>2009-08-25T09:38:35.000Z</time>
                <name>Position 2902</name>
            </trkpt>
            <trkpt lon="10.6105733333333" lat="47.5003866666667">
                <ele>2042.9</ele>
                <time>2009-08-25T09:38:38.000Z</time>
                <name>Position 2903</name>
            </trkpt>
            <trkpt lon="10.6105733333333" lat="47.5003866666667">
                <ele>2042.9</ele>
                <time>2009-08-25T09:38:41.000Z</time>
                <name>Position 2904</name>
            </trkpt>
            <trkpt lon="10.6105716666667" lat="47.5003866666667">
                <ele>2042.9</ele>
                <time>2009-08-25T09:38:44.000Z</time>
                <name>Position 2905</name>
            </trkpt>
            <trkpt lon="10.6105716666667" lat="47.5003883333333">
                <ele>2042.9</ele>
                <time>2009-08-25T09:38:47.000Z</time>
                <name>Position 2906</name>
            </trkpt>
            <trkpt lon="10.6105716666667" lat="47.5003883333333">
                <ele>2042.9</ele>
                <time>2009-08-25T09:38:50.000Z</time>
                <name>Position 2907</name>
            </trkpt>
            <trkpt lon="10.6105716666667" lat="47.5003883333333">
                <ele>2042.9</ele>
                <time>2009-08-25T09:38:53.000Z</time>
                <name>Position 2908</name>
            </trkpt>
            <trkpt lon="10.6105716666667" lat="47.5003883333333">
                <ele>2042.9</ele>
                <time>2009-08-25T09:38:56.000Z</time>
                <name>Position 2909</name>
            </trkpt>
            <trkpt lon="10.6105716666667" lat="47.5003883333333">
                <ele>2042.9</ele>
                <time>2009-08-25T09:38:59.000Z</time>
                <name>Position 2910</name>
            </trkpt>
            <trkpt lon="10.6105716666667" lat="47.5003883333333">
                <ele>2042.9</ele>
                <time>2009-08-25T09:39:02.000Z</time>
                <name>Position 2911</name>
            </trkpt>
            <trkpt lon="10.6105716666667" lat="47.5003883333333">
                <ele>2042.8</ele>
                <time>2009-08-25T09:39:05.000Z</time>
                <name>Position 2912</name>
            </trkpt>
            <trkpt lon="10.6105716666667" lat="47.5003883333333">
                <ele>2042.8</ele>
                <time>2009-08-25T09:39:08.000Z</time>
                <name>Position 2913</name>
            </trkpt>
            <trkpt lon="10.6105716666667" lat="47.5003883333333">
                <ele>2042.8</ele>
                <time>2009-08-25T09:39:11.000Z</time>
                <name>Position 2914</name>
            </trkpt>
            <trkpt lon="10.61057" lat="47.5003883333333">
                <ele>2042.8</ele>
                <time>2009-08-25T09:39:14.000Z</time>
                <name>Position 2915</name>
            </trkpt>
            <trkpt lon="10.61057" lat="47.5003883333333">
                <ele>2042.8</ele>
                <time>2009-08-25T09:39:17.000Z</time>
                <name>Position 2916</name>
            </trkpt>
            <trkpt lon="10.61057" lat="47.5003883333333">
                <ele>2042.8</ele>
                <time>2009-08-25T09:39:20.000Z</time>
                <name>Position 2917</name>
            </trkpt>
            <trkpt lon="10.61057" lat="47.5003883333333">
                <ele>2042.8</ele>
                <time>2009-08-25T09:39:23.000Z</time>
                <name>Position 2918</name>
            </trkpt>
            <trkpt lon="10.61057" lat="47.5003883333333">
                <ele>2042.8</ele>
                <time>2009-08-25T09:39:26.000Z</time>
                <name>Position 2919</name>
            </trkpt>
            <trkpt lon="10.61057" lat="47.5003883333333">
                <ele>2042.7</ele>
                <time>2009-08-25T09:39:29.000Z</time>
                <name>Position 2920</name>
            </trkpt>
            <trkpt lon="10.61057" lat="47.5003883333333">
                <ele>2042.7</ele>
                <time>2009-08-25T09:39:32.000Z</time>
                <name>Position 2921</name>
            </trkpt>
            <trkpt lon="10.61057" lat="47.5003883333333">
                <ele>2042.7</ele>
                <time>2009-08-25T09:39:35.000Z</time>
                <name>Position 2922</name>
            </trkpt>
            <trkpt lon="10.61057" lat="47.5003883333333">
                <ele>2042.7</ele>
                <time>2009-08-25T09:39:38.000Z</time>
                <name>Position 2923</name>
            </trkpt>
            <trkpt lon="10.61057" lat="47.5003883333333">
                <ele>2042.7</ele>
                <time>2009-08-25T09:39:41.000Z</time>
                <name>Position 2924</name>
            </trkpt>
            <trkpt lon="10.6105683333333" lat="47.5003883333333">
                <ele>2042.7</ele>
                <time>2009-08-25T09:39:44.000Z</time>
                <name>Position 2925</name>
            </trkpt>
            <trkpt lon="10.6105683333333" lat="47.5003883333333">
                <ele>2042.7</ele>
                <time>2009-08-25T09:39:47.000Z</time>
                <name>Position 2926</name>
            </trkpt>
            <trkpt lon="10.6105683333333" lat="47.5003883333333">
                <ele>2042.7</ele>
                <time>2009-08-25T09:39:50.000Z</time>
                <name>Position 2927</name>
            </trkpt>
            <trkpt lon="10.6105683333333" lat="47.5003883333333">
                <ele>2042.7</ele>
                <time>2009-08-25T09:39:53.000Z</time>
                <name>Position 2928</name>
            </trkpt>
            <trkpt lon="10.6105683333333" lat="47.50039">
                <ele>2042.7</ele>
                <time>2009-08-25T09:39:56.000Z</time>
                <name>Position 2929</name>
            </trkpt>
            <trkpt lon="10.6105683333333" lat="47.50039">
                <ele>2042.7</ele>
                <time>2009-08-25T09:39:59.000Z</time>
                <name>Position 2930</name>
            </trkpt>
            <trkpt lon="10.6105683333333" lat="47.50039">
                <ele>2042.6</ele>
                <time>2009-08-25T09:40:02.000Z</time>
                <name>Position 2931</name>
            </trkpt>
            <trkpt lon="10.6105683333333" lat="47.50039">
                <ele>2042.6</ele>
                <time>2009-08-25T09:40:05.000Z</time>
                <name>Position 2932</name>
            </trkpt>
            <trkpt lon="10.6105683333333" lat="47.50039">
                <ele>2042.6</ele>
                <time>2009-08-25T09:40:08.000Z</time>
                <name>Position 2933</name>
            </trkpt>
            <trkpt lon="10.6105683333333" lat="47.50039">
                <ele>2042.6</ele>
                <time>2009-08-25T09:40:11.000Z</time>
                <name>Position 2934</name>
            </trkpt>
            <trkpt lon="10.6105683333333" lat="47.50039">
                <ele>2042.6</ele>
                <time>2009-08-25T09:40:14.000Z</time>
                <name>Position 2935</name>
            </trkpt>
            <trkpt lon="10.6105683333333" lat="47.50039">
                <ele>2042.6</ele>
                <time>2009-08-25T09:40:17.000Z</time>
                <name>Position 2936</name>
            </trkpt>
            <trkpt lon="10.6105683333333" lat="47.50039">
                <ele>2042.6</ele>
                <time>2009-08-25T09:40:20.000Z</time>
                <name>Position 2937</name>
            </trkpt>
            <trkpt lon="10.6105683333333" lat="47.50039">
                <ele>2042.6</ele>
                <time>2009-08-25T09:40:23.000Z</time>
                <name>Position 2938</name>
            </trkpt>
            <trkpt lon="10.6105666666667" lat="47.50039">
                <ele>2042.6</ele>
                <time>2009-08-25T09:40:26.000Z</time>
                <name>Position 2939</name>
            </trkpt>
            <trkpt lon="10.6105666666667" lat="47.5003916666667">
                <ele>2042.6</ele>
                <time>2009-08-25T09:40:29.000Z</time>
                <name>Position 2940</name>
            </trkpt>
            <trkpt lon="10.6105666666667" lat="47.5003916666667">
                <ele>2042.6</ele>
                <time>2009-08-25T09:40:32.000Z</time>
                <name>Position 2941</name>
            </trkpt>
            <trkpt lon="10.6105666666667" lat="47.5003916666667">
                <ele>2042.6</ele>
                <time>2009-08-25T09:40:35.000Z</time>
                <name>Position 2942</name>
            </trkpt>
            <trkpt lon="10.6105666666667" lat="47.5003916666667">
                <ele>2042.6</ele>
                <time>2009-08-25T09:40:38.000Z</time>
                <name>Position 2943</name>
            </trkpt>
            <trkpt lon="10.6105666666667" lat="47.5003916666667">
                <ele>2042.5</ele>
                <time>2009-08-25T09:40:41.000Z</time>
                <name>Position 2944</name>
            </trkpt>
            <trkpt lon="10.6105666666667" lat="47.5003916666667">
                <ele>2042.5</ele>
                <time>2009-08-25T09:40:44.000Z</time>
                <name>Position 2945</name>
            </trkpt>
            <trkpt lon="10.6105666666667" lat="47.5003916666667">
                <ele>2042.5</ele>
                <time>2009-08-25T09:40:47.000Z</time>
                <name>Position 2946</name>
            </trkpt>
            <trkpt lon="10.6105666666667" lat="47.5003916666667">
                <ele>2042.5</ele>
                <time>2009-08-25T09:40:50.000Z</time>
                <name>Position 2947</name>
            </trkpt>
            <trkpt lon="10.6105666666667" lat="47.5003916666667">
                <ele>2042.5</ele>
                <time>2009-08-25T09:40:53.000Z</time>
                <name>Position 2948</name>
            </trkpt>
            <trkpt lon="10.6105666666667" lat="47.5003916666667">
                <ele>2042.5</ele>
                <time>2009-08-25T09:40:56.000Z</time>
                <name>Position 2949</name>
            </trkpt>
            <trkpt lon="10.6105666666667" lat="47.5003916666667">
                <ele>2042.5</ele>
                <time>2009-08-25T09:40:59.000Z</time>
                <name>Position 2950</name>
            </trkpt>
            <trkpt lon="10.6105666666667" lat="47.5003916666667">
                <ele>2042.5</ele>
                <time>2009-08-25T09:41:02.000Z</time>
                <name>Position 2951</name>
            </trkpt>
            <trkpt lon="10.6105666666667" lat="47.5003916666667">
                <ele>2042.5</ele>
                <time>2009-08-25T09:41:05.000Z</time>
                <name>Position 2952</name>
            </trkpt>
            <trkpt lon="10.6105666666667" lat="47.5003916666667">
                <ele>2042.4</ele>
                <time>2009-08-25T09:41:08.000Z</time>
                <name>Position 2953</name>
            </trkpt>
            <trkpt lon="10.6105666666667" lat="47.5003916666667">
                <ele>2042.4</ele>
                <time>2009-08-25T09:41:11.000Z</time>
                <name>Position 2954</name>
            </trkpt>
            <trkpt lon="10.6105666666667" lat="47.5003916666667">
                <ele>2042.4</ele>
                <time>2009-08-25T09:41:14.000Z</time>
                <name>Position 2955</name>
            </trkpt>
            <trkpt lon="10.610565" lat="47.5003916666667">
                <ele>2042.4</ele>
                <time>2009-08-25T09:41:17.000Z</time>
                <name>Position 2956</name>
            </trkpt>
            <trkpt lon="10.610565" lat="47.5003916666667">
                <ele>2042.4</ele>
                <time>2009-08-25T09:41:20.000Z</time>
                <name>Position 2957</name>
            </trkpt>
            <trkpt lon="10.610565" lat="47.5003916666667">
                <ele>2042.4</ele>
                <time>2009-08-25T09:41:23.000Z</time>
                <name>Position 2958</name>
            </trkpt>
            <trkpt lon="10.610565" lat="47.5003916666667">
                <ele>2042.4</ele>
                <time>2009-08-25T09:41:26.000Z</time>
                <name>Position 2959</name>
            </trkpt>
            <trkpt lon="10.610565" lat="47.5003916666667">
                <ele>2042.4</ele>
                <time>2009-08-25T09:41:29.000Z</time>
                <name>Position 2960</name>
            </trkpt>
            <trkpt lon="10.610565" lat="47.5003916666667">
                <ele>2042.3</ele>
                <time>2009-08-25T09:41:32.000Z</time>
                <name>Position 2961</name>
            </trkpt>
            <trkpt lon="10.610565" lat="47.5003916666667">
                <ele>2042.3</ele>
                <time>2009-08-25T09:41:35.000Z</time>
                <name>Position 2962</name>
            </trkpt>
            <trkpt lon="10.610565" lat="47.5003916666667">
                <ele>2042.3</ele>
                <time>2009-08-25T09:41:38.000Z</time>
                <name>Position 2963</name>
            </trkpt>
            <trkpt lon="10.610565" lat="47.5003916666667">
                <ele>2042.3</ele>
                <time>2009-08-25T09:41:41.000Z</time>
                <name>Position 2964</name>
            </trkpt>
            <trkpt lon="10.610565" lat="47.5003933333333">
                <ele>2042.3</ele>
                <time>2009-08-25T09:41:44.000Z</time>
                <name>Position 2965</name>
            </trkpt>
            <trkpt lon="10.610565" lat="47.5003933333333">
                <ele>2042.3</ele>
                <time>2009-08-25T09:41:47.000Z</time>
                <name>Position 2966</name>
            </trkpt>
            <trkpt lon="10.610565" lat="47.5003933333333">
                <ele>2042.3</ele>
                <time>2009-08-25T09:41:50.000Z</time>
                <name>Position 2967</name>
            </trkpt>
            <trkpt lon="10.610565" lat="47.5003933333333">
                <ele>2042.3</ele>
                <time>2009-08-25T09:41:53.000Z</time>
                <name>Position 2968</name>
            </trkpt>
            <trkpt lon="10.610565" lat="47.5003933333333">
                <ele>2042.3</ele>
                <time>2009-08-25T09:41:56.000Z</time>
                <name>Position 2969</name>
            </trkpt>
            <trkpt lon="10.610565" lat="47.5003933333333">
                <ele>2042.3</ele>
                <time>2009-08-25T09:41:59.000Z</time>
                <name>Position 2970</name>
            </trkpt>
            <trkpt lon="10.610565" lat="47.5003933333333">
                <ele>2042.3</ele>
                <time>2009-08-25T09:42:02.000Z</time>
                <name>Position 2971</name>
            </trkpt>
            <trkpt lon="10.610565" lat="47.5003933333333">
                <ele>2042.3</ele>
                <time>2009-08-25T09:42:05.000Z</time>
                <name>Position 2972</name>
            </trkpt>
            <trkpt lon="10.610565" lat="47.5003933333333">
                <ele>2042.3</ele>
                <time>2009-08-25T09:42:08.000Z</time>
                <name>Position 2973</name>
            </trkpt>
            <trkpt lon="10.610565" lat="47.5003933333333">
                <ele>2042.3</ele>
                <time>2009-08-25T09:42:11.000Z</time>
                <name>Position 2974</name>
            </trkpt>
            <trkpt lon="10.610565" lat="47.5003933333333">
                <ele>2042.3</ele>
                <time>2009-08-25T09:42:14.000Z</time>
                <name>Position 2975</name>
            </trkpt>
            <trkpt lon="10.610565" lat="47.500395">
                <ele>2042.3</ele>
                <time>2009-08-25T09:42:17.000Z</time>
                <name>Position 2976</name>
            </trkpt>
            <trkpt lon="10.610565" lat="47.500395">
                <ele>2042.3</ele>
                <time>2009-08-25T09:42:20.000Z</time>
                <name>Position 2977</name>
            </trkpt>
            <trkpt lon="10.6105633333333" lat="47.500395">
                <ele>2042.3</ele>
                <time>2009-08-25T09:42:23.000Z</time>
                <name>Position 2978</name>
            </trkpt>
            <trkpt lon="10.6105633333333" lat="47.500395">
                <ele>2042.3</ele>
                <time>2009-08-25T09:42:26.000Z</time>
                <name>Position 2979</name>
            </trkpt>
            <trkpt lon="10.6105633333333" lat="47.500395">
                <ele>2042.3</ele>
                <time>2009-08-25T09:42:29.000Z</time>
                <name>Position 2980</name>
            </trkpt>
            <trkpt lon="10.6105633333333" lat="47.500395">
                <ele>2042.3</ele>
                <time>2009-08-25T09:42:32.000Z</time>
                <name>Position 2981</name>
            </trkpt>
            <trkpt lon="10.6105633333333" lat="47.500395">
                <ele>2042.3</ele>
                <time>2009-08-25T09:42:35.000Z</time>
                <name>Position 2982</name>
            </trkpt>
            <trkpt lon="10.6105633333333" lat="47.500395">
                <ele>2042.3</ele>
                <time>2009-08-25T09:42:38.000Z</time>
                <name>Position 2983</name>
            </trkpt>
            <trkpt lon="10.6105633333333" lat="47.500395">
                <ele>2042.2</ele>
                <time>2009-08-25T09:42:41.000Z</time>
                <name>Position 2984</name>
            </trkpt>
            <trkpt lon="10.6105633333333" lat="47.500395">
                <ele>2042.2</ele>
                <time>2009-08-25T09:42:44.000Z</time>
                <name>Position 2985</name>
            </trkpt>
            <trkpt lon="10.6105633333333" lat="47.500395">
                <ele>2042.2</ele>
                <time>2009-08-25T09:42:47.000Z</time>
                <name>Position 2986</name>
            </trkpt>
            <trkpt lon="10.6105633333333" lat="47.500395">
                <ele>2042.2</ele>
                <time>2009-08-25T09:42:50.000Z</time>
                <name>Position 2987</name>
            </trkpt>
            <trkpt lon="10.6105633333333" lat="47.500395">
                <ele>2042.2</ele>
                <time>2009-08-25T09:42:53.000Z</time>
                <name>Position 2988</name>
            </trkpt>
            <trkpt lon="10.6105633333333" lat="47.500395">
                <ele>2042.2</ele>
                <time>2009-08-25T09:42:56.000Z</time>
                <name>Position 2989</name>
            </trkpt>
            <trkpt lon="10.61057" lat="47.5003883333333">
                <ele>2041.7</ele>
                <time>2009-08-25T09:42:59.000Z</time>
                <name>Position 2990</name>
            </trkpt>
            <trkpt lon="10.6105616666667" lat="47.5003866666667">
                <ele>2041.5</ele>
                <time>2009-08-25T09:43:02.000Z</time>
                <name>Position 2991</name>
            </trkpt>
            <trkpt lon="10.61056" lat="47.500385">
                <ele>2041.4</ele>
                <time>2009-08-25T09:43:05.000Z</time>
                <name>Position 2992</name>
            </trkpt>
            <trkpt lon="10.6105583333333" lat="47.500385">
                <ele>2041.4</ele>
                <time>2009-08-25T09:43:08.000Z</time>
                <name>Position 2993</name>
            </trkpt>
            <trkpt lon="10.61056" lat="47.5003833333333">
                <ele>2040.7</ele>
                <time>2009-08-25T09:43:11.000Z</time>
                <name>Position 2994</name>
            </trkpt>
            <trkpt lon="10.6105566666667" lat="47.5003816666667">
                <ele>2040.4</ele>
                <time>2009-08-25T09:43:14.000Z</time>
                <name>Position 2995</name>
            </trkpt>
            <trkpt lon="10.6105566666667" lat="47.5003783333333">
                <ele>2040.2</ele>
                <time>2009-08-25T09:43:17.000Z</time>
                <name>Position 2996</name>
            </trkpt>
            <trkpt lon="10.6105566666667" lat="47.5003766666667">
                <ele>2040.1</ele>
                <time>2009-08-25T09:43:20.000Z</time>
                <name>Position 2997</name>
            </trkpt>
            <trkpt lon="10.6105583333333" lat="47.5003766666667">
                <ele>2040.0</ele>
                <time>2009-08-25T09:43:23.000Z</time>
                <name>Position 2998</name>
            </trkpt>
            <trkpt lon="10.6105583333333" lat="47.500375">
                <ele>2040.0</ele>
                <time>2009-08-25T09:43:26.000Z</time>
                <name>Position 2999</name>
            </trkpt>
            <trkpt lon="10.6105583333333" lat="47.5003733333333">
                <ele>2039.9</ele>
                <time>2009-08-25T09:43:29.000Z</time>
                <name>Position 3000</name>
            </trkpt>
            <trkpt lon="10.6105566666667" lat="47.5003733333333">
                <ele>2039.8</ele>
                <time>2009-08-25T09:43:32.000Z</time>
                <name>Position 3001</name>
            </trkpt>
            <trkpt lon="10.610555" lat="47.50038">
                <ele>2039.7</ele>
                <time>2009-08-25T09:43:35.000Z</time>
                <name>Position 3002</name>
            </trkpt>
            <trkpt lon="10.6105533333333" lat="47.50038">
                <ele>2039.6</ele>
                <time>2009-08-25T09:43:38.000Z</time>
                <name>Position 3003</name>
            </trkpt>
            <trkpt lon="10.6105533333333" lat="47.50038">
                <ele>2039.6</ele>
                <time>2009-08-25T09:43:41.000Z</time>
                <name>Position 3004</name>
            </trkpt>
            <trkpt lon="10.6105533333333" lat="47.50038">
                <ele>2039.4</ele>
                <time>2009-08-25T09:43:44.000Z</time>
                <name>Position 3005</name>
            </trkpt>
            <trkpt lon="10.6105683333333" lat="47.5003833333333">
                <ele>2039.0</ele>
                <time>2009-08-25T09:43:47.000Z</time>
                <name>Position 3006</name>
            </trkpt>
            <trkpt lon="10.6105733333333" lat="47.5003883333333">
                <ele>2038.7</ele>
                <time>2009-08-25T09:43:50.000Z</time>
                <name>Position 3007</name>
            </trkpt>
            <trkpt lon="10.6105716666667" lat="47.5003883333333">
                <ele>2038.8</ele>
                <time>2009-08-25T09:43:53.000Z</time>
                <name>Position 3008</name>
            </trkpt>
            <trkpt lon="10.6105716666667" lat="47.5003883333333">
                <ele>2038.7</ele>
                <time>2009-08-25T09:43:56.000Z</time>
                <name>Position 3009</name>
            </trkpt>
            <trkpt lon="10.6105733333333" lat="47.5003783333333">
                <ele>2038.6</ele>
                <time>2009-08-25T09:43:59.000Z</time>
                <name>Position 3010</name>
            </trkpt>
            <trkpt lon="10.610575" lat="47.5003633333333">
                <ele>2038.3</ele>
                <time>2009-08-25T09:44:02.000Z</time>
                <name>Position 3011</name>
            </trkpt>
            <trkpt lon="10.6105766666667" lat="47.50036">
                <ele>2038.3</ele>
                <time>2009-08-25T09:44:05.000Z</time>
                <name>Position 3012</name>
            </trkpt>
            <trkpt lon="10.610575" lat="47.50036">
                <ele>2038.2</ele>
                <time>2009-08-25T09:44:08.000Z</time>
                <name>Position 3013</name>
            </trkpt>
            <trkpt lon="10.6105766666667" lat="47.5003583333333">
                <ele>2038.2</ele>
                <time>2009-08-25T09:44:11.000Z</time>
                <name>Position 3014</name>
            </trkpt>
            <trkpt lon="10.6105733333333" lat="47.5003483333333">
                <ele>2037.9</ele>
                <time>2009-08-25T09:44:14.000Z</time>
                <name>Position 3015</name>
            </trkpt>
            <trkpt lon="10.6105616666667" lat="47.5003266666667">
                <ele>2037.5</ele>
                <time>2009-08-25T09:44:17.000Z</time>
                <name>Position 3016</name>
            </trkpt>
            <trkpt lon="10.610555" lat="47.500315">
                <ele>2037.5</ele>
                <time>2009-08-25T09:44:20.000Z</time>
                <name>Position 3017</name>
            </trkpt>
            <trkpt lon="10.610555" lat="47.500315">
                <ele>2037.4</ele>
                <time>2009-08-25T09:44:23.000Z</time>
                <name>Position 3018</name>
            </trkpt>
            <trkpt lon="10.6105466666667" lat="47.5003083333333">
                <ele>2037.3</ele>
                <time>2009-08-25T09:44:26.000Z</time>
                <name>Position 3019</name>
            </trkpt>
            <trkpt lon="10.6105266666667" lat="47.5002866666667">
                <ele>2037.3</ele>
                <time>2009-08-25T09:44:29.000Z</time>
                <name>Position 3020</name>
            </trkpt>
            <trkpt lon="10.6105266666667" lat="47.500245">
                <ele>2037.2</ele>
                <time>2009-08-25T09:44:32.000Z</time>
                <name>Position 3021</name>
            </trkpt>
            <trkpt lon="10.6105166666667" lat="47.50021">
                <ele>2037.1</ele>
                <time>2009-08-25T09:44:35.000Z</time>
                <name>Position 3022</name>
            </trkpt>
            <trkpt lon="10.6105083333333" lat="47.5001816666667">
                <ele>2037.0</ele>
                <time>2009-08-25T09:44:38.000Z</time>
                <name>Position 3023</name>
            </trkpt>
            <trkpt lon="10.6105183333333" lat="47.5001866666667">
                <ele>2036.8</ele>
                <time>2009-08-25T09:44:41.000Z</time>
                <name>Position 3024</name>
            </trkpt>
            <trkpt lon="10.6105216666667" lat="47.50018">
                <ele>2036.7</ele>
                <time>2009-08-25T09:44:44.000Z</time>
                <name>Position 3025</name>
            </trkpt>
            <trkpt lon="10.6105233333333" lat="47.500175">
                <ele>2036.6</ele>
                <time>2009-08-25T09:44:47.000Z</time>
                <name>Position 3026</name>
            </trkpt>
            <trkpt lon="10.6105483333333" lat="47.500145">
                <ele>2036.5</ele>
                <time>2009-08-25T09:44:50.000Z</time>
                <name>Position 3027</name>
            </trkpt>
            <trkpt lon="10.6105666666667" lat="47.50013">
                <ele>2036.4</ele>
                <time>2009-08-25T09:44:53.000Z</time>
                <name>Position 3028</name>
            </trkpt>
            <trkpt lon="10.610545" lat="47.5001533333333">
                <ele>2036.3</ele>
                <time>2009-08-25T09:44:56.000Z</time>
                <name>Position 3029</name>
            </trkpt>
            <trkpt lon="10.6105683333333" lat="47.5001216666667">
                <ele>2036.3</ele>
                <time>2009-08-25T09:44:59.000Z</time>
                <name>Position 3030</name>
            </trkpt>
            <trkpt lon="10.6105016666667" lat="47.5000616666667">
                <ele>2036.1</ele>
                <time>2009-08-25T09:45:02.000Z</time>
                <name>Position 3031</name>
            </trkpt>
            <trkpt lon="10.6104883333333" lat="47.5000566666667">
                <ele>2036.0</ele>
                <time>2009-08-25T09:45:05.000Z</time>
                <name>Position 3032</name>
            </trkpt>
            <trkpt lon="10.610495" lat="47.5000633333333">
                <ele>2035.9</ele>
                <time>2009-08-25T09:45:08.000Z</time>
                <name>Position 3033</name>
            </trkpt>
            <trkpt lon="10.6104766666667" lat="47.5000616666667">
                <ele>2035.8</ele>
                <time>2009-08-25T09:45:11.000Z</time>
                <name>Position 3034</name>
            </trkpt>
            <trkpt lon="10.6104833333333" lat="47.5000566666667">
                <ele>2035.7</ele>
                <time>2009-08-25T09:45:14.000Z</time>
                <name>Position 3035</name>
            </trkpt>
            <trkpt lon="10.6104816666667" lat="47.50005">
                <ele>2035.5</ele>
                <time>2009-08-25T09:45:20.000Z</time>
                <name>Position 3036</name>
            </trkpt>
            <trkpt lon="10.610525" lat="47.5000466666667">
                <ele>2035.4</ele>
                <time>2009-08-25T09:45:23.000Z</time>
                <name>Position 3037</name>
            </trkpt>
            <trkpt lon="10.6104933333333" lat="47.50006">
                <ele>2035.4</ele>
                <time>2009-08-25T09:45:26.000Z</time>
                <name>Position 3038</name>
            </trkpt>
            <trkpt lon="10.610405" lat="47.5001533333333">
                <ele>2035.4</ele>
                <time>2009-08-25T09:45:29.000Z</time>
                <name>Position 3039</name>
            </trkpt>
            <trkpt lon="10.610355" lat="47.500145">
                <ele>2035.7</ele>
                <time>2009-08-25T09:45:32.000Z</time>
                <name>Position 3040</name>
            </trkpt>
            <trkpt lon="10.6103483333333" lat="47.5001616666667">
                <ele>2036.6</ele>
                <time>2009-08-25T09:45:35.000Z</time>
                <name>Position 3041</name>
            </trkpt>
            <trkpt lon="10.61034" lat="47.5001816666667">
                <ele>2037.1</ele>
                <time>2009-08-25T09:45:38.000Z</time>
                <name>Position 3042</name>
            </trkpt>
            <trkpt lon="10.610315" lat="47.5001883333333">
                <ele>2037.6</ele>
                <time>2009-08-25T09:45:41.000Z</time>
                <name>Position 3043</name>
            </trkpt>
            <trkpt lon="10.6103066666667" lat="47.5001883333333">
                <ele>2038.2</ele>
                <time>2009-08-25T09:45:44.000Z</time>
                <name>Position 3044</name>
            </trkpt>
            <trkpt lon="10.6103033333333" lat="47.5002033333333">
                <ele>2038.1</ele>
                <time>2009-08-25T09:45:47.000Z</time>
                <name>Position 3045</name>
            </trkpt>
            <trkpt lon="10.6102833333333" lat="47.5002133333333">
                <ele>2038.6</ele>
                <time>2009-08-25T09:45:50.000Z</time>
                <name>Position 3046</name>
            </trkpt>
            <trkpt lon="10.6102666666667" lat="47.5002116666667">
                <ele>2039.1</ele>
                <time>2009-08-25T09:45:53.000Z</time>
                <name>Position 3047</name>
            </trkpt>
            <trkpt lon="10.610255" lat="47.5002083333333">
                <ele>2039.2</ele>
                <time>2009-08-25T09:45:56.000Z</time>
                <name>Position 3048</name>
            </trkpt>
            <trkpt lon="10.6102333333333" lat="47.5002016666667">
                <ele>2039.2</ele>
                <time>2009-08-25T09:45:59.000Z</time>
                <name>Position 3049</name>
            </trkpt>
            <trkpt lon="10.6102133333333" lat="47.500195">
                <ele>2039.1</ele>
                <time>2009-08-25T09:46:02.000Z</time>
                <name>Position 3050</name>
            </trkpt>
            <trkpt lon="10.6101916666667" lat="47.500165">
                <ele>2039.0</ele>
                <time>2009-08-25T09:46:08.000Z</time>
                <name>Position 3051</name>
            </trkpt>
            <trkpt lon="10.6101783333333" lat="47.5001533333333">
                <ele>2039.0</ele>
                <time>2009-08-25T09:46:11.000Z</time>
                <name>Position 3052</name>
            </trkpt>
            <trkpt lon="10.610165" lat="47.500135">
                <ele>2039.0</ele>
                <time>2009-08-25T09:46:14.000Z</time>
                <name>Position 3053</name>
            </trkpt>
            <trkpt lon="10.6101566666667" lat="47.50013">
                <ele>2039.0</ele>
                <time>2009-08-25T09:46:17.000Z</time>
                <name>Position 3054</name>
            </trkpt>
            <trkpt lon="10.6101483333333" lat="47.50012">
                <ele>2039.0</ele>
                <time>2009-08-25T09:46:20.000Z</time>
                <name>Position 3055</name>
            </trkpt>
            <trkpt lon="10.6101433333333" lat="47.5001083333333">
                <ele>2039.0</ele>
                <time>2009-08-25T09:46:23.000Z</time>
                <name>Position 3056</name>
            </trkpt>
            <trkpt lon="10.6101383333333" lat="47.500095">
                <ele>2038.9</ele>
                <time>2009-08-25T09:46:26.000Z</time>
                <name>Position 3057</name>
            </trkpt>
            <trkpt lon="10.6101383333333" lat="47.5000816666667">
                <ele>2038.9</ele>
                <time>2009-08-25T09:46:29.000Z</time>
                <name>Position 3058</name>
            </trkpt>
            <trkpt lon="10.6101416666667" lat="47.5000566666667">
                <ele>2038.9</ele>
                <time>2009-08-25T09:46:32.000Z</time>
                <name>Position 3059</name>
            </trkpt>
            <trkpt lon="10.6101466666667" lat="47.5000283333333">
                <ele>2038.9</ele>
                <time>2009-08-25T09:46:38.000Z</time>
                <name>Position 3060</name>
            </trkpt>
            <trkpt lon="10.6101083333333" lat="47.50008">
                <ele>2039.0</ele>
                <time>2009-08-25T09:46:41.000Z</time>
                <name>Position 3061</name>
            </trkpt>
            <trkpt lon="10.6101" lat="47.5000733333333">
                <ele>2038.9</ele>
                <time>2009-08-25T09:46:44.000Z</time>
                <name>Position 3062</name>
            </trkpt>
            <trkpt lon="10.6101066666667" lat="47.5000633333333">
                <ele>2039.7</ele>
                <time>2009-08-25T09:46:47.000Z</time>
                <name>Position 3063</name>
            </trkpt>
            <trkpt lon="10.6101116666667" lat="47.5000616666667">
                <ele>2039.9</ele>
                <time>2009-08-25T09:46:50.000Z</time>
                <name>Position 3064</name>
            </trkpt>
            <trkpt lon="10.6101133333333" lat="47.5000616666667">
                <ele>2040.1</ele>
                <time>2009-08-25T09:46:53.000Z</time>
                <name>Position 3065</name>
            </trkpt>
            <trkpt lon="10.61011" lat="47.5000666666667">
                <ele>2040.1</ele>
                <time>2009-08-25T09:46:56.000Z</time>
                <name>Position 3066</name>
            </trkpt>
            <trkpt lon="10.6101016666667" lat="47.5000683333333">
                <ele>2040.1</ele>
                <time>2009-08-25T09:46:59.000Z</time>
                <name>Position 3067</name>
            </trkpt>
            <trkpt lon="10.6101016666667" lat="47.5000683333333">
                <ele>2040.1</ele>
                <time>2009-08-25T09:47:02.000Z</time>
                <name>Position 3068</name>
            </trkpt>
            <trkpt lon="10.6101033333333" lat="47.5000666666667">
                <ele>2040.0</ele>
                <time>2009-08-25T09:47:05.000Z</time>
                <name>Position 3069</name>
            </trkpt>
            <trkpt lon="10.6100966666667" lat="47.5000666666667">
                <ele>2040.0</ele>
                <time>2009-08-25T09:47:08.000Z</time>
                <name>Position 3070</name>
            </trkpt>
            <trkpt lon="10.6100766666667" lat="47.5000783333333">
                <ele>2040.1</ele>
                <time>2009-08-25T09:47:11.000Z</time>
                <name>Position 3071</name>
            </trkpt>
            <trkpt lon="10.610055" lat="47.500075">
                <ele>2040.1</ele>
                <time>2009-08-25T09:47:14.000Z</time>
                <name>Position 3072</name>
            </trkpt>
            <trkpt lon="10.6100716666667" lat="47.5000466666667">
                <ele>2041.2</ele>
                <time>2009-08-25T09:47:17.000Z</time>
                <name>Position 3073</name>
            </trkpt>
            <trkpt lon="10.610075" lat="47.500035">
                <ele>2042.5</ele>
                <time>2009-08-25T09:47:20.000Z</time>
                <name>Position 3074</name>
            </trkpt>
            <trkpt lon="10.6100666666667" lat="47.500025">
                <ele>2042.9</ele>
                <time>2009-08-25T09:47:23.000Z</time>
                <name>Position 3075</name>
            </trkpt>
            <trkpt lon="10.6100733333333" lat="47.5000183333333">
                <ele>2043.4</ele>
                <time>2009-08-25T09:47:26.000Z</time>
                <name>Position 3076</name>
            </trkpt>
            <trkpt lon="10.610075" lat="47.5000066666667">
                <ele>2043.8</ele>
                <time>2009-08-25T09:47:29.000Z</time>
                <name>Position 3077</name>
            </trkpt>
            <trkpt lon="10.61007" lat="47.5000066666667">
                <ele>2044.4</ele>
                <time>2009-08-25T09:47:32.000Z</time>
                <name>Position 3078</name>
            </trkpt>
            <trkpt lon="10.6100716666667" lat="47.5000016666667">
                <ele>2044.5</ele>
                <time>2009-08-25T09:47:35.000Z</time>
                <name>Position 3079</name>
            </trkpt>
            <trkpt lon="10.61007" lat="47.5000033333333">
                <ele>2044.6</ele>
                <time>2009-08-25T09:47:38.000Z</time>
                <name>Position 3080</name>
            </trkpt>
            <trkpt lon="10.6100733333333" lat="47.500005">
                <ele>2044.6</ele>
                <time>2009-08-25T09:47:41.000Z</time>
                <name>Position 3081</name>
            </trkpt>
            <trkpt lon="10.610075" lat="47.500005">
                <ele>2044.6</ele>
                <time>2009-08-25T09:47:44.000Z</time>
                <name>Position 3082</name>
            </trkpt>
            <trkpt lon="10.6100716666667" lat="47.5000016666667">
                <ele>2044.6</ele>
                <time>2009-08-25T09:47:47.000Z</time>
                <name>Position 3083</name>
            </trkpt>
            <trkpt lon="10.61007" lat="47.4999983333333">
                <ele>2044.5</ele>
                <time>2009-08-25T09:47:50.000Z</time>
                <name>Position 3084</name>
            </trkpt>
            <trkpt lon="10.6100716666667" lat="47.4999983333333">
                <ele>2044.5</ele>
                <time>2009-08-25T09:47:53.000Z</time>
                <name>Position 3085</name>
            </trkpt>
            <trkpt lon="10.61007" lat="47.4999983333333">
                <ele>2044.4</ele>
                <time>2009-08-25T09:47:56.000Z</time>
                <name>Position 3086</name>
            </trkpt>
            <trkpt lon="10.61007" lat="47.4999966666667">
                <ele>2044.3</ele>
                <time>2009-08-25T09:47:59.000Z</time>
                <name>Position 3087</name>
            </trkpt>
            <trkpt lon="10.61007" lat="47.4999966666667">
                <ele>2044.3</ele>
                <time>2009-08-25T09:48:02.000Z</time>
                <name>Position 3088</name>
            </trkpt>
            <trkpt lon="10.6100683333333" lat="47.499995">
                <ele>2044.2</ele>
                <time>2009-08-25T09:48:05.000Z</time>
                <name>Position 3089</name>
            </trkpt>
            <trkpt lon="10.6100683333333" lat="47.499995">
                <ele>2044.2</ele>
                <time>2009-08-25T09:48:08.000Z</time>
                <name>Position 3090</name>
            </trkpt>
            <trkpt lon="10.6100683333333" lat="47.499995">
                <ele>2044.2</ele>
                <time>2009-08-25T09:48:11.000Z</time>
                <name>Position 3091</name>
            </trkpt>
            <trkpt lon="10.6100683333333" lat="47.499995">
                <ele>2044.2</ele>
                <time>2009-08-25T09:48:14.000Z</time>
                <name>Position 3092</name>
            </trkpt>
            <trkpt lon="10.6100683333333" lat="47.4999916666667">
                <ele>2044.2</ele>
                <time>2009-08-25T09:48:17.000Z</time>
                <name>Position 3093</name>
            </trkpt>
            <trkpt lon="10.6100683333333" lat="47.49999">
                <ele>2044.2</ele>
                <time>2009-08-25T09:48:20.000Z</time>
                <name>Position 3094</name>
            </trkpt>
            <trkpt lon="10.6100666666667" lat="47.4999883333333">
                <ele>2044.2</ele>
                <time>2009-08-25T09:48:23.000Z</time>
                <name>Position 3095</name>
            </trkpt>
            <trkpt lon="10.6100666666667" lat="47.4999883333333">
                <ele>2044.1</ele>
                <time>2009-08-25T09:48:26.000Z</time>
                <name>Position 3096</name>
            </trkpt>
            <trkpt lon="10.6100666666667" lat="47.4999866666667">
                <ele>2044.1</ele>
                <time>2009-08-25T09:48:29.000Z</time>
                <name>Position 3097</name>
            </trkpt>
            <trkpt lon="10.6100666666667" lat="47.4999866666667">
                <ele>2044.1</ele>
                <time>2009-08-25T09:48:32.000Z</time>
                <name>Position 3098</name>
            </trkpt>
            <trkpt lon="10.6100666666667" lat="47.4999866666667">
                <ele>2044.0</ele>
                <time>2009-08-25T09:48:35.000Z</time>
                <name>Position 3099</name>
            </trkpt>
            <trkpt lon="10.6100666666667" lat="47.4999866666667">
                <ele>2044.0</ele>
                <time>2009-08-25T09:48:38.000Z</time>
                <name>Position 3100</name>
            </trkpt>
            <trkpt lon="10.6100666666667" lat="47.4999866666667">
                <ele>2044.0</ele>
                <time>2009-08-25T09:48:41.000Z</time>
                <name>Position 3101</name>
            </trkpt>
            <trkpt lon="10.6100666666667" lat="47.4999866666667">
                <ele>2044.0</ele>
                <time>2009-08-25T09:48:44.000Z</time>
                <name>Position 3102</name>
            </trkpt>
            <trkpt lon="10.6100666666667" lat="47.4999866666667">
                <ele>2044.0</ele>
                <time>2009-08-25T09:48:47.000Z</time>
                <name>Position 3103</name>
            </trkpt>
            <trkpt lon="10.6100666666667" lat="47.4999866666667">
                <ele>2044.0</ele>
                <time>2009-08-25T09:48:50.000Z</time>
                <name>Position 3104</name>
            </trkpt>
            <trkpt lon="10.6100666666667" lat="47.4999866666667">
                <ele>2044.0</ele>
                <time>2009-08-25T09:48:53.000Z</time>
                <name>Position 3105</name>
            </trkpt>
            <trkpt lon="10.6100666666667" lat="47.4999866666667">
                <ele>2044.0</ele>
                <time>2009-08-25T09:48:56.000Z</time>
                <name>Position 3106</name>
            </trkpt>
            <trkpt lon="10.6100666666667" lat="47.4999866666667">
                <ele>2044.0</ele>
                <time>2009-08-25T09:48:59.000Z</time>
                <name>Position 3107</name>
            </trkpt>
            <trkpt lon="10.6100483333333" lat="47.4999933333333">
                <ele>2044.3</ele>
                <time>2009-08-25T09:49:02.000Z</time>
                <name>Position 3108</name>
            </trkpt>
            <trkpt lon="10.6100283333333" lat="47.500015">
                <ele>2044.7</ele>
                <time>2009-08-25T09:49:05.000Z</time>
                <name>Position 3109</name>
            </trkpt>
            <trkpt lon="10.6100066666667" lat="47.5000233333333">
                <ele>2045.3</ele>
                <time>2009-08-25T09:49:08.000Z</time>
                <name>Position 3110</name>
            </trkpt>
            <trkpt lon="10.609995" lat="47.500035">
                <ele>2045.9</ele>
                <time>2009-08-25T09:49:11.000Z</time>
                <name>Position 3111</name>
            </trkpt>
            <trkpt lon="10.6099833333333" lat="47.50005">
                <ele>2046.4</ele>
                <time>2009-08-25T09:49:14.000Z</time>
                <name>Position 3112</name>
            </trkpt>
            <trkpt lon="10.609965" lat="47.5000633333333">
                <ele>2047.1</ele>
                <time>2009-08-25T09:49:17.000Z</time>
                <name>Position 3113</name>
            </trkpt>
            <trkpt lon="10.609945" lat="47.5000816666667">
                <ele>2047.6</ele>
                <time>2009-08-25T09:49:20.000Z</time>
                <name>Position 3114</name>
            </trkpt>
            <trkpt lon="10.6099216666667" lat="47.5000783333333">
                <ele>2048.1</ele>
                <time>2009-08-25T09:49:23.000Z</time>
                <name>Position 3115</name>
            </trkpt>
            <trkpt lon="10.6099066666667" lat="47.5000766666667">
                <ele>2048.3</ele>
                <time>2009-08-25T09:49:26.000Z</time>
                <name>Position 3116</name>
            </trkpt>
            <trkpt lon="10.6098933333333" lat="47.500065">
                <ele>2048.9</ele>
                <time>2009-08-25T09:49:29.000Z</time>
                <name>Position 3117</name>
            </trkpt>
            <trkpt lon="10.6098933333333" lat="47.500045">
                <ele>2049.8</ele>
                <time>2009-08-25T09:49:32.000Z</time>
                <name>Position 3118</name>
            </trkpt>
            <trkpt lon="10.6098716666667" lat="47.5000283333333">
                <ele>2050.5</ele>
                <time>2009-08-25T09:49:35.000Z</time>
                <name>Position 3119</name>
            </trkpt>
            <trkpt lon="10.60986" lat="47.5000083333333">
                <ele>2051.1</ele>
                <time>2009-08-25T09:49:38.000Z</time>
                <name>Position 3120</name>
            </trkpt>
            <trkpt lon="10.609845" lat="47.4999966666667">
                <ele>2051.9</ele>
                <time>2009-08-25T09:49:41.000Z</time>
                <name>Position 3121</name>
            </trkpt>
            <trkpt lon="10.609825" lat="47.49999">
                <ele>2052.5</ele>
                <time>2009-08-25T09:49:44.000Z</time>
                <name>Position 3122</name>
            </trkpt>
            <trkpt lon="10.609805" lat="47.4999783333333">
                <ele>2053.3</ele>
                <time>2009-08-25T09:49:47.000Z</time>
                <name>Position 3123</name>
            </trkpt>
            <trkpt lon="10.6097866666667" lat="47.4999716666667">
                <ele>2053.9</ele>
                <time>2009-08-25T09:49:50.000Z</time>
                <name>Position 3124</name>
            </trkpt>
            <trkpt lon="10.6097733333333" lat="47.4999783333333">
                <ele>2054.7</ele>
                <time>2009-08-25T09:49:53.000Z</time>
                <name>Position 3125</name>
            </trkpt>
            <trkpt lon="10.609765" lat="47.4999933333333">
                <ele>2055.5</ele>
                <time>2009-08-25T09:49:56.000Z</time>
                <name>Position 3126</name>
            </trkpt>
            <trkpt lon="10.6097666666667" lat="47.5000133333333">
                <ele>2056.2</ele>
                <time>2009-08-25T09:49:59.000Z</time>
                <name>Position 3127</name>
            </trkpt>
            <trkpt lon="10.6097466666667" lat="47.5000233333333">
                <ele>2057.3</ele>
                <time>2009-08-25T09:50:02.000Z</time>
                <name>Position 3128</name>
            </trkpt>
            <trkpt lon="10.6097516666667" lat="47.5000433333333">
                <ele>2058.2</ele>
                <time>2009-08-25T09:50:05.000Z</time>
                <name>Position 3129</name>
            </trkpt>
            <trkpt lon="10.6097416666667" lat="47.5000516666667">
                <ele>2058.9</ele>
                <time>2009-08-25T09:50:08.000Z</time>
                <name>Position 3130</name>
            </trkpt>
            <trkpt lon="10.609735" lat="47.5000533333333">
                <ele>2059.3</ele>
                <time>2009-08-25T09:50:11.000Z</time>
                <name>Position 3131</name>
            </trkpt>
            <trkpt lon="10.609735" lat="47.500055">
                <ele>2059.7</ele>
                <time>2009-08-25T09:50:14.000Z</time>
                <name>Position 3132</name>
            </trkpt>
            <trkpt lon="10.6097233333333" lat="47.500065">
                <ele>2060.0</ele>
                <time>2009-08-25T09:50:17.000Z</time>
                <name>Position 3133</name>
            </trkpt>
            <trkpt lon="10.6097183333333" lat="47.50008">
                <ele>2059.9</ele>
                <time>2009-08-25T09:50:20.000Z</time>
                <name>Position 3134</name>
            </trkpt>
            <trkpt lon="10.609705" lat="47.500085">
                <ele>2059.8</ele>
                <time>2009-08-25T09:50:23.000Z</time>
                <name>Position 3135</name>
            </trkpt>
            <trkpt lon="10.6096983333333" lat="47.5000716666667">
                <ele>2059.7</ele>
                <time>2009-08-25T09:50:26.000Z</time>
                <name>Position 3136</name>
            </trkpt>
            <trkpt lon="10.6096683333333" lat="47.500065">
                <ele>2059.9</ele>
                <time>2009-08-25T09:50:29.000Z</time>
                <name>Position 3137</name>
            </trkpt>
            <trkpt lon="10.6096683333333" lat="47.5000533333333">
                <ele>2059.7</ele>
                <time>2009-08-25T09:50:32.000Z</time>
                <name>Position 3138</name>
            </trkpt>
            <trkpt lon="10.6096633333333" lat="47.5000433333333">
                <ele>2059.9</ele>
                <time>2009-08-25T09:50:35.000Z</time>
                <name>Position 3139</name>
            </trkpt>
            <trkpt lon="10.60966" lat="47.500045">
                <ele>2059.9</ele>
                <time>2009-08-25T09:50:38.000Z</time>
                <name>Position 3140</name>
            </trkpt>
            <trkpt lon="10.60966" lat="47.500045">
                <ele>2059.9</ele>
                <time>2009-08-25T09:50:41.000Z</time>
                <name>Position 3141</name>
            </trkpt>
            <trkpt lon="10.60966" lat="47.500045">
                <ele>2059.8</ele>
                <time>2009-08-25T09:50:44.000Z</time>
                <name>Position 3142</name>
            </trkpt>
            <trkpt lon="10.60966" lat="47.500045">
                <ele>2059.8</ele>
                <time>2009-08-25T09:50:47.000Z</time>
                <name>Position 3143</name>
            </trkpt>
            <trkpt lon="10.60966" lat="47.5000466666667">
                <ele>2059.7</ele>
                <time>2009-08-25T09:50:50.000Z</time>
                <name>Position 3144</name>
            </trkpt>
            <trkpt lon="10.60966" lat="47.5000466666667">
                <ele>2059.7</ele>
                <time>2009-08-25T09:50:53.000Z</time>
                <name>Position 3145</name>
            </trkpt>
            <trkpt lon="10.60966" lat="47.5000466666667">
                <ele>2059.7</ele>
                <time>2009-08-25T09:50:56.000Z</time>
                <name>Position 3146</name>
            </trkpt>
            <trkpt lon="10.60966" lat="47.5000466666667">
                <ele>2059.7</ele>
                <time>2009-08-25T09:50:59.000Z</time>
                <name>Position 3147</name>
            </trkpt>
            <trkpt lon="10.60966" lat="47.5000466666667">
                <ele>2059.7</ele>
                <time>2009-08-25T09:51:02.000Z</time>
                <name>Position 3148</name>
            </trkpt>
            <trkpt lon="10.60966" lat="47.5000466666667">
                <ele>2059.7</ele>
                <time>2009-08-25T09:51:05.000Z</time>
                <name>Position 3149</name>
            </trkpt>
            <trkpt lon="10.60966" lat="47.5000466666667">
                <ele>2059.7</ele>
                <time>2009-08-25T09:51:08.000Z</time>
                <name>Position 3150</name>
            </trkpt>
            <trkpt lon="10.60966" lat="47.5000466666667">
                <ele>2059.7</ele>
                <time>2009-08-25T09:51:11.000Z</time>
                <name>Position 3151</name>
            </trkpt>
            <trkpt lon="10.60966" lat="47.5000466666667">
                <ele>2059.7</ele>
                <time>2009-08-25T09:51:14.000Z</time>
                <name>Position 3152</name>
            </trkpt>
            <trkpt lon="10.60966" lat="47.5000466666667">
                <ele>2059.7</ele>
                <time>2009-08-25T09:51:17.000Z</time>
                <name>Position 3153</name>
            </trkpt>
            <trkpt lon="10.60966" lat="47.5000466666667">
                <ele>2059.7</ele>
                <time>2009-08-25T09:51:20.000Z</time>
                <name>Position 3154</name>
            </trkpt>
            <trkpt lon="10.60966" lat="47.5000466666667">
                <ele>2059.8</ele>
                <time>2009-08-25T09:51:23.000Z</time>
                <name>Position 3155</name>
            </trkpt>
            <trkpt lon="10.6096533333333" lat="47.50004">
                <ele>2060.7</ele>
                <time>2009-08-25T09:51:26.000Z</time>
                <name>Position 3156</name>
            </trkpt>
            <trkpt lon="10.60965" lat="47.50003">
                <ele>2061.3</ele>
                <time>2009-08-25T09:51:29.000Z</time>
                <name>Position 3157</name>
            </trkpt>
            <trkpt lon="10.6096483333333" lat="47.5000183333333">
                <ele>2061.5</ele>
                <time>2009-08-25T09:51:32.000Z</time>
                <name>Position 3158</name>
            </trkpt>
            <trkpt lon="10.6096366666667" lat="47.5000233333333">
                <ele>2060.9</ele>
                <time>2009-08-25T09:51:35.000Z</time>
                <name>Position 3159</name>
            </trkpt>
            <trkpt lon="10.6096333333333" lat="47.5000216666667">
                <ele>2061.0</ele>
                <time>2009-08-25T09:51:38.000Z</time>
                <name>Position 3160</name>
            </trkpt>
            <trkpt lon="10.6096316666667" lat="47.500015">
                <ele>2061.1</ele>
                <time>2009-08-25T09:51:41.000Z</time>
                <name>Position 3161</name>
            </trkpt>
            <trkpt lon="10.6096416666667" lat="47.5000133333333">
                <ele>2061.8</ele>
                <time>2009-08-25T09:51:44.000Z</time>
                <name>Position 3162</name>
            </trkpt>
            <trkpt lon="10.6096383333333" lat="47.5000133333333">
                <ele>2061.7</ele>
                <time>2009-08-25T09:51:47.000Z</time>
                <name>Position 3163</name>
            </trkpt>
            <trkpt lon="10.6096433333333" lat="47.5000133333333">
                <ele>2061.7</ele>
                <time>2009-08-25T09:51:50.000Z</time>
                <name>Position 3164</name>
            </trkpt>
            <trkpt lon="10.60964" lat="47.5000066666667">
                <ele>2062.5</ele>
                <time>2009-08-25T09:51:53.000Z</time>
                <name>Position 3165</name>
            </trkpt>
            <trkpt lon="10.60963" lat="47.4999933333333">
                <ele>2063.6</ele>
                <time>2009-08-25T09:51:56.000Z</time>
                <name>Position 3166</name>
            </trkpt>
            <trkpt lon="10.609625" lat="47.4999783333333">
                <ele>2064.3</ele>
                <time>2009-08-25T09:51:59.000Z</time>
                <name>Position 3167</name>
            </trkpt>
            <trkpt lon="10.6096383333333" lat="47.4999683333333">
                <ele>2064.7</ele>
                <time>2009-08-25T09:52:02.000Z</time>
                <name>Position 3168</name>
            </trkpt>
            <trkpt lon="10.60962" lat="47.499965">
                <ele>2065.7</ele>
                <time>2009-08-25T09:52:05.000Z</time>
                <name>Position 3169</name>
            </trkpt>
            <trkpt lon="10.6096016666667" lat="47.4999583333333">
                <ele>2066.6</ele>
                <time>2009-08-25T09:52:08.000Z</time>
                <name>Position 3170</name>
            </trkpt>
            <trkpt lon="10.60959" lat="47.4999466666667">
                <ele>2068.0</ele>
                <time>2009-08-25T09:52:11.000Z</time>
                <name>Position 3171</name>
            </trkpt>
            <trkpt lon="10.6095866666667" lat="47.4999316666667">
                <ele>2067.7</ele>
                <time>2009-08-25T09:52:14.000Z</time>
                <name>Position 3172</name>
            </trkpt>
            <trkpt lon="10.60958" lat="47.4999216666667">
                <ele>2068.4</ele>
                <time>2009-08-25T09:52:17.000Z</time>
                <name>Position 3173</name>
            </trkpt>
            <trkpt lon="10.6095933333333" lat="47.499905">
                <ele>2069.3</ele>
                <time>2009-08-25T09:52:20.000Z</time>
                <name>Position 3174</name>
            </trkpt>
            <trkpt lon="10.6095816666667" lat="47.4999016666667">
                <ele>2070.5</ele>
                <time>2009-08-25T09:52:23.000Z</time>
                <name>Position 3175</name>
            </trkpt>
            <trkpt lon="10.609565" lat="47.4999033333333">
                <ele>2071.3</ele>
                <time>2009-08-25T09:52:26.000Z</time>
                <name>Position 3176</name>
            </trkpt>
            <trkpt lon="10.609565" lat="47.49989">
                <ele>2072.1</ele>
                <time>2009-08-25T09:52:29.000Z</time>
                <name>Position 3177</name>
            </trkpt>
            <trkpt lon="10.6095633333333" lat="47.4998783333333">
                <ele>2072.7</ele>
                <time>2009-08-25T09:52:32.000Z</time>
                <name>Position 3178</name>
            </trkpt>
            <trkpt lon="10.6095383333333" lat="47.4998833333333">
                <ele>2073.1</ele>
                <time>2009-08-25T09:52:35.000Z</time>
                <name>Position 3179</name>
            </trkpt>
            <trkpt lon="10.6095166666667" lat="47.499895">
                <ele>2073.6</ele>
                <time>2009-08-25T09:52:38.000Z</time>
                <name>Position 3180</name>
            </trkpt>
            <trkpt lon="10.6094966666667" lat="47.4999016666667">
                <ele>2074.3</ele>
                <time>2009-08-25T09:52:41.000Z</time>
                <name>Position 3181</name>
            </trkpt>
            <trkpt lon="10.609485" lat="47.499905">
                <ele>2074.8</ele>
                <time>2009-08-25T09:52:44.000Z</time>
                <name>Position 3182</name>
            </trkpt>
            <trkpt lon="10.60948" lat="47.499905">
                <ele>2074.9</ele>
                <time>2009-08-25T09:52:47.000Z</time>
                <name>Position 3183</name>
            </trkpt>
            <trkpt lon="10.60948" lat="47.4999033333333">
                <ele>2075.0</ele>
                <time>2009-08-25T09:52:50.000Z</time>
                <name>Position 3184</name>
            </trkpt>
            <trkpt lon="10.6094783333333" lat="47.4999033333333">
                <ele>2075.0</ele>
                <time>2009-08-25T09:52:53.000Z</time>
                <name>Position 3185</name>
            </trkpt>
            <trkpt lon="10.609455" lat="47.4999033333333">
                <ele>2075.5</ele>
                <time>2009-08-25T09:52:56.000Z</time>
                <name>Position 3186</name>
            </trkpt>
            <trkpt lon="10.6094566666667" lat="47.4998933333333">
                <ele>2076.3</ele>
                <time>2009-08-25T09:52:59.000Z</time>
                <name>Position 3187</name>
            </trkpt>
            <trkpt lon="10.6094633333333" lat="47.4998816666667">
                <ele>2077.2</ele>
                <time>2009-08-25T09:53:02.000Z</time>
                <name>Position 3188</name>
            </trkpt>
            <trkpt lon="10.6094583333333" lat="47.49987">
                <ele>2078.2</ele>
                <time>2009-08-25T09:53:05.000Z</time>
                <name>Position 3189</name>
            </trkpt>
            <trkpt lon="10.60944" lat="47.4998683333333">
                <ele>2079.2</ele>
                <time>2009-08-25T09:53:08.000Z</time>
                <name>Position 3190</name>
            </trkpt>
            <trkpt lon="10.6094416666667" lat="47.4998666666667">
                <ele>2079.5</ele>
                <time>2009-08-25T09:53:11.000Z</time>
                <name>Position 3191</name>
            </trkpt>
            <trkpt lon="10.6094333333333" lat="47.4998666666667">
                <ele>2079.6</ele>
                <time>2009-08-25T09:53:14.000Z</time>
                <name>Position 3192</name>
            </trkpt>
            <trkpt lon="10.60942" lat="47.49986">
                <ele>2080.5</ele>
                <time>2009-08-25T09:53:17.000Z</time>
                <name>Position 3193</name>
            </trkpt>
            <trkpt lon="10.6094216666667" lat="47.4998483333333">
                <ele>2081.7</ele>
                <time>2009-08-25T09:53:20.000Z</time>
                <name>Position 3194</name>
            </trkpt>
            <trkpt lon="10.6094266666667" lat="47.4998333333333">
                <ele>2082.5</ele>
                <time>2009-08-25T09:53:23.000Z</time>
                <name>Position 3195</name>
            </trkpt>
            <trkpt lon="10.609425" lat="47.4998216666667">
                <ele>2082.9</ele>
                <time>2009-08-25T09:53:26.000Z</time>
                <name>Position 3196</name>
            </trkpt>
            <trkpt lon="10.6094233333333" lat="47.4998216666667">
                <ele>2082.8</ele>
                <time>2009-08-25T09:53:29.000Z</time>
                <name>Position 3197</name>
            </trkpt>
            <trkpt lon="10.6094233333333" lat="47.49982">
                <ele>2082.8</ele>
                <time>2009-08-25T09:53:32.000Z</time>
                <name>Position 3198</name>
            </trkpt>
            <trkpt lon="10.6094216666667" lat="47.49982">
                <ele>2082.7</ele>
                <time>2009-08-25T09:53:35.000Z</time>
                <name>Position 3199</name>
            </trkpt>
            <trkpt lon="10.6094216666667" lat="47.49982">
                <ele>2082.4</ele>
                <time>2009-08-25T09:53:38.000Z</time>
                <name>Position 3200</name>
            </trkpt>
            <trkpt lon="10.60942" lat="47.49982">
                <ele>2082.2</ele>
                <time>2009-08-25T09:53:41.000Z</time>
                <name>Position 3201</name>
            </trkpt>
            <trkpt lon="10.60942" lat="47.49982">
                <ele>2082.0</ele>
                <time>2009-08-25T09:53:44.000Z</time>
                <name>Position 3202</name>
            </trkpt>
            <trkpt lon="10.6094216666667" lat="47.49982">
                <ele>2081.9</ele>
                <time>2009-08-25T09:53:47.000Z</time>
                <name>Position 3203</name>
            </trkpt>
            <trkpt lon="10.6094083333333" lat="47.4998216666667">
                <ele>2082.5</ele>
                <time>2009-08-25T09:53:50.000Z</time>
                <name>Position 3204</name>
            </trkpt>
            <trkpt lon="10.609405" lat="47.4998133333333">
                <ele>2083.3</ele>
                <time>2009-08-25T09:53:53.000Z</time>
                <name>Position 3205</name>
            </trkpt>
            <trkpt lon="10.609395" lat="47.4998216666667">
                <ele>2083.3</ele>
                <time>2009-08-25T09:53:56.000Z</time>
                <name>Position 3206</name>
            </trkpt>
            <trkpt lon="10.60937" lat="47.4998333333333">
                <ele>2083.2</ele>
                <time>2009-08-25T09:53:59.000Z</time>
                <name>Position 3207</name>
            </trkpt>
            <trkpt lon="10.6093533333333" lat="47.4998483333333">
                <ele>2083.1</ele>
                <time>2009-08-25T09:54:02.000Z</time>
                <name>Position 3208</name>
            </trkpt>
            <trkpt lon="10.6093483333333" lat="47.4998483333333">
                <ele>2082.4</ele>
                <time>2009-08-25T09:54:05.000Z</time>
                <name>Position 3209</name>
            </trkpt>
            <trkpt lon="10.6093483333333" lat="47.4998483333333">
                <ele>2082.2</ele>
                <time>2009-08-25T09:54:08.000Z</time>
                <name>Position 3210</name>
            </trkpt>
            <trkpt lon="10.6093483333333" lat="47.4998466666667">
                <ele>2082.2</ele>
                <time>2009-08-25T09:54:11.000Z</time>
                <name>Position 3211</name>
            </trkpt>
            <trkpt lon="10.6093483333333" lat="47.4998466666667">
                <ele>2082.1</ele>
                <time>2009-08-25T09:54:14.000Z</time>
                <name>Position 3212</name>
            </trkpt>
            <trkpt lon="10.6093483333333" lat="47.4998466666667">
                <ele>2082.2</ele>
                <time>2009-08-25T09:54:17.000Z</time>
                <name>Position 3213</name>
            </trkpt>
            <trkpt lon="10.60934" lat="47.499855">
                <ele>2081.6</ele>
                <time>2009-08-25T09:54:20.000Z</time>
                <name>Position 3214</name>
            </trkpt>
            <trkpt lon="10.60932" lat="47.49988">
                <ele>2081.6</ele>
                <time>2009-08-25T09:54:23.000Z</time>
                <name>Position 3215</name>
            </trkpt>
            <trkpt lon="10.6093116666667" lat="47.4999">
                <ele>2082.3</ele>
                <time>2009-08-25T09:54:26.000Z</time>
                <name>Position 3216</name>
            </trkpt>
            <trkpt lon="10.609305" lat="47.499915">
                <ele>2083.4</ele>
                <time>2009-08-25T09:54:29.000Z</time>
                <name>Position 3217</name>
            </trkpt>
            <trkpt lon="10.60931" lat="47.4999133333333">
                <ele>2083.5</ele>
                <time>2009-08-25T09:54:32.000Z</time>
                <name>Position 3218</name>
            </trkpt>
            <trkpt lon="10.6093116666667" lat="47.4999133333333">
                <ele>2083.5</ele>
                <time>2009-08-25T09:54:35.000Z</time>
                <name>Position 3219</name>
            </trkpt>
            <trkpt lon="10.6093083333333" lat="47.49992">
                <ele>2084.0</ele>
                <time>2009-08-25T09:54:38.000Z</time>
                <name>Position 3220</name>
            </trkpt>
            <trkpt lon="10.6092916666667" lat="47.4999116666667">
                <ele>2084.8</ele>
                <time>2009-08-25T09:54:41.000Z</time>
                <name>Position 3221</name>
            </trkpt>
            <trkpt lon="10.6092733333333" lat="47.4999033333333">
                <ele>2085.6</ele>
                <time>2009-08-25T09:54:44.000Z</time>
                <name>Position 3222</name>
            </trkpt>
            <trkpt lon="10.6092533333333" lat="47.4999083333333">
                <ele>2086.2</ele>
                <time>2009-08-25T09:54:47.000Z</time>
                <name>Position 3223</name>
            </trkpt>
            <trkpt lon="10.60924" lat="47.4999033333333">
                <ele>2087.5</ele>
                <time>2009-08-25T09:54:50.000Z</time>
                <name>Position 3224</name>
            </trkpt>
            <trkpt lon="10.609225" lat="47.4998983333333">
                <ele>2088.2</ele>
                <time>2009-08-25T09:54:53.000Z</time>
                <name>Position 3225</name>
            </trkpt>
            <trkpt lon="10.6092" lat="47.499895">
                <ele>2089.0</ele>
                <time>2009-08-25T09:54:56.000Z</time>
                <name>Position 3226</name>
            </trkpt>
            <trkpt lon="10.6091883333333" lat="47.499895">
                <ele>2089.2</ele>
                <time>2009-08-25T09:54:59.000Z</time>
                <name>Position 3227</name>
            </trkpt>
            <trkpt lon="10.6091866666667" lat="47.499895">
                <ele>2089.7</ele>
                <time>2009-08-25T09:55:02.000Z</time>
                <name>Position 3228</name>
            </trkpt>
            <trkpt lon="10.6091733333333" lat="47.4998833333333">
                <ele>2090.4</ele>
                <time>2009-08-25T09:55:05.000Z</time>
                <name>Position 3229</name>
            </trkpt>
            <trkpt lon="10.6091783333333" lat="47.4998816666667">
                <ele>2090.4</ele>
                <time>2009-08-25T09:55:08.000Z</time>
                <name>Position 3230</name>
            </trkpt>
            <trkpt lon="10.6091833333333" lat="47.4998816666667">
                <ele>2090.2</ele>
                <time>2009-08-25T09:55:11.000Z</time>
                <name>Position 3231</name>
            </trkpt>
            <trkpt lon="10.6091833333333" lat="47.4998816666667">
                <ele>2090.1</ele>
                <time>2009-08-25T09:55:14.000Z</time>
                <name>Position 3232</name>
            </trkpt>
            <trkpt lon="10.6091833333333" lat="47.4998816666667">
                <ele>2090.1</ele>
                <time>2009-08-25T09:55:17.000Z</time>
                <name>Position 3233</name>
            </trkpt>
            <trkpt lon="10.6091833333333" lat="47.49988">
                <ele>2090.0</ele>
                <time>2009-08-25T09:55:20.000Z</time>
                <name>Position 3234</name>
            </trkpt>
            <trkpt lon="10.6091833333333" lat="47.49988">
                <ele>2090.0</ele>
                <time>2009-08-25T09:55:23.000Z</time>
                <name>Position 3235</name>
            </trkpt>
            <trkpt lon="10.6091833333333" lat="47.49988">
                <ele>2090.0</ele>
                <time>2009-08-25T09:55:26.000Z</time>
                <name>Position 3236</name>
            </trkpt>
            <trkpt lon="10.6091833333333" lat="47.49988">
                <ele>2090.0</ele>
                <time>2009-08-25T09:55:29.000Z</time>
                <name>Position 3237</name>
            </trkpt>
            <trkpt lon="10.6091833333333" lat="47.49988">
                <ele>2090.0</ele>
                <time>2009-08-25T09:55:32.000Z</time>
                <name>Position 3238</name>
            </trkpt>
            <trkpt lon="10.6091833333333" lat="47.49988">
                <ele>2090.0</ele>
                <time>2009-08-25T09:55:35.000Z</time>
                <name>Position 3239</name>
            </trkpt>
            <trkpt lon="10.6091833333333" lat="47.49988">
                <ele>2090.1</ele>
                <time>2009-08-25T09:55:38.000Z</time>
                <name>Position 3240</name>
            </trkpt>
            <trkpt lon="10.6091833333333" lat="47.49988">
                <ele>2090.1</ele>
                <time>2009-08-25T09:55:41.000Z</time>
                <name>Position 3241</name>
            </trkpt>
            <trkpt lon="10.6091833333333" lat="47.49988">
                <ele>2090.1</ele>
                <time>2009-08-25T09:55:44.000Z</time>
                <name>Position 3242</name>
            </trkpt>
            <trkpt lon="10.6091833333333" lat="47.49988">
                <ele>2090.1</ele>
                <time>2009-08-25T09:55:47.000Z</time>
                <name>Position 3243</name>
            </trkpt>
            <trkpt lon="10.609185" lat="47.49988">
                <ele>2090.1</ele>
                <time>2009-08-25T09:55:50.000Z</time>
                <name>Position 3244</name>
            </trkpt>
            <trkpt lon="10.6091966666667" lat="47.4998816666667">
                <ele>2091.0</ele>
                <time>2009-08-25T09:55:54.000Z</time>
                <name>Position 3245</name>
            </trkpt>
            <trkpt lon="10.6091983333333" lat="47.4998833333333">
                <ele>2091.5</ele>
                <time>2009-08-25T09:55:57.000Z</time>
                <name>Position 3246</name>
            </trkpt>
            <trkpt lon="10.6091983333333" lat="47.4998833333333">
                <ele>2091.6</ele>
                <time>2009-08-25T09:56:00.000Z</time>
                <name>Position 3247</name>
            </trkpt>
            <trkpt lon="10.6091983333333" lat="47.4998833333333">
                <ele>2091.6</ele>
                <time>2009-08-25T09:56:03.000Z</time>
                <name>Position 3248</name>
            </trkpt>
            <trkpt lon="10.6091983333333" lat="47.4998833333333">
                <ele>2091.6</ele>
                <time>2009-08-25T09:56:06.000Z</time>
                <name>Position 3249</name>
            </trkpt>
            <trkpt lon="10.6091983333333" lat="47.4998833333333">
                <ele>2091.6</ele>
                <time>2009-08-25T09:56:09.000Z</time>
                <name>Position 3250</name>
            </trkpt>
            <trkpt lon="10.6091983333333" lat="47.4998833333333">
                <ele>2091.6</ele>
                <time>2009-08-25T09:56:12.000Z</time>
                <name>Position 3251</name>
            </trkpt>
            <trkpt lon="10.6091983333333" lat="47.4998833333333">
                <ele>2091.6</ele>
                <time>2009-08-25T09:56:15.000Z</time>
                <name>Position 3252</name>
            </trkpt>
            <trkpt lon="10.6091966666667" lat="47.4998783333333">
                <ele>2092.7</ele>
                <time>2009-08-25T09:56:18.000Z</time>
                <name>Position 3253</name>
            </trkpt>
            <trkpt lon="10.6092083333333" lat="47.4998633333333">
                <ele>2096.4</ele>
                <time>2009-08-25T09:56:21.000Z</time>
                <name>Position 3254</name>
            </trkpt>
            <trkpt lon="10.6092083333333" lat="47.4998533333333">
                <ele>2098.7</ele>
                <time>2009-08-25T09:56:24.000Z</time>
                <name>Position 3255</name>
            </trkpt>
            <trkpt lon="10.609205" lat="47.49985">
                <ele>2100.4</ele>
                <time>2009-08-25T09:56:27.000Z</time>
                <name>Position 3256</name>
            </trkpt>
            <trkpt lon="10.6092033333333" lat="47.4998516666667">
                <ele>2101.7</ele>
                <time>2009-08-25T09:56:30.000Z</time>
                <name>Position 3257</name>
            </trkpt>
            <trkpt lon="10.6092033333333" lat="47.4998416666667">
                <ele>2103.5</ele>
                <time>2009-08-25T09:56:33.000Z</time>
                <name>Position 3258</name>
            </trkpt>
            <trkpt lon="10.609195" lat="47.49984">
                <ele>2104.6</ele>
                <time>2009-08-25T09:56:36.000Z</time>
                <name>Position 3259</name>
            </trkpt>
            <trkpt lon="10.6091983333333" lat="47.4998266666667">
                <ele>2105.5</ele>
                <time>2009-08-25T09:56:39.000Z</time>
                <name>Position 3260</name>
            </trkpt>
            <trkpt lon="10.6092" lat="47.4998266666667">
                <ele>2106.0</ele>
                <time>2009-08-25T09:56:42.000Z</time>
                <name>Position 3261</name>
            </trkpt>
            <trkpt lon="10.6092033333333" lat="47.4998233333333">
                <ele>2106.1</ele>
                <time>2009-08-25T09:56:45.000Z</time>
                <name>Position 3262</name>
            </trkpt>
            <trkpt lon="10.609205" lat="47.4998233333333">
                <ele>2106.2</ele>
                <time>2009-08-25T09:56:48.000Z</time>
                <name>Position 3263</name>
            </trkpt>
            <trkpt lon="10.609205" lat="47.4998233333333">
                <ele>2106.2</ele>
                <time>2009-08-25T09:56:51.000Z</time>
                <name>Position 3264</name>
            </trkpt>
            <trkpt lon="10.6092066666667" lat="47.4998233333333">
                <ele>2106.2</ele>
                <time>2009-08-25T09:56:54.000Z</time>
                <name>Position 3265</name>
            </trkpt>
            <trkpt lon="10.609205" lat="47.4998233333333">
                <ele>2106.3</ele>
                <time>2009-08-25T09:56:57.000Z</time>
                <name>Position 3266</name>
            </trkpt>
            <trkpt lon="10.609205" lat="47.4998233333333">
                <ele>2106.3</ele>
                <time>2009-08-25T09:57:00.000Z</time>
                <name>Position 3267</name>
            </trkpt>
            <trkpt lon="10.6092066666667" lat="47.4998233333333">
                <ele>2106.3</ele>
                <time>2009-08-25T09:57:03.000Z</time>
                <name>Position 3268</name>
            </trkpt>
            <trkpt lon="10.6092066666667" lat="47.4998233333333">
                <ele>2106.3</ele>
                <time>2009-08-25T09:57:06.000Z</time>
                <name>Position 3269</name>
            </trkpt>
            <trkpt lon="10.6092083333333" lat="47.4998216666667">
                <ele>2106.4</ele>
                <time>2009-08-25T09:57:09.000Z</time>
                <name>Position 3270</name>
            </trkpt>
            <trkpt lon="10.60921" lat="47.49982">
                <ele>2106.5</ele>
                <time>2009-08-25T09:57:12.000Z</time>
                <name>Position 3271</name>
            </trkpt>
            <trkpt lon="10.60921" lat="47.49982">
                <ele>2106.5</ele>
                <time>2009-08-25T09:57:15.000Z</time>
                <name>Position 3272</name>
            </trkpt>
            <trkpt lon="10.60921" lat="47.49982">
                <ele>2106.5</ele>
                <time>2009-08-25T09:57:18.000Z</time>
                <name>Position 3273</name>
            </trkpt>
            <trkpt lon="10.60921" lat="47.49982">
                <ele>2106.5</ele>
                <time>2009-08-25T09:57:21.000Z</time>
                <name>Position 3274</name>
            </trkpt>
            <trkpt lon="10.60921" lat="47.49982">
                <ele>2106.5</ele>
                <time>2009-08-25T09:57:24.000Z</time>
                <name>Position 3275</name>
            </trkpt>
            <trkpt lon="10.60921" lat="47.4998216666667">
                <ele>2106.5</ele>
                <time>2009-08-25T09:57:27.000Z</time>
                <name>Position 3276</name>
            </trkpt>
            <trkpt lon="10.60921" lat="47.4998216666667">
                <ele>2106.5</ele>
                <time>2009-08-25T09:57:30.000Z</time>
                <name>Position 3277</name>
            </trkpt>
            <trkpt lon="10.60921" lat="47.4998216666667">
                <ele>2106.6</ele>
                <time>2009-08-25T09:57:33.000Z</time>
                <name>Position 3278</name>
            </trkpt>
            <trkpt lon="10.60921" lat="47.4998216666667">
                <ele>2106.6</ele>
                <time>2009-08-25T09:57:36.000Z</time>
                <name>Position 3279</name>
            </trkpt>
            <trkpt lon="10.60921" lat="47.4998216666667">
                <ele>2106.6</ele>
                <time>2009-08-25T09:57:39.000Z</time>
                <name>Position 3280</name>
            </trkpt>
            <trkpt lon="10.60921" lat="47.4998216666667">
                <ele>2106.6</ele>
                <time>2009-08-25T09:57:42.000Z</time>
                <name>Position 3281</name>
            </trkpt>
            <trkpt lon="10.60921" lat="47.4998216666667">
                <ele>2106.6</ele>
                <time>2009-08-25T09:57:45.000Z</time>
                <name>Position 3282</name>
            </trkpt>
            <trkpt lon="10.6092116666667" lat="47.4998166666667">
                <ele>2106.7</ele>
                <time>2009-08-25T09:57:48.000Z</time>
                <name>Position 3283</name>
            </trkpt>
            <trkpt lon="10.6092166666667" lat="47.499815">
                <ele>2106.9</ele>
                <time>2009-08-25T09:57:51.000Z</time>
                <name>Position 3284</name>
            </trkpt>
            <trkpt lon="10.6092216666667" lat="47.4998166666667">
                <ele>2107.2</ele>
                <time>2009-08-25T09:57:54.000Z</time>
                <name>Position 3285</name>
            </trkpt>
            <trkpt lon="10.6092216666667" lat="47.499815">
                <ele>2107.1</ele>
                <time>2009-08-25T09:57:57.000Z</time>
                <name>Position 3286</name>
            </trkpt>
            <trkpt lon="10.6092216666667" lat="47.4998133333333">
                <ele>2106.9</ele>
                <time>2009-08-25T09:58:00.000Z</time>
                <name>Position 3287</name>
            </trkpt>
            <trkpt lon="10.6092216666667" lat="47.4998133333333">
                <ele>2106.8</ele>
                <time>2009-08-25T09:58:03.000Z</time>
                <name>Position 3288</name>
            </trkpt>
            <trkpt lon="10.6092216666667" lat="47.4998133333333">
                <ele>2107.2</ele>
                <time>2009-08-25T09:58:06.000Z</time>
                <name>Position 3289</name>
            </trkpt>
            <trkpt lon="10.60922" lat="47.4998133333333">
                <ele>2107.1</ele>
                <time>2009-08-25T09:58:09.000Z</time>
                <name>Position 3290</name>
            </trkpt>
            <trkpt lon="10.6092233333333" lat="47.499815">
                <ele>2107.2</ele>
                <time>2009-08-25T09:58:12.000Z</time>
                <name>Position 3291</name>
            </trkpt>
            <trkpt lon="10.6092183333333" lat="47.4998133333333">
                <ele>2107.1</ele>
                <time>2009-08-25T09:58:15.000Z</time>
                <name>Position 3292</name>
            </trkpt>
            <trkpt lon="10.6092183333333" lat="47.4998133333333">
                <ele>2107.0</ele>
                <time>2009-08-25T09:58:18.000Z</time>
                <name>Position 3293</name>
            </trkpt>
            <trkpt lon="10.6092183333333" lat="47.4998133333333">
                <ele>2106.9</ele>
                <time>2009-08-25T09:58:21.000Z</time>
                <name>Position 3294</name>
            </trkpt>
            <trkpt lon="10.6092183333333" lat="47.4998133333333">
                <ele>2106.9</ele>
                <time>2009-08-25T09:58:24.000Z</time>
                <name>Position 3295</name>
            </trkpt>
            <trkpt lon="10.6092183333333" lat="47.4998133333333">
                <ele>2106.9</ele>
                <time>2009-08-25T09:58:27.000Z</time>
                <name>Position 3296</name>
            </trkpt>
            <trkpt lon="10.6092183333333" lat="47.4998133333333">
                <ele>2107.0</ele>
                <time>2009-08-25T09:58:30.000Z</time>
                <name>Position 3297</name>
            </trkpt>
            <trkpt lon="10.6092183333333" lat="47.4998133333333">
                <ele>2107.0</ele>
                <time>2009-08-25T09:58:33.000Z</time>
                <name>Position 3298</name>
            </trkpt>
            <trkpt lon="10.6092183333333" lat="47.4998133333333">
                <ele>2107.0</ele>
                <time>2009-08-25T09:58:36.000Z</time>
                <name>Position 3299</name>
            </trkpt>
            <trkpt lon="10.6092183333333" lat="47.4998133333333">
                <ele>2107.0</ele>
                <time>2009-08-25T09:58:39.000Z</time>
                <name>Position 3300</name>
            </trkpt>
            <trkpt lon="10.60922" lat="47.4998133333333">
                <ele>2107.0</ele>
                <time>2009-08-25T09:58:42.000Z</time>
                <name>Position 3301</name>
            </trkpt>
            <trkpt lon="10.60922" lat="47.4998133333333">
                <ele>2107.0</ele>
                <time>2009-08-25T09:58:45.000Z</time>
                <name>Position 3302</name>
            </trkpt>
            <trkpt lon="10.60922" lat="47.499815">
                <ele>2107.0</ele>
                <time>2009-08-25T09:58:48.000Z</time>
                <name>Position 3303</name>
            </trkpt>
            <trkpt lon="10.60922" lat="47.499815">
                <ele>2107.0</ele>
                <time>2009-08-25T09:58:51.000Z</time>
                <name>Position 3304</name>
            </trkpt>
            <trkpt lon="10.60922" lat="47.499815">
                <ele>2107.0</ele>
                <time>2009-08-25T09:58:54.000Z</time>
                <name>Position 3305</name>
            </trkpt>
            <trkpt lon="10.60922" lat="47.499815">
                <ele>2107.0</ele>
                <time>2009-08-25T09:58:57.000Z</time>
                <name>Position 3306</name>
            </trkpt>
            <trkpt lon="10.6091966666667" lat="47.4998316666667">
                <ele>2107.1</ele>
                <time>2009-08-25T09:59:00.000Z</time>
                <name>Position 3307</name>
            </trkpt>
            <trkpt lon="10.6091983333333" lat="47.4998316666667">
                <ele>2107.0</ele>
                <time>2009-08-25T09:59:03.000Z</time>
                <name>Position 3308</name>
            </trkpt>
            <trkpt lon="10.6091933333333" lat="47.49983">
                <ele>2107.4</ele>
                <time>2009-08-25T09:59:06.000Z</time>
                <name>Position 3309</name>
            </trkpt>
            <trkpt lon="10.6091833333333" lat="47.4998216666667">
                <ele>2107.9</ele>
                <time>2009-08-25T09:59:09.000Z</time>
                <name>Position 3310</name>
            </trkpt>
            <trkpt lon="10.6091783333333" lat="47.4998183333333">
                <ele>2108.1</ele>
                <time>2009-08-25T09:59:12.000Z</time>
                <name>Position 3311</name>
            </trkpt>
            <trkpt lon="10.6091916666667" lat="47.4998116666667">
                <ele>2109.4</ele>
                <time>2009-08-25T09:59:15.000Z</time>
                <name>Position 3312</name>
            </trkpt>
            <trkpt lon="10.6092016666667" lat="47.4998">
                <ele>2110.3</ele>
                <time>2009-08-25T09:59:18.000Z</time>
                <name>Position 3313</name>
            </trkpt>
            <trkpt lon="10.609225" lat="47.4997833333333">
                <ele>2111.8</ele>
                <time>2009-08-25T09:59:21.000Z</time>
                <name>Position 3314</name>
            </trkpt>
            <trkpt lon="10.6092133333333" lat="47.49976">
                <ele>2112.1</ele>
                <time>2009-08-25T09:59:24.000Z</time>
                <name>Position 3315</name>
            </trkpt>
            <trkpt lon="10.6091983333333" lat="47.4997466666667">
                <ele>2112.8</ele>
                <time>2009-08-25T09:59:27.000Z</time>
                <name>Position 3316</name>
            </trkpt>
            <trkpt lon="10.6092016666667" lat="47.499745">
                <ele>2113.2</ele>
                <time>2009-08-25T09:59:30.000Z</time>
                <name>Position 3317</name>
            </trkpt>
            <trkpt lon="10.6092" lat="47.499745">
                <ele>2113.3</ele>
                <time>2009-08-25T09:59:33.000Z</time>
                <name>Position 3318</name>
            </trkpt>
            <trkpt lon="10.6092" lat="47.4997433333333">
                <ele>2113.2</ele>
                <time>2009-08-25T09:59:36.000Z</time>
                <name>Position 3319</name>
            </trkpt>
            <trkpt lon="10.6092" lat="47.4997433333333">
                <ele>2113.3</ele>
                <time>2009-08-25T09:59:39.000Z</time>
                <name>Position 3320</name>
            </trkpt>
            <trkpt lon="10.6091866666667" lat="47.4997216666667">
                <ele>2113.9</ele>
                <time>2009-08-25T09:59:42.000Z</time>
                <name>Position 3321</name>
            </trkpt>
            <trkpt lon="10.6091783333333" lat="47.4996983333333">
                <ele>2114.9</ele>
                <time>2009-08-25T09:59:45.000Z</time>
                <name>Position 3322</name>
            </trkpt>
            <trkpt lon="10.6091766666667" lat="47.4996733333333">
                <ele>2115.8</ele>
                <time>2009-08-25T09:59:48.000Z</time>
                <name>Position 3323</name>
            </trkpt>
            <trkpt lon="10.6091583333333" lat="47.4996733333333">
                <ele>2116.3</ele>
                <time>2009-08-25T09:59:51.000Z</time>
                <name>Position 3324</name>
            </trkpt>
            <trkpt lon="10.6091466666667" lat="47.4996866666667">
                <ele>2117.0</ele>
                <time>2009-08-25T09:59:54.000Z</time>
                <name>Position 3325</name>
            </trkpt>
            <trkpt lon="10.6091383333333" lat="47.4997033333333">
                <ele>2117.7</ele>
                <time>2009-08-25T09:59:57.000Z</time>
                <name>Position 3326</name>
            </trkpt>
            <trkpt lon="10.6091116666667" lat="47.49971">
                <ele>2118.3</ele>
                <time>2009-08-25T10:00:00.000Z</time>
                <name>Position 3327</name>
            </trkpt>
            <trkpt lon="10.6090933333333" lat="47.49971">
                <ele>2119.0</ele>
                <time>2009-08-25T10:00:03.000Z</time>
                <name>Position 3328</name>
            </trkpt>
            <trkpt lon="10.6090766666667" lat="47.49971">
                <ele>2119.0</ele>
                <time>2009-08-25T10:00:06.000Z</time>
                <name>Position 3329</name>
            </trkpt>
            <trkpt lon="10.609055" lat="47.4997033333333">
                <ele>2119.7</ele>
                <time>2009-08-25T10:00:09.000Z</time>
                <name>Position 3330</name>
            </trkpt>
            <trkpt lon="10.6090433333333" lat="47.4996966666667">
                <ele>2120.4</ele>
                <time>2009-08-25T10:00:12.000Z</time>
                <name>Position 3331</name>
            </trkpt>
            <trkpt lon="10.6090233333333" lat="47.49971">
                <ele>2121.5</ele>
                <time>2009-08-25T10:00:15.000Z</time>
                <name>Position 3332</name>
            </trkpt>
            <trkpt lon="10.6090033333333" lat="47.4997066666667">
                <ele>2122.3</ele>
                <time>2009-08-25T10:00:18.000Z</time>
                <name>Position 3333</name>
            </trkpt>
            <trkpt lon="10.60898" lat="47.4997">
                <ele>2123.3</ele>
                <time>2009-08-25T10:00:21.000Z</time>
                <name>Position 3334</name>
            </trkpt>
            <trkpt lon="10.60896" lat="47.49971">
                <ele>2123.7</ele>
                <time>2009-08-25T10:00:24.000Z</time>
                <name>Position 3335</name>
            </trkpt>
            <trkpt lon="10.6089583333333" lat="47.4996933333333">
                <ele>2124.5</ele>
                <time>2009-08-25T10:00:27.000Z</time>
                <name>Position 3336</name>
            </trkpt>
            <trkpt lon="10.6089466666667" lat="47.4996833333333">
                <ele>2125.4</ele>
                <time>2009-08-25T10:00:30.000Z</time>
                <name>Position 3337</name>
            </trkpt>
            <trkpt lon="10.6089483333333" lat="47.4996833333333">
                <ele>2125.7</ele>
                <time>2009-08-25T10:00:33.000Z</time>
                <name>Position 3338</name>
            </trkpt>
            <trkpt lon="10.60895" lat="47.499685">
                <ele>2125.7</ele>
                <time>2009-08-25T10:00:36.000Z</time>
                <name>Position 3339</name>
            </trkpt>
            <trkpt lon="10.60895" lat="47.4996833333333">
                <ele>2125.8</ele>
                <time>2009-08-25T10:00:39.000Z</time>
                <name>Position 3340</name>
            </trkpt>
            <trkpt lon="10.6089483333333" lat="47.4996833333333">
                <ele>2125.9</ele>
                <time>2009-08-25T10:00:42.000Z</time>
                <name>Position 3341</name>
            </trkpt>
            <trkpt lon="10.6089533333333" lat="47.49967">
                <ele>2126.4</ele>
                <time>2009-08-25T10:00:45.000Z</time>
                <name>Position 3342</name>
            </trkpt>
            <trkpt lon="10.6089366666667" lat="47.49966">
                <ele>2127.2</ele>
                <time>2009-08-25T10:00:48.000Z</time>
                <name>Position 3343</name>
            </trkpt>
            <trkpt lon="10.608915" lat="47.499645">
                <ele>2128.0</ele>
                <time>2009-08-25T10:00:51.000Z</time>
                <name>Position 3344</name>
            </trkpt>
            <trkpt lon="10.6089033333333" lat="47.4996333333333">
                <ele>2128.5</ele>
                <time>2009-08-25T10:00:54.000Z</time>
                <name>Position 3345</name>
            </trkpt>
            <trkpt lon="10.608895" lat="47.49962">
                <ele>2129.4</ele>
                <time>2009-08-25T10:00:57.000Z</time>
                <name>Position 3346</name>
            </trkpt>
            <trkpt lon="10.608885" lat="47.4996066666667">
                <ele>2130.3</ele>
                <time>2009-08-25T10:01:00.000Z</time>
                <name>Position 3347</name>
            </trkpt>
            <trkpt lon="10.6088666666667" lat="47.499595">
                <ele>2130.8</ele>
                <time>2009-08-25T10:01:03.000Z</time>
                <name>Position 3348</name>
            </trkpt>
            <trkpt lon="10.60886" lat="47.49958">
                <ele>2131.7</ele>
                <time>2009-08-25T10:01:06.000Z</time>
                <name>Position 3349</name>
            </trkpt>
            <trkpt lon="10.6088583333333" lat="47.4995616666667">
                <ele>2132.4</ele>
                <time>2009-08-25T10:01:09.000Z</time>
                <name>Position 3350</name>
            </trkpt>
            <trkpt lon="10.6088566666667" lat="47.4995483333333">
                <ele>2133.1</ele>
                <time>2009-08-25T10:01:12.000Z</time>
                <name>Position 3351</name>
            </trkpt>
            <trkpt lon="10.608845" lat="47.4995383333333">
                <ele>2133.5</ele>
                <time>2009-08-25T10:01:15.000Z</time>
                <name>Position 3352</name>
            </trkpt>
            <trkpt lon="10.60884" lat="47.499535">
                <ele>2134.0</ele>
                <time>2009-08-25T10:01:18.000Z</time>
                <name>Position 3353</name>
            </trkpt>
            <trkpt lon="10.60884" lat="47.4995383333333">
                <ele>2133.9</ele>
                <time>2009-08-25T10:01:21.000Z</time>
                <name>Position 3354</name>
            </trkpt>
            <trkpt lon="10.60884" lat="47.4995383333333">
                <ele>2133.9</ele>
                <time>2009-08-25T10:01:24.000Z</time>
                <name>Position 3355</name>
            </trkpt>
            <trkpt lon="10.60884" lat="47.4995366666667">
                <ele>2133.8</ele>
                <time>2009-08-25T10:01:27.000Z</time>
                <name>Position 3356</name>
            </trkpt>
            <trkpt lon="10.60884" lat="47.4995383333333">
                <ele>2133.8</ele>
                <time>2009-08-25T10:01:30.000Z</time>
                <name>Position 3357</name>
            </trkpt>
            <trkpt lon="10.6088316666667" lat="47.4995383333333">
                <ele>2133.8</ele>
                <time>2009-08-25T10:01:33.000Z</time>
                <name>Position 3358</name>
            </trkpt>
            <trkpt lon="10.6088083333333" lat="47.4995316666667">
                <ele>2134.6</ele>
                <time>2009-08-25T10:01:36.000Z</time>
                <name>Position 3359</name>
            </trkpt>
            <trkpt lon="10.6088" lat="47.4995283333333">
                <ele>2134.9</ele>
                <time>2009-08-25T10:01:39.000Z</time>
                <name>Position 3360</name>
            </trkpt>
            <trkpt lon="10.6088016666667" lat="47.499525">
                <ele>2135.0</ele>
                <time>2009-08-25T10:01:42.000Z</time>
                <name>Position 3361</name>
            </trkpt>
            <trkpt lon="10.6088016666667" lat="47.4995233333333">
                <ele>2134.9</ele>
                <time>2009-08-25T10:01:45.000Z</time>
                <name>Position 3362</name>
            </trkpt>
            <trkpt lon="10.6088016666667" lat="47.4995233333333">
                <ele>2134.8</ele>
                <time>2009-08-25T10:01:48.000Z</time>
                <name>Position 3363</name>
            </trkpt>
            <trkpt lon="10.6088016666667" lat="47.4995233333333">
                <ele>2134.8</ele>
                <time>2009-08-25T10:01:51.000Z</time>
                <name>Position 3364</name>
            </trkpt>
            <trkpt lon="10.6088016666667" lat="47.4995233333333">
                <ele>2134.7</ele>
                <time>2009-08-25T10:01:54.000Z</time>
                <name>Position 3365</name>
            </trkpt>
            <trkpt lon="10.6088016666667" lat="47.4995233333333">
                <ele>2134.6</ele>
                <time>2009-08-25T10:01:57.000Z</time>
                <name>Position 3366</name>
            </trkpt>
            <trkpt lon="10.6088016666667" lat="47.4995233333333">
                <ele>2134.6</ele>
                <time>2009-08-25T10:02:00.000Z</time>
                <name>Position 3367</name>
            </trkpt>
            <trkpt lon="10.6088016666667" lat="47.4995233333333">
                <ele>2134.6</ele>
                <time>2009-08-25T10:02:03.000Z</time>
                <name>Position 3368</name>
            </trkpt>
            <trkpt lon="10.6088016666667" lat="47.4995233333333">
                <ele>2134.6</ele>
                <time>2009-08-25T10:02:06.000Z</time>
                <name>Position 3369</name>
            </trkpt>
            <trkpt lon="10.6088016666667" lat="47.4995233333333">
                <ele>2134.6</ele>
                <time>2009-08-25T10:02:09.000Z</time>
                <name>Position 3370</name>
            </trkpt>
            <trkpt lon="10.6088016666667" lat="47.4995233333333">
                <ele>2134.6</ele>
                <time>2009-08-25T10:02:12.000Z</time>
                <name>Position 3371</name>
            </trkpt>
            <trkpt lon="10.6088016666667" lat="47.4995233333333">
                <ele>2134.6</ele>
                <time>2009-08-25T10:02:15.000Z</time>
                <name>Position 3372</name>
            </trkpt>
            <trkpt lon="10.6088016666667" lat="47.4995233333333">
                <ele>2134.6</ele>
                <time>2009-08-25T10:02:18.000Z</time>
                <name>Position 3373</name>
            </trkpt>
            <trkpt lon="10.6088016666667" lat="47.4995233333333">
                <ele>2134.6</ele>
                <time>2009-08-25T10:02:21.000Z</time>
                <name>Position 3374</name>
            </trkpt>
            <trkpt lon="10.6088066666667" lat="47.499525">
                <ele>2134.6</ele>
                <time>2009-08-25T10:02:24.000Z</time>
                <name>Position 3375</name>
            </trkpt>
            <trkpt lon="10.6088033333333" lat="47.4995266666667">
                <ele>2134.7</ele>
                <time>2009-08-25T10:02:27.000Z</time>
                <name>Position 3376</name>
            </trkpt>
            <trkpt lon="10.608805" lat="47.4995266666667">
                <ele>2134.6</ele>
                <time>2009-08-25T10:02:30.000Z</time>
                <name>Position 3377</name>
            </trkpt>
            <trkpt lon="10.6088033333333" lat="47.4995266666667">
                <ele>2134.6</ele>
                <time>2009-08-25T10:02:33.000Z</time>
                <name>Position 3378</name>
            </trkpt>
            <trkpt lon="10.6088033333333" lat="47.4995266666667">
                <ele>2134.5</ele>
                <time>2009-08-25T10:02:36.000Z</time>
                <name>Position 3379</name>
            </trkpt>
            <trkpt lon="10.6088016666667" lat="47.4995233333333">
                <ele>2134.6</ele>
                <time>2009-08-25T10:02:39.000Z</time>
                <name>Position 3380</name>
            </trkpt>
            <trkpt lon="10.6088033333333" lat="47.4995233333333">
                <ele>2134.6</ele>
                <time>2009-08-25T10:02:42.000Z</time>
                <name>Position 3381</name>
            </trkpt>
            <trkpt lon="10.6087933333333" lat="47.4995233333333">
                <ele>2135.2</ele>
                <time>2009-08-25T10:02:45.000Z</time>
                <name>Position 3382</name>
            </trkpt>
            <trkpt lon="10.60876" lat="47.4995233333333">
                <ele>2136.1</ele>
                <time>2009-08-25T10:02:48.000Z</time>
                <name>Position 3383</name>
            </trkpt>
            <trkpt lon="10.6087466666667" lat="47.4995283333333">
                <ele>2136.5</ele>
                <time>2009-08-25T10:02:51.000Z</time>
                <name>Position 3384</name>
            </trkpt>
            <trkpt lon="10.608745" lat="47.4995316666667">
                <ele>2136.7</ele>
                <time>2009-08-25T10:02:54.000Z</time>
                <name>Position 3385</name>
            </trkpt>
            <trkpt lon="10.608745" lat="47.4995316666667">
                <ele>2136.7</ele>
                <time>2009-08-25T10:02:57.000Z</time>
                <name>Position 3386</name>
            </trkpt>
            <trkpt lon="10.608745" lat="47.4995316666667">
                <ele>2136.7</ele>
                <time>2009-08-25T10:03:00.000Z</time>
                <name>Position 3387</name>
            </trkpt>
            <trkpt lon="10.6087433333333" lat="47.4995316666667">
                <ele>2136.8</ele>
                <time>2009-08-25T10:03:03.000Z</time>
                <name>Position 3388</name>
            </trkpt>
            <trkpt lon="10.608745" lat="47.4995333333333">
                <ele>2136.7</ele>
                <time>2009-08-25T10:03:06.000Z</time>
                <name>Position 3389</name>
            </trkpt>
            <trkpt lon="10.608745" lat="47.4995333333333">
                <ele>2136.6</ele>
                <time>2009-08-25T10:03:09.000Z</time>
                <name>Position 3390</name>
            </trkpt>
            <trkpt lon="10.6087466666667" lat="47.4995333333333">
                <ele>2136.6</ele>
                <time>2009-08-25T10:03:12.000Z</time>
                <name>Position 3391</name>
            </trkpt>
            <trkpt lon="10.6087483333333" lat="47.4995333333333">
                <ele>2136.5</ele>
                <time>2009-08-25T10:03:15.000Z</time>
                <name>Position 3392</name>
            </trkpt>
            <trkpt lon="10.60875" lat="47.4995333333333">
                <ele>2136.4</ele>
                <time>2009-08-25T10:03:18.000Z</time>
                <name>Position 3393</name>
            </trkpt>
            <trkpt lon="10.6087533333333" lat="47.499535">
                <ele>2136.3</ele>
                <time>2009-08-25T10:03:21.000Z</time>
                <name>Position 3394</name>
            </trkpt>
            <trkpt lon="10.60875" lat="47.4995333333333">
                <ele>2136.4</ele>
                <time>2009-08-25T10:03:24.000Z</time>
                <name>Position 3395</name>
            </trkpt>
            <trkpt lon="10.6087516666667" lat="47.4995316666667">
                <ele>2136.4</ele>
                <time>2009-08-25T10:03:27.000Z</time>
                <name>Position 3396</name>
            </trkpt>
            <trkpt lon="10.6087516666667" lat="47.4995316666667">
                <ele>2136.3</ele>
                <time>2009-08-25T10:03:30.000Z</time>
                <name>Position 3397</name>
            </trkpt>
            <trkpt lon="10.60876" lat="47.4995433333333">
                <ele>2136.7</ele>
                <time>2009-08-25T10:03:33.000Z</time>
                <name>Position 3398</name>
            </trkpt>
            <trkpt lon="10.6087616666667" lat="47.4995516666667">
                <ele>2137.2</ele>
                <time>2009-08-25T10:03:36.000Z</time>
                <name>Position 3399</name>
            </trkpt>
            <trkpt lon="10.608765" lat="47.4995516666667">
                <ele>2137.5</ele>
                <time>2009-08-25T10:03:39.000Z</time>
                <name>Position 3400</name>
            </trkpt>
            <trkpt lon="10.6087683333333" lat="47.4995566666667">
                <ele>2137.9</ele>
                <time>2009-08-25T10:03:42.000Z</time>
                <name>Position 3401</name>
            </trkpt>
            <trkpt lon="10.6087733333333" lat="47.49956">
                <ele>2138.0</ele>
                <time>2009-08-25T10:03:45.000Z</time>
                <name>Position 3402</name>
            </trkpt>
            <trkpt lon="10.6087733333333" lat="47.49956">
                <ele>2138.0</ele>
                <time>2009-08-25T10:03:48.000Z</time>
                <name>Position 3403</name>
            </trkpt>
            <trkpt lon="10.608775" lat="47.4995616666667">
                <ele>2138.0</ele>
                <time>2009-08-25T10:03:51.000Z</time>
                <name>Position 3404</name>
            </trkpt>
            <trkpt lon="10.6087733333333" lat="47.4995716666667">
                <ele>2138.3</ele>
                <time>2009-08-25T10:03:54.000Z</time>
                <name>Position 3405</name>
            </trkpt>
            <trkpt lon="10.608775" lat="47.4995816666667">
                <ele>2138.7</ele>
                <time>2009-08-25T10:03:57.000Z</time>
                <name>Position 3406</name>
            </trkpt>
            <trkpt lon="10.6087683333333" lat="47.4995933333333">
                <ele>2139.0</ele>
                <time>2009-08-25T10:04:00.000Z</time>
                <name>Position 3407</name>
            </trkpt>
            <trkpt lon="10.60877" lat="47.499595">
                <ele>2139.1</ele>
                <time>2009-08-25T10:04:03.000Z</time>
                <name>Position 3408</name>
            </trkpt>
            <trkpt lon="10.6087716666667" lat="47.499595">
                <ele>2139.0</ele>
                <time>2009-08-25T10:04:06.000Z</time>
                <name>Position 3409</name>
            </trkpt>
            <trkpt lon="10.60877" lat="47.499595">
                <ele>2139.0</ele>
                <time>2009-08-25T10:04:09.000Z</time>
                <name>Position 3410</name>
            </trkpt>
            <trkpt lon="10.60877" lat="47.499595">
                <ele>2139.0</ele>
                <time>2009-08-25T10:04:12.000Z</time>
                <name>Position 3411</name>
            </trkpt>
            <trkpt lon="10.60877" lat="47.499595">
                <ele>2139.0</ele>
                <time>2009-08-25T10:04:15.000Z</time>
                <name>Position 3412</name>
            </trkpt>
            <trkpt lon="10.60877" lat="47.499595">
                <ele>2138.9</ele>
                <time>2009-08-25T10:04:18.000Z</time>
                <name>Position 3413</name>
            </trkpt>
            <trkpt lon="10.60877" lat="47.499595">
                <ele>2138.9</ele>
                <time>2009-08-25T10:04:21.000Z</time>
                <name>Position 3414</name>
            </trkpt>
            <trkpt lon="10.6087666666667" lat="47.499595">
                <ele>2138.9</ele>
                <time>2009-08-25T10:04:24.000Z</time>
                <name>Position 3415</name>
            </trkpt>
            <trkpt lon="10.6087483333333" lat="47.4995966666667">
                <ele>2139.6</ele>
                <time>2009-08-25T10:04:27.000Z</time>
                <name>Position 3416</name>
            </trkpt>
            <trkpt lon="10.60874" lat="47.4995966666667">
                <ele>2140.0</ele>
                <time>2009-08-25T10:04:30.000Z</time>
                <name>Position 3417</name>
            </trkpt>
            <trkpt lon="10.60874" lat="47.4995966666667">
                <ele>2140.1</ele>
                <time>2009-08-25T10:04:33.000Z</time>
                <name>Position 3418</name>
            </trkpt>
            <trkpt lon="10.60874" lat="47.4995966666667">
                <ele>2140.1</ele>
                <time>2009-08-25T10:04:36.000Z</time>
                <name>Position 3419</name>
            </trkpt>
            <trkpt lon="10.60874" lat="47.4995966666667">
                <ele>2140.0</ele>
                <time>2009-08-25T10:04:39.000Z</time>
                <name>Position 3420</name>
            </trkpt>
            <trkpt lon="10.60874" lat="47.4995966666667">
                <ele>2140.0</ele>
                <time>2009-08-25T10:04:42.000Z</time>
                <name>Position 3421</name>
            </trkpt>
            <trkpt lon="10.6087416666667" lat="47.4995966666667">
                <ele>2140.0</ele>
                <time>2009-08-25T10:04:45.000Z</time>
                <name>Position 3422</name>
            </trkpt>
            <trkpt lon="10.6087416666667" lat="47.4995966666667">
                <ele>2140.0</ele>
                <time>2009-08-25T10:04:48.000Z</time>
                <name>Position 3423</name>
            </trkpt>
            <trkpt lon="10.6087416666667" lat="47.4995966666667">
                <ele>2140.0</ele>
                <time>2009-08-25T10:04:51.000Z</time>
                <name>Position 3424</name>
            </trkpt>
            <trkpt lon="10.6087416666667" lat="47.4995966666667">
                <ele>2140.0</ele>
                <time>2009-08-25T10:04:54.000Z</time>
                <name>Position 3425</name>
            </trkpt>
            <trkpt lon="10.60874" lat="47.499595">
                <ele>2140.0</ele>
                <time>2009-08-25T10:04:57.000Z</time>
                <name>Position 3426</name>
            </trkpt>
            <trkpt lon="10.60874" lat="47.499595">
                <ele>2139.9</ele>
                <time>2009-08-25T10:05:00.000Z</time>
                <name>Position 3427</name>
            </trkpt>
            <trkpt lon="10.60874" lat="47.499595">
                <ele>2139.8</ele>
                <time>2009-08-25T10:05:03.000Z</time>
                <name>Position 3428</name>
            </trkpt>
            <trkpt lon="10.60874" lat="47.499595">
                <ele>2139.8</ele>
                <time>2009-08-25T10:05:06.000Z</time>
                <name>Position 3429</name>
            </trkpt>
            <trkpt lon="10.6087316666667" lat="47.4996116666667">
                <ele>2140.8</ele>
                <time>2009-08-25T10:05:09.000Z</time>
                <name>Position 3430</name>
            </trkpt>
            <trkpt lon="10.6086916666667" lat="47.4996116666667">
                <ele>2142.1</ele>
                <time>2009-08-25T10:05:12.000Z</time>
                <name>Position 3431</name>
            </trkpt>
            <trkpt lon="10.6086666666667" lat="47.4995966666667">
                <ele>2143.1</ele>
                <time>2009-08-25T10:05:15.000Z</time>
                <name>Position 3432</name>
            </trkpt>
            <trkpt lon="10.60865" lat="47.4996066666667">
                <ele>2144.0</ele>
                <time>2009-08-25T10:05:18.000Z</time>
                <name>Position 3433</name>
            </trkpt>
            <trkpt lon="10.6086316666667" lat="47.4996183333333">
                <ele>2144.5</ele>
                <time>2009-08-25T10:05:21.000Z</time>
                <name>Position 3434</name>
            </trkpt>
            <trkpt lon="10.6086116666667" lat="47.49963">
                <ele>2145.6</ele>
                <time>2009-08-25T10:05:24.000Z</time>
                <name>Position 3435</name>
            </trkpt>
            <trkpt lon="10.608575" lat="47.4996316666667">
                <ele>2146.4</ele>
                <time>2009-08-25T10:05:27.000Z</time>
                <name>Position 3436</name>
            </trkpt>
            <trkpt lon="10.6085616666667" lat="47.4996166666667">
                <ele>2147.1</ele>
                <time>2009-08-25T10:05:30.000Z</time>
                <name>Position 3437</name>
            </trkpt>
            <trkpt lon="10.6085283333333" lat="47.4996083333333">
                <ele>2147.8</ele>
                <time>2009-08-25T10:05:33.000Z</time>
                <name>Position 3438</name>
            </trkpt>
            <trkpt lon="10.6085133333333" lat="47.499585">
                <ele>2148.1</ele>
                <time>2009-08-25T10:05:36.000Z</time>
                <name>Position 3439</name>
            </trkpt>
            <trkpt lon="10.60856" lat="47.4995766666667">
                <ele>2147.9</ele>
                <time>2009-08-25T10:05:39.000Z</time>
                <name>Position 3440</name>
            </trkpt>
            <trkpt lon="10.6085633333333" lat="47.4995616666667">
                <ele>2148.2</ele>
                <time>2009-08-25T10:05:42.000Z</time>
                <name>Position 3441</name>
            </trkpt>
            <trkpt lon="10.60856" lat="47.4995633333333">
                <ele>2148.3</ele>
                <time>2009-08-25T10:05:45.000Z</time>
                <name>Position 3442</name>
            </trkpt>
            <trkpt lon="10.6085533333333" lat="47.4995633333333">
                <ele>2148.3</ele>
                <time>2009-08-25T10:05:48.000Z</time>
                <name>Position 3443</name>
            </trkpt>
            <trkpt lon="10.6085483333333" lat="47.499555">
                <ele>2148.4</ele>
                <time>2009-08-25T10:05:51.000Z</time>
                <name>Position 3444</name>
            </trkpt>
            <trkpt lon="10.6085416666667" lat="47.4995533333333">
                <ele>2148.6</ele>
                <time>2009-08-25T10:05:54.000Z</time>
                <name>Position 3445</name>
            </trkpt>
            <trkpt lon="10.608545" lat="47.4995483333333">
                <ele>2148.9</ele>
                <time>2009-08-25T10:05:57.000Z</time>
                <name>Position 3446</name>
            </trkpt>
            <trkpt lon="10.60854" lat="47.4995483333333">
                <ele>2148.9</ele>
                <time>2009-08-25T10:06:00.000Z</time>
                <name>Position 3447</name>
            </trkpt>
            <trkpt lon="10.60854" lat="47.49955">
                <ele>2148.9</ele>
                <time>2009-08-25T10:06:03.000Z</time>
                <name>Position 3448</name>
            </trkpt>
            <trkpt lon="10.6085366666667" lat="47.4995466666667">
                <ele>2148.5</ele>
                <time>2009-08-25T10:06:06.000Z</time>
                <name>Position 3449</name>
            </trkpt>
            <trkpt lon="10.6085383333333" lat="47.499545">
                <ele>2148.3</ele>
                <time>2009-08-25T10:06:09.000Z</time>
                <name>Position 3450</name>
            </trkpt>
            <trkpt lon="10.60854" lat="47.499545">
                <ele>2148.1</ele>
                <time>2009-08-25T10:06:12.000Z</time>
                <name>Position 3451</name>
            </trkpt>
            <trkpt lon="10.6085416666667" lat="47.4995433333333">
                <ele>2148.0</ele>
                <time>2009-08-25T10:06:15.000Z</time>
                <name>Position 3452</name>
            </trkpt>
            <trkpt lon="10.6085716666667" lat="47.4995383333333">
                <ele>2146.5</ele>
                <time>2009-08-25T10:30:34.000Z</time>
                <name>Position 3453</name>
            </trkpt>
            <trkpt lon="10.6085733333333" lat="47.4995383333333">
                <ele>2146.5</ele>
                <time>2009-08-25T10:30:37.000Z</time>
                <name>Position 3454</name>
            </trkpt>
            <trkpt lon="10.6085733333333" lat="47.4995383333333">
                <ele>2146.5</ele>
                <time>2009-08-25T10:30:40.000Z</time>
                <name>Position 3455</name>
            </trkpt>
            <trkpt lon="10.6085733333333" lat="47.4995383333333">
                <ele>2146.5</ele>
                <time>2009-08-25T10:30:43.000Z</time>
                <name>Position 3456</name>
            </trkpt>
            <trkpt lon="10.6085733333333" lat="47.4995383333333">
                <ele>2146.5</ele>
                <time>2009-08-25T10:30:46.000Z</time>
                <name>Position 3457</name>
            </trkpt>
            <trkpt lon="10.6085733333333" lat="47.4995383333333">
                <ele>2146.5</ele>
                <time>2009-08-25T10:30:49.000Z</time>
                <name>Position 3458</name>
            </trkpt>
            <trkpt lon="10.6085733333333" lat="47.4995383333333">
                <ele>2146.5</ele>
                <time>2009-08-25T10:30:52.000Z</time>
                <name>Position 3459</name>
            </trkpt>
            <trkpt lon="10.6085733333333" lat="47.4995383333333">
                <ele>2146.5</ele>
                <time>2009-08-25T10:30:55.000Z</time>
                <name>Position 3460</name>
            </trkpt>
            <trkpt lon="10.6085733333333" lat="47.4995383333333">
                <ele>2146.5</ele>
                <time>2009-08-25T10:30:58.000Z</time>
                <name>Position 3461</name>
            </trkpt>
            <trkpt lon="10.608575" lat="47.4995383333333">
                <ele>2146.4</ele>
                <time>2009-08-25T10:31:01.000Z</time>
                <name>Position 3462</name>
            </trkpt>
            <trkpt lon="10.6085683333333" lat="47.4995383333333">
                <ele>2146.6</ele>
                <time>2009-08-25T10:31:04.000Z</time>
                <name>Position 3463</name>
            </trkpt>
            <trkpt lon="10.6085683333333" lat="47.4995416666667">
                <ele>2146.7</ele>
                <time>2009-08-25T10:31:07.000Z</time>
                <name>Position 3464</name>
            </trkpt>
            <trkpt lon="10.6085683333333" lat="47.4995416666667">
                <ele>2146.7</ele>
                <time>2009-08-25T10:31:10.000Z</time>
                <name>Position 3465</name>
            </trkpt>
            <trkpt lon="10.6085683333333" lat="47.4995416666667">
                <ele>2146.7</ele>
                <time>2009-08-25T10:31:13.000Z</time>
                <name>Position 3466</name>
            </trkpt>
            <trkpt lon="10.6085683333333" lat="47.4995433333333">
                <ele>2146.7</ele>
                <time>2009-08-25T10:31:16.000Z</time>
                <name>Position 3467</name>
            </trkpt>
            <trkpt lon="10.6085683333333" lat="47.4995433333333">
                <ele>2146.7</ele>
                <time>2009-08-25T10:31:19.000Z</time>
                <name>Position 3468</name>
            </trkpt>
            <trkpt lon="10.6085683333333" lat="47.4995416666667">
                <ele>2146.6</ele>
                <time>2009-08-25T10:31:22.000Z</time>
                <name>Position 3469</name>
            </trkpt>
            <trkpt lon="10.608565" lat="47.49954">
                <ele>2146.5</ele>
                <time>2009-08-25T10:31:25.000Z</time>
                <name>Position 3470</name>
            </trkpt>
            <trkpt lon="10.60856" lat="47.4995333333333">
                <ele>2146.3</ele>
                <time>2009-08-25T10:31:28.000Z</time>
                <name>Position 3471</name>
            </trkpt>
            <trkpt lon="10.6085416666667" lat="47.4995333333333">
                <ele>2146.6</ele>
                <time>2009-08-25T10:31:31.000Z</time>
                <name>Position 3472</name>
            </trkpt>
            <trkpt lon="10.6085466666667" lat="47.4995366666667">
                <ele>2146.7</ele>
                <time>2009-08-25T10:31:34.000Z</time>
                <name>Position 3473</name>
            </trkpt>
            <trkpt lon="10.60855" lat="47.4995483333333">
                <ele>2146.4</ele>
                <time>2009-08-25T10:31:37.000Z</time>
                <name>Position 3474</name>
            </trkpt>
            <trkpt lon="10.608545" lat="47.499575">
                <ele>2145.5</ele>
                <time>2009-08-25T10:31:40.000Z</time>
                <name>Position 3475</name>
            </trkpt>
            <trkpt lon="10.6085783333333" lat="47.4996033333333">
                <ele>2144.6</ele>
                <time>2009-08-25T10:31:43.000Z</time>
                <name>Position 3476</name>
            </trkpt>
            <trkpt lon="10.6086" lat="47.49963">
                <ele>2144.0</ele>
                <time>2009-08-25T10:31:46.000Z</time>
                <name>Position 3477</name>
            </trkpt>
            <trkpt lon="10.6086316666667" lat="47.49961">
                <ele>2142.6</ele>
                <time>2009-08-25T10:31:49.000Z</time>
                <name>Position 3478</name>
            </trkpt>
            <trkpt lon="10.60865" lat="47.4996016666667">
                <ele>2141.8</ele>
                <time>2009-08-25T10:31:52.000Z</time>
                <name>Position 3479</name>
            </trkpt>
            <trkpt lon="10.6086716666667" lat="47.4996133333333">
                <ele>2141.1</ele>
                <time>2009-08-25T10:31:55.000Z</time>
                <name>Position 3480</name>
            </trkpt>
            <trkpt lon="10.6087083333333" lat="47.499625">
                <ele>2140.3</ele>
                <time>2009-08-25T10:31:58.000Z</time>
                <name>Position 3481</name>
            </trkpt>
            <trkpt lon="10.6087233333333" lat="47.49964">
                <ele>2139.7</ele>
                <time>2009-08-25T10:32:01.000Z</time>
                <name>Position 3482</name>
            </trkpt>
            <trkpt lon="10.6087566666667" lat="47.4996333333333">
                <ele>2139.3</ele>
                <time>2009-08-25T10:32:04.000Z</time>
                <name>Position 3483</name>
            </trkpt>
            <trkpt lon="10.6087833333333" lat="47.4996083333333">
                <ele>2138.3</ele>
                <time>2009-08-25T10:32:07.000Z</time>
                <name>Position 3484</name>
            </trkpt>
            <trkpt lon="10.60881" lat="47.4995833333333">
                <ele>2137.3</ele>
                <time>2009-08-25T10:32:10.000Z</time>
                <name>Position 3485</name>
            </trkpt>
            <trkpt lon="10.6088433333333" lat="47.4995616666667">
                <ele>2135.8</ele>
                <time>2009-08-25T10:32:13.000Z</time>
                <name>Position 3486</name>
            </trkpt>
            <trkpt lon="10.608865" lat="47.499575">
                <ele>2135.0</ele>
                <time>2009-08-25T10:32:16.000Z</time>
                <name>Position 3487</name>
            </trkpt>
            <trkpt lon="10.6088883333333" lat="47.4995966666667">
                <ele>2133.7</ele>
                <time>2009-08-25T10:32:19.000Z</time>
                <name>Position 3488</name>
            </trkpt>
            <trkpt lon="10.6088883333333" lat="47.4996183333333">
                <ele>2133.0</ele>
                <time>2009-08-25T10:32:22.000Z</time>
                <name>Position 3489</name>
            </trkpt>
            <trkpt lon="10.6088966666667" lat="47.4996333333333">
                <ele>2132.5</ele>
                <time>2009-08-25T10:32:25.000Z</time>
                <name>Position 3490</name>
            </trkpt>
            <trkpt lon="10.6089033333333" lat="47.4996566666667">
                <ele>2131.2</ele>
                <time>2009-08-25T10:32:28.000Z</time>
                <name>Position 3491</name>
            </trkpt>
            <trkpt lon="10.6089116666667" lat="47.4996583333333">
                <ele>2129.9</ele>
                <time>2009-08-25T10:32:31.000Z</time>
                <name>Position 3492</name>
            </trkpt>
            <trkpt lon="10.6089266666667" lat="47.4996716666667">
                <ele>2129.6</ele>
                <time>2009-08-25T10:32:34.000Z</time>
                <name>Position 3493</name>
            </trkpt>
            <trkpt lon="10.6089416666667" lat="47.49968">
                <ele>2129.2</ele>
                <time>2009-08-25T10:32:37.000Z</time>
                <name>Position 3494</name>
            </trkpt>
            <trkpt lon="10.6089583333333" lat="47.4996916666667">
                <ele>2128.9</ele>
                <time>2009-08-25T10:32:40.000Z</time>
                <name>Position 3495</name>
            </trkpt>
            <trkpt lon="10.60896" lat="47.4997033333333">
                <ele>2128.2</ele>
                <time>2009-08-25T10:32:43.000Z</time>
                <name>Position 3496</name>
            </trkpt>
            <trkpt lon="10.60896" lat="47.4997033333333">
                <ele>2128.3</ele>
                <time>2009-08-25T10:32:46.000Z</time>
                <name>Position 3497</name>
            </trkpt>
            <trkpt lon="10.6089616666667" lat="47.4997033333333">
                <ele>2128.3</ele>
                <time>2009-08-25T10:32:49.000Z</time>
                <name>Position 3498</name>
            </trkpt>
            <trkpt lon="10.6089633333333" lat="47.499705">
                <ele>2128.2</ele>
                <time>2009-08-25T10:32:52.000Z</time>
                <name>Position 3499</name>
            </trkpt>
            <trkpt lon="10.60898" lat="47.499705">
                <ele>2128.2</ele>
                <time>2009-08-25T10:32:55.000Z</time>
                <name>Position 3500</name>
            </trkpt>
            <trkpt lon="10.6089766666667" lat="47.499705">
                <ele>2128.3</ele>
                <time>2009-08-25T10:32:58.000Z</time>
                <name>Position 3501</name>
            </trkpt>
            <trkpt lon="10.60898" lat="47.499705">
                <ele>2128.4</ele>
                <time>2009-08-25T10:33:01.000Z</time>
                <name>Position 3502</name>
            </trkpt>
            <trkpt lon="10.6089866666667" lat="47.4997033333333">
                <ele>2128.4</ele>
                <time>2009-08-25T10:33:04.000Z</time>
                <name>Position 3503</name>
            </trkpt>
            <trkpt lon="10.6089883333333" lat="47.4997016666667">
                <ele>2128.5</ele>
                <time>2009-08-25T10:33:07.000Z</time>
                <name>Position 3504</name>
            </trkpt>
            <trkpt lon="10.6089883333333" lat="47.4997">
                <ele>2128.5</ele>
                <time>2009-08-25T10:33:10.000Z</time>
                <name>Position 3505</name>
            </trkpt>
            <trkpt lon="10.6089883333333" lat="47.4997033333333">
                <ele>2128.6</ele>
                <time>2009-08-25T10:33:13.000Z</time>
                <name>Position 3506</name>
            </trkpt>
            <trkpt lon="10.6089916666667" lat="47.4997066666667">
                <ele>2129.0</ele>
                <time>2009-08-25T10:33:16.000Z</time>
                <name>Position 3507</name>
            </trkpt>
            <trkpt lon="10.60899" lat="47.4997066666667">
                <ele>2129.2</ele>
                <time>2009-08-25T10:33:19.000Z</time>
                <name>Position 3508</name>
            </trkpt>
            <trkpt lon="10.60899" lat="47.4997066666667">
                <ele>2129.1</ele>
                <time>2009-08-25T10:33:22.000Z</time>
                <name>Position 3509</name>
            </trkpt>
            <trkpt lon="10.60899" lat="47.4997066666667">
                <ele>2129.1</ele>
                <time>2009-08-25T10:33:25.000Z</time>
                <name>Position 3510</name>
            </trkpt>
            <trkpt lon="10.6089983333333" lat="47.4997083333333">
                <ele>2128.8</ele>
                <time>2009-08-25T10:33:28.000Z</time>
                <name>Position 3511</name>
            </trkpt>
            <trkpt lon="10.6090233333333" lat="47.4997016666667">
                <ele>2127.7</ele>
                <time>2009-08-25T10:33:31.000Z</time>
                <name>Position 3512</name>
            </trkpt>
            <trkpt lon="10.6090283333333" lat="47.4997183333333">
                <ele>2126.9</ele>
                <time>2009-08-25T10:33:34.000Z</time>
                <name>Position 3513</name>
            </trkpt>
            <trkpt lon="10.60904" lat="47.49973">
                <ele>2126.6</ele>
                <time>2009-08-25T10:33:37.000Z</time>
                <name>Position 3514</name>
            </trkpt>
            <trkpt lon="10.6090416666667" lat="47.4997216666667">
                <ele>2126.8</ele>
                <time>2009-08-25T10:33:40.000Z</time>
                <name>Position 3515</name>
            </trkpt>
            <trkpt lon="10.60906" lat="47.499725">
                <ele>2127.3</ele>
                <time>2009-08-25T10:33:43.000Z</time>
                <name>Position 3516</name>
            </trkpt>
            <trkpt lon="10.6090716666667" lat="47.499725">
                <ele>2127.4</ele>
                <time>2009-08-25T10:33:46.000Z</time>
                <name>Position 3517</name>
            </trkpt>
            <trkpt lon="10.6090916666667" lat="47.4997316666667">
                <ele>2127.0</ele>
                <time>2009-08-25T10:33:49.000Z</time>
                <name>Position 3518</name>
            </trkpt>
            <trkpt lon="10.609115" lat="47.49972">
                <ele>2126.2</ele>
                <time>2009-08-25T10:33:52.000Z</time>
                <name>Position 3519</name>
            </trkpt>
            <trkpt lon="10.6091433333333" lat="47.4996866666667">
                <ele>2125.9</ele>
                <time>2009-08-25T10:33:55.000Z</time>
                <name>Position 3520</name>
            </trkpt>
            <trkpt lon="10.60918" lat="47.49967">
                <ele>2126.5</ele>
                <time>2009-08-25T10:33:58.000Z</time>
                <name>Position 3521</name>
            </trkpt>
            <trkpt lon="10.6091916666667" lat="47.49968">
                <ele>2126.3</ele>
                <time>2009-08-25T10:34:01.000Z</time>
                <name>Position 3522</name>
            </trkpt>
            <trkpt lon="10.6092033333333" lat="47.499685">
                <ele>2126.3</ele>
                <time>2009-08-25T10:34:04.000Z</time>
                <name>Position 3523</name>
            </trkpt>
            <trkpt lon="10.6092283333333" lat="47.4996983333333">
                <ele>2126.0</ele>
                <time>2009-08-25T10:34:07.000Z</time>
                <name>Position 3524</name>
            </trkpt>
            <trkpt lon="10.6092333333333" lat="47.4997116666667">
                <ele>2125.3</ele>
                <time>2009-08-25T10:34:10.000Z</time>
                <name>Position 3525</name>
            </trkpt>
            <trkpt lon="10.6092516666667" lat="47.49972">
                <ele>2124.5</ele>
                <time>2009-08-25T10:34:13.000Z</time>
                <name>Position 3526</name>
            </trkpt>
            <trkpt lon="10.6092716666667" lat="47.4997266666667">
                <ele>2123.9</ele>
                <time>2009-08-25T10:34:16.000Z</time>
                <name>Position 3527</name>
            </trkpt>
            <trkpt lon="10.609275" lat="47.4997333333333">
                <ele>2123.6</ele>
                <time>2009-08-25T10:34:19.000Z</time>
                <name>Position 3528</name>
            </trkpt>
            <trkpt lon="10.6092916666667" lat="47.4997433333333">
                <ele>2124.1</ele>
                <time>2009-08-25T10:34:22.000Z</time>
                <name>Position 3529</name>
            </trkpt>
            <trkpt lon="10.609305" lat="47.4997383333333">
                <ele>2124.5</ele>
                <time>2009-08-25T10:34:25.000Z</time>
                <name>Position 3530</name>
            </trkpt>
            <trkpt lon="10.6093233333333" lat="47.4997483333333">
                <ele>2124.6</ele>
                <time>2009-08-25T10:34:28.000Z</time>
                <name>Position 3531</name>
            </trkpt>
            <trkpt lon="10.609335" lat="47.4997583333333">
                <ele>2124.0</ele>
                <time>2009-08-25T10:34:31.000Z</time>
                <name>Position 3532</name>
            </trkpt>
            <trkpt lon="10.6093283333333" lat="47.4997683333333">
                <ele>2123.2</ele>
                <time>2009-08-25T10:34:34.000Z</time>
                <name>Position 3533</name>
            </trkpt>
            <trkpt lon="10.6093366666667" lat="47.499775">
                <ele>2122.6</ele>
                <time>2009-08-25T10:34:37.000Z</time>
                <name>Position 3534</name>
            </trkpt>
            <trkpt lon="10.6093383333333" lat="47.499775">
                <ele>2122.6</ele>
                <time>2009-08-25T10:34:40.000Z</time>
                <name>Position 3535</name>
            </trkpt>
            <trkpt lon="10.6093416666667" lat="47.499775">
                <ele>2122.6</ele>
                <time>2009-08-25T10:34:43.000Z</time>
                <name>Position 3536</name>
            </trkpt>
            <trkpt lon="10.6093433333333" lat="47.4997733333333">
                <ele>2122.6</ele>
                <time>2009-08-25T10:34:46.000Z</time>
                <name>Position 3537</name>
            </trkpt>
            <trkpt lon="10.6093416666667" lat="47.4997716666667">
                <ele>2122.6</ele>
                <time>2009-08-25T10:34:49.000Z</time>
                <name>Position 3538</name>
            </trkpt>
            <trkpt lon="10.6093433333333" lat="47.4997733333333">
                <ele>2122.6</ele>
                <time>2009-08-25T10:34:52.000Z</time>
                <name>Position 3539</name>
            </trkpt>
            <trkpt lon="10.6093466666667" lat="47.4997733333333">
                <ele>2122.6</ele>
                <time>2009-08-25T10:34:55.000Z</time>
                <name>Position 3540</name>
            </trkpt>
            <trkpt lon="10.6093483333333" lat="47.4997783333333">
                <ele>2122.6</ele>
                <time>2009-08-25T10:34:58.000Z</time>
                <name>Position 3541</name>
            </trkpt>
            <trkpt lon="10.6093483333333" lat="47.4997783333333">
                <ele>2123.1</ele>
                <time>2009-08-25T10:35:01.000Z</time>
                <name>Position 3542</name>
            </trkpt>
            <trkpt lon="10.609335" lat="47.4997633333333">
                <ele>2123.6</ele>
                <time>2009-08-25T10:35:04.000Z</time>
                <name>Position 3543</name>
            </trkpt>
            <trkpt lon="10.6093016666667" lat="47.4997716666667">
                <ele>2124.3</ele>
                <time>2009-08-25T10:35:07.000Z</time>
                <name>Position 3544</name>
            </trkpt>
            <trkpt lon="10.6092816666667" lat="47.4997833333333">
                <ele>2125.1</ele>
                <time>2009-08-25T10:35:10.000Z</time>
                <name>Position 3545</name>
            </trkpt>
            <trkpt lon="10.6092683333333" lat="47.4997983333333">
                <ele>2127.3</ele>
                <time>2009-08-25T10:35:13.000Z</time>
                <name>Position 3546</name>
            </trkpt>
            <trkpt lon="10.609265" lat="47.49983">
                <ele>2127.5</ele>
                <time>2009-08-25T10:35:16.000Z</time>
                <name>Position 3547</name>
            </trkpt>
            <trkpt lon="10.6092516666667" lat="47.499845">
                <ele>2127.3</ele>
                <time>2009-08-25T10:35:19.000Z</time>
                <name>Position 3548</name>
            </trkpt>
            <trkpt lon="10.6092433333333" lat="47.4998566666667">
                <ele>2126.7</ele>
                <time>2009-08-25T10:35:22.000Z</time>
                <name>Position 3549</name>
            </trkpt>
            <trkpt lon="10.6092366666667" lat="47.499865">
                <ele>2125.9</ele>
                <time>2009-08-25T10:35:25.000Z</time>
                <name>Position 3550</name>
            </trkpt>
            <trkpt lon="10.6092416666667" lat="47.4998716666667">
                <ele>2125.0</ele>
                <time>2009-08-25T10:35:28.000Z</time>
                <name>Position 3551</name>
            </trkpt>
            <trkpt lon="10.6092416666667" lat="47.4998716666667">
                <ele>2124.6</ele>
                <time>2009-08-25T10:35:31.000Z</time>
                <name>Position 3552</name>
            </trkpt>
            <trkpt lon="10.6092383333333" lat="47.4998783333333">
                <ele>2123.6</ele>
                <time>2009-08-25T10:35:34.000Z</time>
                <name>Position 3553</name>
            </trkpt>
            <trkpt lon="10.6092383333333" lat="47.499885">
                <ele>2122.4</ele>
                <time>2009-08-25T10:35:37.000Z</time>
                <name>Position 3554</name>
            </trkpt>
            <trkpt lon="10.6092383333333" lat="47.4998866666667">
                <ele>2121.8</ele>
                <time>2009-08-25T10:35:40.000Z</time>
                <name>Position 3555</name>
            </trkpt>
            <trkpt lon="10.60924" lat="47.4998933333333">
                <ele>2121.7</ele>
                <time>2009-08-25T10:35:43.000Z</time>
                <name>Position 3556</name>
            </trkpt>
            <trkpt lon="10.60923" lat="47.4999066666667">
                <ele>2121.6</ele>
                <time>2009-08-25T10:35:46.000Z</time>
                <name>Position 3557</name>
            </trkpt>
            <trkpt lon="10.6092366666667" lat="47.4999133333333">
                <ele>2121.5</ele>
                <time>2009-08-25T10:35:49.000Z</time>
                <name>Position 3558</name>
            </trkpt>
            <trkpt lon="10.6092383333333" lat="47.4999116666667">
                <ele>2121.5</ele>
                <time>2009-08-25T10:35:52.000Z</time>
                <name>Position 3559</name>
            </trkpt>
            <trkpt lon="10.6092466666667" lat="47.4999116666667">
                <ele>2121.2</ele>
                <time>2009-08-25T10:35:55.000Z</time>
                <name>Position 3560</name>
            </trkpt>
            <trkpt lon="10.60925" lat="47.499915">
                <ele>2120.9</ele>
                <time>2009-08-25T10:35:58.000Z</time>
                <name>Position 3561</name>
            </trkpt>
            <trkpt lon="10.60925" lat="47.4999216666667">
                <ele>2120.7</ele>
                <time>2009-08-25T10:36:01.000Z</time>
                <name>Position 3562</name>
            </trkpt>
            <trkpt lon="10.6092533333333" lat="47.49993">
                <ele>2120.0</ele>
                <time>2009-08-25T10:36:04.000Z</time>
                <name>Position 3563</name>
            </trkpt>
            <trkpt lon="10.6092483333333" lat="47.499935">
                <ele>2119.9</ele>
                <time>2009-08-25T10:36:07.000Z</time>
                <name>Position 3564</name>
            </trkpt>
            <trkpt lon="10.6092533333333" lat="47.4999383333333">
                <ele>2119.8</ele>
                <time>2009-08-25T10:36:10.000Z</time>
                <name>Position 3565</name>
            </trkpt>
            <trkpt lon="10.6092566666667" lat="47.499945">
                <ele>2119.2</ele>
                <time>2009-08-25T10:36:13.000Z</time>
                <name>Position 3566</name>
            </trkpt>
            <trkpt lon="10.6092583333333" lat="47.4999583333333">
                <ele>2118.1</ele>
                <time>2009-08-25T10:36:16.000Z</time>
                <name>Position 3567</name>
            </trkpt>
            <trkpt lon="10.6092616666667" lat="47.4999666666667">
                <ele>2117.9</ele>
                <time>2009-08-25T10:36:19.000Z</time>
                <name>Position 3568</name>
            </trkpt>
            <trkpt lon="10.6092816666667" lat="47.49997">
                <ele>2117.7</ele>
                <time>2009-08-25T10:36:22.000Z</time>
                <name>Position 3569</name>
            </trkpt>
            <trkpt lon="10.609305" lat="47.4999733333333">
                <ele>2117.6</ele>
                <time>2009-08-25T10:36:25.000Z</time>
                <name>Position 3570</name>
            </trkpt>
            <trkpt lon="10.6093533333333" lat="47.4999733333333">
                <ele>2117.7</ele>
                <time>2009-08-25T10:36:28.000Z</time>
                <name>Position 3571</name>
            </trkpt>
            <trkpt lon="10.609375" lat="47.499985">
                <ele>2117.9</ele>
                <time>2009-08-25T10:36:31.000Z</time>
                <name>Position 3572</name>
            </trkpt>
            <trkpt lon="10.60934" lat="47.499985">
                <ele>2118.0</ele>
                <time>2009-08-25T10:36:34.000Z</time>
                <name>Position 3573</name>
            </trkpt>
            <trkpt lon="10.6093733333333" lat="47.4999916666667">
                <ele>2118.2</ele>
                <time>2009-08-25T10:36:37.000Z</time>
                <name>Position 3574</name>
            </trkpt>
            <trkpt lon="10.60938" lat="47.499995">
                <ele>2118.2</ele>
                <time>2009-08-25T10:36:40.000Z</time>
                <name>Position 3575</name>
            </trkpt>
            <trkpt lon="10.609385" lat="47.5000166666667">
                <ele>2117.8</ele>
                <time>2009-08-25T10:36:43.000Z</time>
                <name>Position 3576</name>
            </trkpt>
            <trkpt lon="10.6093983333333" lat="47.5000066666667">
                <ele>2117.8</ele>
                <time>2009-08-25T10:36:46.000Z</time>
                <name>Position 3577</name>
            </trkpt>
            <trkpt lon="10.60941" lat="47.499995">
                <ele>2117.9</ele>
                <time>2009-08-25T10:36:49.000Z</time>
                <name>Position 3578</name>
            </trkpt>
            <trkpt lon="10.60943" lat="47.4999633333333">
                <ele>2118.3</ele>
                <time>2009-08-25T10:36:52.000Z</time>
                <name>Position 3579</name>
            </trkpt>
            <trkpt lon="10.6094383333333" lat="47.4999566666667">
                <ele>2118.5</ele>
                <time>2009-08-25T10:36:55.000Z</time>
                <name>Position 3580</name>
            </trkpt>
            <trkpt lon="10.6094666666667" lat="47.4999866666667">
                <ele>2118.3</ele>
                <time>2009-08-25T10:36:58.000Z</time>
                <name>Position 3581</name>
            </trkpt>
            <trkpt lon="10.6095266666667" lat="47.5000083333333">
                <ele>2118.2</ele>
                <time>2009-08-25T10:37:01.000Z</time>
                <name>Position 3582</name>
            </trkpt>
            <trkpt lon="10.6095316666667" lat="47.5000316666667">
                <ele>2118.0</ele>
                <time>2009-08-25T10:37:04.000Z</time>
                <name>Position 3583</name>
            </trkpt>
            <trkpt lon="10.6095066666667" lat="47.4999916666667">
                <ele>2118.1</ele>
                <time>2009-08-25T10:37:07.000Z</time>
                <name>Position 3584</name>
            </trkpt>
            <trkpt lon="10.609525" lat="47.4999966666667">
                <ele>2118.2</ele>
                <time>2009-08-25T10:37:10.000Z</time>
                <name>Position 3585</name>
            </trkpt>
            <trkpt lon="10.6095383333333" lat="47.500015">
                <ele>2118.2</ele>
                <time>2009-08-25T10:37:13.000Z</time>
                <name>Position 3586</name>
            </trkpt>
            <trkpt lon="10.6095533333333" lat="47.5000383333333">
                <ele>2118.3</ele>
                <time>2009-08-25T10:37:16.000Z</time>
                <name>Position 3587</name>
            </trkpt>
            <trkpt lon="10.60954" lat="47.5000466666667">
                <ele>2118.4</ele>
                <time>2009-08-25T10:37:19.000Z</time>
                <name>Position 3588</name>
            </trkpt>
            <trkpt lon="10.609545" lat="47.5000583333333">
                <ele>2118.5</ele>
                <time>2009-08-25T10:37:22.000Z</time>
                <name>Position 3589</name>
            </trkpt>
            <trkpt lon="10.6095433333333" lat="47.5000733333333">
                <ele>2118.6</ele>
                <time>2009-08-25T10:37:25.000Z</time>
                <name>Position 3590</name>
            </trkpt>
            <trkpt lon="10.60957" lat="47.5000833333333">
                <ele>2118.7</ele>
                <time>2009-08-25T10:37:28.000Z</time>
                <name>Position 3591</name>
            </trkpt>
            <trkpt lon="10.6095866666667" lat="47.5001016666667">
                <ele>2118.8</ele>
                <time>2009-08-25T10:37:31.000Z</time>
                <name>Position 3592</name>
            </trkpt>
            <trkpt lon="10.6095983333333" lat="47.5000966666667">
                <ele>2118.9</ele>
                <time>2009-08-25T10:37:34.000Z</time>
                <name>Position 3593</name>
            </trkpt>
            <trkpt lon="10.609635" lat="47.500095">
                <ele>2119.1</ele>
                <time>2009-08-25T10:37:37.000Z</time>
                <name>Position 3594</name>
            </trkpt>
            <trkpt lon="10.60967" lat="47.5000966666667">
                <ele>2119.3</ele>
                <time>2009-08-25T10:37:40.000Z</time>
                <name>Position 3595</name>
            </trkpt>
            <trkpt lon="10.6096666666667" lat="47.5000216666667">
                <ele>2119.4</ele>
                <time>2009-08-25T10:37:43.000Z</time>
                <name>Position 3596</name>
            </trkpt>
            <trkpt lon="10.6096666666667" lat="47.4999883333333">
                <ele>2119.2</ele>
                <time>2009-08-25T10:37:46.000Z</time>
                <name>Position 3597</name>
            </trkpt>
            <trkpt lon="10.60968" lat="47.4999783333333">
                <ele>2119.1</ele>
                <time>2009-08-25T10:37:49.000Z</time>
                <name>Position 3598</name>
            </trkpt>
            <trkpt lon="10.60969" lat="47.4999666666667">
                <ele>2118.9</ele>
                <time>2009-08-25T10:37:52.000Z</time>
                <name>Position 3599</name>
            </trkpt>
            <trkpt lon="10.6097116666667" lat="47.4999816666667">
                <ele>2119.1</ele>
                <time>2009-08-25T10:37:55.000Z</time>
                <name>Position 3600</name>
            </trkpt>
            <trkpt lon="10.6096966666667" lat="47.4999783333333">
                <ele>2119.1</ele>
                <time>2009-08-25T10:37:58.000Z</time>
                <name>Position 3601</name>
            </trkpt>
            <trkpt lon="10.60971" lat="47.4999683333333">
                <ele>2119.0</ele>
                <time>2009-08-25T10:38:01.000Z</time>
                <name>Position 3602</name>
            </trkpt>
            <trkpt lon="10.6096883333333" lat="47.4999666666667">
                <ele>2118.9</ele>
                <time>2009-08-25T10:38:04.000Z</time>
                <name>Position 3603</name>
            </trkpt>
            <trkpt lon="10.60968" lat="47.49996">
                <ele>2118.9</ele>
                <time>2009-08-25T10:38:07.000Z</time>
                <name>Position 3604</name>
            </trkpt>
            <trkpt lon="10.6096816666667" lat="47.4999633333333">
                <ele>2118.8</ele>
                <time>2009-08-25T10:38:10.000Z</time>
                <name>Position 3605</name>
            </trkpt>
            <trkpt lon="10.6097183333333" lat="47.499965">
                <ele>2118.4</ele>
                <time>2009-08-25T10:38:13.000Z</time>
                <name>Position 3606</name>
            </trkpt>
            <trkpt lon="10.6097316666667" lat="47.4999566666667">
                <ele>2117.6</ele>
                <time>2009-08-25T10:38:16.000Z</time>
                <name>Position 3607</name>
            </trkpt>
            <trkpt lon="10.6097466666667" lat="47.499955">
                <ele>2117.6</ele>
                <time>2009-08-25T10:38:19.000Z</time>
                <name>Position 3608</name>
            </trkpt>
            <trkpt lon="10.609745" lat="47.4999516666667">
                <ele>2117.5</ele>
                <time>2009-08-25T10:38:22.000Z</time>
                <name>Position 3609</name>
            </trkpt>
            <trkpt lon="10.609725" lat="47.4999616666667">
                <ele>2117.2</ele>
                <time>2009-08-25T10:38:25.000Z</time>
                <name>Position 3610</name>
            </trkpt>
            <trkpt lon="10.6097416666667" lat="47.4999716666667">
                <ele>2117.0</ele>
                <time>2009-08-25T10:38:28.000Z</time>
                <name>Position 3611</name>
            </trkpt>
            <trkpt lon="10.609735" lat="47.4999733333333">
                <ele>2117.0</ele>
                <time>2009-08-25T10:38:31.000Z</time>
                <name>Position 3612</name>
            </trkpt>
            <trkpt lon="10.6097733333333" lat="47.4999716666667">
                <ele>2116.6</ele>
                <time>2009-08-25T10:38:34.000Z</time>
                <name>Position 3613</name>
            </trkpt>
            <trkpt lon="10.6097766666667" lat="47.4999766666667">
                <ele>2116.0</ele>
                <time>2009-08-25T10:38:37.000Z</time>
                <name>Position 3614</name>
            </trkpt>
            <trkpt lon="10.6097783333333" lat="47.49999">
                <ele>2114.9</ele>
                <time>2009-08-25T10:38:40.000Z</time>
                <name>Position 3615</name>
            </trkpt>
            <trkpt lon="10.6098" lat="47.4999816666667">
                <ele>2114.4</ele>
                <time>2009-08-25T10:38:43.000Z</time>
                <name>Position 3616</name>
            </trkpt>
            <trkpt lon="10.609825" lat="47.4999916666667">
                <ele>2114.0</ele>
                <time>2009-08-25T10:38:46.000Z</time>
                <name>Position 3617</name>
            </trkpt>
            <trkpt lon="10.6098216666667" lat="47.5000033333333">
                <ele>2113.1</ele>
                <time>2009-08-25T10:38:49.000Z</time>
                <name>Position 3618</name>
            </trkpt>
            <trkpt lon="10.6098333333333" lat="47.5000266666667">
                <ele>2112.2</ele>
                <time>2009-08-25T10:38:52.000Z</time>
                <name>Position 3619</name>
            </trkpt>
            <trkpt lon="10.60983" lat="47.500025">
                <ele>2111.7</ele>
                <time>2009-08-25T10:38:55.000Z</time>
                <name>Position 3620</name>
            </trkpt>
            <trkpt lon="10.6098233333333" lat="47.500035">
                <ele>2110.8</ele>
                <time>2009-08-25T10:38:58.000Z</time>
                <name>Position 3621</name>
            </trkpt>
            <trkpt lon="10.6098233333333" lat="47.500045">
                <ele>2110.3</ele>
                <time>2009-08-25T10:39:01.000Z</time>
                <name>Position 3622</name>
            </trkpt>
            <trkpt lon="10.6098316666667" lat="47.5000533333333">
                <ele>2110.1</ele>
                <time>2009-08-25T10:39:04.000Z</time>
                <name>Position 3623</name>
            </trkpt>
            <trkpt lon="10.6098483333333" lat="47.5000616666667">
                <ele>2109.9</ele>
                <time>2009-08-25T10:39:07.000Z</time>
                <name>Position 3624</name>
            </trkpt>
            <trkpt lon="10.6098716666667" lat="47.5000716666667">
                <ele>2109.7</ele>
                <time>2009-08-25T10:39:10.000Z</time>
                <name>Position 3625</name>
            </trkpt>
            <trkpt lon="10.6098833333333" lat="47.5000816666667">
                <ele>2109.5</ele>
                <time>2009-08-25T10:39:13.000Z</time>
                <name>Position 3626</name>
            </trkpt>
            <trkpt lon="10.6099066666667" lat="47.5000866666667">
                <ele>2109.3</ele>
                <time>2009-08-25T10:39:16.000Z</time>
                <name>Position 3627</name>
            </trkpt>
            <trkpt lon="10.6099383333333" lat="47.5000883333333">
                <ele>2109.3</ele>
                <time>2009-08-25T10:39:19.000Z</time>
                <name>Position 3628</name>
            </trkpt>
            <trkpt lon="10.609945" lat="47.5000866666667">
                <ele>2109.2</ele>
                <time>2009-08-25T10:39:22.000Z</time>
                <name>Position 3629</name>
            </trkpt>
            <trkpt lon="10.60996" lat="47.5001016666667">
                <ele>2108.8</ele>
                <time>2009-08-25T10:39:25.000Z</time>
                <name>Position 3630</name>
            </trkpt>
            <trkpt lon="10.6099783333333" lat="47.5001066666667">
                <ele>2108.4</ele>
                <time>2009-08-25T10:39:28.000Z</time>
                <name>Position 3631</name>
            </trkpt>
            <trkpt lon="10.6099783333333" lat="47.5001">
                <ele>2108.2</ele>
                <time>2009-08-25T10:39:31.000Z</time>
                <name>Position 3632</name>
            </trkpt>
            <trkpt lon="10.61" lat="47.5000733333333">
                <ele>2108.3</ele>
                <time>2009-08-25T10:39:34.000Z</time>
                <name>Position 3633</name>
            </trkpt>
            <trkpt lon="10.6100116666667" lat="47.5000566666667">
                <ele>2108.1</ele>
                <time>2009-08-25T10:39:37.000Z</time>
                <name>Position 3634</name>
            </trkpt>
            <trkpt lon="10.6100283333333" lat="47.500055">
                <ele>2108.1</ele>
                <time>2009-08-25T10:39:40.000Z</time>
                <name>Position 3635</name>
            </trkpt>
            <trkpt lon="10.6100233333333" lat="47.50005">
                <ele>2108.0</ele>
                <time>2009-08-25T10:39:43.000Z</time>
                <name>Position 3636</name>
            </trkpt>
            <trkpt lon="10.61003" lat="47.500055">
                <ele>2107.9</ele>
                <time>2009-08-25T10:39:46.000Z</time>
                <name>Position 3637</name>
            </trkpt>
            <trkpt lon="10.61006" lat="47.5000383333333">
                <ele>2107.8</ele>
                <time>2009-08-25T10:39:49.000Z</time>
                <name>Position 3638</name>
            </trkpt>
            <trkpt lon="10.6100466666667" lat="47.500035">
                <ele>2107.7</ele>
                <time>2009-08-25T10:39:52.000Z</time>
                <name>Position 3639</name>
            </trkpt>
            <trkpt lon="10.6100383333333" lat="47.500045">
                <ele>2107.8</ele>
                <time>2009-08-25T10:39:55.000Z</time>
                <name>Position 3640</name>
            </trkpt>
            <trkpt lon="10.61009" lat="47.5000683333333">
                <ele>2108.1</ele>
                <time>2009-08-25T10:39:58.000Z</time>
                <name>Position 3641</name>
            </trkpt>
            <trkpt lon="10.6100283333333" lat="47.500075">
                <ele>2108.0</ele>
                <time>2009-08-25T10:40:01.000Z</time>
                <name>Position 3642</name>
            </trkpt>
            <trkpt lon="10.6100333333333" lat="47.5000816666667">
                <ele>2107.7</ele>
                <time>2009-08-25T10:40:04.000Z</time>
                <name>Position 3643</name>
            </trkpt>
            <trkpt lon="10.6100666666667" lat="47.500085">
                <ele>2107.5</ele>
                <time>2009-08-25T10:40:07.000Z</time>
                <name>Position 3644</name>
            </trkpt>
            <trkpt lon="10.610065" lat="47.5000916666667">
                <ele>2107.5</ele>
                <time>2009-08-25T10:40:10.000Z</time>
                <name>Position 3645</name>
            </trkpt>
            <trkpt lon="10.610105" lat="47.5001116666667">
                <ele>2106.7</ele>
                <time>2009-08-25T10:40:13.000Z</time>
                <name>Position 3646</name>
            </trkpt>
            <trkpt lon="10.6101366666667" lat="47.5000983333333">
                <ele>2105.6</ele>
                <time>2009-08-25T10:40:16.000Z</time>
                <name>Position 3647</name>
            </trkpt>
            <trkpt lon="10.61015" lat="47.5000866666667">
                <ele>2105.1</ele>
                <time>2009-08-25T10:40:19.000Z</time>
                <name>Position 3648</name>
            </trkpt>
            <trkpt lon="10.61018" lat="47.5000816666667">
                <ele>2102.9</ele>
                <time>2009-08-25T10:40:22.000Z</time>
                <name>Position 3649</name>
            </trkpt>
            <trkpt lon="10.6101933333333" lat="47.500075">
                <ele>2101.8</ele>
                <time>2009-08-25T10:40:25.000Z</time>
                <name>Position 3650</name>
            </trkpt>
            <trkpt lon="10.610205" lat="47.5000633333333">
                <ele>2100.6</ele>
                <time>2009-08-25T10:40:28.000Z</time>
                <name>Position 3651</name>
            </trkpt>
            <trkpt lon="10.6101983333333" lat="47.5000633333333">
                <ele>2099.1</ele>
                <time>2009-08-25T10:40:31.000Z</time>
                <name>Position 3652</name>
            </trkpt>
            <trkpt lon="10.6102066666667" lat="47.5000616666667">
                <ele>2098.2</ele>
                <time>2009-08-25T10:40:34.000Z</time>
                <name>Position 3653</name>
            </trkpt>
            <trkpt lon="10.61022" lat="47.5000716666667">
                <ele>2097.7</ele>
                <time>2009-08-25T10:40:37.000Z</time>
                <name>Position 3654</name>
            </trkpt>
            <trkpt lon="10.6102216666667" lat="47.5000783333333">
                <ele>2096.5</ele>
                <time>2009-08-25T10:40:40.000Z</time>
                <name>Position 3655</name>
            </trkpt>
            <trkpt lon="10.6102316666667" lat="47.500095">
                <ele>2096.4</ele>
                <time>2009-08-25T10:40:43.000Z</time>
                <name>Position 3656</name>
            </trkpt>
            <trkpt lon="10.6102333333333" lat="47.5001083333333">
                <ele>2096.3</ele>
                <time>2009-08-25T10:40:46.000Z</time>
                <name>Position 3657</name>
            </trkpt>
            <trkpt lon="10.6102666666667" lat="47.50012">
                <ele>2096.2</ele>
                <time>2009-08-25T10:40:49.000Z</time>
                <name>Position 3658</name>
            </trkpt>
            <trkpt lon="10.610305" lat="47.500095">
                <ele>2095.8</ele>
                <time>2009-08-25T10:40:52.000Z</time>
                <name>Position 3659</name>
            </trkpt>
            <trkpt lon="10.6103216666667" lat="47.5000833333333">
                <ele>2095.9</ele>
                <time>2009-08-25T10:40:55.000Z</time>
                <name>Position 3660</name>
            </trkpt>
            <trkpt lon="10.61035" lat="47.500095">
                <ele>2096.2</ele>
                <time>2009-08-25T10:40:58.000Z</time>
                <name>Position 3661</name>
            </trkpt>
            <trkpt lon="10.6103716666667" lat="47.5001166666667">
                <ele>2096.1</ele>
                <time>2009-08-25T10:41:01.000Z</time>
                <name>Position 3662</name>
            </trkpt>
            <trkpt lon="10.61038" lat="47.5001233333333">
                <ele>2096.3</ele>
                <time>2009-08-25T10:41:04.000Z</time>
                <name>Position 3663</name>
            </trkpt>
            <trkpt lon="10.6103883333333" lat="47.5001266666667">
                <ele>2096.4</ele>
                <time>2009-08-25T10:41:07.000Z</time>
                <name>Position 3664</name>
            </trkpt>
            <trkpt lon="10.6103966666667" lat="47.500125">
                <ele>2096.4</ele>
                <time>2009-08-25T10:41:10.000Z</time>
                <name>Position 3665</name>
            </trkpt>
            <trkpt lon="10.610435" lat="47.500115">
                <ele>2096.5</ele>
                <time>2009-08-25T10:41:13.000Z</time>
                <name>Position 3666</name>
            </trkpt>
            <trkpt lon="10.6104283333333" lat="47.5001166666667">
                <ele>2096.5</ele>
                <time>2009-08-25T10:41:16.000Z</time>
                <name>Position 3667</name>
            </trkpt>
            <trkpt lon="10.610415" lat="47.5001316666667">
                <ele>2096.5</ele>
                <time>2009-08-25T10:41:19.000Z</time>
                <name>Position 3668</name>
            </trkpt>
            <trkpt lon="10.610435" lat="47.500145">
                <ele>2096.5</ele>
                <time>2009-08-25T10:41:22.000Z</time>
                <name>Position 3669</name>
            </trkpt>
            <trkpt lon="10.6104583333333" lat="47.5001383333333">
                <ele>2096.5</ele>
                <time>2009-08-25T10:41:25.000Z</time>
                <name>Position 3670</name>
            </trkpt>
            <trkpt lon="10.6104983333333" lat="47.5001433333333">
                <ele>2096.5</ele>
                <time>2009-08-25T10:41:28.000Z</time>
                <name>Position 3671</name>
            </trkpt>
            <trkpt lon="10.6105383333333" lat="47.5001266666667">
                <ele>2096.5</ele>
                <time>2009-08-25T10:41:31.000Z</time>
                <name>Position 3672</name>
            </trkpt>
            <trkpt lon="10.6105766666667" lat="47.5001283333333">
                <ele>2096.6</ele>
                <time>2009-08-25T10:41:34.000Z</time>
                <name>Position 3673</name>
            </trkpt>
            <trkpt lon="10.6106116666667" lat="47.5001266666667">
                <ele>2096.6</ele>
                <time>2009-08-25T10:41:37.000Z</time>
                <name>Position 3674</name>
            </trkpt>
            <trkpt lon="10.610655" lat="47.5001066666667">
                <ele>2096.6</ele>
                <time>2009-08-25T10:41:40.000Z</time>
                <name>Position 3675</name>
            </trkpt>
            <trkpt lon="10.6106916666667" lat="47.5000933333333">
                <ele>2096.6</ele>
                <time>2009-08-25T10:41:43.000Z</time>
                <name>Position 3676</name>
            </trkpt>
            <trkpt lon="10.61072" lat="47.50009">
                <ele>2096.7</ele>
                <time>2009-08-25T10:41:46.000Z</time>
                <name>Position 3677</name>
            </trkpt>
            <trkpt lon="10.6107566666667" lat="47.5000833333333">
                <ele>2096.9</ele>
                <time>2009-08-25T10:41:52.000Z</time>
                <name>Position 3678</name>
            </trkpt>
            <trkpt lon="10.6106283333333" lat="47.50013">
                <ele>2096.9</ele>
                <time>2009-08-25T10:41:55.000Z</time>
                <name>Position 3679</name>
            </trkpt>
            <trkpt lon="10.6105766666667" lat="47.5001416666667">
                <ele>2097.0</ele>
                <time>2009-08-25T10:41:58.000Z</time>
                <name>Position 3680</name>
            </trkpt>
            <trkpt lon="10.6106166666667" lat="47.50014">
                <ele>2096.9</ele>
                <time>2009-08-25T10:42:01.000Z</time>
                <name>Position 3681</name>
            </trkpt>
            <trkpt lon="10.6106166666667" lat="47.5001483333333">
                <ele>2097.0</ele>
                <time>2009-08-25T10:42:04.000Z</time>
                <name>Position 3682</name>
            </trkpt>
            <trkpt lon="10.6105433333333" lat="47.5001566666667">
                <ele>2097.0</ele>
                <time>2009-08-25T10:42:07.000Z</time>
                <name>Position 3683</name>
            </trkpt>
            <trkpt lon="10.610365" lat="47.500115">
                <ele>2096.9</ele>
                <time>2009-08-25T10:42:10.000Z</time>
                <name>Position 3684</name>
            </trkpt>
            <trkpt lon="10.6103033333333" lat="47.5001066666667">
                <ele>2096.8</ele>
                <time>2009-08-25T10:42:13.000Z</time>
                <name>Position 3685</name>
            </trkpt>
            <trkpt lon="10.6103583333333" lat="47.5000916666667">
                <ele>2096.9</ele>
                <time>2009-08-25T10:42:15.000Z</time>
                <name>Position 3686</name>
            </trkpt>
            <trkpt lon="10.6103683333333" lat="47.50008">
                <ele>2096.9</ele>
                <time>2009-08-25T10:42:19.000Z</time>
                <name>Position 3687</name>
            </trkpt>
            <trkpt lon="10.6104133333333" lat="47.5000833333333">
                <ele>2097.0</ele>
                <time>2009-08-25T10:42:22.000Z</time>
                <name>Position 3688</name>
            </trkpt>
            <trkpt lon="10.6104266666667" lat="47.5000933333333">
                <ele>2097.0</ele>
                <time>2009-08-25T10:42:25.000Z</time>
                <name>Position 3689</name>
            </trkpt>
            <trkpt lon="10.6104366666667" lat="47.5001">
                <ele>2097.0</ele>
                <time>2009-08-25T10:42:28.000Z</time>
                <name>Position 3690</name>
            </trkpt>
            <trkpt lon="10.6104433333333" lat="47.5001166666667">
                <ele>2097.0</ele>
                <time>2009-08-25T10:42:30.000Z</time>
                <name>Position 3691</name>
            </trkpt>
            <trkpt lon="10.6104666666667" lat="47.5001333333333">
                <ele>2097.1</ele>
                <time>2009-08-25T10:42:34.000Z</time>
                <name>Position 3692</name>
            </trkpt>
            <trkpt lon="10.6105066666667" lat="47.500125">
                <ele>2097.2</ele>
                <time>2009-08-25T10:42:36.000Z</time>
                <name>Position 3693</name>
            </trkpt>
            <trkpt lon="10.6105483333333" lat="47.5001183333333">
                <ele>2097.3</ele>
                <time>2009-08-25T10:42:39.000Z</time>
                <name>Position 3694</name>
            </trkpt>
            <trkpt lon="10.6105133333333" lat="47.5001">
                <ele>2097.3</ele>
                <time>2009-08-25T10:42:43.000Z</time>
                <name>Position 3695</name>
            </trkpt>
            <trkpt lon="10.61056" lat="47.5001033333333">
                <ele>2097.4</ele>
                <time>2009-08-25T10:42:45.000Z</time>
                <name>Position 3696</name>
            </trkpt>
            <trkpt lon="10.6105816666667" lat="47.5000983333333">
                <ele>2097.5</ele>
                <time>2009-08-25T10:42:48.000Z</time>
                <name>Position 3697</name>
            </trkpt>
            <trkpt lon="10.6105633333333" lat="47.5001083333333">
                <ele>2097.4</ele>
                <time>2009-08-25T10:42:51.000Z</time>
                <name>Position 3698</name>
            </trkpt>
            <trkpt lon="10.6105783333333" lat="47.50011">
                <ele>2097.4</ele>
                <time>2009-08-25T10:42:54.000Z</time>
                <name>Position 3699</name>
            </trkpt>
            <trkpt lon="10.6105883333333" lat="47.5001116666667">
                <ele>2097.4</ele>
                <time>2009-08-25T10:42:57.000Z</time>
                <name>Position 3700</name>
            </trkpt>
            <trkpt lon="10.6105916666667" lat="47.5001116666667">
                <ele>2097.5</ele>
                <time>2009-08-25T10:43:00.000Z</time>
                <name>Position 3701</name>
            </trkpt>
            <trkpt lon="10.6105833333333" lat="47.5001133333333">
                <ele>2097.5</ele>
                <time>2009-08-25T10:43:03.000Z</time>
                <name>Position 3702</name>
            </trkpt>
            <trkpt lon="10.61058" lat="47.50011">
                <ele>2097.4</ele>
                <time>2009-08-25T10:43:06.000Z</time>
                <name>Position 3703</name>
            </trkpt>
            <trkpt lon="10.6105683333333" lat="47.5001066666667">
                <ele>2097.5</ele>
                <time>2009-08-25T10:43:09.000Z</time>
                <name>Position 3704</name>
            </trkpt>
            <trkpt lon="10.61054" lat="47.5001033333333">
                <ele>2097.4</ele>
                <time>2009-08-25T10:43:12.000Z</time>
                <name>Position 3705</name>
            </trkpt>
            <trkpt lon="10.61053" lat="47.5001083333333">
                <ele>2097.4</ele>
                <time>2009-08-25T10:43:15.000Z</time>
                <name>Position 3706</name>
            </trkpt>
            <trkpt lon="10.6104933333333" lat="47.500105">
                <ele>2097.5</ele>
                <time>2009-08-25T10:43:18.000Z</time>
                <name>Position 3707</name>
            </trkpt>
            <trkpt lon="10.6104883333333" lat="47.5001033333333">
                <ele>2097.5</ele>
                <time>2009-08-25T10:43:21.000Z</time>
                <name>Position 3708</name>
            </trkpt>
            <trkpt lon="10.6105016666667" lat="47.50009">
                <ele>2097.5</ele>
                <time>2009-08-25T10:43:24.000Z</time>
                <name>Position 3709</name>
            </trkpt>
            <trkpt lon="10.61051" lat="47.5000933333333">
                <ele>2097.5</ele>
                <time>2009-08-25T10:43:27.000Z</time>
                <name>Position 3710</name>
            </trkpt>
            <trkpt lon="10.610505" lat="47.5000633333333">
                <ele>2097.6</ele>
                <time>2009-08-25T10:43:30.000Z</time>
                <name>Position 3711</name>
            </trkpt>
            <trkpt lon="10.6105133333333" lat="47.500065">
                <ele>2097.7</ele>
                <time>2009-08-25T10:43:33.000Z</time>
                <name>Position 3712</name>
            </trkpt>
            <trkpt lon="10.6105233333333" lat="47.50006">
                <ele>2097.8</ele>
                <time>2009-08-25T10:43:36.000Z</time>
                <name>Position 3713</name>
            </trkpt>
            <trkpt lon="10.6105266666667" lat="47.5000566666667">
                <ele>2097.9</ele>
                <time>2009-08-25T10:43:39.000Z</time>
                <name>Position 3714</name>
            </trkpt>
            <trkpt lon="10.6105266666667" lat="47.5000566666667">
                <ele>2098.0</ele>
                <time>2009-08-25T10:43:42.000Z</time>
                <name>Position 3715</name>
            </trkpt>
            <trkpt lon="10.6105266666667" lat="47.500055">
                <ele>2098.2</ele>
                <time>2009-08-25T10:43:45.000Z</time>
                <name>Position 3716</name>
            </trkpt>
            <trkpt lon="10.6105233333333" lat="47.5000533333333">
                <ele>2098.3</ele>
                <time>2009-08-25T10:43:48.000Z</time>
                <name>Position 3717</name>
            </trkpt>
            <trkpt lon="10.6105216666667" lat="47.5000516666667">
                <ele>2098.4</ele>
                <time>2009-08-25T10:43:51.000Z</time>
                <name>Position 3718</name>
            </trkpt>
            <trkpt lon="10.6105233333333" lat="47.5000516666667">
                <ele>2098.5</ele>
                <time>2009-08-25T10:43:54.000Z</time>
                <name>Position 3719</name>
            </trkpt>
            <trkpt lon="10.610525" lat="47.5000516666667">
                <ele>2098.6</ele>
                <time>2009-08-25T10:43:57.000Z</time>
                <name>Position 3720</name>
            </trkpt>
            <trkpt lon="10.6105283333333" lat="47.5000516666667">
                <ele>2098.8</ele>
                <time>2009-08-25T10:44:00.000Z</time>
                <name>Position 3721</name>
            </trkpt>
            <trkpt lon="10.61053" lat="47.5000516666667">
                <ele>2098.9</ele>
                <time>2009-08-25T10:44:03.000Z</time>
                <name>Position 3722</name>
            </trkpt>
            <trkpt lon="10.61053" lat="47.50005">
                <ele>2099.0</ele>
                <time>2009-08-25T10:44:06.000Z</time>
                <name>Position 3723</name>
            </trkpt>
            <trkpt lon="10.6105283333333" lat="47.50005">
                <ele>2099.1</ele>
                <time>2009-08-25T10:44:09.000Z</time>
                <name>Position 3724</name>
            </trkpt>
            <trkpt lon="10.61053" lat="47.5000483333333">
                <ele>2099.2</ele>
                <time>2009-08-25T10:44:12.000Z</time>
                <name>Position 3725</name>
            </trkpt>
            <trkpt lon="10.61053" lat="47.5000483333333">
                <ele>2099.2</ele>
                <time>2009-08-25T10:44:15.000Z</time>
                <name>Position 3726</name>
            </trkpt>
            <trkpt lon="10.61053" lat="47.50005">
                <ele>2099.2</ele>
                <time>2009-08-25T10:44:18.000Z</time>
                <name>Position 3727</name>
            </trkpt>
            <trkpt lon="10.6105316666667" lat="47.50005">
                <ele>2099.2</ele>
                <time>2009-08-25T10:44:21.000Z</time>
                <name>Position 3728</name>
            </trkpt>
            <trkpt lon="10.6105333333333" lat="47.5000516666667">
                <ele>2099.2</ele>
                <time>2009-08-25T10:44:24.000Z</time>
                <name>Position 3729</name>
            </trkpt>
            <trkpt lon="10.610535" lat="47.5000516666667">
                <ele>2099.2</ele>
                <time>2009-08-25T10:44:27.000Z</time>
                <name>Position 3730</name>
            </trkpt>
            <trkpt lon="10.610535" lat="47.5000533333333">
                <ele>2099.2</ele>
                <time>2009-08-25T10:44:30.000Z</time>
                <name>Position 3731</name>
            </trkpt>
            <trkpt lon="10.610535" lat="47.5000533333333">
                <ele>2099.2</ele>
                <time>2009-08-25T10:44:33.000Z</time>
                <name>Position 3732</name>
            </trkpt>
            <trkpt lon="10.6105366666667" lat="47.500055">
                <ele>2099.2</ele>
                <time>2009-08-25T10:44:36.000Z</time>
                <name>Position 3733</name>
            </trkpt>
            <trkpt lon="10.6105366666667" lat="47.50006">
                <ele>2099.2</ele>
                <time>2009-08-25T10:44:39.000Z</time>
                <name>Position 3734</name>
            </trkpt>
            <trkpt lon="10.6105383333333" lat="47.500065">
                <ele>2099.2</ele>
                <time>2009-08-25T10:44:42.000Z</time>
                <name>Position 3735</name>
            </trkpt>
            <trkpt lon="10.6105383333333" lat="47.5000633333333">
                <ele>2099.2</ele>
                <time>2009-08-25T10:44:45.000Z</time>
                <name>Position 3736</name>
            </trkpt>
            <trkpt lon="10.6105383333333" lat="47.5000633333333">
                <ele>2099.2</ele>
                <time>2009-08-25T10:44:48.000Z</time>
                <name>Position 3737</name>
            </trkpt>
            <trkpt lon="10.6105383333333" lat="47.5000633333333">
                <ele>2099.2</ele>
                <time>2009-08-25T10:44:51.000Z</time>
                <name>Position 3738</name>
            </trkpt>
            <trkpt lon="10.6105383333333" lat="47.5000616666667">
                <ele>2099.2</ele>
                <time>2009-08-25T10:44:54.000Z</time>
                <name>Position 3739</name>
            </trkpt>
            <trkpt lon="10.6105383333333" lat="47.5000616666667">
                <ele>2099.2</ele>
                <time>2009-08-25T10:44:57.000Z</time>
                <name>Position 3740</name>
            </trkpt>
            <trkpt lon="10.6105383333333" lat="47.5000616666667">
                <ele>2099.2</ele>
                <time>2009-08-25T10:45:00.000Z</time>
                <name>Position 3741</name>
            </trkpt>
            <trkpt lon="10.6105366666667" lat="47.5000616666667">
                <ele>2099.2</ele>
                <time>2009-08-25T10:45:03.000Z</time>
                <name>Position 3742</name>
            </trkpt>
            <trkpt lon="10.6105366666667" lat="47.5000616666667">
                <ele>2099.2</ele>
                <time>2009-08-25T10:45:06.000Z</time>
                <name>Position 3743</name>
            </trkpt>
            <trkpt lon="10.6105366666667" lat="47.5000616666667">
                <ele>2099.2</ele>
                <time>2009-08-25T10:45:09.000Z</time>
                <name>Position 3744</name>
            </trkpt>
            <trkpt lon="10.6105366666667" lat="47.5000616666667">
                <ele>2099.2</ele>
                <time>2009-08-25T10:45:12.000Z</time>
                <name>Position 3745</name>
            </trkpt>
            <trkpt lon="10.6105366666667" lat="47.5000616666667">
                <ele>2099.2</ele>
                <time>2009-08-25T10:45:15.000Z</time>
                <name>Position 3746</name>
            </trkpt>
            <trkpt lon="10.610535" lat="47.50006">
                <ele>2099.3</ele>
                <time>2009-08-25T10:45:18.000Z</time>
                <name>Position 3747</name>
            </trkpt>
            <trkpt lon="10.6105366666667" lat="47.5000633333333">
                <ele>2099.4</ele>
                <time>2009-08-25T10:45:21.000Z</time>
                <name>Position 3748</name>
            </trkpt>
            <trkpt lon="10.61054" lat="47.5000783333333">
                <ele>2098.9</ele>
                <time>2009-08-25T10:45:24.000Z</time>
                <name>Position 3749</name>
            </trkpt>
            <trkpt lon="10.6105716666667" lat="47.5000733333333">
                <ele>2098.6</ele>
                <time>2009-08-25T10:45:27.000Z</time>
                <name>Position 3750</name>
            </trkpt>
            <trkpt lon="10.610595" lat="47.5000866666667">
                <ele>2098.4</ele>
                <time>2009-08-25T10:45:30.000Z</time>
                <name>Position 3751</name>
            </trkpt>
            <trkpt lon="10.6106333333333" lat="47.5001083333333">
                <ele>2097.8</ele>
                <time>2009-08-25T10:45:33.000Z</time>
                <name>Position 3752</name>
            </trkpt>
            <trkpt lon="10.6106616666667" lat="47.5001216666667">
                <ele>2096.7</ele>
                <time>2009-08-25T10:45:37.000Z</time>
                <name>Position 3753</name>
            </trkpt>
            <trkpt lon="10.6106216666667" lat="47.500195">
                <ele>2094.4</ele>
                <time>2009-08-25T10:45:39.000Z</time>
                <name>Position 3754</name>
            </trkpt>
            <trkpt lon="10.6105516666667" lat="47.500275">
                <ele>2092.9</ele>
                <time>2009-08-25T10:45:42.000Z</time>
                <name>Position 3755</name>
            </trkpt>
            <trkpt lon="10.610545" lat="47.500275">
                <ele>2092.4</ele>
                <time>2009-08-25T10:45:45.000Z</time>
                <name>Position 3756</name>
            </trkpt>
            <trkpt lon="10.6105333333333" lat="47.5002566666667">
                <ele>2091.8</ele>
                <time>2009-08-25T10:45:48.000Z</time>
                <name>Position 3757</name>
            </trkpt>
            <trkpt lon="10.6105333333333" lat="47.5002283333333">
                <ele>2091.4</ele>
                <time>2009-08-25T10:45:51.000Z</time>
                <name>Position 3758</name>
            </trkpt>
            <trkpt lon="10.6105466666667" lat="47.5002283333333">
                <ele>2090.9</ele>
                <time>2009-08-25T10:45:54.000Z</time>
                <name>Position 3759</name>
            </trkpt>
            <trkpt lon="10.6106" lat="47.5002233333333">
                <ele>2090.4</ele>
                <time>2009-08-25T10:45:57.000Z</time>
                <name>Position 3760</name>
            </trkpt>
            <trkpt lon="10.610585" lat="47.50016">
                <ele>2089.8</ele>
                <time>2009-08-25T10:46:00.000Z</time>
                <name>Position 3761</name>
            </trkpt>
            <trkpt lon="10.6105683333333" lat="47.50019">
                <ele>2089.4</ele>
                <time>2009-08-25T10:46:03.000Z</time>
                <name>Position 3762</name>
            </trkpt>
            <trkpt lon="10.61053" lat="47.5001733333333">
                <ele>2089.3</ele>
                <time>2009-08-25T10:46:06.000Z</time>
                <name>Position 3763</name>
            </trkpt>
            <trkpt lon="10.6105166666667" lat="47.5001366666667">
                <ele>2089.0</ele>
                <time>2009-08-25T10:46:09.000Z</time>
                <name>Position 3764</name>
            </trkpt>
            <trkpt lon="10.6105416666667" lat="47.5000883333333">
                <ele>2088.7</ele>
                <time>2009-08-25T10:46:12.000Z</time>
                <name>Position 3765</name>
            </trkpt>
            <trkpt lon="10.6105383333333" lat="47.5000366666667">
                <ele>2088.1</ele>
                <time>2009-08-25T10:46:15.000Z</time>
                <name>Position 3766</name>
            </trkpt>
            <trkpt lon="10.61058" lat="47.5001616666667">
                <ele>2087.9</ele>
                <time>2009-08-25T10:46:18.000Z</time>
                <name>Position 3767</name>
            </trkpt>
            <trkpt lon="10.6106366666667" lat="47.5001816666667">
                <ele>2087.8</ele>
                <time>2009-08-25T10:46:21.000Z</time>
                <name>Position 3768</name>
            </trkpt>
            <trkpt lon="10.6106933333333" lat="47.50016">
                <ele>2087.5</ele>
                <time>2009-08-25T10:46:24.000Z</time>
                <name>Position 3769</name>
            </trkpt>
            <trkpt lon="10.61077" lat="47.50014">
                <ele>2086.7</ele>
                <time>2009-08-25T10:46:27.000Z</time>
                <name>Position 3770</name>
            </trkpt>
            <trkpt lon="10.6108366666667" lat="47.5001233333333">
                <ele>2085.2</ele>
                <time>2009-08-25T10:46:30.000Z</time>
                <name>Position 3771</name>
            </trkpt>
            <trkpt lon="10.610885" lat="47.500095">
                <ele>2084.9</ele>
                <time>2009-08-25T10:46:33.000Z</time>
                <name>Position 3772</name>
            </trkpt>
            <trkpt lon="10.6109433333333" lat="47.5000316666667">
                <ele>2084.3</ele>
                <time>2009-08-25T10:46:36.000Z</time>
                <name>Position 3773</name>
            </trkpt>
            <trkpt lon="10.6109633333333" lat="47.5000133333333">
                <ele>2083.8</ele>
                <time>2009-08-25T10:46:39.000Z</time>
                <name>Position 3774</name>
            </trkpt>
            <trkpt lon="10.6109466666667" lat="47.50005">
                <ele>2083.6</ele>
                <time>2009-08-25T10:46:42.000Z</time>
                <name>Position 3775</name>
            </trkpt>
            <trkpt lon="10.61094" lat="47.50006">
                <ele>2083.1</ele>
                <time>2009-08-25T10:46:45.000Z</time>
                <name>Position 3776</name>
            </trkpt>
            <trkpt lon="10.6109633333333" lat="47.5000533333333">
                <ele>2082.6</ele>
                <time>2009-08-25T10:46:48.000Z</time>
                <name>Position 3777</name>
            </trkpt>
            <trkpt lon="10.6109716666667" lat="47.50007">
                <ele>2082.2</ele>
                <time>2009-08-25T10:46:51.000Z</time>
                <name>Position 3778</name>
            </trkpt>
            <trkpt lon="10.6109883333333" lat="47.5000366666667">
                <ele>2082.1</ele>
                <time>2009-08-25T10:46:54.000Z</time>
                <name>Position 3779</name>
            </trkpt>
            <trkpt lon="10.6110216666667" lat="47.5000216666667">
                <ele>2081.7</ele>
                <time>2009-08-25T10:46:57.000Z</time>
                <name>Position 3780</name>
            </trkpt>
            <trkpt lon="10.6110333333333" lat="47.4999966666667">
                <ele>2081.1</ele>
                <time>2009-08-25T10:47:00.000Z</time>
                <name>Position 3781</name>
            </trkpt>
            <trkpt lon="10.6110483333333" lat="47.4999666666667">
                <ele>2080.5</ele>
                <time>2009-08-25T10:47:03.000Z</time>
                <name>Position 3782</name>
            </trkpt>
            <trkpt lon="10.6110183333333" lat="47.499905">
                <ele>2079.0</ele>
                <time>2009-08-25T10:47:06.000Z</time>
                <name>Position 3783</name>
            </trkpt>
            <trkpt lon="10.6110116666667" lat="47.4998116666667">
                <ele>2077.9</ele>
                <time>2009-08-25T10:47:09.000Z</time>
                <name>Position 3784</name>
            </trkpt>
            <trkpt lon="10.6109916666667" lat="47.4997583333333">
                <ele>2076.4</ele>
                <time>2009-08-25T10:47:13.000Z</time>
                <name>Position 3785</name>
            </trkpt>
            <trkpt lon="10.610985" lat="47.4997283333333">
                <ele>2075.7</ele>
                <time>2009-08-25T10:47:15.000Z</time>
                <name>Position 3786</name>
            </trkpt>
            <trkpt lon="10.6110266666667" lat="47.4996283333333">
                <ele>2075.4</ele>
                <time>2009-08-25T10:47:18.000Z</time>
                <name>Position 3787</name>
            </trkpt>
            <trkpt lon="10.611035" lat="47.499595">
                <ele>2074.7</ele>
                <time>2009-08-25T10:47:21.000Z</time>
                <name>Position 3788</name>
            </trkpt>
            <trkpt lon="10.61102" lat="47.4995983333333">
                <ele>2073.7</ele>
                <time>2009-08-25T10:47:24.000Z</time>
                <name>Position 3789</name>
            </trkpt>
            <trkpt lon="10.61101" lat="47.4996066666667">
                <ele>2072.8</ele>
                <time>2009-08-25T10:47:27.000Z</time>
                <name>Position 3790</name>
            </trkpt>
            <trkpt lon="10.610995" lat="47.4996033333333">
                <ele>2072.3</ele>
                <time>2009-08-25T10:47:30.000Z</time>
                <name>Position 3791</name>
            </trkpt>
            <trkpt lon="10.611005" lat="47.4996">
                <ele>2071.6</ele>
                <time>2009-08-25T10:47:33.000Z</time>
                <name>Position 3792</name>
            </trkpt>
            <trkpt lon="10.611" lat="47.4996">
                <ele>2071.2</ele>
                <time>2009-08-25T10:47:36.000Z</time>
                <name>Position 3793</name>
            </trkpt>
            <trkpt lon="10.611" lat="47.4996">
                <ele>2071.1</ele>
                <time>2009-08-25T10:47:39.000Z</time>
                <name>Position 3794</name>
            </trkpt>
            <trkpt lon="10.6110016666667" lat="47.4996016666667">
                <ele>2071.0</ele>
                <time>2009-08-25T10:47:42.000Z</time>
                <name>Position 3795</name>
            </trkpt>
            <trkpt lon="10.6109983333333" lat="47.499605">
                <ele>2070.9</ele>
                <time>2009-08-25T10:47:45.000Z</time>
                <name>Position 3796</name>
            </trkpt>
            <trkpt lon="10.611005" lat="47.4996016666667">
                <ele>2070.3</ele>
                <time>2009-08-25T10:47:48.000Z</time>
                <name>Position 3797</name>
            </trkpt>
            <trkpt lon="10.611015" lat="47.4995933333333">
                <ele>2069.7</ele>
                <time>2009-08-25T10:47:51.000Z</time>
                <name>Position 3798</name>
            </trkpt>
            <trkpt lon="10.6110483333333" lat="47.4995916666667">
                <ele>2068.5</ele>
                <time>2009-08-25T10:47:54.000Z</time>
                <name>Position 3799</name>
            </trkpt>
            <trkpt lon="10.6110416666667" lat="47.49958">
                <ele>2067.6</ele>
                <time>2009-08-25T10:47:57.000Z</time>
                <name>Position 3800</name>
            </trkpt>
            <trkpt lon="10.6110266666667" lat="47.499585">
                <ele>2066.7</ele>
                <time>2009-08-25T10:48:00.000Z</time>
                <name>Position 3801</name>
            </trkpt>
            <trkpt lon="10.6110433333333" lat="47.4995716666667">
                <ele>2066.2</ele>
                <time>2009-08-25T10:48:03.000Z</time>
                <name>Position 3802</name>
            </trkpt>
            <trkpt lon="10.6110683333333" lat="47.4995533333333">
                <ele>2065.5</ele>
                <time>2009-08-25T10:48:06.000Z</time>
                <name>Position 3803</name>
            </trkpt>
            <trkpt lon="10.6110866666667" lat="47.4995616666667">
                <ele>2065.0</ele>
                <time>2009-08-25T10:48:09.000Z</time>
                <name>Position 3804</name>
            </trkpt>
            <trkpt lon="10.6111016666667" lat="47.4995666666667">
                <ele>2064.4</ele>
                <time>2009-08-25T10:48:12.000Z</time>
                <name>Position 3805</name>
            </trkpt>
            <trkpt lon="10.61112" lat="47.4995716666667">
                <ele>2063.8</ele>
                <time>2009-08-25T10:48:15.000Z</time>
                <name>Position 3806</name>
            </trkpt>
            <trkpt lon="10.6111416666667" lat="47.499565">
                <ele>2063.4</ele>
                <time>2009-08-25T10:48:18.000Z</time>
                <name>Position 3807</name>
            </trkpt>
            <trkpt lon="10.61116" lat="47.4995933333333">
                <ele>2063.0</ele>
                <time>2009-08-25T10:48:21.000Z</time>
                <name>Position 3808</name>
            </trkpt>
            <trkpt lon="10.6111766666667" lat="47.49961">
                <ele>2062.6</ele>
                <time>2009-08-25T10:48:24.000Z</time>
                <name>Position 3809</name>
            </trkpt>
            <trkpt lon="10.61121" lat="47.4996116666667">
                <ele>2061.9</ele>
                <time>2009-08-25T10:48:27.000Z</time>
                <name>Position 3810</name>
            </trkpt>
            <trkpt lon="10.6112383333333" lat="47.4996133333333">
                <ele>2061.2</ele>
                <time>2009-08-25T10:48:30.000Z</time>
                <name>Position 3811</name>
            </trkpt>
            <trkpt lon="10.6112683333333" lat="47.499625">
                <ele>2060.8</ele>
                <time>2009-08-25T10:48:33.000Z</time>
                <name>Position 3812</name>
            </trkpt>
            <trkpt lon="10.6112966666667" lat="47.499635">
                <ele>2061.0</ele>
                <time>2009-08-25T10:48:36.000Z</time>
                <name>Position 3813</name>
            </trkpt>
            <trkpt lon="10.611325" lat="47.499645">
                <ele>2061.0</ele>
                <time>2009-08-25T10:48:39.000Z</time>
                <name>Position 3814</name>
            </trkpt>
            <trkpt lon="10.6113366666667" lat="47.499655">
                <ele>2060.8</ele>
                <time>2009-08-25T10:48:42.000Z</time>
                <name>Position 3815</name>
            </trkpt>
            <trkpt lon="10.6113533333333" lat="47.4996416666667">
                <ele>2060.9</ele>
                <time>2009-08-25T10:48:45.000Z</time>
                <name>Position 3816</name>
            </trkpt>
            <trkpt lon="10.6113816666667" lat="47.4996433333333">
                <ele>2060.7</ele>
                <time>2009-08-25T10:48:49.000Z</time>
                <name>Position 3817</name>
            </trkpt>
            <trkpt lon="10.6114483333333" lat="47.4996783333333">
                <ele>2056.8</ele>
                <time>2009-08-25T10:48:51.000Z</time>
                <name>Position 3818</name>
            </trkpt>
            <trkpt lon="10.6114516666667" lat="47.4996783333333">
                <ele>2054.0</ele>
                <time>2009-08-25T10:48:54.000Z</time>
                <name>Position 3819</name>
            </trkpt>
            <trkpt lon="10.6114783333333" lat="47.499675">
                <ele>2052.1</ele>
                <time>2009-08-25T10:48:57.000Z</time>
                <name>Position 3820</name>
            </trkpt>
            <trkpt lon="10.6114716666667" lat="47.4996833333333">
                <ele>2050.5</ele>
                <time>2009-08-25T10:49:00.000Z</time>
                <name>Position 3821</name>
            </trkpt>
            <trkpt lon="10.61148" lat="47.499675">
                <ele>2049.3</ele>
                <time>2009-08-25T10:49:03.000Z</time>
                <name>Position 3822</name>
            </trkpt>
            <trkpt lon="10.611475" lat="47.4996733333333">
                <ele>2048.4</ele>
                <time>2009-08-25T10:49:06.000Z</time>
                <name>Position 3823</name>
            </trkpt>
            <trkpt lon="10.611505" lat="47.4996583333333">
                <ele>2046.8</ele>
                <time>2009-08-25T10:49:09.000Z</time>
                <name>Position 3824</name>
            </trkpt>
            <trkpt lon="10.6115" lat="47.499635">
                <ele>2045.5</ele>
                <time>2009-08-25T10:49:12.000Z</time>
                <name>Position 3825</name>
            </trkpt>
            <trkpt lon="10.6115016666667" lat="47.4996416666667">
                <ele>2044.4</ele>
                <time>2009-08-25T10:49:15.000Z</time>
                <name>Position 3826</name>
            </trkpt>
            <trkpt lon="10.6115116666667" lat="47.49965">
                <ele>2043.3</ele>
                <time>2009-08-25T10:49:18.000Z</time>
                <name>Position 3827</name>
            </trkpt>
            <trkpt lon="10.61152" lat="47.499645">
                <ele>2040.6</ele>
                <time>2009-08-25T10:49:21.000Z</time>
                <name>Position 3828</name>
            </trkpt>
            <trkpt lon="10.6115216666667" lat="47.4996433333333">
                <ele>2039.0</ele>
                <time>2009-08-25T10:49:24.000Z</time>
                <name>Position 3829</name>
            </trkpt>
            <trkpt lon="10.6115233333333" lat="47.4996483333333">
                <ele>2037.8</ele>
                <time>2009-08-25T10:49:27.000Z</time>
                <name>Position 3830</name>
            </trkpt>
            <trkpt lon="10.611525" lat="47.4996533333333">
                <ele>2036.9</ele>
                <time>2009-08-25T10:49:30.000Z</time>
                <name>Position 3831</name>
            </trkpt>
            <trkpt lon="10.6115333333333" lat="47.499655">
                <ele>2035.5</ele>
                <time>2009-08-25T10:49:33.000Z</time>
                <name>Position 3832</name>
            </trkpt>
            <trkpt lon="10.6115566666667" lat="47.4996633333333">
                <ele>2030.5</ele>
                <time>2009-08-25T10:49:36.000Z</time>
                <name>Position 3833</name>
            </trkpt>
            <trkpt lon="10.6115666666667" lat="47.4996666666667">
                <ele>2028.8</ele>
                <time>2009-08-25T10:49:39.000Z</time>
                <name>Position 3834</name>
            </trkpt>
            <trkpt lon="10.611565" lat="47.4996733333333">
                <ele>2027.3</ele>
                <time>2009-08-25T10:49:42.000Z</time>
                <name>Position 3835</name>
            </trkpt>
            <trkpt lon="10.6115833333333" lat="47.4996716666667">
                <ele>2026.3</ele>
                <time>2009-08-25T10:49:45.000Z</time>
                <name>Position 3836</name>
            </trkpt>
            <trkpt lon="10.61159" lat="47.499675">
                <ele>2025.9</ele>
                <time>2009-08-25T10:49:48.000Z</time>
                <name>Position 3837</name>
            </trkpt>
            <trkpt lon="10.6116" lat="47.4996783333333">
                <ele>2023.7</ele>
                <time>2009-08-25T10:49:51.000Z</time>
                <name>Position 3838</name>
            </trkpt>
            <trkpt lon="10.61161" lat="47.4996833333333">
                <ele>2023.0</ele>
                <time>2009-08-25T10:49:54.000Z</time>
                <name>Position 3839</name>
            </trkpt>
            <trkpt lon="10.61162" lat="47.4996883333333">
                <ele>2021.1</ele>
                <time>2009-08-25T10:49:57.000Z</time>
                <name>Position 3840</name>
            </trkpt>
            <trkpt lon="10.61163" lat="47.4996916666667">
                <ele>2019.4</ele>
                <time>2009-08-25T10:50:00.000Z</time>
                <name>Position 3841</name>
            </trkpt>
            <trkpt lon="10.6116433333333" lat="47.499695">
                <ele>2014.9</ele>
                <time>2009-08-25T10:50:03.000Z</time>
                <name>Position 3842</name>
            </trkpt>
            <trkpt lon="10.61166" lat="47.499695">
                <ele>2013.4</ele>
                <time>2009-08-25T10:50:06.000Z</time>
                <name>Position 3843</name>
            </trkpt>
            <trkpt lon="10.611675" lat="47.4997033333333">
                <ele>2010.8</ele>
                <time>2009-08-25T10:50:09.000Z</time>
                <name>Position 3844</name>
            </trkpt>
            <trkpt lon="10.6116883333333" lat="47.499715">
                <ele>2007.7</ele>
                <time>2009-08-25T10:50:12.000Z</time>
                <name>Position 3845</name>
            </trkpt>
            <trkpt lon="10.6117033333333" lat="47.49973">
                <ele>2004.6</ele>
                <time>2009-08-25T10:50:15.000Z</time>
                <name>Position 3846</name>
            </trkpt>
            <trkpt lon="10.6117016666667" lat="47.4997266666667">
                <ele>1999.2</ele>
                <time>2009-08-25T10:50:18.000Z</time>
                <name>Position 3847</name>
            </trkpt>
            <trkpt lon="10.6116933333333" lat="47.49971">
                <ele>1996.6</ele>
                <time>2009-08-25T10:50:21.000Z</time>
                <name>Position 3848</name>
            </trkpt>
            <trkpt lon="10.6116833333333" lat="47.4997066666667">
                <ele>1993.3</ele>
                <time>2009-08-25T10:50:25.000Z</time>
                <name>Position 3849</name>
            </trkpt>
            <trkpt lon="10.6116816666667" lat="47.4996983333333">
                <ele>1991.3</ele>
                <time>2009-08-25T10:50:27.000Z</time>
                <name>Position 3850</name>
            </trkpt>
            <trkpt lon="10.6116833333333" lat="47.49969">
                <ele>1989.9</ele>
                <time>2009-08-25T10:50:30.000Z</time>
                <name>Position 3851</name>
            </trkpt>
            <trkpt lon="10.6116933333333" lat="47.4996816666667">
                <ele>1988.3</ele>
                <time>2009-08-25T10:50:33.000Z</time>
                <name>Position 3852</name>
            </trkpt>
            <trkpt lon="10.61169" lat="47.4996716666667">
                <ele>1987.2</ele>
                <time>2009-08-25T10:50:36.000Z</time>
                <name>Position 3853</name>
            </trkpt>
            <trkpt lon="10.61171" lat="47.49968">
                <ele>1984.4</ele>
                <time>2009-08-25T10:50:39.000Z</time>
                <name>Position 3854</name>
            </trkpt>
            <trkpt lon="10.6117216666667" lat="47.4996666666667">
                <ele>1982.7</ele>
                <time>2009-08-25T10:50:42.000Z</time>
                <name>Position 3855</name>
            </trkpt>
            <trkpt lon="10.6117433333333" lat="47.49965">
                <ele>1981.9</ele>
                <time>2009-08-25T10:50:45.000Z</time>
                <name>Position 3856</name>
            </trkpt>
            <trkpt lon="10.6117583333333" lat="47.4996683333333">
                <ele>1981.2</ele>
                <time>2009-08-25T10:50:48.000Z</time>
                <name>Position 3857</name>
            </trkpt>
            <trkpt lon="10.6117766666667" lat="47.49968">
                <ele>1980.6</ele>
                <time>2009-08-25T10:50:51.000Z</time>
                <name>Position 3858</name>
            </trkpt>
            <trkpt lon="10.61176" lat="47.4996683333333">
                <ele>1978.6</ele>
                <time>2009-08-25T10:50:54.000Z</time>
                <name>Position 3859</name>
            </trkpt>
            <trkpt lon="10.61175" lat="47.499665">
                <ele>1977.4</ele>
                <time>2009-08-25T10:50:57.000Z</time>
                <name>Position 3860</name>
            </trkpt>
            <trkpt lon="10.611745" lat="47.4996616666667">
                <ele>1977.0</ele>
                <time>2009-08-25T10:51:00.000Z</time>
                <name>Position 3861</name>
            </trkpt>
            <trkpt lon="10.6117516666667" lat="47.4996566666667">
                <ele>1976.6</ele>
                <time>2009-08-25T10:51:03.000Z</time>
                <name>Position 3862</name>
            </trkpt>
            <trkpt lon="10.6117516666667" lat="47.4996533333333">
                <ele>1976.5</ele>
                <time>2009-08-25T10:51:06.000Z</time>
                <name>Position 3863</name>
            </trkpt>
            <trkpt lon="10.6117533333333" lat="47.4996366666667">
                <ele>1976.1</ele>
                <time>2009-08-25T10:51:09.000Z</time>
                <name>Position 3864</name>
            </trkpt>
            <trkpt lon="10.6117466666667" lat="47.4996366666667">
                <ele>1975.8</ele>
                <time>2009-08-25T10:51:12.000Z</time>
                <name>Position 3865</name>
            </trkpt>
            <trkpt lon="10.6117566666667" lat="47.499605">
                <ele>1975.3</ele>
                <time>2009-08-25T10:51:15.000Z</time>
                <name>Position 3866</name>
            </trkpt>
            <trkpt lon="10.611775" lat="47.4995966666667">
                <ele>1975.2</ele>
                <time>2009-08-25T10:51:18.000Z</time>
                <name>Position 3867</name>
            </trkpt>
            <trkpt lon="10.6117833333333" lat="47.49959">
                <ele>1974.7</ele>
                <time>2009-08-25T10:51:22.000Z</time>
                <name>Position 3868</name>
            </trkpt>
            <trkpt lon="10.6118" lat="47.499565">
                <ele>1974.7</ele>
                <time>2009-08-25T10:51:24.000Z</time>
                <name>Position 3869</name>
            </trkpt>
            <trkpt lon="10.6118183333333" lat="47.499565">
                <ele>1974.6</ele>
                <time>2009-08-25T10:51:27.000Z</time>
                <name>Position 3870</name>
            </trkpt>
            <trkpt lon="10.611835" lat="47.499555">
                <ele>1974.5</ele>
                <time>2009-08-25T10:51:30.000Z</time>
                <name>Position 3871</name>
            </trkpt>
            <trkpt lon="10.6118383333333" lat="47.4995583333333">
                <ele>1974.2</ele>
                <time>2009-08-25T10:51:33.000Z</time>
                <name>Position 3872</name>
            </trkpt>
            <trkpt lon="10.6118433333333" lat="47.499555">
                <ele>1973.8</ele>
                <time>2009-08-25T10:51:36.000Z</time>
                <name>Position 3873</name>
            </trkpt>
            <trkpt lon="10.6118716666667" lat="47.499515">
                <ele>1973.5</ele>
                <time>2009-08-25T10:51:39.000Z</time>
                <name>Position 3874</name>
            </trkpt>
            <trkpt lon="10.6118933333333" lat="47.4995083333333">
                <ele>1972.9</ele>
                <time>2009-08-25T10:51:42.000Z</time>
                <name>Position 3875</name>
            </trkpt>
            <trkpt lon="10.6119" lat="47.4994966666667">
                <ele>1972.7</ele>
                <time>2009-08-25T10:51:45.000Z</time>
                <name>Position 3876</name>
            </trkpt>
            <trkpt lon="10.6118933333333" lat="47.4994833333333">
                <ele>1972.3</ele>
                <time>2009-08-25T10:51:48.000Z</time>
                <name>Position 3877</name>
            </trkpt>
            <trkpt lon="10.6118866666667" lat="47.49947">
                <ele>1971.6</ele>
                <time>2009-08-25T10:51:51.000Z</time>
                <name>Position 3878</name>
            </trkpt>
            <trkpt lon="10.61189" lat="47.4994883333333">
                <ele>1971.0</ele>
                <time>2009-08-25T10:51:54.000Z</time>
                <name>Position 3879</name>
            </trkpt>
            <trkpt lon="10.6118933333333" lat="47.4994833333333">
                <ele>1970.9</ele>
                <time>2009-08-25T10:51:57.000Z</time>
                <name>Position 3880</name>
            </trkpt>
            <trkpt lon="10.6118833333333" lat="47.4994766666667">
                <ele>1970.4</ele>
                <time>2009-08-25T10:52:00.000Z</time>
                <name>Position 3881</name>
            </trkpt>
            <trkpt lon="10.6118766666667" lat="47.4994666666667">
                <ele>1970.3</ele>
                <time>2009-08-25T10:52:03.000Z</time>
                <name>Position 3882</name>
            </trkpt>
            <trkpt lon="10.6118933333333" lat="47.499455">
                <ele>1970.2</ele>
                <time>2009-08-25T10:52:06.000Z</time>
                <name>Position 3883</name>
            </trkpt>
            <trkpt lon="10.6119216666667" lat="47.4994466666667">
                <ele>1970.1</ele>
                <time>2009-08-25T10:52:09.000Z</time>
                <name>Position 3884</name>
            </trkpt>
            <trkpt lon="10.611935" lat="47.4994483333333">
                <ele>1969.7</ele>
                <time>2009-08-25T10:52:12.000Z</time>
                <name>Position 3885</name>
            </trkpt>
            <trkpt lon="10.611955" lat="47.4994416666667">
                <ele>1969.3</ele>
                <time>2009-08-25T10:52:15.000Z</time>
                <name>Position 3886</name>
            </trkpt>
            <trkpt lon="10.6119733333333" lat="47.499435">
                <ele>1968.9</ele>
                <time>2009-08-25T10:52:18.000Z</time>
                <name>Position 3887</name>
            </trkpt>
            <trkpt lon="10.611985" lat="47.4994433333333">
                <ele>1968.8</ele>
                <time>2009-08-25T10:52:21.000Z</time>
                <name>Position 3888</name>
            </trkpt>
            <trkpt lon="10.6119966666667" lat="47.4994433333333">
                <ele>1968.3</ele>
                <time>2009-08-25T10:52:24.000Z</time>
                <name>Position 3889</name>
            </trkpt>
            <trkpt lon="10.6120083333333" lat="47.4994433333333">
                <ele>1967.0</ele>
                <time>2009-08-25T10:52:27.000Z</time>
                <name>Position 3890</name>
            </trkpt>
            <trkpt lon="10.6120266666667" lat="47.4994166666667">
                <ele>1965.4</ele>
                <time>2009-08-25T10:52:30.000Z</time>
                <name>Position 3891</name>
            </trkpt>
            <trkpt lon="10.6120383333333" lat="47.4993983333333">
                <ele>1963.4</ele>
                <time>2009-08-25T10:52:33.000Z</time>
                <name>Position 3892</name>
            </trkpt>
            <trkpt lon="10.6120366666667" lat="47.4993816666667">
                <ele>1962.3</ele>
                <time>2009-08-25T10:52:36.000Z</time>
                <name>Position 3893</name>
            </trkpt>
            <trkpt lon="10.6120466666667" lat="47.4993766666667">
                <ele>1961.0</ele>
                <time>2009-08-25T10:52:39.000Z</time>
                <name>Position 3894</name>
            </trkpt>
            <trkpt lon="10.6120583333333" lat="47.49937">
                <ele>1959.5</ele>
                <time>2009-08-25T10:52:42.000Z</time>
                <name>Position 3895</name>
            </trkpt>
            <trkpt lon="10.61207" lat="47.4993516666667">
                <ele>1958.8</ele>
                <time>2009-08-25T10:52:45.000Z</time>
                <name>Position 3896</name>
            </trkpt>
            <trkpt lon="10.6120833333333" lat="47.49934">
                <ele>1958.4</ele>
                <time>2009-08-25T10:52:48.000Z</time>
                <name>Position 3897</name>
            </trkpt>
            <trkpt lon="10.6121066666667" lat="47.49933">
                <ele>1957.9</ele>
                <time>2009-08-25T10:52:51.000Z</time>
                <name>Position 3898</name>
            </trkpt>
            <trkpt lon="10.6121433333333" lat="47.4993333333333">
                <ele>1957.4</ele>
                <time>2009-08-25T10:52:54.000Z</time>
                <name>Position 3899</name>
            </trkpt>
            <trkpt lon="10.6121566666667" lat="47.499335">
                <ele>1955.7</ele>
                <time>2009-08-25T10:52:57.000Z</time>
                <name>Position 3900</name>
            </trkpt>
            <trkpt lon="10.6121816666667" lat="47.4993283333333">
                <ele>1954.8</ele>
                <time>2009-08-25T10:53:00.000Z</time>
                <name>Position 3901</name>
            </trkpt>
            <trkpt lon="10.6122" lat="47.4993166666667">
                <ele>1953.9</ele>
                <time>2009-08-25T10:53:03.000Z</time>
                <name>Position 3902</name>
            </trkpt>
            <trkpt lon="10.6122283333333" lat="47.499305">
                <ele>1952.1</ele>
                <time>2009-08-25T10:53:06.000Z</time>
                <name>Position 3903</name>
            </trkpt>
            <trkpt lon="10.6122433333333" lat="47.4992883333333">
                <ele>1951.2</ele>
                <time>2009-08-25T10:53:09.000Z</time>
                <name>Position 3904</name>
            </trkpt>
            <trkpt lon="10.6122383333333" lat="47.4992633333333">
                <ele>1950.4</ele>
                <time>2009-08-25T10:53:12.000Z</time>
                <name>Position 3905</name>
            </trkpt>
            <trkpt lon="10.6122333333333" lat="47.4992516666667">
                <ele>1949.7</ele>
                <time>2009-08-25T10:53:15.000Z</time>
                <name>Position 3906</name>
            </trkpt>
            <trkpt lon="10.6122333333333" lat="47.49924">
                <ele>1948.7</ele>
                <time>2009-08-25T10:53:18.000Z</time>
                <name>Position 3907</name>
            </trkpt>
            <trkpt lon="10.6122383333333" lat="47.4992333333333">
                <ele>1947.8</ele>
                <time>2009-08-25T10:53:21.000Z</time>
                <name>Position 3908</name>
            </trkpt>
            <trkpt lon="10.6122683333333" lat="47.499225">
                <ele>1947.3</ele>
                <time>2009-08-25T10:53:24.000Z</time>
                <name>Position 3909</name>
            </trkpt>
            <trkpt lon="10.6122933333333" lat="47.49923">
                <ele>1946.8</ele>
                <time>2009-08-25T10:53:27.000Z</time>
                <name>Position 3910</name>
            </trkpt>
            <trkpt lon="10.6123183333333" lat="47.49922">
                <ele>1946.5</ele>
                <time>2009-08-25T10:53:30.000Z</time>
                <name>Position 3911</name>
            </trkpt>
            <trkpt lon="10.6123066666667" lat="47.4992066666667">
                <ele>1946.3</ele>
                <time>2009-08-25T10:53:33.000Z</time>
                <name>Position 3912</name>
            </trkpt>
            <trkpt lon="10.6123033333333" lat="47.4991866666667">
                <ele>1945.8</ele>
                <time>2009-08-25T10:53:37.000Z</time>
                <name>Position 3913</name>
            </trkpt>
            <trkpt lon="10.6122833333333" lat="47.49918">
                <ele>1945.7</ele>
                <time>2009-08-25T10:53:39.000Z</time>
                <name>Position 3914</name>
            </trkpt>
            <trkpt lon="10.6122833333333" lat="47.499165">
                <ele>1945.6</ele>
                <time>2009-08-25T10:53:42.000Z</time>
                <name>Position 3915</name>
            </trkpt>
            <trkpt lon="10.612295" lat="47.4991533333333">
                <ele>1945.3</ele>
                <time>2009-08-25T10:53:45.000Z</time>
                <name>Position 3916</name>
            </trkpt>
            <trkpt lon="10.6123116666667" lat="47.4991516666667">
                <ele>1945.1</ele>
                <time>2009-08-25T10:53:48.000Z</time>
                <name>Position 3917</name>
            </trkpt>
            <trkpt lon="10.6123266666667" lat="47.4991433333333">
                <ele>1944.8</ele>
                <time>2009-08-25T10:53:51.000Z</time>
                <name>Position 3918</name>
            </trkpt>
            <trkpt lon="10.6123466666667" lat="47.4991216666667">
                <ele>1944.1</ele>
                <time>2009-08-25T10:53:54.000Z</time>
                <name>Position 3919</name>
            </trkpt>
            <trkpt lon="10.61237" lat="47.4991233333333">
                <ele>1942.7</ele>
                <time>2009-08-25T10:53:57.000Z</time>
                <name>Position 3920</name>
            </trkpt>
            <trkpt lon="10.6124" lat="47.4991183333333">
                <ele>1941.5</ele>
                <time>2009-08-25T10:54:00.000Z</time>
                <name>Position 3921</name>
            </trkpt>
            <trkpt lon="10.612445" lat="47.49912">
                <ele>1940.7</ele>
                <time>2009-08-25T10:54:03.000Z</time>
                <name>Position 3922</name>
            </trkpt>
            <trkpt lon="10.612465" lat="47.499115">
                <ele>1939.8</ele>
                <time>2009-08-25T10:54:06.000Z</time>
                <name>Position 3923</name>
            </trkpt>
            <trkpt lon="10.61248" lat="47.4991116666667">
                <ele>1938.8</ele>
                <time>2009-08-25T10:54:09.000Z</time>
                <name>Position 3924</name>
            </trkpt>
            <trkpt lon="10.6125" lat="47.49911">
                <ele>1937.9</ele>
                <time>2009-08-25T10:54:12.000Z</time>
                <name>Position 3925</name>
            </trkpt>
            <trkpt lon="10.6125116666667" lat="47.4990966666667">
                <ele>1937.0</ele>
                <time>2009-08-25T10:54:15.000Z</time>
                <name>Position 3926</name>
            </trkpt>
            <trkpt lon="10.6125283333333" lat="47.4991016666667">
                <ele>1936.5</ele>
                <time>2009-08-25T10:54:18.000Z</time>
                <name>Position 3927</name>
            </trkpt>
            <trkpt lon="10.6125483333333" lat="47.4991166666667">
                <ele>1935.8</ele>
                <time>2009-08-25T10:54:21.000Z</time>
                <name>Position 3928</name>
            </trkpt>
            <trkpt lon="10.6125733333333" lat="47.4991233333333">
                <ele>1934.8</ele>
                <time>2009-08-25T10:54:24.000Z</time>
                <name>Position 3929</name>
            </trkpt>
            <trkpt lon="10.612605" lat="47.4991316666667">
                <ele>1933.5</ele>
                <time>2009-08-25T10:54:27.000Z</time>
                <name>Position 3930</name>
            </trkpt>
            <trkpt lon="10.6126216666667" lat="47.4991416666667">
                <ele>1932.5</ele>
                <time>2009-08-25T10:54:30.000Z</time>
                <name>Position 3931</name>
            </trkpt>
            <trkpt lon="10.6126316666667" lat="47.4991383333333">
                <ele>1932.5</ele>
                <time>2009-08-25T10:54:33.000Z</time>
                <name>Position 3932</name>
            </trkpt>
            <trkpt lon="10.6126533333333" lat="47.4991333333333">
                <ele>1932.3</ele>
                <time>2009-08-25T10:54:36.000Z</time>
                <name>Position 3933</name>
            </trkpt>
            <trkpt lon="10.612665" lat="47.4991433333333">
                <ele>1932.0</ele>
                <time>2009-08-25T10:54:39.000Z</time>
                <name>Position 3934</name>
            </trkpt>
            <trkpt lon="10.61267" lat="47.499135">
                <ele>1930.4</ele>
                <time>2009-08-25T10:54:42.000Z</time>
                <name>Position 3935</name>
            </trkpt>
            <trkpt lon="10.6127083333333" lat="47.499145">
                <ele>1930.1</ele>
                <time>2009-08-25T10:54:45.000Z</time>
                <name>Position 3936</name>
            </trkpt>
            <trkpt lon="10.6127233333333" lat="47.4991433333333">
                <ele>1929.8</ele>
                <time>2009-08-25T10:54:48.000Z</time>
                <name>Position 3937</name>
            </trkpt>
            <trkpt lon="10.61273" lat="47.49913">
                <ele>1929.5</ele>
                <time>2009-08-25T10:54:51.000Z</time>
                <name>Position 3938</name>
            </trkpt>
            <trkpt lon="10.6127416666667" lat="47.49913">
                <ele>1929.6</ele>
                <time>2009-08-25T10:54:54.000Z</time>
                <name>Position 3939</name>
            </trkpt>
            <trkpt lon="10.612775" lat="47.4991316666667">
                <ele>1928.4</ele>
                <time>2009-08-25T10:54:57.000Z</time>
                <name>Position 3940</name>
            </trkpt>
            <trkpt lon="10.6127966666667" lat="47.4991416666667">
                <ele>1927.9</ele>
                <time>2009-08-25T10:55:00.000Z</time>
                <name>Position 3941</name>
            </trkpt>
            <trkpt lon="10.6128133333333" lat="47.49915">
                <ele>1926.9</ele>
                <time>2009-08-25T10:55:03.000Z</time>
                <name>Position 3942</name>
            </trkpt>
            <trkpt lon="10.6128233333333" lat="47.4991583333333">
                <ele>1926.2</ele>
                <time>2009-08-25T10:55:06.000Z</time>
                <name>Position 3943</name>
            </trkpt>
            <trkpt lon="10.6128483333333" lat="47.4991633333333">
                <ele>1925.0</ele>
                <time>2009-08-25T10:55:09.000Z</time>
                <name>Position 3944</name>
            </trkpt>
            <trkpt lon="10.6128716666667" lat="47.49917">
                <ele>1925.0</ele>
                <time>2009-08-25T10:55:12.000Z</time>
                <name>Position 3945</name>
            </trkpt>
            <trkpt lon="10.6129066666667" lat="47.4991766666667">
                <ele>1925.1</ele>
                <time>2009-08-25T10:55:15.000Z</time>
                <name>Position 3946</name>
            </trkpt>
            <trkpt lon="10.6129433333333" lat="47.4991866666667">
                <ele>1925.0</ele>
                <time>2009-08-25T10:55:18.000Z</time>
                <name>Position 3947</name>
            </trkpt>
            <trkpt lon="10.61297" lat="47.4991866666667">
                <ele>1924.1</ele>
                <time>2009-08-25T10:55:21.000Z</time>
                <name>Position 3948</name>
            </trkpt>
            <trkpt lon="10.6130033333333" lat="47.4991866666667">
                <ele>1923.1</ele>
                <time>2009-08-25T10:55:24.000Z</time>
                <name>Position 3949</name>
            </trkpt>
            <trkpt lon="10.613045" lat="47.4991833333333">
                <ele>1921.3</ele>
                <time>2009-08-25T10:55:27.000Z</time>
                <name>Position 3950</name>
            </trkpt>
            <trkpt lon="10.6130933333333" lat="47.4991916666667">
                <ele>1920.7</ele>
                <time>2009-08-25T10:55:30.000Z</time>
                <name>Position 3951</name>
            </trkpt>
            <trkpt lon="10.6131416666667" lat="47.499195">
                <ele>1920.0</ele>
                <time>2009-08-25T10:55:33.000Z</time>
                <name>Position 3952</name>
            </trkpt>
            <trkpt lon="10.6132066666667" lat="47.4991983333333">
                <ele>1919.3</ele>
                <time>2009-08-25T10:55:36.000Z</time>
                <name>Position 3953</name>
            </trkpt>
            <trkpt lon="10.6132666666667" lat="47.4992033333333">
                <ele>1919.6</ele>
                <time>2009-08-25T10:55:39.000Z</time>
                <name>Position 3954</name>
            </trkpt>
            <trkpt lon="10.6133116666667" lat="47.4992016666667">
                <ele>1918.5</ele>
                <time>2009-08-25T10:55:42.000Z</time>
                <name>Position 3955</name>
            </trkpt>
            <trkpt lon="10.6133516666667" lat="47.4992083333333">
                <ele>1916.4</ele>
                <time>2009-08-25T10:55:45.000Z</time>
                <name>Position 3956</name>
            </trkpt>
            <trkpt lon="10.6133783333333" lat="47.499215">
                <ele>1915.5</ele>
                <time>2009-08-25T10:55:48.000Z</time>
                <name>Position 3957</name>
            </trkpt>
            <trkpt lon="10.6133983333333" lat="47.4992116666667">
                <ele>1914.4</ele>
                <time>2009-08-25T10:55:51.000Z</time>
                <name>Position 3958</name>
            </trkpt>
            <trkpt lon="10.6134366666667" lat="47.499215">
                <ele>1913.2</ele>
                <time>2009-08-25T10:55:54.000Z</time>
                <name>Position 3959</name>
            </trkpt>
            <trkpt lon="10.6134666666667" lat="47.4992183333333">
                <ele>1912.3</ele>
                <time>2009-08-25T10:55:57.000Z</time>
                <name>Position 3960</name>
            </trkpt>
            <trkpt lon="10.6135066666667" lat="47.4992233333333">
                <ele>1910.3</ele>
                <time>2009-08-25T10:56:00.000Z</time>
                <name>Position 3961</name>
            </trkpt>
            <trkpt lon="10.61357" lat="47.4992466666667">
                <ele>1909.0</ele>
                <time>2009-08-25T10:56:03.000Z</time>
                <name>Position 3962</name>
            </trkpt>
            <trkpt lon="10.6136116666667" lat="47.499245">
                <ele>1907.3</ele>
                <time>2009-08-25T10:56:06.000Z</time>
                <name>Position 3963</name>
            </trkpt>
            <trkpt lon="10.6136716666667" lat="47.4992416666667">
                <ele>1905.8</ele>
                <time>2009-08-25T10:56:09.000Z</time>
                <name>Position 3964</name>
            </trkpt>
            <trkpt lon="10.613695" lat="47.4992466666667">
                <ele>1905.5</ele>
                <time>2009-08-25T10:56:12.000Z</time>
                <name>Position 3965</name>
            </trkpt>
            <trkpt lon="10.6137216666667" lat="47.4992533333333">
                <ele>1904.4</ele>
                <time>2009-08-25T10:56:15.000Z</time>
                <name>Position 3966</name>
            </trkpt>
            <trkpt lon="10.613765" lat="47.4992683333333">
                <ele>1903.5</ele>
                <time>2009-08-25T10:56:18.000Z</time>
                <name>Position 3967</name>
            </trkpt>
            <trkpt lon="10.613795" lat="47.4992733333333">
                <ele>1902.7</ele>
                <time>2009-08-25T10:56:21.000Z</time>
                <name>Position 3968</name>
            </trkpt>
            <trkpt lon="10.6138216666667" lat="47.4992916666667">
                <ele>1901.6</ele>
                <time>2009-08-25T10:56:24.000Z</time>
                <name>Position 3969</name>
            </trkpt>
            <trkpt lon="10.6138233333333" lat="47.49931">
                <ele>1901.2</ele>
                <time>2009-08-25T10:56:27.000Z</time>
                <name>Position 3970</name>
            </trkpt>
            <trkpt lon="10.6138483333333" lat="47.499315">
                <ele>1900.5</ele>
                <time>2009-08-25T10:56:30.000Z</time>
                <name>Position 3971</name>
            </trkpt>
            <trkpt lon="10.6138816666667" lat="47.49931">
                <ele>1899.5</ele>
                <time>2009-08-25T10:56:33.000Z</time>
                <name>Position 3972</name>
            </trkpt>
            <trkpt lon="10.613895" lat="47.4993166666667">
                <ele>1899.0</ele>
                <time>2009-08-25T10:56:36.000Z</time>
                <name>Position 3973</name>
            </trkpt>
            <trkpt lon="10.61392" lat="47.49933">
                <ele>1898.5</ele>
                <time>2009-08-25T10:56:39.000Z</time>
                <name>Position 3974</name>
            </trkpt>
            <trkpt lon="10.613945" lat="47.4993416666667">
                <ele>1898.2</ele>
                <time>2009-08-25T10:56:42.000Z</time>
                <name>Position 3975</name>
            </trkpt>
            <trkpt lon="10.6139816666667" lat="47.49935">
                <ele>1898.3</ele>
                <time>2009-08-25T10:56:45.000Z</time>
                <name>Position 3976</name>
            </trkpt>
            <trkpt lon="10.6140033333333" lat="47.4993583333333">
                <ele>1898.3</ele>
                <time>2009-08-25T10:56:49.000Z</time>
                <name>Position 3977</name>
            </trkpt>
            <trkpt lon="10.614015" lat="47.499355">
                <ele>1898.0</ele>
                <time>2009-08-25T10:56:51.000Z</time>
                <name>Position 3978</name>
            </trkpt>
            <trkpt lon="10.6140066666667" lat="47.4993483333333">
                <ele>1897.5</ele>
                <time>2009-08-25T10:56:54.000Z</time>
                <name>Position 3979</name>
            </trkpt>
            <trkpt lon="10.614005" lat="47.4993483333333">
                <ele>1897.5</ele>
                <time>2009-08-25T10:56:57.000Z</time>
                <name>Position 3980</name>
            </trkpt>
            <trkpt lon="10.614" lat="47.49935">
                <ele>1897.5</ele>
                <time>2009-08-25T10:57:00.000Z</time>
                <name>Position 3981</name>
            </trkpt>
            <trkpt lon="10.614025" lat="47.4993616666667">
                <ele>1897.4</ele>
                <time>2009-08-25T10:57:03.000Z</time>
                <name>Position 3982</name>
            </trkpt>
            <trkpt lon="10.6140583333333" lat="47.4993616666667">
                <ele>1897.3</ele>
                <time>2009-08-25T10:57:06.000Z</time>
                <name>Position 3983</name>
            </trkpt>
            <trkpt lon="10.6141083333333" lat="47.4993433333333">
                <ele>1897.2</ele>
                <time>2009-08-25T10:57:09.000Z</time>
                <name>Position 3984</name>
            </trkpt>
            <trkpt lon="10.6141383333333" lat="47.4993366666667">
                <ele>1897.0</ele>
                <time>2009-08-25T10:57:12.000Z</time>
                <name>Position 3985</name>
            </trkpt>
            <trkpt lon="10.6141666666667" lat="47.4993533333333">
                <ele>1897.1</ele>
                <time>2009-08-25T10:57:15.000Z</time>
                <name>Position 3986</name>
            </trkpt>
            <trkpt lon="10.6141983333333" lat="47.4993566666667">
                <ele>1896.9</ele>
                <time>2009-08-25T10:57:18.000Z</time>
                <name>Position 3987</name>
            </trkpt>
            <trkpt lon="10.61423" lat="47.4993583333333">
                <ele>1896.8</ele>
                <time>2009-08-25T10:57:21.000Z</time>
                <name>Position 3988</name>
            </trkpt>
            <trkpt lon="10.6142666666667" lat="47.4993633333333">
                <ele>1896.0</ele>
                <time>2009-08-25T10:57:24.000Z</time>
                <name>Position 3989</name>
            </trkpt>
            <trkpt lon="10.614315" lat="47.4993666666667">
                <ele>1895.7</ele>
                <time>2009-08-25T10:57:27.000Z</time>
                <name>Position 3990</name>
            </trkpt>
            <trkpt lon="10.6143416666667" lat="47.4993633333333">
                <ele>1895.1</ele>
                <time>2009-08-25T10:57:30.000Z</time>
                <name>Position 3991</name>
            </trkpt>
            <trkpt lon="10.614375" lat="47.4993583333333">
                <ele>1895.0</ele>
                <time>2009-08-25T10:57:33.000Z</time>
                <name>Position 3992</name>
            </trkpt>
            <trkpt lon="10.6144" lat="47.499365">
                <ele>1894.3</ele>
                <time>2009-08-25T10:57:36.000Z</time>
                <name>Position 3993</name>
            </trkpt>
            <trkpt lon="10.6144216666667" lat="47.4993766666667">
                <ele>1893.9</ele>
                <time>2009-08-25T10:57:39.000Z</time>
                <name>Position 3994</name>
            </trkpt>
            <trkpt lon="10.614445" lat="47.4993783333333">
                <ele>1893.4</ele>
                <time>2009-08-25T10:57:42.000Z</time>
                <name>Position 3995</name>
            </trkpt>
            <trkpt lon="10.6144733333333" lat="47.4993866666667">
                <ele>1892.4</ele>
                <time>2009-08-25T10:57:45.000Z</time>
                <name>Position 3996</name>
            </trkpt>
            <trkpt lon="10.6144833333333" lat="47.4993966666667">
                <ele>1892.0</ele>
                <time>2009-08-25T10:57:48.000Z</time>
                <name>Position 3997</name>
            </trkpt>
            <trkpt lon="10.6144983333333" lat="47.4993933333333">
                <ele>1891.9</ele>
                <time>2009-08-25T10:57:51.000Z</time>
                <name>Position 3998</name>
            </trkpt>
            <trkpt lon="10.6145383333333" lat="47.4993916666667">
                <ele>1891.4</ele>
                <time>2009-08-25T10:57:54.000Z</time>
                <name>Position 3999</name>
            </trkpt>
            <trkpt lon="10.6145633333333" lat="47.4994033333333">
                <ele>1891.4</ele>
                <time>2009-08-25T10:57:57.000Z</time>
                <name>Position 4000</name>
            </trkpt>
            <trkpt lon="10.6145983333333" lat="47.4994183333333">
                <ele>1891.0</ele>
                <time>2009-08-25T10:58:00.000Z</time>
                <name>Position 4001</name>
            </trkpt>
            <trkpt lon="10.6146233333333" lat="47.4994283333333">
                <ele>1890.6</ele>
                <time>2009-08-25T10:58:03.000Z</time>
                <name>Position 4002</name>
            </trkpt>
            <trkpt lon="10.6146416666667" lat="47.49943">
                <ele>1890.2</ele>
                <time>2009-08-25T10:58:06.000Z</time>
                <name>Position 4003</name>
            </trkpt>
            <trkpt lon="10.6146616666667" lat="47.49943">
                <ele>1889.9</ele>
                <time>2009-08-25T10:58:09.000Z</time>
                <name>Position 4004</name>
            </trkpt>
            <trkpt lon="10.614685" lat="47.499435">
                <ele>1889.6</ele>
                <time>2009-08-25T10:58:12.000Z</time>
                <name>Position 4005</name>
            </trkpt>
            <trkpt lon="10.6147233333333" lat="47.4994433333333">
                <ele>1889.1</ele>
                <time>2009-08-25T10:58:15.000Z</time>
                <name>Position 4006</name>
            </trkpt>
            <trkpt lon="10.614765" lat="47.4994533333333">
                <ele>1888.5</ele>
                <time>2009-08-25T10:58:18.000Z</time>
                <name>Position 4007</name>
            </trkpt>
            <trkpt lon="10.614805" lat="47.4994616666667">
                <ele>1888.1</ele>
                <time>2009-08-25T10:58:21.000Z</time>
                <name>Position 4008</name>
            </trkpt>
            <trkpt lon="10.6148316666667" lat="47.499455">
                <ele>1887.8</ele>
                <time>2009-08-25T10:58:24.000Z</time>
                <name>Position 4009</name>
            </trkpt>
            <trkpt lon="10.6148833333333" lat="47.499465">
                <ele>1887.4</ele>
                <time>2009-08-25T10:58:27.000Z</time>
                <name>Position 4010</name>
            </trkpt>
            <trkpt lon="10.6149216666667" lat="47.49946">
                <ele>1887.2</ele>
                <time>2009-08-25T10:58:30.000Z</time>
                <name>Position 4011</name>
            </trkpt>
            <trkpt lon="10.6149916666667" lat="47.4994716666667">
                <ele>1887.2</ele>
                <time>2009-08-25T10:58:33.000Z</time>
                <name>Position 4012</name>
            </trkpt>
            <trkpt lon="10.6150416666667" lat="47.4994816666667">
                <ele>1887.1</ele>
                <time>2009-08-25T10:58:36.000Z</time>
                <name>Position 4013</name>
            </trkpt>
            <trkpt lon="10.6150516666667" lat="47.4995016666667">
                <ele>1887.4</ele>
                <time>2009-08-25T10:58:39.000Z</time>
                <name>Position 4014</name>
            </trkpt>
            <trkpt lon="10.6150666666667" lat="47.4995016666667">
                <ele>1887.1</ele>
                <time>2009-08-25T10:58:42.000Z</time>
                <name>Position 4015</name>
            </trkpt>
            <trkpt lon="10.6150883333333" lat="47.4995116666667">
                <ele>1886.9</ele>
                <time>2009-08-25T10:58:45.000Z</time>
                <name>Position 4016</name>
            </trkpt>
            <trkpt lon="10.61509" lat="47.4995033333333">
                <ele>1886.8</ele>
                <time>2009-08-25T10:58:48.000Z</time>
                <name>Position 4017</name>
            </trkpt>
            <trkpt lon="10.6151" lat="47.499505">
                <ele>1886.6</ele>
                <time>2009-08-25T10:58:51.000Z</time>
                <name>Position 4018</name>
            </trkpt>
            <trkpt lon="10.6151033333333" lat="47.4994866666667">
                <ele>1886.6</ele>
                <time>2009-08-25T10:58:54.000Z</time>
                <name>Position 4019</name>
            </trkpt>
            <trkpt lon="10.6151666666667" lat="47.4994616666667">
                <ele>1886.5</ele>
                <time>2009-08-25T10:58:57.000Z</time>
                <name>Position 4020</name>
            </trkpt>
            <trkpt lon="10.6152083333333" lat="47.4994483333333">
                <ele>1886.2</ele>
                <time>2009-08-25T10:59:00.000Z</time>
                <name>Position 4021</name>
            </trkpt>
            <trkpt lon="10.615255" lat="47.49944">
                <ele>1886.0</ele>
                <time>2009-08-25T10:59:03.000Z</time>
                <name>Position 4022</name>
            </trkpt>
            <trkpt lon="10.6152933333333" lat="47.4994433333333">
                <ele>1885.9</ele>
                <time>2009-08-25T10:59:06.000Z</time>
                <name>Position 4023</name>
            </trkpt>
            <trkpt lon="10.6153083333333" lat="47.4994383333333">
                <ele>1885.7</ele>
                <time>2009-08-25T10:59:09.000Z</time>
                <name>Position 4024</name>
            </trkpt>
            <trkpt lon="10.61534" lat="47.4994483333333">
                <ele>1885.5</ele>
                <time>2009-08-25T10:59:12.000Z</time>
                <name>Position 4025</name>
            </trkpt>
            <trkpt lon="10.6153783333333" lat="47.4994333333333">
                <ele>1885.6</ele>
                <time>2009-08-25T10:59:15.000Z</time>
                <name>Position 4026</name>
            </trkpt>
            <trkpt lon="10.6154" lat="47.49944">
                <ele>1885.9</ele>
                <time>2009-08-25T10:59:18.000Z</time>
                <name>Position 4027</name>
            </trkpt>
            <trkpt lon="10.6154166666667" lat="47.4994466666667">
                <ele>1886.1</ele>
                <time>2009-08-25T10:59:21.000Z</time>
                <name>Position 4028</name>
            </trkpt>
            <trkpt lon="10.6154483333333" lat="47.49945">
                <ele>1886.5</ele>
                <time>2009-08-25T10:59:24.000Z</time>
                <name>Position 4029</name>
            </trkpt>
            <trkpt lon="10.6154916666667" lat="47.4994683333333">
                <ele>1886.6</ele>
                <time>2009-08-25T10:59:27.000Z</time>
                <name>Position 4030</name>
            </trkpt>
            <trkpt lon="10.6155166666667" lat="47.499465">
                <ele>1887.1</ele>
                <time>2009-08-25T10:59:30.000Z</time>
                <name>Position 4031</name>
            </trkpt>
            <trkpt lon="10.615515" lat="47.4994616666667">
                <ele>1887.4</ele>
                <time>2009-08-25T10:59:33.000Z</time>
                <name>Position 4032</name>
            </trkpt>
            <trkpt lon="10.6155466666667" lat="47.4994566666667">
                <ele>1887.7</ele>
                <time>2009-08-25T10:59:36.000Z</time>
                <name>Position 4033</name>
            </trkpt>
            <trkpt lon="10.61558" lat="47.49945">
                <ele>1888.0</ele>
                <time>2009-08-25T10:59:39.000Z</time>
                <name>Position 4034</name>
            </trkpt>
            <trkpt lon="10.6156333333333" lat="47.499455">
                <ele>1888.2</ele>
                <time>2009-08-25T10:59:42.000Z</time>
                <name>Position 4035</name>
            </trkpt>
            <trkpt lon="10.615675" lat="47.49944">
                <ele>1888.7</ele>
                <time>2009-08-25T10:59:45.000Z</time>
                <name>Position 4036</name>
            </trkpt>
            <trkpt lon="10.6156933333333" lat="47.49944">
                <ele>1889.0</ele>
                <time>2009-08-25T10:59:48.000Z</time>
                <name>Position 4037</name>
            </trkpt>
            <trkpt lon="10.6157266666667" lat="47.4994283333333">
                <ele>1889.6</ele>
                <time>2009-08-25T10:59:51.000Z</time>
                <name>Position 4038</name>
            </trkpt>
            <trkpt lon="10.6157833333333" lat="47.4994183333333">
                <ele>1890.2</ele>
                <time>2009-08-25T10:59:54.000Z</time>
                <name>Position 4039</name>
            </trkpt>
            <trkpt lon="10.615855" lat="47.4993916666667">
                <ele>1890.7</ele>
                <time>2009-08-25T10:59:57.000Z</time>
                <name>Position 4040</name>
            </trkpt>
            <trkpt lon="10.6159116666667" lat="47.499395">
                <ele>1891.1</ele>
                <time>2009-08-25T11:00:01.000Z</time>
                <name>Position 4041</name>
            </trkpt>
            <trkpt lon="10.6159483333333" lat="47.49937">
                <ele>1891.9</ele>
                <time>2009-08-25T11:00:03.000Z</time>
                <name>Position 4042</name>
            </trkpt>
            <trkpt lon="10.6159783333333" lat="47.4993933333333">
                <ele>1891.2</ele>
                <time>2009-08-25T11:00:06.000Z</time>
                <name>Position 4043</name>
            </trkpt>
            <trkpt lon="10.6160133333333" lat="47.4993966666667">
                <ele>1890.8</ele>
                <time>2009-08-25T11:00:09.000Z</time>
                <name>Position 4044</name>
            </trkpt>
            <trkpt lon="10.6160333333333" lat="47.4993833333333">
                <ele>1890.5</ele>
                <time>2009-08-25T11:00:12.000Z</time>
                <name>Position 4045</name>
            </trkpt>
            <trkpt lon="10.61604" lat="47.4993633333333">
                <ele>1889.7</ele>
                <time>2009-08-25T11:00:15.000Z</time>
                <name>Position 4046</name>
            </trkpt>
            <trkpt lon="10.61607" lat="47.499325">
                <ele>1889.0</ele>
                <time>2009-08-25T11:00:18.000Z</time>
                <name>Position 4047</name>
            </trkpt>
            <trkpt lon="10.6160916666667" lat="47.499315">
                <ele>1888.2</ele>
                <time>2009-08-25T11:00:21.000Z</time>
                <name>Position 4048</name>
            </trkpt>
            <trkpt lon="10.616125" lat="47.49928">
                <ele>1887.5</ele>
                <time>2009-08-25T11:00:24.000Z</time>
                <name>Position 4049</name>
            </trkpt>
            <trkpt lon="10.6160916666667" lat="47.4993133333333">
                <ele>1886.7</ele>
                <time>2009-08-25T11:00:27.000Z</time>
                <name>Position 4050</name>
            </trkpt>
            <trkpt lon="10.616105" lat="47.4992983333333">
                <ele>1886.2</ele>
                <time>2009-08-25T11:00:30.000Z</time>
                <name>Position 4051</name>
            </trkpt>
            <trkpt lon="10.6161" lat="47.4992783333333">
                <ele>1885.8</ele>
                <time>2009-08-25T11:00:33.000Z</time>
                <name>Position 4052</name>
            </trkpt>
            <trkpt lon="10.6161316666667" lat="47.499285">
                <ele>1885.5</ele>
                <time>2009-08-25T11:00:36.000Z</time>
                <name>Position 4053</name>
            </trkpt>
            <trkpt lon="10.61617" lat="47.4992683333333">
                <ele>1885.1</ele>
                <time>2009-08-25T11:00:39.000Z</time>
                <name>Position 4054</name>
            </trkpt>
            <trkpt lon="10.6162533333333" lat="47.4991933333333">
                <ele>1884.7</ele>
                <time>2009-08-25T11:00:42.000Z</time>
                <name>Position 4055</name>
            </trkpt>
            <trkpt lon="10.6163616666667" lat="47.4991616666667">
                <ele>1884.5</ele>
                <time>2009-08-25T11:00:45.000Z</time>
                <name>Position 4056</name>
            </trkpt>
            <trkpt lon="10.61643" lat="47.4991083333333">
                <ele>1884.1</ele>
                <time>2009-08-25T11:00:48.000Z</time>
                <name>Position 4057</name>
            </trkpt>
            <trkpt lon="10.61646" lat="47.49911">
                <ele>1883.9</ele>
                <time>2009-08-25T11:00:51.000Z</time>
                <name>Position 4058</name>
            </trkpt>
            <trkpt lon="10.6164916666667" lat="47.4991033333333">
                <ele>1883.7</ele>
                <time>2009-08-25T11:00:54.000Z</time>
                <name>Position 4059</name>
            </trkpt>
            <trkpt lon="10.6165283333333" lat="47.4990766666667">
                <ele>1883.8</ele>
                <time>2009-08-25T11:00:57.000Z</time>
                <name>Position 4060</name>
            </trkpt>
            <trkpt lon="10.6165516666667" lat="47.4990883333333">
                <ele>1883.8</ele>
                <time>2009-08-25T11:01:00.000Z</time>
                <name>Position 4061</name>
            </trkpt>
            <trkpt lon="10.616545" lat="47.499085">
                <ele>1883.6</ele>
                <time>2009-08-25T11:01:03.000Z</time>
                <name>Position 4062</name>
            </trkpt>
            <trkpt lon="10.6165483333333" lat="47.4990866666667">
                <ele>1883.6</ele>
                <time>2009-08-25T11:01:06.000Z</time>
                <name>Position 4063</name>
            </trkpt>
            <trkpt lon="10.61655" lat="47.4990866666667">
                <ele>1883.6</ele>
                <time>2009-08-25T11:01:09.000Z</time>
                <name>Position 4064</name>
            </trkpt>
            <trkpt lon="10.6165533333333" lat="47.4990866666667">
                <ele>1883.6</ele>
                <time>2009-08-25T11:01:12.000Z</time>
                <name>Position 4065</name>
            </trkpt>
            <trkpt lon="10.6165416666667" lat="47.4990833333333">
                <ele>1883.6</ele>
                <time>2009-08-25T11:01:15.000Z</time>
                <name>Position 4066</name>
            </trkpt>
            <trkpt lon="10.6165366666667" lat="47.4990583333333">
                <ele>1883.5</ele>
                <time>2009-08-25T11:01:18.000Z</time>
                <name>Position 4067</name>
            </trkpt>
            <trkpt lon="10.6165133333333" lat="47.49906">
                <ele>1883.3</ele>
                <time>2009-08-25T11:01:21.000Z</time>
                <name>Position 4068</name>
            </trkpt>
            <trkpt lon="10.616515" lat="47.4990633333333">
                <ele>1883.3</ele>
                <time>2009-08-25T11:01:24.000Z</time>
                <name>Position 4069</name>
            </trkpt>
            <trkpt lon="10.6165116666667" lat="47.4990633333333">
                <ele>1883.3</ele>
                <time>2009-08-25T11:01:27.000Z</time>
                <name>Position 4070</name>
            </trkpt>
            <trkpt lon="10.6165616666667" lat="47.4990566666667">
                <ele>1883.3</ele>
                <time>2009-08-25T11:01:30.000Z</time>
                <name>Position 4071</name>
            </trkpt>
            <trkpt lon="10.61656" lat="47.4990433333333">
                <ele>1883.1</ele>
                <time>2009-08-25T11:01:33.000Z</time>
                <name>Position 4072</name>
            </trkpt>
            <trkpt lon="10.6165816666667" lat="47.4990283333333">
                <ele>1883.1</ele>
                <time>2009-08-25T11:01:37.000Z</time>
                <name>Position 4073</name>
            </trkpt>
            <trkpt lon="10.6165966666667" lat="47.4990233333333">
                <ele>1883.1</ele>
                <time>2009-08-25T11:01:39.000Z</time>
                <name>Position 4074</name>
            </trkpt>
            <trkpt lon="10.6166183333333" lat="47.4990016666667">
                <ele>1883.2</ele>
                <time>2009-08-25T11:01:42.000Z</time>
                <name>Position 4075</name>
            </trkpt>
            <trkpt lon="10.616665" lat="47.4989833333333">
                <ele>1883.3</ele>
                <time>2009-08-25T11:01:45.000Z</time>
                <name>Position 4076</name>
            </trkpt>
            <trkpt lon="10.6167383333333" lat="47.49895">
                <ele>1883.4</ele>
                <time>2009-08-25T11:01:48.000Z</time>
                <name>Position 4077</name>
            </trkpt>
            <trkpt lon="10.61676" lat="47.498935">
                <ele>1883.3</ele>
                <time>2009-08-25T11:01:51.000Z</time>
                <name>Position 4078</name>
            </trkpt>
            <trkpt lon="10.616805" lat="47.4989316666667">
                <ele>1883.2</ele>
                <time>2009-08-25T11:01:54.000Z</time>
                <name>Position 4079</name>
            </trkpt>
            <trkpt lon="10.6168516666667" lat="47.4989183333333">
                <ele>1883.1</ele>
                <time>2009-08-25T11:01:57.000Z</time>
                <name>Position 4080</name>
            </trkpt>
            <trkpt lon="10.616905" lat="47.4988933333333">
                <ele>1882.9</ele>
                <time>2009-08-25T11:02:00.000Z</time>
                <name>Position 4081</name>
            </trkpt>
            <trkpt lon="10.616965" lat="47.4988616666667">
                <ele>1882.8</ele>
                <time>2009-08-25T11:02:03.000Z</time>
                <name>Position 4082</name>
            </trkpt>
            <trkpt lon="10.617015" lat="47.4988483333333">
                <ele>1882.5</ele>
                <time>2009-08-25T11:02:06.000Z</time>
                <name>Position 4083</name>
            </trkpt>
            <trkpt lon="10.6170366666667" lat="47.4988233333333">
                <ele>1882.0</ele>
                <time>2009-08-25T11:02:09.000Z</time>
                <name>Position 4084</name>
            </trkpt>
            <trkpt lon="10.617045" lat="47.4988066666667">
                <ele>1881.6</ele>
                <time>2009-08-25T11:02:12.000Z</time>
                <name>Position 4085</name>
            </trkpt>
            <trkpt lon="10.617065" lat="47.4988">
                <ele>1881.3</ele>
                <time>2009-08-25T11:02:15.000Z</time>
                <name>Position 4086</name>
            </trkpt>
            <trkpt lon="10.6170466666667" lat="47.4987916666667">
                <ele>1880.8</ele>
                <time>2009-08-25T11:02:18.000Z</time>
                <name>Position 4087</name>
            </trkpt>
            <trkpt lon="10.6170616666667" lat="47.4987833333333">
                <ele>1880.5</ele>
                <time>2009-08-25T11:02:21.000Z</time>
                <name>Position 4088</name>
            </trkpt>
            <trkpt lon="10.6170883333333" lat="47.4987616666667">
                <ele>1880.4</ele>
                <time>2009-08-25T11:02:24.000Z</time>
                <name>Position 4089</name>
            </trkpt>
            <trkpt lon="10.6170916666667" lat="47.4987816666667">
                <ele>1880.1</ele>
                <time>2009-08-25T11:02:27.000Z</time>
                <name>Position 4090</name>
            </trkpt>
            <trkpt lon="10.6170633333333" lat="47.4987833333333">
                <ele>1879.9</ele>
                <time>2009-08-25T11:02:30.000Z</time>
                <name>Position 4091</name>
            </trkpt>
            <trkpt lon="10.6170616666667" lat="47.4987583333333">
                <ele>1879.9</ele>
                <time>2009-08-25T11:02:33.000Z</time>
                <name>Position 4092</name>
            </trkpt>
            <trkpt lon="10.6170916666667" lat="47.4987466666667">
                <ele>1879.5</ele>
                <time>2009-08-25T11:02:36.000Z</time>
                <name>Position 4093</name>
            </trkpt>
            <trkpt lon="10.6171283333333" lat="47.498735">
                <ele>1879.5</ele>
                <time>2009-08-25T11:02:39.000Z</time>
                <name>Position 4094</name>
            </trkpt>
            <trkpt lon="10.6171466666667" lat="47.498705">
                <ele>1879.5</ele>
                <time>2009-08-25T11:02:42.000Z</time>
                <name>Position 4095</name>
            </trkpt>
            <trkpt lon="10.6171466666667" lat="47.4987016666667">
                <ele>1879.5</ele>
                <time>2009-08-25T11:02:45.000Z</time>
                <name>Position 4096</name>
            </trkpt>
            <trkpt lon="10.617155" lat="47.4986583333333">
                <ele>1879.5</ele>
                <time>2009-08-25T11:02:48.000Z</time>
                <name>Position 4097</name>
            </trkpt>
            <trkpt lon="10.6171616666667" lat="47.4986316666667">
                <ele>1879.8</ele>
                <time>2009-08-25T11:02:51.000Z</time>
                <name>Position 4098</name>
            </trkpt>
            <trkpt lon="10.6171816666667" lat="47.4986116666667">
                <ele>1880.2</ele>
                <time>2009-08-25T11:02:54.000Z</time>
                <name>Position 4099</name>
            </trkpt>
            <trkpt lon="10.617205" lat="47.4985833333333">
                <ele>1880.5</ele>
                <time>2009-08-25T11:02:57.000Z</time>
                <name>Position 4100</name>
            </trkpt>
            <trkpt lon="10.61721" lat="47.4985616666667">
                <ele>1880.8</ele>
                <time>2009-08-25T11:03:00.000Z</time>
                <name>Position 4101</name>
            </trkpt>
            <trkpt lon="10.6171883333333" lat="47.498535">
                <ele>1880.9</ele>
                <time>2009-08-25T11:03:03.000Z</time>
                <name>Position 4102</name>
            </trkpt>
            <trkpt lon="10.6171633333333" lat="47.4985033333333">
                <ele>1881.0</ele>
                <time>2009-08-25T11:03:06.000Z</time>
                <name>Position 4103</name>
            </trkpt>
            <trkpt lon="10.61716" lat="47.4984716666667">
                <ele>1881.2</ele>
                <time>2009-08-25T11:03:09.000Z</time>
                <name>Position 4104</name>
            </trkpt>
            <trkpt lon="10.6172033333333" lat="47.4984116666667">
                <ele>1881.0</ele>
                <time>2009-08-25T11:03:12.000Z</time>
                <name>Position 4105</name>
            </trkpt>
            <trkpt lon="10.6172483333333" lat="47.4983633333333">
                <ele>1880.2</ele>
                <time>2009-08-25T11:03:15.000Z</time>
                <name>Position 4106</name>
            </trkpt>
            <trkpt lon="10.6172533333333" lat="47.4983616666667">
                <ele>1880.3</ele>
                <time>2009-08-25T11:03:18.000Z</time>
                <name>Position 4107</name>
            </trkpt>
            <trkpt lon="10.6172516666667" lat="47.4983583333333">
                <ele>1880.3</ele>
                <time>2009-08-25T11:03:21.000Z</time>
                <name>Position 4108</name>
            </trkpt>
            <trkpt lon="10.6172666666667" lat="47.4983566666667">
                <ele>1880.4</ele>
                <time>2009-08-25T11:03:24.000Z</time>
                <name>Position 4109</name>
            </trkpt>
            <trkpt lon="10.6171866666667" lat="47.498325">
                <ele>1879.8</ele>
                <time>2009-08-25T11:03:27.000Z</time>
                <name>Position 4110</name>
            </trkpt>
            <trkpt lon="10.6171433333333" lat="47.49831">
                <ele>1879.7</ele>
                <time>2009-08-25T11:03:30.000Z</time>
                <name>Position 4111</name>
            </trkpt>
            <trkpt lon="10.6171366666667" lat="47.4983066666667">
                <ele>1879.7</ele>
                <time>2009-08-25T11:03:33.000Z</time>
                <name>Position 4112</name>
            </trkpt>
            <trkpt lon="10.61708" lat="47.49829">
                <ele>1879.3</ele>
                <time>2009-08-25T11:03:36.000Z</time>
                <name>Position 4113</name>
            </trkpt>
            <trkpt lon="10.6171283333333" lat="47.49833">
                <ele>1879.2</ele>
                <time>2009-08-25T11:03:39.000Z</time>
                <name>Position 4114</name>
            </trkpt>
            <trkpt lon="10.617205" lat="47.4983366666667">
                <ele>1878.6</ele>
                <time>2009-08-25T11:03:42.000Z</time>
                <name>Position 4115</name>
            </trkpt>
            <trkpt lon="10.6172633333333" lat="47.4983316666667">
                <ele>1878.4</ele>
                <time>2009-08-25T11:03:45.000Z</time>
                <name>Position 4116</name>
            </trkpt>
            <trkpt lon="10.6172716666667" lat="47.49834">
                <ele>1878.2</ele>
                <time>2009-08-25T11:03:48.000Z</time>
                <name>Position 4117</name>
            </trkpt>
            <trkpt lon="10.6172916666667" lat="47.4983316666667">
                <ele>1877.4</ele>
                <time>2009-08-25T11:03:51.000Z</time>
                <name>Position 4118</name>
            </trkpt>
            <trkpt lon="10.6172966666667" lat="47.4983">
                <ele>1877.2</ele>
                <time>2009-08-25T11:03:54.000Z</time>
                <name>Position 4119</name>
            </trkpt>
            <trkpt lon="10.6172933333333" lat="47.4982466666667">
                <ele>1876.4</ele>
                <time>2009-08-25T11:03:58.000Z</time>
                <name>Position 4120</name>
            </trkpt>
            <trkpt lon="10.61729" lat="47.4982166666667">
                <ele>1876.0</ele>
                <time>2009-08-25T11:04:01.000Z</time>
                <name>Position 4121</name>
            </trkpt>
            <trkpt lon="10.617365" lat="47.4981766666667">
                <ele>1874.1</ele>
                <time>2009-08-25T11:04:04.000Z</time>
                <name>Position 4122</name>
            </trkpt>
            <trkpt lon="10.6173783333333" lat="47.49817">
                <ele>1874.0</ele>
                <time>2009-08-25T11:04:07.000Z</time>
                <name>Position 4123</name>
            </trkpt>
            <trkpt lon="10.6174066666667" lat="47.4981633333333">
                <ele>1873.6</ele>
                <time>2009-08-25T11:04:10.000Z</time>
                <name>Position 4124</name>
            </trkpt>
            <trkpt lon="10.617435" lat="47.4981366666667">
                <ele>1873.2</ele>
                <time>2009-08-25T11:04:13.000Z</time>
                <name>Position 4125</name>
            </trkpt>
            <trkpt lon="10.617445" lat="47.4981233333333">
                <ele>1872.2</ele>
                <time>2009-08-25T11:04:15.000Z</time>
                <name>Position 4126</name>
            </trkpt>
            <trkpt lon="10.617535" lat="47.4980866666667">
                <ele>1869.0</ele>
                <time>2009-08-25T11:04:19.000Z</time>
                <name>Position 4127</name>
            </trkpt>
            <trkpt lon="10.6175666666667" lat="47.4980666666667">
                <ele>1869.2</ele>
                <time>2009-08-25T11:04:22.000Z</time>
                <name>Position 4128</name>
            </trkpt>
            <trkpt lon="10.61755" lat="47.4980383333333">
                <ele>1868.6</ele>
                <time>2009-08-25T11:04:25.000Z</time>
                <name>Position 4129</name>
            </trkpt>
            <trkpt lon="10.617525" lat="47.498015">
                <ele>1868.3</ele>
                <time>2009-08-25T11:04:28.000Z</time>
                <name>Position 4130</name>
            </trkpt>
            <trkpt lon="10.6175266666667" lat="47.4980083333333">
                <ele>1867.1</ele>
                <time>2009-08-25T11:04:31.000Z</time>
                <name>Position 4131</name>
            </trkpt>
            <trkpt lon="10.6175283333333" lat="47.49799">
                <ele>1866.4</ele>
                <time>2009-08-25T11:04:34.000Z</time>
                <name>Position 4132</name>
            </trkpt>
            <trkpt lon="10.61757" lat="47.49799">
                <ele>1865.3</ele>
                <time>2009-08-25T11:04:37.000Z</time>
                <name>Position 4133</name>
            </trkpt>
            <trkpt lon="10.617575" lat="47.497965">
                <ele>1864.6</ele>
                <time>2009-08-25T11:04:40.000Z</time>
                <name>Position 4134</name>
            </trkpt>
            <trkpt lon="10.6175833333333" lat="47.4979483333333">
                <ele>1864.2</ele>
                <time>2009-08-25T11:04:43.000Z</time>
                <name>Position 4135</name>
            </trkpt>
            <trkpt lon="10.617605" lat="47.4979433333333">
                <ele>1864.0</ele>
                <time>2009-08-25T11:04:46.000Z</time>
                <name>Position 4136</name>
            </trkpt>
            <trkpt lon="10.6176233333333" lat="47.49789">
                <ele>1864.2</ele>
                <time>2009-08-25T11:04:49.000Z</time>
                <name>Position 4137</name>
            </trkpt>
            <trkpt lon="10.6176383333333" lat="47.4978583333333">
                <ele>1864.1</ele>
                <time>2009-08-25T11:04:52.000Z</time>
                <name>Position 4138</name>
            </trkpt>
            <trkpt lon="10.617685" lat="47.49783">
                <ele>1863.9</ele>
                <time>2009-08-25T11:04:55.000Z</time>
                <name>Position 4139</name>
            </trkpt>
            <trkpt lon="10.6177166666667" lat="47.497805">
                <ele>1864.0</ele>
                <time>2009-08-25T11:04:58.000Z</time>
                <name>Position 4140</name>
            </trkpt>
            <trkpt lon="10.61777" lat="47.4977933333333">
                <ele>1863.8</ele>
                <time>2009-08-25T11:05:01.000Z</time>
                <name>Position 4141</name>
            </trkpt>
            <trkpt lon="10.61779" lat="47.4977583333333">
                <ele>1863.5</ele>
                <time>2009-08-25T11:05:04.000Z</time>
                <name>Position 4142</name>
            </trkpt>
            <trkpt lon="10.6177916666667" lat="47.497735">
                <ele>1862.9</ele>
                <time>2009-08-25T11:05:06.000Z</time>
                <name>Position 4143</name>
            </trkpt>
            <trkpt lon="10.6177733333333" lat="47.4976883333333">
                <ele>1862.1</ele>
                <time>2009-08-25T11:05:10.000Z</time>
                <name>Position 4144</name>
            </trkpt>
            <trkpt lon="10.6177516666667" lat="47.4976283333333">
                <ele>1861.0</ele>
                <time>2009-08-25T11:05:13.000Z</time>
                <name>Position 4145</name>
            </trkpt>
            <trkpt lon="10.6177716666667" lat="47.49759">
                <ele>1860.2</ele>
                <time>2009-08-25T11:05:16.000Z</time>
                <name>Position 4146</name>
            </trkpt>
            <trkpt lon="10.6178" lat="47.497545">
                <ele>1859.2</ele>
                <time>2009-08-25T11:05:19.000Z</time>
                <name>Position 4147</name>
            </trkpt>
            <trkpt lon="10.6178816666667" lat="47.497515">
                <ele>1857.7</ele>
                <time>2009-08-25T11:05:22.000Z</time>
                <name>Position 4148</name>
            </trkpt>
            <trkpt lon="10.6179266666667" lat="47.497495">
                <ele>1856.9</ele>
                <time>2009-08-25T11:05:25.000Z</time>
                <name>Position 4149</name>
            </trkpt>
            <trkpt lon="10.6179566666667" lat="47.4974616666667">
                <ele>1856.3</ele>
                <time>2009-08-25T11:05:28.000Z</time>
                <name>Position 4150</name>
            </trkpt>
            <trkpt lon="10.6179666666667" lat="47.4974283333333">
                <ele>1855.9</ele>
                <time>2009-08-25T11:05:31.000Z</time>
                <name>Position 4151</name>
            </trkpt>
            <trkpt lon="10.61794" lat="47.4974116666667">
                <ele>1855.5</ele>
                <time>2009-08-25T11:05:34.000Z</time>
                <name>Position 4152</name>
            </trkpt>
            <trkpt lon="10.617935" lat="47.4974066666667">
                <ele>1855.2</ele>
                <time>2009-08-25T11:05:37.000Z</time>
                <name>Position 4153</name>
            </trkpt>
            <trkpt lon="10.6179533333333" lat="47.4974016666667">
                <ele>1855.0</ele>
                <time>2009-08-25T11:05:40.000Z</time>
                <name>Position 4154</name>
            </trkpt>
            <trkpt lon="10.6179533333333" lat="47.497395">
                <ele>1854.9</ele>
                <time>2009-08-25T11:05:43.000Z</time>
                <name>Position 4155</name>
            </trkpt>
            <trkpt lon="10.6179416666667" lat="47.4973883333333">
                <ele>1854.7</ele>
                <time>2009-08-25T11:05:46.000Z</time>
                <name>Position 4156</name>
            </trkpt>
            <trkpt lon="10.61794" lat="47.4973666666667">
                <ele>1854.4</ele>
                <time>2009-08-25T11:05:49.000Z</time>
                <name>Position 4157</name>
            </trkpt>
            <trkpt lon="10.6179533333333" lat="47.4973366666667">
                <ele>1854.2</ele>
                <time>2009-08-25T11:05:52.000Z</time>
                <name>Position 4158</name>
            </trkpt>
            <trkpt lon="10.6179533333333" lat="47.4972916666667">
                <ele>1854.0</ele>
                <time>2009-08-25T11:05:55.000Z</time>
                <name>Position 4159</name>
            </trkpt>
            <trkpt lon="10.617995" lat="47.49728">
                <ele>1853.5</ele>
                <time>2009-08-25T11:05:58.000Z</time>
                <name>Position 4160</name>
            </trkpt>
            <trkpt lon="10.61801" lat="47.4972583333333">
                <ele>1852.7</ele>
                <time>2009-08-25T11:06:01.000Z</time>
                <name>Position 4161</name>
            </trkpt>
            <trkpt lon="10.61801" lat="47.4972333333333">
                <ele>1851.9</ele>
                <time>2009-08-25T11:06:04.000Z</time>
                <name>Position 4162</name>
            </trkpt>
            <trkpt lon="10.61802" lat="47.497205">
                <ele>1851.2</ele>
                <time>2009-08-25T11:06:07.000Z</time>
                <name>Position 4163</name>
            </trkpt>
            <trkpt lon="10.6180166666667" lat="47.497185">
                <ele>1850.8</ele>
                <time>2009-08-25T11:06:10.000Z</time>
                <name>Position 4164</name>
            </trkpt>
            <trkpt lon="10.6180383333333" lat="47.4971616666667">
                <ele>1850.3</ele>
                <time>2009-08-25T11:06:13.000Z</time>
                <name>Position 4165</name>
            </trkpt>
            <trkpt lon="10.6180566666667" lat="47.49713">
                <ele>1849.3</ele>
                <time>2009-08-25T11:06:16.000Z</time>
                <name>Position 4166</name>
            </trkpt>
            <trkpt lon="10.6180733333333" lat="47.4971083333333">
                <ele>1848.5</ele>
                <time>2009-08-25T11:06:19.000Z</time>
                <name>Position 4167</name>
            </trkpt>
            <trkpt lon="10.6181" lat="47.497085">
                <ele>1847.5</ele>
                <time>2009-08-25T11:06:22.000Z</time>
                <name>Position 4168</name>
            </trkpt>
            <trkpt lon="10.6181216666667" lat="47.497055">
                <ele>1846.6</ele>
                <time>2009-08-25T11:06:25.000Z</time>
                <name>Position 4169</name>
            </trkpt>
            <trkpt lon="10.61815" lat="47.4970416666667">
                <ele>1845.7</ele>
                <time>2009-08-25T11:06:28.000Z</time>
                <name>Position 4170</name>
            </trkpt>
            <trkpt lon="10.6182116666667" lat="47.497005">
                <ele>1843.8</ele>
                <time>2009-08-25T11:06:31.000Z</time>
                <name>Position 4171</name>
            </trkpt>
            <trkpt lon="10.6182566666667" lat="47.4969933333333">
                <ele>1843.0</ele>
                <time>2009-08-25T11:06:34.000Z</time>
                <name>Position 4172</name>
            </trkpt>
            <trkpt lon="10.6183266666667" lat="47.4969716666667">
                <ele>1841.2</ele>
                <time>2009-08-25T11:06:37.000Z</time>
                <name>Position 4173</name>
            </trkpt>
            <trkpt lon="10.6183433333333" lat="47.496965">
                <ele>1840.2</ele>
                <time>2009-08-25T11:06:40.000Z</time>
                <name>Position 4174</name>
            </trkpt>
            <trkpt lon="10.6183633333333" lat="47.4969533333333">
                <ele>1838.6</ele>
                <time>2009-08-25T11:06:43.000Z</time>
                <name>Position 4175</name>
            </trkpt>
            <trkpt lon="10.61834" lat="47.49694">
                <ele>1838.2</ele>
                <time>2009-08-25T11:06:46.000Z</time>
                <name>Position 4176</name>
            </trkpt>
            <trkpt lon="10.6183383333333" lat="47.496925">
                <ele>1836.9</ele>
                <time>2009-08-25T11:06:49.000Z</time>
                <name>Position 4177</name>
            </trkpt>
            <trkpt lon="10.6183183333333" lat="47.4969016666667">
                <ele>1835.7</ele>
                <time>2009-08-25T11:06:52.000Z</time>
                <name>Position 4178</name>
            </trkpt>
            <trkpt lon="10.61834" lat="47.4968816666667">
                <ele>1834.6</ele>
                <time>2009-08-25T11:06:55.000Z</time>
                <name>Position 4179</name>
            </trkpt>
            <trkpt lon="10.618345" lat="47.4968716666667">
                <ele>1833.8</ele>
                <time>2009-08-25T11:06:58.000Z</time>
                <name>Position 4180</name>
            </trkpt>
            <trkpt lon="10.6183283333333" lat="47.4968583333333">
                <ele>1833.5</ele>
                <time>2009-08-25T11:07:01.000Z</time>
                <name>Position 4181</name>
            </trkpt>
            <trkpt lon="10.61833" lat="47.4968233333333">
                <ele>1832.8</ele>
                <time>2009-08-25T11:07:04.000Z</time>
                <name>Position 4182</name>
            </trkpt>
            <trkpt lon="10.61836" lat="47.4968216666667">
                <ele>1831.5</ele>
                <time>2009-08-25T11:07:07.000Z</time>
                <name>Position 4183</name>
            </trkpt>
            <trkpt lon="10.6183766666667" lat="47.4968166666667">
                <ele>1829.0</ele>
                <time>2009-08-25T11:07:10.000Z</time>
                <name>Position 4184</name>
            </trkpt>
            <trkpt lon="10.6184066666667" lat="47.4967966666667">
                <ele>1826.7</ele>
                <time>2009-08-25T11:07:13.000Z</time>
                <name>Position 4185</name>
            </trkpt>
            <trkpt lon="10.6184283333333" lat="47.4967766666667">
                <ele>1825.7</ele>
                <time>2009-08-25T11:07:16.000Z</time>
                <name>Position 4186</name>
            </trkpt>
            <trkpt lon="10.618435" lat="47.4967483333333">
                <ele>1824.2</ele>
                <time>2009-08-25T11:07:19.000Z</time>
                <name>Position 4187</name>
            </trkpt>
            <trkpt lon="10.6184733333333" lat="47.496725">
                <ele>1821.1</ele>
                <time>2009-08-25T11:07:22.000Z</time>
                <name>Position 4188</name>
            </trkpt>
            <trkpt lon="10.6184883333333" lat="47.49672">
                <ele>1819.2</ele>
                <time>2009-08-25T11:07:25.000Z</time>
                <name>Position 4189</name>
            </trkpt>
            <trkpt lon="10.6184866666667" lat="47.4967066666667">
                <ele>1817.8</ele>
                <time>2009-08-25T11:07:28.000Z</time>
                <name>Position 4190</name>
            </trkpt>
            <trkpt lon="10.6184933333333" lat="47.4966616666667">
                <ele>1816.4</ele>
                <time>2009-08-25T11:07:31.000Z</time>
                <name>Position 4191</name>
            </trkpt>
            <trkpt lon="10.618515" lat="47.4966466666667">
                <ele>1814.7</ele>
                <time>2009-08-25T11:07:34.000Z</time>
                <name>Position 4192</name>
            </trkpt>
            <trkpt lon="10.6185366666667" lat="47.4966383333333">
                <ele>1812.8</ele>
                <time>2009-08-25T11:07:37.000Z</time>
                <name>Position 4193</name>
            </trkpt>
            <trkpt lon="10.6185866666667" lat="47.4966133333333">
                <ele>1809.1</ele>
                <time>2009-08-25T11:07:40.000Z</time>
                <name>Position 4194</name>
            </trkpt>
            <trkpt lon="10.6186366666667" lat="47.4965833333333">
                <ele>1807.1</ele>
                <time>2009-08-25T11:07:43.000Z</time>
                <name>Position 4195</name>
            </trkpt>
            <trkpt lon="10.618685" lat="47.496545">
                <ele>1805.9</ele>
                <time>2009-08-25T11:07:46.000Z</time>
                <name>Position 4196</name>
            </trkpt>
            <trkpt lon="10.6187183333333" lat="47.4965216666667">
                <ele>1804.5</ele>
                <time>2009-08-25T11:07:49.000Z</time>
                <name>Position 4197</name>
            </trkpt>
            <trkpt lon="10.6187216666667" lat="47.4964933333333">
                <ele>1803.3</ele>
                <time>2009-08-25T11:07:52.000Z</time>
                <name>Position 4198</name>
            </trkpt>
            <trkpt lon="10.6187266666667" lat="47.4964783333333">
                <ele>1801.7</ele>
                <time>2009-08-25T11:07:55.000Z</time>
                <name>Position 4199</name>
            </trkpt>
            <trkpt lon="10.6187483333333" lat="47.4964666666667">
                <ele>1800.9</ele>
                <time>2009-08-25T11:07:58.000Z</time>
                <name>Position 4200</name>
            </trkpt>
            <trkpt lon="10.6187716666667" lat="47.4964433333333">
                <ele>1799.0</ele>
                <time>2009-08-25T11:08:01.000Z</time>
                <name>Position 4201</name>
            </trkpt>
            <trkpt lon="10.6188066666667" lat="47.4964116666667">
                <ele>1797.0</ele>
                <time>2009-08-25T11:08:04.000Z</time>
                <name>Position 4202</name>
            </trkpt>
            <trkpt lon="10.618855" lat="47.4963933333333">
                <ele>1796.3</ele>
                <time>2009-08-25T11:08:07.000Z</time>
                <name>Position 4203</name>
            </trkpt>
            <trkpt lon="10.6188966666667" lat="47.4963883333333">
                <ele>1795.3</ele>
                <time>2009-08-25T11:08:10.000Z</time>
                <name>Position 4204</name>
            </trkpt>
            <trkpt lon="10.6189283333333" lat="47.4963783333333">
                <ele>1793.9</ele>
                <time>2009-08-25T11:08:13.000Z</time>
                <name>Position 4205</name>
            </trkpt>
            <trkpt lon="10.61895" lat="47.496355">
                <ele>1793.1</ele>
                <time>2009-08-25T11:08:16.000Z</time>
                <name>Position 4206</name>
            </trkpt>
            <trkpt lon="10.6189933333333" lat="47.496355">
                <ele>1792.0</ele>
                <time>2009-08-25T11:08:19.000Z</time>
                <name>Position 4207</name>
            </trkpt>
            <trkpt lon="10.61904" lat="47.4963466666667">
                <ele>1790.2</ele>
                <time>2009-08-25T11:08:22.000Z</time>
                <name>Position 4208</name>
            </trkpt>
            <trkpt lon="10.61908" lat="47.4963316666667">
                <ele>1789.1</ele>
                <time>2009-08-25T11:08:25.000Z</time>
                <name>Position 4209</name>
            </trkpt>
            <trkpt lon="10.6190983333333" lat="47.4963216666667">
                <ele>1788.0</ele>
                <time>2009-08-25T11:08:28.000Z</time>
                <name>Position 4210</name>
            </trkpt>
            <trkpt lon="10.6191083333333" lat="47.4963183333333">
                <ele>1787.4</ele>
                <time>2009-08-25T11:08:31.000Z</time>
                <name>Position 4211</name>
            </trkpt>
            <trkpt lon="10.6191466666667" lat="47.4963116666667">
                <ele>1785.9</ele>
                <time>2009-08-25T11:08:34.000Z</time>
                <name>Position 4212</name>
            </trkpt>
            <trkpt lon="10.6191983333333" lat="47.496315">
                <ele>1785.4</ele>
                <time>2009-08-25T11:08:37.000Z</time>
                <name>Position 4213</name>
            </trkpt>
            <trkpt lon="10.6192466666667" lat="47.4963016666667">
                <ele>1785.0</ele>
                <time>2009-08-25T11:08:40.000Z</time>
                <name>Position 4214</name>
            </trkpt>
            <trkpt lon="10.6192666666667" lat="47.4963083333333">
                <ele>1786.6</ele>
                <time>2009-08-25T11:08:43.000Z</time>
                <name>Position 4215</name>
            </trkpt>
            <trkpt lon="10.6192616666667" lat="47.49631">
                <ele>1787.3</ele>
                <time>2009-08-25T11:08:46.000Z</time>
                <name>Position 4216</name>
            </trkpt>
            <trkpt lon="10.6192516666667" lat="47.496305">
                <ele>1787.5</ele>
                <time>2009-08-25T11:08:49.000Z</time>
                <name>Position 4217</name>
            </trkpt>
            <trkpt lon="10.6192683333333" lat="47.4963">
                <ele>1786.0</ele>
                <time>2009-08-25T11:08:52.000Z</time>
                <name>Position 4218</name>
            </trkpt>
            <trkpt lon="10.6192733333333" lat="47.4962983333333">
                <ele>1786.3</ele>
                <time>2009-08-25T11:08:55.000Z</time>
                <name>Position 4219</name>
            </trkpt>
            <trkpt lon="10.6192966666667" lat="47.4962766666667">
                <ele>1786.5</ele>
                <time>2009-08-25T11:08:58.000Z</time>
                <name>Position 4220</name>
            </trkpt>
            <trkpt lon="10.6193416666667" lat="47.4962566666667">
                <ele>1785.1</ele>
                <time>2009-08-25T11:09:01.000Z</time>
                <name>Position 4221</name>
            </trkpt>
            <trkpt lon="10.61937" lat="47.496245">
                <ele>1784.5</ele>
                <time>2009-08-25T11:09:04.000Z</time>
                <name>Position 4222</name>
            </trkpt>
            <trkpt lon="10.61942" lat="47.4962283333333">
                <ele>1783.7</ele>
                <time>2009-08-25T11:09:07.000Z</time>
                <name>Position 4223</name>
            </trkpt>
            <trkpt lon="10.6194183333333" lat="47.49621">
                <ele>1783.5</ele>
                <time>2009-08-25T11:09:10.000Z</time>
                <name>Position 4224</name>
            </trkpt>
            <trkpt lon="10.61941" lat="47.4961833333333">
                <ele>1783.0</ele>
                <time>2009-08-25T11:09:13.000Z</time>
                <name>Position 4225</name>
            </trkpt>
            <trkpt lon="10.619395" lat="47.4961666666667">
                <ele>1782.5</ele>
                <time>2009-08-25T11:09:16.000Z</time>
                <name>Position 4226</name>
            </trkpt>
            <trkpt lon="10.6193866666667" lat="47.49613">
                <ele>1782.0</ele>
                <time>2009-08-25T11:09:19.000Z</time>
                <name>Position 4227</name>
            </trkpt>
            <trkpt lon="10.6193933333333" lat="47.49611">
                <ele>1781.7</ele>
                <time>2009-08-25T11:09:22.000Z</time>
                <name>Position 4228</name>
            </trkpt>
            <trkpt lon="10.6193816666667" lat="47.4960866666667">
                <ele>1781.2</ele>
                <time>2009-08-25T11:09:25.000Z</time>
                <name>Position 4229</name>
            </trkpt>
            <trkpt lon="10.6193716666667" lat="47.49607">
                <ele>1780.8</ele>
                <time>2009-08-25T11:09:28.000Z</time>
                <name>Position 4230</name>
            </trkpt>
            <trkpt lon="10.61936" lat="47.496035">
                <ele>1780.5</ele>
                <time>2009-08-25T11:09:31.000Z</time>
                <name>Position 4231</name>
            </trkpt>
            <trkpt lon="10.61936" lat="47.4960033333333">
                <ele>1780.4</ele>
                <time>2009-08-25T11:09:34.000Z</time>
                <name>Position 4232</name>
            </trkpt>
            <trkpt lon="10.619345" lat="47.49598">
                <ele>1781.2</ele>
                <time>2009-08-25T11:09:37.000Z</time>
                <name>Position 4233</name>
            </trkpt>
            <trkpt lon="10.6193266666667" lat="47.4959416666667">
                <ele>1781.3</ele>
                <time>2009-08-25T11:09:40.000Z</time>
                <name>Position 4234</name>
            </trkpt>
            <trkpt lon="10.6193283333333" lat="47.4959166666667">
                <ele>1781.1</ele>
                <time>2009-08-25T11:09:43.000Z</time>
                <name>Position 4235</name>
            </trkpt>
            <trkpt lon="10.6193383333333" lat="47.4958933333333">
                <ele>1781.6</ele>
                <time>2009-08-25T11:09:46.000Z</time>
                <name>Position 4236</name>
            </trkpt>
            <trkpt lon="10.61936" lat="47.495875">
                <ele>1782.5</ele>
                <time>2009-08-25T11:09:49.000Z</time>
                <name>Position 4237</name>
            </trkpt>
            <trkpt lon="10.6194083333333" lat="47.495845">
                <ele>1782.0</ele>
                <time>2009-08-25T11:09:52.000Z</time>
                <name>Position 4238</name>
            </trkpt>
            <trkpt lon="10.6194366666667" lat="47.4958066666667">
                <ele>1781.2</ele>
                <time>2009-08-25T11:09:55.000Z</time>
                <name>Position 4239</name>
            </trkpt>
            <trkpt lon="10.6195133333333" lat="47.4957416666667">
                <ele>1778.8</ele>
                <time>2009-08-25T11:09:58.000Z</time>
                <name>Position 4240</name>
            </trkpt>
            <trkpt lon="10.6195483333333" lat="47.495725">
                <ele>1778.8</ele>
                <time>2009-08-25T11:10:01.000Z</time>
                <name>Position 4241</name>
            </trkpt>
            <trkpt lon="10.619575" lat="47.4957116666667">
                <ele>1778.7</ele>
                <time>2009-08-25T11:10:04.000Z</time>
                <name>Position 4242</name>
            </trkpt>
            <trkpt lon="10.619645" lat="47.4956833333333">
                <ele>1777.8</ele>
                <time>2009-08-25T11:10:07.000Z</time>
                <name>Position 4243</name>
            </trkpt>
            <trkpt lon="10.6196433333333" lat="47.495665">
                <ele>1778.7</ele>
                <time>2009-08-25T11:10:10.000Z</time>
                <name>Position 4244</name>
            </trkpt>
            <trkpt lon="10.6196533333333" lat="47.4956466666667">
                <ele>1779.7</ele>
                <time>2009-08-25T11:10:13.000Z</time>
                <name>Position 4245</name>
            </trkpt>
            <trkpt lon="10.6196816666667" lat="47.49563">
                <ele>1779.4</ele>
                <time>2009-08-25T11:10:16.000Z</time>
                <name>Position 4246</name>
            </trkpt>
            <trkpt lon="10.6196866666667" lat="47.4956083333333">
                <ele>1778.6</ele>
                <time>2009-08-25T11:10:19.000Z</time>
                <name>Position 4247</name>
            </trkpt>
            <trkpt lon="10.6197033333333" lat="47.495595">
                <ele>1778.6</ele>
                <time>2009-08-25T11:10:22.000Z</time>
                <name>Position 4248</name>
            </trkpt>
            <trkpt lon="10.6197183333333" lat="47.49558">
                <ele>1779.3</ele>
                <time>2009-08-25T11:10:25.000Z</time>
                <name>Position 4249</name>
            </trkpt>
            <trkpt lon="10.6197333333333" lat="47.4955816666667">
                <ele>1777.7</ele>
                <time>2009-08-25T11:10:28.000Z</time>
                <name>Position 4250</name>
            </trkpt>
            <trkpt lon="10.619735" lat="47.4955883333333">
                <ele>1776.2</ele>
                <time>2009-08-25T11:10:31.000Z</time>
                <name>Position 4251</name>
            </trkpt>
            <trkpt lon="10.6197583333333" lat="47.4955916666667">
                <ele>1775.4</ele>
                <time>2009-08-25T11:10:34.000Z</time>
                <name>Position 4252</name>
            </trkpt>
            <trkpt lon="10.61975" lat="47.4955866666667">
                <ele>1773.9</ele>
                <time>2009-08-25T11:10:37.000Z</time>
                <name>Position 4253</name>
            </trkpt>
            <trkpt lon="10.6197383333333" lat="47.4955783333333">
                <ele>1773.6</ele>
                <time>2009-08-25T11:10:40.000Z</time>
                <name>Position 4254</name>
            </trkpt>
            <trkpt lon="10.6197216666667" lat="47.4955716666667">
                <ele>1772.9</ele>
                <time>2009-08-25T11:10:43.000Z</time>
                <name>Position 4255</name>
            </trkpt>
            <trkpt lon="10.6197466666667" lat="47.4955833333333">
                <ele>1770.1</ele>
                <time>2009-08-25T11:10:46.000Z</time>
                <name>Position 4256</name>
            </trkpt>
            <trkpt lon="10.619755" lat="47.4955883333333">
                <ele>1769.4</ele>
                <time>2009-08-25T11:10:49.000Z</time>
                <name>Position 4257</name>
            </trkpt>
            <trkpt lon="10.61976" lat="47.495595">
                <ele>1768.9</ele>
                <time>2009-08-25T11:10:52.000Z</time>
                <name>Position 4258</name>
            </trkpt>
            <trkpt lon="10.6197616666667" lat="47.495595">
                <ele>1768.5</ele>
                <time>2009-08-25T11:10:55.000Z</time>
                <name>Position 4259</name>
            </trkpt>
            <trkpt lon="10.6197666666667" lat="47.4955983333333">
                <ele>1768.3</ele>
                <time>2009-08-25T11:10:58.000Z</time>
                <name>Position 4260</name>
            </trkpt>
            <trkpt lon="10.61977" lat="47.4956016666667">
                <ele>1768.1</ele>
                <time>2009-08-25T11:11:01.000Z</time>
                <name>Position 4261</name>
            </trkpt>
            <trkpt lon="10.619775" lat="47.4956066666667">
                <ele>1768.0</ele>
                <time>2009-08-25T11:11:04.000Z</time>
                <name>Position 4262</name>
            </trkpt>
            <trkpt lon="10.61978" lat="47.4956116666667">
                <ele>1767.9</ele>
                <time>2009-08-25T11:11:07.000Z</time>
                <name>Position 4263</name>
            </trkpt>
            <trkpt lon="10.6197833333333" lat="47.495615">
                <ele>1767.7</ele>
                <time>2009-08-25T11:11:10.000Z</time>
                <name>Position 4264</name>
            </trkpt>
            <trkpt lon="10.6197866666667" lat="47.4956183333333">
                <ele>1767.6</ele>
                <time>2009-08-25T11:11:13.000Z</time>
                <name>Position 4265</name>
            </trkpt>
            <trkpt lon="10.61979" lat="47.4956216666667">
                <ele>1767.6</ele>
                <time>2009-08-25T11:11:16.000Z</time>
                <name>Position 4266</name>
            </trkpt>
            <trkpt lon="10.6197933333333" lat="47.495615">
                <ele>1767.3</ele>
                <time>2009-08-25T11:11:19.000Z</time>
                <name>Position 4267</name>
            </trkpt>
            <trkpt lon="10.6197916666667" lat="47.4956066666667">
                <ele>1767.1</ele>
                <time>2009-08-25T11:11:21.000Z</time>
                <name>Position 4268</name>
            </trkpt>
            <trkpt lon="10.61979" lat="47.4956066666667">
                <ele>1766.7</ele>
                <time>2009-08-25T11:11:25.000Z</time>
                <name>Position 4269</name>
            </trkpt>
            <trkpt lon="10.6197866666667" lat="47.4956083333333">
                <ele>1766.5</ele>
                <time>2009-08-25T11:11:28.000Z</time>
                <name>Position 4270</name>
            </trkpt>
            <trkpt lon="10.6197866666667" lat="47.4956016666667">
                <ele>1767.8</ele>
                <time>2009-08-25T11:11:31.000Z</time>
                <name>Position 4271</name>
            </trkpt>
            <trkpt lon="10.619785" lat="47.4956">
                <ele>1768.4</ele>
                <time>2009-08-25T11:11:34.000Z</time>
                <name>Position 4272</name>
            </trkpt>
            <trkpt lon="10.6197833333333" lat="47.4955983333333">
                <ele>1768.9</ele>
                <time>2009-08-25T11:11:37.000Z</time>
                <name>Position 4273</name>
            </trkpt>
            <trkpt lon="10.61978" lat="47.4955966666667">
                <ele>1769.2</ele>
                <time>2009-08-25T11:11:40.000Z</time>
                <name>Position 4274</name>
            </trkpt>
            <trkpt lon="10.619785" lat="47.495585">
                <ele>1763.8</ele>
                <time>2009-08-25T12:29:21.000Z</time>
                <name>Position 4275</name>
            </trkpt>
            <trkpt lon="10.619785" lat="47.495585">
                <ele>1763.8</ele>
                <time>2009-08-25T12:29:24.000Z</time>
                <name>Position 4276</name>
            </trkpt>
            <trkpt lon="10.619785" lat="47.495585">
                <ele>1763.8</ele>
                <time>2009-08-25T12:29:27.000Z</time>
                <name>Position 4277</name>
            </trkpt>
            <trkpt lon="10.619785" lat="47.495585">
                <ele>1763.8</ele>
                <time>2009-08-25T12:29:30.000Z</time>
                <name>Position 4278</name>
            </trkpt>
            <trkpt lon="10.6197866666667" lat="47.495585">
                <ele>1763.8</ele>
                <time>2009-08-25T12:29:33.000Z</time>
                <name>Position 4279</name>
            </trkpt>
            <trkpt lon="10.6197866666667" lat="47.495585">
                <ele>1763.8</ele>
                <time>2009-08-25T12:29:36.000Z</time>
                <name>Position 4280</name>
            </trkpt>
            <trkpt lon="10.6197866666667" lat="47.495585">
                <ele>1763.8</ele>
                <time>2009-08-25T12:29:39.000Z</time>
                <name>Position 4281</name>
            </trkpt>
            <trkpt lon="10.6197866666667" lat="47.495585">
                <ele>1763.8</ele>
                <time>2009-08-25T12:29:42.000Z</time>
                <name>Position 4282</name>
            </trkpt>
            <trkpt lon="10.6197866666667" lat="47.4955866666667">
                <ele>1763.8</ele>
                <time>2009-08-25T12:29:45.000Z</time>
                <name>Position 4283</name>
            </trkpt>
            <trkpt lon="10.619785" lat="47.4955883333333">
                <ele>1764.2</ele>
                <time>2009-08-25T12:29:48.000Z</time>
                <name>Position 4284</name>
            </trkpt>
            <trkpt lon="10.619785" lat="47.49559">
                <ele>1764.3</ele>
                <time>2009-08-25T12:29:51.000Z</time>
                <name>Position 4285</name>
            </trkpt>
            <trkpt lon="10.619785" lat="47.49559">
                <ele>1764.3</ele>
                <time>2009-08-25T12:29:54.000Z</time>
                <name>Position 4286</name>
            </trkpt>
            <trkpt lon="10.619785" lat="47.49559">
                <ele>1764.4</ele>
                <time>2009-08-25T12:29:57.000Z</time>
                <name>Position 4287</name>
            </trkpt>
            <trkpt lon="10.619785" lat="47.49559">
                <ele>1764.4</ele>
                <time>2009-08-25T12:30:00.000Z</time>
                <name>Position 4288</name>
            </trkpt>
            <trkpt lon="10.619785" lat="47.49559">
                <ele>1764.4</ele>
                <time>2009-08-25T12:30:03.000Z</time>
                <name>Position 4289</name>
            </trkpt>
            <trkpt lon="10.619785" lat="47.49559">
                <ele>1764.4</ele>
                <time>2009-08-25T12:30:06.000Z</time>
                <name>Position 4290</name>
            </trkpt>
            <trkpt lon="10.619785" lat="47.49559">
                <ele>1764.3</ele>
                <time>2009-08-25T12:30:09.000Z</time>
                <name>Position 4291</name>
            </trkpt>
            <trkpt lon="10.619785" lat="47.4955883333333">
                <ele>1764.3</ele>
                <time>2009-08-25T12:30:12.000Z</time>
                <name>Position 4292</name>
            </trkpt>
            <trkpt lon="10.6197816666667" lat="47.49559">
                <ele>1764.3</ele>
                <time>2009-08-25T12:30:15.000Z</time>
                <name>Position 4293</name>
            </trkpt>
            <trkpt lon="10.6197816666667" lat="47.4955966666667">
                <ele>1764.7</ele>
                <time>2009-08-25T12:30:18.000Z</time>
                <name>Position 4294</name>
            </trkpt>
            <trkpt lon="10.61978" lat="47.4955966666667">
                <ele>1764.8</ele>
                <time>2009-08-25T12:30:21.000Z</time>
                <name>Position 4295</name>
            </trkpt>
            <trkpt lon="10.61978" lat="47.4955966666667">
                <ele>1764.8</ele>
                <time>2009-08-25T12:30:24.000Z</time>
                <name>Position 4296</name>
            </trkpt>
            <trkpt lon="10.6197783333333" lat="47.4955933333333">
                <ele>1765.1</ele>
                <time>2009-08-25T12:30:27.000Z</time>
                <name>Position 4297</name>
            </trkpt>
            <trkpt lon="10.6197733333333" lat="47.495595">
                <ele>1765.5</ele>
                <time>2009-08-25T12:30:30.000Z</time>
                <name>Position 4298</name>
            </trkpt>
            <trkpt lon="10.61977" lat="47.495605">
                <ele>1765.6</ele>
                <time>2009-08-25T12:30:33.000Z</time>
                <name>Position 4299</name>
            </trkpt>
            <trkpt lon="10.6197716666667" lat="47.4956083333333">
                <ele>1765.8</ele>
                <time>2009-08-25T12:30:36.000Z</time>
                <name>Position 4300</name>
            </trkpt>
            <trkpt lon="10.6197683333333" lat="47.4956116666667">
                <ele>1765.8</ele>
                <time>2009-08-25T12:30:39.000Z</time>
                <name>Position 4301</name>
            </trkpt>
            <trkpt lon="10.6197666666667" lat="47.49561">
                <ele>1766.0</ele>
                <time>2009-08-25T12:30:42.000Z</time>
                <name>Position 4302</name>
            </trkpt>
            <trkpt lon="10.619765" lat="47.49561">
                <ele>1766.1</ele>
                <time>2009-08-25T12:30:45.000Z</time>
                <name>Position 4303</name>
            </trkpt>
            <trkpt lon="10.6197883333333" lat="47.4956033333333">
                <ele>1766.3</ele>
                <time>2009-08-25T12:30:48.000Z</time>
                <name>Position 4304</name>
            </trkpt>
            <trkpt lon="10.6197966666667" lat="47.4956">
                <ele>1766.6</ele>
                <time>2009-08-25T12:30:51.000Z</time>
                <name>Position 4305</name>
            </trkpt>
            <trkpt lon="10.6198" lat="47.4956">
                <ele>1766.5</ele>
                <time>2009-08-25T12:30:54.000Z</time>
                <name>Position 4306</name>
            </trkpt>
            <trkpt lon="10.6198" lat="47.49559">
                <ele>1767.3</ele>
                <time>2009-08-25T12:30:57.000Z</time>
                <name>Position 4307</name>
            </trkpt>
            <trkpt lon="10.61981" lat="47.495585">
                <ele>1766.4</ele>
                <time>2009-08-25T12:31:00.000Z</time>
                <name>Position 4308</name>
            </trkpt>
            <trkpt lon="10.6198116666667" lat="47.4955833333333">
                <ele>1766.4</ele>
                <time>2009-08-25T12:31:03.000Z</time>
                <name>Position 4309</name>
            </trkpt>
            <trkpt lon="10.6198133333333" lat="47.495585">
                <ele>1766.3</ele>
                <time>2009-08-25T12:31:06.000Z</time>
                <name>Position 4310</name>
            </trkpt>
            <trkpt lon="10.6198133333333" lat="47.4955833333333">
                <ele>1766.3</ele>
                <time>2009-08-25T12:31:09.000Z</time>
                <name>Position 4311</name>
            </trkpt>
            <trkpt lon="10.6198133333333" lat="47.4955816666667">
                <ele>1766.4</ele>
                <time>2009-08-25T12:31:12.000Z</time>
                <name>Position 4312</name>
            </trkpt>
            <trkpt lon="10.6198" lat="47.4955733333333">
                <ele>1766.4</ele>
                <time>2009-08-25T12:31:15.000Z</time>
                <name>Position 4313</name>
            </trkpt>
            <trkpt lon="10.61977" lat="47.4955466666667">
                <ele>1766.0</ele>
                <time>2009-08-25T12:31:18.000Z</time>
                <name>Position 4314</name>
            </trkpt>
            <trkpt lon="10.6197583333333" lat="47.495525">
                <ele>1766.5</ele>
                <time>2009-08-25T12:31:21.000Z</time>
                <name>Position 4315</name>
            </trkpt>
            <trkpt lon="10.6197983333333" lat="47.4955066666667">
                <ele>1765.1</ele>
                <time>2009-08-25T12:31:24.000Z</time>
                <name>Position 4316</name>
            </trkpt>
            <trkpt lon="10.6198316666667" lat="47.4954833333333">
                <ele>1764.3</ele>
                <time>2009-08-25T12:31:27.000Z</time>
                <name>Position 4317</name>
            </trkpt>
            <trkpt lon="10.61987" lat="47.4954616666667">
                <ele>1763.4</ele>
                <time>2009-08-25T12:31:30.000Z</time>
                <name>Position 4318</name>
            </trkpt>
            <trkpt lon="10.6199033333333" lat="47.4954383333333">
                <ele>1762.3</ele>
                <time>2009-08-25T12:31:33.000Z</time>
                <name>Position 4319</name>
            </trkpt>
            <trkpt lon="10.61994" lat="47.49542">
                <ele>1761.3</ele>
                <time>2009-08-25T12:31:36.000Z</time>
                <name>Position 4320</name>
            </trkpt>
            <trkpt lon="10.6199916666667" lat="47.4954016666667">
                <ele>1760.2</ele>
                <time>2009-08-25T12:31:39.000Z</time>
                <name>Position 4321</name>
            </trkpt>
            <trkpt lon="10.62003" lat="47.4953783333333">
                <ele>1759.4</ele>
                <time>2009-08-25T12:31:42.000Z</time>
                <name>Position 4322</name>
            </trkpt>
            <trkpt lon="10.62008" lat="47.49536">
                <ele>1758.6</ele>
                <time>2009-08-25T12:31:45.000Z</time>
                <name>Position 4323</name>
            </trkpt>
            <trkpt lon="10.6201283333333" lat="47.4953533333333">
                <ele>1758.1</ele>
                <time>2009-08-25T12:31:48.000Z</time>
                <name>Position 4324</name>
            </trkpt>
            <trkpt lon="10.620175" lat="47.4953466666667">
                <ele>1758.5</ele>
                <time>2009-08-25T12:31:51.000Z</time>
                <name>Position 4325</name>
            </trkpt>
            <trkpt lon="10.620205" lat="47.495355">
                <ele>1758.7</ele>
                <time>2009-08-25T12:31:54.000Z</time>
                <name>Position 4326</name>
            </trkpt>
            <trkpt lon="10.6202283333333" lat="47.4953616666667">
                <ele>1758.6</ele>
                <time>2009-08-25T12:31:57.000Z</time>
                <name>Position 4327</name>
            </trkpt>
            <trkpt lon="10.62023" lat="47.49536">
                <ele>1758.5</ele>
                <time>2009-08-25T12:32:00.000Z</time>
                <name>Position 4328</name>
            </trkpt>
            <trkpt lon="10.6202416666667" lat="47.4953783333333">
                <ele>1759.4</ele>
                <time>2009-08-25T12:32:03.000Z</time>
                <name>Position 4329</name>
            </trkpt>
            <trkpt lon="10.6202633333333" lat="47.4953633333333">
                <ele>1758.7</ele>
                <time>2009-08-25T12:32:06.000Z</time>
                <name>Position 4330</name>
            </trkpt>
            <trkpt lon="10.6202883333333" lat="47.49535">
                <ele>1757.7</ele>
                <time>2009-08-25T12:32:09.000Z</time>
                <name>Position 4331</name>
            </trkpt>
            <trkpt lon="10.62031" lat="47.4953133333333">
                <ele>1756.3</ele>
                <time>2009-08-25T12:32:12.000Z</time>
                <name>Position 4332</name>
            </trkpt>
            <trkpt lon="10.620375" lat="47.4953066666667">
                <ele>1756.7</ele>
                <time>2009-08-25T12:32:15.000Z</time>
                <name>Position 4333</name>
            </trkpt>
            <trkpt lon="10.62042" lat="47.4952933333333">
                <ele>1756.8</ele>
                <time>2009-08-25T12:32:18.000Z</time>
                <name>Position 4334</name>
            </trkpt>
            <trkpt lon="10.620465" lat="47.4952733333333">
                <ele>1756.9</ele>
                <time>2009-08-25T12:32:21.000Z</time>
                <name>Position 4335</name>
            </trkpt>
            <trkpt lon="10.62053" lat="47.4952733333333">
                <ele>1757.6</ele>
                <time>2009-08-25T12:32:24.000Z</time>
                <name>Position 4336</name>
            </trkpt>
            <trkpt lon="10.6205766666667" lat="47.4952716666667">
                <ele>1758.5</ele>
                <time>2009-08-25T12:32:27.000Z</time>
                <name>Position 4337</name>
            </trkpt>
            <trkpt lon="10.6206233333333" lat="47.4952783333333">
                <ele>1759.4</ele>
                <time>2009-08-25T12:32:30.000Z</time>
                <name>Position 4338</name>
            </trkpt>
            <trkpt lon="10.6206716666667" lat="47.4952733333333">
                <ele>1759.3</ele>
                <time>2009-08-25T12:32:33.000Z</time>
                <name>Position 4339</name>
            </trkpt>
            <trkpt lon="10.620725" lat="47.495275">
                <ele>1759.9</ele>
                <time>2009-08-25T12:32:36.000Z</time>
                <name>Position 4340</name>
            </trkpt>
            <trkpt lon="10.6207716666667" lat="47.49527">
                <ele>1760.4</ele>
                <time>2009-08-25T12:32:39.000Z</time>
                <name>Position 4341</name>
            </trkpt>
            <trkpt lon="10.620805" lat="47.4952783333333">
                <ele>1761.2</ele>
                <time>2009-08-25T12:32:42.000Z</time>
                <name>Position 4342</name>
            </trkpt>
            <trkpt lon="10.6208583333333" lat="47.4952733333333">
                <ele>1761.8</ele>
                <time>2009-08-25T12:32:45.000Z</time>
                <name>Position 4343</name>
            </trkpt>
            <trkpt lon="10.62091" lat="47.4952633333333">
                <ele>1763.1</ele>
                <time>2009-08-25T12:32:48.000Z</time>
                <name>Position 4344</name>
            </trkpt>
            <trkpt lon="10.6209666666667" lat="47.4952566666667">
                <ele>1763.9</ele>
                <time>2009-08-25T12:32:51.000Z</time>
                <name>Position 4345</name>
            </trkpt>
            <trkpt lon="10.621025" lat="47.4952683333333">
                <ele>1764.4</ele>
                <time>2009-08-25T12:32:54.000Z</time>
                <name>Position 4346</name>
            </trkpt>
            <trkpt lon="10.62106" lat="47.49528">
                <ele>1764.6</ele>
                <time>2009-08-25T12:32:57.000Z</time>
                <name>Position 4347</name>
            </trkpt>
            <trkpt lon="10.6210983333333" lat="47.4952916666667">
                <ele>1764.7</ele>
                <time>2009-08-25T12:33:00.000Z</time>
                <name>Position 4348</name>
            </trkpt>
            <trkpt lon="10.62114" lat="47.4953033333333">
                <ele>1764.8</ele>
                <time>2009-08-25T12:33:03.000Z</time>
                <name>Position 4349</name>
            </trkpt>
            <trkpt lon="10.6211816666667" lat="47.4953166666667">
                <ele>1764.9</ele>
                <time>2009-08-25T12:33:06.000Z</time>
                <name>Position 4350</name>
            </trkpt>
            <trkpt lon="10.6212233333333" lat="47.4953266666667">
                <ele>1765.0</ele>
                <time>2009-08-25T12:33:09.000Z</time>
                <name>Position 4351</name>
            </trkpt>
            <trkpt lon="10.6212616666667" lat="47.4953333333333">
                <ele>1764.5</ele>
                <time>2009-08-25T12:33:12.000Z</time>
                <name>Position 4352</name>
            </trkpt>
            <trkpt lon="10.62129" lat="47.4953266666667">
                <ele>1764.4</ele>
                <time>2009-08-25T12:33:15.000Z</time>
                <name>Position 4353</name>
            </trkpt>
            <trkpt lon="10.6213116666667" lat="47.49531">
                <ele>1764.4</ele>
                <time>2009-08-25T12:33:18.000Z</time>
                <name>Position 4354</name>
            </trkpt>
            <trkpt lon="10.6213483333333" lat="47.4953">
                <ele>1763.8</ele>
                <time>2009-08-25T12:33:21.000Z</time>
                <name>Position 4355</name>
            </trkpt>
            <trkpt lon="10.6213716666667" lat="47.49528">
                <ele>1764.8</ele>
                <time>2009-08-25T12:33:24.000Z</time>
                <name>Position 4356</name>
            </trkpt>
            <trkpt lon="10.6213816666667" lat="47.49526">
                <ele>1765.8</ele>
                <time>2009-08-25T12:33:27.000Z</time>
                <name>Position 4357</name>
            </trkpt>
            <trkpt lon="10.6214066666667" lat="47.4952333333333">
                <ele>1766.8</ele>
                <time>2009-08-25T12:33:30.000Z</time>
                <name>Position 4358</name>
            </trkpt>
            <trkpt lon="10.6214483333333" lat="47.495215">
                <ele>1767.7</ele>
                <time>2009-08-25T12:33:33.000Z</time>
                <name>Position 4359</name>
            </trkpt>
            <trkpt lon="10.62146" lat="47.4951933333333">
                <ele>1768.5</ele>
                <time>2009-08-25T12:33:36.000Z</time>
                <name>Position 4360</name>
            </trkpt>
            <trkpt lon="10.6214716666667" lat="47.4951766666667">
                <ele>1767.5</ele>
                <time>2009-08-25T12:33:39.000Z</time>
                <name>Position 4361</name>
            </trkpt>
            <trkpt lon="10.6214716666667" lat="47.4951733333333">
                <ele>1767.1</ele>
                <time>2009-08-25T12:33:42.000Z</time>
                <name>Position 4362</name>
            </trkpt>
            <trkpt lon="10.6214733333333" lat="47.495175">
                <ele>1767.0</ele>
                <time>2009-08-25T12:33:45.000Z</time>
                <name>Position 4363</name>
            </trkpt>
            <trkpt lon="10.621475" lat="47.4951766666667">
                <ele>1766.8</ele>
                <time>2009-08-25T12:33:48.000Z</time>
                <name>Position 4364</name>
            </trkpt>
            <trkpt lon="10.6214766666667" lat="47.4951783333333">
                <ele>1766.7</ele>
                <time>2009-08-25T12:33:51.000Z</time>
                <name>Position 4365</name>
            </trkpt>
            <trkpt lon="10.6214716666667" lat="47.495165">
                <ele>1767.3</ele>
                <time>2009-08-25T12:33:54.000Z</time>
                <name>Position 4366</name>
            </trkpt>
            <trkpt lon="10.62146" lat="47.4951316666667">
                <ele>1768.7</ele>
                <time>2009-08-25T12:33:57.000Z</time>
                <name>Position 4367</name>
            </trkpt>
            <trkpt lon="10.6214666666667" lat="47.495095">
                <ele>1769.4</ele>
                <time>2009-08-25T12:34:00.000Z</time>
                <name>Position 4368</name>
            </trkpt>
            <trkpt lon="10.6214666666667" lat="47.49506">
                <ele>1769.5</ele>
                <time>2009-08-25T12:34:03.000Z</time>
                <name>Position 4369</name>
            </trkpt>
            <trkpt lon="10.621465" lat="47.495025">
                <ele>1771.2</ele>
                <time>2009-08-25T12:34:06.000Z</time>
                <name>Position 4370</name>
            </trkpt>
            <trkpt lon="10.621465" lat="47.49499">
                <ele>1773.0</ele>
                <time>2009-08-25T12:34:09.000Z</time>
                <name>Position 4371</name>
            </trkpt>
            <trkpt lon="10.6214683333333" lat="47.494955">
                <ele>1774.1</ele>
                <time>2009-08-25T12:34:12.000Z</time>
                <name>Position 4372</name>
            </trkpt>
            <trkpt lon="10.6214783333333" lat="47.4949266666667">
                <ele>1775.1</ele>
                <time>2009-08-25T12:34:15.000Z</time>
                <name>Position 4373</name>
            </trkpt>
            <trkpt lon="10.62151" lat="47.4948983333333">
                <ele>1776.0</ele>
                <time>2009-08-25T12:34:18.000Z</time>
                <name>Position 4374</name>
            </trkpt>
            <trkpt lon="10.6215216666667" lat="47.4948716666667">
                <ele>1777.5</ele>
                <time>2009-08-25T12:34:21.000Z</time>
                <name>Position 4375</name>
            </trkpt>
            <trkpt lon="10.62154" lat="47.4948366666667">
                <ele>1778.2</ele>
                <time>2009-08-25T12:34:24.000Z</time>
                <name>Position 4376</name>
            </trkpt>
            <trkpt lon="10.6215216666667" lat="47.4948083333333">
                <ele>1779.0</ele>
                <time>2009-08-25T12:34:27.000Z</time>
                <name>Position 4377</name>
            </trkpt>
            <trkpt lon="10.6215266666667" lat="47.4947716666667">
                <ele>1778.5</ele>
                <time>2009-08-25T12:34:30.000Z</time>
                <name>Position 4378</name>
            </trkpt>
            <trkpt lon="10.6215416666667" lat="47.494745">
                <ele>1777.9</ele>
                <time>2009-08-25T12:34:33.000Z</time>
                <name>Position 4379</name>
            </trkpt>
            <trkpt lon="10.62154" lat="47.4947283333333">
                <ele>1776.9</ele>
                <time>2009-08-25T12:34:36.000Z</time>
                <name>Position 4380</name>
            </trkpt>
            <trkpt lon="10.6215416666667" lat="47.4947266666667">
                <ele>1776.5</ele>
                <time>2009-08-25T12:34:39.000Z</time>
                <name>Position 4381</name>
            </trkpt>
            <trkpt lon="10.6215433333333" lat="47.4947283333333">
                <ele>1776.3</ele>
                <time>2009-08-25T12:34:42.000Z</time>
                <name>Position 4382</name>
            </trkpt>
            <trkpt lon="10.6215266666667" lat="47.4947316666667">
                <ele>1776.5</ele>
                <time>2009-08-25T12:34:45.000Z</time>
                <name>Position 4383</name>
            </trkpt>
            <trkpt lon="10.6215066666667" lat="47.494725">
                <ele>1776.6</ele>
                <time>2009-08-25T12:34:48.000Z</time>
                <name>Position 4384</name>
            </trkpt>
            <trkpt lon="10.6215" lat="47.49472">
                <ele>1776.3</ele>
                <time>2009-08-25T12:34:51.000Z</time>
                <name>Position 4385</name>
            </trkpt>
            <trkpt lon="10.6215" lat="47.49472">
                <ele>1776.4</ele>
                <time>2009-08-25T12:34:54.000Z</time>
                <name>Position 4386</name>
            </trkpt>
            <trkpt lon="10.6215" lat="47.49472">
                <ele>1776.5</ele>
                <time>2009-08-25T12:34:57.000Z</time>
                <name>Position 4387</name>
            </trkpt>
            <trkpt lon="10.6215" lat="47.4947183333333">
                <ele>1776.6</ele>
                <time>2009-08-25T12:35:00.000Z</time>
                <name>Position 4388</name>
            </trkpt>
            <trkpt lon="10.6215" lat="47.4947183333333">
                <ele>1776.9</ele>
                <time>2009-08-25T12:35:03.000Z</time>
                <name>Position 4389</name>
            </trkpt>
            <trkpt lon="10.6215" lat="47.494715">
                <ele>1777.2</ele>
                <time>2009-08-25T12:35:06.000Z</time>
                <name>Position 4390</name>
            </trkpt>
            <trkpt lon="10.6214983333333" lat="47.4947133333333">
                <ele>1777.5</ele>
                <time>2009-08-25T12:35:09.000Z</time>
                <name>Position 4391</name>
            </trkpt>
            <trkpt lon="10.6215" lat="47.4947133333333">
                <ele>1777.6</ele>
                <time>2009-08-25T12:35:12.000Z</time>
                <name>Position 4392</name>
            </trkpt>
            <trkpt lon="10.6215" lat="47.4947133333333">
                <ele>1777.7</ele>
                <time>2009-08-25T12:35:15.000Z</time>
                <name>Position 4393</name>
            </trkpt>
            <trkpt lon="10.6215" lat="47.4947133333333">
                <ele>1777.8</ele>
                <time>2009-08-25T12:35:18.000Z</time>
                <name>Position 4394</name>
            </trkpt>
            <trkpt lon="10.6215016666667" lat="47.4947133333333">
                <ele>1777.9</ele>
                <time>2009-08-25T12:35:21.000Z</time>
                <name>Position 4395</name>
            </trkpt>
            <trkpt lon="10.6214966666667" lat="47.494715">
                <ele>1777.8</ele>
                <time>2009-08-25T12:35:24.000Z</time>
                <name>Position 4396</name>
            </trkpt>
            <trkpt lon="10.6215066666667" lat="47.4947166666667">
                <ele>1777.4</ele>
                <time>2009-08-25T12:35:27.000Z</time>
                <name>Position 4397</name>
            </trkpt>
            <trkpt lon="10.6215016666667" lat="47.4947166666667">
                <ele>1777.0</ele>
                <time>2009-08-25T12:35:30.000Z</time>
                <name>Position 4398</name>
            </trkpt>
            <trkpt lon="10.6215" lat="47.494715">
                <ele>1776.9</ele>
                <time>2009-08-25T12:35:33.000Z</time>
                <name>Position 4399</name>
            </trkpt>
            <trkpt lon="10.6215" lat="47.494715">
                <ele>1776.9</ele>
                <time>2009-08-25T12:35:36.000Z</time>
                <name>Position 4400</name>
            </trkpt>
            <trkpt lon="10.6215" lat="47.494715">
                <ele>1776.9</ele>
                <time>2009-08-25T12:35:39.000Z</time>
                <name>Position 4401</name>
            </trkpt>
            <trkpt lon="10.6215" lat="47.494715">
                <ele>1777.0</ele>
                <time>2009-08-25T12:35:42.000Z</time>
                <name>Position 4402</name>
            </trkpt>
            <trkpt lon="10.6215" lat="47.494715">
                <ele>1777.0</ele>
                <time>2009-08-25T12:35:45.000Z</time>
                <name>Position 4403</name>
            </trkpt>
            <trkpt lon="10.6215" lat="47.494715">
                <ele>1777.0</ele>
                <time>2009-08-25T12:35:48.000Z</time>
                <name>Position 4404</name>
            </trkpt>
            <trkpt lon="10.6215016666667" lat="47.494715">
                <ele>1777.0</ele>
                <time>2009-08-25T12:35:51.000Z</time>
                <name>Position 4405</name>
            </trkpt>
            <trkpt lon="10.6215083333333" lat="47.49471">
                <ele>1777.0</ele>
                <time>2009-08-25T12:35:54.000Z</time>
                <name>Position 4406</name>
            </trkpt>
            <trkpt lon="10.6215133333333" lat="47.494705">
                <ele>1777.0</ele>
                <time>2009-08-25T12:35:57.000Z</time>
                <name>Position 4407</name>
            </trkpt>
            <trkpt lon="10.6215133333333" lat="47.494705">
                <ele>1777.0</ele>
                <time>2009-08-25T12:36:00.000Z</time>
                <name>Position 4408</name>
            </trkpt>
            <trkpt lon="10.6215133333333" lat="47.494705">
                <ele>1777.0</ele>
                <time>2009-08-25T12:36:03.000Z</time>
                <name>Position 4409</name>
            </trkpt>
            <trkpt lon="10.6215133333333" lat="47.494705">
                <ele>1777.1</ele>
                <time>2009-08-25T12:36:06.000Z</time>
                <name>Position 4410</name>
            </trkpt>
            <trkpt lon="10.6215133333333" lat="47.494705">
                <ele>1777.1</ele>
                <time>2009-08-25T12:36:09.000Z</time>
                <name>Position 4411</name>
            </trkpt>
            <trkpt lon="10.6215133333333" lat="47.494705">
                <ele>1777.1</ele>
                <time>2009-08-25T12:36:12.000Z</time>
                <name>Position 4412</name>
            </trkpt>
            <trkpt lon="10.6215133333333" lat="47.4947066666667">
                <ele>1777.1</ele>
                <time>2009-08-25T12:36:15.000Z</time>
                <name>Position 4413</name>
            </trkpt>
            <trkpt lon="10.62152" lat="47.4947066666667">
                <ele>1777.1</ele>
                <time>2009-08-25T12:36:18.000Z</time>
                <name>Position 4414</name>
            </trkpt>
            <trkpt lon="10.62152" lat="47.4947066666667">
                <ele>1777.1</ele>
                <time>2009-08-25T12:36:21.000Z</time>
                <name>Position 4415</name>
            </trkpt>
            <trkpt lon="10.621525" lat="47.4947083333333">
                <ele>1776.8</ele>
                <time>2009-08-25T12:36:24.000Z</time>
                <name>Position 4416</name>
            </trkpt>
            <trkpt lon="10.6215466666667" lat="47.4947016666667">
                <ele>1776.1</ele>
                <time>2009-08-25T12:36:27.000Z</time>
                <name>Position 4417</name>
            </trkpt>
            <trkpt lon="10.62156" lat="47.4946933333333">
                <ele>1775.8</ele>
                <time>2009-08-25T12:36:30.000Z</time>
                <name>Position 4418</name>
            </trkpt>
            <trkpt lon="10.6215666666667" lat="47.4946883333333">
                <ele>1775.8</ele>
                <time>2009-08-25T12:36:33.000Z</time>
                <name>Position 4419</name>
            </trkpt>
            <trkpt lon="10.621565" lat="47.4946916666667">
                <ele>1775.7</ele>
                <time>2009-08-25T12:36:36.000Z</time>
                <name>Position 4420</name>
            </trkpt>
            <trkpt lon="10.6215616666667" lat="47.49469">
                <ele>1775.5</ele>
                <time>2009-08-25T12:36:39.000Z</time>
                <name>Position 4421</name>
            </trkpt>
            <trkpt lon="10.6215633333333" lat="47.49469">
                <ele>1775.3</ele>
                <time>2009-08-25T12:36:42.000Z</time>
                <name>Position 4422</name>
            </trkpt>
            <trkpt lon="10.6215683333333" lat="47.4946966666667">
                <ele>1775.3</ele>
                <time>2009-08-25T12:36:45.000Z</time>
                <name>Position 4423</name>
            </trkpt>
            <trkpt lon="10.62157" lat="47.4946966666667">
                <ele>1775.2</ele>
                <time>2009-08-25T12:36:48.000Z</time>
                <name>Position 4424</name>
            </trkpt>
            <trkpt lon="10.6215716666667" lat="47.4946966666667">
                <ele>1775.2</ele>
                <time>2009-08-25T12:36:51.000Z</time>
                <name>Position 4425</name>
            </trkpt>
            <trkpt lon="10.6215733333333" lat="47.4946983333333">
                <ele>1775.1</ele>
                <time>2009-08-25T12:36:54.000Z</time>
                <name>Position 4426</name>
            </trkpt>
            <trkpt lon="10.6215733333333" lat="47.4946983333333">
                <ele>1775.1</ele>
                <time>2009-08-25T12:36:57.000Z</time>
                <name>Position 4427</name>
            </trkpt>
            <trkpt lon="10.6215733333333" lat="47.4946983333333">
                <ele>1775.1</ele>
                <time>2009-08-25T12:37:00.000Z</time>
                <name>Position 4428</name>
            </trkpt>
            <trkpt lon="10.6215733333333" lat="47.4946983333333">
                <ele>1775.1</ele>
                <time>2009-08-25T12:37:03.000Z</time>
                <name>Position 4429</name>
            </trkpt>
            <trkpt lon="10.6215733333333" lat="47.4946983333333">
                <ele>1775.1</ele>
                <time>2009-08-25T12:37:06.000Z</time>
                <name>Position 4430</name>
            </trkpt>
            <trkpt lon="10.6215733333333" lat="47.4946983333333">
                <ele>1775.1</ele>
                <time>2009-08-25T12:37:09.000Z</time>
                <name>Position 4431</name>
            </trkpt>
            <trkpt lon="10.6215733333333" lat="47.4946983333333">
                <ele>1775.1</ele>
                <time>2009-08-25T12:37:12.000Z</time>
                <name>Position 4432</name>
            </trkpt>
            <trkpt lon="10.6215733333333" lat="47.4946983333333">
                <ele>1775.1</ele>
                <time>2009-08-25T12:37:15.000Z</time>
                <name>Position 4433</name>
            </trkpt>
            <trkpt lon="10.6215733333333" lat="47.4946983333333">
                <ele>1775.1</ele>
                <time>2009-08-25T12:37:18.000Z</time>
                <name>Position 4434</name>
            </trkpt>
            <trkpt lon="10.6215733333333" lat="47.4946983333333">
                <ele>1775.1</ele>
                <time>2009-08-25T12:37:21.000Z</time>
                <name>Position 4435</name>
            </trkpt>
            <trkpt lon="10.621595" lat="47.4946816666667">
                <ele>1775.3</ele>
                <time>2009-08-25T12:37:24.000Z</time>
                <name>Position 4436</name>
            </trkpt>
            <trkpt lon="10.621615" lat="47.4946466666667">
                <ele>1775.6</ele>
                <time>2009-08-25T12:37:27.000Z</time>
                <name>Position 4437</name>
            </trkpt>
            <trkpt lon="10.6216383333333" lat="47.494605">
                <ele>1775.7</ele>
                <time>2009-08-25T12:37:30.000Z</time>
                <name>Position 4438</name>
            </trkpt>
            <trkpt lon="10.6216883333333" lat="47.49458">
                <ele>1775.5</ele>
                <time>2009-08-25T12:37:33.000Z</time>
                <name>Position 4439</name>
            </trkpt>
            <trkpt lon="10.6217366666667" lat="47.4945533333333">
                <ele>1775.1</ele>
                <time>2009-08-25T12:37:36.000Z</time>
                <name>Position 4440</name>
            </trkpt>
            <trkpt lon="10.621785" lat="47.4945183333333">
                <ele>1774.8</ele>
                <time>2009-08-25T12:37:39.000Z</time>
                <name>Position 4441</name>
            </trkpt>
            <trkpt lon="10.6218333333333" lat="47.4944883333333">
                <ele>1775.2</ele>
                <time>2009-08-25T12:37:42.000Z</time>
                <name>Position 4442</name>
            </trkpt>
            <trkpt lon="10.621875" lat="47.4944566666667">
                <ele>1775.4</ele>
                <time>2009-08-25T12:37:45.000Z</time>
                <name>Position 4443</name>
            </trkpt>
            <trkpt lon="10.6219083333333" lat="47.4944216666667">
                <ele>1775.8</ele>
                <time>2009-08-25T12:37:48.000Z</time>
                <name>Position 4444</name>
            </trkpt>
            <trkpt lon="10.6219366666667" lat="47.4943866666667">
                <ele>1775.7</ele>
                <time>2009-08-25T12:37:51.000Z</time>
                <name>Position 4445</name>
            </trkpt>
            <trkpt lon="10.6219633333333" lat="47.49435">
                <ele>1775.9</ele>
                <time>2009-08-25T12:37:54.000Z</time>
                <name>Position 4446</name>
            </trkpt>
            <trkpt lon="10.6220033333333" lat="47.4943116666667">
                <ele>1775.6</ele>
                <time>2009-08-25T12:37:57.000Z</time>
                <name>Position 4447</name>
            </trkpt>
            <trkpt lon="10.6220416666667" lat="47.4942783333333">
                <ele>1774.8</ele>
                <time>2009-08-25T12:38:00.000Z</time>
                <name>Position 4448</name>
            </trkpt>
            <trkpt lon="10.6220716666667" lat="47.4942416666667">
                <ele>1774.4</ele>
                <time>2009-08-25T12:38:03.000Z</time>
                <name>Position 4449</name>
            </trkpt>
            <trkpt lon="10.6220883333333" lat="47.4941983333333">
                <ele>1773.7</ele>
                <time>2009-08-25T12:38:06.000Z</time>
                <name>Position 4450</name>
            </trkpt>
            <trkpt lon="10.6220916666667" lat="47.4941566666667">
                <ele>1773.6</ele>
                <time>2009-08-25T12:38:09.000Z</time>
                <name>Position 4451</name>
            </trkpt>
            <trkpt lon="10.62211" lat="47.4941183333333">
                <ele>1773.5</ele>
                <time>2009-08-25T12:38:12.000Z</time>
                <name>Position 4452</name>
            </trkpt>
            <trkpt lon="10.62213" lat="47.494085">
                <ele>1772.7</ele>
                <time>2009-08-25T12:38:15.000Z</time>
                <name>Position 4453</name>
            </trkpt>
            <trkpt lon="10.6221666666667" lat="47.4940533333333">
                <ele>1772.4</ele>
                <time>2009-08-25T12:38:18.000Z</time>
                <name>Position 4454</name>
            </trkpt>
            <trkpt lon="10.6222016666667" lat="47.4940216666667">
                <ele>1772.6</ele>
                <time>2009-08-25T12:38:21.000Z</time>
                <name>Position 4455</name>
            </trkpt>
            <trkpt lon="10.6222416666667" lat="47.4939916666667">
                <ele>1773.0</ele>
                <time>2009-08-25T12:38:24.000Z</time>
                <name>Position 4456</name>
            </trkpt>
            <trkpt lon="10.622285" lat="47.4939733333333">
                <ele>1773.8</ele>
                <time>2009-08-25T12:38:27.000Z</time>
                <name>Position 4457</name>
            </trkpt>
            <trkpt lon="10.622315" lat="47.4939466666667">
                <ele>1774.4</ele>
                <time>2009-08-25T12:38:30.000Z</time>
                <name>Position 4458</name>
            </trkpt>
            <trkpt lon="10.62231" lat="47.493915">
                <ele>1774.2</ele>
                <time>2009-08-25T12:38:33.000Z</time>
                <name>Position 4459</name>
            </trkpt>
            <trkpt lon="10.62231" lat="47.4938733333333">
                <ele>1774.2</ele>
                <time>2009-08-25T12:38:36.000Z</time>
                <name>Position 4460</name>
            </trkpt>
            <trkpt lon="10.6223333333333" lat="47.4938533333333">
                <ele>1775.7</ele>
                <time>2009-08-25T12:38:39.000Z</time>
                <name>Position 4461</name>
            </trkpt>
            <trkpt lon="10.6223483333333" lat="47.4938383333333">
                <ele>1777.7</ele>
                <time>2009-08-25T12:38:42.000Z</time>
                <name>Position 4462</name>
            </trkpt>
            <trkpt lon="10.6223666666667" lat="47.493815">
                <ele>1778.9</ele>
                <time>2009-08-25T12:38:45.000Z</time>
                <name>Position 4463</name>
            </trkpt>
            <trkpt lon="10.622395" lat="47.49379">
                <ele>1779.2</ele>
                <time>2009-08-25T12:38:48.000Z</time>
                <name>Position 4464</name>
            </trkpt>
            <trkpt lon="10.6224116666667" lat="47.493765">
                <ele>1778.9</ele>
                <time>2009-08-25T12:38:51.000Z</time>
                <name>Position 4465</name>
            </trkpt>
            <trkpt lon="10.6224283333333" lat="47.4937366666667">
                <ele>1778.7</ele>
                <time>2009-08-25T12:38:54.000Z</time>
                <name>Position 4466</name>
            </trkpt>
            <trkpt lon="10.6224366666667" lat="47.4937016666667">
                <ele>1778.8</ele>
                <time>2009-08-25T12:38:57.000Z</time>
                <name>Position 4467</name>
            </trkpt>
            <trkpt lon="10.6224283333333" lat="47.4936733333333">
                <ele>1779.5</ele>
                <time>2009-08-25T12:39:00.000Z</time>
                <name>Position 4468</name>
            </trkpt>
            <trkpt lon="10.622435" lat="47.4936533333333">
                <ele>1781.2</ele>
                <time>2009-08-25T12:39:03.000Z</time>
                <name>Position 4469</name>
            </trkpt>
            <trkpt lon="10.6224516666667" lat="47.493645">
                <ele>1782.2</ele>
                <time>2009-08-25T12:39:06.000Z</time>
                <name>Position 4470</name>
            </trkpt>
            <trkpt lon="10.6224733333333" lat="47.4936383333333">
                <ele>1783.9</ele>
                <time>2009-08-25T12:39:09.000Z</time>
                <name>Position 4471</name>
            </trkpt>
            <trkpt lon="10.62247" lat="47.49362">
                <ele>1784.6</ele>
                <time>2009-08-25T12:39:12.000Z</time>
                <name>Position 4472</name>
            </trkpt>
            <trkpt lon="10.6224883333333" lat="47.4936066666667">
                <ele>1786.3</ele>
                <time>2009-08-25T12:39:15.000Z</time>
                <name>Position 4473</name>
            </trkpt>
            <trkpt lon="10.6225033333333" lat="47.4936033333333">
                <ele>1787.0</ele>
                <time>2009-08-25T12:39:18.000Z</time>
                <name>Position 4474</name>
            </trkpt>
            <trkpt lon="10.622525" lat="47.493595">
                <ele>1788.0</ele>
                <time>2009-08-25T12:39:21.000Z</time>
                <name>Position 4475</name>
            </trkpt>
            <trkpt lon="10.6225466666667" lat="47.49359">
                <ele>1789.0</ele>
                <time>2009-08-25T12:39:24.000Z</time>
                <name>Position 4476</name>
            </trkpt>
            <trkpt lon="10.6225283333333" lat="47.493575">
                <ele>1790.1</ele>
                <time>2009-08-25T12:39:27.000Z</time>
                <name>Position 4477</name>
            </trkpt>
            <trkpt lon="10.6225183333333" lat="47.4935516666667">
                <ele>1790.9</ele>
                <time>2009-08-25T12:39:30.000Z</time>
                <name>Position 4478</name>
            </trkpt>
            <trkpt lon="10.6225266666667" lat="47.493525">
                <ele>1791.8</ele>
                <time>2009-08-25T12:39:33.000Z</time>
                <name>Position 4479</name>
            </trkpt>
            <trkpt lon="10.62253" lat="47.4935016666667">
                <ele>1792.2</ele>
                <time>2009-08-25T12:39:36.000Z</time>
                <name>Position 4480</name>
            </trkpt>
            <trkpt lon="10.6225283333333" lat="47.4934783333333">
                <ele>1793.0</ele>
                <time>2009-08-25T12:39:39.000Z</time>
                <name>Position 4481</name>
            </trkpt>
            <trkpt lon="10.6225233333333" lat="47.493455">
                <ele>1793.7</ele>
                <time>2009-08-25T12:39:42.000Z</time>
                <name>Position 4482</name>
            </trkpt>
            <trkpt lon="10.622545" lat="47.49342">
                <ele>1793.0</ele>
                <time>2009-08-25T12:39:45.000Z</time>
                <name>Position 4483</name>
            </trkpt>
            <trkpt lon="10.6225766666667" lat="47.4933966666667">
                <ele>1793.2</ele>
                <time>2009-08-25T12:39:48.000Z</time>
                <name>Position 4484</name>
            </trkpt>
            <trkpt lon="10.6226233333333" lat="47.4933783333333">
                <ele>1793.1</ele>
                <time>2009-08-25T12:39:51.000Z</time>
                <name>Position 4485</name>
            </trkpt>
            <trkpt lon="10.6226666666667" lat="47.49337">
                <ele>1793.3</ele>
                <time>2009-08-25T12:39:54.000Z</time>
                <name>Position 4486</name>
            </trkpt>
            <trkpt lon="10.6227083333333" lat="47.4933666666667">
                <ele>1793.4</ele>
                <time>2009-08-25T12:39:57.000Z</time>
                <name>Position 4487</name>
            </trkpt>
            <trkpt lon="10.6227433333333" lat="47.4933516666667">
                <ele>1793.9</ele>
                <time>2009-08-25T12:40:00.000Z</time>
                <name>Position 4488</name>
            </trkpt>
            <trkpt lon="10.6227766666667" lat="47.49334">
                <ele>1794.7</ele>
                <time>2009-08-25T12:40:03.000Z</time>
                <name>Position 4489</name>
            </trkpt>
            <trkpt lon="10.6228133333333" lat="47.4933233333333">
                <ele>1794.9</ele>
                <time>2009-08-25T12:40:06.000Z</time>
                <name>Position 4490</name>
            </trkpt>
            <trkpt lon="10.6228333333333" lat="47.4933">
                <ele>1795.2</ele>
                <time>2009-08-25T12:40:09.000Z</time>
                <name>Position 4491</name>
            </trkpt>
            <trkpt lon="10.6228433333333" lat="47.4932783333333">
                <ele>1794.9</ele>
                <time>2009-08-25T12:40:12.000Z</time>
                <name>Position 4492</name>
            </trkpt>
            <trkpt lon="10.622835" lat="47.49327">
                <ele>1794.6</ele>
                <time>2009-08-25T12:40:15.000Z</time>
                <name>Position 4493</name>
            </trkpt>
            <trkpt lon="10.6228316666667" lat="47.4932633333333">
                <ele>1794.4</ele>
                <time>2009-08-25T12:40:18.000Z</time>
                <name>Position 4494</name>
            </trkpt>
            <trkpt lon="10.6228283333333" lat="47.4932683333333">
                <ele>1794.2</ele>
                <time>2009-08-25T12:40:21.000Z</time>
                <name>Position 4495</name>
            </trkpt>
            <trkpt lon="10.622835" lat="47.4932733333333">
                <ele>1794.0</ele>
                <time>2009-08-25T12:40:24.000Z</time>
                <name>Position 4496</name>
            </trkpt>
            <trkpt lon="10.6228516666667" lat="47.49328">
                <ele>1794.4</ele>
                <time>2009-08-25T12:40:27.000Z</time>
                <name>Position 4497</name>
            </trkpt>
            <trkpt lon="10.6228883333333" lat="47.4932716666667">
                <ele>1795.3</ele>
                <time>2009-08-25T12:40:30.000Z</time>
                <name>Position 4498</name>
            </trkpt>
            <trkpt lon="10.622915" lat="47.4932516666667">
                <ele>1795.5</ele>
                <time>2009-08-25T12:40:33.000Z</time>
                <name>Position 4499</name>
            </trkpt>
            <trkpt lon="10.62293" lat="47.4932416666667">
                <ele>1795.8</ele>
                <time>2009-08-25T12:40:36.000Z</time>
                <name>Position 4500</name>
            </trkpt>
            <trkpt lon="10.622945" lat="47.493255">
                <ele>1795.1</ele>
                <time>2009-08-25T12:40:39.000Z</time>
                <name>Position 4501</name>
            </trkpt>
            <trkpt lon="10.62294" lat="47.4932583333333">
                <ele>1795.1</ele>
                <time>2009-08-25T12:40:42.000Z</time>
                <name>Position 4502</name>
            </trkpt>
            <trkpt lon="10.6229383333333" lat="47.4932533333333">
                <ele>1795.3</ele>
                <time>2009-08-25T12:40:45.000Z</time>
                <name>Position 4503</name>
            </trkpt>
            <trkpt lon="10.6229383333333" lat="47.4932533333333">
                <ele>1795.3</ele>
                <time>2009-08-25T12:40:48.000Z</time>
                <name>Position 4504</name>
            </trkpt>
            <trkpt lon="10.62294" lat="47.4932533333333">
                <ele>1795.3</ele>
                <time>2009-08-25T12:40:51.000Z</time>
                <name>Position 4505</name>
            </trkpt>
            <trkpt lon="10.6229383333333" lat="47.4932516666667">
                <ele>1795.3</ele>
                <time>2009-08-25T12:40:54.000Z</time>
                <name>Position 4506</name>
            </trkpt>
            <trkpt lon="10.6229366666667" lat="47.49325">
                <ele>1795.2</ele>
                <time>2009-08-25T12:40:57.000Z</time>
                <name>Position 4507</name>
            </trkpt>
            <trkpt lon="10.62294" lat="47.4932483333333">
                <ele>1795.2</ele>
                <time>2009-08-25T12:41:00.000Z</time>
                <name>Position 4508</name>
            </trkpt>
            <trkpt lon="10.6229383333333" lat="47.4932483333333">
                <ele>1795.2</ele>
                <time>2009-08-25T12:41:03.000Z</time>
                <name>Position 4509</name>
            </trkpt>
            <trkpt lon="10.62294" lat="47.493245">
                <ele>1794.7</ele>
                <time>2009-08-25T12:41:06.000Z</time>
                <name>Position 4510</name>
            </trkpt>
            <trkpt lon="10.6229383333333" lat="47.4932483333333">
                <ele>1794.8</ele>
                <time>2009-08-25T12:41:09.000Z</time>
                <name>Position 4511</name>
            </trkpt>
            <trkpt lon="10.6229383333333" lat="47.4932483333333">
                <ele>1794.9</ele>
                <time>2009-08-25T12:41:12.000Z</time>
                <name>Position 4512</name>
            </trkpt>
            <trkpt lon="10.6229383333333" lat="47.4932466666667">
                <ele>1795.2</ele>
                <time>2009-08-25T12:41:15.000Z</time>
                <name>Position 4513</name>
            </trkpt>
            <trkpt lon="10.6229566666667" lat="47.4932233333333">
                <ele>1795.6</ele>
                <time>2009-08-25T12:41:18.000Z</time>
                <name>Position 4514</name>
            </trkpt>
            <trkpt lon="10.6229866666667" lat="47.4932133333333">
                <ele>1795.5</ele>
                <time>2009-08-25T12:41:21.000Z</time>
                <name>Position 4515</name>
            </trkpt>
            <trkpt lon="10.6229933333333" lat="47.4932066666667">
                <ele>1794.3</ele>
                <time>2009-08-25T12:41:24.000Z</time>
                <name>Position 4516</name>
            </trkpt>
            <trkpt lon="10.6229966666667" lat="47.493205">
                <ele>1794.4</ele>
                <time>2009-08-25T12:41:27.000Z</time>
                <name>Position 4517</name>
            </trkpt>
            <trkpt lon="10.6229966666667" lat="47.493205">
                <ele>1794.5</ele>
                <time>2009-08-25T12:41:30.000Z</time>
                <name>Position 4518</name>
            </trkpt>
            <trkpt lon="10.6229966666667" lat="47.4932083333333">
                <ele>1794.4</ele>
                <time>2009-08-25T12:41:33.000Z</time>
                <name>Position 4519</name>
            </trkpt>
            <trkpt lon="10.62301" lat="47.4932316666667">
                <ele>1793.6</ele>
                <time>2009-08-25T12:41:36.000Z</time>
                <name>Position 4520</name>
            </trkpt>
            <trkpt lon="10.623025" lat="47.4932633333333">
                <ele>1793.0</ele>
                <time>2009-08-25T12:41:39.000Z</time>
                <name>Position 4521</name>
            </trkpt>
            <trkpt lon="10.6230533333333" lat="47.4932916666667">
                <ele>1791.8</ele>
                <time>2009-08-25T12:41:42.000Z</time>
                <name>Position 4522</name>
            </trkpt>
            <trkpt lon="10.623085" lat="47.4933183333333">
                <ele>1791.6</ele>
                <time>2009-08-25T12:41:45.000Z</time>
                <name>Position 4523</name>
            </trkpt>
            <trkpt lon="10.62313" lat="47.493325">
                <ele>1791.0</ele>
                <time>2009-08-25T12:41:48.000Z</time>
                <name>Position 4524</name>
            </trkpt>
            <trkpt lon="10.623175" lat="47.493335">
                <ele>1789.9</ele>
                <time>2009-08-25T12:41:51.000Z</time>
                <name>Position 4525</name>
            </trkpt>
            <trkpt lon="10.6232233333333" lat="47.4933366666667">
                <ele>1788.8</ele>
                <time>2009-08-25T12:41:54.000Z</time>
                <name>Position 4526</name>
            </trkpt>
            <trkpt lon="10.6232716666667" lat="47.4933383333333">
                <ele>1788.2</ele>
                <time>2009-08-25T12:41:57.000Z</time>
                <name>Position 4527</name>
            </trkpt>
            <trkpt lon="10.6233166666667" lat="47.4933533333333">
                <ele>1787.7</ele>
                <time>2009-08-25T12:42:00.000Z</time>
                <name>Position 4528</name>
            </trkpt>
            <trkpt lon="10.6233566666667" lat="47.4933533333333">
                <ele>1786.9</ele>
                <time>2009-08-25T12:42:03.000Z</time>
                <name>Position 4529</name>
            </trkpt>
            <trkpt lon="10.62338" lat="47.4933333333333">
                <ele>1786.4</ele>
                <time>2009-08-25T12:42:06.000Z</time>
                <name>Position 4530</name>
            </trkpt>
            <trkpt lon="10.6234133333333" lat="47.4933283333333">
                <ele>1785.6</ele>
                <time>2009-08-25T12:42:09.000Z</time>
                <name>Position 4531</name>
            </trkpt>
            <trkpt lon="10.6234416666667" lat="47.4933183333333">
                <ele>1784.8</ele>
                <time>2009-08-25T12:42:12.000Z</time>
                <name>Position 4532</name>
            </trkpt>
            <trkpt lon="10.6234766666667" lat="47.4933083333333">
                <ele>1784.1</ele>
                <time>2009-08-25T12:42:15.000Z</time>
                <name>Position 4533</name>
            </trkpt>
            <trkpt lon="10.6234916666667" lat="47.4933033333333">
                <ele>1783.4</ele>
                <time>2009-08-25T12:42:18.000Z</time>
                <name>Position 4534</name>
            </trkpt>
            <trkpt lon="10.6235033333333" lat="47.49331">
                <ele>1782.9</ele>
                <time>2009-08-25T12:42:21.000Z</time>
                <name>Position 4535</name>
            </trkpt>
            <trkpt lon="10.6235316666667" lat="47.493315">
                <ele>1782.5</ele>
                <time>2009-08-25T12:42:24.000Z</time>
                <name>Position 4536</name>
            </trkpt>
            <trkpt lon="10.6235333333333" lat="47.4933083333333">
                <ele>1781.9</ele>
                <time>2009-08-25T12:42:27.000Z</time>
                <name>Position 4537</name>
            </trkpt>
            <trkpt lon="10.6235816666667" lat="47.493305">
                <ele>1781.2</ele>
                <time>2009-08-25T12:42:30.000Z</time>
                <name>Position 4538</name>
            </trkpt>
            <trkpt lon="10.62362" lat="47.4933133333333">
                <ele>1780.1</ele>
                <time>2009-08-25T12:42:33.000Z</time>
                <name>Position 4539</name>
            </trkpt>
            <trkpt lon="10.6236566666667" lat="47.4933133333333">
                <ele>1778.7</ele>
                <time>2009-08-25T12:42:36.000Z</time>
                <name>Position 4540</name>
            </trkpt>
            <trkpt lon="10.62371" lat="47.4933266666667">
                <ele>1777.5</ele>
                <time>2009-08-25T12:42:39.000Z</time>
                <name>Position 4541</name>
            </trkpt>
            <trkpt lon="10.6237583333333" lat="47.49335">
                <ele>1777.1</ele>
                <time>2009-08-25T12:42:42.000Z</time>
                <name>Position 4542</name>
            </trkpt>
            <trkpt lon="10.6238066666667" lat="47.4933466666667">
                <ele>1776.8</ele>
                <time>2009-08-25T12:42:45.000Z</time>
                <name>Position 4543</name>
            </trkpt>
            <trkpt lon="10.6238816666667" lat="47.49335">
                <ele>1776.6</ele>
                <time>2009-08-25T12:42:48.000Z</time>
                <name>Position 4544</name>
            </trkpt>
            <trkpt lon="10.6239516666667" lat="47.4933766666667">
                <ele>1776.6</ele>
                <time>2009-08-25T12:42:51.000Z</time>
                <name>Position 4545</name>
            </trkpt>
            <trkpt lon="10.6239933333333" lat="47.49339">
                <ele>1776.3</ele>
                <time>2009-08-25T12:42:54.000Z</time>
                <name>Position 4546</name>
            </trkpt>
            <trkpt lon="10.6239983333333" lat="47.4933933333333">
                <ele>1776.3</ele>
                <time>2009-08-25T12:42:57.000Z</time>
                <name>Position 4547</name>
            </trkpt>
            <trkpt lon="10.6239966666667" lat="47.4933916666667">
                <ele>1776.4</ele>
                <time>2009-08-25T12:43:00.000Z</time>
                <name>Position 4548</name>
            </trkpt>
            <trkpt lon="10.6239983333333" lat="47.49339">
                <ele>1776.4</ele>
                <time>2009-08-25T12:43:03.000Z</time>
                <name>Position 4549</name>
            </trkpt>
            <trkpt lon="10.624" lat="47.49339">
                <ele>1776.5</ele>
                <time>2009-08-25T12:43:06.000Z</time>
                <name>Position 4550</name>
            </trkpt>
            <trkpt lon="10.624" lat="47.49339">
                <ele>1776.6</ele>
                <time>2009-08-25T12:43:09.000Z</time>
                <name>Position 4551</name>
            </trkpt>
            <trkpt lon="10.6240266666667" lat="47.4934016666667">
                <ele>1776.1</ele>
                <time>2009-08-25T12:43:12.000Z</time>
                <name>Position 4552</name>
            </trkpt>
            <trkpt lon="10.6240583333333" lat="47.493415">
                <ele>1775.4</ele>
                <time>2009-08-25T12:43:15.000Z</time>
                <name>Position 4553</name>
            </trkpt>
            <trkpt lon="10.6240616666667" lat="47.4933983333333">
                <ele>1774.6</ele>
                <time>2009-08-25T12:43:18.000Z</time>
                <name>Position 4554</name>
            </trkpt>
            <trkpt lon="10.62406" lat="47.493375">
                <ele>1773.6</ele>
                <time>2009-08-25T12:43:21.000Z</time>
                <name>Position 4555</name>
            </trkpt>
            <trkpt lon="10.62404" lat="47.4933616666667">
                <ele>1773.0</ele>
                <time>2009-08-25T12:43:24.000Z</time>
                <name>Position 4556</name>
            </trkpt>
            <trkpt lon="10.624025" lat="47.49334">
                <ele>1771.9</ele>
                <time>2009-08-25T12:43:27.000Z</time>
                <name>Position 4557</name>
            </trkpt>
            <trkpt lon="10.6240166666667" lat="47.4933233333333">
                <ele>1771.1</ele>
                <time>2009-08-25T12:43:30.000Z</time>
                <name>Position 4558</name>
            </trkpt>
            <trkpt lon="10.6239933333333" lat="47.49332">
                <ele>1770.0</ele>
                <time>2009-08-25T12:43:33.000Z</time>
                <name>Position 4559</name>
            </trkpt>
            <trkpt lon="10.6239783333333" lat="47.4933083333333">
                <ele>1769.8</ele>
                <time>2009-08-25T12:43:36.000Z</time>
                <name>Position 4560</name>
            </trkpt>
            <trkpt lon="10.6239783333333" lat="47.4933016666667">
                <ele>1769.1</ele>
                <time>2009-08-25T12:43:39.000Z</time>
                <name>Position 4561</name>
            </trkpt>
            <trkpt lon="10.6239483333333" lat="47.4933016666667">
                <ele>1768.9</ele>
                <time>2009-08-25T12:43:42.000Z</time>
                <name>Position 4562</name>
            </trkpt>
            <trkpt lon="10.6239416666667" lat="47.4932916666667">
                <ele>1768.9</ele>
                <time>2009-08-25T12:43:45.000Z</time>
                <name>Position 4563</name>
            </trkpt>
            <trkpt lon="10.6239483333333" lat="47.49329">
                <ele>1768.0</ele>
                <time>2009-08-25T12:43:48.000Z</time>
                <name>Position 4564</name>
            </trkpt>
            <trkpt lon="10.6239283333333" lat="47.4932833333333">
                <ele>1766.2</ele>
                <time>2009-08-25T12:43:51.000Z</time>
                <name>Position 4565</name>
            </trkpt>
            <trkpt lon="10.6239566666667" lat="47.4932716666667">
                <ele>1766.1</ele>
                <time>2009-08-25T12:43:54.000Z</time>
                <name>Position 4566</name>
            </trkpt>
            <trkpt lon="10.6239616666667" lat="47.493265">
                <ele>1766.1</ele>
                <time>2009-08-25T12:43:57.000Z</time>
                <name>Position 4567</name>
            </trkpt>
            <trkpt lon="10.62398" lat="47.4932616666667">
                <ele>1765.5</ele>
                <time>2009-08-25T12:44:00.000Z</time>
                <name>Position 4568</name>
            </trkpt>
            <trkpt lon="10.6239883333333" lat="47.4932583333333">
                <ele>1765.4</ele>
                <time>2009-08-25T12:44:03.000Z</time>
                <name>Position 4569</name>
            </trkpt>
            <trkpt lon="10.6240066666667" lat="47.493245">
                <ele>1764.6</ele>
                <time>2009-08-25T12:44:06.000Z</time>
                <name>Position 4570</name>
            </trkpt>
            <trkpt lon="10.6240283333333" lat="47.4932333333333">
                <ele>1763.7</ele>
                <time>2009-08-25T12:44:09.000Z</time>
                <name>Position 4571</name>
            </trkpt>
            <trkpt lon="10.624065" lat="47.4932366666667">
                <ele>1762.6</ele>
                <time>2009-08-25T12:44:12.000Z</time>
                <name>Position 4572</name>
            </trkpt>
            <trkpt lon="10.6241116666667" lat="47.493235">
                <ele>1762.8</ele>
                <time>2009-08-25T12:44:15.000Z</time>
                <name>Position 4573</name>
            </trkpt>
            <trkpt lon="10.6241433333333" lat="47.49323">
                <ele>1762.4</ele>
                <time>2009-08-25T12:44:18.000Z</time>
                <name>Position 4574</name>
            </trkpt>
            <trkpt lon="10.624165" lat="47.49323">
                <ele>1761.9</ele>
                <time>2009-08-25T12:44:21.000Z</time>
                <name>Position 4575</name>
            </trkpt>
            <trkpt lon="10.624185" lat="47.49323">
                <ele>1761.5</ele>
                <time>2009-08-25T12:44:24.000Z</time>
                <name>Position 4576</name>
            </trkpt>
            <trkpt lon="10.62421" lat="47.49323">
                <ele>1760.9</ele>
                <time>2009-08-25T12:44:27.000Z</time>
                <name>Position 4577</name>
            </trkpt>
            <trkpt lon="10.6242433333333" lat="47.493235">
                <ele>1760.2</ele>
                <time>2009-08-25T12:44:30.000Z</time>
                <name>Position 4578</name>
            </trkpt>
            <trkpt lon="10.62426" lat="47.493225">
                <ele>1759.4</ele>
                <time>2009-08-25T12:44:33.000Z</time>
                <name>Position 4579</name>
            </trkpt>
            <trkpt lon="10.624285" lat="47.4932166666667">
                <ele>1759.1</ele>
                <time>2009-08-25T12:44:36.000Z</time>
                <name>Position 4580</name>
            </trkpt>
            <trkpt lon="10.6243116666667" lat="47.4932216666667">
                <ele>1758.8</ele>
                <time>2009-08-25T12:44:39.000Z</time>
                <name>Position 4581</name>
            </trkpt>
            <trkpt lon="10.62432" lat="47.49321">
                <ele>1758.4</ele>
                <time>2009-08-25T12:44:42.000Z</time>
                <name>Position 4582</name>
            </trkpt>
            <trkpt lon="10.6243216666667" lat="47.4931966666667">
                <ele>1757.5</ele>
                <time>2009-08-25T12:44:45.000Z</time>
                <name>Position 4583</name>
            </trkpt>
            <trkpt lon="10.6243316666667" lat="47.4931816666667">
                <ele>1757.4</ele>
                <time>2009-08-25T12:44:48.000Z</time>
                <name>Position 4584</name>
            </trkpt>
            <trkpt lon="10.6243216666667" lat="47.49317">
                <ele>1757.0</ele>
                <time>2009-08-25T12:44:51.000Z</time>
                <name>Position 4585</name>
            </trkpt>
            <trkpt lon="10.6243383333333" lat="47.49316">
                <ele>1755.5</ele>
                <time>2009-08-25T12:44:54.000Z</time>
                <name>Position 4586</name>
            </trkpt>
            <trkpt lon="10.6243583333333" lat="47.4931616666667">
                <ele>1754.5</ele>
                <time>2009-08-25T12:44:57.000Z</time>
                <name>Position 4587</name>
            </trkpt>
            <trkpt lon="10.6243833333333" lat="47.4931566666667">
                <ele>1754.1</ele>
                <time>2009-08-25T12:45:00.000Z</time>
                <name>Position 4588</name>
            </trkpt>
            <trkpt lon="10.6244083333333" lat="47.4931466666667">
                <ele>1753.5</ele>
                <time>2009-08-25T12:45:03.000Z</time>
                <name>Position 4589</name>
            </trkpt>
            <trkpt lon="10.624425" lat="47.493145">
                <ele>1752.7</ele>
                <time>2009-08-25T12:45:06.000Z</time>
                <name>Position 4590</name>
            </trkpt>
            <trkpt lon="10.62444" lat="47.4931516666667">
                <ele>1752.6</ele>
                <time>2009-08-25T12:45:09.000Z</time>
                <name>Position 4591</name>
            </trkpt>
            <trkpt lon="10.624465" lat="47.4931516666667">
                <ele>1751.6</ele>
                <time>2009-08-25T12:45:12.000Z</time>
                <name>Position 4592</name>
            </trkpt>
            <trkpt lon="10.6245" lat="47.4931633333333">
                <ele>1750.6</ele>
                <time>2009-08-25T12:45:15.000Z</time>
                <name>Position 4593</name>
            </trkpt>
            <trkpt lon="10.62452" lat="47.493185">
                <ele>1749.9</ele>
                <time>2009-08-25T12:45:18.000Z</time>
                <name>Position 4594</name>
            </trkpt>
            <trkpt lon="10.6245266666667" lat="47.493205">
                <ele>1748.7</ele>
                <time>2009-08-25T12:45:21.000Z</time>
                <name>Position 4595</name>
            </trkpt>
            <trkpt lon="10.6245433333333" lat="47.493205">
                <ele>1748.2</ele>
                <time>2009-08-25T12:45:24.000Z</time>
                <name>Position 4596</name>
            </trkpt>
            <trkpt lon="10.624555" lat="47.4932033333333">
                <ele>1747.6</ele>
                <time>2009-08-25T12:45:27.000Z</time>
                <name>Position 4597</name>
            </trkpt>
            <trkpt lon="10.6245766666667" lat="47.4931983333333">
                <ele>1747.8</ele>
                <time>2009-08-25T12:45:30.000Z</time>
                <name>Position 4598</name>
            </trkpt>
            <trkpt lon="10.6245883333333" lat="47.4931983333333">
                <ele>1747.7</ele>
                <time>2009-08-25T12:45:33.000Z</time>
                <name>Position 4599</name>
            </trkpt>
            <trkpt lon="10.6245766666667" lat="47.49319">
                <ele>1747.2</ele>
                <time>2009-08-25T12:45:36.000Z</time>
                <name>Position 4600</name>
            </trkpt>
            <trkpt lon="10.6245816666667" lat="47.49318">
                <ele>1746.5</ele>
                <time>2009-08-25T12:45:39.000Z</time>
                <name>Position 4601</name>
            </trkpt>
            <trkpt lon="10.62461" lat="47.49318">
                <ele>1745.7</ele>
                <time>2009-08-25T12:45:42.000Z</time>
                <name>Position 4602</name>
            </trkpt>
            <trkpt lon="10.62463" lat="47.4931866666667">
                <ele>1744.7</ele>
                <time>2009-08-25T12:45:45.000Z</time>
                <name>Position 4603</name>
            </trkpt>
            <trkpt lon="10.6246516666667" lat="47.4931933333333">
                <ele>1744.1</ele>
                <time>2009-08-25T12:45:48.000Z</time>
                <name>Position 4604</name>
            </trkpt>
            <trkpt lon="10.6246783333333" lat="47.4932033333333">
                <ele>1743.9</ele>
                <time>2009-08-25T12:45:51.000Z</time>
                <name>Position 4605</name>
            </trkpt>
            <trkpt lon="10.6247316666667" lat="47.4932016666667">
                <ele>1743.4</ele>
                <time>2009-08-25T12:45:54.000Z</time>
                <name>Position 4606</name>
            </trkpt>
            <trkpt lon="10.6247416666667" lat="47.49321">
                <ele>1742.3</ele>
                <time>2009-08-25T12:45:57.000Z</time>
                <name>Position 4607</name>
            </trkpt>
            <trkpt lon="10.6247483333333" lat="47.4932133333333">
                <ele>1742.4</ele>
                <time>2009-08-25T12:46:00.000Z</time>
                <name>Position 4608</name>
            </trkpt>
            <trkpt lon="10.6247633333333" lat="47.4932166666667">
                <ele>1743.1</ele>
                <time>2009-08-25T12:46:03.000Z</time>
                <name>Position 4609</name>
            </trkpt>
            <trkpt lon="10.62477" lat="47.493215">
                <ele>1743.5</ele>
                <time>2009-08-25T12:46:06.000Z</time>
                <name>Position 4610</name>
            </trkpt>
            <trkpt lon="10.6247966666667" lat="47.4932166666667">
                <ele>1743.3</ele>
                <time>2009-08-25T12:46:09.000Z</time>
                <name>Position 4611</name>
            </trkpt>
            <trkpt lon="10.624825" lat="47.4932133333333">
                <ele>1742.6</ele>
                <time>2009-08-25T12:46:12.000Z</time>
                <name>Position 4612</name>
            </trkpt>
            <trkpt lon="10.6248333333333" lat="47.493215">
                <ele>1741.9</ele>
                <time>2009-08-25T12:46:15.000Z</time>
                <name>Position 4613</name>
            </trkpt>
            <trkpt lon="10.6248683333333" lat="47.4932183333333">
                <ele>1741.3</ele>
                <time>2009-08-25T12:46:18.000Z</time>
                <name>Position 4614</name>
            </trkpt>
            <trkpt lon="10.6249016666667" lat="47.4932033333333">
                <ele>1740.7</ele>
                <time>2009-08-25T12:46:21.000Z</time>
                <name>Position 4615</name>
            </trkpt>
            <trkpt lon="10.62494" lat="47.493205">
                <ele>1740.7</ele>
                <time>2009-08-25T12:46:24.000Z</time>
                <name>Position 4616</name>
            </trkpt>
            <trkpt lon="10.6249566666667" lat="47.493215">
                <ele>1739.8</ele>
                <time>2009-08-25T12:46:27.000Z</time>
                <name>Position 4617</name>
            </trkpt>
            <trkpt lon="10.6249716666667" lat="47.4932266666667">
                <ele>1739.3</ele>
                <time>2009-08-25T12:46:30.000Z</time>
                <name>Position 4618</name>
            </trkpt>
            <trkpt lon="10.62498" lat="47.4932283333333">
                <ele>1739.1</ele>
                <time>2009-08-25T12:46:33.000Z</time>
                <name>Position 4619</name>
            </trkpt>
            <trkpt lon="10.6250066666667" lat="47.4932483333333">
                <ele>1738.0</ele>
                <time>2009-08-25T12:46:36.000Z</time>
                <name>Position 4620</name>
            </trkpt>
            <trkpt lon="10.6250266666667" lat="47.4932816666667">
                <ele>1736.5</ele>
                <time>2009-08-25T12:46:39.000Z</time>
                <name>Position 4621</name>
            </trkpt>
            <trkpt lon="10.6250483333333" lat="47.49332">
                <ele>1735.4</ele>
                <time>2009-08-25T12:46:42.000Z</time>
                <name>Position 4622</name>
            </trkpt>
            <trkpt lon="10.6250766666667" lat="47.4933583333333">
                <ele>1734.5</ele>
                <time>2009-08-25T12:46:45.000Z</time>
                <name>Position 4623</name>
            </trkpt>
            <trkpt lon="10.6251166666667" lat="47.4933716666667">
                <ele>1734.2</ele>
                <time>2009-08-25T12:46:48.000Z</time>
                <name>Position 4624</name>
            </trkpt>
            <trkpt lon="10.6251366666667" lat="47.4933733333333">
                <ele>1733.8</ele>
                <time>2009-08-25T12:46:51.000Z</time>
                <name>Position 4625</name>
            </trkpt>
            <trkpt lon="10.625145" lat="47.4933783333333">
                <ele>1733.8</ele>
                <time>2009-08-25T12:46:54.000Z</time>
                <name>Position 4626</name>
            </trkpt>
            <trkpt lon="10.625165" lat="47.4933916666667">
                <ele>1733.4</ele>
                <time>2009-08-25T12:46:57.000Z</time>
                <name>Position 4627</name>
            </trkpt>
            <trkpt lon="10.6251983333333" lat="47.493415">
                <ele>1732.8</ele>
                <time>2009-08-25T12:47:00.000Z</time>
                <name>Position 4628</name>
            </trkpt>
            <trkpt lon="10.6252333333333" lat="47.4934266666667">
                <ele>1732.2</ele>
                <time>2009-08-25T12:47:03.000Z</time>
                <name>Position 4629</name>
            </trkpt>
            <trkpt lon="10.625275" lat="47.4934233333333">
                <ele>1731.3</ele>
                <time>2009-08-25T12:47:06.000Z</time>
                <name>Position 4630</name>
            </trkpt>
            <trkpt lon="10.6253183333333" lat="47.493435">
                <ele>1729.8</ele>
                <time>2009-08-25T12:47:09.000Z</time>
                <name>Position 4631</name>
            </trkpt>
            <trkpt lon="10.6253533333333" lat="47.4934533333333">
                <ele>1728.6</ele>
                <time>2009-08-25T12:47:12.000Z</time>
                <name>Position 4632</name>
            </trkpt>
            <trkpt lon="10.6253883333333" lat="47.49345">
                <ele>1728.2</ele>
                <time>2009-08-25T12:47:15.000Z</time>
                <name>Position 4633</name>
            </trkpt>
            <trkpt lon="10.6254016666667" lat="47.493445">
                <ele>1728.1</ele>
                <time>2009-08-25T12:47:18.000Z</time>
                <name>Position 4634</name>
            </trkpt>
            <trkpt lon="10.62541" lat="47.4934383333333">
                <ele>1728.4</ele>
                <time>2009-08-25T12:47:21.000Z</time>
                <name>Position 4635</name>
            </trkpt>
            <trkpt lon="10.62544" lat="47.49342">
                <ele>1727.6</ele>
                <time>2009-08-25T12:47:24.000Z</time>
                <name>Position 4636</name>
            </trkpt>
            <trkpt lon="10.6254716666667" lat="47.4934">
                <ele>1727.1</ele>
                <time>2009-08-25T12:47:27.000Z</time>
                <name>Position 4637</name>
            </trkpt>
            <trkpt lon="10.6254916666667" lat="47.4933866666667">
                <ele>1727.2</ele>
                <time>2009-08-25T12:47:30.000Z</time>
                <name>Position 4638</name>
            </trkpt>
            <trkpt lon="10.6254916666667" lat="47.49338">
                <ele>1727.5</ele>
                <time>2009-08-25T12:47:33.000Z</time>
                <name>Position 4639</name>
            </trkpt>
            <trkpt lon="10.6254883333333" lat="47.4933783333333">
                <ele>1727.7</ele>
                <time>2009-08-25T12:47:36.000Z</time>
                <name>Position 4640</name>
            </trkpt>
            <trkpt lon="10.6254883333333" lat="47.4933783333333">
                <ele>1727.9</ele>
                <time>2009-08-25T12:47:39.000Z</time>
                <name>Position 4641</name>
            </trkpt>
            <trkpt lon="10.6254966666667" lat="47.493375">
                <ele>1728.4</ele>
                <time>2009-08-25T12:47:42.000Z</time>
                <name>Position 4642</name>
            </trkpt>
            <trkpt lon="10.6255066666667" lat="47.4933716666667">
                <ele>1728.3</ele>
                <time>2009-08-25T12:47:45.000Z</time>
                <name>Position 4643</name>
            </trkpt>
            <trkpt lon="10.6255133333333" lat="47.4933616666667">
                <ele>1727.5</ele>
                <time>2009-08-25T12:47:48.000Z</time>
                <name>Position 4644</name>
            </trkpt>
            <trkpt lon="10.62552" lat="47.49335">
                <ele>1726.5</ele>
                <time>2009-08-25T12:47:51.000Z</time>
                <name>Position 4645</name>
            </trkpt>
            <trkpt lon="10.62553" lat="47.4933383333333">
                <ele>1725.6</ele>
                <time>2009-08-25T12:47:54.000Z</time>
                <name>Position 4646</name>
            </trkpt>
            <trkpt lon="10.6255416666667" lat="47.49334">
                <ele>1725.2</ele>
                <time>2009-08-25T12:47:57.000Z</time>
                <name>Position 4647</name>
            </trkpt>
            <trkpt lon="10.62557" lat="47.4933466666667">
                <ele>1724.2</ele>
                <time>2009-08-25T12:48:00.000Z</time>
                <name>Position 4648</name>
            </trkpt>
            <trkpt lon="10.6256133333333" lat="47.4933633333333">
                <ele>1723.3</ele>
                <time>2009-08-25T12:48:03.000Z</time>
                <name>Position 4649</name>
            </trkpt>
            <trkpt lon="10.62565" lat="47.4933766666667">
                <ele>1722.2</ele>
                <time>2009-08-25T12:48:06.000Z</time>
                <name>Position 4650</name>
            </trkpt>
            <trkpt lon="10.6256983333333" lat="47.4933866666667">
                <ele>1721.1</ele>
                <time>2009-08-25T12:48:09.000Z</time>
                <name>Position 4651</name>
            </trkpt>
            <trkpt lon="10.62572" lat="47.4933983333333">
                <ele>1720.7</ele>
                <time>2009-08-25T12:48:12.000Z</time>
                <name>Position 4652</name>
            </trkpt>
            <trkpt lon="10.62572" lat="47.4934">
                <ele>1720.7</ele>
                <time>2009-08-25T12:48:15.000Z</time>
                <name>Position 4653</name>
            </trkpt>
            <trkpt lon="10.625765" lat="47.4934066666667">
                <ele>1720.3</ele>
                <time>2009-08-25T12:48:18.000Z</time>
                <name>Position 4654</name>
            </trkpt>
            <trkpt lon="10.6258133333333" lat="47.49341">
                <ele>1720.7</ele>
                <time>2009-08-25T12:48:21.000Z</time>
                <name>Position 4655</name>
            </trkpt>
            <trkpt lon="10.62586" lat="47.4934266666667">
                <ele>1721.1</ele>
                <time>2009-08-25T12:48:24.000Z</time>
                <name>Position 4656</name>
            </trkpt>
            <trkpt lon="10.6258966666667" lat="47.49343">
                <ele>1722.0</ele>
                <time>2009-08-25T12:48:27.000Z</time>
                <name>Position 4657</name>
            </trkpt>
            <trkpt lon="10.625925" lat="47.4934116666667">
                <ele>1723.8</ele>
                <time>2009-08-25T12:48:30.000Z</time>
                <name>Position 4658</name>
            </trkpt>
            <trkpt lon="10.625935" lat="47.4934266666667">
                <ele>1724.6</ele>
                <time>2009-08-25T12:48:33.000Z</time>
                <name>Position 4659</name>
            </trkpt>
            <trkpt lon="10.6259566666667" lat="47.4934483333333">
                <ele>1725.0</ele>
                <time>2009-08-25T12:48:36.000Z</time>
                <name>Position 4660</name>
            </trkpt>
            <trkpt lon="10.6259966666667" lat="47.4934466666667">
                <ele>1725.5</ele>
                <time>2009-08-25T12:48:39.000Z</time>
                <name>Position 4661</name>
            </trkpt>
            <trkpt lon="10.62604" lat="47.49343">
                <ele>1726.6</ele>
                <time>2009-08-25T12:48:42.000Z</time>
                <name>Position 4662</name>
            </trkpt>
            <trkpt lon="10.6260816666667" lat="47.493435">
                <ele>1727.7</ele>
                <time>2009-08-25T12:48:45.000Z</time>
                <name>Position 4663</name>
            </trkpt>
            <trkpt lon="10.626125" lat="47.4934366666667">
                <ele>1728.7</ele>
                <time>2009-08-25T12:48:48.000Z</time>
                <name>Position 4664</name>
            </trkpt>
            <trkpt lon="10.6261583333333" lat="47.4934266666667">
                <ele>1729.9</ele>
                <time>2009-08-25T12:48:51.000Z</time>
                <name>Position 4665</name>
            </trkpt>
            <trkpt lon="10.6261766666667" lat="47.4934016666667">
                <ele>1731.1</ele>
                <time>2009-08-25T12:48:54.000Z</time>
                <name>Position 4666</name>
            </trkpt>
            <trkpt lon="10.6261966666667" lat="47.49338">
                <ele>1732.3</ele>
                <time>2009-08-25T12:48:57.000Z</time>
                <name>Position 4667</name>
            </trkpt>
            <trkpt lon="10.62621" lat="47.49336">
                <ele>1733.4</ele>
                <time>2009-08-25T12:49:00.000Z</time>
                <name>Position 4668</name>
            </trkpt>
            <trkpt lon="10.626215" lat="47.49333">
                <ele>1734.7</ele>
                <time>2009-08-25T12:49:03.000Z</time>
                <name>Position 4669</name>
            </trkpt>
            <trkpt lon="10.626225" lat="47.493305">
                <ele>1735.4</ele>
                <time>2009-08-25T12:49:06.000Z</time>
                <name>Position 4670</name>
            </trkpt>
            <trkpt lon="10.626235" lat="47.4932783333333">
                <ele>1736.0</ele>
                <time>2009-08-25T12:49:09.000Z</time>
                <name>Position 4671</name>
            </trkpt>
            <trkpt lon="10.626255" lat="47.4932733333333">
                <ele>1736.9</ele>
                <time>2009-08-25T12:49:12.000Z</time>
                <name>Position 4672</name>
            </trkpt>
            <trkpt lon="10.6262766666667" lat="47.4932666666667">
                <ele>1737.3</ele>
                <time>2009-08-25T12:49:15.000Z</time>
                <name>Position 4673</name>
            </trkpt>
            <trkpt lon="10.6262966666667" lat="47.4932616666667">
                <ele>1738.8</ele>
                <time>2009-08-25T12:49:18.000Z</time>
                <name>Position 4674</name>
            </trkpt>
            <trkpt lon="10.62631" lat="47.4932416666667">
                <ele>1740.3</ele>
                <time>2009-08-25T12:49:21.000Z</time>
                <name>Position 4675</name>
            </trkpt>
            <trkpt lon="10.6263433333333" lat="47.49324">
                <ele>1741.4</ele>
                <time>2009-08-25T12:49:24.000Z</time>
                <name>Position 4676</name>
            </trkpt>
            <trkpt lon="10.6263733333333" lat="47.4932283333333">
                <ele>1742.5</ele>
                <time>2009-08-25T12:49:27.000Z</time>
                <name>Position 4677</name>
            </trkpt>
            <trkpt lon="10.62639" lat="47.4932133333333">
                <ele>1743.0</ele>
                <time>2009-08-25T12:49:30.000Z</time>
                <name>Position 4678</name>
            </trkpt>
            <trkpt lon="10.6264066666667" lat="47.4931983333333">
                <ele>1744.0</ele>
                <time>2009-08-25T12:49:33.000Z</time>
                <name>Position 4679</name>
            </trkpt>
            <trkpt lon="10.626405" lat="47.493195">
                <ele>1744.1</ele>
                <time>2009-08-25T12:49:36.000Z</time>
                <name>Position 4680</name>
            </trkpt>
            <trkpt lon="10.626405" lat="47.4931966666667">
                <ele>1744.1</ele>
                <time>2009-08-25T12:49:39.000Z</time>
                <name>Position 4681</name>
            </trkpt>
            <trkpt lon="10.626405" lat="47.4931966666667">
                <ele>1744.2</ele>
                <time>2009-08-25T12:49:42.000Z</time>
                <name>Position 4682</name>
            </trkpt>
            <trkpt lon="10.62641" lat="47.4931683333333">
                <ele>1744.6</ele>
                <time>2009-08-25T12:49:45.000Z</time>
                <name>Position 4683</name>
            </trkpt>
            <trkpt lon="10.6264283333333" lat="47.4931366666667">
                <ele>1745.2</ele>
                <time>2009-08-25T12:49:48.000Z</time>
                <name>Position 4684</name>
            </trkpt>
            <trkpt lon="10.6264516666667" lat="47.4931183333333">
                <ele>1746.0</ele>
                <time>2009-08-25T12:49:51.000Z</time>
                <name>Position 4685</name>
            </trkpt>
            <trkpt lon="10.6264666666667" lat="47.493095">
                <ele>1746.7</ele>
                <time>2009-08-25T12:49:54.000Z</time>
                <name>Position 4686</name>
            </trkpt>
            <trkpt lon="10.6264883333333" lat="47.493075">
                <ele>1747.3</ele>
                <time>2009-08-25T12:49:57.000Z</time>
                <name>Position 4687</name>
            </trkpt>
            <trkpt lon="10.62651" lat="47.49306">
                <ele>1747.8</ele>
                <time>2009-08-25T12:50:00.000Z</time>
                <name>Position 4688</name>
            </trkpt>
            <trkpt lon="10.62653" lat="47.4930416666667">
                <ele>1748.0</ele>
                <time>2009-08-25T12:50:03.000Z</time>
                <name>Position 4689</name>
            </trkpt>
            <trkpt lon="10.6265433333333" lat="47.4930266666667">
                <ele>1749.0</ele>
                <time>2009-08-25T12:50:06.000Z</time>
                <name>Position 4690</name>
            </trkpt>
            <trkpt lon="10.6265583333333" lat="47.4930066666667">
                <ele>1749.8</ele>
                <time>2009-08-25T12:50:09.000Z</time>
                <name>Position 4691</name>
            </trkpt>
            <trkpt lon="10.6265883333333" lat="47.4929866666667">
                <ele>1750.6</ele>
                <time>2009-08-25T12:50:12.000Z</time>
                <name>Position 4692</name>
            </trkpt>
            <trkpt lon="10.6266116666667" lat="47.4929683333333">
                <ele>1751.8</ele>
                <time>2009-08-25T12:50:15.000Z</time>
                <name>Position 4693</name>
            </trkpt>
            <trkpt lon="10.6266433333333" lat="47.4929666666667">
                <ele>1752.5</ele>
                <time>2009-08-25T12:50:18.000Z</time>
                <name>Position 4694</name>
            </trkpt>
            <trkpt lon="10.6266616666667" lat="47.49296">
                <ele>1753.1</ele>
                <time>2009-08-25T12:50:21.000Z</time>
                <name>Position 4695</name>
            </trkpt>
            <trkpt lon="10.6266833333333" lat="47.4929566666667">
                <ele>1752.3</ele>
                <time>2009-08-25T12:50:24.000Z</time>
                <name>Position 4696</name>
            </trkpt>
            <trkpt lon="10.62668" lat="47.49296">
                <ele>1752.1</ele>
                <time>2009-08-25T12:50:27.000Z</time>
                <name>Position 4697</name>
            </trkpt>
            <trkpt lon="10.6266783333333" lat="47.4929583333333">
                <ele>1752.0</ele>
                <time>2009-08-25T12:50:30.000Z</time>
                <name>Position 4698</name>
            </trkpt>
            <trkpt lon="10.6266783333333" lat="47.4929583333333">
                <ele>1752.0</ele>
                <time>2009-08-25T12:50:33.000Z</time>
                <name>Position 4699</name>
            </trkpt>
            <trkpt lon="10.62668" lat="47.4929583333333">
                <ele>1751.9</ele>
                <time>2009-08-25T12:50:36.000Z</time>
                <name>Position 4700</name>
            </trkpt>
            <trkpt lon="10.6266783333333" lat="47.4929583333333">
                <ele>1751.9</ele>
                <time>2009-08-25T12:50:39.000Z</time>
                <name>Position 4701</name>
            </trkpt>
            <trkpt lon="10.6266916666667" lat="47.4929516666667">
                <ele>1752.0</ele>
                <time>2009-08-25T12:50:42.000Z</time>
                <name>Position 4702</name>
            </trkpt>
            <trkpt lon="10.6267083333333" lat="47.4929516666667">
                <ele>1751.6</ele>
                <time>2009-08-25T12:50:45.000Z</time>
                <name>Position 4703</name>
            </trkpt>
            <trkpt lon="10.6267083333333" lat="47.4929566666667">
                <ele>1751.4</ele>
                <time>2009-08-25T12:50:48.000Z</time>
                <name>Position 4704</name>
            </trkpt>
            <trkpt lon="10.62671" lat="47.4929583333333">
                <ele>1751.2</ele>
                <time>2009-08-25T12:50:51.000Z</time>
                <name>Position 4705</name>
            </trkpt>
            <trkpt lon="10.6267116666667" lat="47.4929583333333">
                <ele>1751.1</ele>
                <time>2009-08-25T12:50:54.000Z</time>
                <name>Position 4706</name>
            </trkpt>
            <trkpt lon="10.62671" lat="47.4929583333333">
                <ele>1751.0</ele>
                <time>2009-08-25T12:50:57.000Z</time>
                <name>Position 4707</name>
            </trkpt>
            <trkpt lon="10.62671" lat="47.4929583333333">
                <ele>1750.9</ele>
                <time>2009-08-25T12:51:00.000Z</time>
                <name>Position 4708</name>
            </trkpt>
            <trkpt lon="10.6267116666667" lat="47.4929583333333">
                <ele>1750.7</ele>
                <time>2009-08-25T12:51:03.000Z</time>
                <name>Position 4709</name>
            </trkpt>
            <trkpt lon="10.6267133333333" lat="47.4929566666667">
                <ele>1750.5</ele>
                <time>2009-08-25T12:51:06.000Z</time>
                <name>Position 4710</name>
            </trkpt>
            <trkpt lon="10.6267166666667" lat="47.4929566666667">
                <ele>1750.3</ele>
                <time>2009-08-25T12:51:09.000Z</time>
                <name>Position 4711</name>
            </trkpt>
            <trkpt lon="10.6267233333333" lat="47.4929516666667">
                <ele>1750.5</ele>
                <time>2009-08-25T12:51:12.000Z</time>
                <name>Position 4712</name>
            </trkpt>
            <trkpt lon="10.62674" lat="47.492925">
                <ele>1751.1</ele>
                <time>2009-08-25T12:51:15.000Z</time>
                <name>Position 4713</name>
            </trkpt>
            <trkpt lon="10.626745" lat="47.4929016666667">
                <ele>1752.1</ele>
                <time>2009-08-25T12:51:18.000Z</time>
                <name>Position 4714</name>
            </trkpt>
            <trkpt lon="10.6267516666667" lat="47.4928933333333">
                <ele>1753.5</ele>
                <time>2009-08-25T12:51:21.000Z</time>
                <name>Position 4715</name>
            </trkpt>
            <trkpt lon="10.6267583333333" lat="47.4928783333333">
                <ele>1754.1</ele>
                <time>2009-08-25T12:51:24.000Z</time>
                <name>Position 4716</name>
            </trkpt>
            <trkpt lon="10.6267633333333" lat="47.492865">
                <ele>1755.4</ele>
                <time>2009-08-25T12:51:27.000Z</time>
                <name>Position 4717</name>
            </trkpt>
            <trkpt lon="10.6267816666667" lat="47.49285">
                <ele>1755.8</ele>
                <time>2009-08-25T12:51:30.000Z</time>
                <name>Position 4718</name>
            </trkpt>
            <trkpt lon="10.626815" lat="47.492845">
                <ele>1756.4</ele>
                <time>2009-08-25T12:51:33.000Z</time>
                <name>Position 4719</name>
            </trkpt>
            <trkpt lon="10.6268366666667" lat="47.4928366666667">
                <ele>1756.8</ele>
                <time>2009-08-25T12:51:36.000Z</time>
                <name>Position 4720</name>
            </trkpt>
            <trkpt lon="10.6268383333333" lat="47.4928383333333">
                <ele>1757.1</ele>
                <time>2009-08-25T12:51:39.000Z</time>
                <name>Position 4721</name>
            </trkpt>
            <trkpt lon="10.626835" lat="47.4928383333333">
                <ele>1757.3</ele>
                <time>2009-08-25T12:51:42.000Z</time>
                <name>Position 4722</name>
            </trkpt>
            <trkpt lon="10.626835" lat="47.4928383333333">
                <ele>1757.4</ele>
                <time>2009-08-25T12:51:45.000Z</time>
                <name>Position 4723</name>
            </trkpt>
            <trkpt lon="10.6268366666667" lat="47.4928366666667">
                <ele>1757.4</ele>
                <time>2009-08-25T12:51:48.000Z</time>
                <name>Position 4724</name>
            </trkpt>
            <trkpt lon="10.6268683333333" lat="47.4928233333333">
                <ele>1756.4</ele>
                <time>2009-08-25T12:51:51.000Z</time>
                <name>Position 4725</name>
            </trkpt>
            <trkpt lon="10.6269233333333" lat="47.4928266666667">
                <ele>1755.8</ele>
                <time>2009-08-25T12:51:54.000Z</time>
                <name>Position 4726</name>
            </trkpt>
            <trkpt lon="10.6269783333333" lat="47.4928283333333">
                <ele>1755.7</ele>
                <time>2009-08-25T12:51:57.000Z</time>
                <name>Position 4727</name>
            </trkpt>
            <trkpt lon="10.627035" lat="47.4928216666667">
                <ele>1755.3</ele>
                <time>2009-08-25T12:52:00.000Z</time>
                <name>Position 4728</name>
            </trkpt>
            <trkpt lon="10.627085" lat="47.4928216666667">
                <ele>1755.6</ele>
                <time>2009-08-25T12:52:03.000Z</time>
                <name>Position 4729</name>
            </trkpt>
            <trkpt lon="10.6271433333333" lat="47.4928216666667">
                <ele>1755.5</ele>
                <time>2009-08-25T12:52:06.000Z</time>
                <name>Position 4730</name>
            </trkpt>
            <trkpt lon="10.6271983333333" lat="47.4928083333333">
                <ele>1755.7</ele>
                <time>2009-08-25T12:52:09.000Z</time>
                <name>Position 4731</name>
            </trkpt>
            <trkpt lon="10.6272466666667" lat="47.4927983333333">
                <ele>1756.1</ele>
                <time>2009-08-25T12:52:12.000Z</time>
                <name>Position 4732</name>
            </trkpt>
            <trkpt lon="10.6272933333333" lat="47.49281">
                <ele>1755.2</ele>
                <time>2009-08-25T12:52:15.000Z</time>
                <name>Position 4733</name>
            </trkpt>
            <trkpt lon="10.6273516666667" lat="47.4928216666667">
                <ele>1754.2</ele>
                <time>2009-08-25T12:52:18.000Z</time>
                <name>Position 4734</name>
            </trkpt>
            <trkpt lon="10.6274083333333" lat="47.49281">
                <ele>1754.2</ele>
                <time>2009-08-25T12:52:21.000Z</time>
                <name>Position 4735</name>
            </trkpt>
            <trkpt lon="10.6274616666667" lat="47.4928083333333">
                <ele>1754.9</ele>
                <time>2009-08-25T12:52:24.000Z</time>
                <name>Position 4736</name>
            </trkpt>
            <trkpt lon="10.6275016666667" lat="47.4928116666667">
                <ele>1755.7</ele>
                <time>2009-08-25T12:52:27.000Z</time>
                <name>Position 4737</name>
            </trkpt>
            <trkpt lon="10.6275466666667" lat="47.4928033333333">
                <ele>1756.2</ele>
                <time>2009-08-25T12:52:30.000Z</time>
                <name>Position 4738</name>
            </trkpt>
            <trkpt lon="10.627595" lat="47.492785">
                <ele>1756.5</ele>
                <time>2009-08-25T12:52:33.000Z</time>
                <name>Position 4739</name>
            </trkpt>
            <trkpt lon="10.62763" lat="47.49276">
                <ele>1757.2</ele>
                <time>2009-08-25T12:52:36.000Z</time>
                <name>Position 4740</name>
            </trkpt>
            <trkpt lon="10.627675" lat="47.492735">
                <ele>1757.9</ele>
                <time>2009-08-25T12:52:39.000Z</time>
                <name>Position 4741</name>
            </trkpt>
            <trkpt lon="10.62771" lat="47.4927116666667">
                <ele>1757.9</ele>
                <time>2009-08-25T12:52:42.000Z</time>
                <name>Position 4742</name>
            </trkpt>
            <trkpt lon="10.627745" lat="47.4926883333333">
                <ele>1758.4</ele>
                <time>2009-08-25T12:52:45.000Z</time>
                <name>Position 4743</name>
            </trkpt>
            <trkpt lon="10.6277683333333" lat="47.4926566666667">
                <ele>1758.7</ele>
                <time>2009-08-25T12:52:48.000Z</time>
                <name>Position 4744</name>
            </trkpt>
            <trkpt lon="10.627795" lat="47.49263">
                <ele>1759.1</ele>
                <time>2009-08-25T12:52:51.000Z</time>
                <name>Position 4745</name>
            </trkpt>
            <trkpt lon="10.6278216666667" lat="47.4926316666667">
                <ele>1759.9</ele>
                <time>2009-08-25T12:52:54.000Z</time>
                <name>Position 4746</name>
            </trkpt>
            <trkpt lon="10.6278516666667" lat="47.49263">
                <ele>1760.6</ele>
                <time>2009-08-25T12:52:57.000Z</time>
                <name>Position 4747</name>
            </trkpt>
            <trkpt lon="10.627885" lat="47.4926233333333">
                <ele>1761.5</ele>
                <time>2009-08-25T12:53:00.000Z</time>
                <name>Position 4748</name>
            </trkpt>
            <trkpt lon="10.6279116666667" lat="47.4926183333333">
                <ele>1762.2</ele>
                <time>2009-08-25T12:53:03.000Z</time>
                <name>Position 4749</name>
            </trkpt>
            <trkpt lon="10.6279316666667" lat="47.4925966666667">
                <ele>1762.6</ele>
                <time>2009-08-25T12:53:06.000Z</time>
                <name>Position 4750</name>
            </trkpt>
            <trkpt lon="10.627935" lat="47.4925816666667">
                <ele>1763.8</ele>
                <time>2009-08-25T12:53:09.000Z</time>
                <name>Position 4751</name>
            </trkpt>
            <trkpt lon="10.6279316666667" lat="47.4925516666667">
                <ele>1763.7</ele>
                <time>2009-08-25T12:53:12.000Z</time>
                <name>Position 4752</name>
            </trkpt>
            <trkpt lon="10.6279566666667" lat="47.4925333333333">
                <ele>1764.2</ele>
                <time>2009-08-25T12:53:15.000Z</time>
                <name>Position 4753</name>
            </trkpt>
            <trkpt lon="10.6279916666667" lat="47.4925133333333">
                <ele>1764.6</ele>
                <time>2009-08-25T12:53:18.000Z</time>
                <name>Position 4754</name>
            </trkpt>
            <trkpt lon="10.6280216666667" lat="47.492505">
                <ele>1764.3</ele>
                <time>2009-08-25T12:53:21.000Z</time>
                <name>Position 4755</name>
            </trkpt>
            <trkpt lon="10.6280266666667" lat="47.4924833333333">
                <ele>1762.8</ele>
                <time>2009-08-25T12:53:24.000Z</time>
                <name>Position 4756</name>
            </trkpt>
            <trkpt lon="10.6280616666667" lat="47.4924766666667">
                <ele>1764.0</ele>
                <time>2009-08-25T12:53:27.000Z</time>
                <name>Position 4757</name>
            </trkpt>
            <trkpt lon="10.6281" lat="47.492455">
                <ele>1765.2</ele>
                <time>2009-08-25T12:53:30.000Z</time>
                <name>Position 4758</name>
            </trkpt>
            <trkpt lon="10.62814" lat="47.49244">
                <ele>1765.8</ele>
                <time>2009-08-25T12:53:33.000Z</time>
                <name>Position 4759</name>
            </trkpt>
            <trkpt lon="10.6281816666667" lat="47.4924383333333">
                <ele>1766.9</ele>
                <time>2009-08-25T12:53:36.000Z</time>
                <name>Position 4760</name>
            </trkpt>
            <trkpt lon="10.62822" lat="47.4924316666667">
                <ele>1768.2</ele>
                <time>2009-08-25T12:53:39.000Z</time>
                <name>Position 4761</name>
            </trkpt>
            <trkpt lon="10.6282383333333" lat="47.4924283333333">
                <ele>1768.4</ele>
                <time>2009-08-25T12:53:42.000Z</time>
                <name>Position 4762</name>
            </trkpt>
            <trkpt lon="10.6282483333333" lat="47.4924133333333">
                <ele>1768.8</ele>
                <time>2009-08-25T12:53:45.000Z</time>
                <name>Position 4763</name>
            </trkpt>
            <trkpt lon="10.62828" lat="47.4923933333333">
                <ele>1769.0</ele>
                <time>2009-08-25T12:53:48.000Z</time>
                <name>Position 4764</name>
            </trkpt>
            <trkpt lon="10.6283216666667" lat="47.49237">
                <ele>1768.6</ele>
                <time>2009-08-25T12:53:51.000Z</time>
                <name>Position 4765</name>
            </trkpt>
            <trkpt lon="10.6283633333333" lat="47.4923483333333">
                <ele>1768.5</ele>
                <time>2009-08-25T12:53:54.000Z</time>
                <name>Position 4766</name>
            </trkpt>
            <trkpt lon="10.62839" lat="47.4923333333333">
                <ele>1768.3</ele>
                <time>2009-08-25T12:53:57.000Z</time>
                <name>Position 4767</name>
            </trkpt>
            <trkpt lon="10.6284283333333" lat="47.49231">
                <ele>1768.0</ele>
                <time>2009-08-25T12:54:00.000Z</time>
                <name>Position 4768</name>
            </trkpt>
            <trkpt lon="10.62847" lat="47.49229">
                <ele>1767.6</ele>
                <time>2009-08-25T12:54:03.000Z</time>
                <name>Position 4769</name>
            </trkpt>
            <trkpt lon="10.6285033333333" lat="47.492265">
                <ele>1767.3</ele>
                <time>2009-08-25T12:54:06.000Z</time>
                <name>Position 4770</name>
            </trkpt>
            <trkpt lon="10.628545" lat="47.4922433333333">
                <ele>1767.0</ele>
                <time>2009-08-25T12:54:09.000Z</time>
                <name>Position 4771</name>
            </trkpt>
            <trkpt lon="10.62858" lat="47.49222">
                <ele>1766.5</ele>
                <time>2009-08-25T12:54:12.000Z</time>
                <name>Position 4772</name>
            </trkpt>
            <trkpt lon="10.62861" lat="47.4922016666667">
                <ele>1766.1</ele>
                <time>2009-08-25T12:54:15.000Z</time>
                <name>Position 4773</name>
            </trkpt>
            <trkpt lon="10.6286566666667" lat="47.49219">
                <ele>1765.5</ele>
                <time>2009-08-25T12:54:18.000Z</time>
                <name>Position 4774</name>
            </trkpt>
            <trkpt lon="10.6286966666667" lat="47.492165">
                <ele>1765.1</ele>
                <time>2009-08-25T12:54:21.000Z</time>
                <name>Position 4775</name>
            </trkpt>
            <trkpt lon="10.62872" lat="47.49214">
                <ele>1763.8</ele>
                <time>2009-08-25T12:54:24.000Z</time>
                <name>Position 4776</name>
            </trkpt>
            <trkpt lon="10.6287516666667" lat="47.49211">
                <ele>1762.9</ele>
                <time>2009-08-25T12:54:27.000Z</time>
                <name>Position 4777</name>
            </trkpt>
            <trkpt lon="10.6287833333333" lat="47.4920783333333">
                <ele>1762.6</ele>
                <time>2009-08-25T12:54:30.000Z</time>
                <name>Position 4778</name>
            </trkpt>
            <trkpt lon="10.628795" lat="47.4920416666667">
                <ele>1762.3</ele>
                <time>2009-08-25T12:54:33.000Z</time>
                <name>Position 4779</name>
            </trkpt>
            <trkpt lon="10.628825" lat="47.4920166666667">
                <ele>1762.0</ele>
                <time>2009-08-25T12:54:36.000Z</time>
                <name>Position 4780</name>
            </trkpt>
            <trkpt lon="10.6288283333333" lat="47.4920066666667">
                <ele>1762.6</ele>
                <time>2009-08-25T12:54:39.000Z</time>
                <name>Position 4781</name>
            </trkpt>
            <trkpt lon="10.62883" lat="47.4920133333333">
                <ele>1762.3</ele>
                <time>2009-08-25T12:54:42.000Z</time>
                <name>Position 4782</name>
            </trkpt>
            <trkpt lon="10.6288283333333" lat="47.4920133333333">
                <ele>1762.2</ele>
                <time>2009-08-25T12:54:45.000Z</time>
                <name>Position 4783</name>
            </trkpt>
            <trkpt lon="10.6288316666667" lat="47.4920116666667">
                <ele>1762.2</ele>
                <time>2009-08-25T12:54:48.000Z</time>
                <name>Position 4784</name>
            </trkpt>
            <trkpt lon="10.6288583333333" lat="47.4920083333333">
                <ele>1761.8</ele>
                <time>2009-08-25T12:54:51.000Z</time>
                <name>Position 4785</name>
            </trkpt>
            <trkpt lon="10.6288466666667" lat="47.49201">
                <ele>1762.3</ele>
                <time>2009-08-25T12:54:54.000Z</time>
                <name>Position 4786</name>
            </trkpt>
            <trkpt lon="10.6288466666667" lat="47.49201">
                <ele>1762.3</ele>
                <time>2009-08-25T12:54:57.000Z</time>
                <name>Position 4787</name>
            </trkpt>
            <trkpt lon="10.6288483333333" lat="47.49201">
                <ele>1762.3</ele>
                <time>2009-08-25T12:55:00.000Z</time>
                <name>Position 4788</name>
            </trkpt>
            <trkpt lon="10.62884" lat="47.4920133333333">
                <ele>1762.4</ele>
                <time>2009-08-25T12:55:03.000Z</time>
                <name>Position 4789</name>
            </trkpt>
            <trkpt lon="10.628845" lat="47.4920166666667">
                <ele>1762.1</ele>
                <time>2009-08-25T12:55:06.000Z</time>
                <name>Position 4790</name>
            </trkpt>
            <trkpt lon="10.628845" lat="47.492015">
                <ele>1762.1</ele>
                <time>2009-08-25T12:55:09.000Z</time>
                <name>Position 4791</name>
            </trkpt>
            <trkpt lon="10.6288416666667" lat="47.4920166666667">
                <ele>1762.3</ele>
                <time>2009-08-25T12:55:12.000Z</time>
                <name>Position 4792</name>
            </trkpt>
            <trkpt lon="10.6288416666667" lat="47.492015">
                <ele>1762.4</ele>
                <time>2009-08-25T12:55:15.000Z</time>
                <name>Position 4793</name>
            </trkpt>
            <trkpt lon="10.6288433333333" lat="47.492015">
                <ele>1762.4</ele>
                <time>2009-08-25T12:55:18.000Z</time>
                <name>Position 4794</name>
            </trkpt>
            <trkpt lon="10.6288433333333" lat="47.492015">
                <ele>1762.4</ele>
                <time>2009-08-25T12:55:21.000Z</time>
                <name>Position 4795</name>
            </trkpt>
            <trkpt lon="10.6288416666667" lat="47.492015">
                <ele>1762.3</ele>
                <time>2009-08-25T12:55:24.000Z</time>
                <name>Position 4796</name>
            </trkpt>
            <trkpt lon="10.6288433333333" lat="47.492015">
                <ele>1762.3</ele>
                <time>2009-08-25T12:55:27.000Z</time>
                <name>Position 4797</name>
            </trkpt>
            <trkpt lon="10.6288433333333" lat="47.492015">
                <ele>1762.3</ele>
                <time>2009-08-25T12:55:30.000Z</time>
                <name>Position 4798</name>
            </trkpt>
            <trkpt lon="10.62884" lat="47.4920133333333">
                <ele>1762.3</ele>
                <time>2009-08-25T12:55:33.000Z</time>
                <name>Position 4799</name>
            </trkpt>
            <trkpt lon="10.62884" lat="47.4920133333333">
                <ele>1762.3</ele>
                <time>2009-08-25T12:55:36.000Z</time>
                <name>Position 4800</name>
            </trkpt>
            <trkpt lon="10.62884" lat="47.4920133333333">
                <ele>1762.3</ele>
                <time>2009-08-25T12:55:39.000Z</time>
                <name>Position 4801</name>
            </trkpt>
            <trkpt lon="10.62884" lat="47.4920133333333">
                <ele>1762.3</ele>
                <time>2009-08-25T12:55:42.000Z</time>
                <name>Position 4802</name>
            </trkpt>
            <trkpt lon="10.628845" lat="47.4920083333333">
                <ele>1762.3</ele>
                <time>2009-08-25T12:55:45.000Z</time>
                <name>Position 4803</name>
            </trkpt>
            <trkpt lon="10.62884" lat="47.4920133333333">
                <ele>1762.2</ele>
                <time>2009-08-25T12:55:48.000Z</time>
                <name>Position 4804</name>
            </trkpt>
            <trkpt lon="10.628835" lat="47.491995">
                <ele>1761.4</ele>
                <time>2009-08-25T12:55:51.000Z</time>
                <name>Position 4805</name>
            </trkpt>
            <trkpt lon="10.6288366666667" lat="47.491975">
                <ele>1760.1</ele>
                <time>2009-08-25T12:55:56.000Z</time>
                <name>Position 4806</name>
            </trkpt>
            <trkpt lon="10.62884" lat="47.49197">
                <ele>1760.2</ele>
                <time>2009-08-25T12:55:58.000Z</time>
                <name>Position 4807</name>
            </trkpt>
            <trkpt lon="10.6288383333333" lat="47.4919683333333">
                <ele>1760.3</ele>
                <time>2009-08-25T12:56:01.000Z</time>
                <name>Position 4808</name>
            </trkpt>
            <trkpt lon="10.6288383333333" lat="47.4919683333333">
                <ele>1760.3</ele>
                <time>2009-08-25T12:56:04.000Z</time>
                <name>Position 4809</name>
            </trkpt>
            <trkpt lon="10.6288383333333" lat="47.4919683333333">
                <ele>1760.4</ele>
                <time>2009-08-25T12:56:07.000Z</time>
                <name>Position 4810</name>
            </trkpt>
            <trkpt lon="10.6288383333333" lat="47.4919666666667">
                <ele>1760.5</ele>
                <time>2009-08-25T12:56:10.000Z</time>
                <name>Position 4811</name>
            </trkpt>
            <trkpt lon="10.6288383333333" lat="47.4919666666667">
                <ele>1760.5</ele>
                <time>2009-08-25T12:56:13.000Z</time>
                <name>Position 4812</name>
            </trkpt>
            <trkpt lon="10.62884" lat="47.4919683333333">
                <ele>1760.6</ele>
                <time>2009-08-25T12:56:16.000Z</time>
                <name>Position 4813</name>
            </trkpt>
            <trkpt lon="10.6288383333333" lat="47.4919666666667">
                <ele>1760.6</ele>
                <time>2009-08-25T12:56:19.000Z</time>
                <name>Position 4814</name>
            </trkpt>
            <trkpt lon="10.6288383333333" lat="47.4919666666667">
                <ele>1760.6</ele>
                <time>2009-08-25T12:56:22.000Z</time>
                <name>Position 4815</name>
            </trkpt>
            <trkpt lon="10.6288383333333" lat="47.4919666666667">
                <ele>1760.7</ele>
                <time>2009-08-25T12:56:25.000Z</time>
                <name>Position 4816</name>
            </trkpt>
            <trkpt lon="10.6288383333333" lat="47.4919666666667">
                <ele>1760.8</ele>
                <time>2009-08-25T12:56:28.000Z</time>
                <name>Position 4817</name>
            </trkpt>
            <trkpt lon="10.6288383333333" lat="47.4919666666667">
                <ele>1760.9</ele>
                <time>2009-08-25T12:56:31.000Z</time>
                <name>Position 4818</name>
            </trkpt>
            <trkpt lon="10.6288383333333" lat="47.4919666666667">
                <ele>1761.0</ele>
                <time>2009-08-25T12:56:34.000Z</time>
                <name>Position 4819</name>
            </trkpt>
            <trkpt lon="10.6288383333333" lat="47.491965">
                <ele>1761.0</ele>
                <time>2009-08-25T12:56:37.000Z</time>
                <name>Position 4820</name>
            </trkpt>
            <trkpt lon="10.6288316666667" lat="47.4919683333333">
                <ele>1761.0</ele>
                <time>2009-08-25T12:56:40.000Z</time>
                <name>Position 4821</name>
            </trkpt>
            <trkpt lon="10.6288316666667" lat="47.4919683333333">
                <ele>1760.2</ele>
                <time>2009-08-25T12:56:43.000Z</time>
                <name>Position 4822</name>
            </trkpt>
            <trkpt lon="10.6288233333333" lat="47.4919666666667">
                <ele>1759.9</ele>
                <time>2009-08-25T12:56:46.000Z</time>
                <name>Position 4823</name>
            </trkpt>
            <trkpt lon="10.628825" lat="47.4919666666667">
                <ele>1759.7</ele>
                <time>2009-08-25T12:56:49.000Z</time>
                <name>Position 4824</name>
            </trkpt>
            <trkpt lon="10.6288266666667" lat="47.4919666666667">
                <ele>1759.6</ele>
                <time>2009-08-25T12:56:52.000Z</time>
                <name>Position 4825</name>
            </trkpt>
            <trkpt lon="10.628825" lat="47.4919666666667">
                <ele>1759.7</ele>
                <time>2009-08-25T12:56:55.000Z</time>
                <name>Position 4826</name>
            </trkpt>
            <trkpt lon="10.6288016666667" lat="47.4919483333333">
                <ele>1758.9</ele>
                <time>2009-08-25T12:56:58.000Z</time>
                <name>Position 4827</name>
            </trkpt>
            <trkpt lon="10.628795" lat="47.4919266666667">
                <ele>1758.4</ele>
                <time>2009-08-25T12:57:01.000Z</time>
                <name>Position 4828</name>
            </trkpt>
            <trkpt lon="10.6287933333333" lat="47.49192">
                <ele>1756.6</ele>
                <time>2009-08-25T12:57:04.000Z</time>
                <name>Position 4829</name>
            </trkpt>
            <trkpt lon="10.6287916666667" lat="47.4919066666667">
                <ele>1755.8</ele>
                <time>2009-08-25T12:57:07.000Z</time>
                <name>Position 4830</name>
            </trkpt>
            <trkpt lon="10.62876" lat="47.4918833333333">
                <ele>1755.2</ele>
                <time>2009-08-25T12:57:10.000Z</time>
                <name>Position 4831</name>
            </trkpt>
            <trkpt lon="10.6287333333333" lat="47.4918566666667">
                <ele>1754.3</ele>
                <time>2009-08-25T12:57:13.000Z</time>
                <name>Position 4832</name>
            </trkpt>
            <trkpt lon="10.6287133333333" lat="47.4918333333333">
                <ele>1753.7</ele>
                <time>2009-08-25T12:57:16.000Z</time>
                <name>Position 4833</name>
            </trkpt>
            <trkpt lon="10.6286833333333" lat="47.4918083333333">
                <ele>1753.1</ele>
                <time>2009-08-25T12:57:19.000Z</time>
                <name>Position 4834</name>
            </trkpt>
            <trkpt lon="10.628655" lat="47.49179">
                <ele>1752.0</ele>
                <time>2009-08-25T12:57:22.000Z</time>
                <name>Position 4835</name>
            </trkpt>
            <trkpt lon="10.6286283333333" lat="47.4917616666667">
                <ele>1751.9</ele>
                <time>2009-08-25T12:57:25.000Z</time>
                <name>Position 4836</name>
            </trkpt>
            <trkpt lon="10.6286116666667" lat="47.49176">
                <ele>1751.7</ele>
                <time>2009-08-25T12:57:28.000Z</time>
                <name>Position 4837</name>
            </trkpt>
            <trkpt lon="10.6285933333333" lat="47.4917383333333">
                <ele>1751.0</ele>
                <time>2009-08-25T12:57:31.000Z</time>
                <name>Position 4838</name>
            </trkpt>
            <trkpt lon="10.6285833333333" lat="47.4917283333333">
                <ele>1750.7</ele>
                <time>2009-08-25T12:57:34.000Z</time>
                <name>Position 4839</name>
            </trkpt>
            <trkpt lon="10.6285533333333" lat="47.49172">
                <ele>1751.4</ele>
                <time>2009-08-25T12:57:37.000Z</time>
                <name>Position 4840</name>
            </trkpt>
            <trkpt lon="10.6285316666667" lat="47.4917033333333">
                <ele>1750.7</ele>
                <time>2009-08-25T12:57:40.000Z</time>
                <name>Position 4841</name>
            </trkpt>
            <trkpt lon="10.62849" lat="47.4916833333333">
                <ele>1750.5</ele>
                <time>2009-08-25T12:57:43.000Z</time>
                <name>Position 4842</name>
            </trkpt>
            <trkpt lon="10.6284616666667" lat="47.4916766666667">
                <ele>1750.2</ele>
                <time>2009-08-25T12:57:46.000Z</time>
                <name>Position 4843</name>
            </trkpt>
            <trkpt lon="10.62844" lat="47.4916683333333">
                <ele>1750.2</ele>
                <time>2009-08-25T12:57:49.000Z</time>
                <name>Position 4844</name>
            </trkpt>
            <trkpt lon="10.6284" lat="47.49166">
                <ele>1749.5</ele>
                <time>2009-08-25T12:57:52.000Z</time>
                <name>Position 4845</name>
            </trkpt>
            <trkpt lon="10.6283566666667" lat="47.4916483333333">
                <ele>1748.7</ele>
                <time>2009-08-25T12:57:55.000Z</time>
                <name>Position 4846</name>
            </trkpt>
            <trkpt lon="10.6283266666667" lat="47.4916316666667">
                <ele>1747.8</ele>
                <time>2009-08-25T12:57:58.000Z</time>
                <name>Position 4847</name>
            </trkpt>
            <trkpt lon="10.6283" lat="47.4916233333333">
                <ele>1747.4</ele>
                <time>2009-08-25T12:58:01.000Z</time>
                <name>Position 4848</name>
            </trkpt>
            <trkpt lon="10.6282633333333" lat="47.4916133333333">
                <ele>1746.5</ele>
                <time>2009-08-25T12:58:04.000Z</time>
                <name>Position 4849</name>
            </trkpt>
            <trkpt lon="10.62825" lat="47.4916066666667">
                <ele>1746.0</ele>
                <time>2009-08-25T12:58:07.000Z</time>
                <name>Position 4850</name>
            </trkpt>
            <trkpt lon="10.6282383333333" lat="47.4916">
                <ele>1745.7</ele>
                <time>2009-08-25T12:58:10.000Z</time>
                <name>Position 4851</name>
            </trkpt>
            <trkpt lon="10.6282233333333" lat="47.49158">
                <ele>1745.2</ele>
                <time>2009-08-25T12:58:13.000Z</time>
                <name>Position 4852</name>
            </trkpt>
            <trkpt lon="10.6281833333333" lat="47.4915683333333">
                <ele>1744.8</ele>
                <time>2009-08-25T12:58:16.000Z</time>
                <name>Position 4853</name>
            </trkpt>
            <trkpt lon="10.6281516666667" lat="47.4915483333333">
                <ele>1743.9</ele>
                <time>2009-08-25T12:58:19.000Z</time>
                <name>Position 4854</name>
            </trkpt>
            <trkpt lon="10.6281033333333" lat="47.49153">
                <ele>1743.2</ele>
                <time>2009-08-25T12:58:22.000Z</time>
                <name>Position 4855</name>
            </trkpt>
            <trkpt lon="10.628105" lat="47.4915133333333">
                <ele>1742.3</ele>
                <time>2009-08-25T12:58:25.000Z</time>
                <name>Position 4856</name>
            </trkpt>
            <trkpt lon="10.62811" lat="47.491485">
                <ele>1741.6</ele>
                <time>2009-08-25T12:58:28.000Z</time>
                <name>Position 4857</name>
            </trkpt>
            <trkpt lon="10.6281016666667" lat="47.4914716666667">
                <ele>1741.3</ele>
                <time>2009-08-25T12:58:31.000Z</time>
                <name>Position 4858</name>
            </trkpt>
            <trkpt lon="10.62807" lat="47.4914716666667">
                <ele>1740.8</ele>
                <time>2009-08-25T12:58:34.000Z</time>
                <name>Position 4859</name>
            </trkpt>
            <trkpt lon="10.6280366666667" lat="47.491465">
                <ele>1740.2</ele>
                <time>2009-08-25T12:58:37.000Z</time>
                <name>Position 4860</name>
            </trkpt>
            <trkpt lon="10.6279966666667" lat="47.4914633333333">
                <ele>1739.4</ele>
                <time>2009-08-25T12:58:40.000Z</time>
                <name>Position 4861</name>
            </trkpt>
            <trkpt lon="10.62798" lat="47.4914516666667">
                <ele>1738.4</ele>
                <time>2009-08-25T12:58:43.000Z</time>
                <name>Position 4862</name>
            </trkpt>
            <trkpt lon="10.6279683333333" lat="47.49145">
                <ele>1737.5</ele>
                <time>2009-08-25T12:58:46.000Z</time>
                <name>Position 4863</name>
            </trkpt>
            <trkpt lon="10.6279666666667" lat="47.4914416666667">
                <ele>1736.9</ele>
                <time>2009-08-25T12:58:49.000Z</time>
                <name>Position 4864</name>
            </trkpt>
            <trkpt lon="10.62796" lat="47.4914183333333">
                <ele>1735.9</ele>
                <time>2009-08-25T12:58:52.000Z</time>
                <name>Position 4865</name>
            </trkpt>
            <trkpt lon="10.6279716666667" lat="47.4913983333333">
                <ele>1735.1</ele>
                <time>2009-08-25T12:58:55.000Z</time>
                <name>Position 4866</name>
            </trkpt>
            <trkpt lon="10.62799" lat="47.4913983333333">
                <ele>1735.0</ele>
                <time>2009-08-25T12:58:58.000Z</time>
                <name>Position 4867</name>
            </trkpt>
            <trkpt lon="10.627995" lat="47.4913983333333">
                <ele>1734.7</ele>
                <time>2009-08-25T12:59:01.000Z</time>
                <name>Position 4868</name>
            </trkpt>
            <trkpt lon="10.6280083333333" lat="47.4913883333333">
                <ele>1733.2</ele>
                <time>2009-08-25T12:59:04.000Z</time>
                <name>Position 4869</name>
            </trkpt>
            <trkpt lon="10.6280066666667" lat="47.4913933333333">
                <ele>1732.1</ele>
                <time>2009-08-25T12:59:07.000Z</time>
                <name>Position 4870</name>
            </trkpt>
            <trkpt lon="10.628005" lat="47.4913916666667">
                <ele>1730.5</ele>
                <time>2009-08-25T12:59:11.000Z</time>
                <name>Position 4871</name>
            </trkpt>
            <trkpt lon="10.6280033333333" lat="47.4913866666667">
                <ele>1729.4</ele>
                <time>2009-08-25T12:59:14.000Z</time>
                <name>Position 4872</name>
            </trkpt>
            <trkpt lon="10.6279966666667" lat="47.49137">
                <ele>1729.7</ele>
                <time>2009-08-25T12:59:17.000Z</time>
                <name>Position 4873</name>
            </trkpt>
            <trkpt lon="10.6279766666667" lat="47.4913566666667">
                <ele>1728.9</ele>
                <time>2009-08-25T12:59:20.000Z</time>
                <name>Position 4874</name>
            </trkpt>
            <trkpt lon="10.62797" lat="47.4913416666667">
                <ele>1728.6</ele>
                <time>2009-08-25T12:59:23.000Z</time>
                <name>Position 4875</name>
            </trkpt>
            <trkpt lon="10.6279616666667" lat="47.491345">
                <ele>1728.2</ele>
                <time>2009-08-25T12:59:26.000Z</time>
                <name>Position 4876</name>
            </trkpt>
            <trkpt lon="10.6279483333333" lat="47.4913433333333">
                <ele>1727.4</ele>
                <time>2009-08-25T12:59:29.000Z</time>
                <name>Position 4877</name>
            </trkpt>
            <trkpt lon="10.6279416666667" lat="47.49134">
                <ele>1727.2</ele>
                <time>2009-08-25T12:59:32.000Z</time>
                <name>Position 4878</name>
            </trkpt>
            <trkpt lon="10.6279166666667" lat="47.4913383333333">
                <ele>1726.9</ele>
                <time>2009-08-25T12:59:35.000Z</time>
                <name>Position 4879</name>
            </trkpt>
            <trkpt lon="10.6278916666667" lat="47.4913383333333">
                <ele>1726.6</ele>
                <time>2009-08-25T12:59:38.000Z</time>
                <name>Position 4880</name>
            </trkpt>
            <trkpt lon="10.62789" lat="47.4913133333333">
                <ele>1726.8</ele>
                <time>2009-08-25T12:59:41.000Z</time>
                <name>Position 4881</name>
            </trkpt>
            <trkpt lon="10.6279066666667" lat="47.4912883333333">
                <ele>1726.7</ele>
                <time>2009-08-25T12:59:44.000Z</time>
                <name>Position 4882</name>
            </trkpt>
            <trkpt lon="10.6279066666667" lat="47.4912783333333">
                <ele>1726.9</ele>
                <time>2009-08-25T12:59:47.000Z</time>
                <name>Position 4883</name>
            </trkpt>
            <trkpt lon="10.6279116666667" lat="47.49126">
                <ele>1725.9</ele>
                <time>2009-08-25T12:59:50.000Z</time>
                <name>Position 4884</name>
            </trkpt>
            <trkpt lon="10.62791" lat="47.491245">
                <ele>1726.2</ele>
                <time>2009-08-25T12:59:53.000Z</time>
                <name>Position 4885</name>
            </trkpt>
            <trkpt lon="10.627925" lat="47.49123">
                <ele>1725.8</ele>
                <time>2009-08-25T12:59:56.000Z</time>
                <name>Position 4886</name>
            </trkpt>
            <trkpt lon="10.6279383333333" lat="47.4912233333333">
                <ele>1724.3</ele>
                <time>2009-08-25T12:59:59.000Z</time>
                <name>Position 4887</name>
            </trkpt>
            <trkpt lon="10.6279283333333" lat="47.4912166666667">
                <ele>1723.7</ele>
                <time>2009-08-25T13:00:02.000Z</time>
                <name>Position 4888</name>
            </trkpt>
            <trkpt lon="10.6279333333333" lat="47.491205">
                <ele>1722.2</ele>
                <time>2009-08-25T13:00:05.000Z</time>
                <name>Position 4889</name>
            </trkpt>
            <trkpt lon="10.6279166666667" lat="47.4911933333333">
                <ele>1721.3</ele>
                <time>2009-08-25T13:00:08.000Z</time>
                <name>Position 4890</name>
            </trkpt>
            <trkpt lon="10.6278933333333" lat="47.4911966666667">
                <ele>1721.8</ele>
                <time>2009-08-25T13:00:11.000Z</time>
                <name>Position 4891</name>
            </trkpt>
            <trkpt lon="10.62786" lat="47.4912116666667">
                <ele>1720.3</ele>
                <time>2009-08-25T13:00:14.000Z</time>
                <name>Position 4892</name>
            </trkpt>
            <trkpt lon="10.6278183333333" lat="47.4912183333333">
                <ele>1719.0</ele>
                <time>2009-08-25T13:00:17.000Z</time>
                <name>Position 4893</name>
            </trkpt>
            <trkpt lon="10.6278016666667" lat="47.4912016666667">
                <ele>1717.7</ele>
                <time>2009-08-25T13:00:20.000Z</time>
                <name>Position 4894</name>
            </trkpt>
            <trkpt lon="10.6277866666667" lat="47.4912183333333">
                <ele>1716.2</ele>
                <time>2009-08-25T13:00:23.000Z</time>
                <name>Position 4895</name>
            </trkpt>
            <trkpt lon="10.6277633333333" lat="47.4912166666667">
                <ele>1714.7</ele>
                <time>2009-08-25T13:00:26.000Z</time>
                <name>Position 4896</name>
            </trkpt>
            <trkpt lon="10.62775" lat="47.491215">
                <ele>1714.4</ele>
                <time>2009-08-25T13:00:29.000Z</time>
                <name>Position 4897</name>
            </trkpt>
            <trkpt lon="10.6277116666667" lat="47.4912083333333">
                <ele>1712.4</ele>
                <time>2009-08-25T13:00:32.000Z</time>
                <name>Position 4898</name>
            </trkpt>
            <trkpt lon="10.6276816666667" lat="47.4911933333333">
                <ele>1711.3</ele>
                <time>2009-08-25T13:00:35.000Z</time>
                <name>Position 4899</name>
            </trkpt>
            <trkpt lon="10.6276716666667" lat="47.4911833333333">
                <ele>1710.5</ele>
                <time>2009-08-25T13:00:38.000Z</time>
                <name>Position 4900</name>
            </trkpt>
            <trkpt lon="10.6276533333333" lat="47.4911816666667">
                <ele>1710.8</ele>
                <time>2009-08-25T13:00:41.000Z</time>
                <name>Position 4901</name>
            </trkpt>
            <trkpt lon="10.627615" lat="47.4911733333333">
                <ele>1710.2</ele>
                <time>2009-08-25T13:00:44.000Z</time>
                <name>Position 4902</name>
            </trkpt>
            <trkpt lon="10.6276066666667" lat="47.491175">
                <ele>1710.5</ele>
                <time>2009-08-25T13:00:47.000Z</time>
                <name>Position 4903</name>
            </trkpt>
            <trkpt lon="10.6276116666667" lat="47.4911716666667">
                <ele>1710.7</ele>
                <time>2009-08-25T13:00:50.000Z</time>
                <name>Position 4904</name>
            </trkpt>
            <trkpt lon="10.6275916666667" lat="47.4911833333333">
                <ele>1710.0</ele>
                <time>2009-08-25T13:00:53.000Z</time>
                <name>Position 4905</name>
            </trkpt>
            <trkpt lon="10.6275716666667" lat="47.49118">
                <ele>1708.6</ele>
                <time>2009-08-25T13:00:56.000Z</time>
                <name>Position 4906</name>
            </trkpt>
            <trkpt lon="10.627565" lat="47.4911633333333">
                <ele>1707.8</ele>
                <time>2009-08-25T13:00:59.000Z</time>
                <name>Position 4907</name>
            </trkpt>
            <trkpt lon="10.6275566666667" lat="47.4911333333333">
                <ele>1706.3</ele>
                <time>2009-08-25T13:01:02.000Z</time>
                <name>Position 4908</name>
            </trkpt>
            <trkpt lon="10.6275666666667" lat="47.491115">
                <ele>1705.2</ele>
                <time>2009-08-25T13:01:05.000Z</time>
                <name>Position 4909</name>
            </trkpt>
            <trkpt lon="10.6275516666667" lat="47.491085">
                <ele>1704.2</ele>
                <time>2009-08-25T13:01:08.000Z</time>
                <name>Position 4910</name>
            </trkpt>
            <trkpt lon="10.6275166666667" lat="47.4910633333333">
                <ele>1702.6</ele>
                <time>2009-08-25T13:01:11.000Z</time>
                <name>Position 4911</name>
            </trkpt>
            <trkpt lon="10.6275316666667" lat="47.49107">
                <ele>1701.7</ele>
                <time>2009-08-25T13:01:14.000Z</time>
                <name>Position 4912</name>
            </trkpt>
            <trkpt lon="10.62753" lat="47.491075">
                <ele>1701.3</ele>
                <time>2009-08-25T13:01:17.000Z</time>
                <name>Position 4913</name>
            </trkpt>
            <trkpt lon="10.62752" lat="47.4910633333333">
                <ele>1700.7</ele>
                <time>2009-08-25T13:01:20.000Z</time>
                <name>Position 4914</name>
            </trkpt>
            <trkpt lon="10.6274983333333" lat="47.4910583333333">
                <ele>1699.4</ele>
                <time>2009-08-25T13:01:23.000Z</time>
                <name>Position 4915</name>
            </trkpt>
            <trkpt lon="10.6274683333333" lat="47.49105">
                <ele>1698.5</ele>
                <time>2009-08-25T13:01:26.000Z</time>
                <name>Position 4916</name>
            </trkpt>
            <trkpt lon="10.6274533333333" lat="47.4910333333333">
                <ele>1697.4</ele>
                <time>2009-08-25T13:01:29.000Z</time>
                <name>Position 4917</name>
            </trkpt>
            <trkpt lon="10.627445" lat="47.4910083333333">
                <ele>1696.6</ele>
                <time>2009-08-25T13:01:32.000Z</time>
                <name>Position 4918</name>
            </trkpt>
            <trkpt lon="10.627435" lat="47.4909966666667">
                <ele>1696.8</ele>
                <time>2009-08-25T13:01:35.000Z</time>
                <name>Position 4919</name>
            </trkpt>
            <trkpt lon="10.6274383333333" lat="47.4909983333333">
                <ele>1696.8</ele>
                <time>2009-08-25T13:01:38.000Z</time>
                <name>Position 4920</name>
            </trkpt>
            <trkpt lon="10.6274233333333" lat="47.4909866666667">
                <ele>1696.6</ele>
                <time>2009-08-25T13:01:41.000Z</time>
                <name>Position 4921</name>
            </trkpt>
            <trkpt lon="10.6274166666667" lat="47.4909583333333">
                <ele>1696.2</ele>
                <time>2009-08-25T13:01:44.000Z</time>
                <name>Position 4922</name>
            </trkpt>
            <trkpt lon="10.627395" lat="47.4909466666667">
                <ele>1694.9</ele>
                <time>2009-08-25T13:01:47.000Z</time>
                <name>Position 4923</name>
            </trkpt>
            <trkpt lon="10.627375" lat="47.490935">
                <ele>1694.3</ele>
                <time>2009-08-25T13:01:50.000Z</time>
                <name>Position 4924</name>
            </trkpt>
            <trkpt lon="10.6273516666667" lat="47.490925">
                <ele>1693.5</ele>
                <time>2009-08-25T13:01:53.000Z</time>
                <name>Position 4925</name>
            </trkpt>
            <trkpt lon="10.6273383333333" lat="47.49091">
                <ele>1692.5</ele>
                <time>2009-08-25T13:01:56.000Z</time>
                <name>Position 4926</name>
            </trkpt>
            <trkpt lon="10.62732" lat="47.4908983333333">
                <ele>1692.1</ele>
                <time>2009-08-25T13:01:59.000Z</time>
                <name>Position 4927</name>
            </trkpt>
            <trkpt lon="10.6273016666667" lat="47.4908816666667">
                <ele>1691.5</ele>
                <time>2009-08-25T13:02:02.000Z</time>
                <name>Position 4928</name>
            </trkpt>
            <trkpt lon="10.627305" lat="47.4908683333333">
                <ele>1690.7</ele>
                <time>2009-08-25T13:02:05.000Z</time>
                <name>Position 4929</name>
            </trkpt>
            <trkpt lon="10.6272966666667" lat="47.4908666666667">
                <ele>1690.0</ele>
                <time>2009-08-25T13:02:08.000Z</time>
                <name>Position 4930</name>
            </trkpt>
            <trkpt lon="10.62728" lat="47.4908416666667">
                <ele>1689.9</ele>
                <time>2009-08-25T13:02:11.000Z</time>
                <name>Position 4931</name>
            </trkpt>
            <trkpt lon="10.6272966666667" lat="47.49081">
                <ele>1689.9</ele>
                <time>2009-08-25T13:02:14.000Z</time>
                <name>Position 4932</name>
            </trkpt>
            <trkpt lon="10.6273016666667" lat="47.4907616666667">
                <ele>1689.8</ele>
                <time>2009-08-25T13:02:17.000Z</time>
                <name>Position 4933</name>
            </trkpt>
            <trkpt lon="10.6273083333333" lat="47.4907316666667">
                <ele>1689.5</ele>
                <time>2009-08-25T13:02:20.000Z</time>
                <name>Position 4934</name>
            </trkpt>
            <trkpt lon="10.6273166666667" lat="47.4907083333333">
                <ele>1689.6</ele>
                <time>2009-08-25T13:02:23.000Z</time>
                <name>Position 4935</name>
            </trkpt>
            <trkpt lon="10.6273066666667" lat="47.490695">
                <ele>1689.4</ele>
                <time>2009-08-25T13:02:26.000Z</time>
                <name>Position 4936</name>
            </trkpt>
            <trkpt lon="10.6273016666667" lat="47.4906766666667">
                <ele>1688.0</ele>
                <time>2009-08-25T13:02:29.000Z</time>
                <name>Position 4937</name>
            </trkpt>
            <trkpt lon="10.6273016666667" lat="47.4906833333333">
                <ele>1688.3</ele>
                <time>2009-08-25T13:02:32.000Z</time>
                <name>Position 4938</name>
            </trkpt>
            <trkpt lon="10.6272916666667" lat="47.4906833333333">
                <ele>1686.6</ele>
                <time>2009-08-25T13:02:35.000Z</time>
                <name>Position 4939</name>
            </trkpt>
            <trkpt lon="10.6272783333333" lat="47.4906616666667">
                <ele>1685.7</ele>
                <time>2009-08-25T13:02:38.000Z</time>
                <name>Position 4940</name>
            </trkpt>
            <trkpt lon="10.62726" lat="47.4906433333333">
                <ele>1685.1</ele>
                <time>2009-08-25T13:02:41.000Z</time>
                <name>Position 4941</name>
            </trkpt>
            <trkpt lon="10.6272216666667" lat="47.4906216666667">
                <ele>1684.6</ele>
                <time>2009-08-25T13:02:44.000Z</time>
                <name>Position 4942</name>
            </trkpt>
            <trkpt lon="10.627205" lat="47.4906016666667">
                <ele>1684.3</ele>
                <time>2009-08-25T13:02:47.000Z</time>
                <name>Position 4943</name>
            </trkpt>
            <trkpt lon="10.6272016666667" lat="47.4905833333333">
                <ele>1682.7</ele>
                <time>2009-08-25T13:02:50.000Z</time>
                <name>Position 4944</name>
            </trkpt>
            <trkpt lon="10.6271883333333" lat="47.4905516666667">
                <ele>1682.3</ele>
                <time>2009-08-25T13:02:53.000Z</time>
                <name>Position 4945</name>
            </trkpt>
            <trkpt lon="10.6272066666667" lat="47.4905116666667">
                <ele>1681.7</ele>
                <time>2009-08-25T13:02:56.000Z</time>
                <name>Position 4946</name>
            </trkpt>
            <trkpt lon="10.6272066666667" lat="47.4904933333333">
                <ele>1680.5</ele>
                <time>2009-08-25T13:02:59.000Z</time>
                <name>Position 4947</name>
            </trkpt>
            <trkpt lon="10.6272116666667" lat="47.490465">
                <ele>1679.4</ele>
                <time>2009-08-25T13:03:02.000Z</time>
                <name>Position 4948</name>
            </trkpt>
            <trkpt lon="10.6272233333333" lat="47.4904416666667">
                <ele>1678.8</ele>
                <time>2009-08-25T13:03:05.000Z</time>
                <name>Position 4949</name>
            </trkpt>
            <trkpt lon="10.62725" lat="47.4904166666667">
                <ele>1678.5</ele>
                <time>2009-08-25T13:03:08.000Z</time>
                <name>Position 4950</name>
            </trkpt>
            <trkpt lon="10.6272333333333" lat="47.490395">
                <ele>1678.0</ele>
                <time>2009-08-25T13:03:11.000Z</time>
                <name>Position 4951</name>
            </trkpt>
            <trkpt lon="10.6272333333333" lat="47.4903683333333">
                <ele>1677.5</ele>
                <time>2009-08-25T13:03:14.000Z</time>
                <name>Position 4952</name>
            </trkpt>
            <trkpt lon="10.6272616666667" lat="47.4903433333333">
                <ele>1676.3</ele>
                <time>2009-08-25T13:03:17.000Z</time>
                <name>Position 4953</name>
            </trkpt>
            <trkpt lon="10.627245" lat="47.4903466666667">
                <ele>1675.8</ele>
                <time>2009-08-25T13:03:20.000Z</time>
                <name>Position 4954</name>
            </trkpt>
            <trkpt lon="10.6272266666667" lat="47.49035">
                <ele>1674.0</ele>
                <time>2009-08-25T13:03:23.000Z</time>
                <name>Position 4955</name>
            </trkpt>
            <trkpt lon="10.6272216666667" lat="47.4903416666667">
                <ele>1672.2</ele>
                <time>2009-08-25T13:03:26.000Z</time>
                <name>Position 4956</name>
            </trkpt>
            <trkpt lon="10.6271883333333" lat="47.4903233333333">
                <ele>1671.5</ele>
                <time>2009-08-25T13:03:29.000Z</time>
                <name>Position 4957</name>
            </trkpt>
            <trkpt lon="10.6271583333333" lat="47.4903216666667">
                <ele>1670.4</ele>
                <time>2009-08-25T13:03:32.000Z</time>
                <name>Position 4958</name>
            </trkpt>
            <trkpt lon="10.627125" lat="47.4903066666667">
                <ele>1668.8</ele>
                <time>2009-08-25T13:03:35.000Z</time>
                <name>Position 4959</name>
            </trkpt>
            <trkpt lon="10.6270766666667" lat="47.490295">
                <ele>1667.5</ele>
                <time>2009-08-25T13:03:38.000Z</time>
                <name>Position 4960</name>
            </trkpt>
            <trkpt lon="10.6270233333333" lat="47.4903033333333">
                <ele>1665.2</ele>
                <time>2009-08-25T13:03:41.000Z</time>
                <name>Position 4961</name>
            </trkpt>
            <trkpt lon="10.626955" lat="47.4903083333333">
                <ele>1663.4</ele>
                <time>2009-08-25T13:03:44.000Z</time>
                <name>Position 4962</name>
            </trkpt>
            <trkpt lon="10.62692" lat="47.4903016666667">
                <ele>1663.0</ele>
                <time>2009-08-25T13:03:47.000Z</time>
                <name>Position 4963</name>
            </trkpt>
            <trkpt lon="10.626875" lat="47.4903016666667">
                <ele>1661.8</ele>
                <time>2009-08-25T13:03:50.000Z</time>
                <name>Position 4964</name>
            </trkpt>
            <trkpt lon="10.6268433333333" lat="47.4903116666667">
                <ele>1660.4</ele>
                <time>2009-08-25T13:03:53.000Z</time>
                <name>Position 4965</name>
            </trkpt>
            <trkpt lon="10.62682" lat="47.4903116666667">
                <ele>1659.3</ele>
                <time>2009-08-25T13:03:56.000Z</time>
                <name>Position 4966</name>
            </trkpt>
            <trkpt lon="10.6268033333333" lat="47.4903316666667">
                <ele>1658.2</ele>
                <time>2009-08-25T13:03:59.000Z</time>
                <name>Position 4967</name>
            </trkpt>
            <trkpt lon="10.6267766666667" lat="47.4903216666667">
                <ele>1657.3</ele>
                <time>2009-08-25T13:04:02.000Z</time>
                <name>Position 4968</name>
            </trkpt>
            <trkpt lon="10.6267633333333" lat="47.4903">
                <ele>1656.9</ele>
                <time>2009-08-25T13:04:05.000Z</time>
                <name>Position 4969</name>
            </trkpt>
            <trkpt lon="10.6267433333333" lat="47.4902783333333">
                <ele>1656.4</ele>
                <time>2009-08-25T13:04:08.000Z</time>
                <name>Position 4970</name>
            </trkpt>
            <trkpt lon="10.6267516666667" lat="47.4902333333333">
                <ele>1655.5</ele>
                <time>2009-08-25T13:04:11.000Z</time>
                <name>Position 4971</name>
            </trkpt>
            <trkpt lon="10.6267833333333" lat="47.4901966666667">
                <ele>1655.1</ele>
                <time>2009-08-25T13:04:14.000Z</time>
                <name>Position 4972</name>
            </trkpt>
            <trkpt lon="10.6267966666667" lat="47.490175">
                <ele>1655.0</ele>
                <time>2009-08-25T13:04:17.000Z</time>
                <name>Position 4973</name>
            </trkpt>
            <trkpt lon="10.6267966666667" lat="47.49015">
                <ele>1654.3</ele>
                <time>2009-08-25T13:04:20.000Z</time>
                <name>Position 4974</name>
            </trkpt>
            <trkpt lon="10.6268366666667" lat="47.49014">
                <ele>1650.8</ele>
                <time>2009-08-25T13:04:23.000Z</time>
                <name>Position 4975</name>
            </trkpt>
            <trkpt lon="10.62685" lat="47.4901333333333">
                <ele>1650.0</ele>
                <time>2009-08-25T13:04:26.000Z</time>
                <name>Position 4976</name>
            </trkpt>
            <trkpt lon="10.626875" lat="47.4901283333333">
                <ele>1649.1</ele>
                <time>2009-08-25T13:04:29.000Z</time>
                <name>Position 4977</name>
            </trkpt>
            <trkpt lon="10.62689" lat="47.4901133333333">
                <ele>1648.1</ele>
                <time>2009-08-25T13:04:32.000Z</time>
                <name>Position 4978</name>
            </trkpt>
            <trkpt lon="10.626905" lat="47.490105">
                <ele>1647.1</ele>
                <time>2009-08-25T13:04:35.000Z</time>
                <name>Position 4979</name>
            </trkpt>
            <trkpt lon="10.626925" lat="47.4901">
                <ele>1646.6</ele>
                <time>2009-08-25T13:04:38.000Z</time>
                <name>Position 4980</name>
            </trkpt>
            <trkpt lon="10.6269516666667" lat="47.4900833333333">
                <ele>1645.8</ele>
                <time>2009-08-25T13:04:41.000Z</time>
                <name>Position 4981</name>
            </trkpt>
            <trkpt lon="10.6269833333333" lat="47.49006">
                <ele>1645.4</ele>
                <time>2009-08-25T13:04:44.000Z</time>
                <name>Position 4982</name>
            </trkpt>
            <trkpt lon="10.6270116666667" lat="47.4900366666667">
                <ele>1644.8</ele>
                <time>2009-08-25T13:04:47.000Z</time>
                <name>Position 4983</name>
            </trkpt>
            <trkpt lon="10.6270416666667" lat="47.4900216666667">
                <ele>1644.9</ele>
                <time>2009-08-25T13:04:50.000Z</time>
                <name>Position 4984</name>
            </trkpt>
            <trkpt lon="10.6270533333333" lat="47.4900066666667">
                <ele>1644.8</ele>
                <time>2009-08-25T13:04:53.000Z</time>
                <name>Position 4985</name>
            </trkpt>
            <trkpt lon="10.6270816666667" lat="47.490005">
                <ele>1643.2</ele>
                <time>2009-08-25T13:04:56.000Z</time>
                <name>Position 4986</name>
            </trkpt>
            <trkpt lon="10.6270983333333" lat="47.4900016666667">
                <ele>1640.7</ele>
                <time>2009-08-25T13:04:59.000Z</time>
                <name>Position 4987</name>
            </trkpt>
            <trkpt lon="10.6270983333333" lat="47.4899983333333">
                <ele>1639.7</ele>
                <time>2009-08-25T13:05:02.000Z</time>
                <name>Position 4988</name>
            </trkpt>
            <trkpt lon="10.6271" lat="47.489995">
                <ele>1639.5</ele>
                <time>2009-08-25T13:05:05.000Z</time>
                <name>Position 4989</name>
            </trkpt>
            <trkpt lon="10.6271033333333" lat="47.4899966666667">
                <ele>1639.3</ele>
                <time>2009-08-25T13:05:08.000Z</time>
                <name>Position 4990</name>
            </trkpt>
            <trkpt lon="10.6271216666667" lat="47.4899816666667">
                <ele>1637.9</ele>
                <time>2009-08-25T13:05:11.000Z</time>
                <name>Position 4991</name>
            </trkpt>
            <trkpt lon="10.6271383333333" lat="47.48996">
                <ele>1636.8</ele>
                <time>2009-08-25T13:05:14.000Z</time>
                <name>Position 4992</name>
            </trkpt>
            <trkpt lon="10.6271616666667" lat="47.4899416666667">
                <ele>1635.8</ele>
                <time>2009-08-25T13:05:17.000Z</time>
                <name>Position 4993</name>
            </trkpt>
            <trkpt lon="10.6271716666667" lat="47.48993">
                <ele>1635.5</ele>
                <time>2009-08-25T13:05:20.000Z</time>
                <name>Position 4994</name>
            </trkpt>
            <trkpt lon="10.6271916666667" lat="47.489915">
                <ele>1634.4</ele>
                <time>2009-08-25T13:05:23.000Z</time>
                <name>Position 4995</name>
            </trkpt>
            <trkpt lon="10.627215" lat="47.4899">
                <ele>1633.0</ele>
                <time>2009-08-25T13:05:26.000Z</time>
                <name>Position 4996</name>
            </trkpt>
            <trkpt lon="10.6272133333333" lat="47.48987">
                <ele>1632.9</ele>
                <time>2009-08-25T13:05:29.000Z</time>
                <name>Position 4997</name>
            </trkpt>
            <trkpt lon="10.627225" lat="47.48986">
                <ele>1632.0</ele>
                <time>2009-08-25T13:05:32.000Z</time>
                <name>Position 4998</name>
            </trkpt>
            <trkpt lon="10.627225" lat="47.4898466666667">
                <ele>1631.2</ele>
                <time>2009-08-25T13:05:35.000Z</time>
                <name>Position 4999</name>
            </trkpt>
            <trkpt lon="10.6272383333333" lat="47.4898366666667">
                <ele>1629.8</ele>
                <time>2009-08-25T13:05:38.000Z</time>
                <name>Position 5000</name>
            </trkpt>
            <trkpt lon="10.627255" lat="47.4898183333333">
                <ele>1628.1</ele>
                <time>2009-08-25T13:05:41.000Z</time>
                <name>Position 5001</name>
            </trkpt>
            <trkpt lon="10.627285" lat="47.4897933333333">
                <ele>1627.6</ele>
                <time>2009-08-25T13:05:44.000Z</time>
                <name>Position 5002</name>
            </trkpt>
            <trkpt lon="10.627315" lat="47.4897866666667">
                <ele>1627.1</ele>
                <time>2009-08-25T13:05:47.000Z</time>
                <name>Position 5003</name>
            </trkpt>
            <trkpt lon="10.6273283333333" lat="47.48978">
                <ele>1626.1</ele>
                <time>2009-08-25T13:05:50.000Z</time>
                <name>Position 5004</name>
            </trkpt>
            <trkpt lon="10.6273316666667" lat="47.4897683333333">
                <ele>1625.3</ele>
                <time>2009-08-25T13:05:53.000Z</time>
                <name>Position 5005</name>
            </trkpt>
            <trkpt lon="10.627345" lat="47.4897633333333">
                <ele>1624.4</ele>
                <time>2009-08-25T13:05:56.000Z</time>
                <name>Position 5006</name>
            </trkpt>
            <trkpt lon="10.6273316666667" lat="47.4897516666667">
                <ele>1623.7</ele>
                <time>2009-08-25T13:05:59.000Z</time>
                <name>Position 5007</name>
            </trkpt>
            <trkpt lon="10.627325" lat="47.4897433333333">
                <ele>1622.8</ele>
                <time>2009-08-25T13:06:02.000Z</time>
                <name>Position 5008</name>
            </trkpt>
            <trkpt lon="10.6273266666667" lat="47.489725">
                <ele>1622.7</ele>
                <time>2009-08-25T13:06:05.000Z</time>
                <name>Position 5009</name>
            </trkpt>
            <trkpt lon="10.6273066666667" lat="47.4897233333333">
                <ele>1622.4</ele>
                <time>2009-08-25T13:06:08.000Z</time>
                <name>Position 5010</name>
            </trkpt>
            <trkpt lon="10.6272833333333" lat="47.4897216666667">
                <ele>1621.7</ele>
                <time>2009-08-25T13:06:11.000Z</time>
                <name>Position 5011</name>
            </trkpt>
            <trkpt lon="10.627275" lat="47.4897166666667">
                <ele>1621.7</ele>
                <time>2009-08-25T13:06:14.000Z</time>
                <name>Position 5012</name>
            </trkpt>
            <trkpt lon="10.6272633333333" lat="47.48971">
                <ele>1621.0</ele>
                <time>2009-08-25T13:06:17.000Z</time>
                <name>Position 5013</name>
            </trkpt>
            <trkpt lon="10.6272633333333" lat="47.4897">
                <ele>1620.0</ele>
                <time>2009-08-25T13:06:20.000Z</time>
                <name>Position 5014</name>
            </trkpt>
            <trkpt lon="10.6272583333333" lat="47.489685">
                <ele>1619.6</ele>
                <time>2009-08-25T13:06:23.000Z</time>
                <name>Position 5015</name>
            </trkpt>
            <trkpt lon="10.6272566666667" lat="47.489685">
                <ele>1618.8</ele>
                <time>2009-08-25T13:06:26.000Z</time>
                <name>Position 5016</name>
            </trkpt>
            <trkpt lon="10.627255" lat="47.4896733333333">
                <ele>1618.3</ele>
                <time>2009-08-25T13:06:29.000Z</time>
                <name>Position 5017</name>
            </trkpt>
            <trkpt lon="10.62725" lat="47.4896533333333">
                <ele>1617.7</ele>
                <time>2009-08-25T13:06:32.000Z</time>
                <name>Position 5018</name>
            </trkpt>
            <trkpt lon="10.6272416666667" lat="47.4896233333333">
                <ele>1617.5</ele>
                <time>2009-08-25T13:06:35.000Z</time>
                <name>Position 5019</name>
            </trkpt>
            <trkpt lon="10.6272433333333" lat="47.4896233333333">
                <ele>1617.5</ele>
                <time>2009-08-25T13:06:38.000Z</time>
                <name>Position 5020</name>
            </trkpt>
            <trkpt lon="10.6272416666667" lat="47.4896216666667">
                <ele>1617.5</ele>
                <time>2009-08-25T13:06:41.000Z</time>
                <name>Position 5021</name>
            </trkpt>
            <trkpt lon="10.62724" lat="47.48962">
                <ele>1617.5</ele>
                <time>2009-08-25T13:06:44.000Z</time>
                <name>Position 5022</name>
            </trkpt>
            <trkpt lon="10.6272333333333" lat="47.4896133333333">
                <ele>1617.6</ele>
                <time>2009-08-25T13:06:47.000Z</time>
                <name>Position 5023</name>
            </trkpt>
            <trkpt lon="10.6272333333333" lat="47.4895916666667">
                <ele>1617.6</ele>
                <time>2009-08-25T13:06:50.000Z</time>
                <name>Position 5024</name>
            </trkpt>
            <trkpt lon="10.6272433333333" lat="47.4895883333333">
                <ele>1617.5</ele>
                <time>2009-08-25T13:06:53.000Z</time>
                <name>Position 5025</name>
            </trkpt>
            <trkpt lon="10.627245" lat="47.4895883333333">
                <ele>1617.6</ele>
                <time>2009-08-25T13:06:56.000Z</time>
                <name>Position 5026</name>
            </trkpt>
            <trkpt lon="10.6272433333333" lat="47.4895883333333">
                <ele>1617.7</ele>
                <time>2009-08-25T13:06:59.000Z</time>
                <name>Position 5027</name>
            </trkpt>
            <trkpt lon="10.6272433333333" lat="47.4895866666667">
                <ele>1617.8</ele>
                <time>2009-08-25T13:07:02.000Z</time>
                <name>Position 5028</name>
            </trkpt>
            <trkpt lon="10.6272416666667" lat="47.4895866666667">
                <ele>1617.8</ele>
                <time>2009-08-25T13:07:05.000Z</time>
                <name>Position 5029</name>
            </trkpt>
            <trkpt lon="10.6272416666667" lat="47.4895866666667">
                <ele>1617.8</ele>
                <time>2009-08-25T13:07:08.000Z</time>
                <name>Position 5030</name>
            </trkpt>
            <trkpt lon="10.6272416666667" lat="47.4895866666667">
                <ele>1617.8</ele>
                <time>2009-08-25T13:07:11.000Z</time>
                <name>Position 5031</name>
            </trkpt>
            <trkpt lon="10.6272416666667" lat="47.4895866666667">
                <ele>1617.8</ele>
                <time>2009-08-25T13:07:14.000Z</time>
                <name>Position 5032</name>
            </trkpt>
            <trkpt lon="10.6272416666667" lat="47.4895866666667">
                <ele>1617.8</ele>
                <time>2009-08-25T13:07:17.000Z</time>
                <name>Position 5033</name>
            </trkpt>
            <trkpt lon="10.627245" lat="47.489585">
                <ele>1617.7</ele>
                <time>2009-08-25T13:07:20.000Z</time>
                <name>Position 5034</name>
            </trkpt>
            <trkpt lon="10.6272316666667" lat="47.4895783333333">
                <ele>1617.5</ele>
                <time>2009-08-25T13:07:23.000Z</time>
                <name>Position 5035</name>
            </trkpt>
            <trkpt lon="10.6272583333333" lat="47.48957">
                <ele>1617.0</ele>
                <time>2009-08-25T13:07:26.000Z</time>
                <name>Position 5036</name>
            </trkpt>
            <trkpt lon="10.6272533333333" lat="47.4895633333333">
                <ele>1616.8</ele>
                <time>2009-08-25T13:07:29.000Z</time>
                <name>Position 5037</name>
            </trkpt>
            <trkpt lon="10.6272566666667" lat="47.48956">
                <ele>1616.7</ele>
                <time>2009-08-25T13:07:32.000Z</time>
                <name>Position 5038</name>
            </trkpt>
            <trkpt lon="10.6272533333333" lat="47.48956">
                <ele>1616.6</ele>
                <time>2009-08-25T13:07:35.000Z</time>
                <name>Position 5039</name>
            </trkpt>
            <trkpt lon="10.627255" lat="47.48956">
                <ele>1616.6</ele>
                <time>2009-08-25T13:07:38.000Z</time>
                <name>Position 5040</name>
            </trkpt>
            <trkpt lon="10.6272566666667" lat="47.4895633333333">
                <ele>1616.5</ele>
                <time>2009-08-25T13:07:41.000Z</time>
                <name>Position 5041</name>
            </trkpt>
            <trkpt lon="10.6272566666667" lat="47.4895666666667">
                <ele>1616.5</ele>
                <time>2009-08-25T13:07:44.000Z</time>
                <name>Position 5042</name>
            </trkpt>
            <trkpt lon="10.6272566666667" lat="47.48957">
                <ele>1616.4</ele>
                <time>2009-08-25T13:07:47.000Z</time>
                <name>Position 5043</name>
            </trkpt>
            <trkpt lon="10.6272583333333" lat="47.4895733333333">
                <ele>1616.4</ele>
                <time>2009-08-25T13:07:50.000Z</time>
                <name>Position 5044</name>
            </trkpt>
            <trkpt lon="10.62726" lat="47.4895783333333">
                <ele>1616.3</ele>
                <time>2009-08-25T13:07:53.000Z</time>
                <name>Position 5045</name>
            </trkpt>
            <trkpt lon="10.6272616666667" lat="47.48958">
                <ele>1616.3</ele>
                <time>2009-08-25T13:07:56.000Z</time>
                <name>Position 5046</name>
            </trkpt>
            <trkpt lon="10.6272633333333" lat="47.4895833333333">
                <ele>1616.3</ele>
                <time>2009-08-25T13:07:59.000Z</time>
                <name>Position 5047</name>
            </trkpt>
            <trkpt lon="10.6272633333333" lat="47.4895866666667">
                <ele>1616.2</ele>
                <time>2009-08-25T13:08:02.000Z</time>
                <name>Position 5048</name>
            </trkpt>
            <trkpt lon="10.6272716666667" lat="47.4895883333333">
                <ele>1616.4</ele>
                <time>2009-08-25T13:08:05.000Z</time>
                <name>Position 5049</name>
            </trkpt>
            <trkpt lon="10.6272716666667" lat="47.489585">
                <ele>1616.5</ele>
                <time>2009-08-25T13:08:08.000Z</time>
                <name>Position 5050</name>
            </trkpt>
            <trkpt lon="10.6272716666667" lat="47.489585">
                <ele>1616.5</ele>
                <time>2009-08-25T13:08:11.000Z</time>
                <name>Position 5051</name>
            </trkpt>
            <trkpt lon="10.6272716666667" lat="47.489585">
                <ele>1616.5</ele>
                <time>2009-08-25T13:08:14.000Z</time>
                <name>Position 5052</name>
            </trkpt>
            <trkpt lon="10.627255" lat="47.48959">
                <ele>1616.8</ele>
                <time>2009-08-25T13:08:17.000Z</time>
                <name>Position 5053</name>
            </trkpt>
            <trkpt lon="10.6272333333333" lat="47.489595">
                <ele>1616.3</ele>
                <time>2009-08-25T13:08:20.000Z</time>
                <name>Position 5054</name>
            </trkpt>
            <trkpt lon="10.6272183333333" lat="47.4895866666667">
                <ele>1615.7</ele>
                <time>2009-08-25T13:08:23.000Z</time>
                <name>Position 5055</name>
            </trkpt>
            <trkpt lon="10.6271933333333" lat="47.4895783333333">
                <ele>1615.9</ele>
                <time>2009-08-25T13:08:26.000Z</time>
                <name>Position 5056</name>
            </trkpt>
            <trkpt lon="10.6271516666667" lat="47.4895683333333">
                <ele>1615.0</ele>
                <time>2009-08-25T13:08:29.000Z</time>
                <name>Position 5057</name>
            </trkpt>
            <trkpt lon="10.6271383333333" lat="47.489565">
                <ele>1614.7</ele>
                <time>2009-08-25T13:08:32.000Z</time>
                <name>Position 5058</name>
            </trkpt>
            <trkpt lon="10.627135" lat="47.4895633333333">
                <ele>1614.6</ele>
                <time>2009-08-25T13:08:35.000Z</time>
                <name>Position 5059</name>
            </trkpt>
            <trkpt lon="10.6271183333333" lat="47.489565">
                <ele>1614.3</ele>
                <time>2009-08-25T13:08:38.000Z</time>
                <name>Position 5060</name>
            </trkpt>
            <trkpt lon="10.6271316666667" lat="47.48954">
                <ele>1614.4</ele>
                <time>2009-08-25T13:08:41.000Z</time>
                <name>Position 5061</name>
            </trkpt>
            <trkpt lon="10.6271166666667" lat="47.489535">
                <ele>1614.3</ele>
                <time>2009-08-25T13:08:44.000Z</time>
                <name>Position 5062</name>
            </trkpt>
            <trkpt lon="10.6271066666667" lat="47.4895166666667">
                <ele>1613.8</ele>
                <time>2009-08-25T13:08:47.000Z</time>
                <name>Position 5063</name>
            </trkpt>
            <trkpt lon="10.627105" lat="47.48949">
                <ele>1613.7</ele>
                <time>2009-08-25T13:08:50.000Z</time>
                <name>Position 5064</name>
            </trkpt>
            <trkpt lon="10.627085" lat="47.4894766666667">
                <ele>1613.8</ele>
                <time>2009-08-25T13:08:53.000Z</time>
                <name>Position 5065</name>
            </trkpt>
            <trkpt lon="10.627045" lat="47.4894566666667">
                <ele>1613.5</ele>
                <time>2009-08-25T13:08:56.000Z</time>
                <name>Position 5066</name>
            </trkpt>
            <trkpt lon="10.6270266666667" lat="47.4894316666667">
                <ele>1613.5</ele>
                <time>2009-08-25T13:08:59.000Z</time>
                <name>Position 5067</name>
            </trkpt>
            <trkpt lon="10.6269683333333" lat="47.4894183333333">
                <ele>1613.1</ele>
                <time>2009-08-25T13:09:02.000Z</time>
                <name>Position 5068</name>
            </trkpt>
            <trkpt lon="10.62693" lat="47.4893983333333">
                <ele>1612.8</ele>
                <time>2009-08-25T13:09:05.000Z</time>
                <name>Position 5069</name>
            </trkpt>
            <trkpt lon="10.6269033333333" lat="47.4893816666667">
                <ele>1610.4</ele>
                <time>2009-08-25T13:09:08.000Z</time>
                <name>Position 5070</name>
            </trkpt>
            <trkpt lon="10.6269" lat="47.4893883333333">
                <ele>1608.4</ele>
                <time>2009-08-25T13:09:11.000Z</time>
                <name>Position 5071</name>
            </trkpt>
            <trkpt lon="10.6268933333333" lat="47.4893816666667">
                <ele>1607.2</ele>
                <time>2009-08-25T13:09:14.000Z</time>
                <name>Position 5072</name>
            </trkpt>
            <trkpt lon="10.6268683333333" lat="47.4893916666667">
                <ele>1604.7</ele>
                <time>2009-08-25T13:09:17.000Z</time>
                <name>Position 5073</name>
            </trkpt>
            <trkpt lon="10.6268466666667" lat="47.48938">
                <ele>1604.0</ele>
                <time>2009-08-25T13:09:20.000Z</time>
                <name>Position 5074</name>
            </trkpt>
            <trkpt lon="10.6268233333333" lat="47.4893566666667">
                <ele>1603.2</ele>
                <time>2009-08-25T13:09:23.000Z</time>
                <name>Position 5075</name>
            </trkpt>
            <trkpt lon="10.6268083333333" lat="47.48931">
                <ele>1603.6</ele>
                <time>2009-08-25T13:09:26.000Z</time>
                <name>Position 5076</name>
            </trkpt>
            <trkpt lon="10.62681" lat="47.4892983333333">
                <ele>1603.3</ele>
                <time>2009-08-25T13:09:29.000Z</time>
                <name>Position 5077</name>
            </trkpt>
            <trkpt lon="10.62681" lat="47.4893">
                <ele>1603.3</ele>
                <time>2009-08-25T13:09:32.000Z</time>
                <name>Position 5078</name>
            </trkpt>
            <trkpt lon="10.6268116666667" lat="47.4893016666667">
                <ele>1603.4</ele>
                <time>2009-08-25T13:09:35.000Z</time>
                <name>Position 5079</name>
            </trkpt>
            <trkpt lon="10.6268" lat="47.4892933333333">
                <ele>1603.0</ele>
                <time>2009-08-25T13:09:38.000Z</time>
                <name>Position 5080</name>
            </trkpt>
            <trkpt lon="10.62677" lat="47.48929">
                <ele>1601.5</ele>
                <time>2009-08-25T13:09:41.000Z</time>
                <name>Position 5081</name>
            </trkpt>
            <trkpt lon="10.6267466666667" lat="47.48929">
                <ele>1600.5</ele>
                <time>2009-08-25T13:09:44.000Z</time>
                <name>Position 5082</name>
            </trkpt>
            <trkpt lon="10.6267333333333" lat="47.48928">
                <ele>1601.0</ele>
                <time>2009-08-25T13:09:47.000Z</time>
                <name>Position 5083</name>
            </trkpt>
            <trkpt lon="10.626715" lat="47.4892716666667">
                <ele>1600.8</ele>
                <time>2009-08-25T13:09:50.000Z</time>
                <name>Position 5084</name>
            </trkpt>
            <trkpt lon="10.6266983333333" lat="47.4892566666667">
                <ele>1599.7</ele>
                <time>2009-08-25T13:09:53.000Z</time>
                <name>Position 5085</name>
            </trkpt>
            <trkpt lon="10.62668" lat="47.48925">
                <ele>1598.4</ele>
                <time>2009-08-25T13:09:56.000Z</time>
                <name>Position 5086</name>
            </trkpt>
            <trkpt lon="10.6266566666667" lat="47.48924">
                <ele>1597.9</ele>
                <time>2009-08-25T13:09:59.000Z</time>
                <name>Position 5087</name>
            </trkpt>
            <trkpt lon="10.6266466666667" lat="47.48922">
                <ele>1597.1</ele>
                <time>2009-08-25T13:10:02.000Z</time>
                <name>Position 5088</name>
            </trkpt>
            <trkpt lon="10.626645" lat="47.489225">
                <ele>1595.9</ele>
                <time>2009-08-25T13:10:05.000Z</time>
                <name>Position 5089</name>
            </trkpt>
            <trkpt lon="10.6266233333333" lat="47.4892233333333">
                <ele>1595.1</ele>
                <time>2009-08-25T13:10:08.000Z</time>
                <name>Position 5090</name>
            </trkpt>
            <trkpt lon="10.6265916666667" lat="47.4892216666667">
                <ele>1594.0</ele>
                <time>2009-08-25T13:10:11.000Z</time>
                <name>Position 5091</name>
            </trkpt>
            <trkpt lon="10.6265833333333" lat="47.489205">
                <ele>1593.0</ele>
                <time>2009-08-25T13:10:14.000Z</time>
                <name>Position 5092</name>
            </trkpt>
            <trkpt lon="10.6265783333333" lat="47.4891933333333">
                <ele>1591.9</ele>
                <time>2009-08-25T13:10:17.000Z</time>
                <name>Position 5093</name>
            </trkpt>
            <trkpt lon="10.626585" lat="47.4891866666667">
                <ele>1591.9</ele>
                <time>2009-08-25T13:10:20.000Z</time>
                <name>Position 5094</name>
            </trkpt>
            <trkpt lon="10.626585" lat="47.4891866666667">
                <ele>1591.7</ele>
                <time>2009-08-25T13:10:23.000Z</time>
                <name>Position 5095</name>
            </trkpt>
            <trkpt lon="10.6265866666667" lat="47.4891866666667">
                <ele>1591.6</ele>
                <time>2009-08-25T13:10:26.000Z</time>
                <name>Position 5096</name>
            </trkpt>
            <trkpt lon="10.6265916666667" lat="47.489185">
                <ele>1591.6</ele>
                <time>2009-08-25T13:10:29.000Z</time>
                <name>Position 5097</name>
            </trkpt>
            <trkpt lon="10.6265883333333" lat="47.489185">
                <ele>1591.6</ele>
                <time>2009-08-25T13:10:32.000Z</time>
                <name>Position 5098</name>
            </trkpt>
            <trkpt lon="10.6265866666667" lat="47.4891633333333">
                <ele>1590.9</ele>
                <time>2009-08-25T13:10:35.000Z</time>
                <name>Position 5099</name>
            </trkpt>
            <trkpt lon="10.6265833333333" lat="47.4891366666667">
                <ele>1589.7</ele>
                <time>2009-08-25T13:10:38.000Z</time>
                <name>Position 5100</name>
            </trkpt>
            <trkpt lon="10.6265766666667" lat="47.4891133333333">
                <ele>1588.3</ele>
                <time>2009-08-25T13:10:41.000Z</time>
                <name>Position 5101</name>
            </trkpt>
            <trkpt lon="10.6265816666667" lat="47.4890933333333">
                <ele>1587.1</ele>
                <time>2009-08-25T13:10:44.000Z</time>
                <name>Position 5102</name>
            </trkpt>
            <trkpt lon="10.6265816666667" lat="47.4890716666667">
                <ele>1585.3</ele>
                <time>2009-08-25T13:10:47.000Z</time>
                <name>Position 5103</name>
            </trkpt>
            <trkpt lon="10.626575" lat="47.4890616666667">
                <ele>1584.0</ele>
                <time>2009-08-25T13:10:50.000Z</time>
                <name>Position 5104</name>
            </trkpt>
            <trkpt lon="10.626555" lat="47.48905">
                <ele>1582.9</ele>
                <time>2009-08-25T13:10:53.000Z</time>
                <name>Position 5105</name>
            </trkpt>
            <trkpt lon="10.626535" lat="47.4890316666667">
                <ele>1582.7</ele>
                <time>2009-08-25T13:10:56.000Z</time>
                <name>Position 5106</name>
            </trkpt>
            <trkpt lon="10.6265133333333" lat="47.4890233333333">
                <ele>1581.4</ele>
                <time>2009-08-25T13:10:59.000Z</time>
                <name>Position 5107</name>
            </trkpt>
            <trkpt lon="10.6264916666667" lat="47.48902">
                <ele>1580.2</ele>
                <time>2009-08-25T13:11:02.000Z</time>
                <name>Position 5108</name>
            </trkpt>
            <trkpt lon="10.6264733333333" lat="47.4890066666667">
                <ele>1580.1</ele>
                <time>2009-08-25T13:11:05.000Z</time>
                <name>Position 5109</name>
            </trkpt>
            <trkpt lon="10.6264516666667" lat="47.4889966666667">
                <ele>1579.8</ele>
                <time>2009-08-25T13:11:08.000Z</time>
                <name>Position 5110</name>
            </trkpt>
            <trkpt lon="10.6264316666667" lat="47.4889816666667">
                <ele>1578.9</ele>
                <time>2009-08-25T13:11:11.000Z</time>
                <name>Position 5111</name>
            </trkpt>
            <trkpt lon="10.6264216666667" lat="47.48897">
                <ele>1577.7</ele>
                <time>2009-08-25T13:11:14.000Z</time>
                <name>Position 5112</name>
            </trkpt>
            <trkpt lon="10.6263983333333" lat="47.4889583333333">
                <ele>1576.6</ele>
                <time>2009-08-25T13:11:17.000Z</time>
                <name>Position 5113</name>
            </trkpt>
            <trkpt lon="10.626365" lat="47.488935">
                <ele>1576.6</ele>
                <time>2009-08-25T13:11:20.000Z</time>
                <name>Position 5114</name>
            </trkpt>
            <trkpt lon="10.6263416666667" lat="47.4889133333333">
                <ele>1576.6</ele>
                <time>2009-08-25T13:11:23.000Z</time>
                <name>Position 5115</name>
            </trkpt>
            <trkpt lon="10.6263283333333" lat="47.4888866666667">
                <ele>1575.9</ele>
                <time>2009-08-25T13:11:26.000Z</time>
                <name>Position 5116</name>
            </trkpt>
            <trkpt lon="10.6263" lat="47.48887">
                <ele>1575.9</ele>
                <time>2009-08-25T13:11:29.000Z</time>
                <name>Position 5117</name>
            </trkpt>
            <trkpt lon="10.6262666666667" lat="47.488855">
                <ele>1575.5</ele>
                <time>2009-08-25T13:11:32.000Z</time>
                <name>Position 5118</name>
            </trkpt>
            <trkpt lon="10.62623" lat="47.48883">
                <ele>1575.5</ele>
                <time>2009-08-25T13:11:35.000Z</time>
                <name>Position 5119</name>
            </trkpt>
            <trkpt lon="10.626205" lat="47.488825">
                <ele>1575.6</ele>
                <time>2009-08-25T13:11:38.000Z</time>
                <name>Position 5120</name>
            </trkpt>
            <trkpt lon="10.6261883333333" lat="47.48882">
                <ele>1575.3</ele>
                <time>2009-08-25T13:11:41.000Z</time>
                <name>Position 5121</name>
            </trkpt>
            <trkpt lon="10.62616" lat="47.488815">
                <ele>1575.0</ele>
                <time>2009-08-25T13:11:44.000Z</time>
                <name>Position 5122</name>
            </trkpt>
            <trkpt lon="10.62614" lat="47.4888">
                <ele>1575.2</ele>
                <time>2009-08-25T13:11:47.000Z</time>
                <name>Position 5123</name>
            </trkpt>
            <trkpt lon="10.6261166666667" lat="47.4887766666667">
                <ele>1574.9</ele>
                <time>2009-08-25T13:11:50.000Z</time>
                <name>Position 5124</name>
            </trkpt>
            <trkpt lon="10.6260983333333" lat="47.488755">
                <ele>1575.0</ele>
                <time>2009-08-25T13:11:53.000Z</time>
                <name>Position 5125</name>
            </trkpt>
            <trkpt lon="10.62606" lat="47.4887466666667">
                <ele>1574.0</ele>
                <time>2009-08-25T13:11:56.000Z</time>
                <name>Position 5126</name>
            </trkpt>
            <trkpt lon="10.626025" lat="47.4887416666667">
                <ele>1573.2</ele>
                <time>2009-08-25T13:11:59.000Z</time>
                <name>Position 5127</name>
            </trkpt>
            <trkpt lon="10.6260033333333" lat="47.488735">
                <ele>1573.3</ele>
                <time>2009-08-25T13:12:02.000Z</time>
                <name>Position 5128</name>
            </trkpt>
            <trkpt lon="10.6259816666667" lat="47.488725">
                <ele>1572.5</ele>
                <time>2009-08-25T13:12:05.000Z</time>
                <name>Position 5129</name>
            </trkpt>
            <trkpt lon="10.6259566666667" lat="47.4887183333333">
                <ele>1572.1</ele>
                <time>2009-08-25T13:12:08.000Z</time>
                <name>Position 5130</name>
            </trkpt>
            <trkpt lon="10.6259316666667" lat="47.4887166666667">
                <ele>1571.3</ele>
                <time>2009-08-25T13:12:11.000Z</time>
                <name>Position 5131</name>
            </trkpt>
            <trkpt lon="10.62589" lat="47.488715">
                <ele>1570.7</ele>
                <time>2009-08-25T13:12:14.000Z</time>
                <name>Position 5132</name>
            </trkpt>
            <trkpt lon="10.6258633333333" lat="47.488705">
                <ele>1569.9</ele>
                <time>2009-08-25T13:12:17.000Z</time>
                <name>Position 5133</name>
            </trkpt>
            <trkpt lon="10.6258433333333" lat="47.4886916666667">
                <ele>1569.8</ele>
                <time>2009-08-25T13:12:20.000Z</time>
                <name>Position 5134</name>
            </trkpt>
            <trkpt lon="10.6258133333333" lat="47.4886916666667">
                <ele>1570.0</ele>
                <time>2009-08-25T13:12:23.000Z</time>
                <name>Position 5135</name>
            </trkpt>
            <trkpt lon="10.625785" lat="47.4886833333333">
                <ele>1569.8</ele>
                <time>2009-08-25T13:12:26.000Z</time>
                <name>Position 5136</name>
            </trkpt>
            <trkpt lon="10.62575" lat="47.4886933333333">
                <ele>1569.6</ele>
                <time>2009-08-25T13:12:29.000Z</time>
                <name>Position 5137</name>
            </trkpt>
            <trkpt lon="10.6257033333333" lat="47.4886766666667">
                <ele>1567.6</ele>
                <time>2009-08-25T13:12:32.000Z</time>
                <name>Position 5138</name>
            </trkpt>
            <trkpt lon="10.6256866666667" lat="47.4886616666667">
                <ele>1567.0</ele>
                <time>2009-08-25T13:12:35.000Z</time>
                <name>Position 5139</name>
            </trkpt>
            <trkpt lon="10.6256683333333" lat="47.4886483333333">
                <ele>1566.7</ele>
                <time>2009-08-25T13:12:38.000Z</time>
                <name>Position 5140</name>
            </trkpt>
            <trkpt lon="10.6256566666667" lat="47.4886316666667">
                <ele>1566.4</ele>
                <time>2009-08-25T13:12:41.000Z</time>
                <name>Position 5141</name>
            </trkpt>
            <trkpt lon="10.6256416666667" lat="47.48862">
                <ele>1566.1</ele>
                <time>2009-08-25T13:12:44.000Z</time>
                <name>Position 5142</name>
            </trkpt>
            <trkpt lon="10.6256233333333" lat="47.4886116666667">
                <ele>1565.8</ele>
                <time>2009-08-25T13:12:47.000Z</time>
                <name>Position 5143</name>
            </trkpt>
            <trkpt lon="10.6256" lat="47.4886066666667">
                <ele>1565.5</ele>
                <time>2009-08-25T13:12:50.000Z</time>
                <name>Position 5144</name>
            </trkpt>
            <trkpt lon="10.6255916666667" lat="47.4885933333333">
                <ele>1565.1</ele>
                <time>2009-08-25T13:12:53.000Z</time>
                <name>Position 5145</name>
            </trkpt>
            <trkpt lon="10.6255683333333" lat="47.488575">
                <ele>1564.7</ele>
                <time>2009-08-25T13:12:56.000Z</time>
                <name>Position 5146</name>
            </trkpt>
            <trkpt lon="10.6255583333333" lat="47.4885583333333">
                <ele>1564.1</ele>
                <time>2009-08-25T13:12:59.000Z</time>
                <name>Position 5147</name>
            </trkpt>
            <trkpt lon="10.6255433333333" lat="47.4885466666667">
                <ele>1563.5</ele>
                <time>2009-08-25T13:13:02.000Z</time>
                <name>Position 5148</name>
            </trkpt>
            <trkpt lon="10.6255333333333" lat="47.4885366666667">
                <ele>1563.1</ele>
                <time>2009-08-25T13:13:05.000Z</time>
                <name>Position 5149</name>
            </trkpt>
            <trkpt lon="10.6255183333333" lat="47.488515">
                <ele>1562.8</ele>
                <time>2009-08-25T13:13:08.000Z</time>
                <name>Position 5150</name>
            </trkpt>
            <trkpt lon="10.6255216666667" lat="47.4884916666667">
                <ele>1562.3</ele>
                <time>2009-08-25T13:13:11.000Z</time>
                <name>Position 5151</name>
            </trkpt>
            <trkpt lon="10.6255166666667" lat="47.4884883333333">
                <ele>1561.5</ele>
                <time>2009-08-25T13:13:14.000Z</time>
                <name>Position 5152</name>
            </trkpt>
            <trkpt lon="10.6255016666667" lat="47.488485">
                <ele>1560.8</ele>
                <time>2009-08-25T13:13:17.000Z</time>
                <name>Position 5153</name>
            </trkpt>
            <trkpt lon="10.6254816666667" lat="47.4884733333333">
                <ele>1559.9</ele>
                <time>2009-08-25T13:13:20.000Z</time>
                <name>Position 5154</name>
            </trkpt>
            <trkpt lon="10.6254583333333" lat="47.4884716666667">
                <ele>1559.6</ele>
                <time>2009-08-25T13:13:23.000Z</time>
                <name>Position 5155</name>
            </trkpt>
            <trkpt lon="10.6254366666667" lat="47.4884766666667">
                <ele>1559.0</ele>
                <time>2009-08-25T13:13:26.000Z</time>
                <name>Position 5156</name>
            </trkpt>
            <trkpt lon="10.6254083333333" lat="47.4884866666667">
                <ele>1558.6</ele>
                <time>2009-08-25T13:13:29.000Z</time>
                <name>Position 5157</name>
            </trkpt>
            <trkpt lon="10.6253883333333" lat="47.4884983333333">
                <ele>1557.8</ele>
                <time>2009-08-25T13:13:32.000Z</time>
                <name>Position 5158</name>
            </trkpt>
            <trkpt lon="10.6253483333333" lat="47.4884966666667">
                <ele>1557.1</ele>
                <time>2009-08-25T13:13:35.000Z</time>
                <name>Position 5159</name>
            </trkpt>
            <trkpt lon="10.625335" lat="47.4884783333333">
                <ele>1556.2</ele>
                <time>2009-08-25T13:13:38.000Z</time>
                <name>Position 5160</name>
            </trkpt>
            <trkpt lon="10.625335" lat="47.4884633333333">
                <ele>1555.2</ele>
                <time>2009-08-25T13:13:41.000Z</time>
                <name>Position 5161</name>
            </trkpt>
            <trkpt lon="10.6253383333333" lat="47.4884566666667">
                <ele>1554.3</ele>
                <time>2009-08-25T13:13:44.000Z</time>
                <name>Position 5162</name>
            </trkpt>
            <trkpt lon="10.6253383333333" lat="47.488455">
                <ele>1553.0</ele>
                <time>2009-08-25T13:13:47.000Z</time>
                <name>Position 5163</name>
            </trkpt>
            <trkpt lon="10.6253316666667" lat="47.48845">
                <ele>1552.0</ele>
                <time>2009-08-25T13:13:50.000Z</time>
                <name>Position 5164</name>
            </trkpt>
            <trkpt lon="10.6253366666667" lat="47.488455">
                <ele>1551.0</ele>
                <time>2009-08-25T13:13:53.000Z</time>
                <name>Position 5165</name>
            </trkpt>
            <trkpt lon="10.6253233333333" lat="47.488455">
                <ele>1550.6</ele>
                <time>2009-08-25T13:13:56.000Z</time>
                <name>Position 5166</name>
            </trkpt>
            <trkpt lon="10.625305" lat="47.4884583333333">
                <ele>1549.3</ele>
                <time>2009-08-25T13:13:59.000Z</time>
                <name>Position 5167</name>
            </trkpt>
            <trkpt lon="10.6253166666667" lat="47.4884433333333">
                <ele>1548.1</ele>
                <time>2009-08-25T13:14:02.000Z</time>
                <name>Position 5168</name>
            </trkpt>
            <trkpt lon="10.6253116666667" lat="47.4884283333333">
                <ele>1547.9</ele>
                <time>2009-08-25T13:14:05.000Z</time>
                <name>Position 5169</name>
            </trkpt>
            <trkpt lon="10.6253133333333" lat="47.4884233333333">
                <ele>1546.9</ele>
                <time>2009-08-25T13:14:08.000Z</time>
                <name>Position 5170</name>
            </trkpt>
            <trkpt lon="10.6253166666667" lat="47.4884183333333">
                <ele>1546.6</ele>
                <time>2009-08-25T13:14:11.000Z</time>
                <name>Position 5171</name>
            </trkpt>
            <trkpt lon="10.625325" lat="47.4884133333333">
                <ele>1546.6</ele>
                <time>2009-08-25T13:14:14.000Z</time>
                <name>Position 5172</name>
            </trkpt>
            <trkpt lon="10.6253383333333" lat="47.4884016666667">
                <ele>1546.6</ele>
                <time>2009-08-25T13:14:17.000Z</time>
                <name>Position 5173</name>
            </trkpt>
            <trkpt lon="10.6253316666667" lat="47.4883933333333">
                <ele>1546.5</ele>
                <time>2009-08-25T13:14:20.000Z</time>
                <name>Position 5174</name>
            </trkpt>
            <trkpt lon="10.625325" lat="47.4883916666667">
                <ele>1546.7</ele>
                <time>2009-08-25T13:14:23.000Z</time>
                <name>Position 5175</name>
            </trkpt>
            <trkpt lon="10.6253083333333" lat="47.488375">
                <ele>1547.6</ele>
                <time>2009-08-25T13:14:26.000Z</time>
                <name>Position 5176</name>
            </trkpt>
            <trkpt lon="10.6252983333333" lat="47.4883583333333">
                <ele>1548.4</ele>
                <time>2009-08-25T13:14:29.000Z</time>
                <name>Position 5177</name>
            </trkpt>
            <trkpt lon="10.62529" lat="47.488355">
                <ele>1548.3</ele>
                <time>2009-08-25T13:14:32.000Z</time>
                <name>Position 5178</name>
            </trkpt>
            <trkpt lon="10.62525" lat="47.48835">
                <ele>1547.9</ele>
                <time>2009-08-25T13:14:35.000Z</time>
                <name>Position 5179</name>
            </trkpt>
            <trkpt lon="10.625225" lat="47.4883583333333">
                <ele>1546.4</ele>
                <time>2009-08-25T13:14:38.000Z</time>
                <name>Position 5180</name>
            </trkpt>
            <trkpt lon="10.6252033333333" lat="47.4883666666667">
                <ele>1545.5</ele>
                <time>2009-08-25T13:14:41.000Z</time>
                <name>Position 5181</name>
            </trkpt>
            <trkpt lon="10.625185" lat="47.4883766666667">
                <ele>1545.2</ele>
                <time>2009-08-25T13:14:44.000Z</time>
                <name>Position 5182</name>
            </trkpt>
            <trkpt lon="10.6251716666667" lat="47.488385">
                <ele>1544.7</ele>
                <time>2009-08-25T13:14:47.000Z</time>
                <name>Position 5183</name>
            </trkpt>
            <trkpt lon="10.6251566666667" lat="47.4883883333333">
                <ele>1545.4</ele>
                <time>2009-08-25T13:14:50.000Z</time>
                <name>Position 5184</name>
            </trkpt>
            <trkpt lon="10.6251533333333" lat="47.4883983333333">
                <ele>1545.4</ele>
                <time>2009-08-25T13:14:53.000Z</time>
                <name>Position 5185</name>
            </trkpt>
            <trkpt lon="10.625155" lat="47.4884033333333">
                <ele>1545.9</ele>
                <time>2009-08-25T13:14:56.000Z</time>
                <name>Position 5186</name>
            </trkpt>
            <trkpt lon="10.6251483333333" lat="47.4884033333333">
                <ele>1546.2</ele>
                <time>2009-08-25T13:14:59.000Z</time>
                <name>Position 5187</name>
            </trkpt>
            <trkpt lon="10.6251316666667" lat="47.48842">
                <ele>1546.1</ele>
                <time>2009-08-25T13:15:02.000Z</time>
                <name>Position 5188</name>
            </trkpt>
            <trkpt lon="10.6251266666667" lat="47.4884383333333">
                <ele>1545.9</ele>
                <time>2009-08-25T13:15:05.000Z</time>
                <name>Position 5189</name>
            </trkpt>
            <trkpt lon="10.6251116666667" lat="47.488445">
                <ele>1545.6</ele>
                <time>2009-08-25T13:15:08.000Z</time>
                <name>Position 5190</name>
            </trkpt>
            <trkpt lon="10.6250966666667" lat="47.4884366666667">
                <ele>1545.7</ele>
                <time>2009-08-25T13:15:11.000Z</time>
                <name>Position 5191</name>
            </trkpt>
            <trkpt lon="10.62508" lat="47.488435">
                <ele>1545.4</ele>
                <time>2009-08-25T13:15:14.000Z</time>
                <name>Position 5192</name>
            </trkpt>
            <trkpt lon="10.6250633333333" lat="47.4884383333333">
                <ele>1545.3</ele>
                <time>2009-08-25T13:15:17.000Z</time>
                <name>Position 5193</name>
            </trkpt>
            <trkpt lon="10.62505" lat="47.488435">
                <ele>1546.1</ele>
                <time>2009-08-25T13:15:20.000Z</time>
                <name>Position 5194</name>
            </trkpt>
            <trkpt lon="10.6250366666667" lat="47.4884183333333">
                <ele>1545.0</ele>
                <time>2009-08-25T13:15:23.000Z</time>
                <name>Position 5195</name>
            </trkpt>
            <trkpt lon="10.6250283333333" lat="47.4884083333333">
                <ele>1544.1</ele>
                <time>2009-08-25T13:15:26.000Z</time>
                <name>Position 5196</name>
            </trkpt>
            <trkpt lon="10.6250333333333" lat="47.4883816666667">
                <ele>1543.4</ele>
                <time>2009-08-25T13:15:29.000Z</time>
                <name>Position 5197</name>
            </trkpt>
            <trkpt lon="10.6250366666667" lat="47.4883733333333">
                <ele>1543.1</ele>
                <time>2009-08-25T13:15:32.000Z</time>
                <name>Position 5198</name>
            </trkpt>
            <trkpt lon="10.625035" lat="47.48837">
                <ele>1543.0</ele>
                <time>2009-08-25T13:15:35.000Z</time>
                <name>Position 5199</name>
            </trkpt>
            <trkpt lon="10.62504" lat="47.4883683333333">
                <ele>1542.9</ele>
                <time>2009-08-25T13:15:38.000Z</time>
                <name>Position 5200</name>
            </trkpt>
            <trkpt lon="10.6250366666667" lat="47.4883766666667">
                <ele>1542.7</ele>
                <time>2009-08-25T13:15:41.000Z</time>
                <name>Position 5201</name>
            </trkpt>
            <trkpt lon="10.6250316666667" lat="47.4883766666667">
                <ele>1542.7</ele>
                <time>2009-08-25T13:15:44.000Z</time>
                <name>Position 5202</name>
            </trkpt>
            <trkpt lon="10.6250383333333" lat="47.4883716666667">
                <ele>1542.7</ele>
                <time>2009-08-25T13:15:47.000Z</time>
                <name>Position 5203</name>
            </trkpt>
            <trkpt lon="10.6250366666667" lat="47.4883866666667">
                <ele>1542.7</ele>
                <time>2009-08-25T13:15:50.000Z</time>
                <name>Position 5204</name>
            </trkpt>
            <trkpt lon="10.6250233333333" lat="47.488365">
                <ele>1542.7</ele>
                <time>2009-08-25T13:15:53.000Z</time>
                <name>Position 5205</name>
            </trkpt>
            <trkpt lon="10.6250216666667" lat="47.48834">
                <ele>1542.4</ele>
                <time>2009-08-25T13:15:56.000Z</time>
                <name>Position 5206</name>
            </trkpt>
            <trkpt lon="10.6250316666667" lat="47.48833">
                <ele>1542.1</ele>
                <time>2009-08-25T13:15:59.000Z</time>
                <name>Position 5207</name>
            </trkpt>
            <trkpt lon="10.6250416666667" lat="47.488305">
                <ele>1542.1</ele>
                <time>2009-08-25T13:16:02.000Z</time>
                <name>Position 5208</name>
            </trkpt>
            <trkpt lon="10.62504" lat="47.488265">
                <ele>1542.4</ele>
                <time>2009-08-25T13:16:05.000Z</time>
                <name>Position 5209</name>
            </trkpt>
            <trkpt lon="10.625065" lat="47.4882483333333">
                <ele>1542.3</ele>
                <time>2009-08-25T13:16:08.000Z</time>
                <name>Position 5210</name>
            </trkpt>
            <trkpt lon="10.6250933333333" lat="47.488215">
                <ele>1542.3</ele>
                <time>2009-08-25T13:16:11.000Z</time>
                <name>Position 5211</name>
            </trkpt>
            <trkpt lon="10.6251083333333" lat="47.48821">
                <ele>1541.5</ele>
                <time>2009-08-25T13:16:14.000Z</time>
                <name>Position 5212</name>
            </trkpt>
            <trkpt lon="10.6250966666667" lat="47.4882016666667">
                <ele>1541.0</ele>
                <time>2009-08-25T13:16:17.000Z</time>
                <name>Position 5213</name>
            </trkpt>
            <trkpt lon="10.6251" lat="47.4881766666667">
                <ele>1540.0</ele>
                <time>2009-08-25T13:16:20.000Z</time>
                <name>Position 5214</name>
            </trkpt>
            <trkpt lon="10.6250916666667" lat="47.4881716666667">
                <ele>1539.7</ele>
                <time>2009-08-25T13:16:23.000Z</time>
                <name>Position 5215</name>
            </trkpt>
            <trkpt lon="10.6251016666667" lat="47.4881516666667">
                <ele>1539.0</ele>
                <time>2009-08-25T13:16:26.000Z</time>
                <name>Position 5216</name>
            </trkpt>
            <trkpt lon="10.625105" lat="47.4881366666667">
                <ele>1539.0</ele>
                <time>2009-08-25T13:16:29.000Z</time>
                <name>Position 5217</name>
            </trkpt>
            <trkpt lon="10.6250766666667" lat="47.4881333333333">
                <ele>1538.8</ele>
                <time>2009-08-25T13:16:32.000Z</time>
                <name>Position 5218</name>
            </trkpt>
            <trkpt lon="10.6250616666667" lat="47.4881266666667">
                <ele>1538.5</ele>
                <time>2009-08-25T13:16:35.000Z</time>
                <name>Position 5219</name>
            </trkpt>
            <trkpt lon="10.62503" lat="47.488135">
                <ele>1538.1</ele>
                <time>2009-08-25T13:16:38.000Z</time>
                <name>Position 5220</name>
            </trkpt>
            <trkpt lon="10.6250116666667" lat="47.4881466666667">
                <ele>1537.9</ele>
                <time>2009-08-25T13:16:41.000Z</time>
                <name>Position 5221</name>
            </trkpt>
            <trkpt lon="10.6249733333333" lat="47.4881516666667">
                <ele>1538.0</ele>
                <time>2009-08-25T13:16:44.000Z</time>
                <name>Position 5222</name>
            </trkpt>
            <trkpt lon="10.6249283333333" lat="47.4881416666667">
                <ele>1538.2</ele>
                <time>2009-08-25T13:16:47.000Z</time>
                <name>Position 5223</name>
            </trkpt>
            <trkpt lon="10.6249133333333" lat="47.4881566666667">
                <ele>1536.9</ele>
                <time>2009-08-25T13:16:50.000Z</time>
                <name>Position 5224</name>
            </trkpt>
            <trkpt lon="10.6249016666667" lat="47.4881616666667">
                <ele>1536.3</ele>
                <time>2009-08-25T13:16:53.000Z</time>
                <name>Position 5225</name>
            </trkpt>
            <trkpt lon="10.6248816666667" lat="47.4881616666667">
                <ele>1535.6</ele>
                <time>2009-08-25T13:16:56.000Z</time>
                <name>Position 5226</name>
            </trkpt>
            <trkpt lon="10.6248583333333" lat="47.48816">
                <ele>1535.0</ele>
                <time>2009-08-25T13:16:59.000Z</time>
                <name>Position 5227</name>
            </trkpt>
            <trkpt lon="10.6248516666667" lat="47.4881683333333">
                <ele>1535.0</ele>
                <time>2009-08-25T13:17:02.000Z</time>
                <name>Position 5228</name>
            </trkpt>
            <trkpt lon="10.6248366666667" lat="47.4881683333333">
                <ele>1534.8</ele>
                <time>2009-08-25T13:17:05.000Z</time>
                <name>Position 5229</name>
            </trkpt>
            <trkpt lon="10.6248233333333" lat="47.4881733333333">
                <ele>1534.2</ele>
                <time>2009-08-25T13:17:08.000Z</time>
                <name>Position 5230</name>
            </trkpt>
            <trkpt lon="10.6248216666667" lat="47.4881783333333">
                <ele>1534.2</ele>
                <time>2009-08-25T13:17:11.000Z</time>
                <name>Position 5231</name>
            </trkpt>
            <trkpt lon="10.6248166666667" lat="47.4881866666667">
                <ele>1533.6</ele>
                <time>2009-08-25T13:17:14.000Z</time>
                <name>Position 5232</name>
            </trkpt>
            <trkpt lon="10.624815" lat="47.488185">
                <ele>1533.5</ele>
                <time>2009-08-25T13:17:17.000Z</time>
                <name>Position 5233</name>
            </trkpt>
            <trkpt lon="10.6248133333333" lat="47.4881866666667">
                <ele>1533.3</ele>
                <time>2009-08-25T13:17:20.000Z</time>
                <name>Position 5234</name>
            </trkpt>
            <trkpt lon="10.6247716666667" lat="47.4881916666667">
                <ele>1533.0</ele>
                <time>2009-08-25T13:17:23.000Z</time>
                <name>Position 5235</name>
            </trkpt>
            <trkpt lon="10.624745" lat="47.4882">
                <ele>1532.4</ele>
                <time>2009-08-25T13:17:26.000Z</time>
                <name>Position 5236</name>
            </trkpt>
            <trkpt lon="10.6247216666667" lat="47.488205">
                <ele>1532.1</ele>
                <time>2009-08-25T13:17:29.000Z</time>
                <name>Position 5237</name>
            </trkpt>
            <trkpt lon="10.6247" lat="47.488215">
                <ele>1531.7</ele>
                <time>2009-08-25T13:17:32.000Z</time>
                <name>Position 5238</name>
            </trkpt>
            <trkpt lon="10.6246883333333" lat="47.4882233333333">
                <ele>1531.4</ele>
                <time>2009-08-25T13:17:35.000Z</time>
                <name>Position 5239</name>
            </trkpt>
            <trkpt lon="10.6246783333333" lat="47.488225">
                <ele>1531.1</ele>
                <time>2009-08-25T13:17:38.000Z</time>
                <name>Position 5240</name>
            </trkpt>
            <trkpt lon="10.62465" lat="47.488215">
                <ele>1529.7</ele>
                <time>2009-08-25T13:17:41.000Z</time>
                <name>Position 5241</name>
            </trkpt>
            <trkpt lon="10.624635" lat="47.4881966666667">
                <ele>1528.2</ele>
                <time>2009-08-25T13:17:44.000Z</time>
                <name>Position 5242</name>
            </trkpt>
            <trkpt lon="10.62463" lat="47.4881783333333">
                <ele>1527.1</ele>
                <time>2009-08-25T13:17:47.000Z</time>
                <name>Position 5243</name>
            </trkpt>
            <trkpt lon="10.624625" lat="47.4881683333333">
                <ele>1525.8</ele>
                <time>2009-08-25T13:17:50.000Z</time>
                <name>Position 5244</name>
            </trkpt>
            <trkpt lon="10.6246216666667" lat="47.488155">
                <ele>1525.5</ele>
                <time>2009-08-25T13:17:53.000Z</time>
                <name>Position 5245</name>
            </trkpt>
            <trkpt lon="10.624615" lat="47.488145">
                <ele>1524.8</ele>
                <time>2009-08-25T13:17:56.000Z</time>
                <name>Position 5246</name>
            </trkpt>
            <trkpt lon="10.624615" lat="47.4881433333333">
                <ele>1523.9</ele>
                <time>2009-08-25T13:17:59.000Z</time>
                <name>Position 5247</name>
            </trkpt>
            <trkpt lon="10.6246033333333" lat="47.4881383333333">
                <ele>1523.3</ele>
                <time>2009-08-25T13:18:02.000Z</time>
                <name>Position 5248</name>
            </trkpt>
            <trkpt lon="10.6246033333333" lat="47.4881266666667">
                <ele>1522.7</ele>
                <time>2009-08-25T13:18:05.000Z</time>
                <name>Position 5249</name>
            </trkpt>
            <trkpt lon="10.6246083333333" lat="47.4881016666667">
                <ele>1522.4</ele>
                <time>2009-08-25T13:18:08.000Z</time>
                <name>Position 5250</name>
            </trkpt>
            <trkpt lon="10.6246" lat="47.4880866666667">
                <ele>1521.9</ele>
                <time>2009-08-25T13:18:11.000Z</time>
                <name>Position 5251</name>
            </trkpt>
            <trkpt lon="10.6245816666667" lat="47.4880766666667">
                <ele>1521.6</ele>
                <time>2009-08-25T13:18:14.000Z</time>
                <name>Position 5252</name>
            </trkpt>
            <trkpt lon="10.624575" lat="47.48806">
                <ele>1521.3</ele>
                <time>2009-08-25T13:18:17.000Z</time>
                <name>Position 5253</name>
            </trkpt>
            <trkpt lon="10.62458" lat="47.4880583333333">
                <ele>1521.1</ele>
                <time>2009-08-25T13:18:20.000Z</time>
                <name>Position 5254</name>
            </trkpt>
            <trkpt lon="10.6245783333333" lat="47.488065">
                <ele>1520.7</ele>
                <time>2009-08-25T13:18:23.000Z</time>
                <name>Position 5255</name>
            </trkpt>
            <trkpt lon="10.6245833333333" lat="47.4880566666667">
                <ele>1520.4</ele>
                <time>2009-08-25T13:18:26.000Z</time>
                <name>Position 5256</name>
            </trkpt>
            <trkpt lon="10.6245816666667" lat="47.4880483333333">
                <ele>1520.2</ele>
                <time>2009-08-25T13:18:29.000Z</time>
                <name>Position 5257</name>
            </trkpt>
            <trkpt lon="10.6245733333333" lat="47.4880416666667">
                <ele>1520.1</ele>
                <time>2009-08-25T13:18:32.000Z</time>
                <name>Position 5258</name>
            </trkpt>
            <trkpt lon="10.62458" lat="47.4880333333333">
                <ele>1520.1</ele>
                <time>2009-08-25T13:18:35.000Z</time>
                <name>Position 5259</name>
            </trkpt>
            <trkpt lon="10.6245866666667" lat="47.4880266666667">
                <ele>1520.1</ele>
                <time>2009-08-25T13:18:38.000Z</time>
                <name>Position 5260</name>
            </trkpt>
            <trkpt lon="10.6246066666667" lat="47.4880133333333">
                <ele>1520.0</ele>
                <time>2009-08-25T13:18:41.000Z</time>
                <name>Position 5261</name>
            </trkpt>
            <trkpt lon="10.6246066666667" lat="47.4880066666667">
                <ele>1520.2</ele>
                <time>2009-08-25T13:18:44.000Z</time>
                <name>Position 5262</name>
            </trkpt>
            <trkpt lon="10.6246016666667" lat="47.4879966666667">
                <ele>1520.1</ele>
                <time>2009-08-25T13:18:47.000Z</time>
                <name>Position 5263</name>
            </trkpt>
            <trkpt lon="10.6246033333333" lat="47.48799">
                <ele>1520.0</ele>
                <time>2009-08-25T13:18:50.000Z</time>
                <name>Position 5264</name>
            </trkpt>
            <trkpt lon="10.62459" lat="47.48797">
                <ele>1520.0</ele>
                <time>2009-08-25T13:18:53.000Z</time>
                <name>Position 5265</name>
            </trkpt>
            <trkpt lon="10.6245633333333" lat="47.4879716666667">
                <ele>1519.7</ele>
                <time>2009-08-25T13:18:56.000Z</time>
                <name>Position 5266</name>
            </trkpt>
            <trkpt lon="10.6245533333333" lat="47.4879783333333">
                <ele>1519.7</ele>
                <time>2009-08-25T13:18:59.000Z</time>
                <name>Position 5267</name>
            </trkpt>
            <trkpt lon="10.6245533333333" lat="47.4879766666667">
                <ele>1519.7</ele>
                <time>2009-08-25T13:19:02.000Z</time>
                <name>Position 5268</name>
            </trkpt>
            <trkpt lon="10.6245333333333" lat="47.48797">
                <ele>1519.6</ele>
                <time>2009-08-25T13:19:05.000Z</time>
                <name>Position 5269</name>
            </trkpt>
            <trkpt lon="10.6245283333333" lat="47.4879716666667">
                <ele>1519.6</ele>
                <time>2009-08-25T13:19:08.000Z</time>
                <name>Position 5270</name>
            </trkpt>
            <trkpt lon="10.624535" lat="47.487985">
                <ele>1519.6</ele>
                <time>2009-08-25T13:19:11.000Z</time>
                <name>Position 5271</name>
            </trkpt>
            <trkpt lon="10.6245333333333" lat="47.4879816666667">
                <ele>1519.5</ele>
                <time>2009-08-25T13:19:14.000Z</time>
                <name>Position 5272</name>
            </trkpt>
            <trkpt lon="10.6245333333333" lat="47.48797">
                <ele>1519.5</ele>
                <time>2009-08-25T13:19:17.000Z</time>
                <name>Position 5273</name>
            </trkpt>
            <trkpt lon="10.62453" lat="47.48796">
                <ele>1519.4</ele>
                <time>2009-08-25T13:19:20.000Z</time>
                <name>Position 5274</name>
            </trkpt>
            <trkpt lon="10.62452" lat="47.4879583333333">
                <ele>1519.4</ele>
                <time>2009-08-25T13:19:23.000Z</time>
                <name>Position 5275</name>
            </trkpt>
            <trkpt lon="10.624515" lat="47.48795">
                <ele>1519.4</ele>
                <time>2009-08-25T13:19:26.000Z</time>
                <name>Position 5276</name>
            </trkpt>
            <trkpt lon="10.6245" lat="47.487935">
                <ele>1519.4</ele>
                <time>2009-08-25T13:19:29.000Z</time>
                <name>Position 5277</name>
            </trkpt>
            <trkpt lon="10.62449" lat="47.4879183333333">
                <ele>1519.4</ele>
                <time>2009-08-25T13:19:32.000Z</time>
                <name>Position 5278</name>
            </trkpt>
            <trkpt lon="10.62447" lat="47.4879083333333">
                <ele>1519.2</ele>
                <time>2009-08-25T13:19:35.000Z</time>
                <name>Position 5279</name>
            </trkpt>
            <trkpt lon="10.62445" lat="47.4879066666667">
                <ele>1519.1</ele>
                <time>2009-08-25T13:19:38.000Z</time>
                <name>Position 5280</name>
            </trkpt>
            <trkpt lon="10.6244483333333" lat="47.4878633333333">
                <ele>1519.1</ele>
                <time>2009-08-25T13:19:41.000Z</time>
                <name>Position 5281</name>
            </trkpt>
            <trkpt lon="10.6244433333333" lat="47.4878266666667">
                <ele>1519.1</ele>
                <time>2009-08-25T13:19:44.000Z</time>
                <name>Position 5282</name>
            </trkpt>
            <trkpt lon="10.6244583333333" lat="47.4878033333333">
                <ele>1518.9</ele>
                <time>2009-08-25T13:19:47.000Z</time>
                <name>Position 5283</name>
            </trkpt>
            <trkpt lon="10.6244633333333" lat="47.4877883333333">
                <ele>1519.1</ele>
                <time>2009-08-25T13:19:50.000Z</time>
                <name>Position 5284</name>
            </trkpt>
            <trkpt lon="10.6244533333333" lat="47.4877766666667">
                <ele>1519.0</ele>
                <time>2009-08-25T13:19:53.000Z</time>
                <name>Position 5285</name>
            </trkpt>
            <trkpt lon="10.6244533333333" lat="47.4877716666667">
                <ele>1518.8</ele>
                <time>2009-08-25T13:19:56.000Z</time>
                <name>Position 5286</name>
            </trkpt>
            <trkpt lon="10.624475" lat="47.48775">
                <ele>1518.4</ele>
                <time>2009-08-25T13:19:59.000Z</time>
                <name>Position 5287</name>
            </trkpt>
            <trkpt lon="10.6244983333333" lat="47.4877433333333">
                <ele>1518.0</ele>
                <time>2009-08-25T13:20:02.000Z</time>
                <name>Position 5288</name>
            </trkpt>
            <trkpt lon="10.6244883333333" lat="47.4877433333333">
                <ele>1518.4</ele>
                <time>2009-08-25T13:20:05.000Z</time>
                <name>Position 5289</name>
            </trkpt>
            <trkpt lon="10.6244766666667" lat="47.4877266666667">
                <ele>1518.4</ele>
                <time>2009-08-25T13:20:08.000Z</time>
                <name>Position 5290</name>
            </trkpt>
            <trkpt lon="10.62446" lat="47.4877316666667">
                <ele>1518.6</ele>
                <time>2009-08-25T13:20:11.000Z</time>
                <name>Position 5291</name>
            </trkpt>
            <trkpt lon="10.62445" lat="47.4877366666667">
                <ele>1518.6</ele>
                <time>2009-08-25T13:20:14.000Z</time>
                <name>Position 5292</name>
            </trkpt>
            <trkpt lon="10.62445" lat="47.4877466666667">
                <ele>1518.6</ele>
                <time>2009-08-25T13:20:17.000Z</time>
                <name>Position 5293</name>
            </trkpt>
            <trkpt lon="10.62446" lat="47.4877466666667">
                <ele>1518.6</ele>
                <time>2009-08-25T13:20:20.000Z</time>
                <name>Position 5294</name>
            </trkpt>
            <trkpt lon="10.6244166666667" lat="47.487735">
                <ele>1518.6</ele>
                <time>2009-08-25T13:20:23.000Z</time>
                <name>Position 5295</name>
            </trkpt>
            <trkpt lon="10.62438" lat="47.4877466666667">
                <ele>1518.5</ele>
                <time>2009-08-25T13:20:26.000Z</time>
                <name>Position 5296</name>
            </trkpt>
            <trkpt lon="10.6243766666667" lat="47.4877416666667">
                <ele>1518.4</ele>
                <time>2009-08-25T13:20:29.000Z</time>
                <name>Position 5297</name>
            </trkpt>
            <trkpt lon="10.6243516666667" lat="47.4877316666667">
                <ele>1518.3</ele>
                <time>2009-08-25T13:20:32.000Z</time>
                <name>Position 5298</name>
            </trkpt>
            <trkpt lon="10.6243483333333" lat="47.4877133333333">
                <ele>1518.5</ele>
                <time>2009-08-25T13:20:35.000Z</time>
                <name>Position 5299</name>
            </trkpt>
            <trkpt lon="10.62432" lat="47.4877233333333">
                <ele>1518.7</ele>
                <time>2009-08-25T13:20:38.000Z</time>
                <name>Position 5300</name>
            </trkpt>
            <trkpt lon="10.6243" lat="47.4877266666667">
                <ele>1519.3</ele>
                <time>2009-08-25T13:20:41.000Z</time>
                <name>Position 5301</name>
            </trkpt>
            <trkpt lon="10.624285" lat="47.487735">
                <ele>1519.4</ele>
                <time>2009-08-25T13:20:44.000Z</time>
                <name>Position 5302</name>
            </trkpt>
            <trkpt lon="10.6242783333333" lat="47.4877383333333">
                <ele>1519.5</ele>
                <time>2009-08-25T13:20:47.000Z</time>
                <name>Position 5303</name>
            </trkpt>
            <trkpt lon="10.6242283333333" lat="47.4877466666667">
                <ele>1519.5</ele>
                <time>2009-08-25T13:20:50.000Z</time>
                <name>Position 5304</name>
            </trkpt>
            <trkpt lon="10.624225" lat="47.487735">
                <ele>1519.6</ele>
                <time>2009-08-25T13:20:53.000Z</time>
                <name>Position 5305</name>
            </trkpt>
            <trkpt lon="10.6241866666667" lat="47.4877133333333">
                <ele>1520.0</ele>
                <time>2009-08-25T13:20:56.000Z</time>
                <name>Position 5306</name>
            </trkpt>
            <trkpt lon="10.6241683333333" lat="47.4877133333333">
                <ele>1521.8</ele>
                <time>2009-08-25T13:20:59.000Z</time>
                <name>Position 5307</name>
            </trkpt>
            <trkpt lon="10.62416" lat="47.487715">
                <ele>1522.5</ele>
                <time>2009-08-25T13:21:02.000Z</time>
                <name>Position 5308</name>
            </trkpt>
            <trkpt lon="10.62416" lat="47.48772">
                <ele>1522.3</ele>
                <time>2009-08-25T13:21:05.000Z</time>
                <name>Position 5309</name>
            </trkpt>
            <trkpt lon="10.6241433333333" lat="47.48773">
                <ele>1522.2</ele>
                <time>2009-08-25T13:21:08.000Z</time>
                <name>Position 5310</name>
            </trkpt>
            <trkpt lon="10.6241316666667" lat="47.4877283333333">
                <ele>1522.2</ele>
                <time>2009-08-25T13:21:11.000Z</time>
                <name>Position 5311</name>
            </trkpt>
            <trkpt lon="10.6241133333333" lat="47.4877166666667">
                <ele>1522.1</ele>
                <time>2009-08-25T13:21:14.000Z</time>
                <name>Position 5312</name>
            </trkpt>
            <trkpt lon="10.6241016666667" lat="47.4877066666667">
                <ele>1522.2</ele>
                <time>2009-08-25T13:21:17.000Z</time>
                <name>Position 5313</name>
            </trkpt>
            <trkpt lon="10.6240916666667" lat="47.4876866666667">
                <ele>1522.1</ele>
                <time>2009-08-25T13:21:20.000Z</time>
                <name>Position 5314</name>
            </trkpt>
            <trkpt lon="10.6240733333333" lat="47.4876783333333">
                <ele>1522.4</ele>
                <time>2009-08-25T13:21:23.000Z</time>
                <name>Position 5315</name>
            </trkpt>
            <trkpt lon="10.62406" lat="47.48766">
                <ele>1522.1</ele>
                <time>2009-08-25T13:21:26.000Z</time>
                <name>Position 5316</name>
            </trkpt>
            <trkpt lon="10.6240616666667" lat="47.4876566666667">
                <ele>1522.3</ele>
                <time>2009-08-25T13:21:29.000Z</time>
                <name>Position 5317</name>
            </trkpt>
            <trkpt lon="10.624055" lat="47.4876583333333">
                <ele>1522.2</ele>
                <time>2009-08-25T13:21:32.000Z</time>
                <name>Position 5318</name>
            </trkpt>
            <trkpt lon="10.6240616666667" lat="47.48765">
                <ele>1522.1</ele>
                <time>2009-08-25T13:21:35.000Z</time>
                <name>Position 5319</name>
            </trkpt>
            <trkpt lon="10.6240583333333" lat="47.4876483333333">
                <ele>1522.2</ele>
                <time>2009-08-25T13:21:38.000Z</time>
                <name>Position 5320</name>
            </trkpt>
            <trkpt lon="10.62407" lat="47.4876416666667">
                <ele>1522.0</ele>
                <time>2009-08-25T13:21:41.000Z</time>
                <name>Position 5321</name>
            </trkpt>
            <trkpt lon="10.6240683333333" lat="47.4876266666667">
                <ele>1522.2</ele>
                <time>2009-08-25T13:21:44.000Z</time>
                <name>Position 5322</name>
            </trkpt>
            <trkpt lon="10.6240866666667" lat="47.4876083333333">
                <ele>1521.3</ele>
                <time>2009-08-25T13:21:47.000Z</time>
                <name>Position 5323</name>
            </trkpt>
            <trkpt lon="10.62406" lat="47.4875966666667">
                <ele>1521.4</ele>
                <time>2009-08-25T13:21:50.000Z</time>
                <name>Position 5324</name>
            </trkpt>
            <trkpt lon="10.6240433333333" lat="47.4875983333333">
                <ele>1521.5</ele>
                <time>2009-08-25T13:21:53.000Z</time>
                <name>Position 5325</name>
            </trkpt>
            <trkpt lon="10.6240133333333" lat="47.4876016666667">
                <ele>1521.9</ele>
                <time>2009-08-25T13:21:56.000Z</time>
                <name>Position 5326</name>
            </trkpt>
            <trkpt lon="10.62402" lat="47.4876033333333">
                <ele>1521.6</ele>
                <time>2009-08-25T13:21:59.000Z</time>
                <name>Position 5327</name>
            </trkpt>
            <trkpt lon="10.6240083333333" lat="47.487605">
                <ele>1521.4</ele>
                <time>2009-08-25T13:22:02.000Z</time>
                <name>Position 5328</name>
            </trkpt>
            <trkpt lon="10.6240083333333" lat="47.4876">
                <ele>1521.3</ele>
                <time>2009-08-25T13:22:05.000Z</time>
                <name>Position 5329</name>
            </trkpt>
            <trkpt lon="10.6240016666667" lat="47.4876066666667">
                <ele>1521.3</ele>
                <time>2009-08-25T13:22:08.000Z</time>
                <name>Position 5330</name>
            </trkpt>
            <trkpt lon="10.623965" lat="47.4876083333333">
                <ele>1521.1</ele>
                <time>2009-08-25T13:22:11.000Z</time>
                <name>Position 5331</name>
            </trkpt>
            <trkpt lon="10.6239416666667" lat="47.4876083333333">
                <ele>1520.9</ele>
                <time>2009-08-25T13:22:14.000Z</time>
                <name>Position 5332</name>
            </trkpt>
            <trkpt lon="10.62393" lat="47.48761">
                <ele>1520.3</ele>
                <time>2009-08-25T13:22:17.000Z</time>
                <name>Position 5333</name>
            </trkpt>
            <trkpt lon="10.6239266666667" lat="47.4875866666667">
                <ele>1519.0</ele>
                <time>2009-08-25T13:22:20.000Z</time>
                <name>Position 5334</name>
            </trkpt>
            <trkpt lon="10.6239533333333" lat="47.4875866666667">
                <ele>1518.6</ele>
                <time>2009-08-25T13:22:23.000Z</time>
                <name>Position 5335</name>
            </trkpt>
            <trkpt lon="10.6239666666667" lat="47.487575">
                <ele>1518.3</ele>
                <time>2009-08-25T13:22:26.000Z</time>
                <name>Position 5336</name>
            </trkpt>
            <trkpt lon="10.62395" lat="47.48757">
                <ele>1518.1</ele>
                <time>2009-08-25T13:22:29.000Z</time>
                <name>Position 5337</name>
            </trkpt>
            <trkpt lon="10.6239366666667" lat="47.4875616666667">
                <ele>1517.8</ele>
                <time>2009-08-25T13:22:32.000Z</time>
                <name>Position 5338</name>
            </trkpt>
            <trkpt lon="10.62394" lat="47.487545">
                <ele>1517.6</ele>
                <time>2009-08-25T13:22:35.000Z</time>
                <name>Position 5339</name>
            </trkpt>
            <trkpt lon="10.6239366666667" lat="47.48754">
                <ele>1517.4</ele>
                <time>2009-08-25T13:22:38.000Z</time>
                <name>Position 5340</name>
            </trkpt>
            <trkpt lon="10.6239416666667" lat="47.48751">
                <ele>1517.3</ele>
                <time>2009-08-25T13:22:41.000Z</time>
                <name>Position 5341</name>
            </trkpt>
            <trkpt lon="10.62393" lat="47.4874633333333">
                <ele>1516.9</ele>
                <time>2009-08-25T13:22:44.000Z</time>
                <name>Position 5342</name>
            </trkpt>
            <trkpt lon="10.6239133333333" lat="47.487465">
                <ele>1516.8</ele>
                <time>2009-08-25T13:22:47.000Z</time>
                <name>Position 5343</name>
            </trkpt>
            <trkpt lon="10.6239083333333" lat="47.4874466666667">
                <ele>1516.6</ele>
                <time>2009-08-25T13:22:50.000Z</time>
                <name>Position 5344</name>
            </trkpt>
            <trkpt lon="10.6238966666667" lat="47.4874433333333">
                <ele>1516.4</ele>
                <time>2009-08-25T13:22:53.000Z</time>
                <name>Position 5345</name>
            </trkpt>
            <trkpt lon="10.6238833333333" lat="47.4874216666667">
                <ele>1516.3</ele>
                <time>2009-08-25T13:22:56.000Z</time>
                <name>Position 5346</name>
            </trkpt>
            <trkpt lon="10.6238733333333" lat="47.4874066666667">
                <ele>1516.2</ele>
                <time>2009-08-25T13:22:59.000Z</time>
                <name>Position 5347</name>
            </trkpt>
            <trkpt lon="10.62387" lat="47.4873983333333">
                <ele>1516.1</ele>
                <time>2009-08-25T13:23:02.000Z</time>
                <name>Position 5348</name>
            </trkpt>
            <trkpt lon="10.6238416666667" lat="47.4873883333333">
                <ele>1515.9</ele>
                <time>2009-08-25T13:23:05.000Z</time>
                <name>Position 5349</name>
            </trkpt>
            <trkpt lon="10.6238116666667" lat="47.48739">
                <ele>1516.0</ele>
                <time>2009-08-25T13:23:08.000Z</time>
                <name>Position 5350</name>
            </trkpt>
            <trkpt lon="10.6238116666667" lat="47.4873883333333">
                <ele>1516.1</ele>
                <time>2009-08-25T13:23:11.000Z</time>
                <name>Position 5351</name>
            </trkpt>
            <trkpt lon="10.6238216666667" lat="47.48738">
                <ele>1516.1</ele>
                <time>2009-08-25T13:23:14.000Z</time>
                <name>Position 5352</name>
            </trkpt>
            <trkpt lon="10.62383" lat="47.4873366666667">
                <ele>1516.6</ele>
                <time>2009-08-25T13:23:17.000Z</time>
                <name>Position 5353</name>
            </trkpt>
            <trkpt lon="10.6238333333333" lat="47.4873016666667">
                <ele>1517.1</ele>
                <time>2009-08-25T13:23:20.000Z</time>
                <name>Position 5354</name>
            </trkpt>
            <trkpt lon="10.6238183333333" lat="47.48728">
                <ele>1517.4</ele>
                <time>2009-08-25T13:23:23.000Z</time>
                <name>Position 5355</name>
            </trkpt>
            <trkpt lon="10.623825" lat="47.4872733333333">
                <ele>1517.1</ele>
                <time>2009-08-25T13:23:26.000Z</time>
                <name>Position 5356</name>
            </trkpt>
            <trkpt lon="10.6238283333333" lat="47.4872583333333">
                <ele>1516.7</ele>
                <time>2009-08-25T13:23:29.000Z</time>
                <name>Position 5357</name>
            </trkpt>
            <trkpt lon="10.62384" lat="47.4872316666667">
                <ele>1516.5</ele>
                <time>2009-08-25T13:23:32.000Z</time>
                <name>Position 5358</name>
            </trkpt>
            <trkpt lon="10.6238533333333" lat="47.4872233333333">
                <ele>1516.1</ele>
                <time>2009-08-25T13:23:35.000Z</time>
                <name>Position 5359</name>
            </trkpt>
            <trkpt lon="10.6238616666667" lat="47.487225">
                <ele>1516.0</ele>
                <time>2009-08-25T13:23:38.000Z</time>
                <name>Position 5360</name>
            </trkpt>
            <trkpt lon="10.6238766666667" lat="47.487225">
                <ele>1516.0</ele>
                <time>2009-08-25T13:23:41.000Z</time>
                <name>Position 5361</name>
            </trkpt>
            <trkpt lon="10.6238716666667" lat="47.4872166666667">
                <ele>1516.1</ele>
                <time>2009-08-25T13:23:44.000Z</time>
                <name>Position 5362</name>
            </trkpt>
            <trkpt lon="10.6238616666667" lat="47.4872066666667">
                <ele>1515.9</ele>
                <time>2009-08-25T13:23:47.000Z</time>
                <name>Position 5363</name>
            </trkpt>
            <trkpt lon="10.6238483333333" lat="47.4872083333333">
                <ele>1515.3</ele>
                <time>2009-08-25T13:23:50.000Z</time>
                <name>Position 5364</name>
            </trkpt>
            <trkpt lon="10.62385" lat="47.4871983333333">
                <ele>1514.4</ele>
                <time>2009-08-25T13:23:53.000Z</time>
                <name>Position 5365</name>
            </trkpt>
            <trkpt lon="10.6238566666667" lat="47.48719">
                <ele>1514.2</ele>
                <time>2009-08-25T13:23:56.000Z</time>
                <name>Position 5366</name>
            </trkpt>
            <trkpt lon="10.6238416666667" lat="47.4871666666667">
                <ele>1514.1</ele>
                <time>2009-08-25T13:23:59.000Z</time>
                <name>Position 5367</name>
            </trkpt>
            <trkpt lon="10.62385" lat="47.4871583333333">
                <ele>1513.3</ele>
                <time>2009-08-25T13:24:02.000Z</time>
                <name>Position 5368</name>
            </trkpt>
            <trkpt lon="10.623875" lat="47.4871683333333">
                <ele>1512.1</ele>
                <time>2009-08-25T13:24:05.000Z</time>
                <name>Position 5369</name>
            </trkpt>
            <trkpt lon="10.6238683333333" lat="47.4871483333333">
                <ele>1511.3</ele>
                <time>2009-08-25T13:24:08.000Z</time>
                <name>Position 5370</name>
            </trkpt>
            <trkpt lon="10.623845" lat="47.4871466666667">
                <ele>1510.8</ele>
                <time>2009-08-25T13:24:11.000Z</time>
                <name>Position 5371</name>
            </trkpt>
            <trkpt lon="10.6238333333333" lat="47.4871233333333">
                <ele>1510.6</ele>
                <time>2009-08-25T13:24:14.000Z</time>
                <name>Position 5372</name>
            </trkpt>
            <trkpt lon="10.6238266666667" lat="47.4871083333333">
                <ele>1510.7</ele>
                <time>2009-08-25T13:24:17.000Z</time>
                <name>Position 5373</name>
            </trkpt>
            <trkpt lon="10.62382" lat="47.48709">
                <ele>1510.0</ele>
                <time>2009-08-25T13:24:20.000Z</time>
                <name>Position 5374</name>
            </trkpt>
            <trkpt lon="10.6238416666667" lat="47.487075">
                <ele>1509.6</ele>
                <time>2009-08-25T13:24:23.000Z</time>
                <name>Position 5375</name>
            </trkpt>
            <trkpt lon="10.6238833333333" lat="47.487055">
                <ele>1509.7</ele>
                <time>2009-08-25T13:24:26.000Z</time>
                <name>Position 5376</name>
            </trkpt>
            <trkpt lon="10.6239116666667" lat="47.4870433333333">
                <ele>1507.8</ele>
                <time>2009-08-25T13:24:29.000Z</time>
                <name>Position 5377</name>
            </trkpt>
            <trkpt lon="10.6239366666667" lat="47.4870366666667">
                <ele>1506.8</ele>
                <time>2009-08-25T13:24:32.000Z</time>
                <name>Position 5378</name>
            </trkpt>
            <trkpt lon="10.6239433333333" lat="47.4870283333333">
                <ele>1506.4</ele>
                <time>2009-08-25T13:24:35.000Z</time>
                <name>Position 5379</name>
            </trkpt>
            <trkpt lon="10.6239816666667" lat="47.487025">
                <ele>1505.2</ele>
                <time>2009-08-25T13:24:38.000Z</time>
                <name>Position 5380</name>
            </trkpt>
            <trkpt lon="10.62398" lat="47.4870233333333">
                <ele>1505.0</ele>
                <time>2009-08-25T13:24:41.000Z</time>
                <name>Position 5381</name>
            </trkpt>
            <trkpt lon="10.6240083333333" lat="47.4870133333333">
                <ele>1503.9</ele>
                <time>2009-08-25T13:24:44.000Z</time>
                <name>Position 5382</name>
            </trkpt>
            <trkpt lon="10.624035" lat="47.487005">
                <ele>1502.0</ele>
                <time>2009-08-25T13:24:47.000Z</time>
                <name>Position 5383</name>
            </trkpt>
            <trkpt lon="10.624075" lat="47.4870116666667">
                <ele>1500.2</ele>
                <time>2009-08-25T13:24:50.000Z</time>
                <name>Position 5384</name>
            </trkpt>
            <trkpt lon="10.62409" lat="47.4870133333333">
                <ele>1498.1</ele>
                <time>2009-08-25T13:24:53.000Z</time>
                <name>Position 5385</name>
            </trkpt>
            <trkpt lon="10.6240933333333" lat="47.487005">
                <ele>1497.1</ele>
                <time>2009-08-25T13:24:56.000Z</time>
                <name>Position 5386</name>
            </trkpt>
            <trkpt lon="10.6241233333333" lat="47.4870016666667">
                <ele>1495.3</ele>
                <time>2009-08-25T13:24:59.000Z</time>
                <name>Position 5387</name>
            </trkpt>
            <trkpt lon="10.6241683333333" lat="47.4870016666667">
                <ele>1493.3</ele>
                <time>2009-08-25T13:25:02.000Z</time>
                <name>Position 5388</name>
            </trkpt>
            <trkpt lon="10.624185" lat="47.4870033333333">
                <ele>1492.4</ele>
                <time>2009-08-25T13:25:05.000Z</time>
                <name>Position 5389</name>
            </trkpt>
            <trkpt lon="10.6241783333333" lat="47.4870066666667">
                <ele>1492.2</ele>
                <time>2009-08-25T13:25:08.000Z</time>
                <name>Position 5390</name>
            </trkpt>
            <trkpt lon="10.6241866666667" lat="47.487005">
                <ele>1491.8</ele>
                <time>2009-08-25T13:25:11.000Z</time>
                <name>Position 5391</name>
            </trkpt>
            <trkpt lon="10.6242033333333" lat="47.4870066666667">
                <ele>1491.2</ele>
                <time>2009-08-25T13:25:14.000Z</time>
                <name>Position 5392</name>
            </trkpt>
            <trkpt lon="10.624205" lat="47.4869983333333">
                <ele>1489.8</ele>
                <time>2009-08-25T13:25:17.000Z</time>
                <name>Position 5393</name>
            </trkpt>
            <trkpt lon="10.6242133333333" lat="47.4870033333333">
                <ele>1489.0</ele>
                <time>2009-08-25T13:25:20.000Z</time>
                <name>Position 5394</name>
            </trkpt>
            <trkpt lon="10.6242133333333" lat="47.4869966666667">
                <ele>1488.4</ele>
                <time>2009-08-25T13:25:23.000Z</time>
                <name>Position 5395</name>
            </trkpt>
            <trkpt lon="10.62421" lat="47.486995">
                <ele>1487.5</ele>
                <time>2009-08-25T13:25:26.000Z</time>
                <name>Position 5396</name>
            </trkpt>
            <trkpt lon="10.6242266666667" lat="47.4869883333333">
                <ele>1487.1</ele>
                <time>2009-08-25T13:25:29.000Z</time>
                <name>Position 5397</name>
            </trkpt>
            <trkpt lon="10.62422" lat="47.48699">
                <ele>1486.6</ele>
                <time>2009-08-25T13:25:32.000Z</time>
                <name>Position 5398</name>
            </trkpt>
            <trkpt lon="10.624225" lat="47.4869833333333">
                <ele>1485.8</ele>
                <time>2009-08-25T13:25:35.000Z</time>
                <name>Position 5399</name>
            </trkpt>
            <trkpt lon="10.6242666666667" lat="47.4869733333333">
                <ele>1484.8</ele>
                <time>2009-08-25T13:25:38.000Z</time>
                <name>Position 5400</name>
            </trkpt>
            <trkpt lon="10.6243183333333" lat="47.4869616666667">
                <ele>1482.4</ele>
                <time>2009-08-25T13:25:41.000Z</time>
                <name>Position 5401</name>
            </trkpt>
            <trkpt lon="10.62435" lat="47.4869533333333">
                <ele>1481.8</ele>
                <time>2009-08-25T13:25:44.000Z</time>
                <name>Position 5402</name>
            </trkpt>
            <trkpt lon="10.624355" lat="47.4869483333333">
                <ele>1481.5</ele>
                <time>2009-08-25T13:25:47.000Z</time>
                <name>Position 5403</name>
            </trkpt>
            <trkpt lon="10.624365" lat="47.4869516666667">
                <ele>1480.9</ele>
                <time>2009-08-25T13:25:50.000Z</time>
                <name>Position 5404</name>
            </trkpt>
            <trkpt lon="10.6243566666667" lat="47.4869433333333">
                <ele>1480.2</ele>
                <time>2009-08-25T13:25:53.000Z</time>
                <name>Position 5405</name>
            </trkpt>
            <trkpt lon="10.62439" lat="47.486945">
                <ele>1477.8</ele>
                <time>2009-08-25T13:25:56.000Z</time>
                <name>Position 5406</name>
            </trkpt>
            <trkpt lon="10.624435" lat="47.48696">
                <ele>1475.5</ele>
                <time>2009-08-25T13:25:59.000Z</time>
                <name>Position 5407</name>
            </trkpt>
            <trkpt lon="10.6244516666667" lat="47.4869683333333">
                <ele>1474.7</ele>
                <time>2009-08-25T13:26:02.000Z</time>
                <name>Position 5408</name>
            </trkpt>
            <trkpt lon="10.62447" lat="47.4869566666667">
                <ele>1472.4</ele>
                <time>2009-08-25T13:26:05.000Z</time>
                <name>Position 5409</name>
            </trkpt>
            <trkpt lon="10.6244383333333" lat="47.48695">
                <ele>1469.8</ele>
                <time>2009-08-25T13:26:08.000Z</time>
                <name>Position 5410</name>
            </trkpt>
            <trkpt lon="10.624425" lat="47.4869183333333">
                <ele>1467.7</ele>
                <time>2009-08-25T13:26:11.000Z</time>
                <name>Position 5411</name>
            </trkpt>
            <trkpt lon="10.6244366666667" lat="47.4869216666667">
                <ele>1463.8</ele>
                <time>2009-08-25T13:26:14.000Z</time>
                <name>Position 5412</name>
            </trkpt>
            <trkpt lon="10.6244183333333" lat="47.4868916666667">
                <ele>1463.8</ele>
                <time>2009-08-25T13:26:17.000Z</time>
                <name>Position 5413</name>
            </trkpt>
            <trkpt lon="10.62442" lat="47.4868716666667">
                <ele>1462.6</ele>
                <time>2009-08-25T13:26:20.000Z</time>
                <name>Position 5414</name>
            </trkpt>
            <trkpt lon="10.624405" lat="47.4868616666667">
                <ele>1461.7</ele>
                <time>2009-08-25T13:26:23.000Z</time>
                <name>Position 5415</name>
            </trkpt>
            <trkpt lon="10.6243983333333" lat="47.4868616666667">
                <ele>1460.1</ele>
                <time>2009-08-25T13:26:26.000Z</time>
                <name>Position 5416</name>
            </trkpt>
            <trkpt lon="10.624375" lat="47.4868633333333">
                <ele>1457.7</ele>
                <time>2009-08-25T13:26:29.000Z</time>
                <name>Position 5417</name>
            </trkpt>
            <trkpt lon="10.6243283333333" lat="47.48685">
                <ele>1456.0</ele>
                <time>2009-08-25T13:26:32.000Z</time>
                <name>Position 5418</name>
            </trkpt>
            <trkpt lon="10.6243116666667" lat="47.48686">
                <ele>1454.5</ele>
                <time>2009-08-25T13:26:35.000Z</time>
                <name>Position 5419</name>
            </trkpt>
            <trkpt lon="10.6243116666667" lat="47.48686">
                <ele>1454.6</ele>
                <time>2009-08-25T13:26:38.000Z</time>
                <name>Position 5420</name>
            </trkpt>
            <trkpt lon="10.62431" lat="47.4868583333333">
                <ele>1454.6</ele>
                <time>2009-08-25T13:26:41.000Z</time>
                <name>Position 5421</name>
            </trkpt>
            <trkpt lon="10.62431" lat="47.4868583333333">
                <ele>1454.6</ele>
                <time>2009-08-25T13:26:44.000Z</time>
                <name>Position 5422</name>
            </trkpt>
            <trkpt lon="10.62431" lat="47.4868583333333">
                <ele>1454.5</ele>
                <time>2009-08-25T13:26:47.000Z</time>
                <name>Position 5423</name>
            </trkpt>
            <trkpt lon="10.62431" lat="47.48686">
                <ele>1454.5</ele>
                <time>2009-08-25T13:26:50.000Z</time>
                <name>Position 5424</name>
            </trkpt>
            <trkpt lon="10.62431" lat="47.48686">
                <ele>1454.4</ele>
                <time>2009-08-25T13:26:53.000Z</time>
                <name>Position 5425</name>
            </trkpt>
            <trkpt lon="10.6243083333333" lat="47.4868583333333">
                <ele>1454.4</ele>
                <time>2009-08-25T13:26:56.000Z</time>
                <name>Position 5426</name>
            </trkpt>
            <trkpt lon="10.6243083333333" lat="47.4868583333333">
                <ele>1454.4</ele>
                <time>2009-08-25T13:26:59.000Z</time>
                <name>Position 5427</name>
            </trkpt>
            <trkpt lon="10.6243083333333" lat="47.48686">
                <ele>1454.4</ele>
                <time>2009-08-25T13:27:02.000Z</time>
                <name>Position 5428</name>
            </trkpt>
            <trkpt lon="10.6243016666667" lat="47.4868633333333">
                <ele>1454.5</ele>
                <time>2009-08-25T13:27:05.000Z</time>
                <name>Position 5429</name>
            </trkpt>
            <trkpt lon="10.6242933333333" lat="47.4868633333333">
                <ele>1453.3</ele>
                <time>2009-08-25T13:27:08.000Z</time>
                <name>Position 5430</name>
            </trkpt>
            <trkpt lon="10.6242733333333" lat="47.4868666666667">
                <ele>1452.8</ele>
                <time>2009-08-25T13:27:11.000Z</time>
                <name>Position 5431</name>
            </trkpt>
            <trkpt lon="10.62424" lat="47.4868666666667">
                <ele>1452.0</ele>
                <time>2009-08-25T13:27:14.000Z</time>
                <name>Position 5432</name>
            </trkpt>
            <trkpt lon="10.6242" lat="47.4868766666667">
                <ele>1449.4</ele>
                <time>2009-08-25T13:27:17.000Z</time>
                <name>Position 5433</name>
            </trkpt>
            <trkpt lon="10.6241866666667" lat="47.4868666666667">
                <ele>1448.0</ele>
                <time>2009-08-25T13:27:20.000Z</time>
                <name>Position 5434</name>
            </trkpt>
            <trkpt lon="10.6241533333333" lat="47.4868566666667">
                <ele>1446.3</ele>
                <time>2009-08-25T13:27:23.000Z</time>
                <name>Position 5435</name>
            </trkpt>
            <trkpt lon="10.6241216666667" lat="47.4868466666667">
                <ele>1445.3</ele>
                <time>2009-08-25T13:27:26.000Z</time>
                <name>Position 5436</name>
            </trkpt>
            <trkpt lon="10.6241083333333" lat="47.4868483333333">
                <ele>1445.3</ele>
                <time>2009-08-25T13:27:29.000Z</time>
                <name>Position 5437</name>
            </trkpt>
            <trkpt lon="10.6240816666667" lat="47.4868483333333">
                <ele>1444.3</ele>
                <time>2009-08-25T13:27:32.000Z</time>
                <name>Position 5438</name>
            </trkpt>
            <trkpt lon="10.6240533333333" lat="47.4868433333333">
                <ele>1443.3</ele>
                <time>2009-08-25T13:27:35.000Z</time>
                <name>Position 5439</name>
            </trkpt>
            <trkpt lon="10.6240333333333" lat="47.4868383333333">
                <ele>1442.8</ele>
                <time>2009-08-25T13:27:38.000Z</time>
                <name>Position 5440</name>
            </trkpt>
            <trkpt lon="10.6240166666667" lat="47.486825">
                <ele>1441.9</ele>
                <time>2009-08-25T13:27:41.000Z</time>
                <name>Position 5441</name>
            </trkpt>
            <trkpt lon="10.62399" lat="47.4868183333333">
                <ele>1440.7</ele>
                <time>2009-08-25T13:27:44.000Z</time>
                <name>Position 5442</name>
            </trkpt>
            <trkpt lon="10.62398" lat="47.4868133333333">
                <ele>1440.2</ele>
                <time>2009-08-25T13:27:47.000Z</time>
                <name>Position 5443</name>
            </trkpt>
            <trkpt lon="10.6239516666667" lat="47.4868216666667">
                <ele>1439.8</ele>
                <time>2009-08-25T13:27:50.000Z</time>
                <name>Position 5444</name>
            </trkpt>
            <trkpt lon="10.62394" lat="47.4868">
                <ele>1440.3</ele>
                <time>2009-08-25T13:27:53.000Z</time>
                <name>Position 5445</name>
            </trkpt>
            <trkpt lon="10.6239183333333" lat="47.486785">
                <ele>1440.1</ele>
                <time>2009-08-25T13:27:56.000Z</time>
                <name>Position 5446</name>
            </trkpt>
            <trkpt lon="10.6238883333333" lat="47.4867716666667">
                <ele>1439.9</ele>
                <time>2009-08-25T13:27:59.000Z</time>
                <name>Position 5447</name>
            </trkpt>
            <trkpt lon="10.6238616666667" lat="47.4867483333333">
                <ele>1439.7</ele>
                <time>2009-08-25T13:28:02.000Z</time>
                <name>Position 5448</name>
            </trkpt>
            <trkpt lon="10.6238333333333" lat="47.4867383333333">
                <ele>1440.0</ele>
                <time>2009-08-25T13:28:05.000Z</time>
                <name>Position 5449</name>
            </trkpt>
            <trkpt lon="10.6238216666667" lat="47.4867283333333">
                <ele>1440.4</ele>
                <time>2009-08-25T13:28:08.000Z</time>
                <name>Position 5450</name>
            </trkpt>
            <trkpt lon="10.6238" lat="47.4867166666667">
                <ele>1440.5</ele>
                <time>2009-08-25T13:28:11.000Z</time>
                <name>Position 5451</name>
            </trkpt>
            <trkpt lon="10.6237916666667" lat="47.4867066666667">
                <ele>1441.1</ele>
                <time>2009-08-25T13:28:14.000Z</time>
                <name>Position 5452</name>
            </trkpt>
            <trkpt lon="10.623765" lat="47.4867066666667">
                <ele>1441.7</ele>
                <time>2009-08-25T13:28:17.000Z</time>
                <name>Position 5453</name>
            </trkpt>
            <trkpt lon="10.6237416666667" lat="47.486685">
                <ele>1442.3</ele>
                <time>2009-08-25T13:28:20.000Z</time>
                <name>Position 5454</name>
            </trkpt>
            <trkpt lon="10.6236933333333" lat="47.48665">
                <ele>1443.2</ele>
                <time>2009-08-25T13:28:23.000Z</time>
                <name>Position 5455</name>
            </trkpt>
            <trkpt lon="10.6236733333333" lat="47.4866516666667">
                <ele>1442.3</ele>
                <time>2009-08-25T13:28:26.000Z</time>
                <name>Position 5456</name>
            </trkpt>
            <trkpt lon="10.6236683333333" lat="47.4866533333333">
                <ele>1442.0</ele>
                <time>2009-08-25T13:28:29.000Z</time>
                <name>Position 5457</name>
            </trkpt>
            <trkpt lon="10.6236366666667" lat="47.48665">
                <ele>1441.3</ele>
                <time>2009-08-25T13:28:32.000Z</time>
                <name>Position 5458</name>
            </trkpt>
            <trkpt lon="10.6236" lat="47.4866483333333">
                <ele>1440.7</ele>
                <time>2009-08-25T13:28:35.000Z</time>
                <name>Position 5459</name>
            </trkpt>
            <trkpt lon="10.62358" lat="47.486645">
                <ele>1441.5</ele>
                <time>2009-08-25T13:28:38.000Z</time>
                <name>Position 5460</name>
            </trkpt>
            <trkpt lon="10.6235733333333" lat="47.4866266666667">
                <ele>1441.8</ele>
                <time>2009-08-25T13:28:41.000Z</time>
                <name>Position 5461</name>
            </trkpt>
            <trkpt lon="10.6235366666667" lat="47.4866183333333">
                <ele>1441.9</ele>
                <time>2009-08-25T13:28:44.000Z</time>
                <name>Position 5462</name>
            </trkpt>
            <trkpt lon="10.6235266666667" lat="47.48662">
                <ele>1441.8</ele>
                <time>2009-08-25T13:28:47.000Z</time>
                <name>Position 5463</name>
            </trkpt>
            <trkpt lon="10.6235066666667" lat="47.4866233333333">
                <ele>1441.6</ele>
                <time>2009-08-25T13:28:50.000Z</time>
                <name>Position 5464</name>
            </trkpt>
            <trkpt lon="10.623475" lat="47.48662">
                <ele>1441.4</ele>
                <time>2009-08-25T13:28:53.000Z</time>
                <name>Position 5465</name>
            </trkpt>
            <trkpt lon="10.623455" lat="47.48662">
                <ele>1440.8</ele>
                <time>2009-08-25T13:28:56.000Z</time>
                <name>Position 5466</name>
            </trkpt>
            <trkpt lon="10.623435" lat="47.4866033333333">
                <ele>1440.0</ele>
                <time>2009-08-25T13:28:59.000Z</time>
                <name>Position 5467</name>
            </trkpt>
            <trkpt lon="10.623435" lat="47.4865883333333">
                <ele>1438.7</ele>
                <time>2009-08-25T13:29:02.000Z</time>
                <name>Position 5468</name>
            </trkpt>
            <trkpt lon="10.623445" lat="47.4865683333333">
                <ele>1437.7</ele>
                <time>2009-08-25T13:29:05.000Z</time>
                <name>Position 5469</name>
            </trkpt>
            <trkpt lon="10.62345" lat="47.48655">
                <ele>1435.7</ele>
                <time>2009-08-25T13:29:08.000Z</time>
                <name>Position 5470</name>
            </trkpt>
            <trkpt lon="10.6234566666667" lat="47.4865366666667">
                <ele>1434.7</ele>
                <time>2009-08-25T13:29:11.000Z</time>
                <name>Position 5471</name>
            </trkpt>
            <trkpt lon="10.62347" lat="47.48653">
                <ele>1433.3</ele>
                <time>2009-08-25T13:29:14.000Z</time>
                <name>Position 5472</name>
            </trkpt>
            <trkpt lon="10.6234583333333" lat="47.486525">
                <ele>1432.1</ele>
                <time>2009-08-25T13:29:17.000Z</time>
                <name>Position 5473</name>
            </trkpt>
            <trkpt lon="10.6234433333333" lat="47.4865033333333">
                <ele>1431.7</ele>
                <time>2009-08-25T13:29:20.000Z</time>
                <name>Position 5474</name>
            </trkpt>
            <trkpt lon="10.62342" lat="47.4864866666667">
                <ele>1431.5</ele>
                <time>2009-08-25T13:29:23.000Z</time>
                <name>Position 5475</name>
            </trkpt>
            <trkpt lon="10.623425" lat="47.48649">
                <ele>1430.8</ele>
                <time>2009-08-25T13:29:26.000Z</time>
                <name>Position 5476</name>
            </trkpt>
            <trkpt lon="10.6234283333333" lat="47.4864833333333">
                <ele>1430.4</ele>
                <time>2009-08-25T13:29:29.000Z</time>
                <name>Position 5477</name>
            </trkpt>
            <trkpt lon="10.62343" lat="47.4864766666667">
                <ele>1429.8</ele>
                <time>2009-08-25T13:29:32.000Z</time>
                <name>Position 5478</name>
            </trkpt>
            <trkpt lon="10.6233966666667" lat="47.48648">
                <ele>1428.3</ele>
                <time>2009-08-25T13:29:35.000Z</time>
                <name>Position 5479</name>
            </trkpt>
            <trkpt lon="10.6233783333333" lat="47.4864666666667">
                <ele>1427.1</ele>
                <time>2009-08-25T13:29:38.000Z</time>
                <name>Position 5480</name>
            </trkpt>
            <trkpt lon="10.62338" lat="47.4864633333333">
                <ele>1425.8</ele>
                <time>2009-08-25T13:29:41.000Z</time>
                <name>Position 5481</name>
            </trkpt>
            <trkpt lon="10.6233816666667" lat="47.48646">
                <ele>1424.9</ele>
                <time>2009-08-25T13:29:44.000Z</time>
                <name>Position 5482</name>
            </trkpt>
            <trkpt lon="10.623385" lat="47.4864716666667">
                <ele>1424.3</ele>
                <time>2009-08-25T13:29:47.000Z</time>
                <name>Position 5483</name>
            </trkpt>
            <trkpt lon="10.6233666666667" lat="47.4864716666667">
                <ele>1423.5</ele>
                <time>2009-08-25T13:29:50.000Z</time>
                <name>Position 5484</name>
            </trkpt>
            <trkpt lon="10.6233483333333" lat="47.486475">
                <ele>1422.8</ele>
                <time>2009-08-25T13:29:53.000Z</time>
                <name>Position 5485</name>
            </trkpt>
            <trkpt lon="10.6233283333333" lat="47.4864783333333">
                <ele>1422.2</ele>
                <time>2009-08-25T13:29:56.000Z</time>
                <name>Position 5486</name>
            </trkpt>
            <trkpt lon="10.62331" lat="47.48649">
                <ele>1421.4</ele>
                <time>2009-08-25T13:29:59.000Z</time>
                <name>Position 5487</name>
            </trkpt>
            <trkpt lon="10.6233" lat="47.4864833333333">
                <ele>1420.8</ele>
                <time>2009-08-25T13:30:02.000Z</time>
                <name>Position 5488</name>
            </trkpt>
            <trkpt lon="10.6232933333333" lat="47.4864533333333">
                <ele>1421.2</ele>
                <time>2009-08-25T13:30:05.000Z</time>
                <name>Position 5489</name>
            </trkpt>
            <trkpt lon="10.6232783333333" lat="47.48647">
                <ele>1420.7</ele>
                <time>2009-08-25T13:30:08.000Z</time>
                <name>Position 5490</name>
            </trkpt>
            <trkpt lon="10.62328" lat="47.4864666666667">
                <ele>1420.9</ele>
                <time>2009-08-25T13:30:11.000Z</time>
                <name>Position 5491</name>
            </trkpt>
            <trkpt lon="10.623265" lat="47.486465">
                <ele>1420.3</ele>
                <time>2009-08-25T13:30:14.000Z</time>
                <name>Position 5492</name>
            </trkpt>
            <trkpt lon="10.6232483333333" lat="47.486465">
                <ele>1419.8</ele>
                <time>2009-08-25T13:30:17.000Z</time>
                <name>Position 5493</name>
            </trkpt>
            <trkpt lon="10.623245" lat="47.48644">
                <ele>1419.4</ele>
                <time>2009-08-25T13:30:20.000Z</time>
                <name>Position 5494</name>
            </trkpt>
            <trkpt lon="10.6232416666667" lat="47.4864233333333">
                <ele>1418.7</ele>
                <time>2009-08-25T13:30:23.000Z</time>
                <name>Position 5495</name>
            </trkpt>
            <trkpt lon="10.6232283333333" lat="47.4864166666667">
                <ele>1417.7</ele>
                <time>2009-08-25T13:30:26.000Z</time>
                <name>Position 5496</name>
            </trkpt>
            <trkpt lon="10.62323" lat="47.4863966666667">
                <ele>1417.2</ele>
                <time>2009-08-25T13:30:29.000Z</time>
                <name>Position 5497</name>
            </trkpt>
            <trkpt lon="10.6232316666667" lat="47.4863833333333">
                <ele>1416.2</ele>
                <time>2009-08-25T13:30:32.000Z</time>
                <name>Position 5498</name>
            </trkpt>
            <trkpt lon="10.62324" lat="47.4863733333333">
                <ele>1415.4</ele>
                <time>2009-08-25T13:30:35.000Z</time>
                <name>Position 5499</name>
            </trkpt>
            <trkpt lon="10.6232566666667" lat="47.486355">
                <ele>1414.8</ele>
                <time>2009-08-25T13:30:38.000Z</time>
                <name>Position 5500</name>
            </trkpt>
            <trkpt lon="10.6232833333333" lat="47.4863366666667">
                <ele>1414.4</ele>
                <time>2009-08-25T13:30:41.000Z</time>
                <name>Position 5501</name>
            </trkpt>
            <trkpt lon="10.6232966666667" lat="47.486335">
                <ele>1413.8</ele>
                <time>2009-08-25T13:30:44.000Z</time>
                <name>Position 5502</name>
            </trkpt>
            <trkpt lon="10.62328" lat="47.48633">
                <ele>1413.3</ele>
                <time>2009-08-25T13:30:47.000Z</time>
                <name>Position 5503</name>
            </trkpt>
            <trkpt lon="10.6232766666667" lat="47.4863083333333">
                <ele>1412.5</ele>
                <time>2009-08-25T13:30:50.000Z</time>
                <name>Position 5504</name>
            </trkpt>
            <trkpt lon="10.6232683333333" lat="47.4862816666667">
                <ele>1411.9</ele>
                <time>2009-08-25T13:30:53.000Z</time>
                <name>Position 5505</name>
            </trkpt>
            <trkpt lon="10.62328" lat="47.4862433333333">
                <ele>1412.0</ele>
                <time>2009-08-25T13:30:56.000Z</time>
                <name>Position 5506</name>
            </trkpt>
            <trkpt lon="10.6232916666667" lat="47.486225">
                <ele>1412.1</ele>
                <time>2009-08-25T13:30:59.000Z</time>
                <name>Position 5507</name>
            </trkpt>
            <trkpt lon="10.6233033333333" lat="47.4862283333333">
                <ele>1411.4</ele>
                <time>2009-08-25T13:31:02.000Z</time>
                <name>Position 5508</name>
            </trkpt>
            <trkpt lon="10.623305" lat="47.4862166666667">
                <ele>1410.4</ele>
                <time>2009-08-25T13:31:05.000Z</time>
                <name>Position 5509</name>
            </trkpt>
            <trkpt lon="10.62331" lat="47.486205">
                <ele>1410.1</ele>
                <time>2009-08-25T13:31:08.000Z</time>
                <name>Position 5510</name>
            </trkpt>
            <trkpt lon="10.6233233333333" lat="47.4861966666667">
                <ele>1408.6</ele>
                <time>2009-08-25T13:31:11.000Z</time>
                <name>Position 5511</name>
            </trkpt>
            <trkpt lon="10.6233333333333" lat="47.48618">
                <ele>1407.9</ele>
                <time>2009-08-25T13:31:14.000Z</time>
                <name>Position 5512</name>
            </trkpt>
            <trkpt lon="10.6233333333333" lat="47.4861733333333">
                <ele>1407.1</ele>
                <time>2009-08-25T13:31:17.000Z</time>
                <name>Position 5513</name>
            </trkpt>
            <trkpt lon="10.6233233333333" lat="47.4861683333333">
                <ele>1406.8</ele>
                <time>2009-08-25T13:31:20.000Z</time>
                <name>Position 5514</name>
            </trkpt>
            <trkpt lon="10.623315" lat="47.4861683333333">
                <ele>1406.5</ele>
                <time>2009-08-25T13:31:23.000Z</time>
                <name>Position 5515</name>
            </trkpt>
            <trkpt lon="10.6233216666667" lat="47.4861616666667">
                <ele>1406.5</ele>
                <time>2009-08-25T13:31:26.000Z</time>
                <name>Position 5516</name>
            </trkpt>
            <trkpt lon="10.6233133333333" lat="47.486145">
                <ele>1406.6</ele>
                <time>2009-08-25T13:31:29.000Z</time>
                <name>Position 5517</name>
            </trkpt>
            <trkpt lon="10.6233166666667" lat="47.48613">
                <ele>1405.6</ele>
                <time>2009-08-25T13:31:32.000Z</time>
                <name>Position 5518</name>
            </trkpt>
            <trkpt lon="10.62332" lat="47.4861183333333">
                <ele>1404.8</ele>
                <time>2009-08-25T13:31:35.000Z</time>
                <name>Position 5519</name>
            </trkpt>
            <trkpt lon="10.623335" lat="47.48611">
                <ele>1404.8</ele>
                <time>2009-08-25T13:31:38.000Z</time>
                <name>Position 5520</name>
            </trkpt>
            <trkpt lon="10.62335" lat="47.486095">
                <ele>1403.3</ele>
                <time>2009-08-25T13:31:41.000Z</time>
                <name>Position 5521</name>
            </trkpt>
            <trkpt lon="10.62337" lat="47.4860966666667">
                <ele>1401.5</ele>
                <time>2009-08-25T13:31:44.000Z</time>
                <name>Position 5522</name>
            </trkpt>
            <trkpt lon="10.6233633333333" lat="47.486095">
                <ele>1400.3</ele>
                <time>2009-08-25T13:31:47.000Z</time>
                <name>Position 5523</name>
            </trkpt>
            <trkpt lon="10.6233483333333" lat="47.4861">
                <ele>1399.7</ele>
                <time>2009-08-25T13:31:50.000Z</time>
                <name>Position 5524</name>
            </trkpt>
            <trkpt lon="10.6233383333333" lat="47.4860766666667">
                <ele>1399.0</ele>
                <time>2009-08-25T13:31:53.000Z</time>
                <name>Position 5525</name>
            </trkpt>
            <trkpt lon="10.6233366666667" lat="47.4860716666667">
                <ele>1397.7</ele>
                <time>2009-08-25T13:31:56.000Z</time>
                <name>Position 5526</name>
            </trkpt>
            <trkpt lon="10.6233216666667" lat="47.4860716666667">
                <ele>1397.2</ele>
                <time>2009-08-25T13:31:59.000Z</time>
                <name>Position 5527</name>
            </trkpt>
            <trkpt lon="10.6233083333333" lat="47.4860683333333">
                <ele>1396.9</ele>
                <time>2009-08-25T13:32:02.000Z</time>
                <name>Position 5528</name>
            </trkpt>
            <trkpt lon="10.6232983333333" lat="47.4860616666667">
                <ele>1396.4</ele>
                <time>2009-08-25T13:32:05.000Z</time>
                <name>Position 5529</name>
            </trkpt>
            <trkpt lon="10.623295" lat="47.4860616666667">
                <ele>1395.5</ele>
                <time>2009-08-25T13:32:08.000Z</time>
                <name>Position 5530</name>
            </trkpt>
            <trkpt lon="10.6233033333333" lat="47.4860583333333">
                <ele>1394.4</ele>
                <time>2009-08-25T13:32:11.000Z</time>
                <name>Position 5531</name>
            </trkpt>
            <trkpt lon="10.6232983333333" lat="47.48606">
                <ele>1394.2</ele>
                <time>2009-08-25T13:32:14.000Z</time>
                <name>Position 5532</name>
            </trkpt>
            <trkpt lon="10.6232833333333" lat="47.48606">
                <ele>1393.9</ele>
                <time>2009-08-25T13:32:17.000Z</time>
                <name>Position 5533</name>
            </trkpt>
            <trkpt lon="10.623275" lat="47.4860566666667">
                <ele>1393.9</ele>
                <time>2009-08-25T13:32:20.000Z</time>
                <name>Position 5534</name>
            </trkpt>
            <trkpt lon="10.6232516666667" lat="47.4860533333333">
                <ele>1393.0</ele>
                <time>2009-08-25T13:32:23.000Z</time>
                <name>Position 5535</name>
            </trkpt>
            <trkpt lon="10.62322" lat="47.48606">
                <ele>1391.5</ele>
                <time>2009-08-25T13:32:26.000Z</time>
                <name>Position 5536</name>
            </trkpt>
            <trkpt lon="10.6232183333333" lat="47.486025">
                <ele>1390.9</ele>
                <time>2009-08-25T13:32:29.000Z</time>
                <name>Position 5537</name>
            </trkpt>
            <trkpt lon="10.6232183333333" lat="47.486025">
                <ele>1390.0</ele>
                <time>2009-08-25T13:32:32.000Z</time>
                <name>Position 5538</name>
            </trkpt>
            <trkpt lon="10.623215" lat="47.4860033333333">
                <ele>1389.7</ele>
                <time>2009-08-25T13:32:35.000Z</time>
                <name>Position 5539</name>
            </trkpt>
            <trkpt lon="10.6232033333333" lat="47.48599">
                <ele>1389.1</ele>
                <time>2009-08-25T13:32:38.000Z</time>
                <name>Position 5540</name>
            </trkpt>
            <trkpt lon="10.6231983333333" lat="47.4859733333333">
                <ele>1388.5</ele>
                <time>2009-08-25T13:32:41.000Z</time>
                <name>Position 5541</name>
            </trkpt>
            <trkpt lon="10.62319" lat="47.485975">
                <ele>1388.4</ele>
                <time>2009-08-25T13:32:44.000Z</time>
                <name>Position 5542</name>
            </trkpt>
            <trkpt lon="10.623175" lat="47.4859666666667">
                <ele>1387.8</ele>
                <time>2009-08-25T13:32:47.000Z</time>
                <name>Position 5543</name>
            </trkpt>
            <trkpt lon="10.6231616666667" lat="47.4859633333333">
                <ele>1387.9</ele>
                <time>2009-08-25T13:32:50.000Z</time>
                <name>Position 5544</name>
            </trkpt>
            <trkpt lon="10.6231566666667" lat="47.48596">
                <ele>1387.7</ele>
                <time>2009-08-25T13:32:53.000Z</time>
                <name>Position 5545</name>
            </trkpt>
            <trkpt lon="10.6231583333333" lat="47.4859616666667">
                <ele>1387.3</ele>
                <time>2009-08-25T13:32:56.000Z</time>
                <name>Position 5546</name>
            </trkpt>
            <trkpt lon="10.6231583333333" lat="47.4859633333333">
                <ele>1387.2</ele>
                <time>2009-08-25T13:32:59.000Z</time>
                <name>Position 5547</name>
            </trkpt>
            <trkpt lon="10.62315" lat="47.4859733333333">
                <ele>1386.8</ele>
                <time>2009-08-25T13:33:02.000Z</time>
                <name>Position 5548</name>
            </trkpt>
            <trkpt lon="10.6231233333333" lat="47.4859766666667">
                <ele>1386.5</ele>
                <time>2009-08-25T13:33:05.000Z</time>
                <name>Position 5549</name>
            </trkpt>
            <trkpt lon="10.6231016666667" lat="47.4859683333333">
                <ele>1386.1</ele>
                <time>2009-08-25T13:33:08.000Z</time>
                <name>Position 5550</name>
            </trkpt>
            <trkpt lon="10.6230983333333" lat="47.4859633333333">
                <ele>1385.8</ele>
                <time>2009-08-25T13:33:11.000Z</time>
                <name>Position 5551</name>
            </trkpt>
            <trkpt lon="10.6230866666667" lat="47.4859616666667">
                <ele>1383.8</ele>
                <time>2009-08-25T13:33:14.000Z</time>
                <name>Position 5552</name>
            </trkpt>
            <trkpt lon="10.623065" lat="47.4859683333333">
                <ele>1383.2</ele>
                <time>2009-08-25T13:33:17.000Z</time>
                <name>Position 5553</name>
            </trkpt>
            <trkpt lon="10.6230433333333" lat="47.4859683333333">
                <ele>1383.2</ele>
                <time>2009-08-25T13:33:20.000Z</time>
                <name>Position 5554</name>
            </trkpt>
            <trkpt lon="10.6230166666667" lat="47.4859766666667">
                <ele>1382.2</ele>
                <time>2009-08-25T13:33:23.000Z</time>
                <name>Position 5555</name>
            </trkpt>
            <trkpt lon="10.6230066666667" lat="47.48598">
                <ele>1382.5</ele>
                <time>2009-08-25T13:33:26.000Z</time>
                <name>Position 5556</name>
            </trkpt>
            <trkpt lon="10.6229883333333" lat="47.4859833333333">
                <ele>1381.9</ele>
                <time>2009-08-25T13:33:29.000Z</time>
                <name>Position 5557</name>
            </trkpt>
            <trkpt lon="10.6229783333333" lat="47.48599">
                <ele>1381.2</ele>
                <time>2009-08-25T13:33:32.000Z</time>
                <name>Position 5558</name>
            </trkpt>
            <trkpt lon="10.6229733333333" lat="47.48598">
                <ele>1381.2</ele>
                <time>2009-08-25T13:33:35.000Z</time>
                <name>Position 5559</name>
            </trkpt>
            <trkpt lon="10.6229583333333" lat="47.485955">
                <ele>1380.6</ele>
                <time>2009-08-25T13:33:38.000Z</time>
                <name>Position 5560</name>
            </trkpt>
            <trkpt lon="10.6229633333333" lat="47.4859466666667">
                <ele>1379.4</ele>
                <time>2009-08-25T13:33:41.000Z</time>
                <name>Position 5561</name>
            </trkpt>
            <trkpt lon="10.6229616666667" lat="47.4859333333333">
                <ele>1378.2</ele>
                <time>2009-08-25T13:33:44.000Z</time>
                <name>Position 5562</name>
            </trkpt>
            <trkpt lon="10.6229383333333" lat="47.4859416666667">
                <ele>1377.3</ele>
                <time>2009-08-25T13:33:47.000Z</time>
                <name>Position 5563</name>
            </trkpt>
            <trkpt lon="10.6229316666667" lat="47.4859233333333">
                <ele>1376.9</ele>
                <time>2009-08-25T13:33:50.000Z</time>
                <name>Position 5564</name>
            </trkpt>
            <trkpt lon="10.622915" lat="47.48592">
                <ele>1376.3</ele>
                <time>2009-08-25T13:33:53.000Z</time>
                <name>Position 5565</name>
            </trkpt>
            <trkpt lon="10.622905" lat="47.485905">
                <ele>1375.8</ele>
                <time>2009-08-25T13:33:56.000Z</time>
                <name>Position 5566</name>
            </trkpt>
            <trkpt lon="10.6229083333333" lat="47.4858983333333">
                <ele>1374.8</ele>
                <time>2009-08-25T13:33:59.000Z</time>
                <name>Position 5567</name>
            </trkpt>
            <trkpt lon="10.622915" lat="47.485885">
                <ele>1374.7</ele>
                <time>2009-08-25T13:34:02.000Z</time>
                <name>Position 5568</name>
            </trkpt>
            <trkpt lon="10.6229166666667" lat="47.4858833333333">
                <ele>1374.9</ele>
                <time>2009-08-25T13:34:05.000Z</time>
                <name>Position 5569</name>
            </trkpt>
            <trkpt lon="10.622915" lat="47.4858833333333">
                <ele>1374.8</ele>
                <time>2009-08-25T13:34:08.000Z</time>
                <name>Position 5570</name>
            </trkpt>
            <trkpt lon="10.6229083333333" lat="47.4858866666667">
                <ele>1374.6</ele>
                <time>2009-08-25T13:34:11.000Z</time>
                <name>Position 5571</name>
            </trkpt>
            <trkpt lon="10.6228983333333" lat="47.485885">
                <ele>1374.4</ele>
                <time>2009-08-25T13:34:14.000Z</time>
                <name>Position 5572</name>
            </trkpt>
            <trkpt lon="10.6228916666667" lat="47.4858883333333">
                <ele>1374.0</ele>
                <time>2009-08-25T13:34:17.000Z</time>
                <name>Position 5573</name>
            </trkpt>
            <trkpt lon="10.6228933333333" lat="47.4858766666667">
                <ele>1373.4</ele>
                <time>2009-08-25T13:34:20.000Z</time>
                <name>Position 5574</name>
            </trkpt>
            <trkpt lon="10.622885" lat="47.4858633333333">
                <ele>1372.9</ele>
                <time>2009-08-25T13:34:23.000Z</time>
                <name>Position 5575</name>
            </trkpt>
            <trkpt lon="10.622875" lat="47.4858533333333">
                <ele>1370.9</ele>
                <time>2009-08-25T13:34:26.000Z</time>
                <name>Position 5576</name>
            </trkpt>
            <trkpt lon="10.62288" lat="47.4858266666667">
                <ele>1371.8</ele>
                <time>2009-08-25T13:34:29.000Z</time>
                <name>Position 5577</name>
            </trkpt>
            <trkpt lon="10.6228716666667" lat="47.48582">
                <ele>1371.5</ele>
                <time>2009-08-25T13:34:32.000Z</time>
                <name>Position 5578</name>
            </trkpt>
            <trkpt lon="10.6228633333333" lat="47.4858066666667">
                <ele>1371.0</ele>
                <time>2009-08-25T13:34:35.000Z</time>
                <name>Position 5579</name>
            </trkpt>
            <trkpt lon="10.62285" lat="47.4858033333333">
                <ele>1369.0</ele>
                <time>2009-08-25T13:34:38.000Z</time>
                <name>Position 5580</name>
            </trkpt>
            <trkpt lon="10.6228416666667" lat="47.4857966666667">
                <ele>1367.4</ele>
                <time>2009-08-25T13:34:41.000Z</time>
                <name>Position 5581</name>
            </trkpt>
            <trkpt lon="10.622825" lat="47.4857966666667">
                <ele>1366.7</ele>
                <time>2009-08-25T13:34:44.000Z</time>
                <name>Position 5582</name>
            </trkpt>
            <trkpt lon="10.6228133333333" lat="47.4857816666667">
                <ele>1366.2</ele>
                <time>2009-08-25T13:34:47.000Z</time>
                <name>Position 5583</name>
            </trkpt>
            <trkpt lon="10.6228166666667" lat="47.4857766666667">
                <ele>1365.8</ele>
                <time>2009-08-25T13:34:50.000Z</time>
                <name>Position 5584</name>
            </trkpt>
            <trkpt lon="10.6228033333333" lat="47.48578">
                <ele>1365.7</ele>
                <time>2009-08-25T13:34:53.000Z</time>
                <name>Position 5585</name>
            </trkpt>
            <trkpt lon="10.6227983333333" lat="47.48576">
                <ele>1364.9</ele>
                <time>2009-08-25T13:34:56.000Z</time>
                <name>Position 5586</name>
            </trkpt>
            <trkpt lon="10.62279" lat="47.4857416666667">
                <ele>1364.0</ele>
                <time>2009-08-25T13:34:59.000Z</time>
                <name>Position 5587</name>
            </trkpt>
            <trkpt lon="10.6227816666667" lat="47.4857166666667">
                <ele>1363.5</ele>
                <time>2009-08-25T13:35:02.000Z</time>
                <name>Position 5588</name>
            </trkpt>
            <trkpt lon="10.6227833333333" lat="47.485695">
                <ele>1362.3</ele>
                <time>2009-08-25T13:35:05.000Z</time>
                <name>Position 5589</name>
            </trkpt>
            <trkpt lon="10.62277" lat="47.485675">
                <ele>1361.7</ele>
                <time>2009-08-25T13:35:08.000Z</time>
                <name>Position 5590</name>
            </trkpt>
            <trkpt lon="10.6227783333333" lat="47.4856433333333">
                <ele>1360.6</ele>
                <time>2009-08-25T13:35:11.000Z</time>
                <name>Position 5591</name>
            </trkpt>
            <trkpt lon="10.6227933333333" lat="47.4856183333333">
                <ele>1359.8</ele>
                <time>2009-08-25T13:35:14.000Z</time>
                <name>Position 5592</name>
            </trkpt>
            <trkpt lon="10.6228" lat="47.4856216666667">
                <ele>1358.5</ele>
                <time>2009-08-25T13:35:17.000Z</time>
                <name>Position 5593</name>
            </trkpt>
            <trkpt lon="10.62281" lat="47.4856133333333">
                <ele>1358.6</ele>
                <time>2009-08-25T13:35:20.000Z</time>
                <name>Position 5594</name>
            </trkpt>
            <trkpt lon="10.62282" lat="47.485605">
                <ele>1358.6</ele>
                <time>2009-08-25T13:35:23.000Z</time>
                <name>Position 5595</name>
            </trkpt>
            <trkpt lon="10.622825" lat="47.4855733333333">
                <ele>1358.1</ele>
                <time>2009-08-25T13:35:26.000Z</time>
                <name>Position 5596</name>
            </trkpt>
            <trkpt lon="10.62283" lat="47.4855366666667">
                <ele>1356.7</ele>
                <time>2009-08-25T13:35:29.000Z</time>
                <name>Position 5597</name>
            </trkpt>
            <trkpt lon="10.62283" lat="47.4855033333333">
                <ele>1355.6</ele>
                <time>2009-08-25T13:35:32.000Z</time>
                <name>Position 5598</name>
            </trkpt>
            <trkpt lon="10.6228316666667" lat="47.485465">
                <ele>1354.2</ele>
                <time>2009-08-25T13:35:35.000Z</time>
                <name>Position 5599</name>
            </trkpt>
            <trkpt lon="10.6228766666667" lat="47.485435">
                <ele>1353.3</ele>
                <time>2009-08-25T13:35:38.000Z</time>
                <name>Position 5600</name>
            </trkpt>
            <trkpt lon="10.62292" lat="47.485405">
                <ele>1352.7</ele>
                <time>2009-08-25T13:35:41.000Z</time>
                <name>Position 5601</name>
            </trkpt>
            <trkpt lon="10.622965" lat="47.485375">
                <ele>1351.5</ele>
                <time>2009-08-25T13:35:44.000Z</time>
                <name>Position 5602</name>
            </trkpt>
            <trkpt lon="10.622975" lat="47.485335">
                <ele>1351.0</ele>
                <time>2009-08-25T13:35:47.000Z</time>
                <name>Position 5603</name>
            </trkpt>
            <trkpt lon="10.622945" lat="47.4853366666667">
                <ele>1351.5</ele>
                <time>2009-08-25T13:35:50.000Z</time>
                <name>Position 5604</name>
            </trkpt>
            <trkpt lon="10.6229333333333" lat="47.4853383333333">
                <ele>1352.1</ele>
                <time>2009-08-25T13:35:53.000Z</time>
                <name>Position 5605</name>
            </trkpt>
            <trkpt lon="10.62295" lat="47.485345">
                <ele>1352.4</ele>
                <time>2009-08-25T13:35:56.000Z</time>
                <name>Position 5606</name>
            </trkpt>
            <trkpt lon="10.62295" lat="47.485345">
                <ele>1352.4</ele>
                <time>2009-08-25T13:35:59.000Z</time>
                <name>Position 5607</name>
            </trkpt>
            <trkpt lon="10.6229516666667" lat="47.4853433333333">
                <ele>1352.6</ele>
                <time>2009-08-25T13:36:02.000Z</time>
                <name>Position 5608</name>
            </trkpt>
            <trkpt lon="10.6229266666667" lat="47.48534">
                <ele>1353.0</ele>
                <time>2009-08-25T13:36:05.000Z</time>
                <name>Position 5609</name>
            </trkpt>
            <trkpt lon="10.6229233333333" lat="47.4853366666667">
                <ele>1352.8</ele>
                <time>2009-08-25T13:36:08.000Z</time>
                <name>Position 5610</name>
            </trkpt>
            <trkpt lon="10.6229233333333" lat="47.4853366666667">
                <ele>1352.9</ele>
                <time>2009-08-25T13:36:10.000Z</time>
                <name>Position 5611</name>
            </trkpt>
            <trkpt lon="10.6229233333333" lat="47.485335">
                <ele>1352.9</ele>
                <time>2009-08-25T13:36:14.000Z</time>
                <name>Position 5612</name>
            </trkpt>
            <trkpt lon="10.6229116666667" lat="47.485335">
                <ele>1352.7</ele>
                <time>2009-08-25T13:36:17.000Z</time>
                <name>Position 5613</name>
            </trkpt>
            <trkpt lon="10.6229016666667" lat="47.485325">
                <ele>1352.5</ele>
                <time>2009-08-25T13:36:20.000Z</time>
                <name>Position 5614</name>
            </trkpt>
            <trkpt lon="10.6229016666667" lat="47.485325">
                <ele>1352.2</ele>
                <time>2009-08-25T13:36:23.000Z</time>
                <name>Position 5615</name>
            </trkpt>
            <trkpt lon="10.6229016666667" lat="47.4853233333333">
                <ele>1352.4</ele>
                <time>2009-08-25T13:36:26.000Z</time>
                <name>Position 5616</name>
            </trkpt>
            <trkpt lon="10.6229016666667" lat="47.4853216666667">
                <ele>1352.5</ele>
                <time>2009-08-25T13:36:29.000Z</time>
                <name>Position 5617</name>
            </trkpt>
            <trkpt lon="10.6229033333333" lat="47.48532">
                <ele>1352.8</ele>
                <time>2009-08-25T13:36:31.000Z</time>
                <name>Position 5618</name>
            </trkpt>
            <trkpt lon="10.6229033333333" lat="47.48532">
                <ele>1353.0</ele>
                <time>2009-08-25T13:36:35.000Z</time>
                <name>Position 5619</name>
            </trkpt>
            <trkpt lon="10.62289" lat="47.485335">
                <ele>1352.4</ele>
                <time>2009-08-25T13:36:38.000Z</time>
                <name>Position 5620</name>
            </trkpt>
            <trkpt lon="10.6228933333333" lat="47.4853383333333">
                <ele>1352.4</ele>
                <time>2009-08-25T13:36:41.000Z</time>
                <name>Position 5621</name>
            </trkpt>
            <trkpt lon="10.6228933333333" lat="47.4853416666667">
                <ele>1352.3</ele>
                <time>2009-08-25T13:36:44.000Z</time>
                <name>Position 5622</name>
            </trkpt>
            <trkpt lon="10.6228933333333" lat="47.4853416666667">
                <ele>1352.4</ele>
                <time>2009-08-25T13:36:47.000Z</time>
                <name>Position 5623</name>
            </trkpt>
            <trkpt lon="10.622895" lat="47.4853416666667">
                <ele>1352.4</ele>
                <time>2009-08-25T13:36:50.000Z</time>
                <name>Position 5624</name>
            </trkpt>
            <trkpt lon="10.622895" lat="47.4853416666667">
                <ele>1352.4</ele>
                <time>2009-08-25T13:36:53.000Z</time>
                <name>Position 5625</name>
            </trkpt>
            <trkpt lon="10.6228933333333" lat="47.4853466666667">
                <ele>1351.9</ele>
                <time>2009-08-25T13:36:56.000Z</time>
                <name>Position 5626</name>
            </trkpt>
            <trkpt lon="10.6228883333333" lat="47.4853383333333">
                <ele>1352.5</ele>
                <time>2009-08-25T13:36:59.000Z</time>
                <name>Position 5627</name>
            </trkpt>
            <trkpt lon="10.62289" lat="47.4853233333333">
                <ele>1352.3</ele>
                <time>2009-08-25T13:37:02.000Z</time>
                <name>Position 5628</name>
            </trkpt>
            <trkpt lon="10.622885" lat="47.485315">
                <ele>1352.7</ele>
                <time>2009-08-25T13:37:05.000Z</time>
                <name>Position 5629</name>
            </trkpt>
            <trkpt lon="10.6228883333333" lat="47.4853116666667">
                <ele>1352.9</ele>
                <time>2009-08-25T13:37:08.000Z</time>
                <name>Position 5630</name>
            </trkpt>
            <trkpt lon="10.6228866666667" lat="47.4853116666667">
                <ele>1352.8</ele>
                <time>2009-08-25T13:37:11.000Z</time>
                <name>Position 5631</name>
            </trkpt>
            <trkpt lon="10.6228866666667" lat="47.4853116666667">
                <ele>1352.8</ele>
                <time>2009-08-25T13:37:14.000Z</time>
                <name>Position 5632</name>
            </trkpt>
            <trkpt lon="10.6228866666667" lat="47.4853116666667">
                <ele>1352.8</ele>
                <time>2009-08-25T13:37:17.000Z</time>
                <name>Position 5633</name>
            </trkpt>
            <trkpt lon="10.62285" lat="47.48531">
                <ele>1353.0</ele>
                <time>2009-08-25T13:37:20.000Z</time>
                <name>Position 5634</name>
            </trkpt>
            <trkpt lon="10.622805" lat="47.4852933333333">
                <ele>1352.6</ele>
                <time>2009-08-25T13:37:23.000Z</time>
                <name>Position 5635</name>
            </trkpt>
            <trkpt lon="10.6227783333333" lat="47.485285">
                <ele>1352.6</ele>
                <time>2009-08-25T13:37:26.000Z</time>
                <name>Position 5636</name>
            </trkpt>
            <trkpt lon="10.6227766666667" lat="47.485285">
                <ele>1352.4</ele>
                <time>2009-08-25T13:37:29.000Z</time>
                <name>Position 5637</name>
            </trkpt>
            <trkpt lon="10.6227766666667" lat="47.4852833333333">
                <ele>1352.4</ele>
                <time>2009-08-25T13:37:32.000Z</time>
                <name>Position 5638</name>
            </trkpt>
            <trkpt lon="10.622755" lat="47.48529">
                <ele>1351.9</ele>
                <time>2009-08-25T13:37:35.000Z</time>
                <name>Position 5639</name>
            </trkpt>
            <trkpt lon="10.6227016666667" lat="47.4852816666667">
                <ele>1350.7</ele>
                <time>2009-08-25T13:37:38.000Z</time>
                <name>Position 5640</name>
            </trkpt>
            <trkpt lon="10.622645" lat="47.4852733333333">
                <ele>1350.1</ele>
                <time>2009-08-25T13:37:41.000Z</time>
                <name>Position 5641</name>
            </trkpt>
            <trkpt lon="10.62259" lat="47.4852666666667">
                <ele>1349.5</ele>
                <time>2009-08-25T13:37:44.000Z</time>
                <name>Position 5642</name>
            </trkpt>
            <trkpt lon="10.6225416666667" lat="47.4852416666667">
                <ele>1349.5</ele>
                <time>2009-08-25T13:37:47.000Z</time>
                <name>Position 5643</name>
            </trkpt>
            <trkpt lon="10.6224966666667" lat="47.48522">
                <ele>1349.4</ele>
                <time>2009-08-25T13:37:50.000Z</time>
                <name>Position 5644</name>
            </trkpt>
            <trkpt lon="10.6224366666667" lat="47.4852033333333">
                <ele>1348.7</ele>
                <time>2009-08-25T13:37:53.000Z</time>
                <name>Position 5645</name>
            </trkpt>
            <trkpt lon="10.6223816666667" lat="47.4851983333333">
                <ele>1348.6</ele>
                <time>2009-08-25T13:37:56.000Z</time>
                <name>Position 5646</name>
            </trkpt>
            <trkpt lon="10.622325" lat="47.4851933333333">
                <ele>1348.5</ele>
                <time>2009-08-25T13:37:59.000Z</time>
                <name>Position 5647</name>
            </trkpt>
            <trkpt lon="10.6222683333333" lat="47.485205">
                <ele>1347.9</ele>
                <time>2009-08-25T13:38:02.000Z</time>
                <name>Position 5648</name>
            </trkpt>
            <trkpt lon="10.622225" lat="47.4852333333333">
                <ele>1347.8</ele>
                <time>2009-08-25T13:38:05.000Z</time>
                <name>Position 5649</name>
            </trkpt>
            <trkpt lon="10.6221933333333" lat="47.485265">
                <ele>1347.5</ele>
                <time>2009-08-25T13:38:08.000Z</time>
                <name>Position 5650</name>
            </trkpt>
            <trkpt lon="10.62217" lat="47.4852983333333">
                <ele>1347.1</ele>
                <time>2009-08-25T13:38:11.000Z</time>
                <name>Position 5651</name>
            </trkpt>
            <trkpt lon="10.62215" lat="47.4853366666667">
                <ele>1346.2</ele>
                <time>2009-08-25T13:38:14.000Z</time>
                <name>Position 5652</name>
            </trkpt>
            <trkpt lon="10.6221283333333" lat="47.485375">
                <ele>1345.7</ele>
                <time>2009-08-25T13:38:17.000Z</time>
                <name>Position 5653</name>
            </trkpt>
            <trkpt lon="10.62207" lat="47.485385">
                <ele>1345.4</ele>
                <time>2009-08-25T13:38:20.000Z</time>
                <name>Position 5654</name>
            </trkpt>
            <trkpt lon="10.6220333333333" lat="47.48536">
                <ele>1345.0</ele>
                <time>2009-08-25T13:38:23.000Z</time>
                <name>Position 5655</name>
            </trkpt>
            <trkpt lon="10.6220183333333" lat="47.4853283333333">
                <ele>1345.3</ele>
                <time>2009-08-25T13:38:26.000Z</time>
                <name>Position 5656</name>
            </trkpt>
            <trkpt lon="10.6220316666667" lat="47.485285">
                <ele>1344.6</ele>
                <time>2009-08-25T13:38:29.000Z</time>
                <name>Position 5657</name>
            </trkpt>
            <trkpt lon="10.6220466666667" lat="47.48524">
                <ele>1343.9</ele>
                <time>2009-08-25T13:38:32.000Z</time>
                <name>Position 5658</name>
            </trkpt>
            <trkpt lon="10.622055" lat="47.4852283333333">
                <ele>1343.8</ele>
                <time>2009-08-25T13:38:35.000Z</time>
                <name>Position 5659</name>
            </trkpt>
            <trkpt lon="10.6220666666667" lat="47.4851966666667">
                <ele>1343.8</ele>
                <time>2009-08-25T13:38:38.000Z</time>
                <name>Position 5660</name>
            </trkpt>
            <trkpt lon="10.6220766666667" lat="47.485165">
                <ele>1342.9</ele>
                <time>2009-08-25T13:38:41.000Z</time>
                <name>Position 5661</name>
            </trkpt>
            <trkpt lon="10.622105" lat="47.4851283333333">
                <ele>1342.1</ele>
                <time>2009-08-25T13:38:44.000Z</time>
                <name>Position 5662</name>
            </trkpt>
            <trkpt lon="10.622155" lat="47.485085">
                <ele>1340.8</ele>
                <time>2009-08-25T13:38:47.000Z</time>
                <name>Position 5663</name>
            </trkpt>
            <trkpt lon="10.62219" lat="47.48507">
                <ele>1340.2</ele>
                <time>2009-08-25T13:38:50.000Z</time>
                <name>Position 5664</name>
            </trkpt>
            <trkpt lon="10.62224" lat="47.4850516666667">
                <ele>1339.1</ele>
                <time>2009-08-25T13:38:53.000Z</time>
                <name>Position 5665</name>
            </trkpt>
            <trkpt lon="10.622295" lat="47.48504">
                <ele>1337.8</ele>
                <time>2009-08-25T13:38:56.000Z</time>
                <name>Position 5666</name>
            </trkpt>
            <trkpt lon="10.62234" lat="47.4850083333333">
                <ele>1337.5</ele>
                <time>2009-08-25T13:38:59.000Z</time>
                <name>Position 5667</name>
            </trkpt>
            <trkpt lon="10.6223616666667" lat="47.4849733333333">
                <ele>1337.2</ele>
                <time>2009-08-25T13:39:02.000Z</time>
                <name>Position 5668</name>
            </trkpt>
            <trkpt lon="10.6223666666667" lat="47.484935">
                <ele>1336.8</ele>
                <time>2009-08-25T13:39:05.000Z</time>
                <name>Position 5669</name>
            </trkpt>
            <trkpt lon="10.6223616666667" lat="47.4848966666667">
                <ele>1336.1</ele>
                <time>2009-08-25T13:39:08.000Z</time>
                <name>Position 5670</name>
            </trkpt>
            <trkpt lon="10.6223366666667" lat="47.484865">
                <ele>1335.0</ele>
                <time>2009-08-25T13:39:11.000Z</time>
                <name>Position 5671</name>
            </trkpt>
            <trkpt lon="10.6223083333333" lat="47.4848333333333">
                <ele>1334.7</ele>
                <time>2009-08-25T13:39:14.000Z</time>
                <name>Position 5672</name>
            </trkpt>
            <trkpt lon="10.622285" lat="47.4848083333333">
                <ele>1334.7</ele>
                <time>2009-08-25T13:39:17.000Z</time>
                <name>Position 5673</name>
            </trkpt>
            <trkpt lon="10.622245" lat="47.4847866666667">
                <ele>1334.0</ele>
                <time>2009-08-25T13:39:20.000Z</time>
                <name>Position 5674</name>
            </trkpt>
            <trkpt lon="10.6222333333333" lat="47.4847433333333">
                <ele>1333.2</ele>
                <time>2009-08-25T13:39:23.000Z</time>
                <name>Position 5675</name>
            </trkpt>
            <trkpt lon="10.622235" lat="47.4846883333333">
                <ele>1332.7</ele>
                <time>2009-08-25T13:39:26.000Z</time>
                <name>Position 5676</name>
            </trkpt>
            <trkpt lon="10.6222716666667" lat="47.4846533333333">
                <ele>1331.6</ele>
                <time>2009-08-25T13:39:29.000Z</time>
                <name>Position 5677</name>
            </trkpt>
            <trkpt lon="10.6223066666667" lat="47.48462">
                <ele>1330.6</ele>
                <time>2009-08-25T13:39:32.000Z</time>
                <name>Position 5678</name>
            </trkpt>
            <trkpt lon="10.6223233333333" lat="47.48459">
                <ele>1329.8</ele>
                <time>2009-08-25T13:39:35.000Z</time>
                <name>Position 5679</name>
            </trkpt>
            <trkpt lon="10.6223183333333" lat="47.484565">
                <ele>1329.8</ele>
                <time>2009-08-25T13:39:38.000Z</time>
                <name>Position 5680</name>
            </trkpt>
            <trkpt lon="10.622295" lat="47.4845466666667">
                <ele>1329.3</ele>
                <time>2009-08-25T13:39:41.000Z</time>
                <name>Position 5681</name>
            </trkpt>
            <trkpt lon="10.6222566666667" lat="47.484515">
                <ele>1328.5</ele>
                <time>2009-08-25T13:39:44.000Z</time>
                <name>Position 5682</name>
            </trkpt>
            <trkpt lon="10.6222033333333" lat="47.4844933333333">
                <ele>1327.5</ele>
                <time>2009-08-25T13:39:47.000Z</time>
                <name>Position 5683</name>
            </trkpt>
            <trkpt lon="10.622145" lat="47.4844816666667">
                <ele>1327.1</ele>
                <time>2009-08-25T13:39:50.000Z</time>
                <name>Position 5684</name>
            </trkpt>
            <trkpt lon="10.622095" lat="47.4844883333333">
                <ele>1326.7</ele>
                <time>2009-08-25T13:39:53.000Z</time>
                <name>Position 5685</name>
            </trkpt>
            <trkpt lon="10.62205" lat="47.4845016666667">
                <ele>1326.2</ele>
                <time>2009-08-25T13:39:56.000Z</time>
                <name>Position 5686</name>
            </trkpt>
            <trkpt lon="10.6219983333333" lat="47.4845216666667">
                <ele>1326.1</ele>
                <time>2009-08-25T13:39:59.000Z</time>
                <name>Position 5687</name>
            </trkpt>
            <trkpt lon="10.6219633333333" lat="47.4845566666667">
                <ele>1325.5</ele>
                <time>2009-08-25T13:40:02.000Z</time>
                <name>Position 5688</name>
            </trkpt>
            <trkpt lon="10.6219316666667" lat="47.4845883333333">
                <ele>1325.0</ele>
                <time>2009-08-25T13:40:05.000Z</time>
                <name>Position 5689</name>
            </trkpt>
            <trkpt lon="10.621895" lat="47.48462">
                <ele>1324.9</ele>
                <time>2009-08-25T13:40:08.000Z</time>
                <name>Position 5690</name>
            </trkpt>
            <trkpt lon="10.6218683333333" lat="47.48465">
                <ele>1324.7</ele>
                <time>2009-08-25T13:40:11.000Z</time>
                <name>Position 5691</name>
            </trkpt>
            <trkpt lon="10.6218616666667" lat="47.4846683333333">
                <ele>1324.5</ele>
                <time>2009-08-25T13:40:14.000Z</time>
                <name>Position 5692</name>
            </trkpt>
            <trkpt lon="10.6218466666667" lat="47.4846866666667">
                <ele>1324.1</ele>
                <time>2009-08-25T13:40:17.000Z</time>
                <name>Position 5693</name>
            </trkpt>
            <trkpt lon="10.62184" lat="47.4847266666667">
                <ele>1323.3</ele>
                <time>2009-08-25T13:40:20.000Z</time>
                <name>Position 5694</name>
            </trkpt>
            <trkpt lon="10.6218133333333" lat="47.48478">
                <ele>1322.8</ele>
                <time>2009-08-25T13:40:23.000Z</time>
                <name>Position 5695</name>
            </trkpt>
            <trkpt lon="10.6217933333333" lat="47.4848033333333">
                <ele>1322.4</ele>
                <time>2009-08-25T13:40:26.000Z</time>
                <name>Position 5696</name>
            </trkpt>
            <trkpt lon="10.621765" lat="47.4848316666667">
                <ele>1322.6</ele>
                <time>2009-08-25T13:40:29.000Z</time>
                <name>Position 5697</name>
            </trkpt>
            <trkpt lon="10.6217283333333" lat="47.4848583333333">
                <ele>1322.9</ele>
                <time>2009-08-25T13:40:32.000Z</time>
                <name>Position 5698</name>
            </trkpt>
            <trkpt lon="10.6216866666667" lat="47.484875">
                <ele>1324.1</ele>
                <time>2009-08-25T13:40:35.000Z</time>
                <name>Position 5699</name>
            </trkpt>
            <trkpt lon="10.6216433333333" lat="47.484895">
                <ele>1324.6</ele>
                <time>2009-08-25T13:40:38.000Z</time>
                <name>Position 5700</name>
            </trkpt>
            <trkpt lon="10.62159" lat="47.484915">
                <ele>1324.0</ele>
                <time>2009-08-25T13:40:41.000Z</time>
                <name>Position 5701</name>
            </trkpt>
            <trkpt lon="10.6215383333333" lat="47.4849366666667">
                <ele>1324.0</ele>
                <time>2009-08-25T13:40:44.000Z</time>
                <name>Position 5702</name>
            </trkpt>
            <trkpt lon="10.6214866666667" lat="47.48496">
                <ele>1324.3</ele>
                <time>2009-08-25T13:40:47.000Z</time>
                <name>Position 5703</name>
            </trkpt>
            <trkpt lon="10.6214433333333" lat="47.4849783333333">
                <ele>1324.7</ele>
                <time>2009-08-25T13:40:50.000Z</time>
                <name>Position 5704</name>
            </trkpt>
            <trkpt lon="10.6214066666667" lat="47.4849983333333">
                <ele>1325.3</ele>
                <time>2009-08-25T13:40:53.000Z</time>
                <name>Position 5705</name>
            </trkpt>
            <trkpt lon="10.6213633333333" lat="47.4850233333333">
                <ele>1325.6</ele>
                <time>2009-08-25T13:40:56.000Z</time>
                <name>Position 5706</name>
            </trkpt>
            <trkpt lon="10.621325" lat="47.48505">
                <ele>1325.0</ele>
                <time>2009-08-25T13:40:59.000Z</time>
                <name>Position 5707</name>
            </trkpt>
            <trkpt lon="10.6212883333333" lat="47.4850833333333">
                <ele>1324.3</ele>
                <time>2009-08-25T13:41:02.000Z</time>
                <name>Position 5708</name>
            </trkpt>
            <trkpt lon="10.621255" lat="47.4851166666667">
                <ele>1323.6</ele>
                <time>2009-08-25T13:41:05.000Z</time>
                <name>Position 5709</name>
            </trkpt>
            <trkpt lon="10.62123" lat="47.48516">
                <ele>1322.1</ele>
                <time>2009-08-25T13:41:08.000Z</time>
                <name>Position 5710</name>
            </trkpt>
            <trkpt lon="10.6212183333333" lat="47.4851983333333">
                <ele>1321.5</ele>
                <time>2009-08-25T13:41:10.000Z</time>
                <name>Position 5711</name>
            </trkpt>
            <trkpt lon="10.6212283333333" lat="47.485235">
                <ele>1320.5</ele>
                <time>2009-08-25T13:41:13.000Z</time>
                <name>Position 5712</name>
            </trkpt>
            <trkpt lon="10.621245" lat="47.48527">
                <ele>1320.1</ele>
                <time>2009-08-25T13:41:17.000Z</time>
                <name>Position 5713</name>
            </trkpt>
            <trkpt lon="10.6212583333333" lat="47.48531">
                <ele>1318.9</ele>
                <time>2009-08-25T13:41:20.000Z</time>
                <name>Position 5714</name>
            </trkpt>
            <trkpt lon="10.6212866666667" lat="47.485355">
                <ele>1317.8</ele>
                <time>2009-08-25T13:41:23.000Z</time>
                <name>Position 5715</name>
            </trkpt>
            <trkpt lon="10.6213066666667" lat="47.4853816666667">
                <ele>1316.0</ele>
                <time>2009-08-25T13:41:26.000Z</time>
                <name>Position 5716</name>
            </trkpt>
            <trkpt lon="10.6213183333333" lat="47.4854183333333">
                <ele>1315.6</ele>
                <time>2009-08-25T13:41:29.000Z</time>
                <name>Position 5717</name>
            </trkpt>
            <trkpt lon="10.6213116666667" lat="47.4854566666667">
                <ele>1314.0</ele>
                <time>2009-08-25T13:41:32.000Z</time>
                <name>Position 5718</name>
            </trkpt>
            <trkpt lon="10.62131" lat="47.4855033333333">
                <ele>1313.2</ele>
                <time>2009-08-25T13:41:35.000Z</time>
                <name>Position 5719</name>
            </trkpt>
            <trkpt lon="10.6213083333333" lat="47.485545">
                <ele>1312.3</ele>
                <time>2009-08-25T13:41:38.000Z</time>
                <name>Position 5720</name>
            </trkpt>
            <trkpt lon="10.6213066666667" lat="47.4855883333333">
                <ele>1310.8</ele>
                <time>2009-08-25T13:41:40.000Z</time>
                <name>Position 5721</name>
            </trkpt>
            <trkpt lon="10.6213016666667" lat="47.4856216666667">
                <ele>1310.6</ele>
                <time>2009-08-25T13:41:44.000Z</time>
                <name>Position 5722</name>
            </trkpt>
            <trkpt lon="10.621275" lat="47.4856616666667">
                <ele>1309.5</ele>
                <time>2009-08-25T13:41:47.000Z</time>
                <name>Position 5723</name>
            </trkpt>
            <trkpt lon="10.621245" lat="47.485695">
                <ele>1308.9</ele>
                <time>2009-08-25T13:41:50.000Z</time>
                <name>Position 5724</name>
            </trkpt>
            <trkpt lon="10.6211933333333" lat="47.4857183333333">
                <ele>1308.1</ele>
                <time>2009-08-25T13:41:53.000Z</time>
                <name>Position 5725</name>
            </trkpt>
            <trkpt lon="10.6211616666667" lat="47.4857166666667">
                <ele>1306.8</ele>
                <time>2009-08-25T13:41:56.000Z</time>
                <name>Position 5726</name>
            </trkpt>
            <trkpt lon="10.6211233333333" lat="47.4857166666667">
                <ele>1305.7</ele>
                <time>2009-08-25T13:41:58.000Z</time>
                <name>Position 5727</name>
            </trkpt>
            <trkpt lon="10.6210966666667" lat="47.4856766666667">
                <ele>1304.7</ele>
                <time>2009-08-25T13:42:01.000Z</time>
                <name>Position 5728</name>
            </trkpt>
            <trkpt lon="10.6211266666667" lat="47.4856183333333">
                <ele>1304.0</ele>
                <time>2009-08-25T13:42:04.000Z</time>
                <name>Position 5729</name>
            </trkpt>
            <trkpt lon="10.6211766666667" lat="47.48557">
                <ele>1302.4</ele>
                <time>2009-08-25T13:42:07.000Z</time>
                <name>Position 5730</name>
            </trkpt>
            <trkpt lon="10.6211666666667" lat="47.4855433333333">
                <ele>1301.2</ele>
                <time>2009-08-25T13:42:10.000Z</time>
                <name>Position 5731</name>
            </trkpt>
            <trkpt lon="10.62113" lat="47.485535">
                <ele>1300.2</ele>
                <time>2009-08-25T13:42:13.000Z</time>
                <name>Position 5732</name>
            </trkpt>
            <trkpt lon="10.621095" lat="47.485505">
                <ele>1299.2</ele>
                <time>2009-08-25T13:42:16.000Z</time>
                <name>Position 5733</name>
            </trkpt>
            <trkpt lon="10.6210266666667" lat="47.4855216666667">
                <ele>1299.0</ele>
                <time>2009-08-25T13:42:19.000Z</time>
                <name>Position 5734</name>
            </trkpt>
            <trkpt lon="10.6209633333333" lat="47.4855616666667">
                <ele>1298.8</ele>
                <time>2009-08-25T13:42:22.000Z</time>
                <name>Position 5735</name>
            </trkpt>
            <trkpt lon="10.6209033333333" lat="47.4856133333333">
                <ele>1298.1</ele>
                <time>2009-08-25T13:42:25.000Z</time>
                <name>Position 5736</name>
            </trkpt>
            <trkpt lon="10.62088" lat="47.4856283333333">
                <ele>1298.6</ele>
                <time>2009-08-25T13:42:28.000Z</time>
                <name>Position 5737</name>
            </trkpt>
            <trkpt lon="10.62084" lat="47.4856533333333">
                <ele>1298.3</ele>
                <time>2009-08-25T13:42:31.000Z</time>
                <name>Position 5738</name>
            </trkpt>
            <trkpt lon="10.6207816666667" lat="47.4856533333333">
                <ele>1298.4</ele>
                <time>2009-08-25T13:42:34.000Z</time>
                <name>Position 5739</name>
            </trkpt>
            <trkpt lon="10.620745" lat="47.48565">
                <ele>1297.3</ele>
                <time>2009-08-25T13:42:37.000Z</time>
                <name>Position 5740</name>
            </trkpt>
            <trkpt lon="10.620705" lat="47.48565">
                <ele>1296.4</ele>
                <time>2009-08-25T13:42:40.000Z</time>
                <name>Position 5741</name>
            </trkpt>
            <trkpt lon="10.6206716666667" lat="47.4856216666667">
                <ele>1295.1</ele>
                <time>2009-08-25T13:42:43.000Z</time>
                <name>Position 5742</name>
            </trkpt>
            <trkpt lon="10.6206466666667" lat="47.4855983333333">
                <ele>1294.7</ele>
                <time>2009-08-25T13:42:46.000Z</time>
                <name>Position 5743</name>
            </trkpt>
            <trkpt lon="10.6206466666667" lat="47.4855383333333">
                <ele>1293.6</ele>
                <time>2009-08-25T13:42:49.000Z</time>
                <name>Position 5744</name>
            </trkpt>
            <trkpt lon="10.6206416666667" lat="47.4855166666667">
                <ele>1292.5</ele>
                <time>2009-08-25T13:42:52.000Z</time>
                <name>Position 5745</name>
            </trkpt>
            <trkpt lon="10.620645" lat="47.4854683333333">
                <ele>1291.7</ele>
                <time>2009-08-25T13:42:55.000Z</time>
                <name>Position 5746</name>
            </trkpt>
            <trkpt lon="10.6206566666667" lat="47.485435">
                <ele>1291.0</ele>
                <time>2009-08-25T13:42:58.000Z</time>
                <name>Position 5747</name>
            </trkpt>
            <trkpt lon="10.620665" lat="47.4853916666667">
                <ele>1290.1</ele>
                <time>2009-08-25T13:43:01.000Z</time>
                <name>Position 5748</name>
            </trkpt>
            <trkpt lon="10.62067" lat="47.4853583333333">
                <ele>1289.4</ele>
                <time>2009-08-25T13:43:04.000Z</time>
                <name>Position 5749</name>
            </trkpt>
            <trkpt lon="10.6206516666667" lat="47.4853333333333">
                <ele>1288.8</ele>
                <time>2009-08-25T13:43:07.000Z</time>
                <name>Position 5750</name>
            </trkpt>
            <trkpt lon="10.620635" lat="47.4853">
                <ele>1288.4</ele>
                <time>2009-08-25T13:43:10.000Z</time>
                <name>Position 5751</name>
            </trkpt>
            <trkpt lon="10.6205916666667" lat="47.4852816666667">
                <ele>1288.0</ele>
                <time>2009-08-25T13:43:13.000Z</time>
                <name>Position 5752</name>
            </trkpt>
            <trkpt lon="10.620555" lat="47.4852733333333">
                <ele>1287.6</ele>
                <time>2009-08-25T13:43:16.000Z</time>
                <name>Position 5753</name>
            </trkpt>
            <trkpt lon="10.6204966666667" lat="47.4852866666667">
                <ele>1287.1</ele>
                <time>2009-08-25T13:43:19.000Z</time>
                <name>Position 5754</name>
            </trkpt>
            <trkpt lon="10.6204616666667" lat="47.485275">
                <ele>1286.4</ele>
                <time>2009-08-25T13:43:22.000Z</time>
                <name>Position 5755</name>
            </trkpt>
            <trkpt lon="10.620425" lat="47.48525">
                <ele>1285.2</ele>
                <time>2009-08-25T13:43:25.000Z</time>
                <name>Position 5756</name>
            </trkpt>
            <trkpt lon="10.6203716666667" lat="47.4852283333333">
                <ele>1285.2</ele>
                <time>2009-08-25T13:43:28.000Z</time>
                <name>Position 5757</name>
            </trkpt>
            <trkpt lon="10.62032" lat="47.4852083333333">
                <ele>1285.0</ele>
                <time>2009-08-25T13:43:32.000Z</time>
                <name>Position 5758</name>
            </trkpt>
            <trkpt lon="10.6202516666667" lat="47.4851916666667">
                <ele>1283.7</ele>
                <time>2009-08-25T13:43:35.000Z</time>
                <name>Position 5759</name>
            </trkpt>
            <trkpt lon="10.6201933333333" lat="47.485175">
                <ele>1283.6</ele>
                <time>2009-08-25T13:43:38.000Z</time>
                <name>Position 5760</name>
            </trkpt>
            <trkpt lon="10.620135" lat="47.4851683333333">
                <ele>1283.3</ele>
                <time>2009-08-25T13:43:41.000Z</time>
                <name>Position 5761</name>
            </trkpt>
            <trkpt lon="10.6200816666667" lat="47.4851616666667">
                <ele>1283.7</ele>
                <time>2009-08-25T13:43:44.000Z</time>
                <name>Position 5762</name>
            </trkpt>
            <trkpt lon="10.6200183333333" lat="47.4851816666667">
                <ele>1283.0</ele>
                <time>2009-08-25T13:43:47.000Z</time>
                <name>Position 5763</name>
            </trkpt>
            <trkpt lon="10.619965" lat="47.4852116666667">
                <ele>1281.5</ele>
                <time>2009-08-25T13:43:50.000Z</time>
                <name>Position 5764</name>
            </trkpt>
            <trkpt lon="10.6199266666667" lat="47.4852333333333">
                <ele>1281.0</ele>
                <time>2009-08-25T13:43:53.000Z</time>
                <name>Position 5765</name>
            </trkpt>
            <trkpt lon="10.6198766666667" lat="47.4852516666667">
                <ele>1280.3</ele>
                <time>2009-08-25T13:43:56.000Z</time>
                <name>Position 5766</name>
            </trkpt>
            <trkpt lon="10.6198116666667" lat="47.485265">
                <ele>1280.0</ele>
                <time>2009-08-25T13:43:59.000Z</time>
                <name>Position 5767</name>
            </trkpt>
            <trkpt lon="10.6197633333333" lat="47.4852516666667">
                <ele>1280.4</ele>
                <time>2009-08-25T13:44:02.000Z</time>
                <name>Position 5768</name>
            </trkpt>
            <trkpt lon="10.6197383333333" lat="47.4852383333333">
                <ele>1280.7</ele>
                <time>2009-08-25T13:44:05.000Z</time>
                <name>Position 5769</name>
            </trkpt>
            <trkpt lon="10.6197166666667" lat="47.4852133333333">
                <ele>1280.5</ele>
                <time>2009-08-25T13:44:08.000Z</time>
                <name>Position 5770</name>
            </trkpt>
            <trkpt lon="10.619705" lat="47.4851683333333">
                <ele>1280.4</ele>
                <time>2009-08-25T13:44:11.000Z</time>
                <name>Position 5771</name>
            </trkpt>
            <trkpt lon="10.619705" lat="47.4851233333333">
                <ele>1280.8</ele>
                <time>2009-08-25T13:44:14.000Z</time>
                <name>Position 5772</name>
            </trkpt>
            <trkpt lon="10.61969" lat="47.48511">
                <ele>1281.4</ele>
                <time>2009-08-25T13:44:17.000Z</time>
                <name>Position 5773</name>
            </trkpt>
            <trkpt lon="10.61969" lat="47.4850733333333">
                <ele>1280.8</ele>
                <time>2009-08-25T13:44:20.000Z</time>
                <name>Position 5774</name>
            </trkpt>
            <trkpt lon="10.619705" lat="47.485025">
                <ele>1279.8</ele>
                <time>2009-08-25T13:44:23.000Z</time>
                <name>Position 5775</name>
            </trkpt>
            <trkpt lon="10.6197233333333" lat="47.4849783333333">
                <ele>1279.2</ele>
                <time>2009-08-25T13:44:26.000Z</time>
                <name>Position 5776</name>
            </trkpt>
            <trkpt lon="10.61974" lat="47.4849383333333">
                <ele>1279.2</ele>
                <time>2009-08-25T13:44:29.000Z</time>
                <name>Position 5777</name>
            </trkpt>
            <trkpt lon="10.6197633333333" lat="47.4849016666667">
                <ele>1278.8</ele>
                <time>2009-08-25T13:44:32.000Z</time>
                <name>Position 5778</name>
            </trkpt>
            <trkpt lon="10.61979" lat="47.4848566666667">
                <ele>1277.0</ele>
                <time>2009-08-25T13:44:35.000Z</time>
                <name>Position 5779</name>
            </trkpt>
            <trkpt lon="10.6198233333333" lat="47.4848216666667">
                <ele>1275.8</ele>
                <time>2009-08-25T13:44:38.000Z</time>
                <name>Position 5780</name>
            </trkpt>
            <trkpt lon="10.61987" lat="47.4847883333333">
                <ele>1275.1</ele>
                <time>2009-08-25T13:44:41.000Z</time>
                <name>Position 5781</name>
            </trkpt>
            <trkpt lon="10.619895" lat="47.4847566666667">
                <ele>1274.7</ele>
                <time>2009-08-25T13:44:44.000Z</time>
                <name>Position 5782</name>
            </trkpt>
            <trkpt lon="10.6198966666667" lat="47.4847266666667">
                <ele>1274.6</ele>
                <time>2009-08-25T13:44:47.000Z</time>
                <name>Position 5783</name>
            </trkpt>
            <trkpt lon="10.6198883333333" lat="47.4846883333333">
                <ele>1274.1</ele>
                <time>2009-08-25T13:44:50.000Z</time>
                <name>Position 5784</name>
            </trkpt>
            <trkpt lon="10.619895" lat="47.484685">
                <ele>1273.7</ele>
                <time>2009-08-25T13:44:53.000Z</time>
                <name>Position 5785</name>
            </trkpt>
            <trkpt lon="10.6198616666667" lat="47.4846783333333">
                <ele>1273.3</ele>
                <time>2009-08-25T13:44:56.000Z</time>
                <name>Position 5786</name>
            </trkpt>
            <trkpt lon="10.6198133333333" lat="47.4846816666667">
                <ele>1272.4</ele>
                <time>2009-08-25T13:44:59.000Z</time>
                <name>Position 5787</name>
            </trkpt>
            <trkpt lon="10.619755" lat="47.48469">
                <ele>1271.5</ele>
                <time>2009-08-25T13:45:02.000Z</time>
                <name>Position 5788</name>
            </trkpt>
            <trkpt lon="10.6197" lat="47.4847">
                <ele>1270.5</ele>
                <time>2009-08-25T13:45:05.000Z</time>
                <name>Position 5789</name>
            </trkpt>
            <trkpt lon="10.6196483333333" lat="47.4847116666667">
                <ele>1270.9</ele>
                <time>2009-08-25T13:45:08.000Z</time>
                <name>Position 5790</name>
            </trkpt>
            <trkpt lon="10.619595" lat="47.484715">
                <ele>1270.5</ele>
                <time>2009-08-25T13:45:11.000Z</time>
                <name>Position 5791</name>
            </trkpt>
            <trkpt lon="10.61953" lat="47.484715">
                <ele>1270.3</ele>
                <time>2009-08-25T13:45:14.000Z</time>
                <name>Position 5792</name>
            </trkpt>
            <trkpt lon="10.61947" lat="47.48472">
                <ele>1269.3</ele>
                <time>2009-08-25T13:45:17.000Z</time>
                <name>Position 5793</name>
            </trkpt>
            <trkpt lon="10.61941" lat="47.4847283333333">
                <ele>1268.9</ele>
                <time>2009-08-25T13:45:20.000Z</time>
                <name>Position 5794</name>
            </trkpt>
            <trkpt lon="10.6193616666667" lat="47.48474">
                <ele>1268.4</ele>
                <time>2009-08-25T13:45:23.000Z</time>
                <name>Position 5795</name>
            </trkpt>
            <trkpt lon="10.6193083333333" lat="47.4847483333333">
                <ele>1267.9</ele>
                <time>2009-08-25T13:45:26.000Z</time>
                <name>Position 5796</name>
            </trkpt>
            <trkpt lon="10.619285" lat="47.48475">
                <ele>1267.4</ele>
                <time>2009-08-25T13:45:29.000Z</time>
                <name>Position 5797</name>
            </trkpt>
            <trkpt lon="10.619265" lat="47.484765">
                <ele>1267.0</ele>
                <time>2009-08-25T13:45:32.000Z</time>
                <name>Position 5798</name>
            </trkpt>
            <trkpt lon="10.619215" lat="47.48478">
                <ele>1266.3</ele>
                <time>2009-08-25T13:45:35.000Z</time>
                <name>Position 5799</name>
            </trkpt>
            <trkpt lon="10.619165" lat="47.4848083333333">
                <ele>1265.5</ele>
                <time>2009-08-25T13:45:38.000Z</time>
                <name>Position 5800</name>
            </trkpt>
            <trkpt lon="10.6191083333333" lat="47.48482">
                <ele>1264.9</ele>
                <time>2009-08-25T13:45:41.000Z</time>
                <name>Position 5801</name>
            </trkpt>
            <trkpt lon="10.6190533333333" lat="47.4848316666667">
                <ele>1263.8</ele>
                <time>2009-08-25T13:45:44.000Z</time>
                <name>Position 5802</name>
            </trkpt>
            <trkpt lon="10.6189966666667" lat="47.4848466666667">
                <ele>1263.3</ele>
                <time>2009-08-25T13:45:47.000Z</time>
                <name>Position 5803</name>
            </trkpt>
            <trkpt lon="10.618945" lat="47.484855">
                <ele>1263.5</ele>
                <time>2009-08-25T13:45:50.000Z</time>
                <name>Position 5804</name>
            </trkpt>
            <trkpt lon="10.61888" lat="47.484855">
                <ele>1261.9</ele>
                <time>2009-08-25T13:45:53.000Z</time>
                <name>Position 5805</name>
            </trkpt>
            <trkpt lon="10.61882" lat="47.4848616666667">
                <ele>1260.6</ele>
                <time>2009-08-25T13:45:56.000Z</time>
                <name>Position 5806</name>
            </trkpt>
            <trkpt lon="10.6187766666667" lat="47.484865">
                <ele>1260.1</ele>
                <time>2009-08-25T13:45:59.000Z</time>
                <name>Position 5807</name>
            </trkpt>
            <trkpt lon="10.6187316666667" lat="47.4848866666667">
                <ele>1259.3</ele>
                <time>2009-08-25T13:46:02.000Z</time>
                <name>Position 5808</name>
            </trkpt>
            <trkpt lon="10.61868" lat="47.4849066666667">
                <ele>1258.2</ele>
                <time>2009-08-25T13:46:05.000Z</time>
                <name>Position 5809</name>
            </trkpt>
            <trkpt lon="10.6186233333333" lat="47.4849283333333">
                <ele>1257.2</ele>
                <time>2009-08-25T13:46:08.000Z</time>
                <name>Position 5810</name>
            </trkpt>
            <trkpt lon="10.6185816666667" lat="47.4849566666667">
                <ele>1256.5</ele>
                <time>2009-08-25T13:46:11.000Z</time>
                <name>Position 5811</name>
            </trkpt>
            <trkpt lon="10.6185433333333" lat="47.4849766666667">
                <ele>1256.6</ele>
                <time>2009-08-25T13:46:14.000Z</time>
                <name>Position 5812</name>
            </trkpt>
            <trkpt lon="10.6184966666667" lat="47.4849766666667">
                <ele>1256.8</ele>
                <time>2009-08-25T13:46:17.000Z</time>
                <name>Position 5813</name>
            </trkpt>
            <trkpt lon="10.6184416666667" lat="47.48498">
                <ele>1256.9</ele>
                <time>2009-08-25T13:46:20.000Z</time>
                <name>Position 5814</name>
            </trkpt>
            <trkpt lon="10.61838" lat="47.4849783333333">
                <ele>1256.9</ele>
                <time>2009-08-25T13:46:23.000Z</time>
                <name>Position 5815</name>
            </trkpt>
            <trkpt lon="10.6183383333333" lat="47.48498">
                <ele>1256.6</ele>
                <time>2009-08-25T13:46:26.000Z</time>
                <name>Position 5816</name>
            </trkpt>
            <trkpt lon="10.6182983333333" lat="47.4849883333333">
                <ele>1256.1</ele>
                <time>2009-08-25T13:46:29.000Z</time>
                <name>Position 5817</name>
            </trkpt>
            <trkpt lon="10.618265" lat="47.484985">
                <ele>1255.9</ele>
                <time>2009-08-25T13:46:32.000Z</time>
                <name>Position 5818</name>
            </trkpt>
            <trkpt lon="10.618215" lat="47.4849866666667">
                <ele>1255.5</ele>
                <time>2009-08-25T13:46:35.000Z</time>
                <name>Position 5819</name>
            </trkpt>
            <trkpt lon="10.6181916666667" lat="47.4849733333333">
                <ele>1255.4</ele>
                <time>2009-08-25T13:46:38.000Z</time>
                <name>Position 5820</name>
            </trkpt>
            <trkpt lon="10.6181383333333" lat="47.4849716666667">
                <ele>1255.2</ele>
                <time>2009-08-25T13:46:41.000Z</time>
                <name>Position 5821</name>
            </trkpt>
            <trkpt lon="10.61805" lat="47.484985">
                <ele>1254.2</ele>
                <time>2009-08-25T13:46:44.000Z</time>
                <name>Position 5822</name>
            </trkpt>
            <trkpt lon="10.6179683333333" lat="47.4850083333333">
                <ele>1252.8</ele>
                <time>2009-08-25T13:46:47.000Z</time>
                <name>Position 5823</name>
            </trkpt>
            <trkpt lon="10.6178666666667" lat="47.48496">
                <ele>1252.6</ele>
                <time>2009-08-25T13:46:50.000Z</time>
                <name>Position 5824</name>
            </trkpt>
            <trkpt lon="10.6178383333333" lat="47.484945">
                <ele>1252.1</ele>
                <time>2009-08-25T13:46:53.000Z</time>
                <name>Position 5825</name>
            </trkpt>
            <trkpt lon="10.6178116666667" lat="47.484935">
                <ele>1251.7</ele>
                <time>2009-08-25T13:46:56.000Z</time>
                <name>Position 5826</name>
            </trkpt>
            <trkpt lon="10.617805" lat="47.4849183333333">
                <ele>1250.8</ele>
                <time>2009-08-25T13:46:59.000Z</time>
                <name>Position 5827</name>
            </trkpt>
            <trkpt lon="10.6177833333333" lat="47.484895">
                <ele>1250.4</ele>
                <time>2009-08-25T13:47:02.000Z</time>
                <name>Position 5828</name>
            </trkpt>
            <trkpt lon="10.6177216666667" lat="47.4848883333333">
                <ele>1249.9</ele>
                <time>2009-08-25T13:47:05.000Z</time>
                <name>Position 5829</name>
            </trkpt>
            <trkpt lon="10.617675" lat="47.48488">
                <ele>1248.9</ele>
                <time>2009-08-25T13:47:08.000Z</time>
                <name>Position 5830</name>
            </trkpt>
            <trkpt lon="10.6176033333333" lat="47.48487">
                <ele>1247.0</ele>
                <time>2009-08-25T13:47:11.000Z</time>
                <name>Position 5831</name>
            </trkpt>
            <trkpt lon="10.6175516666667" lat="47.4848566666667">
                <ele>1246.0</ele>
                <time>2009-08-25T13:47:14.000Z</time>
                <name>Position 5832</name>
            </trkpt>
            <trkpt lon="10.6175166666667" lat="47.484845">
                <ele>1244.7</ele>
                <time>2009-08-25T13:47:17.000Z</time>
                <name>Position 5833</name>
            </trkpt>
            <trkpt lon="10.617475" lat="47.48484">
                <ele>1243.7</ele>
                <time>2009-08-25T13:47:20.000Z</time>
                <name>Position 5834</name>
            </trkpt>
            <trkpt lon="10.617425" lat="47.4848383333333">
                <ele>1241.9</ele>
                <time>2009-08-25T13:47:23.000Z</time>
                <name>Position 5835</name>
            </trkpt>
            <trkpt lon="10.6173533333333" lat="47.484815">
                <ele>1238.8</ele>
                <time>2009-08-25T13:47:26.000Z</time>
                <name>Position 5836</name>
            </trkpt>
            <trkpt lon="10.617285" lat="47.4847916666667">
                <ele>1235.7</ele>
                <time>2009-08-25T13:47:29.000Z</time>
                <name>Position 5837</name>
            </trkpt>
            <trkpt lon="10.61727" lat="47.48477">
                <ele>1236.2</ele>
                <time>2009-08-25T13:47:32.000Z</time>
                <name>Position 5838</name>
            </trkpt>
            <trkpt lon="10.6172466666667" lat="47.4847416666667">
                <ele>1236.1</ele>
                <time>2009-08-25T13:47:35.000Z</time>
                <name>Position 5839</name>
            </trkpt>
            <trkpt lon="10.61721" lat="47.484695">
                <ele>1234.1</ele>
                <time>2009-08-25T13:47:38.000Z</time>
                <name>Position 5840</name>
            </trkpt>
            <trkpt lon="10.6171733333333" lat="47.4846616666667">
                <ele>1231.2</ele>
                <time>2009-08-25T13:47:41.000Z</time>
                <name>Position 5841</name>
            </trkpt>
            <trkpt lon="10.61712" lat="47.4846583333333">
                <ele>1230.7</ele>
                <time>2009-08-25T13:47:44.000Z</time>
                <name>Position 5842</name>
            </trkpt>
            <trkpt lon="10.61707" lat="47.4846583333333">
                <ele>1230.5</ele>
                <time>2009-08-25T13:47:47.000Z</time>
                <name>Position 5843</name>
            </trkpt>
            <trkpt lon="10.6170283333333" lat="47.4846633333333">
                <ele>1228.5</ele>
                <time>2009-08-25T13:47:50.000Z</time>
                <name>Position 5844</name>
            </trkpt>
            <trkpt lon="10.6169583333333" lat="47.4846766666667">
                <ele>1225.9</ele>
                <time>2009-08-25T13:47:53.000Z</time>
                <name>Position 5845</name>
            </trkpt>
            <trkpt lon="10.6168966666667" lat="47.4846816666667">
                <ele>1224.8</ele>
                <time>2009-08-25T13:47:56.000Z</time>
                <name>Position 5846</name>
            </trkpt>
            <trkpt lon="10.6168416666667" lat="47.484685">
                <ele>1225.1</ele>
                <time>2009-08-25T13:47:59.000Z</time>
                <name>Position 5847</name>
            </trkpt>
            <trkpt lon="10.6167933333333" lat="47.4846833333333">
                <ele>1226.1</ele>
                <time>2009-08-25T13:48:02.000Z</time>
                <name>Position 5848</name>
            </trkpt>
            <trkpt lon="10.61673" lat="47.4846916666667">
                <ele>1226.2</ele>
                <time>2009-08-25T13:48:05.000Z</time>
                <name>Position 5849</name>
            </trkpt>
            <trkpt lon="10.6166983333333" lat="47.4846883333333">
                <ele>1226.5</ele>
                <time>2009-08-25T13:48:08.000Z</time>
                <name>Position 5850</name>
            </trkpt>
            <trkpt lon="10.6166533333333" lat="47.48468">
                <ele>1226.8</ele>
                <time>2009-08-25T13:48:11.000Z</time>
                <name>Position 5851</name>
            </trkpt>
            <trkpt lon="10.6166066666667" lat="47.4846783333333">
                <ele>1227.1</ele>
                <time>2009-08-25T13:48:14.000Z</time>
                <name>Position 5852</name>
            </trkpt>
            <trkpt lon="10.616505" lat="47.4847016666667">
                <ele>1225.9</ele>
                <time>2009-08-25T13:48:17.000Z</time>
                <name>Position 5853</name>
            </trkpt>
            <trkpt lon="10.6164383333333" lat="47.4847066666667">
                <ele>1225.3</ele>
                <time>2009-08-25T13:48:20.000Z</time>
                <name>Position 5854</name>
            </trkpt>
            <trkpt lon="10.61639" lat="47.4847033333333">
                <ele>1224.1</ele>
                <time>2009-08-25T13:48:23.000Z</time>
                <name>Position 5855</name>
            </trkpt>
            <trkpt lon="10.6163483333333" lat="47.4846966666667">
                <ele>1223.4</ele>
                <time>2009-08-25T13:48:26.000Z</time>
                <name>Position 5856</name>
            </trkpt>
            <trkpt lon="10.6162983333333" lat="47.4846716666667">
                <ele>1223.3</ele>
                <time>2009-08-25T13:48:29.000Z</time>
                <name>Position 5857</name>
            </trkpt>
            <trkpt lon="10.6162616666667" lat="47.4846583333333">
                <ele>1222.0</ele>
                <time>2009-08-25T13:48:32.000Z</time>
                <name>Position 5858</name>
            </trkpt>
            <trkpt lon="10.6161983333333" lat="47.484635">
                <ele>1220.2</ele>
                <time>2009-08-25T13:48:35.000Z</time>
                <name>Position 5859</name>
            </trkpt>
            <trkpt lon="10.6161266666667" lat="47.4846333333333">
                <ele>1218.8</ele>
                <time>2009-08-25T13:48:38.000Z</time>
                <name>Position 5860</name>
            </trkpt>
            <trkpt lon="10.61607" lat="47.48462">
                <ele>1216.8</ele>
                <time>2009-08-25T13:48:41.000Z</time>
                <name>Position 5861</name>
            </trkpt>
            <trkpt lon="10.6160266666667" lat="47.484605">
                <ele>1215.5</ele>
                <time>2009-08-25T13:48:44.000Z</time>
                <name>Position 5862</name>
            </trkpt>
            <trkpt lon="10.6159833333333" lat="47.4846016666667">
                <ele>1214.9</ele>
                <time>2009-08-25T13:48:47.000Z</time>
                <name>Position 5863</name>
            </trkpt>
            <trkpt lon="10.61591" lat="47.4846183333333">
                <ele>1213.2</ele>
                <time>2009-08-25T13:48:50.000Z</time>
                <name>Position 5864</name>
            </trkpt>
            <trkpt lon="10.6158616666667" lat="47.48459">
                <ele>1212.4</ele>
                <time>2009-08-25T13:48:53.000Z</time>
                <name>Position 5865</name>
            </trkpt>
            <trkpt lon="10.615785" lat="47.4845866666667">
                <ele>1212.4</ele>
                <time>2009-08-25T13:48:56.000Z</time>
                <name>Position 5866</name>
            </trkpt>
            <trkpt lon="10.6157283333333" lat="47.4845883333333">
                <ele>1211.5</ele>
                <time>2009-08-25T13:48:59.000Z</time>
                <name>Position 5867</name>
            </trkpt>
            <trkpt lon="10.61567" lat="47.484585">
                <ele>1211.3</ele>
                <time>2009-08-25T13:49:02.000Z</time>
                <name>Position 5868</name>
            </trkpt>
            <trkpt lon="10.6156216666667" lat="47.4845983333333">
                <ele>1212.0</ele>
                <time>2009-08-25T13:49:05.000Z</time>
                <name>Position 5869</name>
            </trkpt>
            <trkpt lon="10.615575" lat="47.4846183333333">
                <ele>1211.5</ele>
                <time>2009-08-25T13:49:08.000Z</time>
                <name>Position 5870</name>
            </trkpt>
            <trkpt lon="10.6155466666667" lat="47.4846316666667">
                <ele>1211.9</ele>
                <time>2009-08-25T13:49:11.000Z</time>
                <name>Position 5871</name>
            </trkpt>
            <trkpt lon="10.6154916666667" lat="47.4846416666667">
                <ele>1211.4</ele>
                <time>2009-08-25T13:49:14.000Z</time>
                <name>Position 5872</name>
            </trkpt>
            <trkpt lon="10.6154433333333" lat="47.4846433333333">
                <ele>1210.4</ele>
                <time>2009-08-25T13:49:17.000Z</time>
                <name>Position 5873</name>
            </trkpt>
            <trkpt lon="10.6153816666667" lat="47.484635">
                <ele>1209.6</ele>
                <time>2009-08-25T13:49:20.000Z</time>
                <name>Position 5874</name>
            </trkpt>
            <trkpt lon="10.61534" lat="47.484625">
                <ele>1209.1</ele>
                <time>2009-08-25T13:49:23.000Z</time>
                <name>Position 5875</name>
            </trkpt>
            <trkpt lon="10.6153116666667" lat="47.4845983333333">
                <ele>1209.1</ele>
                <time>2009-08-25T13:49:26.000Z</time>
                <name>Position 5876</name>
            </trkpt>
            <trkpt lon="10.6152866666667" lat="47.4845933333333">
                <ele>1208.3</ele>
                <time>2009-08-25T13:49:29.000Z</time>
                <name>Position 5877</name>
            </trkpt>
            <trkpt lon="10.61525" lat="47.4845833333333">
                <ele>1207.9</ele>
                <time>2009-08-25T13:49:32.000Z</time>
                <name>Position 5878</name>
            </trkpt>
            <trkpt lon="10.6152033333333" lat="47.4845916666667">
                <ele>1207.3</ele>
                <time>2009-08-25T13:49:35.000Z</time>
                <name>Position 5879</name>
            </trkpt>
            <trkpt lon="10.6151783333333" lat="47.4845733333333">
                <ele>1206.0</ele>
                <time>2009-08-25T13:49:38.000Z</time>
                <name>Position 5880</name>
            </trkpt>
            <trkpt lon="10.61514" lat="47.48452">
                <ele>1205.5</ele>
                <time>2009-08-25T13:49:41.000Z</time>
                <name>Position 5881</name>
            </trkpt>
            <trkpt lon="10.61511" lat="47.4845016666667">
                <ele>1205.5</ele>
                <time>2009-08-25T13:49:44.000Z</time>
                <name>Position 5882</name>
            </trkpt>
            <trkpt lon="10.6150433333333" lat="47.4844683333333">
                <ele>1204.0</ele>
                <time>2009-08-25T13:49:47.000Z</time>
                <name>Position 5883</name>
            </trkpt>
            <trkpt lon="10.6149916666667" lat="47.4844316666667">
                <ele>1202.9</ele>
                <time>2009-08-25T13:49:50.000Z</time>
                <name>Position 5884</name>
            </trkpt>
            <trkpt lon="10.6149483333333" lat="47.4844183333333">
                <ele>1201.2</ele>
                <time>2009-08-25T13:49:53.000Z</time>
                <name>Position 5885</name>
            </trkpt>
            <trkpt lon="10.6148966666667" lat="47.484425">
                <ele>1201.9</ele>
                <time>2009-08-25T13:49:56.000Z</time>
                <name>Position 5886</name>
            </trkpt>
            <trkpt lon="10.6148416666667" lat="47.4844383333333">
                <ele>1202.3</ele>
                <time>2009-08-25T13:49:59.000Z</time>
                <name>Position 5887</name>
            </trkpt>
            <trkpt lon="10.614815" lat="47.4844433333333">
                <ele>1202.6</ele>
                <time>2009-08-25T13:50:02.000Z</time>
                <name>Position 5888</name>
            </trkpt>
            <trkpt lon="10.6147866666667" lat="47.4844383333333">
                <ele>1203.2</ele>
                <time>2009-08-25T13:50:05.000Z</time>
                <name>Position 5889</name>
            </trkpt>
            <trkpt lon="10.6147433333333" lat="47.48445">
                <ele>1202.7</ele>
                <time>2009-08-25T13:50:08.000Z</time>
                <name>Position 5890</name>
            </trkpt>
            <trkpt lon="10.6146833333333" lat="47.4844583333333">
                <ele>1203.0</ele>
                <time>2009-08-25T13:50:11.000Z</time>
                <name>Position 5891</name>
            </trkpt>
            <trkpt lon="10.6146133333333" lat="47.4844766666667">
                <ele>1203.1</ele>
                <time>2009-08-25T13:50:14.000Z</time>
                <name>Position 5892</name>
            </trkpt>
            <trkpt lon="10.61456" lat="47.4844616666667">
                <ele>1205.0</ele>
                <time>2009-08-25T13:50:17.000Z</time>
                <name>Position 5893</name>
            </trkpt>
            <trkpt lon="10.61448" lat="47.4844883333333">
                <ele>1204.7</ele>
                <time>2009-08-25T13:50:20.000Z</time>
                <name>Position 5894</name>
            </trkpt>
            <trkpt lon="10.6144116666667" lat="47.4845066666667">
                <ele>1203.9</ele>
                <time>2009-08-25T13:50:23.000Z</time>
                <name>Position 5895</name>
            </trkpt>
            <trkpt lon="10.614355" lat="47.4845183333333">
                <ele>1204.1</ele>
                <time>2009-08-25T13:50:26.000Z</time>
                <name>Position 5896</name>
            </trkpt>
            <trkpt lon="10.6143066666667" lat="47.4845383333333">
                <ele>1204.5</ele>
                <time>2009-08-25T13:50:29.000Z</time>
                <name>Position 5897</name>
            </trkpt>
            <trkpt lon="10.614235" lat="47.484565">
                <ele>1204.5</ele>
                <time>2009-08-25T13:50:32.000Z</time>
                <name>Position 5898</name>
            </trkpt>
            <trkpt lon="10.6141733333333" lat="47.4845966666667">
                <ele>1204.2</ele>
                <time>2009-08-25T13:50:35.000Z</time>
                <name>Position 5899</name>
            </trkpt>
            <trkpt lon="10.6141183333333" lat="47.4846116666667">
                <ele>1203.7</ele>
                <time>2009-08-25T13:50:38.000Z</time>
                <name>Position 5900</name>
            </trkpt>
            <trkpt lon="10.6140633333333" lat="47.4846216666667">
                <ele>1203.4</ele>
                <time>2009-08-25T13:50:41.000Z</time>
                <name>Position 5901</name>
            </trkpt>
            <trkpt lon="10.6140083333333" lat="47.4846583333333">
                <ele>1203.3</ele>
                <time>2009-08-25T13:50:44.000Z</time>
                <name>Position 5902</name>
            </trkpt>
            <trkpt lon="10.61396" lat="47.484675">
                <ele>1203.4</ele>
                <time>2009-08-25T13:50:47.000Z</time>
                <name>Position 5903</name>
            </trkpt>
            <trkpt lon="10.6139166666667" lat="47.484685">
                <ele>1203.8</ele>
                <time>2009-08-25T13:50:50.000Z</time>
                <name>Position 5904</name>
            </trkpt>
            <trkpt lon="10.6138716666667" lat="47.484695">
                <ele>1204.2</ele>
                <time>2009-08-25T13:50:53.000Z</time>
                <name>Position 5905</name>
            </trkpt>
            <trkpt lon="10.613835" lat="47.4847116666667">
                <ele>1204.5</ele>
                <time>2009-08-25T13:50:56.000Z</time>
                <name>Position 5906</name>
            </trkpt>
        </trkseg>
    </trk>
</gpx>
